<?xml version="1.0" encoding="UTF-8" standalone="no" ?>
<gpx xmlns="http://www.topografix.com/GPX/1/1" xmlns:xsi="http://www.w3.org/2001/XMLSchema-instance" xsi:schemaLocation="http://www.topografix.com/GPX/1/1 http://www.topografix.com/GPX/1/1/gpx.xsd" version="1.1" creator="VisuGPX - https://www.visugpx.com">
  <metadata>
    <name>25 ème étape Louhossoa</name>
  </metadata>
  <trk>
    <name><![CDATA[25 ème étape Louhossoa]]></name>
    <trkseg>
      <trkpt lat="43.34491" lon="-1.61665">
        <ele>20.8</ele>
        <time>2021-07-18T07:35:01Z</time>
      </trkpt>
      <trkpt lat="43.34491" lon="-1.61665">
        <ele>20.8</ele>
        <time>2021-07-18T07:35:02Z</time>
      </trkpt>
      <trkpt lat="43.34491" lon="-1.61666">
        <ele>20.8</ele>
        <time>2021-07-18T07:35:03Z</time>
      </trkpt>
      <trkpt lat="43.34487" lon="-1.61666">
        <ele>20.7</ele>
        <time>2021-07-18T07:35:05Z</time>
      </trkpt>
      <trkpt lat="43.34487" lon="-1.61666">
        <ele>20.7</ele>
        <time>2021-07-18T07:35:06Z</time>
      </trkpt>
      <trkpt lat="43.34487" lon="-1.61666">
        <ele>20.7</ele>
        <time>2021-07-18T07:35:07Z</time>
      </trkpt>
      <trkpt lat="43.34486" lon="-1.61667">
        <ele>20.7</ele>
        <time>2021-07-18T07:35:09Z</time>
      </trkpt>
      <trkpt lat="43.34484" lon="-1.61668">
        <ele>20.6</ele>
        <time>2021-07-18T07:35:10Z</time>
      </trkpt>
      <trkpt lat="43.34481" lon="-1.61669">
        <ele>20.6</ele>
        <time>2021-07-18T07:35:11Z</time>
      </trkpt>
      <trkpt lat="43.3448" lon="-1.61669">
        <ele>20.5</ele>
        <time>2021-07-18T07:35:12Z</time>
      </trkpt>
      <trkpt lat="43.34478" lon="-1.61669">
        <ele>20.5</ele>
        <time>2021-07-18T07:35:13Z</time>
      </trkpt>
      <trkpt lat="43.34478" lon="-1.61669">
        <ele>20.5</ele>
        <time>2021-07-18T07:35:15Z</time>
      </trkpt>
      <trkpt lat="43.34476" lon="-1.61669">
        <ele>20.5</ele>
        <time>2021-07-18T07:35:17Z</time>
      </trkpt>
      <trkpt lat="43.34476" lon="-1.61669">
        <ele>20.4</ele>
        <time>2021-07-18T07:35:18Z</time>
      </trkpt>
      <trkpt lat="43.34476" lon="-1.61669">
        <ele>20.4</ele>
        <time>2021-07-18T07:35:19Z</time>
      </trkpt>
      <trkpt lat="43.34475" lon="-1.61671">
        <ele>20.4</ele>
        <time>2021-07-18T07:35:21Z</time>
      </trkpt>
      <trkpt lat="43.34474" lon="-1.61671">
        <ele>20.4</ele>
        <time>2021-07-18T07:35:23Z</time>
      </trkpt>
      <trkpt lat="43.34473" lon="-1.61671">
        <ele>20.3</ele>
        <time>2021-07-18T07:35:25Z</time>
      </trkpt>
      <trkpt lat="43.34473" lon="-1.61672">
        <ele>20.3</ele>
        <time>2021-07-18T07:35:26Z</time>
      </trkpt>
      <trkpt lat="43.34473" lon="-1.61672">
        <ele>20.3</ele>
        <time>2021-07-18T07:35:28Z</time>
      </trkpt>
      <trkpt lat="43.34473" lon="-1.61671">
        <ele>20.3</ele>
        <time>2021-07-18T07:35:29Z</time>
      </trkpt>
      <trkpt lat="43.34473" lon="-1.61671">
        <ele>20.3</ele>
        <time>2021-07-18T07:35:30Z</time>
      </trkpt>
      <trkpt lat="43.34472" lon="-1.61671">
        <ele>20.3</ele>
        <time>2021-07-18T07:35:32Z</time>
      </trkpt>
      <trkpt lat="43.34472" lon="-1.61671">
        <ele>20.3</ele>
        <time>2021-07-18T07:35:34Z</time>
      </trkpt>
      <trkpt lat="43.34471" lon="-1.6167">
        <ele>20.3</ele>
        <time>2021-07-18T07:35:35Z</time>
      </trkpt>
      <trkpt lat="43.34471" lon="-1.61671">
        <ele>20.3</ele>
        <time>2021-07-18T07:35:37Z</time>
      </trkpt>
      <trkpt lat="43.34471" lon="-1.61671">
        <ele>20.3</ele>
        <time>2021-07-18T07:35:38Z</time>
      </trkpt>
      <trkpt lat="43.3447" lon="-1.61671">
        <ele>20.3</ele>
        <time>2021-07-18T07:35:39Z</time>
      </trkpt>
      <trkpt lat="43.34468" lon="-1.61668">
        <ele>20.2</ele>
        <time>2021-07-18T07:36:40Z</time>
      </trkpt>
      <trkpt lat="43.34468" lon="-1.61667">
        <ele>20.1</ele>
        <time>2021-07-18T07:36:42Z</time>
      </trkpt>
      <trkpt lat="43.34469" lon="-1.61666">
        <ele>20.1</ele>
        <time>2021-07-18T07:36:43Z</time>
      </trkpt>
      <trkpt lat="43.34469" lon="-1.61665">
        <ele>20.1</ele>
        <time>2021-07-18T07:36:45Z</time>
      </trkpt>
      <trkpt lat="43.34471" lon="-1.61665">
        <ele>20.1</ele>
        <time>2021-07-18T07:36:46Z</time>
      </trkpt>
      <trkpt lat="43.34472" lon="-1.61666">
        <ele>20</ele>
        <time>2021-07-18T07:36:47Z</time>
      </trkpt>
      <trkpt lat="43.34473" lon="-1.61667">
        <ele>20</ele>
        <time>2021-07-18T07:36:49Z</time>
      </trkpt>
      <trkpt lat="43.34475" lon="-1.61669">
        <ele>19.9</ele>
        <time>2021-07-18T07:36:50Z</time>
      </trkpt>
      <trkpt lat="43.34478" lon="-1.6167">
        <ele>19.8</ele>
        <time>2021-07-18T07:36:52Z</time>
      </trkpt>
      <trkpt lat="43.34479" lon="-1.6167">
        <ele>19.8</ele>
        <time>2021-07-18T07:36:53Z</time>
      </trkpt>
      <trkpt lat="43.3448" lon="-1.6167">
        <ele>19.8</ele>
        <time>2021-07-18T07:36:54Z</time>
      </trkpt>
      <trkpt lat="43.34483" lon="-1.6167">
        <ele>19.7</ele>
        <time>2021-07-18T07:36:56Z</time>
      </trkpt>
      <trkpt lat="43.34485" lon="-1.6167">
        <ele>19.6</ele>
        <time>2021-07-18T07:36:57Z</time>
      </trkpt>
      <trkpt lat="43.34488" lon="-1.61669">
        <ele>19.5</ele>
        <time>2021-07-18T07:36:59Z</time>
      </trkpt>
      <trkpt lat="43.3449" lon="-1.61669">
        <ele>19.4</ele>
        <time>2021-07-18T07:37:00Z</time>
      </trkpt>
      <trkpt lat="43.34492" lon="-1.6167">
        <ele>19.4</ele>
        <time>2021-07-18T07:37:02Z</time>
      </trkpt>
      <trkpt lat="43.34494" lon="-1.61671">
        <ele>19.3</ele>
        <time>2021-07-18T07:37:04Z</time>
      </trkpt>
      <trkpt lat="43.34496" lon="-1.61671">
        <ele>19.2</ele>
        <time>2021-07-18T07:37:05Z</time>
      </trkpt>
      <trkpt lat="43.34498" lon="-1.61674">
        <ele>19.2</ele>
        <time>2021-07-18T07:37:06Z</time>
      </trkpt>
      <trkpt lat="43.34499" lon="-1.61675">
        <ele>19.1</ele>
        <time>2021-07-18T07:37:07Z</time>
      </trkpt>
      <trkpt lat="43.34499" lon="-1.61677">
        <ele>19.1</ele>
        <time>2021-07-18T07:37:08Z</time>
      </trkpt>
      <trkpt lat="43.345" lon="-1.6168">
        <ele>19</ele>
        <time>2021-07-18T07:37:10Z</time>
      </trkpt>
      <trkpt lat="43.345" lon="-1.61683">
        <ele>18.9</ele>
        <time>2021-07-18T07:37:11Z</time>
      </trkpt>
      <trkpt lat="43.34501" lon="-1.61687">
        <ele>18.8</ele>
        <time>2021-07-18T07:37:13Z</time>
      </trkpt>
      <trkpt lat="43.34502" lon="-1.61689">
        <ele>18.8</ele>
        <time>2021-07-18T07:37:14Z</time>
      </trkpt>
      <trkpt lat="43.34505" lon="-1.61691">
        <ele>18.7</ele>
        <time>2021-07-18T07:37:16Z</time>
      </trkpt>
      <trkpt lat="43.34508" lon="-1.61693">
        <ele>18.6</ele>
        <time>2021-07-18T07:37:17Z</time>
      </trkpt>
      <trkpt lat="43.34508" lon="-1.61693">
        <ele>18.6</ele>
        <time>2021-07-18T07:37:18Z</time>
      </trkpt>
      <trkpt lat="43.34511" lon="-1.61695">
        <ele>18.5</ele>
        <time>2021-07-18T07:37:20Z</time>
      </trkpt>
      <trkpt lat="43.34512" lon="-1.61696">
        <ele>18.4</ele>
        <time>2021-07-18T07:37:21Z</time>
      </trkpt>
      <trkpt lat="43.34513" lon="-1.61697">
        <ele>18.4</ele>
        <time>2021-07-18T07:37:22Z</time>
      </trkpt>
      <trkpt lat="43.34516" lon="-1.61698">
        <ele>18.3</ele>
        <time>2021-07-18T07:37:24Z</time>
      </trkpt>
      <trkpt lat="43.34517" lon="-1.61699">
        <ele>18.3</ele>
        <time>2021-07-18T07:37:25Z</time>
      </trkpt>
      <trkpt lat="43.34519" lon="-1.617">
        <ele>18.2</ele>
        <time>2021-07-18T07:37:27Z</time>
      </trkpt>
      <trkpt lat="43.3452" lon="-1.61701">
        <ele>18.2</ele>
        <time>2021-07-18T07:37:28Z</time>
      </trkpt>
      <trkpt lat="43.34522" lon="-1.61702">
        <ele>18.1</ele>
        <time>2021-07-18T07:37:30Z</time>
      </trkpt>
      <trkpt lat="43.34524" lon="-1.61703">
        <ele>18.1</ele>
        <time>2021-07-18T07:37:31Z</time>
      </trkpt>
      <trkpt lat="43.34525" lon="-1.61704">
        <ele>18</ele>
        <time>2021-07-18T07:37:32Z</time>
      </trkpt>
      <trkpt lat="43.34526" lon="-1.61705">
        <ele>18</ele>
        <time>2021-07-18T07:37:33Z</time>
      </trkpt>
      <trkpt lat="43.34528" lon="-1.61708">
        <ele>18</ele>
        <time>2021-07-18T07:37:35Z</time>
      </trkpt>
      <trkpt lat="43.34529" lon="-1.6171">
        <ele>17.9</ele>
        <time>2021-07-18T07:37:37Z</time>
      </trkpt>
      <trkpt lat="43.3453" lon="-1.6171">
        <ele>17.9</ele>
        <time>2021-07-18T07:37:38Z</time>
      </trkpt>
      <trkpt lat="43.34531" lon="-1.61711">
        <ele>17.9</ele>
        <time>2021-07-18T07:37:39Z</time>
      </trkpt>
      <trkpt lat="43.34532" lon="-1.61712">
        <ele>17.8</ele>
        <time>2021-07-18T07:37:40Z</time>
      </trkpt>
      <trkpt lat="43.34533" lon="-1.61713">
        <ele>17.8</ele>
        <time>2021-07-18T07:37:42Z</time>
      </trkpt>
      <trkpt lat="43.34534" lon="-1.61714">
        <ele>17.8</ele>
        <time>2021-07-18T07:37:43Z</time>
      </trkpt>
      <trkpt lat="43.34534" lon="-1.61716">
        <ele>17.7</ele>
        <time>2021-07-18T07:37:45Z</time>
      </trkpt>
      <trkpt lat="43.34534" lon="-1.61717">
        <ele>17.7</ele>
        <time>2021-07-18T07:37:47Z</time>
      </trkpt>
      <trkpt lat="43.34534" lon="-1.61717">
        <ele>17.7</ele>
        <time>2021-07-18T07:37:48Z</time>
      </trkpt>
      <trkpt lat="43.34534" lon="-1.61717">
        <ele>17.7</ele>
        <time>2021-07-18T07:37:50Z</time>
      </trkpt>
      <trkpt lat="43.34534" lon="-1.61717">
        <ele>17.7</ele>
        <time>2021-07-18T07:37:52Z</time>
      </trkpt>
      <trkpt lat="43.34534" lon="-1.61717">
        <ele>17.7</ele>
        <time>2021-07-18T07:37:53Z</time>
      </trkpt>
      <trkpt lat="43.34533" lon="-1.61717">
        <ele>17.7</ele>
        <time>2021-07-18T07:37:55Z</time>
      </trkpt>
      <trkpt lat="43.34537" lon="-1.61717">
        <ele>17.6</ele>
        <time>2021-07-18T07:42:04Z</time>
      </trkpt>
      <trkpt lat="43.34538" lon="-1.61716">
        <ele>17.6</ele>
        <time>2021-07-18T07:42:06Z</time>
      </trkpt>
      <trkpt lat="43.34538" lon="-1.61716">
        <ele>17.6</ele>
        <time>2021-07-18T07:42:07Z</time>
      </trkpt>
      <trkpt lat="43.34538" lon="-1.61715">
        <ele>17.5</ele>
        <time>2021-07-18T07:42:09Z</time>
      </trkpt>
      <trkpt lat="43.34538" lon="-1.61715">
        <ele>17.5</ele>
        <time>2021-07-18T07:42:10Z</time>
      </trkpt>
      <trkpt lat="43.34538" lon="-1.61714">
        <ele>17.5</ele>
        <time>2021-07-18T07:42:12Z</time>
      </trkpt>
      <trkpt lat="43.34538" lon="-1.61714">
        <ele>17.5</ele>
        <time>2021-07-18T07:42:13Z</time>
      </trkpt>
      <trkpt lat="43.34538" lon="-1.61714">
        <ele>17.5</ele>
        <time>2021-07-18T07:42:14Z</time>
      </trkpt>
      <trkpt lat="43.34538" lon="-1.61714">
        <ele>17.5</ele>
        <time>2021-07-18T07:42:16Z</time>
      </trkpt>
      <trkpt lat="43.3454" lon="-1.61717">
        <ele>17.5</ele>
        <time>2021-07-18T07:43:46Z</time>
      </trkpt>
      <trkpt lat="43.34541" lon="-1.61718">
        <ele>17.4</ele>
        <time>2021-07-18T07:43:48Z</time>
      </trkpt>
      <trkpt lat="43.34543" lon="-1.61719">
        <ele>17.4</ele>
        <time>2021-07-18T07:43:49Z</time>
      </trkpt>
      <trkpt lat="43.34545" lon="-1.61723">
        <ele>17.3</ele>
        <time>2021-07-18T07:43:51Z</time>
      </trkpt>
      <trkpt lat="43.34547" lon="-1.61724">
        <ele>17.2</ele>
        <time>2021-07-18T07:43:53Z</time>
      </trkpt>
      <trkpt lat="43.34548" lon="-1.61724">
        <ele>17.2</ele>
        <time>2021-07-18T07:43:54Z</time>
      </trkpt>
      <trkpt lat="43.3455" lon="-1.61726">
        <ele>17.1</ele>
        <time>2021-07-18T07:43:55Z</time>
      </trkpt>
      <trkpt lat="43.34552" lon="-1.61726">
        <ele>17.1</ele>
        <time>2021-07-18T07:43:57Z</time>
      </trkpt>
      <trkpt lat="43.34556" lon="-1.61725">
        <ele>17</ele>
        <time>2021-07-18T07:43:59Z</time>
      </trkpt>
      <trkpt lat="43.34558" lon="-1.61724">
        <ele>17</ele>
        <time>2021-07-18T07:44:00Z</time>
      </trkpt>
      <trkpt lat="43.34559" lon="-1.61722">
        <ele>16.9</ele>
        <time>2021-07-18T07:44:02Z</time>
      </trkpt>
      <trkpt lat="43.3456" lon="-1.6172">
        <ele>16.9</ele>
        <time>2021-07-18T07:44:03Z</time>
      </trkpt>
      <trkpt lat="43.34561" lon="-1.61719">
        <ele>16.8</ele>
        <time>2021-07-18T07:44:04Z</time>
      </trkpt>
      <trkpt lat="43.34561" lon="-1.61717">
        <ele>16.8</ele>
        <time>2021-07-18T07:44:05Z</time>
      </trkpt>
      <trkpt lat="43.34561" lon="-1.61716">
        <ele>16.8</ele>
        <time>2021-07-18T07:44:06Z</time>
      </trkpt>
      <trkpt lat="43.34564" lon="-1.61712">
        <ele>16.7</ele>
        <time>2021-07-18T07:44:08Z</time>
      </trkpt>
      <trkpt lat="43.34565" lon="-1.6171">
        <ele>16.6</ele>
        <time>2021-07-18T07:44:09Z</time>
      </trkpt>
      <trkpt lat="43.34567" lon="-1.61706">
        <ele>16.6</ele>
        <time>2021-07-18T07:44:11Z</time>
      </trkpt>
      <trkpt lat="43.34568" lon="-1.61703">
        <ele>16.5</ele>
        <time>2021-07-18T07:44:13Z</time>
      </trkpt>
      <trkpt lat="43.34568" lon="-1.61702">
        <ele>16.5</ele>
        <time>2021-07-18T07:44:14Z</time>
      </trkpt>
      <trkpt lat="43.34571" lon="-1.61701">
        <ele>16.4</ele>
        <time>2021-07-18T07:44:15Z</time>
      </trkpt>
      <trkpt lat="43.34574" lon="-1.61697">
        <ele>16.3</ele>
        <time>2021-07-18T07:44:17Z</time>
      </trkpt>
      <trkpt lat="43.34578" lon="-1.61698">
        <ele>16.2</ele>
        <time>2021-07-18T07:44:19Z</time>
      </trkpt>
      <trkpt lat="43.34579" lon="-1.617">
        <ele>16.2</ele>
        <time>2021-07-18T07:44:20Z</time>
      </trkpt>
      <trkpt lat="43.34582" lon="-1.61703">
        <ele>16.1</ele>
        <time>2021-07-18T07:44:22Z</time>
      </trkpt>
      <trkpt lat="43.34584" lon="-1.61704">
        <ele>16</ele>
        <time>2021-07-18T07:44:23Z</time>
      </trkpt>
      <trkpt lat="43.34588" lon="-1.61705">
        <ele>15.9</ele>
        <time>2021-07-18T07:44:25Z</time>
      </trkpt>
      <trkpt lat="43.34591" lon="-1.61706">
        <ele>15.9</ele>
        <time>2021-07-18T07:44:26Z</time>
      </trkpt>
      <trkpt lat="43.34595" lon="-1.61708">
        <ele>15.7</ele>
        <time>2021-07-18T07:44:27Z</time>
      </trkpt>
      <trkpt lat="43.34598" lon="-1.61709">
        <ele>15.6</ele>
        <time>2021-07-18T07:44:28Z</time>
      </trkpt>
      <trkpt lat="43.34604" lon="-1.61713">
        <ele>15.4</ele>
        <time>2021-07-18T07:44:30Z</time>
      </trkpt>
      <trkpt lat="43.34607" lon="-1.61714">
        <ele>15.3</ele>
        <time>2021-07-18T07:44:31Z</time>
      </trkpt>
      <trkpt lat="43.34611" lon="-1.61715">
        <ele>15.1</ele>
        <time>2021-07-18T07:44:32Z</time>
      </trkpt>
      <trkpt lat="43.34612" lon="-1.61716">
        <ele>15.1</ele>
        <time>2021-07-18T07:44:33Z</time>
      </trkpt>
      <trkpt lat="43.34613" lon="-1.61719">
        <ele>14.9</ele>
        <time>2021-07-18T07:44:34Z</time>
      </trkpt>
      <trkpt lat="43.34614" lon="-1.61726">
        <ele>14.7</ele>
        <time>2021-07-18T07:44:36Z</time>
      </trkpt>
      <trkpt lat="43.34614" lon="-1.61734">
        <ele>14.6</ele>
        <time>2021-07-18T07:44:38Z</time>
      </trkpt>
      <trkpt lat="43.34613" lon="-1.61741">
        <ele>14.5</ele>
        <time>2021-07-18T07:44:39Z</time>
      </trkpt>
      <trkpt lat="43.3461" lon="-1.61752">
        <ele>14.4</ele>
        <time>2021-07-18T07:44:41Z</time>
      </trkpt>
      <trkpt lat="43.34609" lon="-1.61763">
        <ele>14.4</ele>
        <time>2021-07-18T07:44:43Z</time>
      </trkpt>
      <trkpt lat="43.34608" lon="-1.61772">
        <ele>14.3</ele>
        <time>2021-07-18T07:44:45Z</time>
      </trkpt>
      <trkpt lat="43.34607" lon="-1.6178">
        <ele>14.4</ele>
        <time>2021-07-18T07:44:46Z</time>
      </trkpt>
      <trkpt lat="43.34607" lon="-1.61787">
        <ele>14.4</ele>
        <time>2021-07-18T07:44:47Z</time>
      </trkpt>
      <trkpt lat="43.34605" lon="-1.61793">
        <ele>14.4</ele>
        <time>2021-07-18T07:44:48Z</time>
      </trkpt>
      <trkpt lat="43.34603" lon="-1.61801">
        <ele>14.5</ele>
        <time>2021-07-18T07:44:50Z</time>
      </trkpt>
      <trkpt lat="43.34601" lon="-1.61808">
        <ele>14.5</ele>
        <time>2021-07-18T07:44:51Z</time>
      </trkpt>
      <trkpt lat="43.34599" lon="-1.61819">
        <ele>14.6</ele>
        <time>2021-07-18T07:44:53Z</time>
      </trkpt>
      <trkpt lat="43.34597" lon="-1.61826">
        <ele>14.6</ele>
        <time>2021-07-18T07:44:55Z</time>
      </trkpt>
      <trkpt lat="43.34596" lon="-1.61833">
        <ele>14.7</ele>
        <time>2021-07-18T07:44:56Z</time>
      </trkpt>
      <trkpt lat="43.34594" lon="-1.61844">
        <ele>14.8</ele>
        <time>2021-07-18T07:44:58Z</time>
      </trkpt>
      <trkpt lat="43.34593" lon="-1.61855">
        <ele>15.1</ele>
        <time>2021-07-18T07:45:00Z</time>
      </trkpt>
      <trkpt lat="43.3459" lon="-1.61866">
        <ele>15.4</ele>
        <time>2021-07-18T07:45:02Z</time>
      </trkpt>
      <trkpt lat="43.34589" lon="-1.61873">
        <ele>15.5</ele>
        <time>2021-07-18T07:45:04Z</time>
      </trkpt>
      <trkpt lat="43.34588" lon="-1.61879">
        <ele>15.7</ele>
        <time>2021-07-18T07:45:05Z</time>
      </trkpt>
      <trkpt lat="43.34587" lon="-1.61883">
        <ele>15.8</ele>
        <time>2021-07-18T07:45:06Z</time>
      </trkpt>
      <trkpt lat="43.34586" lon="-1.6189">
        <ele>16</ele>
        <time>2021-07-18T07:45:08Z</time>
      </trkpt>
      <trkpt lat="43.34585" lon="-1.61894">
        <ele>16.1</ele>
        <time>2021-07-18T07:45:09Z</time>
      </trkpt>
      <trkpt lat="43.34584" lon="-1.619">
        <ele>16.2</ele>
        <time>2021-07-18T07:45:11Z</time>
      </trkpt>
      <trkpt lat="43.34583" lon="-1.61907">
        <ele>16.3</ele>
        <time>2021-07-18T07:45:13Z</time>
      </trkpt>
      <trkpt lat="43.34583" lon="-1.61911">
        <ele>16.4</ele>
        <time>2021-07-18T07:45:14Z</time>
      </trkpt>
      <trkpt lat="43.34583" lon="-1.61918">
        <ele>16.4</ele>
        <time>2021-07-18T07:45:16Z</time>
      </trkpt>
      <trkpt lat="43.34582" lon="-1.61922">
        <ele>16.4</ele>
        <time>2021-07-18T07:45:17Z</time>
      </trkpt>
      <trkpt lat="43.34581" lon="-1.61926">
        <ele>16.4</ele>
        <time>2021-07-18T07:45:18Z</time>
      </trkpt>
      <trkpt lat="43.3458" lon="-1.61934">
        <ele>16.4</ele>
        <time>2021-07-18T07:45:20Z</time>
      </trkpt>
      <trkpt lat="43.34577" lon="-1.61944">
        <ele>16.4</ele>
        <time>2021-07-18T07:45:22Z</time>
      </trkpt>
      <trkpt lat="43.34576" lon="-1.61949">
        <ele>16.4</ele>
        <time>2021-07-18T07:45:23Z</time>
      </trkpt>
      <trkpt lat="43.34575" lon="-1.61958">
        <ele>16.3</ele>
        <time>2021-07-18T07:45:25Z</time>
      </trkpt>
      <trkpt lat="43.34576" lon="-1.61966">
        <ele>16.1</ele>
        <time>2021-07-18T07:45:26Z</time>
      </trkpt>
      <trkpt lat="43.34583" lon="-1.61973">
        <ele>15.6</ele>
        <time>2021-07-18T07:45:27Z</time>
      </trkpt>
      <trkpt lat="43.34593" lon="-1.61981">
        <ele>14.9</ele>
        <time>2021-07-18T07:45:29Z</time>
      </trkpt>
      <trkpt lat="43.34604" lon="-1.61987">
        <ele>14.3</ele>
        <time>2021-07-18T07:45:31Z</time>
      </trkpt>
      <trkpt lat="43.3461" lon="-1.61992">
        <ele>14</ele>
        <time>2021-07-18T07:45:32Z</time>
      </trkpt>
      <trkpt lat="43.34622" lon="-1.62001">
        <ele>13.3</ele>
        <time>2021-07-18T07:45:34Z</time>
      </trkpt>
      <trkpt lat="43.34627" lon="-1.62006">
        <ele>13</ele>
        <time>2021-07-18T07:45:35Z</time>
      </trkpt>
      <trkpt lat="43.34639" lon="-1.62015">
        <ele>12.4</ele>
        <time>2021-07-18T07:45:37Z</time>
      </trkpt>
      <trkpt lat="43.34645" lon="-1.6202">
        <ele>12.1</ele>
        <time>2021-07-18T07:45:38Z</time>
      </trkpt>
      <trkpt lat="43.34657" lon="-1.6203">
        <ele>11.5</ele>
        <time>2021-07-18T07:45:40Z</time>
      </trkpt>
      <trkpt lat="43.34669" lon="-1.6204">
        <ele>11.1</ele>
        <time>2021-07-18T07:45:42Z</time>
      </trkpt>
      <trkpt lat="43.34681" lon="-1.62051">
        <ele>11</ele>
        <time>2021-07-18T07:45:44Z</time>
      </trkpt>
      <trkpt lat="43.34693" lon="-1.62061">
        <ele>10.6</ele>
        <time>2021-07-18T07:45:46Z</time>
      </trkpt>
      <trkpt lat="43.34699" lon="-1.62065">
        <ele>10.5</ele>
        <time>2021-07-18T07:45:47Z</time>
      </trkpt>
      <trkpt lat="43.34711" lon="-1.62074">
        <ele>10.1</ele>
        <time>2021-07-18T07:45:49Z</time>
      </trkpt>
      <trkpt lat="43.34717" lon="-1.62078">
        <ele>10</ele>
        <time>2021-07-18T07:45:50Z</time>
      </trkpt>
      <trkpt lat="43.34728" lon="-1.62086">
        <ele>9.8</ele>
        <time>2021-07-18T07:45:52Z</time>
      </trkpt>
      <trkpt lat="43.34739" lon="-1.62093">
        <ele>9.6</ele>
        <time>2021-07-18T07:45:54Z</time>
      </trkpt>
      <trkpt lat="43.34744" lon="-1.62097">
        <ele>9.5</ele>
        <time>2021-07-18T07:45:55Z</time>
      </trkpt>
      <trkpt lat="43.34749" lon="-1.62101">
        <ele>9.5</ele>
        <time>2021-07-18T07:45:56Z</time>
      </trkpt>
      <trkpt lat="43.34758" lon="-1.62108">
        <ele>9.3</ele>
        <time>2021-07-18T07:45:58Z</time>
      </trkpt>
      <trkpt lat="43.34763" lon="-1.62112">
        <ele>9.3</ele>
        <time>2021-07-18T07:45:59Z</time>
      </trkpt>
      <trkpt lat="43.34768" lon="-1.62116">
        <ele>9.2</ele>
        <time>2021-07-18T07:46:00Z</time>
      </trkpt>
      <trkpt lat="43.34773" lon="-1.6212">
        <ele>9.1</ele>
        <time>2021-07-18T07:46:01Z</time>
      </trkpt>
      <trkpt lat="43.34782" lon="-1.62127">
        <ele>9</ele>
        <time>2021-07-18T07:46:03Z</time>
      </trkpt>
      <trkpt lat="43.34787" lon="-1.62131">
        <ele>9</ele>
        <time>2021-07-18T07:46:04Z</time>
      </trkpt>
      <trkpt lat="43.34796" lon="-1.62139">
        <ele>8.9</ele>
        <time>2021-07-18T07:46:06Z</time>
      </trkpt>
      <trkpt lat="43.34805" lon="-1.62148">
        <ele>8.8</ele>
        <time>2021-07-18T07:46:08Z</time>
      </trkpt>
      <trkpt lat="43.34814" lon="-1.62155">
        <ele>8.8</ele>
        <time>2021-07-18T07:46:10Z</time>
      </trkpt>
      <trkpt lat="43.34818" lon="-1.62158">
        <ele>8.8</ele>
        <time>2021-07-18T07:46:11Z</time>
      </trkpt>
      <trkpt lat="43.34823" lon="-1.62162">
        <ele>8.8</ele>
        <time>2021-07-18T07:46:13Z</time>
      </trkpt>
      <trkpt lat="43.34825" lon="-1.62163">
        <ele>8.8</ele>
        <time>2021-07-18T07:46:14Z</time>
      </trkpt>
      <trkpt lat="43.3483" lon="-1.62161">
        <ele>8.8</ele>
        <time>2021-07-18T07:46:16Z</time>
      </trkpt>
      <trkpt lat="43.34836" lon="-1.62163">
        <ele>8.8</ele>
        <time>2021-07-18T07:46:18Z</time>
      </trkpt>
      <trkpt lat="43.3484" lon="-1.62165">
        <ele>8.9</ele>
        <time>2021-07-18T07:46:19Z</time>
      </trkpt>
      <trkpt lat="43.34845" lon="-1.62164">
        <ele>8.9</ele>
        <time>2021-07-18T07:46:21Z</time>
      </trkpt>
      <trkpt lat="43.34848" lon="-1.62166">
        <ele>8.9</ele>
        <time>2021-07-18T07:46:22Z</time>
      </trkpt>
      <trkpt lat="43.34848" lon="-1.62171">
        <ele>8.9</ele>
        <time>2021-07-18T07:46:24Z</time>
      </trkpt>
      <trkpt lat="43.34846" lon="-1.62175">
        <ele>8.9</ele>
        <time>2021-07-18T07:46:25Z</time>
      </trkpt>
      <trkpt lat="43.34844" lon="-1.62179">
        <ele>9</ele>
        <time>2021-07-18T07:46:26Z</time>
      </trkpt>
      <trkpt lat="43.34843" lon="-1.62181">
        <ele>9</ele>
        <time>2021-07-18T07:46:27Z</time>
      </trkpt>
      <trkpt lat="43.3484" lon="-1.62184">
        <ele>9</ele>
        <time>2021-07-18T07:46:29Z</time>
      </trkpt>
      <trkpt lat="43.34838" lon="-1.62186">
        <ele>9</ele>
        <time>2021-07-18T07:46:30Z</time>
      </trkpt>
      <trkpt lat="43.34835" lon="-1.62188">
        <ele>9</ele>
        <time>2021-07-18T07:46:31Z</time>
      </trkpt>
      <trkpt lat="43.34832" lon="-1.62191">
        <ele>9</ele>
        <time>2021-07-18T07:46:32Z</time>
      </trkpt>
      <trkpt lat="43.34829" lon="-1.62195">
        <ele>9.1</ele>
        <time>2021-07-18T07:46:33Z</time>
      </trkpt>
      <trkpt lat="43.34826" lon="-1.622">
        <ele>9.1</ele>
        <time>2021-07-18T07:46:35Z</time>
      </trkpt>
      <trkpt lat="43.34824" lon="-1.62204">
        <ele>9.1</ele>
        <time>2021-07-18T07:46:36Z</time>
      </trkpt>
      <trkpt lat="43.3482" lon="-1.62212">
        <ele>9.2</ele>
        <time>2021-07-18T07:46:38Z</time>
      </trkpt>
      <trkpt lat="43.34819" lon="-1.62218">
        <ele>9.2</ele>
        <time>2021-07-18T07:46:39Z</time>
      </trkpt>
      <trkpt lat="43.34817" lon="-1.62222">
        <ele>9.2</ele>
        <time>2021-07-18T07:46:41Z</time>
      </trkpt>
      <trkpt lat="43.34814" lon="-1.62226">
        <ele>9.2</ele>
        <time>2021-07-18T07:46:42Z</time>
      </trkpt>
      <trkpt lat="43.34811" lon="-1.62229">
        <ele>9.2</ele>
        <time>2021-07-18T07:46:43Z</time>
      </trkpt>
      <trkpt lat="43.34807" lon="-1.62234">
        <ele>9.2</ele>
        <time>2021-07-18T07:46:44Z</time>
      </trkpt>
      <trkpt lat="43.34804" lon="-1.62234">
        <ele>9.2</ele>
        <time>2021-07-18T07:46:46Z</time>
      </trkpt>
      <trkpt lat="43.34802" lon="-1.62232">
        <ele>9.2</ele>
        <time>2021-07-18T07:46:47Z</time>
      </trkpt>
      <trkpt lat="43.348" lon="-1.62229">
        <ele>9.2</ele>
        <time>2021-07-18T07:46:48Z</time>
      </trkpt>
      <trkpt lat="43.34798" lon="-1.6223">
        <ele>9.2</ele>
        <time>2021-07-18T07:46:49Z</time>
      </trkpt>
      <trkpt lat="43.34798" lon="-1.6223">
        <ele>9.2</ele>
        <time>2021-07-18T07:46:50Z</time>
      </trkpt>
      <trkpt lat="43.34797" lon="-1.62229">
        <ele>9.2</ele>
        <time>2021-07-18T07:46:52Z</time>
      </trkpt>
      <trkpt lat="43.34796" lon="-1.62232">
        <ele>9.2</ele>
        <time>2021-07-18T07:46:54Z</time>
      </trkpt>
      <trkpt lat="43.34796" lon="-1.62237">
        <ele>9.2</ele>
        <time>2021-07-18T07:46:56Z</time>
      </trkpt>
      <trkpt lat="43.34797" lon="-1.6224">
        <ele>9.2</ele>
        <time>2021-07-18T07:46:57Z</time>
      </trkpt>
      <trkpt lat="43.34798" lon="-1.62248">
        <ele>9.2</ele>
        <time>2021-07-18T07:46:59Z</time>
      </trkpt>
      <trkpt lat="43.34799" lon="-1.62253">
        <ele>9.2</ele>
        <time>2021-07-18T07:47:00Z</time>
      </trkpt>
      <trkpt lat="43.34802" lon="-1.62263">
        <ele>9.3</ele>
        <time>2021-07-18T07:47:02Z</time>
      </trkpt>
      <trkpt lat="43.34804" lon="-1.62268">
        <ele>9.3</ele>
        <time>2021-07-18T07:47:03Z</time>
      </trkpt>
      <trkpt lat="43.34806" lon="-1.62278">
        <ele>9.4</ele>
        <time>2021-07-18T07:47:05Z</time>
      </trkpt>
      <trkpt lat="43.34809" lon="-1.62288">
        <ele>9.4</ele>
        <time>2021-07-18T07:47:07Z</time>
      </trkpt>
      <trkpt lat="43.34809" lon="-1.62294">
        <ele>9.5</ele>
        <time>2021-07-18T07:47:08Z</time>
      </trkpt>
      <trkpt lat="43.3481" lon="-1.62299">
        <ele>9.5</ele>
        <time>2021-07-18T07:47:09Z</time>
      </trkpt>
      <trkpt lat="43.34812" lon="-1.62309">
        <ele>9.6</ele>
        <time>2021-07-18T07:47:11Z</time>
      </trkpt>
      <trkpt lat="43.34813" lon="-1.62315">
        <ele>9.6</ele>
        <time>2021-07-18T07:47:12Z</time>
      </trkpt>
      <trkpt lat="43.34813" lon="-1.62323">
        <ele>9.7</ele>
        <time>2021-07-18T07:47:14Z</time>
      </trkpt>
      <trkpt lat="43.34812" lon="-1.62328">
        <ele>9.6</ele>
        <time>2021-07-18T07:47:15Z</time>
      </trkpt>
      <trkpt lat="43.34811" lon="-1.62334">
        <ele>9.6</ele>
        <time>2021-07-18T07:47:16Z</time>
      </trkpt>
      <trkpt lat="43.3481" lon="-1.62344">
        <ele>9.5</ele>
        <time>2021-07-18T07:47:18Z</time>
      </trkpt>
      <trkpt lat="43.34812" lon="-1.6235">
        <ele>9.4</ele>
        <time>2021-07-18T07:47:19Z</time>
      </trkpt>
      <trkpt lat="43.34815" lon="-1.62359">
        <ele>9.2</ele>
        <time>2021-07-18T07:47:21Z</time>
      </trkpt>
      <trkpt lat="43.34821" lon="-1.62367">
        <ele>9.1</ele>
        <time>2021-07-18T07:47:22Z</time>
      </trkpt>
      <trkpt lat="43.34828" lon="-1.62377">
        <ele>8.9</ele>
        <time>2021-07-18T07:47:24Z</time>
      </trkpt>
      <trkpt lat="43.34831" lon="-1.62382">
        <ele>8.8</ele>
        <time>2021-07-18T07:47:25Z</time>
      </trkpt>
      <trkpt lat="43.3484" lon="-1.6239">
        <ele>8.6</ele>
        <time>2021-07-18T07:47:27Z</time>
      </trkpt>
      <trkpt lat="43.34845" lon="-1.62393">
        <ele>8.5</ele>
        <time>2021-07-18T07:47:28Z</time>
      </trkpt>
      <trkpt lat="43.34852" lon="-1.62403">
        <ele>8.4</ele>
        <time>2021-07-18T07:47:30Z</time>
      </trkpt>
      <trkpt lat="43.34856" lon="-1.62408">
        <ele>8.3</ele>
        <time>2021-07-18T07:47:31Z</time>
      </trkpt>
      <trkpt lat="43.34863" lon="-1.62418">
        <ele>8.2</ele>
        <time>2021-07-18T07:47:33Z</time>
      </trkpt>
      <trkpt lat="43.3487" lon="-1.62429">
        <ele>8.1</ele>
        <time>2021-07-18T07:47:35Z</time>
      </trkpt>
      <trkpt lat="43.34873" lon="-1.62434">
        <ele>8.1</ele>
        <time>2021-07-18T07:47:36Z</time>
      </trkpt>
      <trkpt lat="43.34879" lon="-1.62444">
        <ele>8.1</ele>
        <time>2021-07-18T07:47:38Z</time>
      </trkpt>
      <trkpt lat="43.34884" lon="-1.62454">
        <ele>8.1</ele>
        <time>2021-07-18T07:47:40Z</time>
      </trkpt>
      <trkpt lat="43.34886" lon="-1.62459">
        <ele>8.1</ele>
        <time>2021-07-18T07:47:41Z</time>
      </trkpt>
      <trkpt lat="43.34889" lon="-1.62468">
        <ele>8</ele>
        <time>2021-07-18T07:47:43Z</time>
      </trkpt>
      <trkpt lat="43.34893" lon="-1.62478">
        <ele>7.9</ele>
        <time>2021-07-18T07:47:45Z</time>
      </trkpt>
      <trkpt lat="43.34896" lon="-1.62485">
        <ele>7.8</ele>
        <time>2021-07-18T07:47:46Z</time>
      </trkpt>
      <trkpt lat="43.34898" lon="-1.62491">
        <ele>7.7</ele>
        <time>2021-07-18T07:47:47Z</time>
      </trkpt>
      <trkpt lat="43.34901" lon="-1.62497">
        <ele>7.7</ele>
        <time>2021-07-18T07:47:48Z</time>
      </trkpt>
      <trkpt lat="43.34904" lon="-1.62503">
        <ele>7.6</ele>
        <time>2021-07-18T07:47:49Z</time>
      </trkpt>
      <trkpt lat="43.34912" lon="-1.62511">
        <ele>7.4</ele>
        <time>2021-07-18T07:47:51Z</time>
      </trkpt>
      <trkpt lat="43.34914" lon="-1.62517">
        <ele>7.4</ele>
        <time>2021-07-18T07:47:52Z</time>
      </trkpt>
      <trkpt lat="43.34919" lon="-1.6252">
        <ele>7.3</ele>
        <time>2021-07-18T07:47:54Z</time>
      </trkpt>
      <trkpt lat="43.34931" lon="-1.62518">
        <ele>7.1</ele>
        <time>2021-07-18T07:47:56Z</time>
      </trkpt>
      <trkpt lat="43.34936" lon="-1.62518">
        <ele>7.1</ele>
        <time>2021-07-18T07:47:57Z</time>
      </trkpt>
      <trkpt lat="43.34941" lon="-1.62519">
        <ele>7.1</ele>
        <time>2021-07-18T07:47:58Z</time>
      </trkpt>
      <trkpt lat="43.34946" lon="-1.6252">
        <ele>7.1</ele>
        <time>2021-07-18T07:47:59Z</time>
      </trkpt>
      <trkpt lat="43.34951" lon="-1.62521">
        <ele>7.1</ele>
        <time>2021-07-18T07:48:00Z</time>
      </trkpt>
      <trkpt lat="43.3496" lon="-1.62523">
        <ele>7.1</ele>
        <time>2021-07-18T07:48:02Z</time>
      </trkpt>
      <trkpt lat="43.34965" lon="-1.62523">
        <ele>7.2</ele>
        <time>2021-07-18T07:48:03Z</time>
      </trkpt>
      <trkpt lat="43.3497" lon="-1.62524">
        <ele>7.2</ele>
        <time>2021-07-18T07:48:04Z</time>
      </trkpt>
      <trkpt lat="43.34974" lon="-1.62526">
        <ele>7.3</ele>
        <time>2021-07-18T07:48:05Z</time>
      </trkpt>
      <trkpt lat="43.34979" lon="-1.62527">
        <ele>7.3</ele>
        <time>2021-07-18T07:48:06Z</time>
      </trkpt>
      <trkpt lat="43.34984" lon="-1.62527">
        <ele>7.5</ele>
        <time>2021-07-18T07:48:08Z</time>
      </trkpt>
      <trkpt lat="43.3499" lon="-1.62528">
        <ele>7.5</ele>
        <time>2021-07-18T07:48:09Z</time>
      </trkpt>
      <trkpt lat="43.34996" lon="-1.62529">
        <ele>7.6</ele>
        <time>2021-07-18T07:48:11Z</time>
      </trkpt>
      <trkpt lat="43.35002" lon="-1.6253">
        <ele>7.6</ele>
        <time>2021-07-18T07:48:12Z</time>
      </trkpt>
      <trkpt lat="43.35008" lon="-1.62532">
        <ele>7.6</ele>
        <time>2021-07-18T07:48:14Z</time>
      </trkpt>
      <trkpt lat="43.35012" lon="-1.62532">
        <ele>7.6</ele>
        <time>2021-07-18T07:48:15Z</time>
      </trkpt>
      <trkpt lat="43.35019" lon="-1.62532">
        <ele>7.7</ele>
        <time>2021-07-18T07:48:17Z</time>
      </trkpt>
      <trkpt lat="43.35025" lon="-1.62531">
        <ele>7.7</ele>
        <time>2021-07-18T07:48:19Z</time>
      </trkpt>
      <trkpt lat="43.3503" lon="-1.62532">
        <ele>7.8</ele>
        <time>2021-07-18T07:48:20Z</time>
      </trkpt>
      <trkpt lat="43.35032" lon="-1.62538">
        <ele>7.7</ele>
        <time>2021-07-18T07:48:22Z</time>
      </trkpt>
      <trkpt lat="43.35028" lon="-1.62542">
        <ele>7.7</ele>
        <time>2021-07-18T07:48:23Z</time>
      </trkpt>
      <trkpt lat="43.35025" lon="-1.62541">
        <ele>7.7</ele>
        <time>2021-07-18T07:48:24Z</time>
      </trkpt>
      <trkpt lat="43.3502" lon="-1.62543">
        <ele>7.7</ele>
        <time>2021-07-18T07:48:25Z</time>
      </trkpt>
      <trkpt lat="43.35014" lon="-1.62544">
        <ele>7.7</ele>
        <time>2021-07-18T07:48:27Z</time>
      </trkpt>
      <trkpt lat="43.3501" lon="-1.62544">
        <ele>7.6</ele>
        <time>2021-07-18T07:48:28Z</time>
      </trkpt>
      <trkpt lat="43.35002" lon="-1.62544">
        <ele>7.6</ele>
        <time>2021-07-18T07:48:30Z</time>
      </trkpt>
      <trkpt lat="43.34994" lon="-1.62543">
        <ele>7.6</ele>
        <time>2021-07-18T07:48:32Z</time>
      </trkpt>
      <trkpt lat="43.34986" lon="-1.62542">
        <ele>7.5</ele>
        <time>2021-07-18T07:48:34Z</time>
      </trkpt>
      <trkpt lat="43.34981" lon="-1.6254">
        <ele>7.4</ele>
        <time>2021-07-18T07:48:35Z</time>
      </trkpt>
      <trkpt lat="43.34969" lon="-1.62532">
        <ele>7.2</ele>
        <time>2021-07-18T07:48:37Z</time>
      </trkpt>
      <trkpt lat="43.34964" lon="-1.62531">
        <ele>7.1</ele>
        <time>2021-07-18T07:48:38Z</time>
      </trkpt>
      <trkpt lat="43.3496" lon="-1.62529">
        <ele>7.1</ele>
        <time>2021-07-18T07:48:39Z</time>
      </trkpt>
      <trkpt lat="43.3495" lon="-1.62527">
        <ele>7.1</ele>
        <time>2021-07-18T07:48:41Z</time>
      </trkpt>
      <trkpt lat="43.34946" lon="-1.62526">
        <ele>7.1</ele>
        <time>2021-07-18T07:48:42Z</time>
      </trkpt>
      <trkpt lat="43.34941" lon="-1.62525">
        <ele>7.1</ele>
        <time>2021-07-18T07:48:43Z</time>
      </trkpt>
      <trkpt lat="43.34932" lon="-1.62524">
        <ele>7.1</ele>
        <time>2021-07-18T07:48:45Z</time>
      </trkpt>
      <trkpt lat="43.34925" lon="-1.62522">
        <ele>7.2</ele>
        <time>2021-07-18T07:48:47Z</time>
      </trkpt>
      <trkpt lat="43.34921" lon="-1.62517">
        <ele>7.3</ele>
        <time>2021-07-18T07:48:48Z</time>
      </trkpt>
      <trkpt lat="43.34917" lon="-1.62518">
        <ele>7.3</ele>
        <time>2021-07-18T07:48:49Z</time>
      </trkpt>
      <trkpt lat="43.34913" lon="-1.62524">
        <ele>7.3</ele>
        <time>2021-07-18T07:48:51Z</time>
      </trkpt>
      <trkpt lat="43.34914" lon="-1.62528">
        <ele>7.2</ele>
        <time>2021-07-18T07:48:52Z</time>
      </trkpt>
      <trkpt lat="43.34916" lon="-1.62533">
        <ele>7</ele>
        <time>2021-07-18T07:48:54Z</time>
      </trkpt>
      <trkpt lat="43.34918" lon="-1.62538">
        <ele>6.9</ele>
        <time>2021-07-18T07:48:56Z</time>
      </trkpt>
      <trkpt lat="43.34918" lon="-1.62539">
        <ele>6.9</ele>
        <time>2021-07-18T07:48:57Z</time>
      </trkpt>
      <trkpt lat="43.34919" lon="-1.62538">
        <ele>6.9</ele>
        <time>2021-07-18T07:48:59Z</time>
      </trkpt>
      <trkpt lat="43.34919" lon="-1.62539">
        <ele>6.8</ele>
        <time>2021-07-18T07:49:01Z</time>
      </trkpt>
      <trkpt lat="43.34919" lon="-1.6254">
        <ele>6.8</ele>
        <time>2021-07-18T07:49:02Z</time>
      </trkpt>
      <trkpt lat="43.34919" lon="-1.62545">
        <ele>6.7</ele>
        <time>2021-07-18T07:49:04Z</time>
      </trkpt>
      <trkpt lat="43.34919" lon="-1.62548">
        <ele>6.6</ele>
        <time>2021-07-18T07:49:05Z</time>
      </trkpt>
      <trkpt lat="43.34923" lon="-1.62555">
        <ele>6.5</ele>
        <time>2021-07-18T07:49:07Z</time>
      </trkpt>
      <trkpt lat="43.34925" lon="-1.62563">
        <ele>6.4</ele>
        <time>2021-07-18T07:49:09Z</time>
      </trkpt>
      <trkpt lat="43.34926" lon="-1.6257">
        <ele>6.3</ele>
        <time>2021-07-18T07:49:10Z</time>
      </trkpt>
      <trkpt lat="43.34928" lon="-1.62575">
        <ele>6.2</ele>
        <time>2021-07-18T07:49:11Z</time>
      </trkpt>
      <trkpt lat="43.3493" lon="-1.62586">
        <ele>6.1</ele>
        <time>2021-07-18T07:49:13Z</time>
      </trkpt>
      <trkpt lat="43.3493" lon="-1.62593">
        <ele>6.1</ele>
        <time>2021-07-18T07:49:14Z</time>
      </trkpt>
      <trkpt lat="43.3493" lon="-1.626">
        <ele>6.1</ele>
        <time>2021-07-18T07:49:15Z</time>
      </trkpt>
      <trkpt lat="43.34932" lon="-1.62613">
        <ele>6</ele>
        <time>2021-07-18T07:49:17Z</time>
      </trkpt>
      <trkpt lat="43.34931" lon="-1.62626">
        <ele>6</ele>
        <time>2021-07-18T07:49:19Z</time>
      </trkpt>
      <trkpt lat="43.3493" lon="-1.62639">
        <ele>6</ele>
        <time>2021-07-18T07:49:21Z</time>
      </trkpt>
      <trkpt lat="43.34929" lon="-1.62646">
        <ele>6.1</ele>
        <time>2021-07-18T07:49:22Z</time>
      </trkpt>
      <trkpt lat="43.34928" lon="-1.62653">
        <ele>6.1</ele>
        <time>2021-07-18T07:49:23Z</time>
      </trkpt>
      <trkpt lat="43.34925" lon="-1.62666">
        <ele>6.1</ele>
        <time>2021-07-18T07:49:25Z</time>
      </trkpt>
      <trkpt lat="43.34926" lon="-1.62671">
        <ele>6.1</ele>
        <time>2021-07-18T07:49:27Z</time>
      </trkpt>
      <trkpt lat="43.34925" lon="-1.62676">
        <ele>6.1</ele>
        <time>2021-07-18T07:49:28Z</time>
      </trkpt>
      <trkpt lat="43.34923" lon="-1.62683">
        <ele>6.1</ele>
        <time>2021-07-18T07:49:29Z</time>
      </trkpt>
      <trkpt lat="43.34919" lon="-1.62693">
        <ele>6</ele>
        <time>2021-07-18T07:49:30Z</time>
      </trkpt>
      <trkpt lat="43.34917" lon="-1.62699">
        <ele>6</ele>
        <time>2021-07-18T07:49:31Z</time>
      </trkpt>
      <trkpt lat="43.34914" lon="-1.62712">
        <ele>6.1</ele>
        <time>2021-07-18T07:49:33Z</time>
      </trkpt>
      <trkpt lat="43.34911" lon="-1.62724">
        <ele>6.1</ele>
        <time>2021-07-18T07:49:35Z</time>
      </trkpt>
      <trkpt lat="43.3491" lon="-1.6273">
        <ele>6.1</ele>
        <time>2021-07-18T07:49:36Z</time>
      </trkpt>
      <trkpt lat="43.34908" lon="-1.62732">
        <ele>6.1</ele>
        <time>2021-07-18T07:49:37Z</time>
      </trkpt>
      <trkpt lat="43.34906" lon="-1.6274">
        <ele>6.1</ele>
        <time>2021-07-18T07:49:39Z</time>
      </trkpt>
      <trkpt lat="43.34905" lon="-1.62751">
        <ele>6.2</ele>
        <time>2021-07-18T07:49:41Z</time>
      </trkpt>
      <trkpt lat="43.34906" lon="-1.62759">
        <ele>6.2</ele>
        <time>2021-07-18T07:49:42Z</time>
      </trkpt>
      <trkpt lat="43.34904" lon="-1.6277">
        <ele>6.3</ele>
        <time>2021-07-18T07:49:44Z</time>
      </trkpt>
      <trkpt lat="43.34904" lon="-1.62776">
        <ele>6.3</ele>
        <time>2021-07-18T07:49:45Z</time>
      </trkpt>
      <trkpt lat="43.34904" lon="-1.62786">
        <ele>6.4</ele>
        <time>2021-07-18T07:49:47Z</time>
      </trkpt>
      <trkpt lat="43.34904" lon="-1.62791">
        <ele>6.4</ele>
        <time>2021-07-18T07:49:48Z</time>
      </trkpt>
      <trkpt lat="43.34903" lon="-1.62796">
        <ele>6.5</ele>
        <time>2021-07-18T07:49:49Z</time>
      </trkpt>
      <trkpt lat="43.34903" lon="-1.62806">
        <ele>6.5</ele>
        <time>2021-07-18T07:49:51Z</time>
      </trkpt>
      <trkpt lat="43.34902" lon="-1.62811">
        <ele>6.6</ele>
        <time>2021-07-18T07:49:52Z</time>
      </trkpt>
      <trkpt lat="43.34903" lon="-1.62818">
        <ele>6.7</ele>
        <time>2021-07-18T07:49:54Z</time>
      </trkpt>
      <trkpt lat="43.34903" lon="-1.62825">
        <ele>6.8</ele>
        <time>2021-07-18T07:49:55Z</time>
      </trkpt>
      <trkpt lat="43.34903" lon="-1.62833">
        <ele>7</ele>
        <time>2021-07-18T07:49:57Z</time>
      </trkpt>
      <trkpt lat="43.34904" lon="-1.6284">
        <ele>7.1</ele>
        <time>2021-07-18T07:49:58Z</time>
      </trkpt>
      <trkpt lat="43.34906" lon="-1.62849">
        <ele>7.3</ele>
        <time>2021-07-18T07:50:00Z</time>
      </trkpt>
      <trkpt lat="43.34908" lon="-1.62855">
        <ele>7.4</ele>
        <time>2021-07-18T07:50:01Z</time>
      </trkpt>
      <trkpt lat="43.3491" lon="-1.62864">
        <ele>7.6</ele>
        <time>2021-07-18T07:50:03Z</time>
      </trkpt>
      <trkpt lat="43.34911" lon="-1.62868">
        <ele>7.7</ele>
        <time>2021-07-18T07:50:04Z</time>
      </trkpt>
      <trkpt lat="43.34912" lon="-1.62874">
        <ele>7.9</ele>
        <time>2021-07-18T07:50:06Z</time>
      </trkpt>
      <trkpt lat="43.34913" lon="-1.6288">
        <ele>8</ele>
        <time>2021-07-18T07:50:07Z</time>
      </trkpt>
      <trkpt lat="43.34912" lon="-1.62884">
        <ele>8.1</ele>
        <time>2021-07-18T07:50:08Z</time>
      </trkpt>
      <trkpt lat="43.34913" lon="-1.62892">
        <ele>8.4</ele>
        <time>2021-07-18T07:50:10Z</time>
      </trkpt>
      <trkpt lat="43.34913" lon="-1.62897">
        <ele>8.5</ele>
        <time>2021-07-18T07:50:11Z</time>
      </trkpt>
      <trkpt lat="43.34914" lon="-1.62905">
        <ele>8.8</ele>
        <time>2021-07-18T07:50:13Z</time>
      </trkpt>
      <trkpt lat="43.34915" lon="-1.62913">
        <ele>9</ele>
        <time>2021-07-18T07:50:15Z</time>
      </trkpt>
      <trkpt lat="43.34915" lon="-1.62917">
        <ele>9.2</ele>
        <time>2021-07-18T07:50:16Z</time>
      </trkpt>
      <trkpt lat="43.34915" lon="-1.62924">
        <ele>9.4</ele>
        <time>2021-07-18T07:50:18Z</time>
      </trkpt>
      <trkpt lat="43.34916" lon="-1.62929">
        <ele>9.6</ele>
        <time>2021-07-18T07:50:19Z</time>
      </trkpt>
      <trkpt lat="43.34916" lon="-1.62931">
        <ele>9.7</ele>
        <time>2021-07-18T07:50:20Z</time>
      </trkpt>
      <trkpt lat="43.34916" lon="-1.62936">
        <ele>9.9</ele>
        <time>2021-07-18T07:50:21Z</time>
      </trkpt>
      <trkpt lat="43.34916" lon="-1.62938">
        <ele>10</ele>
        <time>2021-07-18T07:50:22Z</time>
      </trkpt>
      <trkpt lat="43.34915" lon="-1.62944">
        <ele>10.2</ele>
        <time>2021-07-18T07:50:24Z</time>
      </trkpt>
      <trkpt lat="43.34915" lon="-1.62947">
        <ele>10.3</ele>
        <time>2021-07-18T07:50:25Z</time>
      </trkpt>
      <trkpt lat="43.34914" lon="-1.62952">
        <ele>10.5</ele>
        <time>2021-07-18T07:50:27Z</time>
      </trkpt>
      <trkpt lat="43.34913" lon="-1.62955">
        <ele>10.7</ele>
        <time>2021-07-18T07:50:28Z</time>
      </trkpt>
      <trkpt lat="43.34913" lon="-1.62959">
        <ele>10.8</ele>
        <time>2021-07-18T07:50:30Z</time>
      </trkpt>
      <trkpt lat="43.34913" lon="-1.62963">
        <ele>11</ele>
        <time>2021-07-18T07:50:31Z</time>
      </trkpt>
      <trkpt lat="43.34912" lon="-1.62964">
        <ele>11.1</ele>
        <time>2021-07-18T07:50:32Z</time>
      </trkpt>
      <trkpt lat="43.34912" lon="-1.62967">
        <ele>11.2</ele>
        <time>2021-07-18T07:50:33Z</time>
      </trkpt>
      <trkpt lat="43.34911" lon="-1.62972">
        <ele>11.4</ele>
        <time>2021-07-18T07:50:35Z</time>
      </trkpt>
      <trkpt lat="43.34911" lon="-1.62974">
        <ele>11.5</ele>
        <time>2021-07-18T07:50:36Z</time>
      </trkpt>
      <trkpt lat="43.34911" lon="-1.62979">
        <ele>11.7</ele>
        <time>2021-07-18T07:50:38Z</time>
      </trkpt>
      <trkpt lat="43.3491" lon="-1.62984">
        <ele>11.9</ele>
        <time>2021-07-18T07:50:39Z</time>
      </trkpt>
      <trkpt lat="43.3491" lon="-1.62985">
        <ele>12</ele>
        <time>2021-07-18T07:50:40Z</time>
      </trkpt>
      <trkpt lat="43.3491" lon="-1.62988">
        <ele>12</ele>
        <time>2021-07-18T07:50:41Z</time>
      </trkpt>
      <trkpt lat="43.34911" lon="-1.62994">
        <ele>12.2</ele>
        <time>2021-07-18T07:50:43Z</time>
      </trkpt>
      <trkpt lat="43.34911" lon="-1.63">
        <ele>12.4</ele>
        <time>2021-07-18T07:50:45Z</time>
      </trkpt>
      <trkpt lat="43.34912" lon="-1.63003">
        <ele>12.5</ele>
        <time>2021-07-18T07:50:46Z</time>
      </trkpt>
      <trkpt lat="43.34912" lon="-1.6301">
        <ele>12.7</ele>
        <time>2021-07-18T07:50:48Z</time>
      </trkpt>
      <trkpt lat="43.34913" lon="-1.63013">
        <ele>12.8</ele>
        <time>2021-07-18T07:50:49Z</time>
      </trkpt>
      <trkpt lat="43.34915" lon="-1.63021">
        <ele>13</ele>
        <time>2021-07-18T07:50:51Z</time>
      </trkpt>
      <trkpt lat="43.34916" lon="-1.63027">
        <ele>13.2</ele>
        <time>2021-07-18T07:50:53Z</time>
      </trkpt>
      <trkpt lat="43.34917" lon="-1.63034">
        <ele>13.4</ele>
        <time>2021-07-18T07:50:55Z</time>
      </trkpt>
      <trkpt lat="43.34918" lon="-1.63038">
        <ele>13.5</ele>
        <time>2021-07-18T07:50:56Z</time>
      </trkpt>
      <trkpt lat="43.3492" lon="-1.63043">
        <ele>13.6</ele>
        <time>2021-07-18T07:50:58Z</time>
      </trkpt>
      <trkpt lat="43.3492" lon="-1.63046">
        <ele>13.7</ele>
        <time>2021-07-18T07:50:59Z</time>
      </trkpt>
      <trkpt lat="43.34922" lon="-1.63052">
        <ele>13.9</ele>
        <time>2021-07-18T07:51:01Z</time>
      </trkpt>
      <trkpt lat="43.34922" lon="-1.63055">
        <ele>13.9</ele>
        <time>2021-07-18T07:51:02Z</time>
      </trkpt>
      <trkpt lat="43.34925" lon="-1.63061">
        <ele>14.1</ele>
        <time>2021-07-18T07:51:04Z</time>
      </trkpt>
      <trkpt lat="43.34927" lon="-1.63065">
        <ele>14.2</ele>
        <time>2021-07-18T07:51:06Z</time>
      </trkpt>
      <trkpt lat="43.3493" lon="-1.63068">
        <ele>14.3</ele>
        <time>2021-07-18T07:51:07Z</time>
      </trkpt>
      <trkpt lat="43.34931" lon="-1.6307">
        <ele>14.4</ele>
        <time>2021-07-18T07:51:08Z</time>
      </trkpt>
      <trkpt lat="43.34934" lon="-1.63074">
        <ele>14.5</ele>
        <time>2021-07-18T07:51:10Z</time>
      </trkpt>
      <trkpt lat="43.34937" lon="-1.63077">
        <ele>14.6</ele>
        <time>2021-07-18T07:51:12Z</time>
      </trkpt>
      <trkpt lat="43.34941" lon="-1.63081">
        <ele>14.6</ele>
        <time>2021-07-18T07:51:14Z</time>
      </trkpt>
      <trkpt lat="43.34945" lon="-1.63085">
        <ele>14.7</ele>
        <time>2021-07-18T07:51:16Z</time>
      </trkpt>
      <trkpt lat="43.3495" lon="-1.63088">
        <ele>14.8</ele>
        <time>2021-07-18T07:51:18Z</time>
      </trkpt>
      <trkpt lat="43.34953" lon="-1.63091">
        <ele>14.8</ele>
        <time>2021-07-18T07:51:19Z</time>
      </trkpt>
      <trkpt lat="43.34958" lon="-1.63095">
        <ele>14.8</ele>
        <time>2021-07-18T07:51:21Z</time>
      </trkpt>
      <trkpt lat="43.34961" lon="-1.63097">
        <ele>14.8</ele>
        <time>2021-07-18T07:51:22Z</time>
      </trkpt>
      <trkpt lat="43.34966" lon="-1.63101">
        <ele>14.8</ele>
        <time>2021-07-18T07:51:24Z</time>
      </trkpt>
      <trkpt lat="43.34969" lon="-1.63103">
        <ele>14.8</ele>
        <time>2021-07-18T07:51:25Z</time>
      </trkpt>
      <trkpt lat="43.34975" lon="-1.63109">
        <ele>14.7</ele>
        <time>2021-07-18T07:51:27Z</time>
      </trkpt>
      <trkpt lat="43.34979" lon="-1.63111">
        <ele>14.7</ele>
        <time>2021-07-18T07:51:28Z</time>
      </trkpt>
      <trkpt lat="43.34983" lon="-1.63114">
        <ele>14.6</ele>
        <time>2021-07-18T07:51:29Z</time>
      </trkpt>
      <trkpt lat="43.34991" lon="-1.6312">
        <ele>14.6</ele>
        <time>2021-07-18T07:51:31Z</time>
      </trkpt>
      <trkpt lat="43.34996" lon="-1.63122">
        <ele>14.5</ele>
        <time>2021-07-18T07:51:32Z</time>
      </trkpt>
      <trkpt lat="43.35" lon="-1.63125">
        <ele>14.5</ele>
        <time>2021-07-18T07:51:33Z</time>
      </trkpt>
      <trkpt lat="43.35005" lon="-1.63129">
        <ele>14.4</ele>
        <time>2021-07-18T07:51:34Z</time>
      </trkpt>
      <trkpt lat="43.35014" lon="-1.63136">
        <ele>14.2</ele>
        <time>2021-07-18T07:51:36Z</time>
      </trkpt>
      <trkpt lat="43.35018" lon="-1.6314">
        <ele>14.1</ele>
        <time>2021-07-18T07:51:37Z</time>
      </trkpt>
      <trkpt lat="43.35023" lon="-1.63144">
        <ele>14</ele>
        <time>2021-07-18T07:51:38Z</time>
      </trkpt>
      <trkpt lat="43.35033" lon="-1.63151">
        <ele>13.7</ele>
        <time>2021-07-18T07:51:40Z</time>
      </trkpt>
      <trkpt lat="43.35038" lon="-1.63155">
        <ele>13.5</ele>
        <time>2021-07-18T07:51:41Z</time>
      </trkpt>
      <trkpt lat="43.35043" lon="-1.63158">
        <ele>13.4</ele>
        <time>2021-07-18T07:51:42Z</time>
      </trkpt>
      <trkpt lat="43.35054" lon="-1.63166">
        <ele>13.1</ele>
        <time>2021-07-18T07:51:44Z</time>
      </trkpt>
      <trkpt lat="43.35059" lon="-1.6317">
        <ele>13</ele>
        <time>2021-07-18T07:51:45Z</time>
      </trkpt>
      <trkpt lat="43.3507" lon="-1.63177">
        <ele>12.9</ele>
        <time>2021-07-18T07:51:47Z</time>
      </trkpt>
      <trkpt lat="43.35075" lon="-1.63181">
        <ele>12.8</ele>
        <time>2021-07-18T07:51:48Z</time>
      </trkpt>
      <trkpt lat="43.35085" lon="-1.63189">
        <ele>12.6</ele>
        <time>2021-07-18T07:51:50Z</time>
      </trkpt>
      <trkpt lat="43.35094" lon="-1.63195">
        <ele>12.5</ele>
        <time>2021-07-18T07:51:52Z</time>
      </trkpt>
      <trkpt lat="43.35099" lon="-1.63199">
        <ele>12.4</ele>
        <time>2021-07-18T07:51:53Z</time>
      </trkpt>
      <trkpt lat="43.35109" lon="-1.63206">
        <ele>12.2</ele>
        <time>2021-07-18T07:51:55Z</time>
      </trkpt>
      <trkpt lat="43.35114" lon="-1.6321">
        <ele>12.2</ele>
        <time>2021-07-18T07:51:56Z</time>
      </trkpt>
      <trkpt lat="43.35123" lon="-1.63217">
        <ele>12.1</ele>
        <time>2021-07-18T07:51:58Z</time>
      </trkpt>
      <trkpt lat="43.35128" lon="-1.63221">
        <ele>12.1</ele>
        <time>2021-07-18T07:51:59Z</time>
      </trkpt>
      <trkpt lat="43.35137" lon="-1.6323">
        <ele>12.1</ele>
        <time>2021-07-18T07:52:01Z</time>
      </trkpt>
      <trkpt lat="43.35141" lon="-1.63233">
        <ele>12.1</ele>
        <time>2021-07-18T07:52:02Z</time>
      </trkpt>
      <trkpt lat="43.35145" lon="-1.63237">
        <ele>12.1</ele>
        <time>2021-07-18T07:52:03Z</time>
      </trkpt>
      <trkpt lat="43.35154" lon="-1.63244">
        <ele>12.2</ele>
        <time>2021-07-18T07:52:05Z</time>
      </trkpt>
      <trkpt lat="43.35158" lon="-1.63248">
        <ele>12.2</ele>
        <time>2021-07-18T07:52:06Z</time>
      </trkpt>
      <trkpt lat="43.35167" lon="-1.63256">
        <ele>12.2</ele>
        <time>2021-07-18T07:52:08Z</time>
      </trkpt>
      <trkpt lat="43.35175" lon="-1.63263">
        <ele>12.2</ele>
        <time>2021-07-18T07:52:10Z</time>
      </trkpt>
      <trkpt lat="43.35179" lon="-1.63267">
        <ele>12.2</ele>
        <time>2021-07-18T07:52:11Z</time>
      </trkpt>
      <trkpt lat="43.35187" lon="-1.63275">
        <ele>12.3</ele>
        <time>2021-07-18T07:52:13Z</time>
      </trkpt>
      <trkpt lat="43.35191" lon="-1.63278">
        <ele>12.3</ele>
        <time>2021-07-18T07:52:14Z</time>
      </trkpt>
      <trkpt lat="43.35199" lon="-1.63286">
        <ele>12.3</ele>
        <time>2021-07-18T07:52:16Z</time>
      </trkpt>
      <trkpt lat="43.35203" lon="-1.63289">
        <ele>12.4</ele>
        <time>2021-07-18T07:52:17Z</time>
      </trkpt>
      <trkpt lat="43.35207" lon="-1.63292">
        <ele>12.4</ele>
        <time>2021-07-18T07:52:18Z</time>
      </trkpt>
      <trkpt lat="43.35216" lon="-1.63298">
        <ele>12.4</ele>
        <time>2021-07-18T07:52:20Z</time>
      </trkpt>
      <trkpt lat="43.3522" lon="-1.63302">
        <ele>12.5</ele>
        <time>2021-07-18T07:52:21Z</time>
      </trkpt>
      <trkpt lat="43.35227" lon="-1.63308">
        <ele>12.5</ele>
        <time>2021-07-18T07:52:23Z</time>
      </trkpt>
      <trkpt lat="43.35231" lon="-1.63312">
        <ele>12.5</ele>
        <time>2021-07-18T07:52:24Z</time>
      </trkpt>
      <trkpt lat="43.35234" lon="-1.63316">
        <ele>12.5</ele>
        <time>2021-07-18T07:52:25Z</time>
      </trkpt>
      <trkpt lat="43.35241" lon="-1.63324">
        <ele>12.5</ele>
        <time>2021-07-18T07:52:27Z</time>
      </trkpt>
      <trkpt lat="43.35249" lon="-1.63333">
        <ele>12.6</ele>
        <time>2021-07-18T07:52:29Z</time>
      </trkpt>
      <trkpt lat="43.35253" lon="-1.63337">
        <ele>12.6</ele>
        <time>2021-07-18T07:52:30Z</time>
      </trkpt>
      <trkpt lat="43.35257" lon="-1.63341">
        <ele>12.6</ele>
        <time>2021-07-18T07:52:31Z</time>
      </trkpt>
      <trkpt lat="43.35263" lon="-1.63348">
        <ele>12.6</ele>
        <time>2021-07-18T07:52:33Z</time>
      </trkpt>
      <trkpt lat="43.35267" lon="-1.63353">
        <ele>12.7</ele>
        <time>2021-07-18T07:52:34Z</time>
      </trkpt>
      <trkpt lat="43.35272" lon="-1.63358">
        <ele>12.7</ele>
        <time>2021-07-18T07:52:35Z</time>
      </trkpt>
      <trkpt lat="43.35281" lon="-1.63366">
        <ele>12.7</ele>
        <time>2021-07-18T07:52:37Z</time>
      </trkpt>
      <trkpt lat="43.35288" lon="-1.63368">
        <ele>12.7</ele>
        <time>2021-07-18T07:52:39Z</time>
      </trkpt>
      <trkpt lat="43.35292" lon="-1.63372">
        <ele>12.6</ele>
        <time>2021-07-18T07:52:40Z</time>
      </trkpt>
      <trkpt lat="43.35298" lon="-1.63375">
        <ele>12.6</ele>
        <time>2021-07-18T07:52:41Z</time>
      </trkpt>
      <trkpt lat="43.3531" lon="-1.63381">
        <ele>12.7</ele>
        <time>2021-07-18T07:52:43Z</time>
      </trkpt>
      <trkpt lat="43.35315" lon="-1.63384">
        <ele>12.7</ele>
        <time>2021-07-18T07:52:44Z</time>
      </trkpt>
      <trkpt lat="43.35324" lon="-1.63391">
        <ele>12.7</ele>
        <time>2021-07-18T07:52:46Z</time>
      </trkpt>
      <trkpt lat="43.35332" lon="-1.63399">
        <ele>12.8</ele>
        <time>2021-07-18T07:52:48Z</time>
      </trkpt>
      <trkpt lat="43.35341" lon="-1.63408">
        <ele>12.7</ele>
        <time>2021-07-18T07:52:50Z</time>
      </trkpt>
      <trkpt lat="43.35348" lon="-1.63418">
        <ele>12.7</ele>
        <time>2021-07-18T07:52:52Z</time>
      </trkpt>
      <trkpt lat="43.35352" lon="-1.63423">
        <ele>12.6</ele>
        <time>2021-07-18T07:52:53Z</time>
      </trkpt>
      <trkpt lat="43.35359" lon="-1.63433">
        <ele>12.6</ele>
        <time>2021-07-18T07:52:55Z</time>
      </trkpt>
      <trkpt lat="43.35363" lon="-1.63438">
        <ele>12.6</ele>
        <time>2021-07-18T07:52:56Z</time>
      </trkpt>
      <trkpt lat="43.35371" lon="-1.63447">
        <ele>12.6</ele>
        <time>2021-07-18T07:52:58Z</time>
      </trkpt>
      <trkpt lat="43.3538" lon="-1.63455">
        <ele>12.6</ele>
        <time>2021-07-18T07:53:00Z</time>
      </trkpt>
      <trkpt lat="43.3539" lon="-1.63461">
        <ele>12.7</ele>
        <time>2021-07-18T07:53:02Z</time>
      </trkpt>
      <trkpt lat="43.35399" lon="-1.63467">
        <ele>12.7</ele>
        <time>2021-07-18T07:53:04Z</time>
      </trkpt>
      <trkpt lat="43.35404" lon="-1.6347">
        <ele>12.7</ele>
        <time>2021-07-18T07:53:05Z</time>
      </trkpt>
      <trkpt lat="43.35413" lon="-1.63477">
        <ele>12.7</ele>
        <time>2021-07-18T07:53:07Z</time>
      </trkpt>
      <trkpt lat="43.35418" lon="-1.63481">
        <ele>12.7</ele>
        <time>2021-07-18T07:53:08Z</time>
      </trkpt>
      <trkpt lat="43.35427" lon="-1.63486">
        <ele>12.7</ele>
        <time>2021-07-18T07:53:10Z</time>
      </trkpt>
      <trkpt lat="43.35435" lon="-1.63493">
        <ele>12.7</ele>
        <time>2021-07-18T07:53:12Z</time>
      </trkpt>
      <trkpt lat="43.35439" lon="-1.63497">
        <ele>12.7</ele>
        <time>2021-07-18T07:53:13Z</time>
      </trkpt>
      <trkpt lat="43.35446" lon="-1.63506">
        <ele>12.7</ele>
        <time>2021-07-18T07:53:15Z</time>
      </trkpt>
      <trkpt lat="43.35451" lon="-1.63516">
        <ele>12.6</ele>
        <time>2021-07-18T07:53:17Z</time>
      </trkpt>
      <trkpt lat="43.35455" lon="-1.63527">
        <ele>12.5</ele>
        <time>2021-07-18T07:53:19Z</time>
      </trkpt>
      <trkpt lat="43.35456" lon="-1.63533">
        <ele>12.4</ele>
        <time>2021-07-18T07:53:20Z</time>
      </trkpt>
      <trkpt lat="43.35459" lon="-1.63547">
        <ele>12.1</ele>
        <time>2021-07-18T07:53:22Z</time>
      </trkpt>
      <trkpt lat="43.35459" lon="-1.63554">
        <ele>12</ele>
        <time>2021-07-18T07:53:23Z</time>
      </trkpt>
      <trkpt lat="43.35459" lon="-1.63562">
        <ele>11.8</ele>
        <time>2021-07-18T07:53:24Z</time>
      </trkpt>
      <trkpt lat="43.35458" lon="-1.63579">
        <ele>11.4</ele>
        <time>2021-07-18T07:53:26Z</time>
      </trkpt>
      <trkpt lat="43.35458" lon="-1.63587">
        <ele>11.1</ele>
        <time>2021-07-18T07:53:27Z</time>
      </trkpt>
      <trkpt lat="43.35456" lon="-1.63606">
        <ele>10.5</ele>
        <time>2021-07-18T07:53:29Z</time>
      </trkpt>
      <trkpt lat="43.35454" lon="-1.63615">
        <ele>10.2</ele>
        <time>2021-07-18T07:53:30Z</time>
      </trkpt>
      <trkpt lat="43.35451" lon="-1.63634">
        <ele>9.4</ele>
        <time>2021-07-18T07:53:32Z</time>
      </trkpt>
      <trkpt lat="43.35449" lon="-1.63644">
        <ele>8.9</ele>
        <time>2021-07-18T07:53:33Z</time>
      </trkpt>
      <trkpt lat="43.35446" lon="-1.63665">
        <ele>8</ele>
        <time>2021-07-18T07:53:35Z</time>
      </trkpt>
      <trkpt lat="43.35445" lon="-1.63676">
        <ele>7.6</ele>
        <time>2021-07-18T07:53:36Z</time>
      </trkpt>
      <trkpt lat="43.35445" lon="-1.63687">
        <ele>7.2</ele>
        <time>2021-07-18T07:53:37Z</time>
      </trkpt>
      <trkpt lat="43.35444" lon="-1.6371">
        <ele>6.6</ele>
        <time>2021-07-18T07:53:39Z</time>
      </trkpt>
      <trkpt lat="43.35444" lon="-1.63734">
        <ele>6.2</ele>
        <time>2021-07-18T07:53:41Z</time>
      </trkpt>
      <trkpt lat="43.35444" lon="-1.63745">
        <ele>6.1</ele>
        <time>2021-07-18T07:53:42Z</time>
      </trkpt>
      <trkpt lat="43.35444" lon="-1.63767">
        <ele>5.9</ele>
        <time>2021-07-18T07:53:44Z</time>
      </trkpt>
      <trkpt lat="43.35444" lon="-1.63788">
        <ele>5.9</ele>
        <time>2021-07-18T07:53:46Z</time>
      </trkpt>
      <trkpt lat="43.35449" lon="-1.63808">
        <ele>5.9</ele>
        <time>2021-07-18T07:53:48Z</time>
      </trkpt>
      <trkpt lat="43.35452" lon="-1.63817">
        <ele>5.9</ele>
        <time>2021-07-18T07:53:49Z</time>
      </trkpt>
      <trkpt lat="43.35455" lon="-1.63825">
        <ele>5.9</ele>
        <time>2021-07-18T07:53:50Z</time>
      </trkpt>
      <trkpt lat="43.35465" lon="-1.63839">
        <ele>5.7</ele>
        <time>2021-07-18T07:53:52Z</time>
      </trkpt>
      <trkpt lat="43.3547" lon="-1.63846">
        <ele>5.7</ele>
        <time>2021-07-18T07:53:53Z</time>
      </trkpt>
      <trkpt lat="43.35481" lon="-1.63856">
        <ele>5.7</ele>
        <time>2021-07-18T07:53:55Z</time>
      </trkpt>
      <trkpt lat="43.35492" lon="-1.63865">
        <ele>5.7</ele>
        <time>2021-07-18T07:53:57Z</time>
      </trkpt>
      <trkpt lat="43.35497" lon="-1.63869">
        <ele>5.8</ele>
        <time>2021-07-18T07:53:58Z</time>
      </trkpt>
      <trkpt lat="43.35508" lon="-1.63877">
        <ele>5.9</ele>
        <time>2021-07-18T07:54:00Z</time>
      </trkpt>
      <trkpt lat="43.35517" lon="-1.63883">
        <ele>6</ele>
        <time>2021-07-18T07:54:02Z</time>
      </trkpt>
      <trkpt lat="43.35526" lon="-1.63888">
        <ele>6.2</ele>
        <time>2021-07-18T07:54:04Z</time>
      </trkpt>
      <trkpt lat="43.35531" lon="-1.6389">
        <ele>6.3</ele>
        <time>2021-07-18T07:54:05Z</time>
      </trkpt>
      <trkpt lat="43.3554" lon="-1.63894">
        <ele>6.5</ele>
        <time>2021-07-18T07:54:07Z</time>
      </trkpt>
      <trkpt lat="43.35548" lon="-1.63896">
        <ele>6.7</ele>
        <time>2021-07-18T07:54:09Z</time>
      </trkpt>
      <trkpt lat="43.35556" lon="-1.63898">
        <ele>7</ele>
        <time>2021-07-18T07:54:11Z</time>
      </trkpt>
      <trkpt lat="43.35561" lon="-1.63899">
        <ele>7.1</ele>
        <time>2021-07-18T07:54:12Z</time>
      </trkpt>
      <trkpt lat="43.35564" lon="-1.639">
        <ele>7.2</ele>
        <time>2021-07-18T07:54:13Z</time>
      </trkpt>
      <trkpt lat="43.35571" lon="-1.63902">
        <ele>7.5</ele>
        <time>2021-07-18T07:54:15Z</time>
      </trkpt>
      <trkpt lat="43.35574" lon="-1.63899">
        <ele>7.6</ele>
        <time>2021-07-18T07:54:16Z</time>
      </trkpt>
      <trkpt lat="43.35574" lon="-1.63898">
        <ele>7.6</ele>
        <time>2021-07-18T07:54:17Z</time>
      </trkpt>
      <trkpt lat="43.35581" lon="-1.63902">
        <ele>7.9</ele>
        <time>2021-07-18T07:54:19Z</time>
      </trkpt>
      <trkpt lat="43.35588" lon="-1.63905">
        <ele>8.2</ele>
        <time>2021-07-18T07:54:21Z</time>
      </trkpt>
      <trkpt lat="43.35591" lon="-1.63906">
        <ele>8.4</ele>
        <time>2021-07-18T07:54:22Z</time>
      </trkpt>
      <trkpt lat="43.35596" lon="-1.63909">
        <ele>8.7</ele>
        <time>2021-07-18T07:54:24Z</time>
      </trkpt>
      <trkpt lat="43.35599" lon="-1.6391">
        <ele>8.8</ele>
        <time>2021-07-18T07:54:25Z</time>
      </trkpt>
      <trkpt lat="43.35602" lon="-1.63911">
        <ele>8.9</ele>
        <time>2021-07-18T07:54:26Z</time>
      </trkpt>
      <trkpt lat="43.35607" lon="-1.63913">
        <ele>9.1</ele>
        <time>2021-07-18T07:54:28Z</time>
      </trkpt>
      <trkpt lat="43.35609" lon="-1.63914">
        <ele>9.2</ele>
        <time>2021-07-18T07:54:29Z</time>
      </trkpt>
      <trkpt lat="43.35614" lon="-1.63916">
        <ele>9.5</ele>
        <time>2021-07-18T07:54:31Z</time>
      </trkpt>
      <trkpt lat="43.35616" lon="-1.63917">
        <ele>9.6</ele>
        <time>2021-07-18T07:54:32Z</time>
      </trkpt>
      <trkpt lat="43.35621" lon="-1.63919">
        <ele>9.8</ele>
        <time>2021-07-18T07:54:34Z</time>
      </trkpt>
      <trkpt lat="43.35623" lon="-1.6392">
        <ele>9.9</ele>
        <time>2021-07-18T07:54:35Z</time>
      </trkpt>
      <trkpt lat="43.35627" lon="-1.63921">
        <ele>10.1</ele>
        <time>2021-07-18T07:54:37Z</time>
      </trkpt>
      <trkpt lat="43.3563" lon="-1.63923">
        <ele>10.2</ele>
        <time>2021-07-18T07:54:38Z</time>
      </trkpt>
      <trkpt lat="43.35634" lon="-1.63925">
        <ele>10.4</ele>
        <time>2021-07-18T07:54:40Z</time>
      </trkpt>
      <trkpt lat="43.35636" lon="-1.63926">
        <ele>10.5</ele>
        <time>2021-07-18T07:54:41Z</time>
      </trkpt>
      <trkpt lat="43.35639" lon="-1.63928">
        <ele>10.6</ele>
        <time>2021-07-18T07:54:43Z</time>
      </trkpt>
      <trkpt lat="43.35637" lon="-1.63928">
        <ele>10.7</ele>
        <time>2021-07-18T07:54:45Z</time>
      </trkpt>
      <trkpt lat="43.35636" lon="-1.63927">
        <ele>10.7</ele>
        <time>2021-07-18T07:54:47Z</time>
      </trkpt>
      <trkpt lat="43.35636" lon="-1.63927">
        <ele>10.8</ele>
        <time>2021-07-18T07:54:49Z</time>
      </trkpt>
      <trkpt lat="43.35635" lon="-1.63927">
        <ele>10.8</ele>
        <time>2021-07-18T07:54:51Z</time>
      </trkpt>
      <trkpt lat="43.35635" lon="-1.63927">
        <ele>10.8</ele>
        <time>2021-07-18T07:54:52Z</time>
      </trkpt>
      <trkpt lat="43.35635" lon="-1.63927">
        <ele>10.8</ele>
        <time>2021-07-18T07:54:54Z</time>
      </trkpt>
      <trkpt lat="43.35638" lon="-1.6393">
        <ele>10.9</ele>
        <time>2021-07-18T07:55:29Z</time>
      </trkpt>
      <trkpt lat="43.35639" lon="-1.6393">
        <ele>11</ele>
        <time>2021-07-18T07:55:30Z</time>
      </trkpt>
      <trkpt lat="43.35642" lon="-1.6393">
        <ele>11.1</ele>
        <time>2021-07-18T07:55:32Z</time>
      </trkpt>
      <trkpt lat="43.35644" lon="-1.63932">
        <ele>11.2</ele>
        <time>2021-07-18T07:55:33Z</time>
      </trkpt>
      <trkpt lat="43.35645" lon="-1.63932">
        <ele>11.3</ele>
        <time>2021-07-18T07:55:34Z</time>
      </trkpt>
      <trkpt lat="43.35649" lon="-1.63936">
        <ele>11.5</ele>
        <time>2021-07-18T07:55:36Z</time>
      </trkpt>
      <trkpt lat="43.35652" lon="-1.63938">
        <ele>11.6</ele>
        <time>2021-07-18T07:55:37Z</time>
      </trkpt>
      <trkpt lat="43.35653" lon="-1.63939">
        <ele>11.7</ele>
        <time>2021-07-18T07:55:38Z</time>
      </trkpt>
      <trkpt lat="43.35658" lon="-1.63941">
        <ele>11.8</ele>
        <time>2021-07-18T07:55:40Z</time>
      </trkpt>
      <trkpt lat="43.35659" lon="-1.63942">
        <ele>11.9</ele>
        <time>2021-07-18T07:55:41Z</time>
      </trkpt>
      <trkpt lat="43.35664" lon="-1.63945">
        <ele>12.1</ele>
        <time>2021-07-18T07:55:43Z</time>
      </trkpt>
      <trkpt lat="43.35669" lon="-1.63948">
        <ele>12.3</ele>
        <time>2021-07-18T07:55:45Z</time>
      </trkpt>
      <trkpt lat="43.35671" lon="-1.6395">
        <ele>12.4</ele>
        <time>2021-07-18T07:55:46Z</time>
      </trkpt>
      <trkpt lat="43.35676" lon="-1.63953">
        <ele>12.6</ele>
        <time>2021-07-18T07:55:48Z</time>
      </trkpt>
      <trkpt lat="43.35679" lon="-1.63955">
        <ele>12.7</ele>
        <time>2021-07-18T07:55:49Z</time>
      </trkpt>
      <trkpt lat="43.35681" lon="-1.63956">
        <ele>12.7</ele>
        <time>2021-07-18T07:55:50Z</time>
      </trkpt>
      <trkpt lat="43.35685" lon="-1.6396">
        <ele>12.9</ele>
        <time>2021-07-18T07:55:52Z</time>
      </trkpt>
      <trkpt lat="43.35687" lon="-1.63961">
        <ele>12.9</ele>
        <time>2021-07-18T07:55:53Z</time>
      </trkpt>
      <trkpt lat="43.35691" lon="-1.63963">
        <ele>13</ele>
        <time>2021-07-18T07:55:55Z</time>
      </trkpt>
      <trkpt lat="43.35694" lon="-1.63965">
        <ele>13.1</ele>
        <time>2021-07-18T07:55:56Z</time>
      </trkpt>
      <trkpt lat="43.35697" lon="-1.63968">
        <ele>13.2</ele>
        <time>2021-07-18T07:55:57Z</time>
      </trkpt>
      <trkpt lat="43.35699" lon="-1.6397">
        <ele>13.3</ele>
        <time>2021-07-18T07:55:58Z</time>
      </trkpt>
      <trkpt lat="43.35704" lon="-1.63973">
        <ele>13.3</ele>
        <time>2021-07-18T07:56:00Z</time>
      </trkpt>
      <trkpt lat="43.35707" lon="-1.63975">
        <ele>13.4</ele>
        <time>2021-07-18T07:56:01Z</time>
      </trkpt>
      <trkpt lat="43.3571" lon="-1.63976">
        <ele>13.5</ele>
        <time>2021-07-18T07:56:02Z</time>
      </trkpt>
      <trkpt lat="43.35714" lon="-1.63978">
        <ele>13.5</ele>
        <time>2021-07-18T07:56:04Z</time>
      </trkpt>
      <trkpt lat="43.35718" lon="-1.63981">
        <ele>13.6</ele>
        <time>2021-07-18T07:56:05Z</time>
      </trkpt>
      <trkpt lat="43.35721" lon="-1.63982">
        <ele>13.6</ele>
        <time>2021-07-18T07:56:06Z</time>
      </trkpt>
      <trkpt lat="43.35727" lon="-1.63985">
        <ele>13.7</ele>
        <time>2021-07-18T07:56:08Z</time>
      </trkpt>
      <trkpt lat="43.35733" lon="-1.63989">
        <ele>13.7</ele>
        <time>2021-07-18T07:56:10Z</time>
      </trkpt>
      <trkpt lat="43.35738" lon="-1.63992">
        <ele>13.7</ele>
        <time>2021-07-18T07:56:12Z</time>
      </trkpt>
      <trkpt lat="43.35742" lon="-1.63994">
        <ele>13.7</ele>
        <time>2021-07-18T07:56:13Z</time>
      </trkpt>
      <trkpt lat="43.35746" lon="-1.63996">
        <ele>13.6</ele>
        <time>2021-07-18T07:56:14Z</time>
      </trkpt>
      <trkpt lat="43.35751" lon="-1.63999">
        <ele>13.6</ele>
        <time>2021-07-18T07:56:15Z</time>
      </trkpt>
      <trkpt lat="43.35757" lon="-1.64003">
        <ele>13.6</ele>
        <time>2021-07-18T07:56:17Z</time>
      </trkpt>
      <trkpt lat="43.35762" lon="-1.64006">
        <ele>13.5</ele>
        <time>2021-07-18T07:56:18Z</time>
      </trkpt>
      <trkpt lat="43.35767" lon="-1.64009">
        <ele>13.5</ele>
        <time>2021-07-18T07:56:19Z</time>
      </trkpt>
      <trkpt lat="43.35772" lon="-1.64012">
        <ele>13.5</ele>
        <time>2021-07-18T07:56:20Z</time>
      </trkpt>
      <trkpt lat="43.35781" lon="-1.64018">
        <ele>13.3</ele>
        <time>2021-07-18T07:56:22Z</time>
      </trkpt>
      <trkpt lat="43.35786" lon="-1.64021">
        <ele>13.3</ele>
        <time>2021-07-18T07:56:23Z</time>
      </trkpt>
      <trkpt lat="43.35796" lon="-1.64026">
        <ele>13.1</ele>
        <time>2021-07-18T07:56:25Z</time>
      </trkpt>
      <trkpt lat="43.35806" lon="-1.64033">
        <ele>12.9</ele>
        <time>2021-07-18T07:56:27Z</time>
      </trkpt>
      <trkpt lat="43.35811" lon="-1.64036">
        <ele>12.8</ele>
        <time>2021-07-18T07:56:28Z</time>
      </trkpt>
      <trkpt lat="43.35816" lon="-1.64039">
        <ele>12.7</ele>
        <time>2021-07-18T07:56:29Z</time>
      </trkpt>
      <trkpt lat="43.35827" lon="-1.64043">
        <ele>12.3</ele>
        <time>2021-07-18T07:56:31Z</time>
      </trkpt>
      <trkpt lat="43.35839" lon="-1.64046">
        <ele>11.9</ele>
        <time>2021-07-18T07:56:33Z</time>
      </trkpt>
      <trkpt lat="43.35852" lon="-1.64047">
        <ele>11.3</ele>
        <time>2021-07-18T07:56:35Z</time>
      </trkpt>
      <trkpt lat="43.35859" lon="-1.64048">
        <ele>11</ele>
        <time>2021-07-18T07:56:36Z</time>
      </trkpt>
      <trkpt lat="43.35873" lon="-1.64048">
        <ele>10.5</ele>
        <time>2021-07-18T07:56:38Z</time>
      </trkpt>
      <trkpt lat="43.35886" lon="-1.64049">
        <ele>10</ele>
        <time>2021-07-18T07:56:40Z</time>
      </trkpt>
      <trkpt lat="43.35899" lon="-1.6405">
        <ele>9.5</ele>
        <time>2021-07-18T07:56:42Z</time>
      </trkpt>
      <trkpt lat="43.35906" lon="-1.64051">
        <ele>9.2</ele>
        <time>2021-07-18T07:56:43Z</time>
      </trkpt>
      <trkpt lat="43.35919" lon="-1.64051">
        <ele>8.6</ele>
        <time>2021-07-18T07:56:45Z</time>
      </trkpt>
      <trkpt lat="43.35926" lon="-1.64052">
        <ele>8.3</ele>
        <time>2021-07-18T07:56:46Z</time>
      </trkpt>
      <trkpt lat="43.35933" lon="-1.64053">
        <ele>8</ele>
        <time>2021-07-18T07:56:47Z</time>
      </trkpt>
      <trkpt lat="43.35947" lon="-1.64054">
        <ele>7.4</ele>
        <time>2021-07-18T07:56:49Z</time>
      </trkpt>
      <trkpt lat="43.35954" lon="-1.64054">
        <ele>7.1</ele>
        <time>2021-07-18T07:56:50Z</time>
      </trkpt>
      <trkpt lat="43.35961" lon="-1.64053">
        <ele>6.8</ele>
        <time>2021-07-18T07:56:51Z</time>
      </trkpt>
      <trkpt lat="43.35968" lon="-1.64053">
        <ele>6.5</ele>
        <time>2021-07-18T07:56:52Z</time>
      </trkpt>
      <trkpt lat="43.35983" lon="-1.64051">
        <ele>5.9</ele>
        <time>2021-07-18T07:56:54Z</time>
      </trkpt>
      <trkpt lat="43.35998" lon="-1.64047">
        <ele>5.4</ele>
        <time>2021-07-18T07:56:56Z</time>
      </trkpt>
      <trkpt lat="43.36013" lon="-1.64045">
        <ele>5.1</ele>
        <time>2021-07-18T07:56:58Z</time>
      </trkpt>
      <trkpt lat="43.3602" lon="-1.64044">
        <ele>5</ele>
        <time>2021-07-18T07:56:59Z</time>
      </trkpt>
      <trkpt lat="43.36034" lon="-1.64042">
        <ele>4.7</ele>
        <time>2021-07-18T07:57:01Z</time>
      </trkpt>
      <trkpt lat="43.36048" lon="-1.64041">
        <ele>4.6</ele>
        <time>2021-07-18T07:57:03Z</time>
      </trkpt>
      <trkpt lat="43.36061" lon="-1.6404">
        <ele>4.6</ele>
        <time>2021-07-18T07:57:05Z</time>
      </trkpt>
      <trkpt lat="43.36074" lon="-1.64039">
        <ele>4.5</ele>
        <time>2021-07-18T07:57:07Z</time>
      </trkpt>
      <trkpt lat="43.36085" lon="-1.64038">
        <ele>4.6</ele>
        <time>2021-07-18T07:57:09Z</time>
      </trkpt>
      <trkpt lat="43.36091" lon="-1.64038">
        <ele>4.6</ele>
        <time>2021-07-18T07:57:10Z</time>
      </trkpt>
      <trkpt lat="43.36097" lon="-1.64039">
        <ele>4.6</ele>
        <time>2021-07-18T07:57:11Z</time>
      </trkpt>
      <trkpt lat="43.36107" lon="-1.64042">
        <ele>4.7</ele>
        <time>2021-07-18T07:57:13Z</time>
      </trkpt>
      <trkpt lat="43.36112" lon="-1.64044">
        <ele>4.8</ele>
        <time>2021-07-18T07:57:14Z</time>
      </trkpt>
      <trkpt lat="43.36118" lon="-1.64045">
        <ele>4.8</ele>
        <time>2021-07-18T07:57:15Z</time>
      </trkpt>
      <trkpt lat="43.36128" lon="-1.64049">
        <ele>4.9</ele>
        <time>2021-07-18T07:57:17Z</time>
      </trkpt>
      <trkpt lat="43.36133" lon="-1.6405">
        <ele>5</ele>
        <time>2021-07-18T07:57:18Z</time>
      </trkpt>
      <trkpt lat="43.36142" lon="-1.64054">
        <ele>5.2</ele>
        <time>2021-07-18T07:57:20Z</time>
      </trkpt>
      <trkpt lat="43.36152" lon="-1.64057">
        <ele>5.5</ele>
        <time>2021-07-18T07:57:22Z</time>
      </trkpt>
      <trkpt lat="43.36156" lon="-1.64059">
        <ele>5.7</ele>
        <time>2021-07-18T07:57:23Z</time>
      </trkpt>
      <trkpt lat="43.3616" lon="-1.6406">
        <ele>5.9</ele>
        <time>2021-07-18T07:57:24Z</time>
      </trkpt>
      <trkpt lat="43.36166" lon="-1.64062">
        <ele>6.2</ele>
        <time>2021-07-18T07:57:26Z</time>
      </trkpt>
      <trkpt lat="43.3617" lon="-1.64062">
        <ele>6.4</ele>
        <time>2021-07-18T07:57:27Z</time>
      </trkpt>
      <trkpt lat="43.36172" lon="-1.64062">
        <ele>6.6</ele>
        <time>2021-07-18T07:57:28Z</time>
      </trkpt>
      <trkpt lat="43.36179" lon="-1.64062">
        <ele>6.9</ele>
        <time>2021-07-18T07:57:30Z</time>
      </trkpt>
      <trkpt lat="43.36182" lon="-1.64059">
        <ele>7.1</ele>
        <time>2021-07-18T07:57:32Z</time>
      </trkpt>
      <trkpt lat="43.36186" lon="-1.64058">
        <ele>7.3</ele>
        <time>2021-07-18T07:57:33Z</time>
      </trkpt>
      <trkpt lat="43.36191" lon="-1.64058">
        <ele>7.4</ele>
        <time>2021-07-18T07:57:35Z</time>
      </trkpt>
      <trkpt lat="43.36195" lon="-1.64058">
        <ele>7.6</ele>
        <time>2021-07-18T07:57:36Z</time>
      </trkpt>
      <trkpt lat="43.36196" lon="-1.64058">
        <ele>7.6</ele>
        <time>2021-07-18T07:57:37Z</time>
      </trkpt>
      <trkpt lat="43.362" lon="-1.64057">
        <ele>7.8</ele>
        <time>2021-07-18T07:57:38Z</time>
      </trkpt>
      <trkpt lat="43.36202" lon="-1.64056">
        <ele>7.8</ele>
        <time>2021-07-18T07:57:39Z</time>
      </trkpt>
      <trkpt lat="43.36206" lon="-1.64055">
        <ele>7.9</ele>
        <time>2021-07-18T07:57:40Z</time>
      </trkpt>
      <trkpt lat="43.36208" lon="-1.64053">
        <ele>8</ele>
        <time>2021-07-18T07:57:42Z</time>
      </trkpt>
      <trkpt lat="43.36211" lon="-1.64052">
        <ele>8</ele>
        <time>2021-07-18T07:57:43Z</time>
      </trkpt>
      <trkpt lat="43.36216" lon="-1.64051">
        <ele>8.1</ele>
        <time>2021-07-18T07:57:44Z</time>
      </trkpt>
      <trkpt lat="43.36223" lon="-1.64049">
        <ele>8.2</ele>
        <time>2021-07-18T07:57:46Z</time>
      </trkpt>
      <trkpt lat="43.36229" lon="-1.64048">
        <ele>8.3</ele>
        <time>2021-07-18T07:57:47Z</time>
      </trkpt>
      <trkpt lat="43.36235" lon="-1.64047">
        <ele>8.4</ele>
        <time>2021-07-18T07:57:48Z</time>
      </trkpt>
      <trkpt lat="43.36241" lon="-1.64047">
        <ele>8.4</ele>
        <time>2021-07-18T07:57:50Z</time>
      </trkpt>
      <trkpt lat="43.36247" lon="-1.64046">
        <ele>8.4</ele>
        <time>2021-07-18T07:57:51Z</time>
      </trkpt>
      <trkpt lat="43.3626" lon="-1.64043">
        <ele>8.3</ele>
        <time>2021-07-18T07:57:53Z</time>
      </trkpt>
      <trkpt lat="43.36264" lon="-1.6404">
        <ele>8.2</ele>
        <time>2021-07-18T07:57:55Z</time>
      </trkpt>
      <trkpt lat="43.36275" lon="-1.64042">
        <ele>7.9</ele>
        <time>2021-07-18T07:57:56Z</time>
      </trkpt>
      <trkpt lat="43.36287" lon="-1.64044">
        <ele>7.6</ele>
        <time>2021-07-18T07:57:58Z</time>
      </trkpt>
      <trkpt lat="43.36293" lon="-1.64046">
        <ele>7.4</ele>
        <time>2021-07-18T07:57:59Z</time>
      </trkpt>
      <trkpt lat="43.36305" lon="-1.64047">
        <ele>7.2</ele>
        <time>2021-07-18T07:58:01Z</time>
      </trkpt>
      <trkpt lat="43.36311" lon="-1.64049">
        <ele>7.1</ele>
        <time>2021-07-18T07:58:02Z</time>
      </trkpt>
      <trkpt lat="43.36317" lon="-1.6405">
        <ele>7</ele>
        <time>2021-07-18T07:58:03Z</time>
      </trkpt>
      <trkpt lat="43.36329" lon="-1.64054">
        <ele>6.8</ele>
        <time>2021-07-18T07:58:05Z</time>
      </trkpt>
      <trkpt lat="43.36335" lon="-1.64055">
        <ele>6.8</ele>
        <time>2021-07-18T07:58:06Z</time>
      </trkpt>
      <trkpt lat="43.36341" lon="-1.64057">
        <ele>6.7</ele>
        <time>2021-07-18T07:58:07Z</time>
      </trkpt>
      <trkpt lat="43.36347" lon="-1.64058">
        <ele>6.7</ele>
        <time>2021-07-18T07:58:08Z</time>
      </trkpt>
      <trkpt lat="43.36359" lon="-1.6406">
        <ele>6.5</ele>
        <time>2021-07-18T07:58:10Z</time>
      </trkpt>
      <trkpt lat="43.36365" lon="-1.64062">
        <ele>6.4</ele>
        <time>2021-07-18T07:58:11Z</time>
      </trkpt>
      <trkpt lat="43.36376" lon="-1.64063">
        <ele>6.2</ele>
        <time>2021-07-18T07:58:13Z</time>
      </trkpt>
      <trkpt lat="43.36388" lon="-1.64066">
        <ele>6.1</ele>
        <time>2021-07-18T07:58:15Z</time>
      </trkpt>
      <trkpt lat="43.36393" lon="-1.64068">
        <ele>6</ele>
        <time>2021-07-18T07:58:16Z</time>
      </trkpt>
      <trkpt lat="43.36399" lon="-1.64069">
        <ele>6</ele>
        <time>2021-07-18T07:58:17Z</time>
      </trkpt>
      <trkpt lat="43.36405" lon="-1.6407">
        <ele>5.9</ele>
        <time>2021-07-18T07:58:18Z</time>
      </trkpt>
      <trkpt lat="43.36416" lon="-1.64072">
        <ele>5.8</ele>
        <time>2021-07-18T07:58:20Z</time>
      </trkpt>
      <trkpt lat="43.36421" lon="-1.64073">
        <ele>5.8</ele>
        <time>2021-07-18T07:58:21Z</time>
      </trkpt>
      <trkpt lat="43.36431" lon="-1.64077">
        <ele>5.7</ele>
        <time>2021-07-18T07:58:23Z</time>
      </trkpt>
      <trkpt lat="43.36442" lon="-1.64082">
        <ele>5.6</ele>
        <time>2021-07-18T07:58:25Z</time>
      </trkpt>
      <trkpt lat="43.36448" lon="-1.64085">
        <ele>5.5</ele>
        <time>2021-07-18T07:58:26Z</time>
      </trkpt>
      <trkpt lat="43.36453" lon="-1.64088">
        <ele>5.5</ele>
        <time>2021-07-18T07:58:27Z</time>
      </trkpt>
      <trkpt lat="43.36459" lon="-1.64092">
        <ele>5.4</ele>
        <time>2021-07-18T07:58:28Z</time>
      </trkpt>
      <trkpt lat="43.36469" lon="-1.64098">
        <ele>5.3</ele>
        <time>2021-07-18T07:58:30Z</time>
      </trkpt>
      <trkpt lat="43.3648" lon="-1.64105">
        <ele>5.3</ele>
        <time>2021-07-18T07:58:32Z</time>
      </trkpt>
      <trkpt lat="43.36486" lon="-1.64108">
        <ele>5.2</ele>
        <time>2021-07-18T07:58:33Z</time>
      </trkpt>
      <trkpt lat="43.36496" lon="-1.64113">
        <ele>5.2</ele>
        <time>2021-07-18T07:58:35Z</time>
      </trkpt>
      <trkpt lat="43.36501" lon="-1.64116">
        <ele>5.2</ele>
        <time>2021-07-18T07:58:36Z</time>
      </trkpt>
      <trkpt lat="43.36506" lon="-1.64119">
        <ele>5.1</ele>
        <time>2021-07-18T07:58:37Z</time>
      </trkpt>
      <trkpt lat="43.36512" lon="-1.64122">
        <ele>5.1</ele>
        <time>2021-07-18T07:58:38Z</time>
      </trkpt>
      <trkpt lat="43.36522" lon="-1.64127">
        <ele>5.2</ele>
        <time>2021-07-18T07:58:40Z</time>
      </trkpt>
      <trkpt lat="43.36527" lon="-1.6413">
        <ele>5.1</ele>
        <time>2021-07-18T07:58:41Z</time>
      </trkpt>
      <trkpt lat="43.36532" lon="-1.64132">
        <ele>5.1</ele>
        <time>2021-07-18T07:58:42Z</time>
      </trkpt>
      <trkpt lat="43.36536" lon="-1.64135">
        <ele>5.1</ele>
        <time>2021-07-18T07:58:43Z</time>
      </trkpt>
      <trkpt lat="43.36545" lon="-1.64139">
        <ele>5</ele>
        <time>2021-07-18T07:58:45Z</time>
      </trkpt>
      <trkpt lat="43.36549" lon="-1.64141">
        <ele>4.9</ele>
        <time>2021-07-18T07:58:46Z</time>
      </trkpt>
      <trkpt lat="43.36559" lon="-1.64147">
        <ele>4.8</ele>
        <time>2021-07-18T07:58:48Z</time>
      </trkpt>
      <trkpt lat="43.36568" lon="-1.64153">
        <ele>4.7</ele>
        <time>2021-07-18T07:58:50Z</time>
      </trkpt>
      <trkpt lat="43.36579" lon="-1.64159">
        <ele>4.7</ele>
        <time>2021-07-18T07:58:52Z</time>
      </trkpt>
      <trkpt lat="43.36584" lon="-1.64162">
        <ele>4.7</ele>
        <time>2021-07-18T07:58:53Z</time>
      </trkpt>
      <trkpt lat="43.36594" lon="-1.64168">
        <ele>4.7</ele>
        <time>2021-07-18T07:58:55Z</time>
      </trkpt>
      <trkpt lat="43.36599" lon="-1.64172">
        <ele>4.7</ele>
        <time>2021-07-18T07:58:56Z</time>
      </trkpt>
      <trkpt lat="43.36608" lon="-1.64178">
        <ele>4.8</ele>
        <time>2021-07-18T07:58:58Z</time>
      </trkpt>
      <trkpt lat="43.36612" lon="-1.64181">
        <ele>4.8</ele>
        <time>2021-07-18T07:58:59Z</time>
      </trkpt>
      <trkpt lat="43.36622" lon="-1.64186">
        <ele>4.8</ele>
        <time>2021-07-18T07:59:01Z</time>
      </trkpt>
      <trkpt lat="43.36626" lon="-1.64189">
        <ele>4.9</ele>
        <time>2021-07-18T07:59:02Z</time>
      </trkpt>
      <trkpt lat="43.36635" lon="-1.64195">
        <ele>4.9</ele>
        <time>2021-07-18T07:59:04Z</time>
      </trkpt>
      <trkpt lat="43.36645" lon="-1.642">
        <ele>4.9</ele>
        <time>2021-07-18T07:59:06Z</time>
      </trkpt>
      <trkpt lat="43.3665" lon="-1.64203">
        <ele>4.9</ele>
        <time>2021-07-18T07:59:07Z</time>
      </trkpt>
      <trkpt lat="43.36654" lon="-1.64206">
        <ele>4.9</ele>
        <time>2021-07-18T07:59:08Z</time>
      </trkpt>
      <trkpt lat="43.36664" lon="-1.64212">
        <ele>4.9</ele>
        <time>2021-07-18T07:59:10Z</time>
      </trkpt>
      <trkpt lat="43.36673" lon="-1.64218">
        <ele>4.9</ele>
        <time>2021-07-18T07:59:12Z</time>
      </trkpt>
      <trkpt lat="43.36678" lon="-1.6422">
        <ele>4.8</ele>
        <time>2021-07-18T07:59:13Z</time>
      </trkpt>
      <trkpt lat="43.36682" lon="-1.64223">
        <ele>4.8</ele>
        <time>2021-07-18T07:59:14Z</time>
      </trkpt>
      <trkpt lat="43.36692" lon="-1.64228">
        <ele>4.8</ele>
        <time>2021-07-18T07:59:16Z</time>
      </trkpt>
      <trkpt lat="43.36701" lon="-1.64234">
        <ele>4.8</ele>
        <time>2021-07-18T07:59:18Z</time>
      </trkpt>
      <trkpt lat="43.36711" lon="-1.6424">
        <ele>4.8</ele>
        <time>2021-07-18T07:59:20Z</time>
      </trkpt>
      <trkpt lat="43.36716" lon="-1.64242">
        <ele>4.8</ele>
        <time>2021-07-18T07:59:21Z</time>
      </trkpt>
      <trkpt lat="43.36726" lon="-1.64248">
        <ele>4.8</ele>
        <time>2021-07-18T07:59:23Z</time>
      </trkpt>
      <trkpt lat="43.3673" lon="-1.64251">
        <ele>4.8</ele>
        <time>2021-07-18T07:59:24Z</time>
      </trkpt>
      <trkpt lat="43.36735" lon="-1.64254">
        <ele>4.8</ele>
        <time>2021-07-18T07:59:25Z</time>
      </trkpt>
      <trkpt lat="43.36744" lon="-1.64259">
        <ele>4.9</ele>
        <time>2021-07-18T07:59:27Z</time>
      </trkpt>
      <trkpt lat="43.36754" lon="-1.64264">
        <ele>4.9</ele>
        <time>2021-07-18T07:59:29Z</time>
      </trkpt>
      <trkpt lat="43.36762" lon="-1.6427">
        <ele>4.9</ele>
        <time>2021-07-18T07:59:31Z</time>
      </trkpt>
      <trkpt lat="43.36771" lon="-1.64276">
        <ele>5</ele>
        <time>2021-07-18T07:59:33Z</time>
      </trkpt>
      <trkpt lat="43.3678" lon="-1.64281">
        <ele>5</ele>
        <time>2021-07-18T07:59:35Z</time>
      </trkpt>
      <trkpt lat="43.36789" lon="-1.64287">
        <ele>5</ele>
        <time>2021-07-18T07:59:37Z</time>
      </trkpt>
      <trkpt lat="43.36798" lon="-1.64293">
        <ele>5</ele>
        <time>2021-07-18T07:59:39Z</time>
      </trkpt>
      <trkpt lat="43.36807" lon="-1.64299">
        <ele>5</ele>
        <time>2021-07-18T07:59:41Z</time>
      </trkpt>
      <trkpt lat="43.36811" lon="-1.64302">
        <ele>5</ele>
        <time>2021-07-18T07:59:42Z</time>
      </trkpt>
      <trkpt lat="43.3682" lon="-1.64307">
        <ele>5.1</ele>
        <time>2021-07-18T07:59:44Z</time>
      </trkpt>
      <trkpt lat="43.36829" lon="-1.64312">
        <ele>5.1</ele>
        <time>2021-07-18T07:59:46Z</time>
      </trkpt>
      <trkpt lat="43.36833" lon="-1.64315">
        <ele>5.1</ele>
        <time>2021-07-18T07:59:47Z</time>
      </trkpt>
      <trkpt lat="43.36837" lon="-1.64317">
        <ele>5.1</ele>
        <time>2021-07-18T07:59:48Z</time>
      </trkpt>
      <trkpt lat="43.36844" lon="-1.64322">
        <ele>5.1</ele>
        <time>2021-07-18T07:59:50Z</time>
      </trkpt>
      <trkpt lat="43.36852" lon="-1.64326">
        <ele>5.1</ele>
        <time>2021-07-18T07:59:52Z</time>
      </trkpt>
      <trkpt lat="43.36857" lon="-1.64329">
        <ele>5.1</ele>
        <time>2021-07-18T07:59:53Z</time>
      </trkpt>
      <trkpt lat="43.36861" lon="-1.64332">
        <ele>5.1</ele>
        <time>2021-07-18T07:59:54Z</time>
      </trkpt>
      <trkpt lat="43.3687" lon="-1.64338">
        <ele>5</ele>
        <time>2021-07-18T07:59:56Z</time>
      </trkpt>
      <trkpt lat="43.36874" lon="-1.64341">
        <ele>4.9</ele>
        <time>2021-07-18T07:59:57Z</time>
      </trkpt>
      <trkpt lat="43.36883" lon="-1.64346">
        <ele>4.8</ele>
        <time>2021-07-18T07:59:59Z</time>
      </trkpt>
      <trkpt lat="43.36892" lon="-1.64352">
        <ele>4.7</ele>
        <time>2021-07-18T08:00:01Z</time>
      </trkpt>
      <trkpt lat="43.36897" lon="-1.64355">
        <ele>4.7</ele>
        <time>2021-07-18T08:00:02Z</time>
      </trkpt>
      <trkpt lat="43.36901" lon="-1.64358">
        <ele>4.6</ele>
        <time>2021-07-18T08:00:03Z</time>
      </trkpt>
      <trkpt lat="43.36911" lon="-1.64365">
        <ele>4.5</ele>
        <time>2021-07-18T08:00:05Z</time>
      </trkpt>
      <trkpt lat="43.36921" lon="-1.64371">
        <ele>4.4</ele>
        <time>2021-07-18T08:00:07Z</time>
      </trkpt>
      <trkpt lat="43.3693" lon="-1.64376">
        <ele>4.3</ele>
        <time>2021-07-18T08:00:09Z</time>
      </trkpt>
      <trkpt lat="43.3694" lon="-1.64382">
        <ele>4.2</ele>
        <time>2021-07-18T08:00:11Z</time>
      </trkpt>
      <trkpt lat="43.36944" lon="-1.64385">
        <ele>4.1</ele>
        <time>2021-07-18T08:00:12Z</time>
      </trkpt>
      <trkpt lat="43.36949" lon="-1.64389">
        <ele>4.1</ele>
        <time>2021-07-18T08:00:13Z</time>
      </trkpt>
      <trkpt lat="43.36958" lon="-1.64395">
        <ele>4</ele>
        <time>2021-07-18T08:00:15Z</time>
      </trkpt>
      <trkpt lat="43.36963" lon="-1.64398">
        <ele>4</ele>
        <time>2021-07-18T08:00:16Z</time>
      </trkpt>
      <trkpt lat="43.36973" lon="-1.64404">
        <ele>3.9</ele>
        <time>2021-07-18T08:00:18Z</time>
      </trkpt>
      <trkpt lat="43.36977" lon="-1.64407">
        <ele>3.9</ele>
        <time>2021-07-18T08:00:19Z</time>
      </trkpt>
      <trkpt lat="43.36987" lon="-1.64414">
        <ele>3.8</ele>
        <time>2021-07-18T08:00:21Z</time>
      </trkpt>
      <trkpt lat="43.36991" lon="-1.64416">
        <ele>3.8</ele>
        <time>2021-07-18T08:00:22Z</time>
      </trkpt>
      <trkpt lat="43.37001" lon="-1.64422">
        <ele>3.8</ele>
        <time>2021-07-18T08:00:24Z</time>
      </trkpt>
      <trkpt lat="43.37006" lon="-1.64425">
        <ele>3.8</ele>
        <time>2021-07-18T08:00:25Z</time>
      </trkpt>
      <trkpt lat="43.37015" lon="-1.64431">
        <ele>3.8</ele>
        <time>2021-07-18T08:00:27Z</time>
      </trkpt>
      <trkpt lat="43.37024" lon="-1.64437">
        <ele>3.8</ele>
        <time>2021-07-18T08:00:29Z</time>
      </trkpt>
      <trkpt lat="43.37034" lon="-1.64443">
        <ele>3.8</ele>
        <time>2021-07-18T08:00:31Z</time>
      </trkpt>
      <trkpt lat="43.37043" lon="-1.64449">
        <ele>3.8</ele>
        <time>2021-07-18T08:00:33Z</time>
      </trkpt>
      <trkpt lat="43.37052" lon="-1.64455">
        <ele>3.8</ele>
        <time>2021-07-18T08:00:35Z</time>
      </trkpt>
      <trkpt lat="43.37057" lon="-1.64457">
        <ele>3.8</ele>
        <time>2021-07-18T08:00:36Z</time>
      </trkpt>
      <trkpt lat="43.37061" lon="-1.6446">
        <ele>3.8</ele>
        <time>2021-07-18T08:00:37Z</time>
      </trkpt>
      <trkpt lat="43.3707" lon="-1.64466">
        <ele>3.8</ele>
        <time>2021-07-18T08:00:39Z</time>
      </trkpt>
      <trkpt lat="43.37079" lon="-1.64472">
        <ele>3.8</ele>
        <time>2021-07-18T08:00:41Z</time>
      </trkpt>
      <trkpt lat="43.37088" lon="-1.64477">
        <ele>3.9</ele>
        <time>2021-07-18T08:00:43Z</time>
      </trkpt>
      <trkpt lat="43.37093" lon="-1.6448">
        <ele>3.9</ele>
        <time>2021-07-18T08:00:44Z</time>
      </trkpt>
      <trkpt lat="43.37097" lon="-1.64483">
        <ele>3.9</ele>
        <time>2021-07-18T08:00:45Z</time>
      </trkpt>
      <trkpt lat="43.37102" lon="-1.64486">
        <ele>3.9</ele>
        <time>2021-07-18T08:00:46Z</time>
      </trkpt>
      <trkpt lat="43.37106" lon="-1.64489">
        <ele>3.9</ele>
        <time>2021-07-18T08:00:47Z</time>
      </trkpt>
      <trkpt lat="43.37115" lon="-1.64494">
        <ele>3.9</ele>
        <time>2021-07-18T08:00:49Z</time>
      </trkpt>
      <trkpt lat="43.37119" lon="-1.64497">
        <ele>3.9</ele>
        <time>2021-07-18T08:00:50Z</time>
      </trkpt>
      <trkpt lat="43.37128" lon="-1.64503">
        <ele>3.9</ele>
        <time>2021-07-18T08:00:52Z</time>
      </trkpt>
      <trkpt lat="43.37138" lon="-1.64508">
        <ele>3.9</ele>
        <time>2021-07-18T08:00:54Z</time>
      </trkpt>
      <trkpt lat="43.37147" lon="-1.64514">
        <ele>3.8</ele>
        <time>2021-07-18T08:00:56Z</time>
      </trkpt>
      <trkpt lat="43.37152" lon="-1.64517">
        <ele>3.8</ele>
        <time>2021-07-18T08:00:57Z</time>
      </trkpt>
      <trkpt lat="43.37156" lon="-1.6452">
        <ele>3.8</ele>
        <time>2021-07-18T08:00:58Z</time>
      </trkpt>
      <trkpt lat="43.37166" lon="-1.64526">
        <ele>3.9</ele>
        <time>2021-07-18T08:01:00Z</time>
      </trkpt>
      <trkpt lat="43.37175" lon="-1.64531">
        <ele>3.9</ele>
        <time>2021-07-18T08:01:02Z</time>
      </trkpt>
      <trkpt lat="43.37179" lon="-1.64534">
        <ele>3.9</ele>
        <time>2021-07-18T08:01:03Z</time>
      </trkpt>
      <trkpt lat="43.37188" lon="-1.6454">
        <ele>3.9</ele>
        <time>2021-07-18T08:01:05Z</time>
      </trkpt>
      <trkpt lat="43.37193" lon="-1.64543">
        <ele>3.9</ele>
        <time>2021-07-18T08:01:06Z</time>
      </trkpt>
      <trkpt lat="43.37197" lon="-1.64545">
        <ele>3.9</ele>
        <time>2021-07-18T08:01:07Z</time>
      </trkpt>
      <trkpt lat="43.37202" lon="-1.64548">
        <ele>3.9</ele>
        <time>2021-07-18T08:01:08Z</time>
      </trkpt>
      <trkpt lat="43.37211" lon="-1.64555">
        <ele>3.9</ele>
        <time>2021-07-18T08:01:10Z</time>
      </trkpt>
      <trkpt lat="43.37219" lon="-1.6456">
        <ele>3.9</ele>
        <time>2021-07-18T08:01:12Z</time>
      </trkpt>
      <trkpt lat="43.37224" lon="-1.64563">
        <ele>3.9</ele>
        <time>2021-07-18T08:01:13Z</time>
      </trkpt>
      <trkpt lat="43.37233" lon="-1.64568">
        <ele>4</ele>
        <time>2021-07-18T08:01:15Z</time>
      </trkpt>
      <trkpt lat="43.37237" lon="-1.64571">
        <ele>3.9</ele>
        <time>2021-07-18T08:01:16Z</time>
      </trkpt>
      <trkpt lat="43.37241" lon="-1.64575">
        <ele>3.9</ele>
        <time>2021-07-18T08:01:17Z</time>
      </trkpt>
      <trkpt lat="43.37246" lon="-1.64578">
        <ele>3.9</ele>
        <time>2021-07-18T08:01:18Z</time>
      </trkpt>
      <trkpt lat="43.37255" lon="-1.64583">
        <ele>3.9</ele>
        <time>2021-07-18T08:01:20Z</time>
      </trkpt>
      <trkpt lat="43.37259" lon="-1.64586">
        <ele>3.9</ele>
        <time>2021-07-18T08:01:21Z</time>
      </trkpt>
      <trkpt lat="43.37268" lon="-1.64591">
        <ele>3.9</ele>
        <time>2021-07-18T08:01:23Z</time>
      </trkpt>
      <trkpt lat="43.37278" lon="-1.64597">
        <ele>3.9</ele>
        <time>2021-07-18T08:01:25Z</time>
      </trkpt>
      <trkpt lat="43.37286" lon="-1.64603">
        <ele>3.9</ele>
        <time>2021-07-18T08:01:27Z</time>
      </trkpt>
      <trkpt lat="43.37291" lon="-1.64606">
        <ele>3.8</ele>
        <time>2021-07-18T08:01:28Z</time>
      </trkpt>
      <trkpt lat="43.37295" lon="-1.64609">
        <ele>3.8</ele>
        <time>2021-07-18T08:01:29Z</time>
      </trkpt>
      <trkpt lat="43.373" lon="-1.64612">
        <ele>3.8</ele>
        <time>2021-07-18T08:01:30Z</time>
      </trkpt>
      <trkpt lat="43.37309" lon="-1.64618">
        <ele>3.9</ele>
        <time>2021-07-18T08:01:32Z</time>
      </trkpt>
      <trkpt lat="43.37314" lon="-1.6462">
        <ele>3.9</ele>
        <time>2021-07-18T08:01:33Z</time>
      </trkpt>
      <trkpt lat="43.37323" lon="-1.64626">
        <ele>3.9</ele>
        <time>2021-07-18T08:01:35Z</time>
      </trkpt>
      <trkpt lat="43.37327" lon="-1.64629">
        <ele>3.9</ele>
        <time>2021-07-18T08:01:36Z</time>
      </trkpt>
      <trkpt lat="43.37336" lon="-1.64635">
        <ele>3.9</ele>
        <time>2021-07-18T08:01:38Z</time>
      </trkpt>
      <trkpt lat="43.37345" lon="-1.64641">
        <ele>3.9</ele>
        <time>2021-07-18T08:01:40Z</time>
      </trkpt>
      <trkpt lat="43.3735" lon="-1.64644">
        <ele>3.9</ele>
        <time>2021-07-18T08:01:41Z</time>
      </trkpt>
      <trkpt lat="43.37359" lon="-1.64649">
        <ele>3.8</ele>
        <time>2021-07-18T08:01:43Z</time>
      </trkpt>
      <trkpt lat="43.37368" lon="-1.64655">
        <ele>3.8</ele>
        <time>2021-07-18T08:01:45Z</time>
      </trkpt>
      <trkpt lat="43.37376" lon="-1.64661">
        <ele>3.8</ele>
        <time>2021-07-18T08:01:47Z</time>
      </trkpt>
      <trkpt lat="43.37381" lon="-1.64664">
        <ele>3.8</ele>
        <time>2021-07-18T08:01:48Z</time>
      </trkpt>
      <trkpt lat="43.3739" lon="-1.6467">
        <ele>3.8</ele>
        <time>2021-07-18T08:01:50Z</time>
      </trkpt>
      <trkpt lat="43.37394" lon="-1.64673">
        <ele>3.8</ele>
        <time>2021-07-18T08:01:51Z</time>
      </trkpt>
      <trkpt lat="43.37398" lon="-1.64675">
        <ele>3.8</ele>
        <time>2021-07-18T08:01:52Z</time>
      </trkpt>
      <trkpt lat="43.37403" lon="-1.64678">
        <ele>3.8</ele>
        <time>2021-07-18T08:01:53Z</time>
      </trkpt>
      <trkpt lat="43.37411" lon="-1.64684">
        <ele>3.8</ele>
        <time>2021-07-18T08:01:55Z</time>
      </trkpt>
      <trkpt lat="43.3742" lon="-1.64689">
        <ele>3.8</ele>
        <time>2021-07-18T08:01:57Z</time>
      </trkpt>
      <trkpt lat="43.37425" lon="-1.64692">
        <ele>3.8</ele>
        <time>2021-07-18T08:01:58Z</time>
      </trkpt>
      <trkpt lat="43.37429" lon="-1.64695">
        <ele>3.8</ele>
        <time>2021-07-18T08:01:59Z</time>
      </trkpt>
      <trkpt lat="43.37438" lon="-1.64701">
        <ele>3.8</ele>
        <time>2021-07-18T08:02:01Z</time>
      </trkpt>
      <trkpt lat="43.37442" lon="-1.64704">
        <ele>3.8</ele>
        <time>2021-07-18T08:02:02Z</time>
      </trkpt>
      <trkpt lat="43.37451" lon="-1.64709">
        <ele>3.8</ele>
        <time>2021-07-18T08:02:04Z</time>
      </trkpt>
      <trkpt lat="43.37455" lon="-1.64712">
        <ele>3.8</ele>
        <time>2021-07-18T08:02:05Z</time>
      </trkpt>
      <trkpt lat="43.37464" lon="-1.64717">
        <ele>3.8</ele>
        <time>2021-07-18T08:02:07Z</time>
      </trkpt>
      <trkpt lat="43.37468" lon="-1.6472">
        <ele>3.8</ele>
        <time>2021-07-18T08:02:08Z</time>
      </trkpt>
      <trkpt lat="43.37477" lon="-1.64726">
        <ele>3.8</ele>
        <time>2021-07-18T08:02:10Z</time>
      </trkpt>
      <trkpt lat="43.37481" lon="-1.64729">
        <ele>3.8</ele>
        <time>2021-07-18T08:02:11Z</time>
      </trkpt>
      <trkpt lat="43.37486" lon="-1.64732">
        <ele>3.8</ele>
        <time>2021-07-18T08:02:12Z</time>
      </trkpt>
      <trkpt lat="43.3749" lon="-1.64735">
        <ele>3.7</ele>
        <time>2021-07-18T08:02:13Z</time>
      </trkpt>
      <trkpt lat="43.37499" lon="-1.6474">
        <ele>3.7</ele>
        <time>2021-07-18T08:02:15Z</time>
      </trkpt>
      <trkpt lat="43.37508" lon="-1.64744">
        <ele>3.7</ele>
        <time>2021-07-18T08:02:17Z</time>
      </trkpt>
      <trkpt lat="43.37518" lon="-1.64747">
        <ele>3.7</ele>
        <time>2021-07-18T08:02:19Z</time>
      </trkpt>
      <trkpt lat="43.37528" lon="-1.64748">
        <ele>3.7</ele>
        <time>2021-07-18T08:02:21Z</time>
      </trkpt>
      <trkpt lat="43.37533" lon="-1.64748">
        <ele>3.7</ele>
        <time>2021-07-18T08:02:22Z</time>
      </trkpt>
      <trkpt lat="43.37538" lon="-1.64747">
        <ele>3.8</ele>
        <time>2021-07-18T08:02:23Z</time>
      </trkpt>
      <trkpt lat="43.37542" lon="-1.64747">
        <ele>3.8</ele>
        <time>2021-07-18T08:02:24Z</time>
      </trkpt>
      <trkpt lat="43.37551" lon="-1.64745">
        <ele>3.8</ele>
        <time>2021-07-18T08:02:26Z</time>
      </trkpt>
      <trkpt lat="43.37559" lon="-1.64742">
        <ele>3.9</ele>
        <time>2021-07-18T08:02:28Z</time>
      </trkpt>
      <trkpt lat="43.37564" lon="-1.64741">
        <ele>3.9</ele>
        <time>2021-07-18T08:02:29Z</time>
      </trkpt>
      <trkpt lat="43.37569" lon="-1.64739">
        <ele>4</ele>
        <time>2021-07-18T08:02:30Z</time>
      </trkpt>
      <trkpt lat="43.37576" lon="-1.64735">
        <ele>4.1</ele>
        <time>2021-07-18T08:02:32Z</time>
      </trkpt>
      <trkpt lat="43.37583" lon="-1.6473">
        <ele>4.2</ele>
        <time>2021-07-18T08:02:34Z</time>
      </trkpt>
      <trkpt lat="43.37587" lon="-1.64727">
        <ele>4.3</ele>
        <time>2021-07-18T08:02:35Z</time>
      </trkpt>
      <trkpt lat="43.3759" lon="-1.64724">
        <ele>4.4</ele>
        <time>2021-07-18T08:02:36Z</time>
      </trkpt>
      <trkpt lat="43.37594" lon="-1.64721">
        <ele>4.5</ele>
        <time>2021-07-18T08:02:37Z</time>
      </trkpt>
      <trkpt lat="43.37598" lon="-1.64725">
        <ele>4.7</ele>
        <time>2021-07-18T08:02:39Z</time>
      </trkpt>
      <trkpt lat="43.37603" lon="-1.6472">
        <ele>5</ele>
        <time>2021-07-18T08:02:41Z</time>
      </trkpt>
      <trkpt lat="43.37606" lon="-1.64716">
        <ele>5.1</ele>
        <time>2021-07-18T08:02:42Z</time>
      </trkpt>
      <trkpt lat="43.37612" lon="-1.64711">
        <ele>5.4</ele>
        <time>2021-07-18T08:02:44Z</time>
      </trkpt>
      <trkpt lat="43.37617" lon="-1.64706">
        <ele>5.7</ele>
        <time>2021-07-18T08:02:46Z</time>
      </trkpt>
      <trkpt lat="43.3762" lon="-1.64704">
        <ele>5.8</ele>
        <time>2021-07-18T08:02:47Z</time>
      </trkpt>
      <trkpt lat="43.37624" lon="-1.64701">
        <ele>6.1</ele>
        <time>2021-07-18T08:02:49Z</time>
      </trkpt>
      <trkpt lat="43.37629" lon="-1.64698">
        <ele>6.4</ele>
        <time>2021-07-18T08:02:51Z</time>
      </trkpt>
      <trkpt lat="43.37632" lon="-1.64696">
        <ele>6.6</ele>
        <time>2021-07-18T08:02:53Z</time>
      </trkpt>
      <trkpt lat="43.37636" lon="-1.64694">
        <ele>6.8</ele>
        <time>2021-07-18T08:02:55Z</time>
      </trkpt>
      <trkpt lat="43.37641" lon="-1.64691">
        <ele>7.1</ele>
        <time>2021-07-18T08:02:57Z</time>
      </trkpt>
      <trkpt lat="43.37645" lon="-1.64689">
        <ele>7.4</ele>
        <time>2021-07-18T08:02:59Z</time>
      </trkpt>
      <trkpt lat="43.37649" lon="-1.64687">
        <ele>7.6</ele>
        <time>2021-07-18T08:03:00Z</time>
      </trkpt>
      <trkpt lat="43.3765" lon="-1.64687">
        <ele>7.6</ele>
        <time>2021-07-18T08:03:01Z</time>
      </trkpt>
      <trkpt lat="43.37654" lon="-1.64685">
        <ele>7.9</ele>
        <time>2021-07-18T08:03:03Z</time>
      </trkpt>
      <trkpt lat="43.37657" lon="-1.64684">
        <ele>8.1</ele>
        <time>2021-07-18T08:03:04Z</time>
      </trkpt>
      <trkpt lat="43.37658" lon="-1.64684">
        <ele>8.1</ele>
        <time>2021-07-18T08:03:05Z</time>
      </trkpt>
      <trkpt lat="43.37662" lon="-1.64683">
        <ele>8.4</ele>
        <time>2021-07-18T08:03:07Z</time>
      </trkpt>
      <trkpt lat="43.37664" lon="-1.64683">
        <ele>8.5</ele>
        <time>2021-07-18T08:03:08Z</time>
      </trkpt>
      <trkpt lat="43.37669" lon="-1.64683">
        <ele>8.7</ele>
        <time>2021-07-18T08:03:10Z</time>
      </trkpt>
      <trkpt lat="43.37671" lon="-1.64683">
        <ele>8.8</ele>
        <time>2021-07-18T08:03:11Z</time>
      </trkpt>
      <trkpt lat="43.37675" lon="-1.64683">
        <ele>9.1</ele>
        <time>2021-07-18T08:03:13Z</time>
      </trkpt>
      <trkpt lat="43.37678" lon="-1.64684">
        <ele>9.2</ele>
        <time>2021-07-18T08:03:14Z</time>
      </trkpt>
      <trkpt lat="43.37679" lon="-1.64685">
        <ele>9.3</ele>
        <time>2021-07-18T08:03:15Z</time>
      </trkpt>
      <trkpt lat="43.37684" lon="-1.64685">
        <ele>9.5</ele>
        <time>2021-07-18T08:03:17Z</time>
      </trkpt>
      <trkpt lat="43.37688" lon="-1.64686">
        <ele>9.7</ele>
        <time>2021-07-18T08:03:18Z</time>
      </trkpt>
      <trkpt lat="43.37689" lon="-1.64686">
        <ele>9.8</ele>
        <time>2021-07-18T08:03:19Z</time>
      </trkpt>
      <trkpt lat="43.37694" lon="-1.64687">
        <ele>9.9</ele>
        <time>2021-07-18T08:03:21Z</time>
      </trkpt>
      <trkpt lat="43.37698" lon="-1.64689">
        <ele>10.1</ele>
        <time>2021-07-18T08:03:23Z</time>
      </trkpt>
      <trkpt lat="43.37701" lon="-1.64691">
        <ele>10.3</ele>
        <time>2021-07-18T08:03:24Z</time>
      </trkpt>
      <trkpt lat="43.37702" lon="-1.64692">
        <ele>10.3</ele>
        <time>2021-07-18T08:03:25Z</time>
      </trkpt>
      <trkpt lat="43.37707" lon="-1.64694">
        <ele>10.5</ele>
        <time>2021-07-18T08:03:27Z</time>
      </trkpt>
      <trkpt lat="43.37709" lon="-1.64696">
        <ele>10.5</ele>
        <time>2021-07-18T08:03:28Z</time>
      </trkpt>
      <trkpt lat="43.37713" lon="-1.64699">
        <ele>10.7</ele>
        <time>2021-07-18T08:03:30Z</time>
      </trkpt>
      <trkpt lat="43.37716" lon="-1.647">
        <ele>10.8</ele>
        <time>2021-07-18T08:03:31Z</time>
      </trkpt>
      <trkpt lat="43.3772" lon="-1.64703">
        <ele>10.8</ele>
        <time>2021-07-18T08:03:33Z</time>
      </trkpt>
      <trkpt lat="43.37725" lon="-1.64706">
        <ele>10.9</ele>
        <time>2021-07-18T08:03:35Z</time>
      </trkpt>
      <trkpt lat="43.37731" lon="-1.64709">
        <ele>11</ele>
        <time>2021-07-18T08:03:37Z</time>
      </trkpt>
      <trkpt lat="43.37733" lon="-1.6471">
        <ele>11</ele>
        <time>2021-07-18T08:03:38Z</time>
      </trkpt>
      <trkpt lat="43.37739" lon="-1.64713">
        <ele>11</ele>
        <time>2021-07-18T08:03:40Z</time>
      </trkpt>
      <trkpt lat="43.37742" lon="-1.64715">
        <ele>11</ele>
        <time>2021-07-18T08:03:41Z</time>
      </trkpt>
      <trkpt lat="43.37745" lon="-1.64717">
        <ele>11</ele>
        <time>2021-07-18T08:03:42Z</time>
      </trkpt>
      <trkpt lat="43.37752" lon="-1.64722">
        <ele>11</ele>
        <time>2021-07-18T08:03:44Z</time>
      </trkpt>
      <trkpt lat="43.37755" lon="-1.64724">
        <ele>10.9</ele>
        <time>2021-07-18T08:03:45Z</time>
      </trkpt>
      <trkpt lat="43.37761" lon="-1.64729">
        <ele>10.8</ele>
        <time>2021-07-18T08:03:47Z</time>
      </trkpt>
      <trkpt lat="43.37765" lon="-1.64731">
        <ele>10.7</ele>
        <time>2021-07-18T08:03:48Z</time>
      </trkpt>
      <trkpt lat="43.37774" lon="-1.64738">
        <ele>10.3</ele>
        <time>2021-07-18T08:03:50Z</time>
      </trkpt>
      <trkpt lat="43.37784" lon="-1.64744">
        <ele>10</ele>
        <time>2021-07-18T08:03:52Z</time>
      </trkpt>
      <trkpt lat="43.37789" lon="-1.64747">
        <ele>9.7</ele>
        <time>2021-07-18T08:03:53Z</time>
      </trkpt>
      <trkpt lat="43.37794" lon="-1.64751">
        <ele>9.5</ele>
        <time>2021-07-18T08:03:54Z</time>
      </trkpt>
      <trkpt lat="43.37799" lon="-1.64754">
        <ele>9.2</ele>
        <time>2021-07-18T08:03:55Z</time>
      </trkpt>
      <trkpt lat="43.37809" lon="-1.64762">
        <ele>8.6</ele>
        <time>2021-07-18T08:03:57Z</time>
      </trkpt>
      <trkpt lat="43.37815" lon="-1.64766">
        <ele>8.2</ele>
        <time>2021-07-18T08:03:58Z</time>
      </trkpt>
      <trkpt lat="43.37821" lon="-1.6477">
        <ele>7.9</ele>
        <time>2021-07-18T08:03:59Z</time>
      </trkpt>
      <trkpt lat="43.37834" lon="-1.6478">
        <ele>7.2</ele>
        <time>2021-07-18T08:04:01Z</time>
      </trkpt>
      <trkpt lat="43.37845" lon="-1.64792">
        <ele>6.5</ele>
        <time>2021-07-18T08:04:03Z</time>
      </trkpt>
      <trkpt lat="43.37851" lon="-1.64799">
        <ele>6.2</ele>
        <time>2021-07-18T08:04:04Z</time>
      </trkpt>
      <trkpt lat="43.3786" lon="-1.64815">
        <ele>5.7</ele>
        <time>2021-07-18T08:04:06Z</time>
      </trkpt>
      <trkpt lat="43.37868" lon="-1.64834">
        <ele>5.2</ele>
        <time>2021-07-18T08:04:08Z</time>
      </trkpt>
      <trkpt lat="43.37873" lon="-1.64854">
        <ele>4.9</ele>
        <time>2021-07-18T08:04:10Z</time>
      </trkpt>
      <trkpt lat="43.37876" lon="-1.64864">
        <ele>4.8</ele>
        <time>2021-07-18T08:04:11Z</time>
      </trkpt>
      <trkpt lat="43.37878" lon="-1.64874">
        <ele>4.7</ele>
        <time>2021-07-18T08:04:12Z</time>
      </trkpt>
      <trkpt lat="43.37884" lon="-1.64893">
        <ele>4.6</ele>
        <time>2021-07-18T08:04:14Z</time>
      </trkpt>
      <trkpt lat="43.37886" lon="-1.64902">
        <ele>4.6</ele>
        <time>2021-07-18T08:04:15Z</time>
      </trkpt>
      <trkpt lat="43.37888" lon="-1.64912">
        <ele>4.5</ele>
        <time>2021-07-18T08:04:16Z</time>
      </trkpt>
      <trkpt lat="43.37892" lon="-1.64929">
        <ele>4.5</ele>
        <time>2021-07-18T08:04:18Z</time>
      </trkpt>
      <trkpt lat="43.37895" lon="-1.64946">
        <ele>4.4</ele>
        <time>2021-07-18T08:04:20Z</time>
      </trkpt>
      <trkpt lat="43.37898" lon="-1.64964">
        <ele>4.4</ele>
        <time>2021-07-18T08:04:22Z</time>
      </trkpt>
      <trkpt lat="43.379" lon="-1.64981">
        <ele>4.4</ele>
        <time>2021-07-18T08:04:24Z</time>
      </trkpt>
      <trkpt lat="43.37901" lon="-1.6499">
        <ele>4.4</ele>
        <time>2021-07-18T08:04:25Z</time>
      </trkpt>
      <trkpt lat="43.37902" lon="-1.64998">
        <ele>4.4</ele>
        <time>2021-07-18T08:04:26Z</time>
      </trkpt>
      <trkpt lat="43.37904" lon="-1.65015">
        <ele>4.3</ele>
        <time>2021-07-18T08:04:28Z</time>
      </trkpt>
      <trkpt lat="43.37906" lon="-1.65031">
        <ele>4.3</ele>
        <time>2021-07-18T08:04:30Z</time>
      </trkpt>
      <trkpt lat="43.37908" lon="-1.65039">
        <ele>4.3</ele>
        <time>2021-07-18T08:04:31Z</time>
      </trkpt>
      <trkpt lat="43.37913" lon="-1.65051">
        <ele>4.3</ele>
        <time>2021-07-18T08:04:33Z</time>
      </trkpt>
      <trkpt lat="43.37913" lon="-1.65054">
        <ele>4.3</ele>
        <time>2021-07-18T08:04:34Z</time>
      </trkpt>
      <trkpt lat="43.37914" lon="-1.65065">
        <ele>4.3</ele>
        <time>2021-07-18T08:04:36Z</time>
      </trkpt>
      <trkpt lat="43.37917" lon="-1.65076">
        <ele>4.3</ele>
        <time>2021-07-18T08:04:38Z</time>
      </trkpt>
      <trkpt lat="43.3792" lon="-1.65087">
        <ele>4.4</ele>
        <time>2021-07-18T08:04:40Z</time>
      </trkpt>
      <trkpt lat="43.37923" lon="-1.65083">
        <ele>4.4</ele>
        <time>2021-07-18T08:04:42Z</time>
      </trkpt>
      <trkpt lat="43.37925" lon="-1.65092">
        <ele>4.5</ele>
        <time>2021-07-18T08:04:43Z</time>
      </trkpt>
      <trkpt lat="43.37926" lon="-1.651">
        <ele>4.6</ele>
        <time>2021-07-18T08:04:44Z</time>
      </trkpt>
      <trkpt lat="43.37928" lon="-1.65111">
        <ele>4.7</ele>
        <time>2021-07-18T08:04:46Z</time>
      </trkpt>
      <trkpt lat="43.3793" lon="-1.6512">
        <ele>4.8</ele>
        <time>2021-07-18T08:04:47Z</time>
      </trkpt>
      <trkpt lat="43.37932" lon="-1.65128">
        <ele>4.9</ele>
        <time>2021-07-18T08:04:49Z</time>
      </trkpt>
      <trkpt lat="43.37934" lon="-1.65135">
        <ele>5</ele>
        <time>2021-07-18T08:04:50Z</time>
      </trkpt>
      <trkpt lat="43.37936" lon="-1.6514">
        <ele>5.1</ele>
        <time>2021-07-18T08:04:51Z</time>
      </trkpt>
      <trkpt lat="43.37938" lon="-1.65145">
        <ele>5.1</ele>
        <time>2021-07-18T08:04:52Z</time>
      </trkpt>
      <trkpt lat="43.37939" lon="-1.65151">
        <ele>5.2</ele>
        <time>2021-07-18T08:04:53Z</time>
      </trkpt>
      <trkpt lat="43.37941" lon="-1.65157">
        <ele>5.3</ele>
        <time>2021-07-18T08:04:55Z</time>
      </trkpt>
      <trkpt lat="43.37942" lon="-1.65164">
        <ele>5.3</ele>
        <time>2021-07-18T08:04:56Z</time>
      </trkpt>
      <trkpt lat="43.37944" lon="-1.65169">
        <ele>5.4</ele>
        <time>2021-07-18T08:04:57Z</time>
      </trkpt>
      <trkpt lat="43.37945" lon="-1.65174">
        <ele>5.4</ele>
        <time>2021-07-18T08:04:58Z</time>
      </trkpt>
      <trkpt lat="43.37948" lon="-1.65181">
        <ele>5.4</ele>
        <time>2021-07-18T08:05:00Z</time>
      </trkpt>
      <trkpt lat="43.3795" lon="-1.65187">
        <ele>5.5</ele>
        <time>2021-07-18T08:05:01Z</time>
      </trkpt>
      <trkpt lat="43.37953" lon="-1.65195">
        <ele>5.5</ele>
        <time>2021-07-18T08:05:03Z</time>
      </trkpt>
      <trkpt lat="43.37955" lon="-1.652">
        <ele>5.6</ele>
        <time>2021-07-18T08:05:04Z</time>
      </trkpt>
      <trkpt lat="43.37956" lon="-1.65205">
        <ele>5.6</ele>
        <time>2021-07-18T08:05:05Z</time>
      </trkpt>
      <trkpt lat="43.37958" lon="-1.65212">
        <ele>5.6</ele>
        <time>2021-07-18T08:05:07Z</time>
      </trkpt>
      <trkpt lat="43.37961" lon="-1.65218">
        <ele>5.6</ele>
        <time>2021-07-18T08:05:08Z</time>
      </trkpt>
      <trkpt lat="43.37962" lon="-1.65224">
        <ele>5.6</ele>
        <time>2021-07-18T08:05:09Z</time>
      </trkpt>
      <trkpt lat="43.37964" lon="-1.65228">
        <ele>5.6</ele>
        <time>2021-07-18T08:05:10Z</time>
      </trkpt>
      <trkpt lat="43.37966" lon="-1.65235">
        <ele>5.6</ele>
        <time>2021-07-18T08:05:12Z</time>
      </trkpt>
      <trkpt lat="43.37968" lon="-1.6524">
        <ele>5.6</ele>
        <time>2021-07-18T08:05:13Z</time>
      </trkpt>
      <trkpt lat="43.3797" lon="-1.65246">
        <ele>5.6</ele>
        <time>2021-07-18T08:05:14Z</time>
      </trkpt>
      <trkpt lat="43.37972" lon="-1.65254">
        <ele>5.6</ele>
        <time>2021-07-18T08:05:16Z</time>
      </trkpt>
      <trkpt lat="43.37973" lon="-1.65261">
        <ele>5.6</ele>
        <time>2021-07-18T08:05:17Z</time>
      </trkpt>
      <trkpt lat="43.37975" lon="-1.65269">
        <ele>5.6</ele>
        <time>2021-07-18T08:05:19Z</time>
      </trkpt>
      <trkpt lat="43.37977" lon="-1.65277">
        <ele>5.6</ele>
        <time>2021-07-18T08:05:20Z</time>
      </trkpt>
      <trkpt lat="43.37978" lon="-1.65287">
        <ele>5.6</ele>
        <time>2021-07-18T08:05:22Z</time>
      </trkpt>
      <trkpt lat="43.37979" lon="-1.65293">
        <ele>5.5</ele>
        <time>2021-07-18T08:05:23Z</time>
      </trkpt>
      <trkpt lat="43.37979" lon="-1.653">
        <ele>5.5</ele>
        <time>2021-07-18T08:05:24Z</time>
      </trkpt>
      <trkpt lat="43.37979" lon="-1.65306">
        <ele>5.5</ele>
        <time>2021-07-18T08:05:25Z</time>
      </trkpt>
      <trkpt lat="43.37979" lon="-1.65312">
        <ele>5.5</ele>
        <time>2021-07-18T08:05:26Z</time>
      </trkpt>
      <trkpt lat="43.3798" lon="-1.65319">
        <ele>5.4</ele>
        <time>2021-07-18T08:05:27Z</time>
      </trkpt>
      <trkpt lat="43.3798" lon="-1.65325">
        <ele>5.3</ele>
        <time>2021-07-18T08:05:28Z</time>
      </trkpt>
      <trkpt lat="43.37979" lon="-1.65339">
        <ele>5.2</ele>
        <time>2021-07-18T08:05:30Z</time>
      </trkpt>
      <trkpt lat="43.37979" lon="-1.65352">
        <ele>5.1</ele>
        <time>2021-07-18T08:05:32Z</time>
      </trkpt>
      <trkpt lat="43.37979" lon="-1.65358">
        <ele>5</ele>
        <time>2021-07-18T08:05:33Z</time>
      </trkpt>
      <trkpt lat="43.37979" lon="-1.65365">
        <ele>5</ele>
        <time>2021-07-18T08:05:34Z</time>
      </trkpt>
      <trkpt lat="43.3798" lon="-1.65378">
        <ele>4.9</ele>
        <time>2021-07-18T08:05:36Z</time>
      </trkpt>
      <trkpt lat="43.37981" lon="-1.65385">
        <ele>4.8</ele>
        <time>2021-07-18T08:05:37Z</time>
      </trkpt>
      <trkpt lat="43.37983" lon="-1.65399">
        <ele>4.7</ele>
        <time>2021-07-18T08:05:39Z</time>
      </trkpt>
      <trkpt lat="43.37985" lon="-1.65405">
        <ele>4.7</ele>
        <time>2021-07-18T08:05:40Z</time>
      </trkpt>
      <trkpt lat="43.37987" lon="-1.65418">
        <ele>4.6</ele>
        <time>2021-07-18T08:05:42Z</time>
      </trkpt>
      <trkpt lat="43.37989" lon="-1.65425">
        <ele>4.6</ele>
        <time>2021-07-18T08:05:43Z</time>
      </trkpt>
      <trkpt lat="43.37993" lon="-1.65437">
        <ele>4.6</ele>
        <time>2021-07-18T08:05:45Z</time>
      </trkpt>
      <trkpt lat="43.37996" lon="-1.65442">
        <ele>4.6</ele>
        <time>2021-07-18T08:05:46Z</time>
      </trkpt>
      <trkpt lat="43.37998" lon="-1.65448">
        <ele>4.6</ele>
        <time>2021-07-18T08:05:47Z</time>
      </trkpt>
      <trkpt lat="43.38001" lon="-1.65454">
        <ele>4.6</ele>
        <time>2021-07-18T08:05:48Z</time>
      </trkpt>
      <trkpt lat="43.38003" lon="-1.6546">
        <ele>4.6</ele>
        <time>2021-07-18T08:05:49Z</time>
      </trkpt>
      <trkpt lat="43.38009" lon="-1.65471">
        <ele>4.7</ele>
        <time>2021-07-18T08:05:51Z</time>
      </trkpt>
      <trkpt lat="43.38012" lon="-1.65476">
        <ele>4.7</ele>
        <time>2021-07-18T08:05:52Z</time>
      </trkpt>
      <trkpt lat="43.38019" lon="-1.65484">
        <ele>4.7</ele>
        <time>2021-07-18T08:05:54Z</time>
      </trkpt>
      <trkpt lat="43.38026" lon="-1.65492">
        <ele>4.7</ele>
        <time>2021-07-18T08:05:56Z</time>
      </trkpt>
      <trkpt lat="43.38028" lon="-1.65496">
        <ele>4.7</ele>
        <time>2021-07-18T08:05:57Z</time>
      </trkpt>
      <trkpt lat="43.38031" lon="-1.65499">
        <ele>4.8</ele>
        <time>2021-07-18T08:05:58Z</time>
      </trkpt>
      <trkpt lat="43.38036" lon="-1.65508">
        <ele>4.8</ele>
        <time>2021-07-18T08:06:00Z</time>
      </trkpt>
      <trkpt lat="43.3804" lon="-1.65512">
        <ele>4.8</ele>
        <time>2021-07-18T08:06:01Z</time>
      </trkpt>
      <trkpt lat="43.38044" lon="-1.6552">
        <ele>4.8</ele>
        <time>2021-07-18T08:06:03Z</time>
      </trkpt>
      <trkpt lat="43.38046" lon="-1.65527">
        <ele>4.8</ele>
        <time>2021-07-18T08:06:05Z</time>
      </trkpt>
      <trkpt lat="43.38047" lon="-1.6553">
        <ele>4.8</ele>
        <time>2021-07-18T08:06:06Z</time>
      </trkpt>
      <trkpt lat="43.38053" lon="-1.6554">
        <ele>4.8</ele>
        <time>2021-07-18T08:06:08Z</time>
      </trkpt>
      <trkpt lat="43.38058" lon="-1.6555">
        <ele>4.8</ele>
        <time>2021-07-18T08:06:09Z</time>
      </trkpt>
      <trkpt lat="43.38061" lon="-1.65552">
        <ele>4.8</ele>
        <time>2021-07-18T08:06:10Z</time>
      </trkpt>
      <trkpt lat="43.38064" lon="-1.65558">
        <ele>4.8</ele>
        <time>2021-07-18T08:06:12Z</time>
      </trkpt>
      <trkpt lat="43.38067" lon="-1.65567">
        <ele>4.8</ele>
        <time>2021-07-18T08:06:13Z</time>
      </trkpt>
      <trkpt lat="43.38069" lon="-1.65574">
        <ele>4.8</ele>
        <time>2021-07-18T08:06:14Z</time>
      </trkpt>
      <trkpt lat="43.38071" lon="-1.65582">
        <ele>4.9</ele>
        <time>2021-07-18T08:06:15Z</time>
      </trkpt>
      <trkpt lat="43.38075" lon="-1.65592">
        <ele>4.9</ele>
        <time>2021-07-18T08:06:17Z</time>
      </trkpt>
      <trkpt lat="43.38077" lon="-1.65599">
        <ele>5</ele>
        <time>2021-07-18T08:06:18Z</time>
      </trkpt>
      <trkpt lat="43.3808" lon="-1.65605">
        <ele>5</ele>
        <time>2021-07-18T08:06:19Z</time>
      </trkpt>
      <trkpt lat="43.38083" lon="-1.65614">
        <ele>5.1</ele>
        <time>2021-07-18T08:06:21Z</time>
      </trkpt>
      <trkpt lat="43.38085" lon="-1.65621">
        <ele>5.1</ele>
        <time>2021-07-18T08:06:23Z</time>
      </trkpt>
      <trkpt lat="43.38088" lon="-1.65628">
        <ele>5.2</ele>
        <time>2021-07-18T08:06:24Z</time>
      </trkpt>
      <trkpt lat="43.3809" lon="-1.65634">
        <ele>5.2</ele>
        <time>2021-07-18T08:06:25Z</time>
      </trkpt>
      <trkpt lat="43.38091" lon="-1.65641">
        <ele>5.2</ele>
        <time>2021-07-18T08:06:26Z</time>
      </trkpt>
      <trkpt lat="43.38093" lon="-1.6565">
        <ele>5.2</ele>
        <time>2021-07-18T08:06:28Z</time>
      </trkpt>
      <trkpt lat="43.38094" lon="-1.65657">
        <ele>5.3</ele>
        <time>2021-07-18T08:06:30Z</time>
      </trkpt>
      <trkpt lat="43.38095" lon="-1.65666">
        <ele>5.3</ele>
        <time>2021-07-18T08:06:31Z</time>
      </trkpt>
      <trkpt lat="43.38094" lon="-1.65675">
        <ele>5.3</ele>
        <time>2021-07-18T08:06:33Z</time>
      </trkpt>
      <trkpt lat="43.38094" lon="-1.65683">
        <ele>5.2</ele>
        <time>2021-07-18T08:06:34Z</time>
      </trkpt>
      <trkpt lat="43.38094" lon="-1.65692">
        <ele>5.2</ele>
        <time>2021-07-18T08:06:36Z</time>
      </trkpt>
      <trkpt lat="43.38094" lon="-1.65698">
        <ele>5.2</ele>
        <time>2021-07-18T08:06:37Z</time>
      </trkpt>
      <trkpt lat="43.38093" lon="-1.65706">
        <ele>5.2</ele>
        <time>2021-07-18T08:06:38Z</time>
      </trkpt>
      <trkpt lat="43.38092" lon="-1.65712">
        <ele>5.2</ele>
        <time>2021-07-18T08:06:39Z</time>
      </trkpt>
      <trkpt lat="43.38091" lon="-1.65718">
        <ele>5.2</ele>
        <time>2021-07-18T08:06:40Z</time>
      </trkpt>
      <trkpt lat="43.3809" lon="-1.6573">
        <ele>5.2</ele>
        <time>2021-07-18T08:06:42Z</time>
      </trkpt>
      <trkpt lat="43.38089" lon="-1.65741">
        <ele>5.2</ele>
        <time>2021-07-18T08:06:44Z</time>
      </trkpt>
      <trkpt lat="43.38089" lon="-1.65747">
        <ele>5.2</ele>
        <time>2021-07-18T08:06:45Z</time>
      </trkpt>
      <trkpt lat="43.3809" lon="-1.65754">
        <ele>5.2</ele>
        <time>2021-07-18T08:06:46Z</time>
      </trkpt>
      <trkpt lat="43.3809" lon="-1.65759">
        <ele>5.2</ele>
        <time>2021-07-18T08:06:47Z</time>
      </trkpt>
      <trkpt lat="43.3809" lon="-1.65765">
        <ele>5.2</ele>
        <time>2021-07-18T08:06:48Z</time>
      </trkpt>
      <trkpt lat="43.3809" lon="-1.65771">
        <ele>5.2</ele>
        <time>2021-07-18T08:06:49Z</time>
      </trkpt>
      <trkpt lat="43.38092" lon="-1.6578">
        <ele>5.2</ele>
        <time>2021-07-18T08:06:51Z</time>
      </trkpt>
      <trkpt lat="43.38092" lon="-1.65786">
        <ele>5.2</ele>
        <time>2021-07-18T08:06:52Z</time>
      </trkpt>
      <trkpt lat="43.38094" lon="-1.65792">
        <ele>5.2</ele>
        <time>2021-07-18T08:06:53Z</time>
      </trkpt>
      <trkpt lat="43.38097" lon="-1.65804">
        <ele>5.2</ele>
        <time>2021-07-18T08:06:55Z</time>
      </trkpt>
      <trkpt lat="43.38099" lon="-1.65813">
        <ele>5.2</ele>
        <time>2021-07-18T08:06:57Z</time>
      </trkpt>
      <trkpt lat="43.38101" lon="-1.65819">
        <ele>5.3</ele>
        <time>2021-07-18T08:06:58Z</time>
      </trkpt>
      <trkpt lat="43.38103" lon="-1.65824">
        <ele>5.3</ele>
        <time>2021-07-18T08:06:59Z</time>
      </trkpt>
      <trkpt lat="43.38104" lon="-1.6583">
        <ele>5.3</ele>
        <time>2021-07-18T08:07:00Z</time>
      </trkpt>
      <trkpt lat="43.38107" lon="-1.65838">
        <ele>5.3</ele>
        <time>2021-07-18T08:07:02Z</time>
      </trkpt>
      <trkpt lat="43.38109" lon="-1.65844">
        <ele>5.4</ele>
        <time>2021-07-18T08:07:03Z</time>
      </trkpt>
      <trkpt lat="43.38111" lon="-1.65851">
        <ele>5.4</ele>
        <time>2021-07-18T08:07:04Z</time>
      </trkpt>
      <trkpt lat="43.38113" lon="-1.65858">
        <ele>5.4</ele>
        <time>2021-07-18T08:07:06Z</time>
      </trkpt>
      <trkpt lat="43.38115" lon="-1.65865">
        <ele>5.4</ele>
        <time>2021-07-18T08:07:07Z</time>
      </trkpt>
      <trkpt lat="43.38116" lon="-1.65872">
        <ele>5.4</ele>
        <time>2021-07-18T08:07:08Z</time>
      </trkpt>
      <trkpt lat="43.38118" lon="-1.65881">
        <ele>5.4</ele>
        <time>2021-07-18T08:07:10Z</time>
      </trkpt>
      <trkpt lat="43.38119" lon="-1.65888">
        <ele>5.3</ele>
        <time>2021-07-18T08:07:11Z</time>
      </trkpt>
      <trkpt lat="43.38119" lon="-1.65896">
        <ele>5.3</ele>
        <time>2021-07-18T08:07:13Z</time>
      </trkpt>
      <trkpt lat="43.38119" lon="-1.65905">
        <ele>5.3</ele>
        <time>2021-07-18T08:07:14Z</time>
      </trkpt>
      <trkpt lat="43.38119" lon="-1.65913">
        <ele>5.3</ele>
        <time>2021-07-18T08:07:15Z</time>
      </trkpt>
      <trkpt lat="43.38119" lon="-1.65923">
        <ele>5.3</ele>
        <time>2021-07-18T08:07:17Z</time>
      </trkpt>
      <trkpt lat="43.38118" lon="-1.6593">
        <ele>5.3</ele>
        <time>2021-07-18T08:07:18Z</time>
      </trkpt>
      <trkpt lat="43.38118" lon="-1.65936">
        <ele>5.3</ele>
        <time>2021-07-18T08:07:19Z</time>
      </trkpt>
      <trkpt lat="43.38118" lon="-1.65945">
        <ele>5.2</ele>
        <time>2021-07-18T08:07:21Z</time>
      </trkpt>
      <trkpt lat="43.38117" lon="-1.65952">
        <ele>5.2</ele>
        <time>2021-07-18T08:07:22Z</time>
      </trkpt>
      <trkpt lat="43.38117" lon="-1.65961">
        <ele>5.2</ele>
        <time>2021-07-18T08:07:23Z</time>
      </trkpt>
      <trkpt lat="43.38117" lon="-1.6597">
        <ele>5.2</ele>
        <time>2021-07-18T08:07:25Z</time>
      </trkpt>
      <trkpt lat="43.38117" lon="-1.65979">
        <ele>5.2</ele>
        <time>2021-07-18T08:07:26Z</time>
      </trkpt>
      <trkpt lat="43.38116" lon="-1.65986">
        <ele>5.1</ele>
        <time>2021-07-18T08:07:27Z</time>
      </trkpt>
      <trkpt lat="43.38116" lon="-1.65992">
        <ele>5.1</ele>
        <time>2021-07-18T08:07:28Z</time>
      </trkpt>
      <trkpt lat="43.38118" lon="-1.66005">
        <ele>5</ele>
        <time>2021-07-18T08:07:30Z</time>
      </trkpt>
      <trkpt lat="43.3812" lon="-1.66013">
        <ele>4.9</ele>
        <time>2021-07-18T08:07:32Z</time>
      </trkpt>
      <trkpt lat="43.38121" lon="-1.66016">
        <ele>4.9</ele>
        <time>2021-07-18T08:07:33Z</time>
      </trkpt>
      <trkpt lat="43.38125" lon="-1.66025">
        <ele>4.9</ele>
        <time>2021-07-18T08:07:35Z</time>
      </trkpt>
      <trkpt lat="43.3813" lon="-1.66033">
        <ele>4.9</ele>
        <time>2021-07-18T08:07:36Z</time>
      </trkpt>
      <trkpt lat="43.38132" lon="-1.66038">
        <ele>4.9</ele>
        <time>2021-07-18T08:07:37Z</time>
      </trkpt>
      <trkpt lat="43.38137" lon="-1.66046">
        <ele>5</ele>
        <time>2021-07-18T08:07:39Z</time>
      </trkpt>
      <trkpt lat="43.3814" lon="-1.66051">
        <ele>5</ele>
        <time>2021-07-18T08:07:40Z</time>
      </trkpt>
      <trkpt lat="43.38142" lon="-1.66056">
        <ele>5</ele>
        <time>2021-07-18T08:07:41Z</time>
      </trkpt>
      <trkpt lat="43.38145" lon="-1.66065">
        <ele>5</ele>
        <time>2021-07-18T08:07:43Z</time>
      </trkpt>
      <trkpt lat="43.38148" lon="-1.6607">
        <ele>5</ele>
        <time>2021-07-18T08:07:44Z</time>
      </trkpt>
      <trkpt lat="43.38151" lon="-1.66077">
        <ele>5</ele>
        <time>2021-07-18T08:07:46Z</time>
      </trkpt>
      <trkpt lat="43.38153" lon="-1.66081">
        <ele>5</ele>
        <time>2021-07-18T08:07:47Z</time>
      </trkpt>
      <trkpt lat="43.38155" lon="-1.66086">
        <ele>5</ele>
        <time>2021-07-18T08:07:48Z</time>
      </trkpt>
      <trkpt lat="43.38157" lon="-1.66092">
        <ele>5</ele>
        <time>2021-07-18T08:07:49Z</time>
      </trkpt>
      <trkpt lat="43.38159" lon="-1.66099">
        <ele>5</ele>
        <time>2021-07-18T08:07:51Z</time>
      </trkpt>
      <trkpt lat="43.38163" lon="-1.66104">
        <ele>5</ele>
        <time>2021-07-18T08:07:52Z</time>
      </trkpt>
      <trkpt lat="43.38167" lon="-1.66112">
        <ele>5</ele>
        <time>2021-07-18T08:07:54Z</time>
      </trkpt>
      <trkpt lat="43.38171" lon="-1.6612">
        <ele>5</ele>
        <time>2021-07-18T08:07:56Z</time>
      </trkpt>
      <trkpt lat="43.38174" lon="-1.66124">
        <ele>5</ele>
        <time>2021-07-18T08:07:57Z</time>
      </trkpt>
      <trkpt lat="43.38178" lon="-1.66131">
        <ele>5</ele>
        <time>2021-07-18T08:07:59Z</time>
      </trkpt>
      <trkpt lat="43.38182" lon="-1.66137">
        <ele>5</ele>
        <time>2021-07-18T08:08:00Z</time>
      </trkpt>
      <trkpt lat="43.38185" lon="-1.66142">
        <ele>5</ele>
        <time>2021-07-18T08:08:01Z</time>
      </trkpt>
      <trkpt lat="43.38188" lon="-1.66146">
        <ele>5</ele>
        <time>2021-07-18T08:08:02Z</time>
      </trkpt>
      <trkpt lat="43.38192" lon="-1.66152">
        <ele>5</ele>
        <time>2021-07-18T08:08:04Z</time>
      </trkpt>
      <trkpt lat="43.38196" lon="-1.66158">
        <ele>5</ele>
        <time>2021-07-18T08:08:05Z</time>
      </trkpt>
      <trkpt lat="43.38199" lon="-1.66163">
        <ele>5</ele>
        <time>2021-07-18T08:08:06Z</time>
      </trkpt>
      <trkpt lat="43.38203" lon="-1.66169">
        <ele>5</ele>
        <time>2021-07-18T08:08:08Z</time>
      </trkpt>
      <trkpt lat="43.38206" lon="-1.66173">
        <ele>5</ele>
        <time>2021-07-18T08:08:09Z</time>
      </trkpt>
      <trkpt lat="43.3821" lon="-1.66178">
        <ele>5</ele>
        <time>2021-07-18T08:08:10Z</time>
      </trkpt>
      <trkpt lat="43.38214" lon="-1.66183">
        <ele>5</ele>
        <time>2021-07-18T08:08:11Z</time>
      </trkpt>
      <trkpt lat="43.38216" lon="-1.66188">
        <ele>5.1</ele>
        <time>2021-07-18T08:08:13Z</time>
      </trkpt>
      <trkpt lat="43.3822" lon="-1.66194">
        <ele>5.1</ele>
        <time>2021-07-18T08:08:14Z</time>
      </trkpt>
      <trkpt lat="43.38223" lon="-1.662">
        <ele>5.1</ele>
        <time>2021-07-18T08:08:15Z</time>
      </trkpt>
      <trkpt lat="43.38228" lon="-1.66207">
        <ele>5.1</ele>
        <time>2021-07-18T08:08:17Z</time>
      </trkpt>
      <trkpt lat="43.38231" lon="-1.66213">
        <ele>5.1</ele>
        <time>2021-07-18T08:08:18Z</time>
      </trkpt>
      <trkpt lat="43.38235" lon="-1.6622">
        <ele>5.1</ele>
        <time>2021-07-18T08:08:20Z</time>
      </trkpt>
      <trkpt lat="43.38239" lon="-1.66226">
        <ele>5.1</ele>
        <time>2021-07-18T08:08:21Z</time>
      </trkpt>
      <trkpt lat="43.38242" lon="-1.66231">
        <ele>5.1</ele>
        <time>2021-07-18T08:08:22Z</time>
      </trkpt>
      <trkpt lat="43.38245" lon="-1.66237">
        <ele>5.1</ele>
        <time>2021-07-18T08:08:24Z</time>
      </trkpt>
      <trkpt lat="43.38249" lon="-1.66244">
        <ele>5.1</ele>
        <time>2021-07-18T08:08:25Z</time>
      </trkpt>
      <trkpt lat="43.38252" lon="-1.66249">
        <ele>5.1</ele>
        <time>2021-07-18T08:08:26Z</time>
      </trkpt>
      <trkpt lat="43.38256" lon="-1.66255">
        <ele>5.1</ele>
        <time>2021-07-18T08:08:28Z</time>
      </trkpt>
      <trkpt lat="43.3826" lon="-1.66262">
        <ele>5.1</ele>
        <time>2021-07-18T08:08:29Z</time>
      </trkpt>
      <trkpt lat="43.38262" lon="-1.66266">
        <ele>5.1</ele>
        <time>2021-07-18T08:08:30Z</time>
      </trkpt>
      <trkpt lat="43.38265" lon="-1.66271">
        <ele>5.1</ele>
        <time>2021-07-18T08:08:31Z</time>
      </trkpt>
      <trkpt lat="43.38269" lon="-1.66278">
        <ele>5.1</ele>
        <time>2021-07-18T08:08:33Z</time>
      </trkpt>
      <trkpt lat="43.38272" lon="-1.66283">
        <ele>5.1</ele>
        <time>2021-07-18T08:08:34Z</time>
      </trkpt>
      <trkpt lat="43.38275" lon="-1.66288">
        <ele>5.1</ele>
        <time>2021-07-18T08:08:35Z</time>
      </trkpt>
      <trkpt lat="43.38277" lon="-1.66293">
        <ele>5.1</ele>
        <time>2021-07-18T08:08:36Z</time>
      </trkpt>
      <trkpt lat="43.38281" lon="-1.66298">
        <ele>5.1</ele>
        <time>2021-07-18T08:08:37Z</time>
      </trkpt>
      <trkpt lat="43.38285" lon="-1.66306">
        <ele>5.1</ele>
        <time>2021-07-18T08:08:39Z</time>
      </trkpt>
      <trkpt lat="43.38287" lon="-1.6631">
        <ele>5.1</ele>
        <time>2021-07-18T08:08:40Z</time>
      </trkpt>
      <trkpt lat="43.38291" lon="-1.66317">
        <ele>5.1</ele>
        <time>2021-07-18T08:08:41Z</time>
      </trkpt>
      <trkpt lat="43.38293" lon="-1.66322">
        <ele>5.1</ele>
        <time>2021-07-18T08:08:43Z</time>
      </trkpt>
      <trkpt lat="43.38296" lon="-1.66328">
        <ele>5.1</ele>
        <time>2021-07-18T08:08:44Z</time>
      </trkpt>
      <trkpt lat="43.38298" lon="-1.66334">
        <ele>5.1</ele>
        <time>2021-07-18T08:08:45Z</time>
      </trkpt>
      <trkpt lat="43.38301" lon="-1.66342">
        <ele>5</ele>
        <time>2021-07-18T08:08:47Z</time>
      </trkpt>
      <trkpt lat="43.38303" lon="-1.66347">
        <ele>5</ele>
        <time>2021-07-18T08:08:48Z</time>
      </trkpt>
      <trkpt lat="43.38306" lon="-1.66352">
        <ele>5</ele>
        <time>2021-07-18T08:08:49Z</time>
      </trkpt>
      <trkpt lat="43.38309" lon="-1.66357">
        <ele>5</ele>
        <time>2021-07-18T08:08:50Z</time>
      </trkpt>
      <trkpt lat="43.38313" lon="-1.66359">
        <ele>5</ele>
        <time>2021-07-18T08:08:51Z</time>
      </trkpt>
      <trkpt lat="43.38317" lon="-1.66361">
        <ele>5</ele>
        <time>2021-07-18T08:08:52Z</time>
      </trkpt>
      <trkpt lat="43.38325" lon="-1.66364">
        <ele>5</ele>
        <time>2021-07-18T08:08:54Z</time>
      </trkpt>
      <trkpt lat="43.38334" lon="-1.66367">
        <ele>5</ele>
        <time>2021-07-18T08:08:56Z</time>
      </trkpt>
      <trkpt lat="43.38338" lon="-1.66369">
        <ele>5</ele>
        <time>2021-07-18T08:08:57Z</time>
      </trkpt>
      <trkpt lat="43.38345" lon="-1.66372">
        <ele>5</ele>
        <time>2021-07-18T08:08:59Z</time>
      </trkpt>
      <trkpt lat="43.38351" lon="-1.66373">
        <ele>5</ele>
        <time>2021-07-18T08:09:00Z</time>
      </trkpt>
      <trkpt lat="43.38358" lon="-1.66375">
        <ele>4.9</ele>
        <time>2021-07-18T08:09:02Z</time>
      </trkpt>
      <trkpt lat="43.38363" lon="-1.66376">
        <ele>4.9</ele>
        <time>2021-07-18T08:09:03Z</time>
      </trkpt>
      <trkpt lat="43.3837" lon="-1.66377">
        <ele>4.9</ele>
        <time>2021-07-18T08:09:04Z</time>
      </trkpt>
      <trkpt lat="43.38377" lon="-1.66378">
        <ele>4.8</ele>
        <time>2021-07-18T08:09:06Z</time>
      </trkpt>
      <trkpt lat="43.3838" lon="-1.66381">
        <ele>4.8</ele>
        <time>2021-07-18T08:09:07Z</time>
      </trkpt>
      <trkpt lat="43.38389" lon="-1.66382">
        <ele>4.8</ele>
        <time>2021-07-18T08:09:09Z</time>
      </trkpt>
      <trkpt lat="43.38394" lon="-1.66384">
        <ele>4.8</ele>
        <time>2021-07-18T08:09:10Z</time>
      </trkpt>
      <trkpt lat="43.38403" lon="-1.66386">
        <ele>4.8</ele>
        <time>2021-07-18T08:09:12Z</time>
      </trkpt>
      <trkpt lat="43.38408" lon="-1.66388">
        <ele>4.8</ele>
        <time>2021-07-18T08:09:13Z</time>
      </trkpt>
      <trkpt lat="43.38415" lon="-1.6639">
        <ele>4.8</ele>
        <time>2021-07-18T08:09:15Z</time>
      </trkpt>
      <trkpt lat="43.3842" lon="-1.66391">
        <ele>4.8</ele>
        <time>2021-07-18T08:09:16Z</time>
      </trkpt>
      <trkpt lat="43.38425" lon="-1.66391">
        <ele>4.8</ele>
        <time>2021-07-18T08:09:17Z</time>
      </trkpt>
      <trkpt lat="43.38431" lon="-1.66392">
        <ele>4.8</ele>
        <time>2021-07-18T08:09:19Z</time>
      </trkpt>
      <trkpt lat="43.38436" lon="-1.66394">
        <ele>4.7</ele>
        <time>2021-07-18T08:09:20Z</time>
      </trkpt>
      <trkpt lat="43.38442" lon="-1.66395">
        <ele>4.7</ele>
        <time>2021-07-18T08:09:22Z</time>
      </trkpt>
      <trkpt lat="43.38447" lon="-1.66396">
        <ele>4.7</ele>
        <time>2021-07-18T08:09:23Z</time>
      </trkpt>
      <trkpt lat="43.38453" lon="-1.66397">
        <ele>4.7</ele>
        <time>2021-07-18T08:09:25Z</time>
      </trkpt>
      <trkpt lat="43.38458" lon="-1.66398">
        <ele>4.7</ele>
        <time>2021-07-18T08:09:26Z</time>
      </trkpt>
      <trkpt lat="43.38462" lon="-1.66399">
        <ele>4.7</ele>
        <time>2021-07-18T08:09:27Z</time>
      </trkpt>
      <trkpt lat="43.38465" lon="-1.66401">
        <ele>4.8</ele>
        <time>2021-07-18T08:09:28Z</time>
      </trkpt>
      <trkpt lat="43.38469" lon="-1.66404">
        <ele>4.8</ele>
        <time>2021-07-18T08:09:30Z</time>
      </trkpt>
      <trkpt lat="43.3847" lon="-1.66406">
        <ele>4.8</ele>
        <time>2021-07-18T08:09:31Z</time>
      </trkpt>
      <trkpt lat="43.38473" lon="-1.66407">
        <ele>4.8</ele>
        <time>2021-07-18T08:09:33Z</time>
      </trkpt>
      <trkpt lat="43.38473" lon="-1.66407">
        <ele>4.8</ele>
        <time>2021-07-18T08:09:34Z</time>
      </trkpt>
      <trkpt lat="43.38473" lon="-1.66407">
        <ele>4.8</ele>
        <time>2021-07-18T08:09:35Z</time>
      </trkpt>
      <trkpt lat="43.38474" lon="-1.66407">
        <ele>4.8</ele>
        <time>2021-07-18T08:09:37Z</time>
      </trkpt>
      <trkpt lat="43.38475" lon="-1.66407">
        <ele>4.8</ele>
        <time>2021-07-18T08:09:38Z</time>
      </trkpt>
      <trkpt lat="43.38479" lon="-1.66409">
        <ele>4.8</ele>
        <time>2021-07-18T08:09:40Z</time>
      </trkpt>
      <trkpt lat="43.3848" lon="-1.66409">
        <ele>4.8</ele>
        <time>2021-07-18T08:09:41Z</time>
      </trkpt>
      <trkpt lat="43.38482" lon="-1.66411">
        <ele>4.8</ele>
        <time>2021-07-18T08:09:42Z</time>
      </trkpt>
      <trkpt lat="43.38484" lon="-1.66413">
        <ele>4.8</ele>
        <time>2021-07-18T08:09:44Z</time>
      </trkpt>
      <trkpt lat="43.38487" lon="-1.66415">
        <ele>4.8</ele>
        <time>2021-07-18T08:09:45Z</time>
      </trkpt>
      <trkpt lat="43.38488" lon="-1.66416">
        <ele>4.8</ele>
        <time>2021-07-18T08:09:46Z</time>
      </trkpt>
      <trkpt lat="43.38489" lon="-1.66423">
        <ele>4.8</ele>
        <time>2021-07-18T08:09:48Z</time>
      </trkpt>
      <trkpt lat="43.38487" lon="-1.66429">
        <ele>4.9</ele>
        <time>2021-07-18T08:09:50Z</time>
      </trkpt>
      <trkpt lat="43.38487" lon="-1.66434">
        <ele>5</ele>
        <time>2021-07-18T08:09:51Z</time>
      </trkpt>
      <trkpt lat="43.38486" lon="-1.66437">
        <ele>5</ele>
        <time>2021-07-18T08:09:52Z</time>
      </trkpt>
      <trkpt lat="43.38484" lon="-1.66443">
        <ele>5.1</ele>
        <time>2021-07-18T08:09:54Z</time>
      </trkpt>
      <trkpt lat="43.38483" lon="-1.66445">
        <ele>5.1</ele>
        <time>2021-07-18T08:09:55Z</time>
      </trkpt>
      <trkpt lat="43.38483" lon="-1.66449">
        <ele>5.1</ele>
        <time>2021-07-18T08:09:57Z</time>
      </trkpt>
      <trkpt lat="43.38482" lon="-1.66451">
        <ele>5.1</ele>
        <time>2021-07-18T08:09:58Z</time>
      </trkpt>
      <trkpt lat="43.38481" lon="-1.66455">
        <ele>5.2</ele>
        <time>2021-07-18T08:10:00Z</time>
      </trkpt>
      <trkpt lat="43.38481" lon="-1.66458">
        <ele>5.2</ele>
        <time>2021-07-18T08:10:01Z</time>
      </trkpt>
      <trkpt lat="43.38479" lon="-1.66464">
        <ele>5.2</ele>
        <time>2021-07-18T08:10:03Z</time>
      </trkpt>
      <trkpt lat="43.38479" lon="-1.66467">
        <ele>5.2</ele>
        <time>2021-07-18T08:10:04Z</time>
      </trkpt>
      <trkpt lat="43.38477" lon="-1.66471">
        <ele>5.2</ele>
        <time>2021-07-18T08:10:06Z</time>
      </trkpt>
      <trkpt lat="43.38476" lon="-1.66475">
        <ele>5.2</ele>
        <time>2021-07-18T08:10:08Z</time>
      </trkpt>
      <trkpt lat="43.38475" lon="-1.66479">
        <ele>5.2</ele>
        <time>2021-07-18T08:10:10Z</time>
      </trkpt>
      <trkpt lat="43.38472" lon="-1.66486">
        <ele>5.1</ele>
        <time>2021-07-18T08:10:12Z</time>
      </trkpt>
      <trkpt lat="43.38469" lon="-1.66495">
        <ele>5.1</ele>
        <time>2021-07-18T08:10:14Z</time>
      </trkpt>
      <trkpt lat="43.38467" lon="-1.66499">
        <ele>5.1</ele>
        <time>2021-07-18T08:10:15Z</time>
      </trkpt>
      <trkpt lat="43.38466" lon="-1.66502">
        <ele>5.1</ele>
        <time>2021-07-18T08:10:16Z</time>
      </trkpt>
      <trkpt lat="43.38464" lon="-1.66508">
        <ele>5</ele>
        <time>2021-07-18T08:10:18Z</time>
      </trkpt>
      <trkpt lat="43.38462" lon="-1.66511">
        <ele>5</ele>
        <time>2021-07-18T08:10:20Z</time>
      </trkpt>
      <trkpt lat="43.38461" lon="-1.66514">
        <ele>5</ele>
        <time>2021-07-18T08:10:22Z</time>
      </trkpt>
      <trkpt lat="43.3846" lon="-1.66517">
        <ele>5</ele>
        <time>2021-07-18T08:10:24Z</time>
      </trkpt>
      <trkpt lat="43.38459" lon="-1.6652">
        <ele>5</ele>
        <time>2021-07-18T08:10:26Z</time>
      </trkpt>
      <trkpt lat="43.38458" lon="-1.66523">
        <ele>5</ele>
        <time>2021-07-18T08:10:28Z</time>
      </trkpt>
      <trkpt lat="43.38458" lon="-1.66524">
        <ele>5</ele>
        <time>2021-07-18T08:10:29Z</time>
      </trkpt>
      <trkpt lat="43.38458" lon="-1.66525">
        <ele>5</ele>
        <time>2021-07-18T08:10:30Z</time>
      </trkpt>
      <trkpt lat="43.38461" lon="-1.66529">
        <ele>5</ele>
        <time>2021-07-18T08:10:32Z</time>
      </trkpt>
      <trkpt lat="43.38464" lon="-1.66533">
        <ele>5</ele>
        <time>2021-07-18T08:10:34Z</time>
      </trkpt>
      <trkpt lat="43.38467" lon="-1.66535">
        <ele>5</ele>
        <time>2021-07-18T08:10:35Z</time>
      </trkpt>
      <trkpt lat="43.3847" lon="-1.66537">
        <ele>5.1</ele>
        <time>2021-07-18T08:10:36Z</time>
      </trkpt>
      <trkpt lat="43.38473" lon="-1.66543">
        <ele>5.1</ele>
        <time>2021-07-18T08:10:38Z</time>
      </trkpt>
      <trkpt lat="43.38472" lon="-1.66548">
        <ele>5.1</ele>
        <time>2021-07-18T08:10:39Z</time>
      </trkpt>
      <trkpt lat="43.38472" lon="-1.66549">
        <ele>5.1</ele>
        <time>2021-07-18T08:10:40Z</time>
      </trkpt>
      <trkpt lat="43.38472" lon="-1.66551">
        <ele>5.1</ele>
        <time>2021-07-18T08:10:42Z</time>
      </trkpt>
      <trkpt lat="43.38472" lon="-1.66553">
        <ele>5.1</ele>
        <time>2021-07-18T08:10:43Z</time>
      </trkpt>
      <trkpt lat="43.38475" lon="-1.66555">
        <ele>5.1</ele>
        <time>2021-07-18T08:10:44Z</time>
      </trkpt>
      <trkpt lat="43.38479" lon="-1.6656">
        <ele>5.1</ele>
        <time>2021-07-18T08:10:46Z</time>
      </trkpt>
      <trkpt lat="43.38484" lon="-1.66565">
        <ele>5.2</ele>
        <time>2021-07-18T08:10:48Z</time>
      </trkpt>
      <trkpt lat="43.38485" lon="-1.66568">
        <ele>5.2</ele>
        <time>2021-07-18T08:10:49Z</time>
      </trkpt>
      <trkpt lat="43.38485" lon="-1.66573">
        <ele>5.2</ele>
        <time>2021-07-18T08:10:50Z</time>
      </trkpt>
      <trkpt lat="43.38483" lon="-1.66578">
        <ele>5.2</ele>
        <time>2021-07-18T08:10:52Z</time>
      </trkpt>
      <trkpt lat="43.3848" lon="-1.66582">
        <ele>5.2</ele>
        <time>2021-07-18T08:10:53Z</time>
      </trkpt>
      <trkpt lat="43.38477" lon="-1.66586">
        <ele>5.2</ele>
        <time>2021-07-18T08:10:54Z</time>
      </trkpt>
      <trkpt lat="43.38474" lon="-1.66592">
        <ele>5.3</ele>
        <time>2021-07-18T08:10:56Z</time>
      </trkpt>
      <trkpt lat="43.38475" lon="-1.66596">
        <ele>5.3</ele>
        <time>2021-07-18T08:10:57Z</time>
      </trkpt>
      <trkpt lat="43.38478" lon="-1.66599">
        <ele>5.3</ele>
        <time>2021-07-18T08:10:59Z</time>
      </trkpt>
      <trkpt lat="43.38478" lon="-1.66601">
        <ele>5.3</ele>
        <time>2021-07-18T08:11:00Z</time>
      </trkpt>
      <trkpt lat="43.38475" lon="-1.66604">
        <ele>5.3</ele>
        <time>2021-07-18T08:11:02Z</time>
      </trkpt>
      <trkpt lat="43.38475" lon="-1.6661">
        <ele>5.3</ele>
        <time>2021-07-18T08:11:04Z</time>
      </trkpt>
      <trkpt lat="43.38474" lon="-1.66614">
        <ele>5.5</ele>
        <time>2021-07-18T08:11:05Z</time>
      </trkpt>
      <trkpt lat="43.38472" lon="-1.66618">
        <ele>5.5</ele>
        <time>2021-07-18T08:11:06Z</time>
      </trkpt>
      <trkpt lat="43.38469" lon="-1.66624">
        <ele>5.5</ele>
        <time>2021-07-18T08:11:08Z</time>
      </trkpt>
      <trkpt lat="43.38467" lon="-1.66628">
        <ele>5.8</ele>
        <time>2021-07-18T08:11:09Z</time>
      </trkpt>
      <trkpt lat="43.38465" lon="-1.66635">
        <ele>5.8</ele>
        <time>2021-07-18T08:11:11Z</time>
      </trkpt>
      <trkpt lat="43.38464" lon="-1.66641">
        <ele>5.8</ele>
        <time>2021-07-18T08:11:12Z</time>
      </trkpt>
      <trkpt lat="43.38464" lon="-1.66645">
        <ele>5.8</ele>
        <time>2021-07-18T08:11:13Z</time>
      </trkpt>
      <trkpt lat="43.38461" lon="-1.66651">
        <ele>5.8</ele>
        <time>2021-07-18T08:11:15Z</time>
      </trkpt>
      <trkpt lat="43.38458" lon="-1.66654">
        <ele>5.8</ele>
        <time>2021-07-18T08:11:16Z</time>
      </trkpt>
      <trkpt lat="43.38455" lon="-1.66656">
        <ele>5.8</ele>
        <time>2021-07-18T08:11:17Z</time>
      </trkpt>
      <trkpt lat="43.38452" lon="-1.66657">
        <ele>5.7</ele>
        <time>2021-07-18T08:11:18Z</time>
      </trkpt>
      <trkpt lat="43.38446" lon="-1.66659">
        <ele>5.7</ele>
        <time>2021-07-18T08:11:20Z</time>
      </trkpt>
      <trkpt lat="43.38443" lon="-1.66661">
        <ele>5.7</ele>
        <time>2021-07-18T08:11:21Z</time>
      </trkpt>
      <trkpt lat="43.38442" lon="-1.66664">
        <ele>5.7</ele>
        <time>2021-07-18T08:11:22Z</time>
      </trkpt>
      <trkpt lat="43.38441" lon="-1.66672">
        <ele>5.6</ele>
        <time>2021-07-18T08:11:24Z</time>
      </trkpt>
      <trkpt lat="43.38443" lon="-1.66675">
        <ele>5.6</ele>
        <time>2021-07-18T08:11:25Z</time>
      </trkpt>
      <trkpt lat="43.38448" lon="-1.66681">
        <ele>5.6</ele>
        <time>2021-07-18T08:11:27Z</time>
      </trkpt>
      <trkpt lat="43.3845" lon="-1.66685">
        <ele>5.5</ele>
        <time>2021-07-18T08:11:28Z</time>
      </trkpt>
      <trkpt lat="43.38454" lon="-1.66691">
        <ele>5.5</ele>
        <time>2021-07-18T08:11:30Z</time>
      </trkpt>
      <trkpt lat="43.38458" lon="-1.66698">
        <ele>5.5</ele>
        <time>2021-07-18T08:11:32Z</time>
      </trkpt>
      <trkpt lat="43.38463" lon="-1.66697">
        <ele>5.4</ele>
        <time>2021-07-18T08:11:34Z</time>
      </trkpt>
      <trkpt lat="43.38464" lon="-1.66698">
        <ele>5.4</ele>
        <time>2021-07-18T08:11:35Z</time>
      </trkpt>
      <trkpt lat="43.38465" lon="-1.66699">
        <ele>5.4</ele>
        <time>2021-07-18T08:11:36Z</time>
      </trkpt>
      <trkpt lat="43.38466" lon="-1.66702">
        <ele>5.4</ele>
        <time>2021-07-18T08:11:38Z</time>
      </trkpt>
      <trkpt lat="43.38465" lon="-1.66704">
        <ele>5.4</ele>
        <time>2021-07-18T08:11:39Z</time>
      </trkpt>
      <trkpt lat="43.38466" lon="-1.66704">
        <ele>5.4</ele>
        <time>2021-07-18T08:11:41Z</time>
      </trkpt>
      <trkpt lat="43.38468" lon="-1.66705">
        <ele>5.4</ele>
        <time>2021-07-18T08:11:42Z</time>
      </trkpt>
      <trkpt lat="43.38471" lon="-1.66709">
        <ele>5.3</ele>
        <time>2021-07-18T08:11:44Z</time>
      </trkpt>
      <trkpt lat="43.38472" lon="-1.6671">
        <ele>5.3</ele>
        <time>2021-07-18T08:11:45Z</time>
      </trkpt>
      <trkpt lat="43.38474" lon="-1.66713">
        <ele>5.3</ele>
        <time>2021-07-18T08:11:47Z</time>
      </trkpt>
      <trkpt lat="43.38475" lon="-1.66713">
        <ele>5.3</ele>
        <time>2021-07-18T08:11:48Z</time>
      </trkpt>
      <trkpt lat="43.38478" lon="-1.66712">
        <ele>5.3</ele>
        <time>2021-07-18T08:11:50Z</time>
      </trkpt>
      <trkpt lat="43.3848" lon="-1.66715">
        <ele>5.3</ele>
        <time>2021-07-18T08:11:52Z</time>
      </trkpt>
      <trkpt lat="43.38483" lon="-1.66717">
        <ele>5.2</ele>
        <time>2021-07-18T08:11:53Z</time>
      </trkpt>
      <trkpt lat="43.38485" lon="-1.66719">
        <ele>5.2</ele>
        <time>2021-07-18T08:11:54Z</time>
      </trkpt>
      <trkpt lat="43.38486" lon="-1.66722">
        <ele>5.2</ele>
        <time>2021-07-18T08:11:56Z</time>
      </trkpt>
      <trkpt lat="43.38486" lon="-1.66724">
        <ele>5.2</ele>
        <time>2021-07-18T08:11:57Z</time>
      </trkpt>
      <trkpt lat="43.38486" lon="-1.66726">
        <ele>5.2</ele>
        <time>2021-07-18T08:11:58Z</time>
      </trkpt>
      <trkpt lat="43.38485" lon="-1.66727">
        <ele>5.2</ele>
        <time>2021-07-18T08:11:59Z</time>
      </trkpt>
      <trkpt lat="43.38485" lon="-1.66726">
        <ele>5.2</ele>
        <time>2021-07-18T08:12:00Z</time>
      </trkpt>
      <trkpt lat="43.38485" lon="-1.66725">
        <ele>5.2</ele>
        <time>2021-07-18T08:12:02Z</time>
      </trkpt>
      <trkpt lat="43.38486" lon="-1.66724">
        <ele>5.2</ele>
        <time>2021-07-18T08:12:04Z</time>
      </trkpt>
      <trkpt lat="43.38486" lon="-1.66723">
        <ele>5.2</ele>
        <time>2021-07-18T08:12:06Z</time>
      </trkpt>
      <trkpt lat="43.38486" lon="-1.66723">
        <ele>5.2</ele>
        <time>2021-07-18T08:12:08Z</time>
      </trkpt>
      <trkpt lat="43.38486" lon="-1.66722">
        <ele>5.2</ele>
        <time>2021-07-18T08:12:10Z</time>
      </trkpt>
      <trkpt lat="43.38486" lon="-1.66721">
        <ele>5.2</ele>
        <time>2021-07-18T08:32:00Z</time>
      </trkpt>
      <trkpt lat="43.38486" lon="-1.6672">
        <ele>5.2</ele>
        <time>2021-07-18T08:32:02Z</time>
      </trkpt>
      <trkpt lat="43.38486" lon="-1.66719">
        <ele>5.2</ele>
        <time>2021-07-18T08:32:04Z</time>
      </trkpt>
      <trkpt lat="43.38486" lon="-1.66718">
        <ele>5.2</ele>
        <time>2021-07-18T08:32:05Z</time>
      </trkpt>
      <trkpt lat="43.38486" lon="-1.66717">
        <ele>5.2</ele>
        <time>2021-07-18T08:32:07Z</time>
      </trkpt>
      <trkpt lat="43.38487" lon="-1.66716">
        <ele>5.2</ele>
        <time>2021-07-18T08:32:08Z</time>
      </trkpt>
      <trkpt lat="43.38487" lon="-1.66715">
        <ele>5.2</ele>
        <time>2021-07-18T08:32:10Z</time>
      </trkpt>
      <trkpt lat="43.38487" lon="-1.66714">
        <ele>5.2</ele>
        <time>2021-07-18T08:32:11Z</time>
      </trkpt>
      <trkpt lat="43.38487" lon="-1.66713">
        <ele>5.3</ele>
        <time>2021-07-18T08:32:12Z</time>
      </trkpt>
      <trkpt lat="43.38487" lon="-1.66713">
        <ele>5.3</ele>
        <time>2021-07-18T08:32:14Z</time>
      </trkpt>
      <trkpt lat="43.38487" lon="-1.66712">
        <ele>5.3</ele>
        <time>2021-07-18T08:32:15Z</time>
      </trkpt>
      <trkpt lat="43.38487" lon="-1.66711">
        <ele>5.3</ele>
        <time>2021-07-18T08:32:16Z</time>
      </trkpt>
      <trkpt lat="43.38487" lon="-1.6671">
        <ele>5.3</ele>
        <time>2021-07-18T08:32:18Z</time>
      </trkpt>
      <trkpt lat="43.38487" lon="-1.66709">
        <ele>5.3</ele>
        <time>2021-07-18T08:33:19Z</time>
      </trkpt>
      <trkpt lat="43.38488" lon="-1.66708">
        <ele>5.3</ele>
        <time>2021-07-18T08:33:20Z</time>
      </trkpt>
      <trkpt lat="43.38488" lon="-1.66707">
        <ele>5.3</ele>
        <time>2021-07-18T08:33:21Z</time>
      </trkpt>
      <trkpt lat="43.38486" lon="-1.66703">
        <ele>5.3</ele>
        <time>2021-07-18T08:33:22Z</time>
      </trkpt>
      <trkpt lat="43.38486" lon="-1.66702">
        <ele>5.3</ele>
        <time>2021-07-18T08:33:24Z</time>
      </trkpt>
      <trkpt lat="43.38485" lon="-1.66701">
        <ele>5.3</ele>
        <time>2021-07-18T08:33:26Z</time>
      </trkpt>
      <trkpt lat="43.38484" lon="-1.66699">
        <ele>5.3</ele>
        <time>2021-07-18T08:33:27Z</time>
      </trkpt>
      <trkpt lat="43.38482" lon="-1.66695">
        <ele>5.3</ele>
        <time>2021-07-18T08:33:28Z</time>
      </trkpt>
      <trkpt lat="43.38481" lon="-1.66694">
        <ele>5.3</ele>
        <time>2021-07-18T08:33:29Z</time>
      </trkpt>
      <trkpt lat="43.38477" lon="-1.66688">
        <ele>5.4</ele>
        <time>2021-07-18T08:33:31Z</time>
      </trkpt>
      <trkpt lat="43.38475" lon="-1.66685">
        <ele>5.4</ele>
        <time>2021-07-18T08:33:32Z</time>
      </trkpt>
      <trkpt lat="43.38474" lon="-1.66681">
        <ele>5.4</ele>
        <time>2021-07-18T08:33:33Z</time>
      </trkpt>
      <trkpt lat="43.38471" lon="-1.66675">
        <ele>5.5</ele>
        <time>2021-07-18T08:33:35Z</time>
      </trkpt>
      <trkpt lat="43.38469" lon="-1.66669">
        <ele>5.6</ele>
        <time>2021-07-18T08:33:37Z</time>
      </trkpt>
      <trkpt lat="43.38467" lon="-1.66664">
        <ele>5.6</ele>
        <time>2021-07-18T08:33:38Z</time>
      </trkpt>
      <trkpt lat="43.38466" lon="-1.66663">
        <ele>5.6</ele>
        <time>2021-07-18T08:33:39Z</time>
      </trkpt>
      <trkpt lat="43.38463" lon="-1.66659">
        <ele>5.7</ele>
        <time>2021-07-18T08:33:41Z</time>
      </trkpt>
      <trkpt lat="43.3846" lon="-1.66656">
        <ele>5.7</ele>
        <time>2021-07-18T08:33:42Z</time>
      </trkpt>
      <trkpt lat="43.38458" lon="-1.66655">
        <ele>5.7</ele>
        <time>2021-07-18T08:33:43Z</time>
      </trkpt>
      <trkpt lat="43.38456" lon="-1.66652">
        <ele>5.8</ele>
        <time>2021-07-18T08:33:45Z</time>
      </trkpt>
      <trkpt lat="43.38453" lon="-1.66648">
        <ele>5.8</ele>
        <time>2021-07-18T08:33:46Z</time>
      </trkpt>
      <trkpt lat="43.38452" lon="-1.66643">
        <ele>5.8</ele>
        <time>2021-07-18T08:33:48Z</time>
      </trkpt>
      <trkpt lat="43.38453" lon="-1.66636">
        <ele>5.8</ele>
        <time>2021-07-18T08:33:49Z</time>
      </trkpt>
      <trkpt lat="43.38455" lon="-1.6663">
        <ele>5.9</ele>
        <time>2021-07-18T08:33:51Z</time>
      </trkpt>
      <trkpt lat="43.38458" lon="-1.66627">
        <ele>5.8</ele>
        <time>2021-07-18T08:33:52Z</time>
      </trkpt>
      <trkpt lat="43.38461" lon="-1.66626">
        <ele>5.8</ele>
        <time>2021-07-18T08:33:53Z</time>
      </trkpt>
      <trkpt lat="43.38466" lon="-1.66626">
        <ele>5.8</ele>
        <time>2021-07-18T08:33:55Z</time>
      </trkpt>
      <trkpt lat="43.38469" lon="-1.66624">
        <ele>5.8</ele>
        <time>2021-07-18T08:33:56Z</time>
      </trkpt>
      <trkpt lat="43.38471" lon="-1.66622">
        <ele>5.8</ele>
        <time>2021-07-18T08:33:58Z</time>
      </trkpt>
      <trkpt lat="43.38471" lon="-1.66619">
        <ele>5.8</ele>
        <time>2021-07-18T08:34:00Z</time>
      </trkpt>
      <trkpt lat="43.38471" lon="-1.66617">
        <ele>5.8</ele>
        <time>2021-07-18T08:34:01Z</time>
      </trkpt>
      <trkpt lat="43.38469" lon="-1.66616">
        <ele>5.8</ele>
        <time>2021-07-18T08:34:02Z</time>
      </trkpt>
      <trkpt lat="43.38467" lon="-1.66617">
        <ele>5.8</ele>
        <time>2021-07-18T08:34:04Z</time>
      </trkpt>
      <trkpt lat="43.38464" lon="-1.66614">
        <ele>5.8</ele>
        <time>2021-07-18T08:34:06Z</time>
      </trkpt>
      <trkpt lat="43.38461" lon="-1.66609">
        <ele>6</ele>
        <time>2021-07-18T08:34:08Z</time>
      </trkpt>
      <trkpt lat="43.38459" lon="-1.66606">
        <ele>6</ele>
        <time>2021-07-18T08:34:09Z</time>
      </trkpt>
      <trkpt lat="43.38458" lon="-1.66605">
        <ele>6</ele>
        <time>2021-07-18T08:34:10Z</time>
      </trkpt>
      <trkpt lat="43.38453" lon="-1.666">
        <ele>6.1</ele>
        <time>2021-07-18T08:34:12Z</time>
      </trkpt>
      <trkpt lat="43.38451" lon="-1.66597">
        <ele>6.1</ele>
        <time>2021-07-18T08:34:13Z</time>
      </trkpt>
      <trkpt lat="43.38448" lon="-1.66594">
        <ele>6.1</ele>
        <time>2021-07-18T08:34:14Z</time>
      </trkpt>
      <trkpt lat="43.38445" lon="-1.66588">
        <ele>6.1</ele>
        <time>2021-07-18T08:34:16Z</time>
      </trkpt>
      <trkpt lat="43.38442" lon="-1.66583">
        <ele>6.1</ele>
        <time>2021-07-18T08:34:17Z</time>
      </trkpt>
      <trkpt lat="43.3844" lon="-1.66574">
        <ele>6.2</ele>
        <time>2021-07-18T08:34:19Z</time>
      </trkpt>
      <trkpt lat="43.38439" lon="-1.66568">
        <ele>6.3</ele>
        <time>2021-07-18T08:34:20Z</time>
      </trkpt>
      <trkpt lat="43.38439" lon="-1.66561">
        <ele>6.4</ele>
        <time>2021-07-18T08:34:22Z</time>
      </trkpt>
      <trkpt lat="43.3844" lon="-1.66554">
        <ele>6.4</ele>
        <time>2021-07-18T08:34:23Z</time>
      </trkpt>
      <trkpt lat="43.38442" lon="-1.66546">
        <ele>6.5</ele>
        <time>2021-07-18T08:34:25Z</time>
      </trkpt>
      <trkpt lat="43.38444" lon="-1.66542">
        <ele>6.5</ele>
        <time>2021-07-18T08:34:26Z</time>
      </trkpt>
      <trkpt lat="43.38448" lon="-1.66535">
        <ele>6.6</ele>
        <time>2021-07-18T08:34:28Z</time>
      </trkpt>
      <trkpt lat="43.3845" lon="-1.66531">
        <ele>6.6</ele>
        <time>2021-07-18T08:34:29Z</time>
      </trkpt>
      <trkpt lat="43.38454" lon="-1.66523">
        <ele>6.7</ele>
        <time>2021-07-18T08:34:31Z</time>
      </trkpt>
      <trkpt lat="43.38457" lon="-1.66515">
        <ele>6.7</ele>
        <time>2021-07-18T08:34:33Z</time>
      </trkpt>
      <trkpt lat="43.3846" lon="-1.6651">
        <ele>6.7</ele>
        <time>2021-07-18T08:34:34Z</time>
      </trkpt>
      <trkpt lat="43.38462" lon="-1.66504">
        <ele>6.8</ele>
        <time>2021-07-18T08:34:36Z</time>
      </trkpt>
      <trkpt lat="43.38465" lon="-1.66499">
        <ele>6.8</ele>
        <time>2021-07-18T08:34:37Z</time>
      </trkpt>
      <trkpt lat="43.38467" lon="-1.66495">
        <ele>6.8</ele>
        <time>2021-07-18T08:34:38Z</time>
      </trkpt>
      <trkpt lat="43.38468" lon="-1.66491">
        <ele>6.9</ele>
        <time>2021-07-18T08:34:39Z</time>
      </trkpt>
      <trkpt lat="43.3847" lon="-1.66487">
        <ele>6.9</ele>
        <time>2021-07-18T08:34:40Z</time>
      </trkpt>
      <trkpt lat="43.38472" lon="-1.66481">
        <ele>7</ele>
        <time>2021-07-18T08:34:42Z</time>
      </trkpt>
      <trkpt lat="43.38474" lon="-1.66476">
        <ele>7</ele>
        <time>2021-07-18T08:34:43Z</time>
      </trkpt>
      <trkpt lat="43.38478" lon="-1.66469">
        <ele>7.1</ele>
        <time>2021-07-18T08:34:45Z</time>
      </trkpt>
      <trkpt lat="43.3848" lon="-1.66466">
        <ele>7.1</ele>
        <time>2021-07-18T08:34:46Z</time>
      </trkpt>
      <trkpt lat="43.38482" lon="-1.66462">
        <ele>7.1</ele>
        <time>2021-07-18T08:34:47Z</time>
      </trkpt>
      <trkpt lat="43.38483" lon="-1.66456">
        <ele>7.2</ele>
        <time>2021-07-18T08:34:49Z</time>
      </trkpt>
      <trkpt lat="43.38485" lon="-1.66451">
        <ele>7.2</ele>
        <time>2021-07-18T08:34:50Z</time>
      </trkpt>
      <trkpt lat="43.38486" lon="-1.66448">
        <ele>7.2</ele>
        <time>2021-07-18T08:34:51Z</time>
      </trkpt>
      <trkpt lat="43.38488" lon="-1.6644">
        <ele>7.3</ele>
        <time>2021-07-18T08:34:53Z</time>
      </trkpt>
      <trkpt lat="43.38491" lon="-1.66434">
        <ele>7.3</ele>
        <time>2021-07-18T08:34:55Z</time>
      </trkpt>
      <trkpt lat="43.38492" lon="-1.66429">
        <ele>7.3</ele>
        <time>2021-07-18T08:34:56Z</time>
      </trkpt>
      <trkpt lat="43.38493" lon="-1.66426">
        <ele>7.3</ele>
        <time>2021-07-18T08:34:57Z</time>
      </trkpt>
      <trkpt lat="43.38495" lon="-1.66421">
        <ele>7.3</ele>
        <time>2021-07-18T08:34:59Z</time>
      </trkpt>
      <trkpt lat="43.38497" lon="-1.66417">
        <ele>7.4</ele>
        <time>2021-07-18T08:35:01Z</time>
      </trkpt>
      <trkpt lat="43.38497" lon="-1.66416">
        <ele>7.4</ele>
        <time>2021-07-18T08:35:02Z</time>
      </trkpt>
      <trkpt lat="43.38498" lon="-1.66416">
        <ele>7.4</ele>
        <time>2021-07-18T08:35:04Z</time>
      </trkpt>
      <trkpt lat="43.38498" lon="-1.66415">
        <ele>7.4</ele>
        <time>2021-07-18T08:35:05Z</time>
      </trkpt>
      <trkpt lat="43.385" lon="-1.66412">
        <ele>7.4</ele>
        <time>2021-07-18T08:35:07Z</time>
      </trkpt>
      <trkpt lat="43.38501" lon="-1.66409">
        <ele>7.4</ele>
        <time>2021-07-18T08:35:09Z</time>
      </trkpt>
      <trkpt lat="43.38503" lon="-1.66405">
        <ele>7.4</ele>
        <time>2021-07-18T08:35:11Z</time>
      </trkpt>
      <trkpt lat="43.38503" lon="-1.66403">
        <ele>7.4</ele>
        <time>2021-07-18T08:35:12Z</time>
      </trkpt>
      <trkpt lat="43.38506" lon="-1.66398">
        <ele>7.5</ele>
        <time>2021-07-18T08:35:14Z</time>
      </trkpt>
      <trkpt lat="43.38507" lon="-1.66394">
        <ele>7.5</ele>
        <time>2021-07-18T08:35:15Z</time>
      </trkpt>
      <trkpt lat="43.38509" lon="-1.66391">
        <ele>7.5</ele>
        <time>2021-07-18T08:35:16Z</time>
      </trkpt>
      <trkpt lat="43.38512" lon="-1.66384">
        <ele>7.5</ele>
        <time>2021-07-18T08:35:18Z</time>
      </trkpt>
      <trkpt lat="43.38514" lon="-1.66379">
        <ele>7.5</ele>
        <time>2021-07-18T08:35:20Z</time>
      </trkpt>
      <trkpt lat="43.38515" lon="-1.66373">
        <ele>7.5</ele>
        <time>2021-07-18T08:35:21Z</time>
      </trkpt>
      <trkpt lat="43.38517" lon="-1.66366">
        <ele>7.5</ele>
        <time>2021-07-18T08:35:23Z</time>
      </trkpt>
      <trkpt lat="43.38519" lon="-1.66361">
        <ele>7.5</ele>
        <time>2021-07-18T08:35:24Z</time>
      </trkpt>
      <trkpt lat="43.38522" lon="-1.66355">
        <ele>7.5</ele>
        <time>2021-07-18T08:35:26Z</time>
      </trkpt>
      <trkpt lat="43.38525" lon="-1.6635">
        <ele>7.4</ele>
        <time>2021-07-18T08:35:28Z</time>
      </trkpt>
      <trkpt lat="43.38526" lon="-1.66348">
        <ele>7.4</ele>
        <time>2021-07-18T08:35:29Z</time>
      </trkpt>
      <trkpt lat="43.38527" lon="-1.66345">
        <ele>7.4</ele>
        <time>2021-07-18T08:35:31Z</time>
      </trkpt>
      <trkpt lat="43.38527" lon="-1.66343">
        <ele>7.4</ele>
        <time>2021-07-18T08:35:32Z</time>
      </trkpt>
      <trkpt lat="43.38528" lon="-1.66342">
        <ele>7.4</ele>
        <time>2021-07-18T08:35:33Z</time>
      </trkpt>
      <trkpt lat="43.38529" lon="-1.6634">
        <ele>7.3</ele>
        <time>2021-07-18T08:35:35Z</time>
      </trkpt>
      <trkpt lat="43.3853" lon="-1.66338">
        <ele>7.3</ele>
        <time>2021-07-18T08:35:36Z</time>
      </trkpt>
      <trkpt lat="43.38531" lon="-1.66337">
        <ele>7.3</ele>
        <time>2021-07-18T08:35:37Z</time>
      </trkpt>
      <trkpt lat="43.38532" lon="-1.66335">
        <ele>7.3</ele>
        <time>2021-07-18T08:35:38Z</time>
      </trkpt>
      <trkpt lat="43.38532" lon="-1.66333">
        <ele>7.3</ele>
        <time>2021-07-18T08:35:39Z</time>
      </trkpt>
      <trkpt lat="43.38534" lon="-1.66329">
        <ele>7.3</ele>
        <time>2021-07-18T08:35:41Z</time>
      </trkpt>
      <trkpt lat="43.38534" lon="-1.66328">
        <ele>7.2</ele>
        <time>2021-07-18T08:35:42Z</time>
      </trkpt>
      <trkpt lat="43.38535" lon="-1.66325">
        <ele>7.2</ele>
        <time>2021-07-18T08:35:44Z</time>
      </trkpt>
      <trkpt lat="43.38536" lon="-1.66324">
        <ele>7.2</ele>
        <time>2021-07-18T08:35:45Z</time>
      </trkpt>
      <trkpt lat="43.38537" lon="-1.66321">
        <ele>7.2</ele>
        <time>2021-07-18T08:35:47Z</time>
      </trkpt>
      <trkpt lat="43.38538" lon="-1.6632">
        <ele>7.2</ele>
        <time>2021-07-18T08:35:48Z</time>
      </trkpt>
      <trkpt lat="43.3854" lon="-1.66315">
        <ele>7.1</ele>
        <time>2021-07-18T08:35:50Z</time>
      </trkpt>
      <trkpt lat="43.38541" lon="-1.66313">
        <ele>7.1</ele>
        <time>2021-07-18T08:35:52Z</time>
      </trkpt>
      <trkpt lat="43.38541" lon="-1.66311">
        <ele>7.1</ele>
        <time>2021-07-18T08:35:53Z</time>
      </trkpt>
      <trkpt lat="43.38542" lon="-1.66308">
        <ele>7.1</ele>
        <time>2021-07-18T08:35:55Z</time>
      </trkpt>
      <trkpt lat="43.38543" lon="-1.66305">
        <ele>7.1</ele>
        <time>2021-07-18T08:35:57Z</time>
      </trkpt>
      <trkpt lat="43.38545" lon="-1.66301">
        <ele>7.1</ele>
        <time>2021-07-18T08:35:58Z</time>
      </trkpt>
      <trkpt lat="43.38546" lon="-1.663">
        <ele>7</ele>
        <time>2021-07-18T08:35:59Z</time>
      </trkpt>
      <trkpt lat="43.38548" lon="-1.66295">
        <ele>7</ele>
        <time>2021-07-18T08:36:01Z</time>
      </trkpt>
      <trkpt lat="43.3855" lon="-1.66291">
        <ele>7</ele>
        <time>2021-07-18T08:36:02Z</time>
      </trkpt>
      <trkpt lat="43.38552" lon="-1.66285">
        <ele>6.9</ele>
        <time>2021-07-18T08:36:03Z</time>
      </trkpt>
      <trkpt lat="43.38554" lon="-1.66281">
        <ele>6.9</ele>
        <time>2021-07-18T08:36:04Z</time>
      </trkpt>
      <trkpt lat="43.38556" lon="-1.66277">
        <ele>6.9</ele>
        <time>2021-07-18T08:36:05Z</time>
      </trkpt>
      <trkpt lat="43.38559" lon="-1.66273">
        <ele>6.9</ele>
        <time>2021-07-18T08:36:06Z</time>
      </trkpt>
      <trkpt lat="43.3856" lon="-1.66269">
        <ele>6.8</ele>
        <time>2021-07-18T08:36:07Z</time>
      </trkpt>
      <trkpt lat="43.38563" lon="-1.66264">
        <ele>6.8</ele>
        <time>2021-07-18T08:36:08Z</time>
      </trkpt>
      <trkpt lat="43.38565" lon="-1.66258">
        <ele>6.8</ele>
        <time>2021-07-18T08:36:10Z</time>
      </trkpt>
      <trkpt lat="43.38567" lon="-1.66254">
        <ele>6.7</ele>
        <time>2021-07-18T08:36:11Z</time>
      </trkpt>
      <trkpt lat="43.38569" lon="-1.6625">
        <ele>6.6</ele>
        <time>2021-07-18T08:36:12Z</time>
      </trkpt>
      <trkpt lat="43.38572" lon="-1.66245">
        <ele>6.6</ele>
        <time>2021-07-18T08:36:14Z</time>
      </trkpt>
      <trkpt lat="43.38575" lon="-1.66242">
        <ele>6.5</ele>
        <time>2021-07-18T08:36:15Z</time>
      </trkpt>
      <trkpt lat="43.38579" lon="-1.66238">
        <ele>6.4</ele>
        <time>2021-07-18T08:36:16Z</time>
      </trkpt>
      <trkpt lat="43.38582" lon="-1.66235">
        <ele>6.4</ele>
        <time>2021-07-18T08:36:17Z</time>
      </trkpt>
      <trkpt lat="43.38585" lon="-1.66234">
        <ele>6.3</ele>
        <time>2021-07-18T08:36:18Z</time>
      </trkpt>
      <trkpt lat="43.3859" lon="-1.66232">
        <ele>6.3</ele>
        <time>2021-07-18T08:36:20Z</time>
      </trkpt>
      <trkpt lat="43.38595" lon="-1.66231">
        <ele>6.2</ele>
        <time>2021-07-18T08:36:21Z</time>
      </trkpt>
      <trkpt lat="43.38597" lon="-1.6623">
        <ele>6.2</ele>
        <time>2021-07-18T08:36:22Z</time>
      </trkpt>
      <trkpt lat="43.38599" lon="-1.66229">
        <ele>6.2</ele>
        <time>2021-07-18T08:36:23Z</time>
      </trkpt>
      <trkpt lat="43.38602" lon="-1.66229">
        <ele>6.1</ele>
        <time>2021-07-18T08:36:25Z</time>
      </trkpt>
      <trkpt lat="43.38603" lon="-1.66229">
        <ele>6.1</ele>
        <time>2021-07-18T08:36:26Z</time>
      </trkpt>
      <trkpt lat="43.38605" lon="-1.6623">
        <ele>6.1</ele>
        <time>2021-07-18T08:36:27Z</time>
      </trkpt>
      <trkpt lat="43.38608" lon="-1.66231">
        <ele>6</ele>
        <time>2021-07-18T08:36:29Z</time>
      </trkpt>
      <trkpt lat="43.38611" lon="-1.66233">
        <ele>6</ele>
        <time>2021-07-18T08:36:30Z</time>
      </trkpt>
      <trkpt lat="43.38612" lon="-1.66233">
        <ele>6</ele>
        <time>2021-07-18T08:36:31Z</time>
      </trkpt>
      <trkpt lat="43.38614" lon="-1.66234">
        <ele>6</ele>
        <time>2021-07-18T08:36:32Z</time>
      </trkpt>
      <trkpt lat="43.38618" lon="-1.66232">
        <ele>6</ele>
        <time>2021-07-18T08:36:34Z</time>
      </trkpt>
      <trkpt lat="43.38619" lon="-1.66228">
        <ele>6</ele>
        <time>2021-07-18T08:36:36Z</time>
      </trkpt>
      <trkpt lat="43.3862" lon="-1.66224">
        <ele>6</ele>
        <time>2021-07-18T08:36:37Z</time>
      </trkpt>
      <trkpt lat="43.38617" lon="-1.66222">
        <ele>6</ele>
        <time>2021-07-18T08:36:38Z</time>
      </trkpt>
      <trkpt lat="43.38616" lon="-1.66221">
        <ele>6</ele>
        <time>2021-07-18T08:36:39Z</time>
      </trkpt>
      <trkpt lat="43.38614" lon="-1.66219">
        <ele>6</ele>
        <time>2021-07-18T08:36:40Z</time>
      </trkpt>
      <trkpt lat="43.38607" lon="-1.66215">
        <ele>6</ele>
        <time>2021-07-18T08:36:42Z</time>
      </trkpt>
      <trkpt lat="43.38602" lon="-1.6621">
        <ele>6.1</ele>
        <time>2021-07-18T08:36:44Z</time>
      </trkpt>
      <trkpt lat="43.38599" lon="-1.66205">
        <ele>6.3</ele>
        <time>2021-07-18T08:36:45Z</time>
      </trkpt>
      <trkpt lat="43.38597" lon="-1.662">
        <ele>6.5</ele>
        <time>2021-07-18T08:36:46Z</time>
      </trkpt>
      <trkpt lat="43.38596" lon="-1.66196">
        <ele>6.7</ele>
        <time>2021-07-18T08:36:47Z</time>
      </trkpt>
      <trkpt lat="43.38596" lon="-1.66191">
        <ele>6.9</ele>
        <time>2021-07-18T08:36:48Z</time>
      </trkpt>
      <trkpt lat="43.38598" lon="-1.66186">
        <ele>7</ele>
        <time>2021-07-18T08:36:49Z</time>
      </trkpt>
      <trkpt lat="43.38602" lon="-1.66178">
        <ele>7</ele>
        <time>2021-07-18T08:36:51Z</time>
      </trkpt>
      <trkpt lat="43.38606" lon="-1.6617">
        <ele>7</ele>
        <time>2021-07-18T08:36:53Z</time>
      </trkpt>
      <trkpt lat="43.3861" lon="-1.66164">
        <ele>7</ele>
        <time>2021-07-18T08:36:55Z</time>
      </trkpt>
      <trkpt lat="43.38612" lon="-1.66157">
        <ele>7</ele>
        <time>2021-07-18T08:36:56Z</time>
      </trkpt>
      <trkpt lat="43.38613" lon="-1.66151">
        <ele>7</ele>
        <time>2021-07-18T08:36:57Z</time>
      </trkpt>
      <trkpt lat="43.38612" lon="-1.66143">
        <ele>7</ele>
        <time>2021-07-18T08:36:58Z</time>
      </trkpt>
      <trkpt lat="43.38612" lon="-1.66134">
        <ele>7</ele>
        <time>2021-07-18T08:37:00Z</time>
      </trkpt>
      <trkpt lat="43.38612" lon="-1.66126">
        <ele>7</ele>
        <time>2021-07-18T08:37:02Z</time>
      </trkpt>
      <trkpt lat="43.38612" lon="-1.66119">
        <ele>7.1</ele>
        <time>2021-07-18T08:37:03Z</time>
      </trkpt>
      <trkpt lat="43.38612" lon="-1.66113">
        <ele>7.2</ele>
        <time>2021-07-18T08:37:04Z</time>
      </trkpt>
      <trkpt lat="43.38613" lon="-1.66103">
        <ele>7.3</ele>
        <time>2021-07-18T08:37:06Z</time>
      </trkpt>
      <trkpt lat="43.38613" lon="-1.66097">
        <ele>7.3</ele>
        <time>2021-07-18T08:37:07Z</time>
      </trkpt>
      <trkpt lat="43.38614" lon="-1.6609">
        <ele>7.4</ele>
        <time>2021-07-18T08:37:08Z</time>
      </trkpt>
      <trkpt lat="43.38614" lon="-1.66082">
        <ele>7.4</ele>
        <time>2021-07-18T08:37:10Z</time>
      </trkpt>
      <trkpt lat="43.38614" lon="-1.66075">
        <ele>7.5</ele>
        <time>2021-07-18T08:37:11Z</time>
      </trkpt>
      <trkpt lat="43.38614" lon="-1.6607">
        <ele>7.5</ele>
        <time>2021-07-18T08:37:12Z</time>
      </trkpt>
      <trkpt lat="43.38615" lon="-1.66064">
        <ele>7.5</ele>
        <time>2021-07-18T08:37:13Z</time>
      </trkpt>
      <trkpt lat="43.38616" lon="-1.66055">
        <ele>7.5</ele>
        <time>2021-07-18T08:37:15Z</time>
      </trkpt>
      <trkpt lat="43.38617" lon="-1.66046">
        <ele>7.5</ele>
        <time>2021-07-18T08:37:16Z</time>
      </trkpt>
      <trkpt lat="43.38618" lon="-1.66029">
        <ele>7.6</ele>
        <time>2021-07-18T08:37:18Z</time>
      </trkpt>
      <trkpt lat="43.3862" lon="-1.66024">
        <ele>7.6</ele>
        <time>2021-07-18T08:37:19Z</time>
      </trkpt>
      <trkpt lat="43.38624" lon="-1.66013">
        <ele>7.6</ele>
        <time>2021-07-18T08:37:21Z</time>
      </trkpt>
      <trkpt lat="43.38626" lon="-1.66011">
        <ele>7.6</ele>
        <time>2021-07-18T08:37:22Z</time>
      </trkpt>
      <trkpt lat="43.38632" lon="-1.66012">
        <ele>7.6</ele>
        <time>2021-07-18T08:37:24Z</time>
      </trkpt>
      <trkpt lat="43.38634" lon="-1.66014">
        <ele>7.6</ele>
        <time>2021-07-18T08:37:25Z</time>
      </trkpt>
      <trkpt lat="43.38634" lon="-1.66015">
        <ele>7.6</ele>
        <time>2021-07-18T08:37:26Z</time>
      </trkpt>
      <trkpt lat="43.38634" lon="-1.66016">
        <ele>7.6</ele>
        <time>2021-07-18T08:37:27Z</time>
      </trkpt>
      <trkpt lat="43.38636" lon="-1.66018">
        <ele>7.6</ele>
        <time>2021-07-18T08:37:29Z</time>
      </trkpt>
      <trkpt lat="43.38637" lon="-1.66018">
        <ele>7.6</ele>
        <time>2021-07-18T08:37:30Z</time>
      </trkpt>
      <trkpt lat="43.38641" lon="-1.66016">
        <ele>7.6</ele>
        <time>2021-07-18T08:37:31Z</time>
      </trkpt>
      <trkpt lat="43.38642" lon="-1.66016">
        <ele>7.6</ele>
        <time>2021-07-18T08:37:32Z</time>
      </trkpt>
      <trkpt lat="43.38644" lon="-1.66016">
        <ele>7.5</ele>
        <time>2021-07-18T08:37:33Z</time>
      </trkpt>
      <trkpt lat="43.38646" lon="-1.66017">
        <ele>7.5</ele>
        <time>2021-07-18T08:37:35Z</time>
      </trkpt>
      <trkpt lat="43.3865" lon="-1.66019">
        <ele>7.5</ele>
        <time>2021-07-18T08:37:37Z</time>
      </trkpt>
      <trkpt lat="43.3865" lon="-1.6602">
        <ele>7.5</ele>
        <time>2021-07-18T08:37:38Z</time>
      </trkpt>
      <trkpt lat="43.38654" lon="-1.66022">
        <ele>7.5</ele>
        <time>2021-07-18T08:37:39Z</time>
      </trkpt>
      <trkpt lat="43.38655" lon="-1.66023">
        <ele>7.5</ele>
        <time>2021-07-18T08:37:40Z</time>
      </trkpt>
      <trkpt lat="43.38661" lon="-1.66026">
        <ele>7.4</ele>
        <time>2021-07-18T08:37:42Z</time>
      </trkpt>
      <trkpt lat="43.38665" lon="-1.66028">
        <ele>7.5</ele>
        <time>2021-07-18T08:37:43Z</time>
      </trkpt>
      <trkpt lat="43.38667" lon="-1.66031">
        <ele>7.5</ele>
        <time>2021-07-18T08:37:44Z</time>
      </trkpt>
      <trkpt lat="43.38669" lon="-1.66033">
        <ele>7.5</ele>
        <time>2021-07-18T08:37:45Z</time>
      </trkpt>
      <trkpt lat="43.38673" lon="-1.66037">
        <ele>7.5</ele>
        <time>2021-07-18T08:37:47Z</time>
      </trkpt>
      <trkpt lat="43.38677" lon="-1.6604">
        <ele>7.6</ele>
        <time>2021-07-18T08:37:48Z</time>
      </trkpt>
      <trkpt lat="43.38682" lon="-1.66043">
        <ele>7.6</ele>
        <time>2021-07-18T08:37:49Z</time>
      </trkpt>
      <trkpt lat="43.38687" lon="-1.66047">
        <ele>7.7</ele>
        <time>2021-07-18T08:37:50Z</time>
      </trkpt>
      <trkpt lat="43.38692" lon="-1.6605">
        <ele>7.6</ele>
        <time>2021-07-18T08:37:51Z</time>
      </trkpt>
      <trkpt lat="43.38696" lon="-1.66053">
        <ele>7.3</ele>
        <time>2021-07-18T08:37:52Z</time>
      </trkpt>
      <trkpt lat="43.38702" lon="-1.66057">
        <ele>6.9</ele>
        <time>2021-07-18T08:37:54Z</time>
      </trkpt>
      <trkpt lat="43.3871" lon="-1.66061">
        <ele>6.4</ele>
        <time>2021-07-18T08:37:55Z</time>
      </trkpt>
      <trkpt lat="43.38719" lon="-1.66066">
        <ele>5.8</ele>
        <time>2021-07-18T08:37:57Z</time>
      </trkpt>
      <trkpt lat="43.38725" lon="-1.6607">
        <ele>5.5</ele>
        <time>2021-07-18T08:37:58Z</time>
      </trkpt>
      <trkpt lat="43.38729" lon="-1.66072">
        <ele>5.3</ele>
        <time>2021-07-18T08:37:59Z</time>
      </trkpt>
      <trkpt lat="43.38734" lon="-1.66072">
        <ele>5.2</ele>
        <time>2021-07-18T08:38:01Z</time>
      </trkpt>
      <trkpt lat="43.38736" lon="-1.66069">
        <ele>5.2</ele>
        <time>2021-07-18T08:38:02Z</time>
      </trkpt>
      <trkpt lat="43.38737" lon="-1.66062">
        <ele>5.2</ele>
        <time>2021-07-18T08:38:03Z</time>
      </trkpt>
      <trkpt lat="43.38739" lon="-1.66057">
        <ele>5.2</ele>
        <time>2021-07-18T08:38:05Z</time>
      </trkpt>
      <trkpt lat="43.38741" lon="-1.66053">
        <ele>5.1</ele>
        <time>2021-07-18T08:38:06Z</time>
      </trkpt>
      <trkpt lat="43.38743" lon="-1.66048">
        <ele>5.1</ele>
        <time>2021-07-18T08:38:07Z</time>
      </trkpt>
      <trkpt lat="43.38745" lon="-1.66045">
        <ele>5.1</ele>
        <time>2021-07-18T08:38:08Z</time>
      </trkpt>
      <trkpt lat="43.38746" lon="-1.66042">
        <ele>5.1</ele>
        <time>2021-07-18T08:38:09Z</time>
      </trkpt>
      <trkpt lat="43.38747" lon="-1.66037">
        <ele>5.1</ele>
        <time>2021-07-18T08:38:10Z</time>
      </trkpt>
      <trkpt lat="43.38747" lon="-1.66034">
        <ele>5.1</ele>
        <time>2021-07-18T08:38:12Z</time>
      </trkpt>
      <trkpt lat="43.38747" lon="-1.66028">
        <ele>5</ele>
        <time>2021-07-18T08:38:13Z</time>
      </trkpt>
      <trkpt lat="43.38747" lon="-1.66026">
        <ele>5</ele>
        <time>2021-07-18T08:38:14Z</time>
      </trkpt>
      <trkpt lat="43.38747" lon="-1.66023">
        <ele>5</ele>
        <time>2021-07-18T08:38:16Z</time>
      </trkpt>
      <trkpt lat="43.38747" lon="-1.66021">
        <ele>5</ele>
        <time>2021-07-18T08:38:17Z</time>
      </trkpt>
      <trkpt lat="43.38749" lon="-1.66019">
        <ele>5</ele>
        <time>2021-07-18T08:38:19Z</time>
      </trkpt>
      <trkpt lat="43.38751" lon="-1.66019">
        <ele>5</ele>
        <time>2021-07-18T08:38:20Z</time>
      </trkpt>
      <trkpt lat="43.38752" lon="-1.66019">
        <ele>5</ele>
        <time>2021-07-18T08:38:22Z</time>
      </trkpt>
      <trkpt lat="43.38753" lon="-1.6602">
        <ele>5.1</ele>
        <time>2021-07-18T08:38:23Z</time>
      </trkpt>
      <trkpt lat="43.38753" lon="-1.66021">
        <ele>5.1</ele>
        <time>2021-07-18T08:38:24Z</time>
      </trkpt>
      <trkpt lat="43.38754" lon="-1.66022">
        <ele>5.1</ele>
        <time>2021-07-18T08:38:26Z</time>
      </trkpt>
      <trkpt lat="43.38754" lon="-1.66022">
        <ele>5.1</ele>
        <time>2021-07-18T08:38:27Z</time>
      </trkpt>
      <trkpt lat="43.38756" lon="-1.66019">
        <ele>5.1</ele>
        <time>2021-07-18T08:39:40Z</time>
      </trkpt>
      <trkpt lat="43.38757" lon="-1.66021">
        <ele>5.1</ele>
        <time>2021-07-18T08:39:42Z</time>
      </trkpt>
      <trkpt lat="43.38759" lon="-1.66022">
        <ele>5</ele>
        <time>2021-07-18T08:39:43Z</time>
      </trkpt>
      <trkpt lat="43.38761" lon="-1.66024">
        <ele>5</ele>
        <time>2021-07-18T08:39:44Z</time>
      </trkpt>
      <trkpt lat="43.38764" lon="-1.66029">
        <ele>4.9</ele>
        <time>2021-07-18T08:39:45Z</time>
      </trkpt>
      <trkpt lat="43.38764" lon="-1.6603">
        <ele>4.9</ele>
        <time>2021-07-18T08:39:46Z</time>
      </trkpt>
      <trkpt lat="43.38766" lon="-1.66036">
        <ele>4.8</ele>
        <time>2021-07-18T08:39:48Z</time>
      </trkpt>
      <trkpt lat="43.38768" lon="-1.66042">
        <ele>4.7</ele>
        <time>2021-07-18T08:39:49Z</time>
      </trkpt>
      <trkpt lat="43.38769" lon="-1.66047">
        <ele>4.7</ele>
        <time>2021-07-18T08:39:51Z</time>
      </trkpt>
      <trkpt lat="43.38771" lon="-1.66051">
        <ele>4.7</ele>
        <time>2021-07-18T08:39:52Z</time>
      </trkpt>
      <trkpt lat="43.38773" lon="-1.66056">
        <ele>4.6</ele>
        <time>2021-07-18T08:39:53Z</time>
      </trkpt>
      <trkpt lat="43.38775" lon="-1.66062">
        <ele>4.5</ele>
        <time>2021-07-18T08:39:55Z</time>
      </trkpt>
      <trkpt lat="43.38777" lon="-1.66066">
        <ele>4.5</ele>
        <time>2021-07-18T08:39:57Z</time>
      </trkpt>
      <trkpt lat="43.38778" lon="-1.66066">
        <ele>4.5</ele>
        <time>2021-07-18T08:39:58Z</time>
      </trkpt>
      <trkpt lat="43.38779" lon="-1.66064">
        <ele>4.4</ele>
        <time>2021-07-18T08:39:59Z</time>
      </trkpt>
      <trkpt lat="43.3878" lon="-1.66062">
        <ele>4.4</ele>
        <time>2021-07-18T08:40:00Z</time>
      </trkpt>
      <trkpt lat="43.38783" lon="-1.66057">
        <ele>4.4</ele>
        <time>2021-07-18T08:40:02Z</time>
      </trkpt>
      <trkpt lat="43.38785" lon="-1.66053">
        <ele>4.4</ele>
        <time>2021-07-18T08:40:03Z</time>
      </trkpt>
      <trkpt lat="43.38789" lon="-1.66045">
        <ele>4.4</ele>
        <time>2021-07-18T08:40:05Z</time>
      </trkpt>
      <trkpt lat="43.38792" lon="-1.66038">
        <ele>4.4</ele>
        <time>2021-07-18T08:40:06Z</time>
      </trkpt>
      <trkpt lat="43.38795" lon="-1.66031">
        <ele>4.4</ele>
        <time>2021-07-18T08:40:08Z</time>
      </trkpt>
      <trkpt lat="43.38797" lon="-1.66025">
        <ele>4.4</ele>
        <time>2021-07-18T08:40:09Z</time>
      </trkpt>
      <trkpt lat="43.38799" lon="-1.6602">
        <ele>4.4</ele>
        <time>2021-07-18T08:40:10Z</time>
      </trkpt>
      <trkpt lat="43.38801" lon="-1.66015">
        <ele>4.4</ele>
        <time>2021-07-18T08:40:11Z</time>
      </trkpt>
      <trkpt lat="43.38803" lon="-1.66012">
        <ele>4.4</ele>
        <time>2021-07-18T08:40:12Z</time>
      </trkpt>
      <trkpt lat="43.38807" lon="-1.66004">
        <ele>4.5</ele>
        <time>2021-07-18T08:40:14Z</time>
      </trkpt>
      <trkpt lat="43.38809" lon="-1.65999">
        <ele>4.5</ele>
        <time>2021-07-18T08:40:15Z</time>
      </trkpt>
      <trkpt lat="43.38811" lon="-1.65994">
        <ele>4.5</ele>
        <time>2021-07-18T08:40:16Z</time>
      </trkpt>
      <trkpt lat="43.38814" lon="-1.6599">
        <ele>4.5</ele>
        <time>2021-07-18T08:40:17Z</time>
      </trkpt>
      <trkpt lat="43.38816" lon="-1.65985">
        <ele>4.5</ele>
        <time>2021-07-18T08:40:18Z</time>
      </trkpt>
      <trkpt lat="43.3882" lon="-1.65978">
        <ele>4.5</ele>
        <time>2021-07-18T08:40:20Z</time>
      </trkpt>
      <trkpt lat="43.38823" lon="-1.65973">
        <ele>4.5</ele>
        <time>2021-07-18T08:40:21Z</time>
      </trkpt>
      <trkpt lat="43.38825" lon="-1.65967">
        <ele>4.6</ele>
        <time>2021-07-18T08:40:22Z</time>
      </trkpt>
      <trkpt lat="43.38828" lon="-1.65962">
        <ele>4.6</ele>
        <time>2021-07-18T08:40:23Z</time>
      </trkpt>
      <trkpt lat="43.38832" lon="-1.65953">
        <ele>4.6</ele>
        <time>2021-07-18T08:40:25Z</time>
      </trkpt>
      <trkpt lat="43.38835" lon="-1.65947">
        <ele>4.7</ele>
        <time>2021-07-18T08:40:26Z</time>
      </trkpt>
      <trkpt lat="43.38838" lon="-1.6594">
        <ele>4.7</ele>
        <time>2021-07-18T08:40:28Z</time>
      </trkpt>
      <trkpt lat="43.38841" lon="-1.65932">
        <ele>4.8</ele>
        <time>2021-07-18T08:40:29Z</time>
      </trkpt>
      <trkpt lat="43.38844" lon="-1.65927">
        <ele>4.8</ele>
        <time>2021-07-18T08:40:31Z</time>
      </trkpt>
      <trkpt lat="43.38847" lon="-1.65921">
        <ele>4.9</ele>
        <time>2021-07-18T08:40:32Z</time>
      </trkpt>
      <trkpt lat="43.38849" lon="-1.65916">
        <ele>4.9</ele>
        <time>2021-07-18T08:40:33Z</time>
      </trkpt>
      <trkpt lat="43.38851" lon="-1.65912">
        <ele>5</ele>
        <time>2021-07-18T08:40:34Z</time>
      </trkpt>
      <trkpt lat="43.38854" lon="-1.65905">
        <ele>5.1</ele>
        <time>2021-07-18T08:40:36Z</time>
      </trkpt>
      <trkpt lat="43.38857" lon="-1.65898">
        <ele>5.2</ele>
        <time>2021-07-18T08:40:37Z</time>
      </trkpt>
      <trkpt lat="43.38859" lon="-1.65894">
        <ele>5.2</ele>
        <time>2021-07-18T08:40:38Z</time>
      </trkpt>
      <trkpt lat="43.38862" lon="-1.65887">
        <ele>5.3</ele>
        <time>2021-07-18T08:40:40Z</time>
      </trkpt>
      <trkpt lat="43.38864" lon="-1.65883">
        <ele>5.4</ele>
        <time>2021-07-18T08:40:41Z</time>
      </trkpt>
      <trkpt lat="43.38867" lon="-1.65877">
        <ele>5.4</ele>
        <time>2021-07-18T08:40:42Z</time>
      </trkpt>
      <trkpt lat="43.38869" lon="-1.65872">
        <ele>5.5</ele>
        <time>2021-07-18T08:40:43Z</time>
      </trkpt>
      <trkpt lat="43.38871" lon="-1.65867">
        <ele>5.6</ele>
        <time>2021-07-18T08:40:44Z</time>
      </trkpt>
      <trkpt lat="43.38873" lon="-1.65863">
        <ele>5.6</ele>
        <time>2021-07-18T08:40:45Z</time>
      </trkpt>
      <trkpt lat="43.38875" lon="-1.65859">
        <ele>5.7</ele>
        <time>2021-07-18T08:40:46Z</time>
      </trkpt>
      <trkpt lat="43.38877" lon="-1.65853">
        <ele>5.7</ele>
        <time>2021-07-18T08:40:48Z</time>
      </trkpt>
      <trkpt lat="43.3888" lon="-1.65847">
        <ele>5.8</ele>
        <time>2021-07-18T08:40:49Z</time>
      </trkpt>
      <trkpt lat="43.38882" lon="-1.65841">
        <ele>5.9</ele>
        <time>2021-07-18T08:40:50Z</time>
      </trkpt>
      <trkpt lat="43.38884" lon="-1.65838">
        <ele>5.9</ele>
        <time>2021-07-18T08:40:51Z</time>
      </trkpt>
      <trkpt lat="43.38886" lon="-1.65835">
        <ele>6</ele>
        <time>2021-07-18T08:40:52Z</time>
      </trkpt>
      <trkpt lat="43.38889" lon="-1.65831">
        <ele>6.1</ele>
        <time>2021-07-18T08:40:53Z</time>
      </trkpt>
      <trkpt lat="43.38892" lon="-1.65827">
        <ele>6.1</ele>
        <time>2021-07-18T08:40:55Z</time>
      </trkpt>
      <trkpt lat="43.38894" lon="-1.65824">
        <ele>6.2</ele>
        <time>2021-07-18T08:40:56Z</time>
      </trkpt>
      <trkpt lat="43.38897" lon="-1.65821">
        <ele>6.2</ele>
        <time>2021-07-18T08:40:57Z</time>
      </trkpt>
      <trkpt lat="43.38901" lon="-1.65817">
        <ele>6.3</ele>
        <time>2021-07-18T08:40:59Z</time>
      </trkpt>
      <trkpt lat="43.38905" lon="-1.65813">
        <ele>6.4</ele>
        <time>2021-07-18T08:41:01Z</time>
      </trkpt>
      <trkpt lat="43.38906" lon="-1.65813">
        <ele>6.4</ele>
        <time>2021-07-18T08:41:02Z</time>
      </trkpt>
      <trkpt lat="43.38906" lon="-1.65811">
        <ele>6.4</ele>
        <time>2021-07-18T08:41:03Z</time>
      </trkpt>
      <trkpt lat="43.38902" lon="-1.6581">
        <ele>6.4</ele>
        <time>2021-07-18T08:41:05Z</time>
      </trkpt>
      <trkpt lat="43.38902" lon="-1.65808">
        <ele>6.5</ele>
        <time>2021-07-18T08:41:06Z</time>
      </trkpt>
      <trkpt lat="43.38902" lon="-1.65807">
        <ele>6.5</ele>
        <time>2021-07-18T08:41:07Z</time>
      </trkpt>
      <trkpt lat="43.38903" lon="-1.65807">
        <ele>6.5</ele>
        <time>2021-07-18T08:41:09Z</time>
      </trkpt>
      <trkpt lat="43.38902" lon="-1.65807">
        <ele>6.5</ele>
        <time>2021-07-18T08:41:10Z</time>
      </trkpt>
      <trkpt lat="43.38902" lon="-1.65807">
        <ele>6.5</ele>
        <time>2021-07-18T08:41:12Z</time>
      </trkpt>
      <trkpt lat="43.38902" lon="-1.65807">
        <ele>6.5</ele>
        <time>2021-07-18T08:41:13Z</time>
      </trkpt>
      <trkpt lat="43.38902" lon="-1.65807">
        <ele>6.5</ele>
        <time>2021-07-18T08:41:15Z</time>
      </trkpt>
      <trkpt lat="43.38901" lon="-1.65806">
        <ele>6.5</ele>
        <time>2021-07-18T08:41:16Z</time>
      </trkpt>
      <trkpt lat="43.38901" lon="-1.65806">
        <ele>6.5</ele>
        <time>2021-07-18T08:41:18Z</time>
      </trkpt>
      <trkpt lat="43.38903" lon="-1.65805">
        <ele>6.5</ele>
        <time>2021-07-18T08:42:01Z</time>
      </trkpt>
      <trkpt lat="43.38908" lon="-1.65804">
        <ele>6.6</ele>
        <time>2021-07-18T08:42:03Z</time>
      </trkpt>
      <trkpt lat="43.3891" lon="-1.65803">
        <ele>6.6</ele>
        <time>2021-07-18T08:42:04Z</time>
      </trkpt>
      <trkpt lat="43.38913" lon="-1.65803">
        <ele>6.6</ele>
        <time>2021-07-18T08:42:05Z</time>
      </trkpt>
      <trkpt lat="43.3892" lon="-1.65805">
        <ele>6.5</ele>
        <time>2021-07-18T08:42:07Z</time>
      </trkpt>
      <trkpt lat="43.38926" lon="-1.6581">
        <ele>6.5</ele>
        <time>2021-07-18T08:42:09Z</time>
      </trkpt>
      <trkpt lat="43.38935" lon="-1.65817">
        <ele>6.4</ele>
        <time>2021-07-18T08:42:11Z</time>
      </trkpt>
      <trkpt lat="43.38944" lon="-1.65825">
        <ele>6.3</ele>
        <time>2021-07-18T08:42:13Z</time>
      </trkpt>
      <trkpt lat="43.38948" lon="-1.65829">
        <ele>6.4</ele>
        <time>2021-07-18T08:42:14Z</time>
      </trkpt>
      <trkpt lat="43.38951" lon="-1.65833">
        <ele>6.4</ele>
        <time>2021-07-18T08:42:16Z</time>
      </trkpt>
      <trkpt lat="43.38953" lon="-1.65835">
        <ele>6.4</ele>
        <time>2021-07-18T08:42:17Z</time>
      </trkpt>
      <trkpt lat="43.38957" lon="-1.6584">
        <ele>6.5</ele>
        <time>2021-07-18T08:42:19Z</time>
      </trkpt>
      <trkpt lat="43.38962" lon="-1.65846">
        <ele>6.6</ele>
        <time>2021-07-18T08:42:20Z</time>
      </trkpt>
      <trkpt lat="43.38967" lon="-1.65853">
        <ele>6.7</ele>
        <time>2021-07-18T08:42:22Z</time>
      </trkpt>
      <trkpt lat="43.38971" lon="-1.65858">
        <ele>6.8</ele>
        <time>2021-07-18T08:42:23Z</time>
      </trkpt>
      <trkpt lat="43.38976" lon="-1.65865">
        <ele>6.9</ele>
        <time>2021-07-18T08:42:25Z</time>
      </trkpt>
      <trkpt lat="43.38982" lon="-1.65871">
        <ele>7.1</ele>
        <time>2021-07-18T08:42:27Z</time>
      </trkpt>
      <trkpt lat="43.38985" lon="-1.65875">
        <ele>7.2</ele>
        <time>2021-07-18T08:42:29Z</time>
      </trkpt>
      <trkpt lat="43.38989" lon="-1.65878">
        <ele>7.3</ele>
        <time>2021-07-18T08:42:30Z</time>
      </trkpt>
      <trkpt lat="43.38991" lon="-1.6588">
        <ele>7.4</ele>
        <time>2021-07-18T08:42:31Z</time>
      </trkpt>
      <trkpt lat="43.38996" lon="-1.65884">
        <ele>7.6</ele>
        <time>2021-07-18T08:42:33Z</time>
      </trkpt>
      <trkpt lat="43.38999" lon="-1.65886">
        <ele>7.7</ele>
        <time>2021-07-18T08:42:34Z</time>
      </trkpt>
      <trkpt lat="43.39004" lon="-1.65887">
        <ele>7.8</ele>
        <time>2021-07-18T08:42:36Z</time>
      </trkpt>
      <trkpt lat="43.39008" lon="-1.65889">
        <ele>7.9</ele>
        <time>2021-07-18T08:42:38Z</time>
      </trkpt>
      <trkpt lat="43.39013" lon="-1.6589">
        <ele>8</ele>
        <time>2021-07-18T08:42:40Z</time>
      </trkpt>
      <trkpt lat="43.39018" lon="-1.65892">
        <ele>8.1</ele>
        <time>2021-07-18T08:42:42Z</time>
      </trkpt>
      <trkpt lat="43.39022" lon="-1.65893">
        <ele>8.1</ele>
        <time>2021-07-18T08:42:43Z</time>
      </trkpt>
      <trkpt lat="43.39026" lon="-1.65895">
        <ele>8.2</ele>
        <time>2021-07-18T08:42:44Z</time>
      </trkpt>
      <trkpt lat="43.39031" lon="-1.65897">
        <ele>8.3</ele>
        <time>2021-07-18T08:42:45Z</time>
      </trkpt>
      <trkpt lat="43.39036" lon="-1.65898">
        <ele>8.4</ele>
        <time>2021-07-18T08:42:47Z</time>
      </trkpt>
      <trkpt lat="43.39041" lon="-1.65899">
        <ele>8.4</ele>
        <time>2021-07-18T08:42:49Z</time>
      </trkpt>
      <trkpt lat="43.39044" lon="-1.659">
        <ele>8.5</ele>
        <time>2021-07-18T08:42:50Z</time>
      </trkpt>
      <trkpt lat="43.39047" lon="-1.65902">
        <ele>8.5</ele>
        <time>2021-07-18T08:42:51Z</time>
      </trkpt>
      <trkpt lat="43.3905" lon="-1.65903">
        <ele>8.6</ele>
        <time>2021-07-18T08:42:52Z</time>
      </trkpt>
      <trkpt lat="43.39057" lon="-1.65904">
        <ele>8.6</ele>
        <time>2021-07-18T08:42:54Z</time>
      </trkpt>
      <trkpt lat="43.39061" lon="-1.65906">
        <ele>8.7</ele>
        <time>2021-07-18T08:42:55Z</time>
      </trkpt>
      <trkpt lat="43.39066" lon="-1.65907">
        <ele>8.7</ele>
        <time>2021-07-18T08:42:56Z</time>
      </trkpt>
      <trkpt lat="43.39072" lon="-1.65908">
        <ele>8.8</ele>
        <time>2021-07-18T08:42:58Z</time>
      </trkpt>
      <trkpt lat="43.39077" lon="-1.65907">
        <ele>8.8</ele>
        <time>2021-07-18T08:42:59Z</time>
      </trkpt>
      <trkpt lat="43.39082" lon="-1.65909">
        <ele>8.8</ele>
        <time>2021-07-18T08:43:00Z</time>
      </trkpt>
      <trkpt lat="43.39086" lon="-1.65913">
        <ele>8.8</ele>
        <time>2021-07-18T08:43:01Z</time>
      </trkpt>
      <trkpt lat="43.39092" lon="-1.65916">
        <ele>8.8</ele>
        <time>2021-07-18T08:43:03Z</time>
      </trkpt>
      <trkpt lat="43.39099" lon="-1.65917">
        <ele>8.8</ele>
        <time>2021-07-18T08:43:04Z</time>
      </trkpt>
      <trkpt lat="43.39114" lon="-1.65922">
        <ele>8.8</ele>
        <time>2021-07-18T08:43:06Z</time>
      </trkpt>
      <trkpt lat="43.39122" lon="-1.65924">
        <ele>8.8</ele>
        <time>2021-07-18T08:43:08Z</time>
      </trkpt>
      <trkpt lat="43.39129" lon="-1.65927">
        <ele>8.8</ele>
        <time>2021-07-18T08:43:09Z</time>
      </trkpt>
      <trkpt lat="43.39133" lon="-1.65929">
        <ele>8.8</ele>
        <time>2021-07-18T08:43:10Z</time>
      </trkpt>
      <trkpt lat="43.39141" lon="-1.6593">
        <ele>8.8</ele>
        <time>2021-07-18T08:43:12Z</time>
      </trkpt>
      <trkpt lat="43.39137" lon="-1.65931">
        <ele>8.8</ele>
        <time>2021-07-18T08:43:13Z</time>
      </trkpt>
      <trkpt lat="43.39144" lon="-1.6593">
        <ele>8.8</ele>
        <time>2021-07-18T08:43:14Z</time>
      </trkpt>
      <trkpt lat="43.39153" lon="-1.65931">
        <ele>8.8</ele>
        <time>2021-07-18T08:43:16Z</time>
      </trkpt>
      <trkpt lat="43.39163" lon="-1.65933">
        <ele>8.7</ele>
        <time>2021-07-18T08:43:17Z</time>
      </trkpt>
      <trkpt lat="43.39168" lon="-1.6593">
        <ele>8.7</ele>
        <time>2021-07-18T08:43:18Z</time>
      </trkpt>
      <trkpt lat="43.39179" lon="-1.65935">
        <ele>8.6</ele>
        <time>2021-07-18T08:43:20Z</time>
      </trkpt>
      <trkpt lat="43.39189" lon="-1.65939">
        <ele>8.6</ele>
        <time>2021-07-18T08:43:22Z</time>
      </trkpt>
      <trkpt lat="43.39195" lon="-1.6594">
        <ele>8.5</ele>
        <time>2021-07-18T08:43:23Z</time>
      </trkpt>
      <trkpt lat="43.39199" lon="-1.65941">
        <ele>8.5</ele>
        <time>2021-07-18T08:43:24Z</time>
      </trkpt>
      <trkpt lat="43.39208" lon="-1.65943">
        <ele>8.4</ele>
        <time>2021-07-18T08:43:26Z</time>
      </trkpt>
      <trkpt lat="43.39213" lon="-1.65945">
        <ele>8.4</ele>
        <time>2021-07-18T08:43:27Z</time>
      </trkpt>
      <trkpt lat="43.39224" lon="-1.65948">
        <ele>8.3</ele>
        <time>2021-07-18T08:43:29Z</time>
      </trkpt>
      <trkpt lat="43.39229" lon="-1.65949">
        <ele>8.2</ele>
        <time>2021-07-18T08:43:30Z</time>
      </trkpt>
      <trkpt lat="43.3924" lon="-1.65953">
        <ele>8.1</ele>
        <time>2021-07-18T08:43:32Z</time>
      </trkpt>
      <trkpt lat="43.39249" lon="-1.65955">
        <ele>8</ele>
        <time>2021-07-18T08:43:34Z</time>
      </trkpt>
      <trkpt lat="43.39259" lon="-1.65959">
        <ele>7.9</ele>
        <time>2021-07-18T08:43:36Z</time>
      </trkpt>
      <trkpt lat="43.39265" lon="-1.65961">
        <ele>7.8</ele>
        <time>2021-07-18T08:43:37Z</time>
      </trkpt>
      <trkpt lat="43.39269" lon="-1.65962">
        <ele>7.8</ele>
        <time>2021-07-18T08:43:38Z</time>
      </trkpt>
      <trkpt lat="43.39278" lon="-1.65964">
        <ele>7.7</ele>
        <time>2021-07-18T08:43:40Z</time>
      </trkpt>
      <trkpt lat="43.39283" lon="-1.65965">
        <ele>7.6</ele>
        <time>2021-07-18T08:43:41Z</time>
      </trkpt>
      <trkpt lat="43.39295" lon="-1.65968">
        <ele>7.5</ele>
        <time>2021-07-18T08:43:43Z</time>
      </trkpt>
      <trkpt lat="43.393" lon="-1.65968">
        <ele>7.4</ele>
        <time>2021-07-18T08:43:44Z</time>
      </trkpt>
      <trkpt lat="43.39305" lon="-1.65968">
        <ele>7.4</ele>
        <time>2021-07-18T08:43:45Z</time>
      </trkpt>
      <trkpt lat="43.3931" lon="-1.65968">
        <ele>7.3</ele>
        <time>2021-07-18T08:43:46Z</time>
      </trkpt>
      <trkpt lat="43.3932" lon="-1.65969">
        <ele>7.3</ele>
        <time>2021-07-18T08:43:48Z</time>
      </trkpt>
      <trkpt lat="43.39326" lon="-1.6597">
        <ele>7.2</ele>
        <time>2021-07-18T08:43:49Z</time>
      </trkpt>
      <trkpt lat="43.39335" lon="-1.65973">
        <ele>7.2</ele>
        <time>2021-07-18T08:43:51Z</time>
      </trkpt>
      <trkpt lat="43.39341" lon="-1.65974">
        <ele>7.2</ele>
        <time>2021-07-18T08:43:52Z</time>
      </trkpt>
      <trkpt lat="43.39351" lon="-1.65975">
        <ele>7.1</ele>
        <time>2021-07-18T08:43:54Z</time>
      </trkpt>
      <trkpt lat="43.3936" lon="-1.65976">
        <ele>7.1</ele>
        <time>2021-07-18T08:43:56Z</time>
      </trkpt>
      <trkpt lat="43.3937" lon="-1.65976">
        <ele>7</ele>
        <time>2021-07-18T08:43:58Z</time>
      </trkpt>
      <trkpt lat="43.39379" lon="-1.65977">
        <ele>7</ele>
        <time>2021-07-18T08:44:00Z</time>
      </trkpt>
      <trkpt lat="43.39384" lon="-1.65977">
        <ele>6.9</ele>
        <time>2021-07-18T08:44:01Z</time>
      </trkpt>
      <trkpt lat="43.39391" lon="-1.65979">
        <ele>6.9</ele>
        <time>2021-07-18T08:44:03Z</time>
      </trkpt>
      <trkpt lat="43.39396" lon="-1.65981">
        <ele>6.9</ele>
        <time>2021-07-18T08:44:04Z</time>
      </trkpt>
      <trkpt lat="43.394" lon="-1.65982">
        <ele>6.9</ele>
        <time>2021-07-18T08:44:05Z</time>
      </trkpt>
      <trkpt lat="43.39407" lon="-1.65984">
        <ele>6.9</ele>
        <time>2021-07-18T08:44:07Z</time>
      </trkpt>
      <trkpt lat="43.39412" lon="-1.65985">
        <ele>6.9</ele>
        <time>2021-07-18T08:44:08Z</time>
      </trkpt>
      <trkpt lat="43.39411" lon="-1.65979">
        <ele>6.9</ele>
        <time>2021-07-18T08:44:10Z</time>
      </trkpt>
      <trkpt lat="43.39419" lon="-1.65981">
        <ele>6.9</ele>
        <time>2021-07-18T08:44:11Z</time>
      </trkpt>
      <trkpt lat="43.39425" lon="-1.65984">
        <ele>6.9</ele>
        <time>2021-07-18T08:44:12Z</time>
      </trkpt>
      <trkpt lat="43.39435" lon="-1.65988">
        <ele>6.9</ele>
        <time>2021-07-18T08:44:14Z</time>
      </trkpt>
      <trkpt lat="43.3944" lon="-1.65989">
        <ele>6.9</ele>
        <time>2021-07-18T08:44:15Z</time>
      </trkpt>
      <trkpt lat="43.39445" lon="-1.6599">
        <ele>6.9</ele>
        <time>2021-07-18T08:44:16Z</time>
      </trkpt>
      <trkpt lat="43.39451" lon="-1.65992">
        <ele>6.9</ele>
        <time>2021-07-18T08:44:17Z</time>
      </trkpt>
      <trkpt lat="43.39458" lon="-1.65994">
        <ele>6.9</ele>
        <time>2021-07-18T08:44:19Z</time>
      </trkpt>
      <trkpt lat="43.39462" lon="-1.65995">
        <ele>6.9</ele>
        <time>2021-07-18T08:44:20Z</time>
      </trkpt>
      <trkpt lat="43.39468" lon="-1.65995">
        <ele>6.9</ele>
        <time>2021-07-18T08:44:22Z</time>
      </trkpt>
      <trkpt lat="43.39474" lon="-1.65996">
        <ele>7</ele>
        <time>2021-07-18T08:44:23Z</time>
      </trkpt>
      <trkpt lat="43.39478" lon="-1.65996">
        <ele>7</ele>
        <time>2021-07-18T08:44:24Z</time>
      </trkpt>
      <trkpt lat="43.39482" lon="-1.65997">
        <ele>7</ele>
        <time>2021-07-18T08:44:25Z</time>
      </trkpt>
      <trkpt lat="43.39486" lon="-1.65998">
        <ele>7</ele>
        <time>2021-07-18T08:44:26Z</time>
      </trkpt>
      <trkpt lat="43.39492" lon="-1.65999">
        <ele>7.1</ele>
        <time>2021-07-18T08:44:28Z</time>
      </trkpt>
      <trkpt lat="43.39497" lon="-1.65999">
        <ele>7.2</ele>
        <time>2021-07-18T08:44:29Z</time>
      </trkpt>
      <trkpt lat="43.39502" lon="-1.65998">
        <ele>7.2</ele>
        <time>2021-07-18T08:44:31Z</time>
      </trkpt>
      <trkpt lat="43.39507" lon="-1.65998">
        <ele>7.3</ele>
        <time>2021-07-18T08:44:32Z</time>
      </trkpt>
      <trkpt lat="43.39511" lon="-1.65998">
        <ele>7.3</ele>
        <time>2021-07-18T08:44:33Z</time>
      </trkpt>
      <trkpt lat="43.39514" lon="-1.66">
        <ele>7.3</ele>
        <time>2021-07-18T08:44:34Z</time>
      </trkpt>
      <trkpt lat="43.3952" lon="-1.66003">
        <ele>7.3</ele>
        <time>2021-07-18T08:44:36Z</time>
      </trkpt>
      <trkpt lat="43.39524" lon="-1.66006">
        <ele>7.4</ele>
        <time>2021-07-18T08:44:37Z</time>
      </trkpt>
      <trkpt lat="43.39529" lon="-1.66007">
        <ele>7.4</ele>
        <time>2021-07-18T08:44:38Z</time>
      </trkpt>
      <trkpt lat="43.39533" lon="-1.66007">
        <ele>7.4</ele>
        <time>2021-07-18T08:44:39Z</time>
      </trkpt>
      <trkpt lat="43.39541" lon="-1.66008">
        <ele>7.4</ele>
        <time>2021-07-18T08:44:41Z</time>
      </trkpt>
      <trkpt lat="43.39545" lon="-1.66007">
        <ele>7.4</ele>
        <time>2021-07-18T08:44:42Z</time>
      </trkpt>
      <trkpt lat="43.39549" lon="-1.66007">
        <ele>7.5</ele>
        <time>2021-07-18T08:44:43Z</time>
      </trkpt>
      <trkpt lat="43.39553" lon="-1.66008">
        <ele>7.5</ele>
        <time>2021-07-18T08:44:44Z</time>
      </trkpt>
      <trkpt lat="43.39557" lon="-1.6601">
        <ele>7.5</ele>
        <time>2021-07-18T08:44:45Z</time>
      </trkpt>
      <trkpt lat="43.39562" lon="-1.66013">
        <ele>7.5</ele>
        <time>2021-07-18T08:44:47Z</time>
      </trkpt>
      <trkpt lat="43.39566" lon="-1.66013">
        <ele>7.6</ele>
        <time>2021-07-18T08:44:49Z</time>
      </trkpt>
      <trkpt lat="43.3957" lon="-1.66014">
        <ele>7.6</ele>
        <time>2021-07-18T08:44:50Z</time>
      </trkpt>
      <trkpt lat="43.39571" lon="-1.66014">
        <ele>7.6</ele>
        <time>2021-07-18T08:44:51Z</time>
      </trkpt>
      <trkpt lat="43.39576" lon="-1.66015">
        <ele>7.6</ele>
        <time>2021-07-18T08:44:53Z</time>
      </trkpt>
      <trkpt lat="43.39582" lon="-1.66016">
        <ele>7.7</ele>
        <time>2021-07-18T08:44:55Z</time>
      </trkpt>
      <trkpt lat="43.39586" lon="-1.66016">
        <ele>7.7</ele>
        <time>2021-07-18T08:44:56Z</time>
      </trkpt>
      <trkpt lat="43.39593" lon="-1.66018">
        <ele>7.7</ele>
        <time>2021-07-18T08:44:58Z</time>
      </trkpt>
      <trkpt lat="43.396" lon="-1.66019">
        <ele>7.8</ele>
        <time>2021-07-18T08:45:00Z</time>
      </trkpt>
      <trkpt lat="43.39606" lon="-1.6602">
        <ele>7.8</ele>
        <time>2021-07-18T08:45:02Z</time>
      </trkpt>
      <trkpt lat="43.39611" lon="-1.6602">
        <ele>7.9</ele>
        <time>2021-07-18T08:45:03Z</time>
      </trkpt>
      <trkpt lat="43.39615" lon="-1.6602">
        <ele>7.9</ele>
        <time>2021-07-18T08:45:04Z</time>
      </trkpt>
      <trkpt lat="43.39619" lon="-1.66021">
        <ele>7.9</ele>
        <time>2021-07-18T08:45:05Z</time>
      </trkpt>
      <trkpt lat="43.39624" lon="-1.66022">
        <ele>7.9</ele>
        <time>2021-07-18T08:45:07Z</time>
      </trkpt>
      <trkpt lat="43.39629" lon="-1.66023">
        <ele>7.9</ele>
        <time>2021-07-18T08:45:08Z</time>
      </trkpt>
      <trkpt lat="43.39632" lon="-1.66024">
        <ele>8</ele>
        <time>2021-07-18T08:45:09Z</time>
      </trkpt>
      <trkpt lat="43.39638" lon="-1.66025">
        <ele>8</ele>
        <time>2021-07-18T08:45:11Z</time>
      </trkpt>
      <trkpt lat="43.39642" lon="-1.66026">
        <ele>8</ele>
        <time>2021-07-18T08:45:12Z</time>
      </trkpt>
      <trkpt lat="43.39646" lon="-1.66027">
        <ele>8</ele>
        <time>2021-07-18T08:45:13Z</time>
      </trkpt>
      <trkpt lat="43.39652" lon="-1.66029">
        <ele>8</ele>
        <time>2021-07-18T08:45:15Z</time>
      </trkpt>
      <trkpt lat="43.39656" lon="-1.6603">
        <ele>8</ele>
        <time>2021-07-18T08:45:16Z</time>
      </trkpt>
      <trkpt lat="43.39662" lon="-1.66031">
        <ele>8</ele>
        <time>2021-07-18T08:45:18Z</time>
      </trkpt>
      <trkpt lat="43.39665" lon="-1.66032">
        <ele>8.1</ele>
        <time>2021-07-18T08:45:19Z</time>
      </trkpt>
      <trkpt lat="43.39672" lon="-1.66033">
        <ele>8.1</ele>
        <time>2021-07-18T08:45:21Z</time>
      </trkpt>
      <trkpt lat="43.39675" lon="-1.66035">
        <ele>8.1</ele>
        <time>2021-07-18T08:45:22Z</time>
      </trkpt>
      <trkpt lat="43.39677" lon="-1.66036">
        <ele>8.1</ele>
        <time>2021-07-18T08:45:23Z</time>
      </trkpt>
      <trkpt lat="43.39679" lon="-1.66039">
        <ele>8.1</ele>
        <time>2021-07-18T08:45:25Z</time>
      </trkpt>
      <trkpt lat="43.39684" lon="-1.66039">
        <ele>8.2</ele>
        <time>2021-07-18T08:45:27Z</time>
      </trkpt>
      <trkpt lat="43.39687" lon="-1.66039">
        <ele>8.2</ele>
        <time>2021-07-18T08:45:28Z</time>
      </trkpt>
      <trkpt lat="43.39693" lon="-1.6604">
        <ele>8.3</ele>
        <time>2021-07-18T08:45:30Z</time>
      </trkpt>
      <trkpt lat="43.39696" lon="-1.66041">
        <ele>8.3</ele>
        <time>2021-07-18T08:45:31Z</time>
      </trkpt>
      <trkpt lat="43.39703" lon="-1.66044">
        <ele>8.4</ele>
        <time>2021-07-18T08:45:33Z</time>
      </trkpt>
      <trkpt lat="43.39706" lon="-1.66046">
        <ele>8.5</ele>
        <time>2021-07-18T08:45:34Z</time>
      </trkpt>
      <trkpt lat="43.39713" lon="-1.66048">
        <ele>8.6</ele>
        <time>2021-07-18T08:45:36Z</time>
      </trkpt>
      <trkpt lat="43.39717" lon="-1.66049">
        <ele>8.6</ele>
        <time>2021-07-18T08:45:37Z</time>
      </trkpt>
      <trkpt lat="43.39722" lon="-1.66051">
        <ele>8.7</ele>
        <time>2021-07-18T08:45:39Z</time>
      </trkpt>
      <trkpt lat="43.39725" lon="-1.66052">
        <ele>8.7</ele>
        <time>2021-07-18T08:45:40Z</time>
      </trkpt>
      <trkpt lat="43.39729" lon="-1.66055">
        <ele>8.8</ele>
        <time>2021-07-18T08:45:42Z</time>
      </trkpt>
      <trkpt lat="43.39731" lon="-1.66057">
        <ele>9</ele>
        <time>2021-07-18T08:45:43Z</time>
      </trkpt>
      <trkpt lat="43.39734" lon="-1.66059">
        <ele>9.1</ele>
        <time>2021-07-18T08:45:44Z</time>
      </trkpt>
      <trkpt lat="43.39737" lon="-1.66058">
        <ele>9.3</ele>
        <time>2021-07-18T08:45:45Z</time>
      </trkpt>
      <trkpt lat="43.39741" lon="-1.66058">
        <ele>9.5</ele>
        <time>2021-07-18T08:45:47Z</time>
      </trkpt>
      <trkpt lat="43.39745" lon="-1.66057">
        <ele>9.7</ele>
        <time>2021-07-18T08:45:49Z</time>
      </trkpt>
      <trkpt lat="43.39748" lon="-1.66055">
        <ele>9.8</ele>
        <time>2021-07-18T08:45:50Z</time>
      </trkpt>
      <trkpt lat="43.3975" lon="-1.66053">
        <ele>10</ele>
        <time>2021-07-18T08:45:51Z</time>
      </trkpt>
      <trkpt lat="43.39754" lon="-1.66054">
        <ele>10.2</ele>
        <time>2021-07-18T08:45:53Z</time>
      </trkpt>
      <trkpt lat="43.39758" lon="-1.66056">
        <ele>10.4</ele>
        <time>2021-07-18T08:45:55Z</time>
      </trkpt>
      <trkpt lat="43.39762" lon="-1.66057">
        <ele>10.6</ele>
        <time>2021-07-18T08:45:57Z</time>
      </trkpt>
      <trkpt lat="43.39766" lon="-1.66058">
        <ele>10.8</ele>
        <time>2021-07-18T08:45:58Z</time>
      </trkpt>
      <trkpt lat="43.39767" lon="-1.66059">
        <ele>10.8</ele>
        <time>2021-07-18T08:45:59Z</time>
      </trkpt>
      <trkpt lat="43.3977" lon="-1.66061">
        <ele>11</ele>
        <time>2021-07-18T08:46:01Z</time>
      </trkpt>
      <trkpt lat="43.39772" lon="-1.66063">
        <ele>11.1</ele>
        <time>2021-07-18T08:46:02Z</time>
      </trkpt>
      <trkpt lat="43.39776" lon="-1.66066">
        <ele>11.4</ele>
        <time>2021-07-18T08:46:04Z</time>
      </trkpt>
      <trkpt lat="43.39777" lon="-1.66068">
        <ele>11.5</ele>
        <time>2021-07-18T08:46:05Z</time>
      </trkpt>
      <trkpt lat="43.3978" lon="-1.66071">
        <ele>11.7</ele>
        <time>2021-07-18T08:46:07Z</time>
      </trkpt>
      <trkpt lat="43.39783" lon="-1.66074">
        <ele>11.8</ele>
        <time>2021-07-18T08:46:09Z</time>
      </trkpt>
      <trkpt lat="43.39784" lon="-1.66074">
        <ele>11.9</ele>
        <time>2021-07-18T08:46:10Z</time>
      </trkpt>
      <trkpt lat="43.39787" lon="-1.66077">
        <ele>12.1</ele>
        <time>2021-07-18T08:46:11Z</time>
      </trkpt>
      <trkpt lat="43.39787" lon="-1.66078">
        <ele>12.1</ele>
        <time>2021-07-18T08:46:12Z</time>
      </trkpt>
      <trkpt lat="43.39791" lon="-1.6608">
        <ele>12.3</ele>
        <time>2021-07-18T08:46:14Z</time>
      </trkpt>
      <trkpt lat="43.39792" lon="-1.66081">
        <ele>12.4</ele>
        <time>2021-07-18T08:46:15Z</time>
      </trkpt>
      <trkpt lat="43.39795" lon="-1.66085">
        <ele>12.6</ele>
        <time>2021-07-18T08:46:17Z</time>
      </trkpt>
      <trkpt lat="43.39797" lon="-1.66087">
        <ele>12.7</ele>
        <time>2021-07-18T08:46:18Z</time>
      </trkpt>
      <trkpt lat="43.39801" lon="-1.66091">
        <ele>13</ele>
        <time>2021-07-18T08:46:20Z</time>
      </trkpt>
      <trkpt lat="43.39804" lon="-1.66093">
        <ele>13.2</ele>
        <time>2021-07-18T08:46:21Z</time>
      </trkpt>
      <trkpt lat="43.39805" lon="-1.66094">
        <ele>13.2</ele>
        <time>2021-07-18T08:46:22Z</time>
      </trkpt>
      <trkpt lat="43.39807" lon="-1.66097">
        <ele>13.4</ele>
        <time>2021-07-18T08:46:23Z</time>
      </trkpt>
      <trkpt lat="43.39811" lon="-1.661">
        <ele>13.7</ele>
        <time>2021-07-18T08:46:25Z</time>
      </trkpt>
      <trkpt lat="43.39812" lon="-1.66102">
        <ele>13.7</ele>
        <time>2021-07-18T08:46:26Z</time>
      </trkpt>
      <trkpt lat="43.39815" lon="-1.66104">
        <ele>13.9</ele>
        <time>2021-07-18T08:46:27Z</time>
      </trkpt>
      <trkpt lat="43.39816" lon="-1.66105">
        <ele>14</ele>
        <time>2021-07-18T08:46:28Z</time>
      </trkpt>
      <trkpt lat="43.3982" lon="-1.66106">
        <ele>14.2</ele>
        <time>2021-07-18T08:46:30Z</time>
      </trkpt>
      <trkpt lat="43.39823" lon="-1.66108">
        <ele>14.4</ele>
        <time>2021-07-18T08:46:31Z</time>
      </trkpt>
      <trkpt lat="43.39825" lon="-1.66111">
        <ele>14.6</ele>
        <time>2021-07-18T08:46:32Z</time>
      </trkpt>
      <trkpt lat="43.39826" lon="-1.66112">
        <ele>14.7</ele>
        <time>2021-07-18T08:46:33Z</time>
      </trkpt>
      <trkpt lat="43.3983" lon="-1.66116">
        <ele>14.9</ele>
        <time>2021-07-18T08:46:35Z</time>
      </trkpt>
      <trkpt lat="43.39832" lon="-1.66118">
        <ele>15.1</ele>
        <time>2021-07-18T08:46:36Z</time>
      </trkpt>
      <trkpt lat="43.39834" lon="-1.66122">
        <ele>15.3</ele>
        <time>2021-07-18T08:46:37Z</time>
      </trkpt>
      <trkpt lat="43.39837" lon="-1.66126">
        <ele>15.5</ele>
        <time>2021-07-18T08:46:39Z</time>
      </trkpt>
      <trkpt lat="43.39839" lon="-1.66128">
        <ele>15.6</ele>
        <time>2021-07-18T08:46:40Z</time>
      </trkpt>
      <trkpt lat="43.39842" lon="-1.66132">
        <ele>15.9</ele>
        <time>2021-07-18T08:46:42Z</time>
      </trkpt>
      <trkpt lat="43.39846" lon="-1.66136">
        <ele>16.2</ele>
        <time>2021-07-18T08:46:44Z</time>
      </trkpt>
      <trkpt lat="43.39849" lon="-1.6614">
        <ele>16.4</ele>
        <time>2021-07-18T08:46:45Z</time>
      </trkpt>
      <trkpt lat="43.3985" lon="-1.66141">
        <ele>16.5</ele>
        <time>2021-07-18T08:46:46Z</time>
      </trkpt>
      <trkpt lat="43.39852" lon="-1.66143">
        <ele>16.6</ele>
        <time>2021-07-18T08:46:47Z</time>
      </trkpt>
      <trkpt lat="43.39855" lon="-1.66145">
        <ele>16.8</ele>
        <time>2021-07-18T08:46:49Z</time>
      </trkpt>
      <trkpt lat="43.39859" lon="-1.66149">
        <ele>17</ele>
        <time>2021-07-18T08:46:50Z</time>
      </trkpt>
      <trkpt lat="43.3986" lon="-1.66151">
        <ele>17.2</ele>
        <time>2021-07-18T08:46:51Z</time>
      </trkpt>
      <trkpt lat="43.39863" lon="-1.66155">
        <ele>17.4</ele>
        <time>2021-07-18T08:46:53Z</time>
      </trkpt>
      <trkpt lat="43.39866" lon="-1.66157">
        <ele>17.6</ele>
        <time>2021-07-18T08:46:54Z</time>
      </trkpt>
      <trkpt lat="43.39869" lon="-1.66161">
        <ele>17.8</ele>
        <time>2021-07-18T08:46:55Z</time>
      </trkpt>
      <trkpt lat="43.39869" lon="-1.66162">
        <ele>17.9</ele>
        <time>2021-07-18T08:46:56Z</time>
      </trkpt>
      <trkpt lat="43.39873" lon="-1.66166">
        <ele>18.1</ele>
        <time>2021-07-18T08:46:58Z</time>
      </trkpt>
      <trkpt lat="43.39877" lon="-1.66169">
        <ele>18.4</ele>
        <time>2021-07-18T08:47:00Z</time>
      </trkpt>
      <trkpt lat="43.3988" lon="-1.66171">
        <ele>18.6</ele>
        <time>2021-07-18T08:47:01Z</time>
      </trkpt>
      <trkpt lat="43.39883" lon="-1.66174">
        <ele>18.8</ele>
        <time>2021-07-18T08:47:03Z</time>
      </trkpt>
      <trkpt lat="43.39885" lon="-1.66175">
        <ele>18.9</ele>
        <time>2021-07-18T08:47:04Z</time>
      </trkpt>
      <trkpt lat="43.39888" lon="-1.66177">
        <ele>19.1</ele>
        <time>2021-07-18T08:47:05Z</time>
      </trkpt>
      <trkpt lat="43.3989" lon="-1.66179">
        <ele>19.3</ele>
        <time>2021-07-18T08:47:06Z</time>
      </trkpt>
      <trkpt lat="43.39893" lon="-1.66182">
        <ele>19.5</ele>
        <time>2021-07-18T08:47:08Z</time>
      </trkpt>
      <trkpt lat="43.39896" lon="-1.66184">
        <ele>19.6</ele>
        <time>2021-07-18T08:47:09Z</time>
      </trkpt>
      <trkpt lat="43.39899" lon="-1.66187">
        <ele>19.9</ele>
        <time>2021-07-18T08:47:11Z</time>
      </trkpt>
      <trkpt lat="43.39902" lon="-1.66189">
        <ele>20.1</ele>
        <time>2021-07-18T08:47:12Z</time>
      </trkpt>
      <trkpt lat="43.39905" lon="-1.66192">
        <ele>20.3</ele>
        <time>2021-07-18T08:47:14Z</time>
      </trkpt>
      <trkpt lat="43.39907" lon="-1.66195">
        <ele>20.4</ele>
        <time>2021-07-18T08:47:15Z</time>
      </trkpt>
      <trkpt lat="43.3991" lon="-1.66197">
        <ele>20.7</ele>
        <time>2021-07-18T08:47:17Z</time>
      </trkpt>
      <trkpt lat="43.39913" lon="-1.66201">
        <ele>20.9</ele>
        <time>2021-07-18T08:47:18Z</time>
      </trkpt>
      <trkpt lat="43.39914" lon="-1.66203">
        <ele>21</ele>
        <time>2021-07-18T08:47:19Z</time>
      </trkpt>
      <trkpt lat="43.39916" lon="-1.66206">
        <ele>21.2</ele>
        <time>2021-07-18T08:47:20Z</time>
      </trkpt>
      <trkpt lat="43.39918" lon="-1.66211">
        <ele>21.4</ele>
        <time>2021-07-18T08:47:22Z</time>
      </trkpt>
      <trkpt lat="43.39919" lon="-1.66213">
        <ele>21.5</ele>
        <time>2021-07-18T08:47:23Z</time>
      </trkpt>
      <trkpt lat="43.3992" lon="-1.66215">
        <ele>21.6</ele>
        <time>2021-07-18T08:47:24Z</time>
      </trkpt>
      <trkpt lat="43.39923" lon="-1.66219">
        <ele>21.8</ele>
        <time>2021-07-18T08:47:26Z</time>
      </trkpt>
      <trkpt lat="43.39924" lon="-1.66219">
        <ele>21.9</ele>
        <time>2021-07-18T08:47:27Z</time>
      </trkpt>
      <trkpt lat="43.39926" lon="-1.66219">
        <ele>22</ele>
        <time>2021-07-18T08:47:28Z</time>
      </trkpt>
      <trkpt lat="43.39927" lon="-1.66215">
        <ele>22.4</ele>
        <time>2021-07-18T08:47:30Z</time>
      </trkpt>
      <trkpt lat="43.39926" lon="-1.66214">
        <ele>22.5</ele>
        <time>2021-07-18T08:47:31Z</time>
      </trkpt>
      <trkpt lat="43.39928" lon="-1.66211">
        <ele>22.7</ele>
        <time>2021-07-18T08:47:32Z</time>
      </trkpt>
      <trkpt lat="43.39928" lon="-1.6621">
        <ele>22.9</ele>
        <time>2021-07-18T08:47:33Z</time>
      </trkpt>
      <trkpt lat="43.39929" lon="-1.66207">
        <ele>23</ele>
        <time>2021-07-18T08:47:35Z</time>
      </trkpt>
      <trkpt lat="43.39929" lon="-1.66205">
        <ele>23.2</ele>
        <time>2021-07-18T08:47:36Z</time>
      </trkpt>
      <trkpt lat="43.39928" lon="-1.66203">
        <ele>23.4</ele>
        <time>2021-07-18T08:47:37Z</time>
      </trkpt>
      <trkpt lat="43.39928" lon="-1.662">
        <ele>23.5</ele>
        <time>2021-07-18T08:47:39Z</time>
      </trkpt>
      <trkpt lat="43.39927" lon="-1.66197">
        <ele>23.7</ele>
        <time>2021-07-18T08:47:40Z</time>
      </trkpt>
      <trkpt lat="43.39927" lon="-1.66195">
        <ele>23.8</ele>
        <time>2021-07-18T08:47:41Z</time>
      </trkpt>
      <trkpt lat="43.39925" lon="-1.66192">
        <ele>24.1</ele>
        <time>2021-07-18T08:47:42Z</time>
      </trkpt>
      <trkpt lat="43.39924" lon="-1.66191">
        <ele>24.2</ele>
        <time>2021-07-18T08:47:43Z</time>
      </trkpt>
      <trkpt lat="43.39923" lon="-1.66187">
        <ele>24.4</ele>
        <time>2021-07-18T08:47:45Z</time>
      </trkpt>
      <trkpt lat="43.39923" lon="-1.66186">
        <ele>24.5</ele>
        <time>2021-07-18T08:47:46Z</time>
      </trkpt>
      <trkpt lat="43.39922" lon="-1.66184">
        <ele>24.7</ele>
        <time>2021-07-18T08:47:47Z</time>
      </trkpt>
      <trkpt lat="43.39921" lon="-1.6618">
        <ele>24.9</ele>
        <time>2021-07-18T08:47:49Z</time>
      </trkpt>
      <trkpt lat="43.39919" lon="-1.66177">
        <ele>25.2</ele>
        <time>2021-07-18T08:47:50Z</time>
      </trkpt>
      <trkpt lat="43.39918" lon="-1.66174">
        <ele>25.4</ele>
        <time>2021-07-18T08:47:52Z</time>
      </trkpt>
      <trkpt lat="43.39916" lon="-1.66171">
        <ele>25.7</ele>
        <time>2021-07-18T08:47:53Z</time>
      </trkpt>
      <trkpt lat="43.39914" lon="-1.66167">
        <ele>26</ele>
        <time>2021-07-18T08:47:55Z</time>
      </trkpt>
      <trkpt lat="43.39912" lon="-1.66165">
        <ele>26.4</ele>
        <time>2021-07-18T08:47:56Z</time>
      </trkpt>
      <trkpt lat="43.39911" lon="-1.66164">
        <ele>26.4</ele>
        <time>2021-07-18T08:47:57Z</time>
      </trkpt>
      <trkpt lat="43.3991" lon="-1.66163">
        <ele>26.6</ele>
        <time>2021-07-18T08:47:58Z</time>
      </trkpt>
      <trkpt lat="43.3991" lon="-1.66161">
        <ele>26.7</ele>
        <time>2021-07-18T08:47:59Z</time>
      </trkpt>
      <trkpt lat="43.39905" lon="-1.66158">
        <ele>27.2</ele>
        <time>2021-07-18T08:48:01Z</time>
      </trkpt>
      <trkpt lat="43.39901" lon="-1.66156">
        <ele>27.7</ele>
        <time>2021-07-18T08:48:03Z</time>
      </trkpt>
      <trkpt lat="43.39898" lon="-1.66155">
        <ele>28</ele>
        <time>2021-07-18T08:48:04Z</time>
      </trkpt>
      <trkpt lat="43.39897" lon="-1.66154">
        <ele>28.2</ele>
        <time>2021-07-18T08:48:05Z</time>
      </trkpt>
      <trkpt lat="43.39893" lon="-1.66151">
        <ele>28.6</ele>
        <time>2021-07-18T08:48:07Z</time>
      </trkpt>
      <trkpt lat="43.39892" lon="-1.6615">
        <ele>28.7</ele>
        <time>2021-07-18T08:48:08Z</time>
      </trkpt>
      <trkpt lat="43.39891" lon="-1.6615">
        <ele>28.9</ele>
        <time>2021-07-18T08:48:09Z</time>
      </trkpt>
      <trkpt lat="43.39889" lon="-1.66147">
        <ele>29.1</ele>
        <time>2021-07-18T08:48:11Z</time>
      </trkpt>
      <trkpt lat="43.39888" lon="-1.66145">
        <ele>29.3</ele>
        <time>2021-07-18T08:48:12Z</time>
      </trkpt>
      <trkpt lat="43.39887" lon="-1.66143">
        <ele>29.5</ele>
        <time>2021-07-18T08:48:13Z</time>
      </trkpt>
      <trkpt lat="43.39887" lon="-1.66139">
        <ele>29.7</ele>
        <time>2021-07-18T08:48:15Z</time>
      </trkpt>
      <trkpt lat="43.39887" lon="-1.66137">
        <ele>29.9</ele>
        <time>2021-07-18T08:48:16Z</time>
      </trkpt>
      <trkpt lat="43.39887" lon="-1.66134">
        <ele>30.1</ele>
        <time>2021-07-18T08:48:17Z</time>
      </trkpt>
      <trkpt lat="43.39887" lon="-1.6613">
        <ele>30.3</ele>
        <time>2021-07-18T08:48:19Z</time>
      </trkpt>
      <trkpt lat="43.39887" lon="-1.66128">
        <ele>30.4</ele>
        <time>2021-07-18T08:48:20Z</time>
      </trkpt>
      <trkpt lat="43.39887" lon="-1.66126">
        <ele>30.5</ele>
        <time>2021-07-18T08:48:21Z</time>
      </trkpt>
      <trkpt lat="43.39888" lon="-1.66124">
        <ele>30.7</ele>
        <time>2021-07-18T08:48:22Z</time>
      </trkpt>
      <trkpt lat="43.39888" lon="-1.66122">
        <ele>30.8</ele>
        <time>2021-07-18T08:48:23Z</time>
      </trkpt>
      <trkpt lat="43.3989" lon="-1.66119">
        <ele>31</ele>
        <time>2021-07-18T08:48:25Z</time>
      </trkpt>
      <trkpt lat="43.3989" lon="-1.66117">
        <ele>31.1</ele>
        <time>2021-07-18T08:48:26Z</time>
      </trkpt>
      <trkpt lat="43.39892" lon="-1.66115">
        <ele>31.3</ele>
        <time>2021-07-18T08:48:27Z</time>
      </trkpt>
      <trkpt lat="43.39893" lon="-1.66114">
        <ele>31.4</ele>
        <time>2021-07-18T08:48:28Z</time>
      </trkpt>
      <trkpt lat="43.39896" lon="-1.6611">
        <ele>31.8</ele>
        <time>2021-07-18T08:48:30Z</time>
      </trkpt>
      <trkpt lat="43.39898" lon="-1.66109">
        <ele>31.9</ele>
        <time>2021-07-18T08:48:31Z</time>
      </trkpt>
      <trkpt lat="43.39899" lon="-1.66108">
        <ele>32</ele>
        <time>2021-07-18T08:48:32Z</time>
      </trkpt>
      <trkpt lat="43.39902" lon="-1.66105">
        <ele>32.3</ele>
        <time>2021-07-18T08:48:34Z</time>
      </trkpt>
      <trkpt lat="43.39903" lon="-1.66104">
        <ele>32.4</ele>
        <time>2021-07-18T08:48:35Z</time>
      </trkpt>
      <trkpt lat="43.39905" lon="-1.66102">
        <ele>32.6</ele>
        <time>2021-07-18T08:48:37Z</time>
      </trkpt>
      <trkpt lat="43.39906" lon="-1.66101">
        <ele>32.7</ele>
        <time>2021-07-18T08:48:38Z</time>
      </trkpt>
      <trkpt lat="43.39908" lon="-1.661">
        <ele>32.8</ele>
        <time>2021-07-18T08:48:39Z</time>
      </trkpt>
      <trkpt lat="43.3991" lon="-1.66097">
        <ele>33.1</ele>
        <time>2021-07-18T08:48:41Z</time>
      </trkpt>
      <trkpt lat="43.39911" lon="-1.66096">
        <ele>33.1</ele>
        <time>2021-07-18T08:48:42Z</time>
      </trkpt>
      <trkpt lat="43.39914" lon="-1.66094">
        <ele>33.4</ele>
        <time>2021-07-18T08:48:44Z</time>
      </trkpt>
      <trkpt lat="43.39914" lon="-1.66093">
        <ele>33.4</ele>
        <time>2021-07-18T08:48:45Z</time>
      </trkpt>
      <trkpt lat="43.39917" lon="-1.6609">
        <ele>33.6</ele>
        <time>2021-07-18T08:48:47Z</time>
      </trkpt>
      <trkpt lat="43.39918" lon="-1.66088">
        <ele>33.7</ele>
        <time>2021-07-18T08:48:48Z</time>
      </trkpt>
      <trkpt lat="43.39919" lon="-1.66086">
        <ele>33.8</ele>
        <time>2021-07-18T08:48:50Z</time>
      </trkpt>
      <trkpt lat="43.39922" lon="-1.66083">
        <ele>34</ele>
        <time>2021-07-18T08:48:51Z</time>
      </trkpt>
      <trkpt lat="43.39922" lon="-1.66082">
        <ele>34</ele>
        <time>2021-07-18T08:48:52Z</time>
      </trkpt>
      <trkpt lat="43.39923" lon="-1.66079">
        <ele>34.1</ele>
        <time>2021-07-18T08:48:53Z</time>
      </trkpt>
      <trkpt lat="43.39926" lon="-1.66075">
        <ele>34.2</ele>
        <time>2021-07-18T08:48:55Z</time>
      </trkpt>
      <trkpt lat="43.39927" lon="-1.66074">
        <ele>34.3</ele>
        <time>2021-07-18T08:48:56Z</time>
      </trkpt>
      <trkpt lat="43.39931" lon="-1.66072">
        <ele>34.3</ele>
        <time>2021-07-18T08:48:58Z</time>
      </trkpt>
      <trkpt lat="43.39934" lon="-1.6607">
        <ele>34.3</ele>
        <time>2021-07-18T08:48:59Z</time>
      </trkpt>
      <trkpt lat="43.39939" lon="-1.6607">
        <ele>34.4</ele>
        <time>2021-07-18T08:49:01Z</time>
      </trkpt>
      <trkpt lat="43.39942" lon="-1.66071">
        <ele>34.3</ele>
        <time>2021-07-18T08:49:02Z</time>
      </trkpt>
      <trkpt lat="43.39949" lon="-1.6607">
        <ele>34.3</ele>
        <time>2021-07-18T08:49:04Z</time>
      </trkpt>
      <trkpt lat="43.39957" lon="-1.66071">
        <ele>34.2</ele>
        <time>2021-07-18T08:49:06Z</time>
      </trkpt>
      <trkpt lat="43.39965" lon="-1.66071">
        <ele>34.1</ele>
        <time>2021-07-18T08:49:08Z</time>
      </trkpt>
      <trkpt lat="43.3997" lon="-1.66071">
        <ele>34</ele>
        <time>2021-07-18T08:49:09Z</time>
      </trkpt>
      <trkpt lat="43.39976" lon="-1.66072">
        <ele>33.8</ele>
        <time>2021-07-18T08:49:10Z</time>
      </trkpt>
      <trkpt lat="43.39981" lon="-1.66072">
        <ele>33.7</ele>
        <time>2021-07-18T08:49:11Z</time>
      </trkpt>
      <trkpt lat="43.39992" lon="-1.66072">
        <ele>33.3</ele>
        <time>2021-07-18T08:49:13Z</time>
      </trkpt>
      <trkpt lat="43.40002" lon="-1.66071">
        <ele>33</ele>
        <time>2021-07-18T08:49:15Z</time>
      </trkpt>
      <trkpt lat="43.40014" lon="-1.66069">
        <ele>32.7</ele>
        <time>2021-07-18T08:49:17Z</time>
      </trkpt>
      <trkpt lat="43.40025" lon="-1.66067">
        <ele>32.3</ele>
        <time>2021-07-18T08:49:19Z</time>
      </trkpt>
      <trkpt lat="43.40031" lon="-1.66066">
        <ele>32.2</ele>
        <time>2021-07-18T08:49:20Z</time>
      </trkpt>
      <trkpt lat="43.40037" lon="-1.66065">
        <ele>32</ele>
        <time>2021-07-18T08:49:21Z</time>
      </trkpt>
      <trkpt lat="43.40043" lon="-1.66063">
        <ele>31.9</ele>
        <time>2021-07-18T08:49:22Z</time>
      </trkpt>
      <trkpt lat="43.40055" lon="-1.66059">
        <ele>31.8</ele>
        <time>2021-07-18T08:49:24Z</time>
      </trkpt>
      <trkpt lat="43.40067" lon="-1.66054">
        <ele>31.7</ele>
        <time>2021-07-18T08:49:26Z</time>
      </trkpt>
      <trkpt lat="43.40072" lon="-1.6605">
        <ele>31.7</ele>
        <time>2021-07-18T08:49:27Z</time>
      </trkpt>
      <trkpt lat="43.40077" lon="-1.66045">
        <ele>31.8</ele>
        <time>2021-07-18T08:49:28Z</time>
      </trkpt>
      <trkpt lat="43.40084" lon="-1.66036">
        <ele>32</ele>
        <time>2021-07-18T08:49:30Z</time>
      </trkpt>
      <trkpt lat="43.40088" lon="-1.66032">
        <ele>32.1</ele>
        <time>2021-07-18T08:49:31Z</time>
      </trkpt>
      <trkpt lat="43.40091" lon="-1.66028">
        <ele>32.3</ele>
        <time>2021-07-18T08:49:32Z</time>
      </trkpt>
      <trkpt lat="43.40097" lon="-1.66019">
        <ele>32.5</ele>
        <time>2021-07-18T08:49:34Z</time>
      </trkpt>
      <trkpt lat="43.401" lon="-1.66017">
        <ele>32.6</ele>
        <time>2021-07-18T08:49:35Z</time>
      </trkpt>
      <trkpt lat="43.40104" lon="-1.66008">
        <ele>32.8</ele>
        <time>2021-07-18T08:49:37Z</time>
      </trkpt>
      <trkpt lat="43.40109" lon="-1.66">
        <ele>33.1</ele>
        <time>2021-07-18T08:49:39Z</time>
      </trkpt>
      <trkpt lat="43.40111" lon="-1.65996">
        <ele>33.2</ele>
        <time>2021-07-18T08:49:40Z</time>
      </trkpt>
      <trkpt lat="43.40115" lon="-1.65988">
        <ele>33.4</ele>
        <time>2021-07-18T08:49:42Z</time>
      </trkpt>
      <trkpt lat="43.40118" lon="-1.65981">
        <ele>33.7</ele>
        <time>2021-07-18T08:49:44Z</time>
      </trkpt>
      <trkpt lat="43.40121" lon="-1.65976">
        <ele>33.8</ele>
        <time>2021-07-18T08:49:45Z</time>
      </trkpt>
      <trkpt lat="43.40123" lon="-1.65972">
        <ele>34</ele>
        <time>2021-07-18T08:49:46Z</time>
      </trkpt>
      <trkpt lat="43.40126" lon="-1.65965">
        <ele>34.2</ele>
        <time>2021-07-18T08:49:48Z</time>
      </trkpt>
      <trkpt lat="43.40127" lon="-1.65962">
        <ele>34.3</ele>
        <time>2021-07-18T08:49:49Z</time>
      </trkpt>
      <trkpt lat="43.40129" lon="-1.65959">
        <ele>34.5</ele>
        <time>2021-07-18T08:49:50Z</time>
      </trkpt>
      <trkpt lat="43.40134" lon="-1.65957">
        <ele>34.6</ele>
        <time>2021-07-18T08:49:52Z</time>
      </trkpt>
      <trkpt lat="43.40137" lon="-1.65958">
        <ele>34.8</ele>
        <time>2021-07-18T08:49:53Z</time>
      </trkpt>
      <trkpt lat="43.40139" lon="-1.65958">
        <ele>34.9</ele>
        <time>2021-07-18T08:49:54Z</time>
      </trkpt>
      <trkpt lat="43.4014" lon="-1.65957">
        <ele>34.9</ele>
        <time>2021-07-18T08:49:56Z</time>
      </trkpt>
      <trkpt lat="43.4014" lon="-1.65956">
        <ele>34.9</ele>
        <time>2021-07-18T08:49:57Z</time>
      </trkpt>
      <trkpt lat="43.40142" lon="-1.65953">
        <ele>35.1</ele>
        <time>2021-07-18T08:49:58Z</time>
      </trkpt>
      <trkpt lat="43.40146" lon="-1.65948">
        <ele>35.1</ele>
        <time>2021-07-18T08:50:00Z</time>
      </trkpt>
      <trkpt lat="43.40152" lon="-1.65946">
        <ele>35.2</ele>
        <time>2021-07-18T08:50:02Z</time>
      </trkpt>
      <trkpt lat="43.40155" lon="-1.65948">
        <ele>35.3</ele>
        <time>2021-07-18T08:50:03Z</time>
      </trkpt>
      <trkpt lat="43.40157" lon="-1.65954">
        <ele>35.3</ele>
        <time>2021-07-18T08:50:05Z</time>
      </trkpt>
      <trkpt lat="43.40155" lon="-1.65957">
        <ele>35.3</ele>
        <time>2021-07-18T08:50:06Z</time>
      </trkpt>
      <trkpt lat="43.40154" lon="-1.65961">
        <ele>35.3</ele>
        <time>2021-07-18T08:50:08Z</time>
      </trkpt>
      <trkpt lat="43.40155" lon="-1.65962">
        <ele>35.3</ele>
        <time>2021-07-18T08:50:09Z</time>
      </trkpt>
      <trkpt lat="43.40157" lon="-1.65962">
        <ele>35.3</ele>
        <time>2021-07-18T08:50:10Z</time>
      </trkpt>
      <trkpt lat="43.40158" lon="-1.65957">
        <ele>35.3</ele>
        <time>2021-07-18T08:50:12Z</time>
      </trkpt>
      <trkpt lat="43.4016" lon="-1.65952">
        <ele>35.2</ele>
        <time>2021-07-18T08:50:13Z</time>
      </trkpt>
      <trkpt lat="43.40162" lon="-1.65945">
        <ele>35.2</ele>
        <time>2021-07-18T08:50:15Z</time>
      </trkpt>
      <trkpt lat="43.40164" lon="-1.65941">
        <ele>35.2</ele>
        <time>2021-07-18T08:50:16Z</time>
      </trkpt>
      <trkpt lat="43.40165" lon="-1.65932">
        <ele>35.2</ele>
        <time>2021-07-18T08:50:18Z</time>
      </trkpt>
      <trkpt lat="43.40166" lon="-1.65926">
        <ele>35.2</ele>
        <time>2021-07-18T08:50:19Z</time>
      </trkpt>
      <trkpt lat="43.40166" lon="-1.6592">
        <ele>35.2</ele>
        <time>2021-07-18T08:50:20Z</time>
      </trkpt>
      <trkpt lat="43.40166" lon="-1.65914">
        <ele>35.2</ele>
        <time>2021-07-18T08:50:21Z</time>
      </trkpt>
      <trkpt lat="43.40165" lon="-1.65909">
        <ele>35.2</ele>
        <time>2021-07-18T08:50:22Z</time>
      </trkpt>
      <trkpt lat="43.40164" lon="-1.65901">
        <ele>35.2</ele>
        <time>2021-07-18T08:50:23Z</time>
      </trkpt>
      <trkpt lat="43.40164" lon="-1.65894">
        <ele>35.2</ele>
        <time>2021-07-18T08:50:25Z</time>
      </trkpt>
      <trkpt lat="43.40164" lon="-1.65888">
        <ele>35.2</ele>
        <time>2021-07-18T08:50:26Z</time>
      </trkpt>
      <trkpt lat="43.40163" lon="-1.65883">
        <ele>35.2</ele>
        <time>2021-07-18T08:50:27Z</time>
      </trkpt>
      <trkpt lat="43.40163" lon="-1.65878">
        <ele>35.2</ele>
        <time>2021-07-18T08:50:28Z</time>
      </trkpt>
      <trkpt lat="43.40162" lon="-1.65875">
        <ele>35.2</ele>
        <time>2021-07-18T08:50:29Z</time>
      </trkpt>
      <trkpt lat="43.40161" lon="-1.65868">
        <ele>35.2</ele>
        <time>2021-07-18T08:50:31Z</time>
      </trkpt>
      <trkpt lat="43.40162" lon="-1.65864">
        <ele>35.2</ele>
        <time>2021-07-18T08:50:32Z</time>
      </trkpt>
      <trkpt lat="43.40162" lon="-1.65861">
        <ele>35.2</ele>
        <time>2021-07-18T08:50:33Z</time>
      </trkpt>
      <trkpt lat="43.40162" lon="-1.65854">
        <ele>35.1</ele>
        <time>2021-07-18T08:50:35Z</time>
      </trkpt>
      <trkpt lat="43.40161" lon="-1.65848">
        <ele>35.1</ele>
        <time>2021-07-18T08:50:37Z</time>
      </trkpt>
      <trkpt lat="43.40159" lon="-1.65845">
        <ele>35.1</ele>
        <time>2021-07-18T08:50:38Z</time>
      </trkpt>
      <trkpt lat="43.40157" lon="-1.6584">
        <ele>35.1</ele>
        <time>2021-07-18T08:50:40Z</time>
      </trkpt>
      <trkpt lat="43.40156" lon="-1.65831">
        <ele>35.1</ele>
        <time>2021-07-18T08:50:42Z</time>
      </trkpt>
      <trkpt lat="43.40155" lon="-1.65819">
        <ele>35</ele>
        <time>2021-07-18T08:50:44Z</time>
      </trkpt>
      <trkpt lat="43.40155" lon="-1.65809">
        <ele>35</ele>
        <time>2021-07-18T08:50:46Z</time>
      </trkpt>
      <trkpt lat="43.40154" lon="-1.65801">
        <ele>35</ele>
        <time>2021-07-18T08:50:47Z</time>
      </trkpt>
      <trkpt lat="43.40154" lon="-1.65786">
        <ele>35</ele>
        <time>2021-07-18T08:50:49Z</time>
      </trkpt>
      <trkpt lat="43.40157" lon="-1.6578">
        <ele>35</ele>
        <time>2021-07-18T08:50:50Z</time>
      </trkpt>
      <trkpt lat="43.40155" lon="-1.65766">
        <ele>35</ele>
        <time>2021-07-18T08:50:52Z</time>
      </trkpt>
      <trkpt lat="43.40155" lon="-1.65759">
        <ele>35.1</ele>
        <time>2021-07-18T08:50:53Z</time>
      </trkpt>
      <trkpt lat="43.40154" lon="-1.65752">
        <ele>35.1</ele>
        <time>2021-07-18T08:50:54Z</time>
      </trkpt>
      <trkpt lat="43.40155" lon="-1.6574">
        <ele>35.2</ele>
        <time>2021-07-18T08:50:56Z</time>
      </trkpt>
      <trkpt lat="43.40156" lon="-1.65727">
        <ele>35.2</ele>
        <time>2021-07-18T08:50:58Z</time>
      </trkpt>
      <trkpt lat="43.40158" lon="-1.65714">
        <ele>35.3</ele>
        <time>2021-07-18T08:51:00Z</time>
      </trkpt>
      <trkpt lat="43.4016" lon="-1.65708">
        <ele>35.3</ele>
        <time>2021-07-18T08:51:01Z</time>
      </trkpt>
      <trkpt lat="43.40161" lon="-1.65703">
        <ele>35.4</ele>
        <time>2021-07-18T08:51:02Z</time>
      </trkpt>
      <trkpt lat="43.40164" lon="-1.65692">
        <ele>35.6</ele>
        <time>2021-07-18T08:51:04Z</time>
      </trkpt>
      <trkpt lat="43.40167" lon="-1.65682">
        <ele>35.7</ele>
        <time>2021-07-18T08:51:06Z</time>
      </trkpt>
      <trkpt lat="43.4017" lon="-1.65671">
        <ele>36</ele>
        <time>2021-07-18T08:51:08Z</time>
      </trkpt>
      <trkpt lat="43.40174" lon="-1.65663">
        <ele>36.1</ele>
        <time>2021-07-18T08:51:10Z</time>
      </trkpt>
      <trkpt lat="43.40175" lon="-1.65656">
        <ele>36.3</ele>
        <time>2021-07-18T08:51:11Z</time>
      </trkpt>
      <trkpt lat="43.40176" lon="-1.65651">
        <ele>36.4</ele>
        <time>2021-07-18T08:51:12Z</time>
      </trkpt>
      <trkpt lat="43.40178" lon="-1.65644">
        <ele>36.5</ele>
        <time>2021-07-18T08:51:14Z</time>
      </trkpt>
      <trkpt lat="43.40179" lon="-1.65638">
        <ele>36.6</ele>
        <time>2021-07-18T08:51:15Z</time>
      </trkpt>
      <trkpt lat="43.40181" lon="-1.65633">
        <ele>36.7</ele>
        <time>2021-07-18T08:51:16Z</time>
      </trkpt>
      <trkpt lat="43.40183" lon="-1.65627">
        <ele>36.9</ele>
        <time>2021-07-18T08:51:18Z</time>
      </trkpt>
      <trkpt lat="43.40185" lon="-1.65623">
        <ele>37</ele>
        <time>2021-07-18T08:51:19Z</time>
      </trkpt>
      <trkpt lat="43.40187" lon="-1.65617">
        <ele>37.2</ele>
        <time>2021-07-18T08:51:20Z</time>
      </trkpt>
      <trkpt lat="43.40191" lon="-1.65611">
        <ele>37.4</ele>
        <time>2021-07-18T08:51:22Z</time>
      </trkpt>
      <trkpt lat="43.40193" lon="-1.65606">
        <ele>37.6</ele>
        <time>2021-07-18T08:51:23Z</time>
      </trkpt>
      <trkpt lat="43.40194" lon="-1.65601">
        <ele>37.7</ele>
        <time>2021-07-18T08:51:24Z</time>
      </trkpt>
      <trkpt lat="43.40198" lon="-1.65594">
        <ele>38</ele>
        <time>2021-07-18T08:51:26Z</time>
      </trkpt>
      <trkpt lat="43.40201" lon="-1.65587">
        <ele>38.2</ele>
        <time>2021-07-18T08:51:27Z</time>
      </trkpt>
      <trkpt lat="43.40204" lon="-1.65582">
        <ele>38.4</ele>
        <time>2021-07-18T08:51:29Z</time>
      </trkpt>
      <trkpt lat="43.40206" lon="-1.65577">
        <ele>38.6</ele>
        <time>2021-07-18T08:51:30Z</time>
      </trkpt>
      <trkpt lat="43.40208" lon="-1.65573">
        <ele>38.7</ele>
        <time>2021-07-18T08:51:31Z</time>
      </trkpt>
      <trkpt lat="43.40209" lon="-1.65569">
        <ele>38.8</ele>
        <time>2021-07-18T08:51:32Z</time>
      </trkpt>
      <trkpt lat="43.40211" lon="-1.65565">
        <ele>39</ele>
        <time>2021-07-18T08:51:33Z</time>
      </trkpt>
      <trkpt lat="43.40213" lon="-1.65559">
        <ele>39.2</ele>
        <time>2021-07-18T08:51:35Z</time>
      </trkpt>
      <trkpt lat="43.40216" lon="-1.65553">
        <ele>39.4</ele>
        <time>2021-07-18T08:51:36Z</time>
      </trkpt>
      <trkpt lat="43.40219" lon="-1.65546">
        <ele>39.7</ele>
        <time>2021-07-18T08:51:38Z</time>
      </trkpt>
      <trkpt lat="43.40221" lon="-1.65542">
        <ele>39.9</ele>
        <time>2021-07-18T08:51:39Z</time>
      </trkpt>
      <trkpt lat="43.40224" lon="-1.65535">
        <ele>40.2</ele>
        <time>2021-07-18T08:51:41Z</time>
      </trkpt>
      <trkpt lat="43.40226" lon="-1.65531">
        <ele>40.3</ele>
        <time>2021-07-18T08:51:42Z</time>
      </trkpt>
      <trkpt lat="43.40228" lon="-1.65526">
        <ele>40.5</ele>
        <time>2021-07-18T08:51:44Z</time>
      </trkpt>
      <trkpt lat="43.4023" lon="-1.65521">
        <ele>40.7</ele>
        <time>2021-07-18T08:51:45Z</time>
      </trkpt>
      <trkpt lat="43.40232" lon="-1.65513">
        <ele>41</ele>
        <time>2021-07-18T08:51:47Z</time>
      </trkpt>
      <trkpt lat="43.40233" lon="-1.65509">
        <ele>41.1</ele>
        <time>2021-07-18T08:51:48Z</time>
      </trkpt>
      <trkpt lat="43.40235" lon="-1.65502">
        <ele>41.3</ele>
        <time>2021-07-18T08:51:50Z</time>
      </trkpt>
      <trkpt lat="43.40237" lon="-1.65495">
        <ele>41.5</ele>
        <time>2021-07-18T08:51:52Z</time>
      </trkpt>
      <trkpt lat="43.40239" lon="-1.65488">
        <ele>41.6</ele>
        <time>2021-07-18T08:51:54Z</time>
      </trkpt>
      <trkpt lat="43.4024" lon="-1.65484">
        <ele>41.7</ele>
        <time>2021-07-18T08:51:55Z</time>
      </trkpt>
      <trkpt lat="43.40241" lon="-1.65477">
        <ele>41.8</ele>
        <time>2021-07-18T08:51:57Z</time>
      </trkpt>
      <trkpt lat="43.40241" lon="-1.65472">
        <ele>41.9</ele>
        <time>2021-07-18T08:51:58Z</time>
      </trkpt>
      <trkpt lat="43.40241" lon="-1.65467">
        <ele>42</ele>
        <time>2021-07-18T08:51:59Z</time>
      </trkpt>
      <trkpt lat="43.40242" lon="-1.65458">
        <ele>42.2</ele>
        <time>2021-07-18T08:52:01Z</time>
      </trkpt>
      <trkpt lat="43.40243" lon="-1.65454">
        <ele>42.3</ele>
        <time>2021-07-18T08:52:02Z</time>
      </trkpt>
      <trkpt lat="43.40244" lon="-1.65446">
        <ele>42.4</ele>
        <time>2021-07-18T08:52:04Z</time>
      </trkpt>
      <trkpt lat="43.40244" lon="-1.65442">
        <ele>42.5</ele>
        <time>2021-07-18T08:52:05Z</time>
      </trkpt>
      <trkpt lat="43.40245" lon="-1.65434">
        <ele>42.5</ele>
        <time>2021-07-18T08:52:07Z</time>
      </trkpt>
      <trkpt lat="43.40246" lon="-1.65428">
        <ele>42.6</ele>
        <time>2021-07-18T08:52:08Z</time>
      </trkpt>
      <trkpt lat="43.40246" lon="-1.65422">
        <ele>42.6</ele>
        <time>2021-07-18T08:52:09Z</time>
      </trkpt>
      <trkpt lat="43.40247" lon="-1.65414">
        <ele>42.7</ele>
        <time>2021-07-18T08:52:11Z</time>
      </trkpt>
      <trkpt lat="43.40247" lon="-1.65409">
        <ele>42.8</ele>
        <time>2021-07-18T08:52:12Z</time>
      </trkpt>
      <trkpt lat="43.40248" lon="-1.654">
        <ele>42.8</ele>
        <time>2021-07-18T08:52:14Z</time>
      </trkpt>
      <trkpt lat="43.40248" lon="-1.65394">
        <ele>42.9</ele>
        <time>2021-07-18T08:52:15Z</time>
      </trkpt>
      <trkpt lat="43.40248" lon="-1.65387">
        <ele>42.9</ele>
        <time>2021-07-18T08:52:17Z</time>
      </trkpt>
      <trkpt lat="43.40248" lon="-1.65378">
        <ele>42.9</ele>
        <time>2021-07-18T08:52:18Z</time>
      </trkpt>
      <trkpt lat="43.40248" lon="-1.65371">
        <ele>42.9</ele>
        <time>2021-07-18T08:52:19Z</time>
      </trkpt>
      <trkpt lat="43.40249" lon="-1.65362">
        <ele>42.9</ele>
        <time>2021-07-18T08:52:21Z</time>
      </trkpt>
      <trkpt lat="43.40249" lon="-1.65356">
        <ele>42.9</ele>
        <time>2021-07-18T08:52:22Z</time>
      </trkpt>
      <trkpt lat="43.4025" lon="-1.65346">
        <ele>42.9</ele>
        <time>2021-07-18T08:52:24Z</time>
      </trkpt>
      <trkpt lat="43.4025" lon="-1.65337">
        <ele>42.8</ele>
        <time>2021-07-18T08:52:25Z</time>
      </trkpt>
      <trkpt lat="43.40251" lon="-1.6533">
        <ele>42.8</ele>
        <time>2021-07-18T08:52:26Z</time>
      </trkpt>
      <trkpt lat="43.40252" lon="-1.65316">
        <ele>42.8</ele>
        <time>2021-07-18T08:52:28Z</time>
      </trkpt>
      <trkpt lat="43.40253" lon="-1.65302">
        <ele>42.7</ele>
        <time>2021-07-18T08:52:30Z</time>
      </trkpt>
      <trkpt lat="43.40254" lon="-1.65294">
        <ele>42.7</ele>
        <time>2021-07-18T08:52:31Z</time>
      </trkpt>
      <trkpt lat="43.40254" lon="-1.65287">
        <ele>42.7</ele>
        <time>2021-07-18T08:52:32Z</time>
      </trkpt>
      <trkpt lat="43.40255" lon="-1.65272">
        <ele>42.7</ele>
        <time>2021-07-18T08:52:34Z</time>
      </trkpt>
      <trkpt lat="43.40256" lon="-1.65258">
        <ele>42.6</ele>
        <time>2021-07-18T08:52:36Z</time>
      </trkpt>
      <trkpt lat="43.40257" lon="-1.6525">
        <ele>42.6</ele>
        <time>2021-07-18T08:52:37Z</time>
      </trkpt>
      <trkpt lat="43.40258" lon="-1.65243">
        <ele>42.6</ele>
        <time>2021-07-18T08:52:38Z</time>
      </trkpt>
      <trkpt lat="43.4026" lon="-1.65229">
        <ele>42.5</ele>
        <time>2021-07-18T08:52:40Z</time>
      </trkpt>
      <trkpt lat="43.40264" lon="-1.6522">
        <ele>42.5</ele>
        <time>2021-07-18T08:52:42Z</time>
      </trkpt>
      <trkpt lat="43.40267" lon="-1.6521">
        <ele>42.5</ele>
        <time>2021-07-18T08:52:44Z</time>
      </trkpt>
      <trkpt lat="43.40268" lon="-1.65202">
        <ele>42.5</ele>
        <time>2021-07-18T08:52:46Z</time>
      </trkpt>
      <trkpt lat="43.40264" lon="-1.65196">
        <ele>42.4</ele>
        <time>2021-07-18T08:52:48Z</time>
      </trkpt>
      <trkpt lat="43.40268" lon="-1.65189">
        <ele>42.4</ele>
        <time>2021-07-18T08:52:49Z</time>
      </trkpt>
      <trkpt lat="43.40271" lon="-1.6518">
        <ele>42.4</ele>
        <time>2021-07-18T08:52:51Z</time>
      </trkpt>
      <trkpt lat="43.40274" lon="-1.6517">
        <ele>42.3</ele>
        <time>2021-07-18T08:52:53Z</time>
      </trkpt>
      <trkpt lat="43.40275" lon="-1.65163">
        <ele>42.3</ele>
        <time>2021-07-18T08:52:54Z</time>
      </trkpt>
      <trkpt lat="43.40277" lon="-1.65157">
        <ele>42.2</ele>
        <time>2021-07-18T08:52:55Z</time>
      </trkpt>
      <trkpt lat="43.40279" lon="-1.65142">
        <ele>42</ele>
        <time>2021-07-18T08:52:57Z</time>
      </trkpt>
      <trkpt lat="43.4028" lon="-1.65135">
        <ele>41.9</ele>
        <time>2021-07-18T08:52:58Z</time>
      </trkpt>
      <trkpt lat="43.40283" lon="-1.6512">
        <ele>41.8</ele>
        <time>2021-07-18T08:53:00Z</time>
      </trkpt>
      <trkpt lat="43.40286" lon="-1.65105">
        <ele>41.7</ele>
        <time>2021-07-18T08:53:02Z</time>
      </trkpt>
      <trkpt lat="43.40287" lon="-1.65098">
        <ele>41.7</ele>
        <time>2021-07-18T08:53:03Z</time>
      </trkpt>
      <trkpt lat="43.40291" lon="-1.65084">
        <ele>41.6</ele>
        <time>2021-07-18T08:53:05Z</time>
      </trkpt>
      <trkpt lat="43.40293" lon="-1.65077">
        <ele>41.6</ele>
        <time>2021-07-18T08:53:06Z</time>
      </trkpt>
      <trkpt lat="43.40299" lon="-1.65064">
        <ele>41.6</ele>
        <time>2021-07-18T08:53:08Z</time>
      </trkpt>
      <trkpt lat="43.40301" lon="-1.65058">
        <ele>41.7</ele>
        <time>2021-07-18T08:53:09Z</time>
      </trkpt>
      <trkpt lat="43.40303" lon="-1.65051">
        <ele>41.7</ele>
        <time>2021-07-18T08:53:10Z</time>
      </trkpt>
      <trkpt lat="43.40307" lon="-1.65044">
        <ele>41.7</ele>
        <time>2021-07-18T08:53:11Z</time>
      </trkpt>
      <trkpt lat="43.4031" lon="-1.65038">
        <ele>41.7</ele>
        <time>2021-07-18T08:53:12Z</time>
      </trkpt>
      <trkpt lat="43.40317" lon="-1.65026">
        <ele>41.7</ele>
        <time>2021-07-18T08:53:14Z</time>
      </trkpt>
      <trkpt lat="43.40323" lon="-1.65012">
        <ele>41.7</ele>
        <time>2021-07-18T08:53:16Z</time>
      </trkpt>
      <trkpt lat="43.40328" lon="-1.65">
        <ele>41.7</ele>
        <time>2021-07-18T08:53:18Z</time>
      </trkpt>
      <trkpt lat="43.40333" lon="-1.64986">
        <ele>41.7</ele>
        <time>2021-07-18T08:53:20Z</time>
      </trkpt>
      <trkpt lat="43.40339" lon="-1.64973">
        <ele>41.4</ele>
        <time>2021-07-18T08:53:22Z</time>
      </trkpt>
      <trkpt lat="43.40342" lon="-1.64957">
        <ele>40.7</ele>
        <time>2021-07-18T08:53:24Z</time>
      </trkpt>
      <trkpt lat="43.40345" lon="-1.64938">
        <ele>39.9</ele>
        <time>2021-07-18T08:53:26Z</time>
      </trkpt>
      <trkpt lat="43.40347" lon="-1.64919">
        <ele>39.2</ele>
        <time>2021-07-18T08:53:28Z</time>
      </trkpt>
      <trkpt lat="43.40347" lon="-1.6491">
        <ele>39</ele>
        <time>2021-07-18T08:53:29Z</time>
      </trkpt>
      <trkpt lat="43.40347" lon="-1.649">
        <ele>38.7</ele>
        <time>2021-07-18T08:53:31Z</time>
      </trkpt>
      <trkpt lat="43.40346" lon="-1.64892">
        <ele>38.4</ele>
        <time>2021-07-18T08:53:33Z</time>
      </trkpt>
      <trkpt lat="43.40347" lon="-1.64887">
        <ele>38.3</ele>
        <time>2021-07-18T08:53:34Z</time>
      </trkpt>
      <trkpt lat="43.4035" lon="-1.64879">
        <ele>38</ele>
        <time>2021-07-18T08:53:36Z</time>
      </trkpt>
      <trkpt lat="43.4035" lon="-1.64874">
        <ele>37.8</ele>
        <time>2021-07-18T08:53:37Z</time>
      </trkpt>
      <trkpt lat="43.4035" lon="-1.64873">
        <ele>37.8</ele>
        <time>2021-07-18T08:53:38Z</time>
      </trkpt>
      <trkpt lat="43.40352" lon="-1.64856">
        <ele>37.2</ele>
        <time>2021-07-18T08:53:40Z</time>
      </trkpt>
      <trkpt lat="43.40354" lon="-1.64847">
        <ele>36.9</ele>
        <time>2021-07-18T08:53:41Z</time>
      </trkpt>
      <trkpt lat="43.40357" lon="-1.6483">
        <ele>36.3</ele>
        <time>2021-07-18T08:53:43Z</time>
      </trkpt>
      <trkpt lat="43.4036" lon="-1.64822">
        <ele>36</ele>
        <time>2021-07-18T08:53:44Z</time>
      </trkpt>
      <trkpt lat="43.40365" lon="-1.64805">
        <ele>35.5</ele>
        <time>2021-07-18T08:53:46Z</time>
      </trkpt>
      <trkpt lat="43.40368" lon="-1.64797">
        <ele>35.2</ele>
        <time>2021-07-18T08:53:47Z</time>
      </trkpt>
      <trkpt lat="43.40371" lon="-1.64789">
        <ele>35</ele>
        <time>2021-07-18T08:53:48Z</time>
      </trkpt>
      <trkpt lat="43.40375" lon="-1.64782">
        <ele>34.7</ele>
        <time>2021-07-18T08:53:49Z</time>
      </trkpt>
      <trkpt lat="43.40383" lon="-1.64768">
        <ele>34.3</ele>
        <time>2021-07-18T08:53:51Z</time>
      </trkpt>
      <trkpt lat="43.4039" lon="-1.64755">
        <ele>33.8</ele>
        <time>2021-07-18T08:53:53Z</time>
      </trkpt>
      <trkpt lat="43.40399" lon="-1.6474">
        <ele>33.3</ele>
        <time>2021-07-18T08:53:55Z</time>
      </trkpt>
      <trkpt lat="43.40403" lon="-1.64733">
        <ele>33</ele>
        <time>2021-07-18T08:53:56Z</time>
      </trkpt>
      <trkpt lat="43.4041" lon="-1.64718">
        <ele>32.4</ele>
        <time>2021-07-18T08:53:58Z</time>
      </trkpt>
      <trkpt lat="43.40414" lon="-1.64706">
        <ele>31.9</ele>
        <time>2021-07-18T08:54:00Z</time>
      </trkpt>
      <trkpt lat="43.40416" lon="-1.64701">
        <ele>31.7</ele>
        <time>2021-07-18T08:54:01Z</time>
      </trkpt>
      <trkpt lat="43.40419" lon="-1.64692">
        <ele>31.3</ele>
        <time>2021-07-18T08:54:03Z</time>
      </trkpt>
      <trkpt lat="43.4042" lon="-1.64687">
        <ele>31.1</ele>
        <time>2021-07-18T08:54:04Z</time>
      </trkpt>
      <trkpt lat="43.40422" lon="-1.64682">
        <ele>30.9</ele>
        <time>2021-07-18T08:54:05Z</time>
      </trkpt>
      <trkpt lat="43.40426" lon="-1.64668">
        <ele>30.3</ele>
        <time>2021-07-18T08:54:07Z</time>
      </trkpt>
      <trkpt lat="43.40428" lon="-1.6466">
        <ele>29.9</ele>
        <time>2021-07-18T08:54:08Z</time>
      </trkpt>
      <trkpt lat="43.40432" lon="-1.64644">
        <ele>29.1</ele>
        <time>2021-07-18T08:54:10Z</time>
      </trkpt>
      <trkpt lat="43.40434" lon="-1.64635">
        <ele>28.5</ele>
        <time>2021-07-18T08:54:11Z</time>
      </trkpt>
      <trkpt lat="43.40438" lon="-1.64617">
        <ele>27.1</ele>
        <time>2021-07-18T08:54:13Z</time>
      </trkpt>
      <trkpt lat="43.4044" lon="-1.64606">
        <ele>26.3</ele>
        <time>2021-07-18T08:54:14Z</time>
      </trkpt>
      <trkpt lat="43.40445" lon="-1.64583">
        <ele>24.2</ele>
        <time>2021-07-18T08:54:16Z</time>
      </trkpt>
      <trkpt lat="43.40448" lon="-1.64571">
        <ele>23.3</ele>
        <time>2021-07-18T08:54:17Z</time>
      </trkpt>
      <trkpt lat="43.4045" lon="-1.64558">
        <ele>22.7</ele>
        <time>2021-07-18T08:54:18Z</time>
      </trkpt>
      <trkpt lat="43.40455" lon="-1.64534">
        <ele>22.3</ele>
        <time>2021-07-18T08:54:20Z</time>
      </trkpt>
      <trkpt lat="43.40464" lon="-1.64515">
        <ele>23</ele>
        <time>2021-07-18T08:54:22Z</time>
      </trkpt>
      <trkpt lat="43.40468" lon="-1.64507">
        <ele>23.5</ele>
        <time>2021-07-18T08:54:23Z</time>
      </trkpt>
      <trkpt lat="43.40474" lon="-1.64494">
        <ele>24.3</ele>
        <time>2021-07-18T08:54:25Z</time>
      </trkpt>
      <trkpt lat="43.40479" lon="-1.64484">
        <ele>24.6</ele>
        <time>2021-07-18T08:54:27Z</time>
      </trkpt>
      <trkpt lat="43.40483" lon="-1.64475">
        <ele>24.6</ele>
        <time>2021-07-18T08:54:29Z</time>
      </trkpt>
      <trkpt lat="43.40487" lon="-1.64461">
        <ele>24.3</ele>
        <time>2021-07-18T08:54:31Z</time>
      </trkpt>
      <trkpt lat="43.40489" lon="-1.64446">
        <ele>23.8</ele>
        <time>2021-07-18T08:54:33Z</time>
      </trkpt>
      <trkpt lat="43.4049" lon="-1.64438">
        <ele>23.5</ele>
        <time>2021-07-18T08:54:34Z</time>
      </trkpt>
      <trkpt lat="43.4049" lon="-1.64423">
        <ele>22.8</ele>
        <time>2021-07-18T08:54:36Z</time>
      </trkpt>
      <trkpt lat="43.4049" lon="-1.64418">
        <ele>22.5</ele>
        <time>2021-07-18T08:54:37Z</time>
      </trkpt>
      <trkpt lat="43.4049" lon="-1.64421">
        <ele>22.3</ele>
        <time>2021-07-18T08:54:39Z</time>
      </trkpt>
      <trkpt lat="43.40489" lon="-1.6441">
        <ele>21.6</ele>
        <time>2021-07-18T08:54:41Z</time>
      </trkpt>
      <trkpt lat="43.40488" lon="-1.64402">
        <ele>21</ele>
        <time>2021-07-18T08:54:42Z</time>
      </trkpt>
      <trkpt lat="43.40487" lon="-1.64395">
        <ele>20.4</ele>
        <time>2021-07-18T08:54:43Z</time>
      </trkpt>
      <trkpt lat="43.40486" lon="-1.6439">
        <ele>20</ele>
        <time>2021-07-18T08:54:44Z</time>
      </trkpt>
      <trkpt lat="43.40485" lon="-1.64384">
        <ele>19.5</ele>
        <time>2021-07-18T08:54:45Z</time>
      </trkpt>
      <trkpt lat="43.40483" lon="-1.64379">
        <ele>19</ele>
        <time>2021-07-18T08:54:47Z</time>
      </trkpt>
      <trkpt lat="43.40482" lon="-1.64373">
        <ele>18.4</ele>
        <time>2021-07-18T08:54:48Z</time>
      </trkpt>
      <trkpt lat="43.4048" lon="-1.64368">
        <ele>17.9</ele>
        <time>2021-07-18T08:54:50Z</time>
      </trkpt>
      <trkpt lat="43.40479" lon="-1.64363">
        <ele>17.5</ele>
        <time>2021-07-18T08:54:51Z</time>
      </trkpt>
      <trkpt lat="43.40478" lon="-1.64359">
        <ele>17.1</ele>
        <time>2021-07-18T08:54:52Z</time>
      </trkpt>
      <trkpt lat="43.40478" lon="-1.64354">
        <ele>16.6</ele>
        <time>2021-07-18T08:54:53Z</time>
      </trkpt>
      <trkpt lat="43.40478" lon="-1.64348">
        <ele>16.2</ele>
        <time>2021-07-18T08:54:54Z</time>
      </trkpt>
      <trkpt lat="43.40478" lon="-1.64342">
        <ele>15.7</ele>
        <time>2021-07-18T08:54:56Z</time>
      </trkpt>
      <trkpt lat="43.40479" lon="-1.64329">
        <ele>14.7</ele>
        <time>2021-07-18T08:54:57Z</time>
      </trkpt>
      <trkpt lat="43.40478" lon="-1.64321">
        <ele>14.3</ele>
        <time>2021-07-18T08:54:58Z</time>
      </trkpt>
      <trkpt lat="43.40473" lon="-1.64306">
        <ele>13.3</ele>
        <time>2021-07-18T08:55:00Z</time>
      </trkpt>
      <trkpt lat="43.40472" lon="-1.64287">
        <ele>12.5</ele>
        <time>2021-07-18T08:55:02Z</time>
      </trkpt>
      <trkpt lat="43.40473" lon="-1.64279">
        <ele>12.1</ele>
        <time>2021-07-18T08:55:03Z</time>
      </trkpt>
      <trkpt lat="43.40477" lon="-1.64265">
        <ele>11.6</ele>
        <time>2021-07-18T08:55:05Z</time>
      </trkpt>
      <trkpt lat="43.4048" lon="-1.6426">
        <ele>11.4</ele>
        <time>2021-07-18T08:55:06Z</time>
      </trkpt>
      <trkpt lat="43.40482" lon="-1.64257">
        <ele>11.3</ele>
        <time>2021-07-18T08:55:07Z</time>
      </trkpt>
      <trkpt lat="43.40487" lon="-1.64253">
        <ele>11.1</ele>
        <time>2021-07-18T08:55:09Z</time>
      </trkpt>
      <trkpt lat="43.40494" lon="-1.6425">
        <ele>10.9</ele>
        <time>2021-07-18T08:55:11Z</time>
      </trkpt>
      <trkpt lat="43.40498" lon="-1.64249">
        <ele>10.7</ele>
        <time>2021-07-18T08:55:12Z</time>
      </trkpt>
      <trkpt lat="43.40504" lon="-1.64249">
        <ele>10.5</ele>
        <time>2021-07-18T08:55:14Z</time>
      </trkpt>
      <trkpt lat="43.40511" lon="-1.6425">
        <ele>10.2</ele>
        <time>2021-07-18T08:55:16Z</time>
      </trkpt>
      <trkpt lat="43.40516" lon="-1.6425">
        <ele>10</ele>
        <time>2021-07-18T08:55:17Z</time>
      </trkpt>
      <trkpt lat="43.40525" lon="-1.64248">
        <ele>9.7</ele>
        <time>2021-07-18T08:55:19Z</time>
      </trkpt>
      <trkpt lat="43.40531" lon="-1.64246">
        <ele>9.5</ele>
        <time>2021-07-18T08:55:20Z</time>
      </trkpt>
      <trkpt lat="43.40536" lon="-1.64244">
        <ele>9.4</ele>
        <time>2021-07-18T08:55:21Z</time>
      </trkpt>
      <trkpt lat="43.4054" lon="-1.6424">
        <ele>9.2</ele>
        <time>2021-07-18T08:55:22Z</time>
      </trkpt>
      <trkpt lat="43.40543" lon="-1.64239">
        <ele>9.2</ele>
        <time>2021-07-18T08:55:24Z</time>
      </trkpt>
      <trkpt lat="43.40546" lon="-1.64232">
        <ele>9.2</ele>
        <time>2021-07-18T08:55:26Z</time>
      </trkpt>
      <trkpt lat="43.40549" lon="-1.64227">
        <ele>9.1</ele>
        <time>2021-07-18T08:55:27Z</time>
      </trkpt>
      <trkpt lat="43.40553" lon="-1.64224">
        <ele>9.1</ele>
        <time>2021-07-18T08:55:28Z</time>
      </trkpt>
      <trkpt lat="43.40557" lon="-1.64222">
        <ele>9.1</ele>
        <time>2021-07-18T08:55:29Z</time>
      </trkpt>
      <trkpt lat="43.40561" lon="-1.6422">
        <ele>9</ele>
        <time>2021-07-18T08:55:30Z</time>
      </trkpt>
      <trkpt lat="43.40572" lon="-1.64215">
        <ele>8.8</ele>
        <time>2021-07-18T08:55:32Z</time>
      </trkpt>
      <trkpt lat="43.40581" lon="-1.6421">
        <ele>8.5</ele>
        <time>2021-07-18T08:55:34Z</time>
      </trkpt>
      <trkpt lat="43.40585" lon="-1.64207">
        <ele>8.4</ele>
        <time>2021-07-18T08:55:35Z</time>
      </trkpt>
      <trkpt lat="43.40594" lon="-1.64201">
        <ele>8.1</ele>
        <time>2021-07-18T08:55:37Z</time>
      </trkpt>
      <trkpt lat="43.40599" lon="-1.64198">
        <ele>7.9</ele>
        <time>2021-07-18T08:55:38Z</time>
      </trkpt>
      <trkpt lat="43.4061" lon="-1.64193">
        <ele>7.5</ele>
        <time>2021-07-18T08:55:40Z</time>
      </trkpt>
      <trkpt lat="43.40616" lon="-1.64189">
        <ele>7.4</ele>
        <time>2021-07-18T08:55:41Z</time>
      </trkpt>
      <trkpt lat="43.40627" lon="-1.64181">
        <ele>7</ele>
        <time>2021-07-18T08:55:43Z</time>
      </trkpt>
      <trkpt lat="43.40633" lon="-1.64176">
        <ele>6.8</ele>
        <time>2021-07-18T08:55:44Z</time>
      </trkpt>
      <trkpt lat="43.40639" lon="-1.64171">
        <ele>6.7</ele>
        <time>2021-07-18T08:55:45Z</time>
      </trkpt>
      <trkpt lat="43.40645" lon="-1.64166">
        <ele>6.6</ele>
        <time>2021-07-18T08:55:46Z</time>
      </trkpt>
      <trkpt lat="43.40656" lon="-1.64155">
        <ele>6.5</ele>
        <time>2021-07-18T08:55:48Z</time>
      </trkpt>
      <trkpt lat="43.40666" lon="-1.64144">
        <ele>6.5</ele>
        <time>2021-07-18T08:55:50Z</time>
      </trkpt>
      <trkpt lat="43.40673" lon="-1.6413">
        <ele>6.5</ele>
        <time>2021-07-18T08:55:52Z</time>
      </trkpt>
      <trkpt lat="43.40681" lon="-1.64117">
        <ele>6.4</ele>
        <time>2021-07-18T08:55:54Z</time>
      </trkpt>
      <trkpt lat="43.40689" lon="-1.64106">
        <ele>6.4</ele>
        <time>2021-07-18T08:55:56Z</time>
      </trkpt>
      <trkpt lat="43.40693" lon="-1.64101">
        <ele>6.4</ele>
        <time>2021-07-18T08:55:57Z</time>
      </trkpt>
      <trkpt lat="43.40697" lon="-1.64096">
        <ele>6.5</ele>
        <time>2021-07-18T08:55:58Z</time>
      </trkpt>
      <trkpt lat="43.40704" lon="-1.64087">
        <ele>6.5</ele>
        <time>2021-07-18T08:56:00Z</time>
      </trkpt>
      <trkpt lat="43.4071" lon="-1.64076">
        <ele>6.5</ele>
        <time>2021-07-18T08:56:02Z</time>
      </trkpt>
      <trkpt lat="43.40712" lon="-1.6407">
        <ele>6.5</ele>
        <time>2021-07-18T08:56:03Z</time>
      </trkpt>
      <trkpt lat="43.40715" lon="-1.64064">
        <ele>6.5</ele>
        <time>2021-07-18T08:56:04Z</time>
      </trkpt>
      <trkpt lat="43.4072" lon="-1.64053">
        <ele>6.5</ele>
        <time>2021-07-18T08:56:06Z</time>
      </trkpt>
      <trkpt lat="43.40726" lon="-1.64042">
        <ele>6.4</ele>
        <time>2021-07-18T08:56:08Z</time>
      </trkpt>
      <trkpt lat="43.4073" lon="-1.6403">
        <ele>6.4</ele>
        <time>2021-07-18T08:56:10Z</time>
      </trkpt>
      <trkpt lat="43.40733" lon="-1.64017">
        <ele>6.4</ele>
        <time>2021-07-18T08:56:12Z</time>
      </trkpt>
      <trkpt lat="43.40736" lon="-1.64011">
        <ele>6.4</ele>
        <time>2021-07-18T08:56:13Z</time>
      </trkpt>
      <trkpt lat="43.40738" lon="-1.64005">
        <ele>6.3</ele>
        <time>2021-07-18T08:56:14Z</time>
      </trkpt>
      <trkpt lat="43.40744" lon="-1.63994">
        <ele>6.3</ele>
        <time>2021-07-18T08:56:16Z</time>
      </trkpt>
      <trkpt lat="43.40746" lon="-1.63988">
        <ele>6.3</ele>
        <time>2021-07-18T08:56:17Z</time>
      </trkpt>
      <trkpt lat="43.40748" lon="-1.63983">
        <ele>6.3</ele>
        <time>2021-07-18T08:56:18Z</time>
      </trkpt>
      <trkpt lat="43.40753" lon="-1.63976">
        <ele>6.3</ele>
        <time>2021-07-18T08:56:20Z</time>
      </trkpt>
      <trkpt lat="43.40759" lon="-1.6397">
        <ele>6.3</ele>
        <time>2021-07-18T08:56:22Z</time>
      </trkpt>
      <trkpt lat="43.40762" lon="-1.63965">
        <ele>6.3</ele>
        <time>2021-07-18T08:56:23Z</time>
      </trkpt>
      <trkpt lat="43.40766" lon="-1.63957">
        <ele>6.3</ele>
        <time>2021-07-18T08:56:25Z</time>
      </trkpt>
      <trkpt lat="43.40764" lon="-1.63953">
        <ele>6.3</ele>
        <time>2021-07-18T08:56:26Z</time>
      </trkpt>
      <trkpt lat="43.40765" lon="-1.63947">
        <ele>6.3</ele>
        <time>2021-07-18T08:56:28Z</time>
      </trkpt>
      <trkpt lat="43.4077" lon="-1.63939">
        <ele>6.4</ele>
        <time>2021-07-18T08:56:29Z</time>
      </trkpt>
      <trkpt lat="43.40773" lon="-1.63934">
        <ele>6.4</ele>
        <time>2021-07-18T08:56:30Z</time>
      </trkpt>
      <trkpt lat="43.40776" lon="-1.63927">
        <ele>6.4</ele>
        <time>2021-07-18T08:56:31Z</time>
      </trkpt>
      <trkpt lat="43.40779" lon="-1.6392">
        <ele>6.3</ele>
        <time>2021-07-18T08:56:33Z</time>
      </trkpt>
      <trkpt lat="43.40782" lon="-1.63915">
        <ele>6.3</ele>
        <time>2021-07-18T08:56:34Z</time>
      </trkpt>
      <trkpt lat="43.40785" lon="-1.6391">
        <ele>6.2</ele>
        <time>2021-07-18T08:56:35Z</time>
      </trkpt>
      <trkpt lat="43.40787" lon="-1.63905">
        <ele>6.1</ele>
        <time>2021-07-18T08:56:36Z</time>
      </trkpt>
      <trkpt lat="43.40788" lon="-1.639">
        <ele>6</ele>
        <time>2021-07-18T08:56:37Z</time>
      </trkpt>
      <trkpt lat="43.40788" lon="-1.63895">
        <ele>5.9</ele>
        <time>2021-07-18T08:56:38Z</time>
      </trkpt>
      <trkpt lat="43.40785" lon="-1.63888">
        <ele>5.7</ele>
        <time>2021-07-18T08:56:40Z</time>
      </trkpt>
      <trkpt lat="43.40779" lon="-1.63882">
        <ele>5.5</ele>
        <time>2021-07-18T08:56:41Z</time>
      </trkpt>
      <trkpt lat="43.40772" lon="-1.6387">
        <ele>5.2</ele>
        <time>2021-07-18T08:56:43Z</time>
      </trkpt>
      <trkpt lat="43.40766" lon="-1.6386">
        <ele>5</ele>
        <time>2021-07-18T08:56:45Z</time>
      </trkpt>
      <trkpt lat="43.40763" lon="-1.63854">
        <ele>4.9</ele>
        <time>2021-07-18T08:56:46Z</time>
      </trkpt>
      <trkpt lat="43.40761" lon="-1.63848">
        <ele>4.9</ele>
        <time>2021-07-18T08:56:47Z</time>
      </trkpt>
      <trkpt lat="43.40759" lon="-1.63842">
        <ele>4.9</ele>
        <time>2021-07-18T08:56:48Z</time>
      </trkpt>
      <trkpt lat="43.40753" lon="-1.63832">
        <ele>4.9</ele>
        <time>2021-07-18T08:56:50Z</time>
      </trkpt>
      <trkpt lat="43.4075" lon="-1.63824">
        <ele>4.9</ele>
        <time>2021-07-18T08:56:52Z</time>
      </trkpt>
      <trkpt lat="43.40752" lon="-1.63818">
        <ele>4.9</ele>
        <time>2021-07-18T08:56:53Z</time>
      </trkpt>
      <trkpt lat="43.40758" lon="-1.63809">
        <ele>4.9</ele>
        <time>2021-07-18T08:56:55Z</time>
      </trkpt>
      <trkpt lat="43.40766" lon="-1.63806">
        <ele>5</ele>
        <time>2021-07-18T08:56:57Z</time>
      </trkpt>
      <trkpt lat="43.40771" lon="-1.63808">
        <ele>4.9</ele>
        <time>2021-07-18T08:56:58Z</time>
      </trkpt>
      <trkpt lat="43.40775" lon="-1.63814">
        <ele>4.9</ele>
        <time>2021-07-18T08:57:00Z</time>
      </trkpt>
      <trkpt lat="43.40778" lon="-1.63818">
        <ele>4.9</ele>
        <time>2021-07-18T08:57:01Z</time>
      </trkpt>
      <trkpt lat="43.40782" lon="-1.63823">
        <ele>4.9</ele>
        <time>2021-07-18T08:57:02Z</time>
      </trkpt>
      <trkpt lat="43.40785" lon="-1.63826">
        <ele>4.9</ele>
        <time>2021-07-18T08:57:03Z</time>
      </trkpt>
      <trkpt lat="43.40791" lon="-1.63832">
        <ele>4.9</ele>
        <time>2021-07-18T08:57:05Z</time>
      </trkpt>
      <trkpt lat="43.40794" lon="-1.63835">
        <ele>4.9</ele>
        <time>2021-07-18T08:57:06Z</time>
      </trkpt>
      <trkpt lat="43.408" lon="-1.63841">
        <ele>4.9</ele>
        <time>2021-07-18T08:57:08Z</time>
      </trkpt>
      <trkpt lat="43.40803" lon="-1.63845">
        <ele>5</ele>
        <time>2021-07-18T08:57:09Z</time>
      </trkpt>
      <trkpt lat="43.40805" lon="-1.63848">
        <ele>5</ele>
        <time>2021-07-18T08:57:10Z</time>
      </trkpt>
      <trkpt lat="43.4081" lon="-1.63847">
        <ele>5.1</ele>
        <time>2021-07-18T08:57:12Z</time>
      </trkpt>
      <trkpt lat="43.40814" lon="-1.63846">
        <ele>5.2</ele>
        <time>2021-07-18T08:57:13Z</time>
      </trkpt>
      <trkpt lat="43.40817" lon="-1.63844">
        <ele>5.3</ele>
        <time>2021-07-18T08:57:14Z</time>
      </trkpt>
      <trkpt lat="43.4082" lon="-1.63838">
        <ele>5.5</ele>
        <time>2021-07-18T08:57:16Z</time>
      </trkpt>
      <trkpt lat="43.40821" lon="-1.63834">
        <ele>5.6</ele>
        <time>2021-07-18T08:57:17Z</time>
      </trkpt>
      <trkpt lat="43.40823" lon="-1.63829">
        <ele>5.8</ele>
        <time>2021-07-18T08:57:18Z</time>
      </trkpt>
      <trkpt lat="43.40825" lon="-1.63824">
        <ele>6</ele>
        <time>2021-07-18T08:57:20Z</time>
      </trkpt>
      <trkpt lat="43.40826" lon="-1.6382">
        <ele>6.1</ele>
        <time>2021-07-18T08:57:21Z</time>
      </trkpt>
      <trkpt lat="43.40828" lon="-1.63816">
        <ele>6.3</ele>
        <time>2021-07-18T08:57:22Z</time>
      </trkpt>
      <trkpt lat="43.4083" lon="-1.63812">
        <ele>6.5</ele>
        <time>2021-07-18T08:57:24Z</time>
      </trkpt>
      <trkpt lat="43.40832" lon="-1.63809">
        <ele>6.7</ele>
        <time>2021-07-18T08:57:25Z</time>
      </trkpt>
      <trkpt lat="43.40833" lon="-1.63807">
        <ele>6.8</ele>
        <time>2021-07-18T08:57:27Z</time>
      </trkpt>
      <trkpt lat="43.40835" lon="-1.63803">
        <ele>7.1</ele>
        <time>2021-07-18T08:57:28Z</time>
      </trkpt>
      <trkpt lat="43.40835" lon="-1.63801">
        <ele>7.1</ele>
        <time>2021-07-18T08:57:29Z</time>
      </trkpt>
      <trkpt lat="43.40838" lon="-1.63797">
        <ele>7.4</ele>
        <time>2021-07-18T08:57:31Z</time>
      </trkpt>
      <trkpt lat="43.40839" lon="-1.63796">
        <ele>7.5</ele>
        <time>2021-07-18T08:57:32Z</time>
      </trkpt>
      <trkpt lat="43.4084" lon="-1.63791">
        <ele>7.8</ele>
        <time>2021-07-18T08:57:34Z</time>
      </trkpt>
      <trkpt lat="43.40843" lon="-1.63787">
        <ele>8.1</ele>
        <time>2021-07-18T08:57:36Z</time>
      </trkpt>
      <trkpt lat="43.40844" lon="-1.63785">
        <ele>8.2</ele>
        <time>2021-07-18T08:57:37Z</time>
      </trkpt>
      <trkpt lat="43.40844" lon="-1.63784">
        <ele>8.3</ele>
        <time>2021-07-18T08:57:38Z</time>
      </trkpt>
      <trkpt lat="43.40845" lon="-1.63782">
        <ele>8.5</ele>
        <time>2021-07-18T08:57:39Z</time>
      </trkpt>
      <trkpt lat="43.40848" lon="-1.6378">
        <ele>8.7</ele>
        <time>2021-07-18T08:57:41Z</time>
      </trkpt>
      <trkpt lat="43.40851" lon="-1.63777">
        <ele>9</ele>
        <time>2021-07-18T08:57:43Z</time>
      </trkpt>
      <trkpt lat="43.40851" lon="-1.63777">
        <ele>9</ele>
        <time>2021-07-18T08:57:44Z</time>
      </trkpt>
      <trkpt lat="43.40853" lon="-1.63776">
        <ele>9.2</ele>
        <time>2021-07-18T08:57:45Z</time>
      </trkpt>
      <trkpt lat="43.40854" lon="-1.63776">
        <ele>9.3</ele>
        <time>2021-07-18T08:57:46Z</time>
      </trkpt>
      <trkpt lat="43.40855" lon="-1.63776">
        <ele>9.3</ele>
        <time>2021-07-18T08:57:47Z</time>
      </trkpt>
      <trkpt lat="43.40858" lon="-1.63774">
        <ele>9.6</ele>
        <time>2021-07-18T08:57:49Z</time>
      </trkpt>
      <trkpt lat="43.40858" lon="-1.63772">
        <ele>9.7</ele>
        <time>2021-07-18T08:57:50Z</time>
      </trkpt>
      <trkpt lat="43.4086" lon="-1.63768">
        <ele>9.8</ele>
        <time>2021-07-18T08:57:52Z</time>
      </trkpt>
      <trkpt lat="43.40861" lon="-1.63765">
        <ele>10</ele>
        <time>2021-07-18T08:57:53Z</time>
      </trkpt>
      <trkpt lat="43.40864" lon="-1.63761">
        <ele>10.2</ele>
        <time>2021-07-18T08:57:55Z</time>
      </trkpt>
      <trkpt lat="43.40865" lon="-1.63759">
        <ele>10.3</ele>
        <time>2021-07-18T08:57:56Z</time>
      </trkpt>
      <trkpt lat="43.40867" lon="-1.63755">
        <ele>10.5</ele>
        <time>2021-07-18T08:57:58Z</time>
      </trkpt>
      <trkpt lat="43.4087" lon="-1.63752">
        <ele>10.6</ele>
        <time>2021-07-18T08:57:59Z</time>
      </trkpt>
      <trkpt lat="43.40871" lon="-1.6375">
        <ele>10.7</ele>
        <time>2021-07-18T08:58:00Z</time>
      </trkpt>
      <trkpt lat="43.40873" lon="-1.63747">
        <ele>10.8</ele>
        <time>2021-07-18T08:58:02Z</time>
      </trkpt>
      <trkpt lat="43.40875" lon="-1.63744">
        <ele>11</ele>
        <time>2021-07-18T08:58:03Z</time>
      </trkpt>
      <trkpt lat="43.40878" lon="-1.6374">
        <ele>11.1</ele>
        <time>2021-07-18T08:58:05Z</time>
      </trkpt>
      <trkpt lat="43.4088" lon="-1.63736">
        <ele>11.3</ele>
        <time>2021-07-18T08:58:06Z</time>
      </trkpt>
      <trkpt lat="43.4088" lon="-1.63735">
        <ele>11.3</ele>
        <time>2021-07-18T08:58:07Z</time>
      </trkpt>
      <trkpt lat="43.40882" lon="-1.63733">
        <ele>11.4</ele>
        <time>2021-07-18T08:58:08Z</time>
      </trkpt>
      <trkpt lat="43.40885" lon="-1.63728">
        <ele>11.7</ele>
        <time>2021-07-18T08:58:10Z</time>
      </trkpt>
      <trkpt lat="43.40889" lon="-1.63724">
        <ele>11.9</ele>
        <time>2021-07-18T08:58:12Z</time>
      </trkpt>
      <trkpt lat="43.40893" lon="-1.63721">
        <ele>12.3</ele>
        <time>2021-07-18T08:58:14Z</time>
      </trkpt>
      <trkpt lat="43.40897" lon="-1.63718">
        <ele>12.7</ele>
        <time>2021-07-18T08:58:16Z</time>
      </trkpt>
      <trkpt lat="43.40898" lon="-1.63717">
        <ele>12.8</ele>
        <time>2021-07-18T08:58:17Z</time>
      </trkpt>
      <trkpt lat="43.409" lon="-1.63717">
        <ele>12.9</ele>
        <time>2021-07-18T08:58:18Z</time>
      </trkpt>
      <trkpt lat="43.40903" lon="-1.63714">
        <ele>13.3</ele>
        <time>2021-07-18T08:58:20Z</time>
      </trkpt>
      <trkpt lat="43.40904" lon="-1.63713">
        <ele>13.5</ele>
        <time>2021-07-18T08:58:21Z</time>
      </trkpt>
      <trkpt lat="43.40905" lon="-1.63712">
        <ele>13.7</ele>
        <time>2021-07-18T08:58:22Z</time>
      </trkpt>
      <trkpt lat="43.40906" lon="-1.6371">
        <ele>13.9</ele>
        <time>2021-07-18T08:58:23Z</time>
      </trkpt>
      <trkpt lat="43.40909" lon="-1.63707">
        <ele>14.3</ele>
        <time>2021-07-18T08:58:25Z</time>
      </trkpt>
      <trkpt lat="43.4091" lon="-1.63704">
        <ele>14.7</ele>
        <time>2021-07-18T08:58:27Z</time>
      </trkpt>
      <trkpt lat="43.40911" lon="-1.63702">
        <ele>15</ele>
        <time>2021-07-18T08:58:28Z</time>
      </trkpt>
      <trkpt lat="43.40913" lon="-1.63701">
        <ele>15.3</ele>
        <time>2021-07-18T08:58:29Z</time>
      </trkpt>
      <trkpt lat="43.40916" lon="-1.63696">
        <ele>16</ele>
        <time>2021-07-18T08:58:31Z</time>
      </trkpt>
      <trkpt lat="43.40916" lon="-1.63694">
        <ele>16.3</ele>
        <time>2021-07-18T08:58:33Z</time>
      </trkpt>
      <trkpt lat="43.40917" lon="-1.63692">
        <ele>16.6</ele>
        <time>2021-07-18T08:58:34Z</time>
      </trkpt>
      <trkpt lat="43.40917" lon="-1.6369">
        <ele>16.9</ele>
        <time>2021-07-18T08:58:35Z</time>
      </trkpt>
      <trkpt lat="43.40917" lon="-1.63687">
        <ele>17.2</ele>
        <time>2021-07-18T08:58:36Z</time>
      </trkpt>
      <trkpt lat="43.40918" lon="-1.63683">
        <ele>17.7</ele>
        <time>2021-07-18T08:58:38Z</time>
      </trkpt>
      <trkpt lat="43.40918" lon="-1.63682">
        <ele>17.9</ele>
        <time>2021-07-18T08:58:39Z</time>
      </trkpt>
      <trkpt lat="43.40918" lon="-1.63681">
        <ele>18.1</ele>
        <time>2021-07-18T08:58:40Z</time>
      </trkpt>
      <trkpt lat="43.40919" lon="-1.63678">
        <ele>18.4</ele>
        <time>2021-07-18T08:58:42Z</time>
      </trkpt>
      <trkpt lat="43.40919" lon="-1.63675">
        <ele>18.8</ele>
        <time>2021-07-18T08:58:43Z</time>
      </trkpt>
      <trkpt lat="43.40919" lon="-1.63672">
        <ele>19.2</ele>
        <time>2021-07-18T08:58:45Z</time>
      </trkpt>
      <trkpt lat="43.40919" lon="-1.6367">
        <ele>19.5</ele>
        <time>2021-07-18T08:58:46Z</time>
      </trkpt>
      <trkpt lat="43.40919" lon="-1.63667">
        <ele>19.8</ele>
        <time>2021-07-18T08:58:48Z</time>
      </trkpt>
      <trkpt lat="43.4092" lon="-1.63665">
        <ele>20.1</ele>
        <time>2021-07-18T08:58:49Z</time>
      </trkpt>
      <trkpt lat="43.4092" lon="-1.63663">
        <ele>20.3</ele>
        <time>2021-07-18T08:58:50Z</time>
      </trkpt>
      <trkpt lat="43.4092" lon="-1.63661">
        <ele>20.5</ele>
        <time>2021-07-18T08:58:51Z</time>
      </trkpt>
      <trkpt lat="43.4092" lon="-1.63658">
        <ele>20.8</ele>
        <time>2021-07-18T08:58:53Z</time>
      </trkpt>
      <trkpt lat="43.4092" lon="-1.63656">
        <ele>21</ele>
        <time>2021-07-18T08:58:54Z</time>
      </trkpt>
      <trkpt lat="43.40919" lon="-1.63653">
        <ele>21.2</ele>
        <time>2021-07-18T08:58:56Z</time>
      </trkpt>
      <trkpt lat="43.40918" lon="-1.63651">
        <ele>21.4</ele>
        <time>2021-07-18T08:58:57Z</time>
      </trkpt>
      <trkpt lat="43.40917" lon="-1.6365">
        <ele>21.6</ele>
        <time>2021-07-18T08:58:58Z</time>
      </trkpt>
      <trkpt lat="43.40916" lon="-1.63646">
        <ele>21.9</ele>
        <time>2021-07-18T08:59:00Z</time>
      </trkpt>
      <trkpt lat="43.40916" lon="-1.63645">
        <ele>22.1</ele>
        <time>2021-07-18T08:59:01Z</time>
      </trkpt>
      <trkpt lat="43.40919" lon="-1.63641">
        <ele>22.1</ele>
        <time>2021-07-18T08:59:02Z</time>
      </trkpt>
      <trkpt lat="43.40919" lon="-1.6364">
        <ele>22.1</ele>
        <time>2021-07-18T08:59:03Z</time>
      </trkpt>
      <trkpt lat="43.40921" lon="-1.63637">
        <ele>22.1</ele>
        <time>2021-07-18T08:59:04Z</time>
      </trkpt>
      <trkpt lat="43.40922" lon="-1.63632">
        <ele>22.2</ele>
        <time>2021-07-18T08:59:06Z</time>
      </trkpt>
      <trkpt lat="43.40925" lon="-1.63628">
        <ele>22.2</ele>
        <time>2021-07-18T08:59:07Z</time>
      </trkpt>
      <trkpt lat="43.40925" lon="-1.63627">
        <ele>22.2</ele>
        <time>2021-07-18T08:59:08Z</time>
      </trkpt>
      <trkpt lat="43.40927" lon="-1.63624">
        <ele>22.2</ele>
        <time>2021-07-18T08:59:09Z</time>
      </trkpt>
      <trkpt lat="43.40929" lon="-1.63621">
        <ele>22.2</ele>
        <time>2021-07-18T08:59:10Z</time>
      </trkpt>
      <trkpt lat="43.40934" lon="-1.63616">
        <ele>22.2</ele>
        <time>2021-07-18T08:59:12Z</time>
      </trkpt>
      <trkpt lat="43.40937" lon="-1.63614">
        <ele>22.2</ele>
        <time>2021-07-18T08:59:13Z</time>
      </trkpt>
      <trkpt lat="43.40939" lon="-1.63611">
        <ele>22.2</ele>
        <time>2021-07-18T08:59:14Z</time>
      </trkpt>
      <trkpt lat="43.40944" lon="-1.63604">
        <ele>22.2</ele>
        <time>2021-07-18T08:59:16Z</time>
      </trkpt>
      <trkpt lat="43.40947" lon="-1.63601">
        <ele>22.2</ele>
        <time>2021-07-18T08:59:17Z</time>
      </trkpt>
      <trkpt lat="43.40951" lon="-1.63597">
        <ele>22.2</ele>
        <time>2021-07-18T08:59:18Z</time>
      </trkpt>
      <trkpt lat="43.40955" lon="-1.63594">
        <ele>22.3</ele>
        <time>2021-07-18T08:59:20Z</time>
      </trkpt>
      <trkpt lat="43.40959" lon="-1.63591">
        <ele>22.3</ele>
        <time>2021-07-18T08:59:21Z</time>
      </trkpt>
      <trkpt lat="43.40964" lon="-1.63587">
        <ele>22.3</ele>
        <time>2021-07-18T08:59:22Z</time>
      </trkpt>
      <trkpt lat="43.40967" lon="-1.63585">
        <ele>22.3</ele>
        <time>2021-07-18T08:59:23Z</time>
      </trkpt>
      <trkpt lat="43.40974" lon="-1.6358">
        <ele>22.4</ele>
        <time>2021-07-18T08:59:25Z</time>
      </trkpt>
      <trkpt lat="43.40981" lon="-1.63577">
        <ele>22.4</ele>
        <time>2021-07-18T08:59:27Z</time>
      </trkpt>
      <trkpt lat="43.40985" lon="-1.63573">
        <ele>22.5</ele>
        <time>2021-07-18T08:59:28Z</time>
      </trkpt>
      <trkpt lat="43.40993" lon="-1.63568">
        <ele>22.6</ele>
        <time>2021-07-18T08:59:30Z</time>
      </trkpt>
      <trkpt lat="43.40999" lon="-1.63564">
        <ele>22.7</ele>
        <time>2021-07-18T08:59:32Z</time>
      </trkpt>
      <trkpt lat="43.41003" lon="-1.6356">
        <ele>22.8</ele>
        <time>2021-07-18T08:59:33Z</time>
      </trkpt>
      <trkpt lat="43.41006" lon="-1.63558">
        <ele>22.8</ele>
        <time>2021-07-18T08:59:34Z</time>
      </trkpt>
      <trkpt lat="43.41013" lon="-1.63551">
        <ele>22.9</ele>
        <time>2021-07-18T08:59:36Z</time>
      </trkpt>
      <trkpt lat="43.41019" lon="-1.63545">
        <ele>23</ele>
        <time>2021-07-18T08:59:38Z</time>
      </trkpt>
      <trkpt lat="43.41025" lon="-1.63539">
        <ele>23.1</ele>
        <time>2021-07-18T08:59:40Z</time>
      </trkpt>
      <trkpt lat="43.41028" lon="-1.63536">
        <ele>23.2</ele>
        <time>2021-07-18T08:59:41Z</time>
      </trkpt>
      <trkpt lat="43.41031" lon="-1.63533">
        <ele>23.3</ele>
        <time>2021-07-18T08:59:42Z</time>
      </trkpt>
      <trkpt lat="43.41034" lon="-1.6353">
        <ele>23.3</ele>
        <time>2021-07-18T08:59:43Z</time>
      </trkpt>
      <trkpt lat="43.4104" lon="-1.63526">
        <ele>23.5</ele>
        <time>2021-07-18T08:59:45Z</time>
      </trkpt>
      <trkpt lat="43.41043" lon="-1.63524">
        <ele>23.5</ele>
        <time>2021-07-18T08:59:46Z</time>
      </trkpt>
      <trkpt lat="43.41048" lon="-1.6352">
        <ele>23.7</ele>
        <time>2021-07-18T08:59:48Z</time>
      </trkpt>
      <trkpt lat="43.41051" lon="-1.63519">
        <ele>23.7</ele>
        <time>2021-07-18T08:59:49Z</time>
      </trkpt>
      <trkpt lat="43.41053" lon="-1.63517">
        <ele>23.7</ele>
        <time>2021-07-18T08:59:51Z</time>
      </trkpt>
      <trkpt lat="43.41056" lon="-1.63513">
        <ele>23.8</ele>
        <time>2021-07-18T08:59:52Z</time>
      </trkpt>
      <trkpt lat="43.41058" lon="-1.63508">
        <ele>23.8</ele>
        <time>2021-07-18T08:59:54Z</time>
      </trkpt>
      <trkpt lat="43.4106" lon="-1.63503">
        <ele>23.9</ele>
        <time>2021-07-18T08:59:55Z</time>
      </trkpt>
      <trkpt lat="43.41063" lon="-1.63497">
        <ele>23.9</ele>
        <time>2021-07-18T08:59:56Z</time>
      </trkpt>
      <trkpt lat="43.41065" lon="-1.63493">
        <ele>23.9</ele>
        <time>2021-07-18T08:59:57Z</time>
      </trkpt>
      <trkpt lat="43.41068" lon="-1.6349">
        <ele>23.9</ele>
        <time>2021-07-18T08:59:58Z</time>
      </trkpt>
      <trkpt lat="43.41071" lon="-1.63485">
        <ele>24</ele>
        <time>2021-07-18T09:00:00Z</time>
      </trkpt>
      <trkpt lat="43.41075" lon="-1.6348">
        <ele>24.1</ele>
        <time>2021-07-18T09:00:01Z</time>
      </trkpt>
      <trkpt lat="43.41076" lon="-1.63473">
        <ele>24.1</ele>
        <time>2021-07-18T09:00:03Z</time>
      </trkpt>
      <trkpt lat="43.41077" lon="-1.63465">
        <ele>24.3</ele>
        <time>2021-07-18T09:00:04Z</time>
      </trkpt>
      <trkpt lat="43.41079" lon="-1.6346">
        <ele>24.4</ele>
        <time>2021-07-18T09:00:05Z</time>
      </trkpt>
      <trkpt lat="43.41082" lon="-1.63451">
        <ele>24.6</ele>
        <time>2021-07-18T09:00:07Z</time>
      </trkpt>
      <trkpt lat="43.41085" lon="-1.63442">
        <ele>24.7</ele>
        <time>2021-07-18T09:00:09Z</time>
      </trkpt>
      <trkpt lat="43.41087" lon="-1.63433">
        <ele>24.8</ele>
        <time>2021-07-18T09:00:11Z</time>
      </trkpt>
      <trkpt lat="43.41088" lon="-1.63429">
        <ele>24.8</ele>
        <time>2021-07-18T09:00:12Z</time>
      </trkpt>
      <trkpt lat="43.41089" lon="-1.63425">
        <ele>24.8</ele>
        <time>2021-07-18T09:00:13Z</time>
      </trkpt>
      <trkpt lat="43.4109" lon="-1.63417">
        <ele>24.9</ele>
        <time>2021-07-18T09:00:15Z</time>
      </trkpt>
      <trkpt lat="43.41091" lon="-1.63413">
        <ele>24.9</ele>
        <time>2021-07-18T09:00:16Z</time>
      </trkpt>
      <trkpt lat="43.41092" lon="-1.63409">
        <ele>24.9</ele>
        <time>2021-07-18T09:00:17Z</time>
      </trkpt>
      <trkpt lat="43.41095" lon="-1.63401">
        <ele>24.9</ele>
        <time>2021-07-18T09:00:19Z</time>
      </trkpt>
      <trkpt lat="43.41097" lon="-1.63393">
        <ele>25.1</ele>
        <time>2021-07-18T09:00:21Z</time>
      </trkpt>
      <trkpt lat="43.41098" lon="-1.63389">
        <ele>25.1</ele>
        <time>2021-07-18T09:00:22Z</time>
      </trkpt>
      <trkpt lat="43.41101" lon="-1.63381">
        <ele>25.3</ele>
        <time>2021-07-18T09:00:24Z</time>
      </trkpt>
      <trkpt lat="43.41103" lon="-1.63373">
        <ele>25.5</ele>
        <time>2021-07-18T09:00:26Z</time>
      </trkpt>
      <trkpt lat="43.41104" lon="-1.63369">
        <ele>25.7</ele>
        <time>2021-07-18T09:00:27Z</time>
      </trkpt>
      <trkpt lat="43.41106" lon="-1.63362">
        <ele>25.9</ele>
        <time>2021-07-18T09:00:29Z</time>
      </trkpt>
      <trkpt lat="43.41108" lon="-1.63356">
        <ele>26.1</ele>
        <time>2021-07-18T09:00:31Z</time>
      </trkpt>
      <trkpt lat="43.41109" lon="-1.63351">
        <ele>26.2</ele>
        <time>2021-07-18T09:00:32Z</time>
      </trkpt>
      <trkpt lat="43.4111" lon="-1.63348">
        <ele>26.3</ele>
        <time>2021-07-18T09:00:33Z</time>
      </trkpt>
      <trkpt lat="43.41112" lon="-1.63341">
        <ele>26.6</ele>
        <time>2021-07-18T09:00:35Z</time>
      </trkpt>
      <trkpt lat="43.41114" lon="-1.63337">
        <ele>26.7</ele>
        <time>2021-07-18T09:00:36Z</time>
      </trkpt>
      <trkpt lat="43.41116" lon="-1.63329">
        <ele>27</ele>
        <time>2021-07-18T09:00:38Z</time>
      </trkpt>
      <trkpt lat="43.41117" lon="-1.63325">
        <ele>27.2</ele>
        <time>2021-07-18T09:00:39Z</time>
      </trkpt>
      <trkpt lat="43.41118" lon="-1.63319">
        <ele>27.5</ele>
        <time>2021-07-18T09:00:41Z</time>
      </trkpt>
      <trkpt lat="43.41119" lon="-1.63314">
        <ele>27.7</ele>
        <time>2021-07-18T09:00:42Z</time>
      </trkpt>
      <trkpt lat="43.4112" lon="-1.63312">
        <ele>27.8</ele>
        <time>2021-07-18T09:00:43Z</time>
      </trkpt>
      <trkpt lat="43.41122" lon="-1.63307">
        <ele>28</ele>
        <time>2021-07-18T09:00:45Z</time>
      </trkpt>
      <trkpt lat="43.41123" lon="-1.63302">
        <ele>28.3</ele>
        <time>2021-07-18T09:00:47Z</time>
      </trkpt>
      <trkpt lat="43.41124" lon="-1.63299">
        <ele>28.5</ele>
        <time>2021-07-18T09:00:48Z</time>
      </trkpt>
      <trkpt lat="43.41126" lon="-1.63293">
        <ele>28.8</ele>
        <time>2021-07-18T09:00:50Z</time>
      </trkpt>
      <trkpt lat="43.41127" lon="-1.63289">
        <ele>29</ele>
        <time>2021-07-18T09:00:51Z</time>
      </trkpt>
      <trkpt lat="43.41127" lon="-1.63287">
        <ele>29.1</ele>
        <time>2021-07-18T09:00:52Z</time>
      </trkpt>
      <trkpt lat="43.41128" lon="-1.63281">
        <ele>29.4</ele>
        <time>2021-07-18T09:00:54Z</time>
      </trkpt>
      <trkpt lat="43.41129" lon="-1.63276">
        <ele>29.6</ele>
        <time>2021-07-18T09:00:55Z</time>
      </trkpt>
      <trkpt lat="43.41129" lon="-1.63275">
        <ele>29.7</ele>
        <time>2021-07-18T09:00:56Z</time>
      </trkpt>
      <trkpt lat="43.41131" lon="-1.63269">
        <ele>30</ele>
        <time>2021-07-18T09:00:58Z</time>
      </trkpt>
      <trkpt lat="43.41132" lon="-1.63264">
        <ele>30.2</ele>
        <time>2021-07-18T09:01:00Z</time>
      </trkpt>
      <trkpt lat="43.41134" lon="-1.63258">
        <ele>30.5</ele>
        <time>2021-07-18T09:01:02Z</time>
      </trkpt>
      <trkpt lat="43.41134" lon="-1.63255">
        <ele>30.6</ele>
        <time>2021-07-18T09:01:03Z</time>
      </trkpt>
      <trkpt lat="43.41136" lon="-1.63249">
        <ele>30.9</ele>
        <time>2021-07-18T09:01:05Z</time>
      </trkpt>
      <trkpt lat="43.41137" lon="-1.63245">
        <ele>31.1</ele>
        <time>2021-07-18T09:01:06Z</time>
      </trkpt>
      <trkpt lat="43.41137" lon="-1.63243">
        <ele>31.2</ele>
        <time>2021-07-18T09:01:07Z</time>
      </trkpt>
      <trkpt lat="43.41138" lon="-1.63237">
        <ele>31.4</ele>
        <time>2021-07-18T09:01:09Z</time>
      </trkpt>
      <trkpt lat="43.4114" lon="-1.63231">
        <ele>31.7</ele>
        <time>2021-07-18T09:01:11Z</time>
      </trkpt>
      <trkpt lat="43.41142" lon="-1.63225">
        <ele>32</ele>
        <time>2021-07-18T09:01:13Z</time>
      </trkpt>
      <trkpt lat="43.41143" lon="-1.6322">
        <ele>32.2</ele>
        <time>2021-07-18T09:01:15Z</time>
      </trkpt>
      <trkpt lat="43.41145" lon="-1.63214">
        <ele>32.5</ele>
        <time>2021-07-18T09:01:17Z</time>
      </trkpt>
      <trkpt lat="43.41145" lon="-1.63211">
        <ele>32.6</ele>
        <time>2021-07-18T09:01:18Z</time>
      </trkpt>
      <trkpt lat="43.41147" lon="-1.63205">
        <ele>32.9</ele>
        <time>2021-07-18T09:01:20Z</time>
      </trkpt>
      <trkpt lat="43.41149" lon="-1.632">
        <ele>33.1</ele>
        <time>2021-07-18T09:01:22Z</time>
      </trkpt>
      <trkpt lat="43.41151" lon="-1.63195">
        <ele>33.3</ele>
        <time>2021-07-18T09:01:24Z</time>
      </trkpt>
      <trkpt lat="43.41154" lon="-1.6319">
        <ele>33.6</ele>
        <time>2021-07-18T09:01:26Z</time>
      </trkpt>
      <trkpt lat="43.41157" lon="-1.63185">
        <ele>33.8</ele>
        <time>2021-07-18T09:01:28Z</time>
      </trkpt>
      <trkpt lat="43.41161" lon="-1.63184">
        <ele>34</ele>
        <time>2021-07-18T09:01:30Z</time>
      </trkpt>
      <trkpt lat="43.41162" lon="-1.63183">
        <ele>34.1</ele>
        <time>2021-07-18T09:01:31Z</time>
      </trkpt>
      <trkpt lat="43.41165" lon="-1.63178">
        <ele>34.2</ele>
        <time>2021-07-18T09:01:32Z</time>
      </trkpt>
      <trkpt lat="43.41167" lon="-1.63176">
        <ele>34.3</ele>
        <time>2021-07-18T09:01:33Z</time>
      </trkpt>
      <trkpt lat="43.41171" lon="-1.63172">
        <ele>34.4</ele>
        <time>2021-07-18T09:01:35Z</time>
      </trkpt>
      <trkpt lat="43.41172" lon="-1.6317">
        <ele>34.4</ele>
        <time>2021-07-18T09:01:36Z</time>
      </trkpt>
      <trkpt lat="43.41174" lon="-1.63164">
        <ele>34.5</ele>
        <time>2021-07-18T09:01:38Z</time>
      </trkpt>
      <trkpt lat="43.41175" lon="-1.63161">
        <ele>34.6</ele>
        <time>2021-07-18T09:01:39Z</time>
      </trkpt>
      <trkpt lat="43.41175" lon="-1.63157">
        <ele>34.7</ele>
        <time>2021-07-18T09:01:40Z</time>
      </trkpt>
      <trkpt lat="43.41173" lon="-1.63152">
        <ele>34.9</ele>
        <time>2021-07-18T09:01:42Z</time>
      </trkpt>
      <trkpt lat="43.41171" lon="-1.63149">
        <ele>35</ele>
        <time>2021-07-18T09:01:43Z</time>
      </trkpt>
      <trkpt lat="43.41169" lon="-1.63146">
        <ele>35.2</ele>
        <time>2021-07-18T09:01:44Z</time>
      </trkpt>
      <trkpt lat="43.41165" lon="-1.63143">
        <ele>35.4</ele>
        <time>2021-07-18T09:01:46Z</time>
      </trkpt>
      <trkpt lat="43.41163" lon="-1.63141">
        <ele>35.5</ele>
        <time>2021-07-18T09:01:48Z</time>
      </trkpt>
      <trkpt lat="43.41163" lon="-1.63137">
        <ele>35.8</ele>
        <time>2021-07-18T09:01:49Z</time>
      </trkpt>
      <trkpt lat="43.41162" lon="-1.63134">
        <ele>36</ele>
        <time>2021-07-18T09:01:50Z</time>
      </trkpt>
      <trkpt lat="43.41163" lon="-1.63129">
        <ele>36.4</ele>
        <time>2021-07-18T09:01:52Z</time>
      </trkpt>
      <trkpt lat="43.41164" lon="-1.63122">
        <ele>36.9</ele>
        <time>2021-07-18T09:01:54Z</time>
      </trkpt>
      <trkpt lat="43.41165" lon="-1.63119">
        <ele>37.1</ele>
        <time>2021-07-18T09:01:55Z</time>
      </trkpt>
      <trkpt lat="43.41166" lon="-1.63113">
        <ele>37.5</ele>
        <time>2021-07-18T09:01:57Z</time>
      </trkpt>
      <trkpt lat="43.41166" lon="-1.6311">
        <ele>37.6</ele>
        <time>2021-07-18T09:01:58Z</time>
      </trkpt>
      <trkpt lat="43.41166" lon="-1.63105">
        <ele>37.8</ele>
        <time>2021-07-18T09:02:00Z</time>
      </trkpt>
      <trkpt lat="43.41166" lon="-1.631">
        <ele>38.1</ele>
        <time>2021-07-18T09:02:02Z</time>
      </trkpt>
      <trkpt lat="43.41166" lon="-1.63098">
        <ele>38.2</ele>
        <time>2021-07-18T09:02:03Z</time>
      </trkpt>
      <trkpt lat="43.41166" lon="-1.63093">
        <ele>38.5</ele>
        <time>2021-07-18T09:02:05Z</time>
      </trkpt>
      <trkpt lat="43.41166" lon="-1.63089">
        <ele>38.7</ele>
        <time>2021-07-18T09:02:07Z</time>
      </trkpt>
      <trkpt lat="43.41167" lon="-1.63085">
        <ele>38.9</ele>
        <time>2021-07-18T09:02:08Z</time>
      </trkpt>
      <trkpt lat="43.41168" lon="-1.63081">
        <ele>39.1</ele>
        <time>2021-07-18T09:02:10Z</time>
      </trkpt>
      <trkpt lat="43.41166" lon="-1.63076">
        <ele>39.4</ele>
        <time>2021-07-18T09:02:11Z</time>
      </trkpt>
      <trkpt lat="43.41166" lon="-1.63075">
        <ele>39.4</ele>
        <time>2021-07-18T09:02:12Z</time>
      </trkpt>
      <trkpt lat="43.41165" lon="-1.63068">
        <ele>39.7</ele>
        <time>2021-07-18T09:02:14Z</time>
      </trkpt>
      <trkpt lat="43.41167" lon="-1.63064">
        <ele>39.8</ele>
        <time>2021-07-18T09:02:15Z</time>
      </trkpt>
      <trkpt lat="43.41167" lon="-1.63062">
        <ele>39.8</ele>
        <time>2021-07-18T09:02:16Z</time>
      </trkpt>
      <trkpt lat="43.41169" lon="-1.63056">
        <ele>40</ele>
        <time>2021-07-18T09:02:18Z</time>
      </trkpt>
      <trkpt lat="43.4117" lon="-1.63053">
        <ele>40.1</ele>
        <time>2021-07-18T09:02:19Z</time>
      </trkpt>
      <trkpt lat="43.41173" lon="-1.63047">
        <ele>40.2</ele>
        <time>2021-07-18T09:02:21Z</time>
      </trkpt>
      <trkpt lat="43.41176" lon="-1.63039">
        <ele>40.3</ele>
        <time>2021-07-18T09:02:23Z</time>
      </trkpt>
      <trkpt lat="43.41178" lon="-1.63032">
        <ele>40.3</ele>
        <time>2021-07-18T09:02:25Z</time>
      </trkpt>
      <trkpt lat="43.4118" lon="-1.63026">
        <ele>40.4</ele>
        <time>2021-07-18T09:02:26Z</time>
      </trkpt>
      <trkpt lat="43.41182" lon="-1.63022">
        <ele>40.5</ele>
        <time>2021-07-18T09:02:27Z</time>
      </trkpt>
      <trkpt lat="43.41184" lon="-1.63016">
        <ele>40.5</ele>
        <time>2021-07-18T09:02:29Z</time>
      </trkpt>
      <trkpt lat="43.41186" lon="-1.63009">
        <ele>40.6</ele>
        <time>2021-07-18T09:02:30Z</time>
      </trkpt>
      <trkpt lat="43.41188" lon="-1.63002">
        <ele>40.7</ele>
        <time>2021-07-18T09:02:32Z</time>
      </trkpt>
      <trkpt lat="43.41189" lon="-1.62998">
        <ele>40.8</ele>
        <time>2021-07-18T09:02:33Z</time>
      </trkpt>
      <trkpt lat="43.41191" lon="-1.62993">
        <ele>40.9</ele>
        <time>2021-07-18T09:02:34Z</time>
      </trkpt>
      <trkpt lat="43.41192" lon="-1.62988">
        <ele>41</ele>
        <time>2021-07-18T09:02:35Z</time>
      </trkpt>
      <trkpt lat="43.41193" lon="-1.62981">
        <ele>41.2</ele>
        <time>2021-07-18T09:02:37Z</time>
      </trkpt>
      <trkpt lat="43.41194" lon="-1.62976">
        <ele>41.3</ele>
        <time>2021-07-18T09:02:38Z</time>
      </trkpt>
      <trkpt lat="43.41195" lon="-1.62972">
        <ele>41.3</ele>
        <time>2021-07-18T09:02:39Z</time>
      </trkpt>
      <trkpt lat="43.41196" lon="-1.62967">
        <ele>41.5</ele>
        <time>2021-07-18T09:02:41Z</time>
      </trkpt>
      <trkpt lat="43.41196" lon="-1.62962">
        <ele>41.6</ele>
        <time>2021-07-18T09:02:42Z</time>
      </trkpt>
      <trkpt lat="43.41197" lon="-1.62958">
        <ele>41.7</ele>
        <time>2021-07-18T09:02:43Z</time>
      </trkpt>
      <trkpt lat="43.41197" lon="-1.62952">
        <ele>41.8</ele>
        <time>2021-07-18T09:02:44Z</time>
      </trkpt>
      <trkpt lat="43.41198" lon="-1.62949">
        <ele>41.9</ele>
        <time>2021-07-18T09:02:45Z</time>
      </trkpt>
      <trkpt lat="43.41199" lon="-1.62945">
        <ele>42</ele>
        <time>2021-07-18T09:02:46Z</time>
      </trkpt>
      <trkpt lat="43.412" lon="-1.62936">
        <ele>42.3</ele>
        <time>2021-07-18T09:02:48Z</time>
      </trkpt>
      <trkpt lat="43.41201" lon="-1.62928">
        <ele>42.5</ele>
        <time>2021-07-18T09:02:50Z</time>
      </trkpt>
      <trkpt lat="43.41202" lon="-1.62924">
        <ele>42.7</ele>
        <time>2021-07-18T09:02:51Z</time>
      </trkpt>
      <trkpt lat="43.41203" lon="-1.62916">
        <ele>42.9</ele>
        <time>2021-07-18T09:02:53Z</time>
      </trkpt>
      <trkpt lat="43.41204" lon="-1.62908">
        <ele>43.2</ele>
        <time>2021-07-18T09:02:55Z</time>
      </trkpt>
      <trkpt lat="43.41206" lon="-1.62899">
        <ele>43.4</ele>
        <time>2021-07-18T09:02:57Z</time>
      </trkpt>
      <trkpt lat="43.41206" lon="-1.62895">
        <ele>43.5</ele>
        <time>2021-07-18T09:02:58Z</time>
      </trkpt>
      <trkpt lat="43.41207" lon="-1.62891">
        <ele>43.7</ele>
        <time>2021-07-18T09:02:59Z</time>
      </trkpt>
      <trkpt lat="43.41208" lon="-1.62887">
        <ele>43.8</ele>
        <time>2021-07-18T09:03:00Z</time>
      </trkpt>
      <trkpt lat="43.4121" lon="-1.6288">
        <ele>44</ele>
        <time>2021-07-18T09:03:02Z</time>
      </trkpt>
      <trkpt lat="43.41213" lon="-1.62873">
        <ele>44.3</ele>
        <time>2021-07-18T09:03:04Z</time>
      </trkpt>
      <trkpt lat="43.41214" lon="-1.62865">
        <ele>44.6</ele>
        <time>2021-07-18T09:03:06Z</time>
      </trkpt>
      <trkpt lat="43.41215" lon="-1.62861">
        <ele>44.7</ele>
        <time>2021-07-18T09:03:07Z</time>
      </trkpt>
      <trkpt lat="43.41216" lon="-1.62857">
        <ele>44.8</ele>
        <time>2021-07-18T09:03:08Z</time>
      </trkpt>
      <trkpt lat="43.41219" lon="-1.6285">
        <ele>45.1</ele>
        <time>2021-07-18T09:03:10Z</time>
      </trkpt>
      <trkpt lat="43.41221" lon="-1.62843">
        <ele>45.3</ele>
        <time>2021-07-18T09:03:12Z</time>
      </trkpt>
      <trkpt lat="43.41223" lon="-1.62835">
        <ele>45.6</ele>
        <time>2021-07-18T09:03:14Z</time>
      </trkpt>
      <trkpt lat="43.41225" lon="-1.62829">
        <ele>45.8</ele>
        <time>2021-07-18T09:03:16Z</time>
      </trkpt>
      <trkpt lat="43.41228" lon="-1.62821">
        <ele>46.1</ele>
        <time>2021-07-18T09:03:18Z</time>
      </trkpt>
      <trkpt lat="43.4123" lon="-1.62816">
        <ele>46.2</ele>
        <time>2021-07-18T09:03:19Z</time>
      </trkpt>
      <trkpt lat="43.41232" lon="-1.6281">
        <ele>46.4</ele>
        <time>2021-07-18T09:03:21Z</time>
      </trkpt>
      <trkpt lat="43.41234" lon="-1.62803">
        <ele>46.6</ele>
        <time>2021-07-18T09:03:23Z</time>
      </trkpt>
      <trkpt lat="43.41236" lon="-1.62798">
        <ele>46.7</ele>
        <time>2021-07-18T09:03:24Z</time>
      </trkpt>
      <trkpt lat="43.41237" lon="-1.62794">
        <ele>46.7</ele>
        <time>2021-07-18T09:03:25Z</time>
      </trkpt>
      <trkpt lat="43.41239" lon="-1.62791">
        <ele>46.7</ele>
        <time>2021-07-18T09:03:26Z</time>
      </trkpt>
      <trkpt lat="43.41241" lon="-1.62782">
        <ele>46.7</ele>
        <time>2021-07-18T09:03:28Z</time>
      </trkpt>
      <trkpt lat="43.41243" lon="-1.62772">
        <ele>46.5</ele>
        <time>2021-07-18T09:03:30Z</time>
      </trkpt>
      <trkpt lat="43.41244" lon="-1.62759">
        <ele>46.1</ele>
        <time>2021-07-18T09:03:31Z</time>
      </trkpt>
      <trkpt lat="43.41245" lon="-1.62751">
        <ele>45.9</ele>
        <time>2021-07-18T09:03:32Z</time>
      </trkpt>
      <trkpt lat="43.41246" lon="-1.62734">
        <ele>45.5</ele>
        <time>2021-07-18T09:03:34Z</time>
      </trkpt>
      <trkpt lat="43.41247" lon="-1.62717">
        <ele>45.4</ele>
        <time>2021-07-18T09:03:36Z</time>
      </trkpt>
      <trkpt lat="43.41248" lon="-1.62709">
        <ele>45.4</ele>
        <time>2021-07-18T09:03:37Z</time>
      </trkpt>
      <trkpt lat="43.41251" lon="-1.62695">
        <ele>45.7</ele>
        <time>2021-07-18T09:03:39Z</time>
      </trkpt>
      <trkpt lat="43.41255" lon="-1.62683">
        <ele>46</ele>
        <time>2021-07-18T09:03:41Z</time>
      </trkpt>
      <trkpt lat="43.41257" lon="-1.62677">
        <ele>46.1</ele>
        <time>2021-07-18T09:03:42Z</time>
      </trkpt>
      <trkpt lat="43.4126" lon="-1.62667">
        <ele>46.2</ele>
        <time>2021-07-18T09:03:44Z</time>
      </trkpt>
      <trkpt lat="43.41262" lon="-1.62656">
        <ele>46.1</ele>
        <time>2021-07-18T09:03:46Z</time>
      </trkpt>
      <trkpt lat="43.41266" lon="-1.62642">
        <ele>45.8</ele>
        <time>2021-07-18T09:03:48Z</time>
      </trkpt>
      <trkpt lat="43.41268" lon="-1.62634">
        <ele>45.6</ele>
        <time>2021-07-18T09:03:49Z</time>
      </trkpt>
      <trkpt lat="43.41271" lon="-1.62618">
        <ele>45.3</ele>
        <time>2021-07-18T09:03:51Z</time>
      </trkpt>
      <trkpt lat="43.41273" lon="-1.6261">
        <ele>45.2</ele>
        <time>2021-07-18T09:03:52Z</time>
      </trkpt>
      <trkpt lat="43.41272" lon="-1.62601">
        <ele>44.9</ele>
        <time>2021-07-18T09:03:53Z</time>
      </trkpt>
      <trkpt lat="43.41272" lon="-1.62592">
        <ele>44.7</ele>
        <time>2021-07-18T09:03:54Z</time>
      </trkpt>
      <trkpt lat="43.41273" lon="-1.62573">
        <ele>44.3</ele>
        <time>2021-07-18T09:03:56Z</time>
      </trkpt>
      <trkpt lat="43.41274" lon="-1.62556">
        <ele>44.1</ele>
        <time>2021-07-18T09:03:58Z</time>
      </trkpt>
      <trkpt lat="43.41275" lon="-1.62539">
        <ele>44.1</ele>
        <time>2021-07-18T09:04:00Z</time>
      </trkpt>
      <trkpt lat="43.41275" lon="-1.62531">
        <ele>44.1</ele>
        <time>2021-07-18T09:04:01Z</time>
      </trkpt>
      <trkpt lat="43.41275" lon="-1.62523">
        <ele>44.1</ele>
        <time>2021-07-18T09:04:02Z</time>
      </trkpt>
      <trkpt lat="43.41273" lon="-1.62509">
        <ele>44.1</ele>
        <time>2021-07-18T09:04:04Z</time>
      </trkpt>
      <trkpt lat="43.41272" lon="-1.62503">
        <ele>44.1</ele>
        <time>2021-07-18T09:04:05Z</time>
      </trkpt>
      <trkpt lat="43.4127" lon="-1.62498">
        <ele>44.1</ele>
        <time>2021-07-18T09:04:06Z</time>
      </trkpt>
      <trkpt lat="43.41269" lon="-1.62493">
        <ele>44.1</ele>
        <time>2021-07-18T09:04:07Z</time>
      </trkpt>
      <trkpt lat="43.41269" lon="-1.62483">
        <ele>44.1</ele>
        <time>2021-07-18T09:04:09Z</time>
      </trkpt>
      <trkpt lat="43.4127" lon="-1.62477">
        <ele>44.1</ele>
        <time>2021-07-18T09:04:10Z</time>
      </trkpt>
      <trkpt lat="43.41276" lon="-1.6247">
        <ele>44</ele>
        <time>2021-07-18T09:04:12Z</time>
      </trkpt>
      <trkpt lat="43.41283" lon="-1.62476">
        <ele>44.3</ele>
        <time>2021-07-18T09:04:14Z</time>
      </trkpt>
      <trkpt lat="43.41287" lon="-1.62484">
        <ele>44.4</ele>
        <time>2021-07-18T09:04:16Z</time>
      </trkpt>
      <trkpt lat="43.41294" lon="-1.62488">
        <ele>44.4</ele>
        <time>2021-07-18T09:04:18Z</time>
      </trkpt>
      <trkpt lat="43.413" lon="-1.62496">
        <ele>44.3</ele>
        <time>2021-07-18T09:04:20Z</time>
      </trkpt>
      <trkpt lat="43.41307" lon="-1.625">
        <ele>44.2</ele>
        <time>2021-07-18T09:04:22Z</time>
      </trkpt>
      <trkpt lat="43.41312" lon="-1.62504">
        <ele>44.1</ele>
        <time>2021-07-18T09:04:23Z</time>
      </trkpt>
      <trkpt lat="43.41315" lon="-1.62508">
        <ele>43.9</ele>
        <time>2021-07-18T09:04:25Z</time>
      </trkpt>
      <trkpt lat="43.41319" lon="-1.62513">
        <ele>43.8</ele>
        <time>2021-07-18T09:04:26Z</time>
      </trkpt>
      <trkpt lat="43.41324" lon="-1.6252">
        <ele>43.5</ele>
        <time>2021-07-18T09:04:27Z</time>
      </trkpt>
      <trkpt lat="43.41331" lon="-1.62529">
        <ele>43.1</ele>
        <time>2021-07-18T09:04:29Z</time>
      </trkpt>
      <trkpt lat="43.41335" lon="-1.62534">
        <ele>43</ele>
        <time>2021-07-18T09:04:30Z</time>
      </trkpt>
      <trkpt lat="43.41339" lon="-1.62538">
        <ele>42.8</ele>
        <time>2021-07-18T09:04:31Z</time>
      </trkpt>
      <trkpt lat="43.41348" lon="-1.62548">
        <ele>42.3</ele>
        <time>2021-07-18T09:04:33Z</time>
      </trkpt>
      <trkpt lat="43.41352" lon="-1.62553">
        <ele>42.1</ele>
        <time>2021-07-18T09:04:34Z</time>
      </trkpt>
      <trkpt lat="43.41357" lon="-1.62559">
        <ele>41.9</ele>
        <time>2021-07-18T09:04:35Z</time>
      </trkpt>
      <trkpt lat="43.41366" lon="-1.62569">
        <ele>41.4</ele>
        <time>2021-07-18T09:04:37Z</time>
      </trkpt>
      <trkpt lat="43.41371" lon="-1.62575">
        <ele>41.1</ele>
        <time>2021-07-18T09:04:38Z</time>
      </trkpt>
      <trkpt lat="43.4138" lon="-1.62586">
        <ele>40.6</ele>
        <time>2021-07-18T09:04:40Z</time>
      </trkpt>
      <trkpt lat="43.41384" lon="-1.62591">
        <ele>40.4</ele>
        <time>2021-07-18T09:04:41Z</time>
      </trkpt>
      <trkpt lat="43.41389" lon="-1.62597">
        <ele>40.1</ele>
        <time>2021-07-18T09:04:42Z</time>
      </trkpt>
      <trkpt lat="43.41397" lon="-1.62607">
        <ele>39.7</ele>
        <time>2021-07-18T09:04:44Z</time>
      </trkpt>
      <trkpt lat="43.41402" lon="-1.62612">
        <ele>39.4</ele>
        <time>2021-07-18T09:04:45Z</time>
      </trkpt>
      <trkpt lat="43.41407" lon="-1.62617">
        <ele>39.2</ele>
        <time>2021-07-18T09:04:46Z</time>
      </trkpt>
      <trkpt lat="43.41415" lon="-1.62627">
        <ele>38.9</ele>
        <time>2021-07-18T09:04:48Z</time>
      </trkpt>
      <trkpt lat="43.41424" lon="-1.62636">
        <ele>38.7</ele>
        <time>2021-07-18T09:04:50Z</time>
      </trkpt>
      <trkpt lat="43.4143" lon="-1.62639">
        <ele>38.6</ele>
        <time>2021-07-18T09:04:51Z</time>
      </trkpt>
      <trkpt lat="43.41435" lon="-1.62641">
        <ele>38.4</ele>
        <time>2021-07-18T09:04:52Z</time>
      </trkpt>
      <trkpt lat="43.41448" lon="-1.62645">
        <ele>38.1</ele>
        <time>2021-07-18T09:04:54Z</time>
      </trkpt>
      <trkpt lat="43.41454" lon="-1.62647">
        <ele>38</ele>
        <time>2021-07-18T09:04:55Z</time>
      </trkpt>
      <trkpt lat="43.41466" lon="-1.62651">
        <ele>37.8</ele>
        <time>2021-07-18T09:04:57Z</time>
      </trkpt>
      <trkpt lat="43.41471" lon="-1.62651">
        <ele>37.7</ele>
        <time>2021-07-18T09:04:58Z</time>
      </trkpt>
      <trkpt lat="43.41477" lon="-1.62649">
        <ele>37.7</ele>
        <time>2021-07-18T09:04:59Z</time>
      </trkpt>
      <trkpt lat="43.41489" lon="-1.62641">
        <ele>36.7</ele>
        <time>2021-07-18T09:05:01Z</time>
      </trkpt>
      <trkpt lat="43.41495" lon="-1.62636">
        <ele>36.2</ele>
        <time>2021-07-18T09:05:02Z</time>
      </trkpt>
      <trkpt lat="43.41506" lon="-1.62625">
        <ele>35.2</ele>
        <time>2021-07-18T09:05:04Z</time>
      </trkpt>
      <trkpt lat="43.41517" lon="-1.62611">
        <ele>34.2</ele>
        <time>2021-07-18T09:05:06Z</time>
      </trkpt>
      <trkpt lat="43.41521" lon="-1.62603">
        <ele>33.7</ele>
        <time>2021-07-18T09:05:07Z</time>
      </trkpt>
      <trkpt lat="43.41531" lon="-1.62585">
        <ele>32.7</ele>
        <time>2021-07-18T09:05:09Z</time>
      </trkpt>
      <trkpt lat="43.41535" lon="-1.62576">
        <ele>32.2</ele>
        <time>2021-07-18T09:05:10Z</time>
      </trkpt>
      <trkpt lat="43.41546" lon="-1.62559">
        <ele>31.2</ele>
        <time>2021-07-18T09:05:12Z</time>
      </trkpt>
      <trkpt lat="43.41557" lon="-1.62541">
        <ele>30.2</ele>
        <time>2021-07-18T09:05:14Z</time>
      </trkpt>
      <trkpt lat="43.41562" lon="-1.62532">
        <ele>29.7</ele>
        <time>2021-07-18T09:05:15Z</time>
      </trkpt>
      <trkpt lat="43.41567" lon="-1.62523">
        <ele>29.2</ele>
        <time>2021-07-18T09:05:16Z</time>
      </trkpt>
      <trkpt lat="43.41573" lon="-1.62514">
        <ele>28.7</ele>
        <time>2021-07-18T09:05:17Z</time>
      </trkpt>
      <trkpt lat="43.41583" lon="-1.62495">
        <ele>27.8</ele>
        <time>2021-07-18T09:05:19Z</time>
      </trkpt>
      <trkpt lat="43.41588" lon="-1.62485">
        <ele>27.3</ele>
        <time>2021-07-18T09:05:20Z</time>
      </trkpt>
      <trkpt lat="43.41594" lon="-1.62475">
        <ele>26.8</ele>
        <time>2021-07-18T09:05:21Z</time>
      </trkpt>
      <trkpt lat="43.41599" lon="-1.62466">
        <ele>26.5</ele>
        <time>2021-07-18T09:05:22Z</time>
      </trkpt>
      <trkpt lat="43.41609" lon="-1.62447">
        <ele>25.7</ele>
        <time>2021-07-18T09:05:24Z</time>
      </trkpt>
      <trkpt lat="43.41615" lon="-1.62438">
        <ele>25.2</ele>
        <time>2021-07-18T09:05:25Z</time>
      </trkpt>
      <trkpt lat="43.41621" lon="-1.62428">
        <ele>24.6</ele>
        <time>2021-07-18T09:05:26Z</time>
      </trkpt>
      <trkpt lat="43.41632" lon="-1.62408">
        <ele>23.5</ele>
        <time>2021-07-18T09:05:28Z</time>
      </trkpt>
      <trkpt lat="43.41638" lon="-1.62398">
        <ele>23.1</ele>
        <time>2021-07-18T09:05:29Z</time>
      </trkpt>
      <trkpt lat="43.41649" lon="-1.62378">
        <ele>22.1</ele>
        <time>2021-07-18T09:05:31Z</time>
      </trkpt>
      <trkpt lat="43.41654" lon="-1.62367">
        <ele>21.6</ele>
        <time>2021-07-18T09:05:32Z</time>
      </trkpt>
      <trkpt lat="43.41665" lon="-1.62347">
        <ele>20.6</ele>
        <time>2021-07-18T09:05:34Z</time>
      </trkpt>
      <trkpt lat="43.41677" lon="-1.62326">
        <ele>19.5</ele>
        <time>2021-07-18T09:05:36Z</time>
      </trkpt>
      <trkpt lat="43.41688" lon="-1.6231">
        <ele>18.7</ele>
        <time>2021-07-18T09:05:38Z</time>
      </trkpt>
      <trkpt lat="43.41695" lon="-1.62296">
        <ele>18</ele>
        <time>2021-07-18T09:05:40Z</time>
      </trkpt>
      <trkpt lat="43.41699" lon="-1.62287">
        <ele>17.5</ele>
        <time>2021-07-18T09:05:42Z</time>
      </trkpt>
      <trkpt lat="43.41704" lon="-1.62276">
        <ele>16.9</ele>
        <time>2021-07-18T09:05:44Z</time>
      </trkpt>
      <trkpt lat="43.41711" lon="-1.62264">
        <ele>16.1</ele>
        <time>2021-07-18T09:05:46Z</time>
      </trkpt>
      <trkpt lat="43.41719" lon="-1.6225">
        <ele>15.3</ele>
        <time>2021-07-18T09:05:48Z</time>
      </trkpt>
      <trkpt lat="43.41728" lon="-1.62235">
        <ele>14.5</ele>
        <time>2021-07-18T09:05:50Z</time>
      </trkpt>
      <trkpt lat="43.41737" lon="-1.6222">
        <ele>14</ele>
        <time>2021-07-18T09:05:52Z</time>
      </trkpt>
      <trkpt lat="43.41745" lon="-1.62205">
        <ele>13.6</ele>
        <time>2021-07-18T09:05:54Z</time>
      </trkpt>
      <trkpt lat="43.41753" lon="-1.62189">
        <ele>13.4</ele>
        <time>2021-07-18T09:05:56Z</time>
      </trkpt>
      <trkpt lat="43.41761" lon="-1.62175">
        <ele>13.2</ele>
        <time>2021-07-18T09:05:58Z</time>
      </trkpt>
      <trkpt lat="43.41769" lon="-1.62161">
        <ele>13.2</ele>
        <time>2021-07-18T09:06:00Z</time>
      </trkpt>
      <trkpt lat="43.41777" lon="-1.62146">
        <ele>13.2</ele>
        <time>2021-07-18T09:06:02Z</time>
      </trkpt>
      <trkpt lat="43.41781" lon="-1.62139">
        <ele>13.3</ele>
        <time>2021-07-18T09:06:03Z</time>
      </trkpt>
      <trkpt lat="43.4179" lon="-1.62125">
        <ele>13.4</ele>
        <time>2021-07-18T09:06:05Z</time>
      </trkpt>
      <trkpt lat="43.41794" lon="-1.62119">
        <ele>13.5</ele>
        <time>2021-07-18T09:06:06Z</time>
      </trkpt>
      <trkpt lat="43.41798" lon="-1.62112">
        <ele>13.6</ele>
        <time>2021-07-18T09:06:07Z</time>
      </trkpt>
      <trkpt lat="43.41805" lon="-1.62101">
        <ele>13.7</ele>
        <time>2021-07-18T09:06:09Z</time>
      </trkpt>
      <trkpt lat="43.41808" lon="-1.62095">
        <ele>13.8</ele>
        <time>2021-07-18T09:06:10Z</time>
      </trkpt>
      <trkpt lat="43.41812" lon="-1.62089">
        <ele>13.8</ele>
        <time>2021-07-18T09:06:11Z</time>
      </trkpt>
      <trkpt lat="43.41819" lon="-1.62078">
        <ele>13.8</ele>
        <time>2021-07-18T09:06:13Z</time>
      </trkpt>
      <trkpt lat="43.41822" lon="-1.62072">
        <ele>13.8</ele>
        <time>2021-07-18T09:06:14Z</time>
      </trkpt>
      <trkpt lat="43.41828" lon="-1.62059">
        <ele>13.8</ele>
        <time>2021-07-18T09:06:16Z</time>
      </trkpt>
      <trkpt lat="43.41833" lon="-1.62047">
        <ele>13.8</ele>
        <time>2021-07-18T09:06:18Z</time>
      </trkpt>
      <trkpt lat="43.41836" lon="-1.62035">
        <ele>13.7</ele>
        <time>2021-07-18T09:06:20Z</time>
      </trkpt>
      <trkpt lat="43.41838" lon="-1.62032">
        <ele>13.7</ele>
        <time>2021-07-18T09:06:21Z</time>
      </trkpt>
      <trkpt lat="43.41843" lon="-1.62028">
        <ele>13.7</ele>
        <time>2021-07-18T09:06:23Z</time>
      </trkpt>
      <trkpt lat="43.41847" lon="-1.62026">
        <ele>13.6</ele>
        <time>2021-07-18T09:06:25Z</time>
      </trkpt>
      <trkpt lat="43.41849" lon="-1.62024">
        <ele>13.6</ele>
        <time>2021-07-18T09:06:26Z</time>
      </trkpt>
      <trkpt lat="43.41851" lon="-1.62021">
        <ele>13.6</ele>
        <time>2021-07-18T09:06:27Z</time>
      </trkpt>
      <trkpt lat="43.4185" lon="-1.6202">
        <ele>13.6</ele>
        <time>2021-07-18T09:06:29Z</time>
      </trkpt>
      <trkpt lat="43.4185" lon="-1.6202">
        <ele>13.6</ele>
        <time>2021-07-18T09:06:30Z</time>
      </trkpt>
      <trkpt lat="43.4185" lon="-1.62021">
        <ele>13.6</ele>
        <time>2021-07-18T09:06:32Z</time>
      </trkpt>
      <trkpt lat="43.4185" lon="-1.62021">
        <ele>13.6</ele>
        <time>2021-07-18T09:06:34Z</time>
      </trkpt>
      <trkpt lat="43.4185" lon="-1.62022">
        <ele>13.6</ele>
        <time>2021-07-18T09:06:35Z</time>
      </trkpt>
      <trkpt lat="43.4185" lon="-1.62022">
        <ele>13.6</ele>
        <time>2021-07-18T09:06:36Z</time>
      </trkpt>
      <trkpt lat="43.4185" lon="-1.62022">
        <ele>13.6</ele>
        <time>2021-07-18T09:06:38Z</time>
      </trkpt>
      <trkpt lat="43.41853" lon="-1.62023">
        <ele>13.6</ele>
        <time>2021-07-18T09:06:52Z</time>
      </trkpt>
      <trkpt lat="43.41855" lon="-1.62021">
        <ele>13.6</ele>
        <time>2021-07-18T09:06:53Z</time>
      </trkpt>
      <trkpt lat="43.41857" lon="-1.62018">
        <ele>13.7</ele>
        <time>2021-07-18T09:06:54Z</time>
      </trkpt>
      <trkpt lat="43.41859" lon="-1.62015">
        <ele>13.7</ele>
        <time>2021-07-18T09:06:55Z</time>
      </trkpt>
      <trkpt lat="43.41863" lon="-1.62011">
        <ele>13.7</ele>
        <time>2021-07-18T09:06:57Z</time>
      </trkpt>
      <trkpt lat="43.41866" lon="-1.62007">
        <ele>13.8</ele>
        <time>2021-07-18T09:06:58Z</time>
      </trkpt>
      <trkpt lat="43.41869" lon="-1.62004">
        <ele>13.8</ele>
        <time>2021-07-18T09:06:59Z</time>
      </trkpt>
      <trkpt lat="43.41872" lon="-1.62001">
        <ele>13.8</ele>
        <time>2021-07-18T09:07:00Z</time>
      </trkpt>
      <trkpt lat="43.41874" lon="-1.61999">
        <ele>13.9</ele>
        <time>2021-07-18T09:07:01Z</time>
      </trkpt>
      <trkpt lat="43.41879" lon="-1.61993">
        <ele>14</ele>
        <time>2021-07-18T09:07:03Z</time>
      </trkpt>
      <trkpt lat="43.41882" lon="-1.6199">
        <ele>14.1</ele>
        <time>2021-07-18T09:07:04Z</time>
      </trkpt>
      <trkpt lat="43.41886" lon="-1.61987">
        <ele>14.2</ele>
        <time>2021-07-18T09:07:06Z</time>
      </trkpt>
      <trkpt lat="43.41889" lon="-1.61984">
        <ele>14.3</ele>
        <time>2021-07-18T09:07:07Z</time>
      </trkpt>
      <trkpt lat="43.41893" lon="-1.61981">
        <ele>14.4</ele>
        <time>2021-07-18T09:07:08Z</time>
      </trkpt>
      <trkpt lat="43.41895" lon="-1.61979">
        <ele>14.5</ele>
        <time>2021-07-18T09:07:09Z</time>
      </trkpt>
      <trkpt lat="43.419" lon="-1.61975">
        <ele>14.7</ele>
        <time>2021-07-18T09:07:11Z</time>
      </trkpt>
      <trkpt lat="43.41904" lon="-1.61971">
        <ele>14.8</ele>
        <time>2021-07-18T09:07:13Z</time>
      </trkpt>
      <trkpt lat="43.41908" lon="-1.61967">
        <ele>15</ele>
        <time>2021-07-18T09:07:14Z</time>
      </trkpt>
      <trkpt lat="43.4191" lon="-1.61964">
        <ele>15.1</ele>
        <time>2021-07-18T09:07:15Z</time>
      </trkpt>
      <trkpt lat="43.41915" lon="-1.61959">
        <ele>15.4</ele>
        <time>2021-07-18T09:07:17Z</time>
      </trkpt>
      <trkpt lat="43.41918" lon="-1.61956">
        <ele>15.5</ele>
        <time>2021-07-18T09:07:18Z</time>
      </trkpt>
      <trkpt lat="43.41921" lon="-1.61953">
        <ele>15.7</ele>
        <time>2021-07-18T09:07:20Z</time>
      </trkpt>
      <trkpt lat="43.41925" lon="-1.61949">
        <ele>15.9</ele>
        <time>2021-07-18T09:07:21Z</time>
      </trkpt>
      <trkpt lat="43.41928" lon="-1.61946">
        <ele>16.1</ele>
        <time>2021-07-18T09:07:22Z</time>
      </trkpt>
      <trkpt lat="43.41931" lon="-1.61944">
        <ele>16.3</ele>
        <time>2021-07-18T09:07:24Z</time>
      </trkpt>
      <trkpt lat="43.41933" lon="-1.61942">
        <ele>16.5</ele>
        <time>2021-07-18T09:07:25Z</time>
      </trkpt>
      <trkpt lat="43.41937" lon="-1.61937">
        <ele>16.8</ele>
        <time>2021-07-18T09:07:27Z</time>
      </trkpt>
      <trkpt lat="43.41939" lon="-1.61936">
        <ele>16.9</ele>
        <time>2021-07-18T09:07:28Z</time>
      </trkpt>
      <trkpt lat="43.4194" lon="-1.61934">
        <ele>17</ele>
        <time>2021-07-18T09:07:29Z</time>
      </trkpt>
      <trkpt lat="43.41943" lon="-1.61931">
        <ele>17.2</ele>
        <time>2021-07-18T09:07:30Z</time>
      </trkpt>
      <trkpt lat="43.41944" lon="-1.6193">
        <ele>17.3</ele>
        <time>2021-07-18T09:07:31Z</time>
      </trkpt>
      <trkpt lat="43.41947" lon="-1.61927">
        <ele>17.5</ele>
        <time>2021-07-18T09:07:33Z</time>
      </trkpt>
      <trkpt lat="43.41949" lon="-1.61925">
        <ele>17.7</ele>
        <time>2021-07-18T09:07:34Z</time>
      </trkpt>
      <trkpt lat="43.41952" lon="-1.61923">
        <ele>17.8</ele>
        <time>2021-07-18T09:07:35Z</time>
      </trkpt>
      <trkpt lat="43.41953" lon="-1.61921">
        <ele>17.9</ele>
        <time>2021-07-18T09:07:37Z</time>
      </trkpt>
      <trkpt lat="43.41956" lon="-1.61919">
        <ele>18.1</ele>
        <time>2021-07-18T09:07:38Z</time>
      </trkpt>
      <trkpt lat="43.41958" lon="-1.61917">
        <ele>18.2</ele>
        <time>2021-07-18T09:07:39Z</time>
      </trkpt>
      <trkpt lat="43.4196" lon="-1.61915">
        <ele>18.3</ele>
        <time>2021-07-18T09:07:41Z</time>
      </trkpt>
      <trkpt lat="43.41963" lon="-1.61914">
        <ele>18.4</ele>
        <time>2021-07-18T09:07:42Z</time>
      </trkpt>
      <trkpt lat="43.41967" lon="-1.61912">
        <ele>18.6</ele>
        <time>2021-07-18T09:07:44Z</time>
      </trkpt>
      <trkpt lat="43.41971" lon="-1.6191">
        <ele>18.7</ele>
        <time>2021-07-18T09:07:45Z</time>
      </trkpt>
      <trkpt lat="43.41972" lon="-1.61909">
        <ele>18.8</ele>
        <time>2021-07-18T09:07:46Z</time>
      </trkpt>
      <trkpt lat="43.41975" lon="-1.61908">
        <ele>18.9</ele>
        <time>2021-07-18T09:07:47Z</time>
      </trkpt>
      <trkpt lat="43.4198" lon="-1.61906">
        <ele>19</ele>
        <time>2021-07-18T09:07:49Z</time>
      </trkpt>
      <trkpt lat="43.41983" lon="-1.61906">
        <ele>19.1</ele>
        <time>2021-07-18T09:07:50Z</time>
      </trkpt>
      <trkpt lat="43.41984" lon="-1.61905">
        <ele>19.2</ele>
        <time>2021-07-18T09:07:51Z</time>
      </trkpt>
      <trkpt lat="43.41988" lon="-1.61905">
        <ele>19.3</ele>
        <time>2021-07-18T09:07:53Z</time>
      </trkpt>
      <trkpt lat="43.41991" lon="-1.61905">
        <ele>19.4</ele>
        <time>2021-07-18T09:07:54Z</time>
      </trkpt>
      <trkpt lat="43.41994" lon="-1.61905">
        <ele>19.5</ele>
        <time>2021-07-18T09:07:55Z</time>
      </trkpt>
      <trkpt lat="43.41998" lon="-1.61906">
        <ele>19.6</ele>
        <time>2021-07-18T09:07:57Z</time>
      </trkpt>
      <trkpt lat="43.42001" lon="-1.61905">
        <ele>19.7</ele>
        <time>2021-07-18T09:07:58Z</time>
      </trkpt>
      <trkpt lat="43.42007" lon="-1.61906">
        <ele>19.9</ele>
        <time>2021-07-18T09:08:00Z</time>
      </trkpt>
      <trkpt lat="43.4201" lon="-1.61907">
        <ele>20.1</ele>
        <time>2021-07-18T09:08:02Z</time>
      </trkpt>
      <trkpt lat="43.42014" lon="-1.61908">
        <ele>20.2</ele>
        <time>2021-07-18T09:08:03Z</time>
      </trkpt>
      <trkpt lat="43.42015" lon="-1.61908">
        <ele>20.2</ele>
        <time>2021-07-18T09:08:04Z</time>
      </trkpt>
      <trkpt lat="43.42018" lon="-1.6191">
        <ele>20.3</ele>
        <time>2021-07-18T09:08:05Z</time>
      </trkpt>
      <trkpt lat="43.42019" lon="-1.6191">
        <ele>20.4</ele>
        <time>2021-07-18T09:08:06Z</time>
      </trkpt>
      <trkpt lat="43.42022" lon="-1.61912">
        <ele>20.5</ele>
        <time>2021-07-18T09:08:08Z</time>
      </trkpt>
      <trkpt lat="43.42025" lon="-1.61914">
        <ele>20.6</ele>
        <time>2021-07-18T09:08:09Z</time>
      </trkpt>
      <trkpt lat="43.42027" lon="-1.61916">
        <ele>20.7</ele>
        <time>2021-07-18T09:08:10Z</time>
      </trkpt>
      <trkpt lat="43.42031" lon="-1.61919">
        <ele>20.8</ele>
        <time>2021-07-18T09:08:12Z</time>
      </trkpt>
      <trkpt lat="43.42035" lon="-1.61921">
        <ele>20.9</ele>
        <time>2021-07-18T09:08:13Z</time>
      </trkpt>
      <trkpt lat="43.42038" lon="-1.61923">
        <ele>20.9</ele>
        <time>2021-07-18T09:08:14Z</time>
      </trkpt>
      <trkpt lat="43.42042" lon="-1.61926">
        <ele>21</ele>
        <time>2021-07-18T09:08:16Z</time>
      </trkpt>
      <trkpt lat="43.42046" lon="-1.6193">
        <ele>21</ele>
        <time>2021-07-18T09:08:17Z</time>
      </trkpt>
      <trkpt lat="43.42051" lon="-1.61934">
        <ele>21.1</ele>
        <time>2021-07-18T09:08:19Z</time>
      </trkpt>
      <trkpt lat="43.42055" lon="-1.61937">
        <ele>21.2</ele>
        <time>2021-07-18T09:08:21Z</time>
      </trkpt>
      <trkpt lat="43.42058" lon="-1.61939">
        <ele>21.3</ele>
        <time>2021-07-18T09:08:22Z</time>
      </trkpt>
      <trkpt lat="43.42061" lon="-1.61941">
        <ele>21.4</ele>
        <time>2021-07-18T09:08:23Z</time>
      </trkpt>
      <trkpt lat="43.42064" lon="-1.61942">
        <ele>21.4</ele>
        <time>2021-07-18T09:08:24Z</time>
      </trkpt>
      <trkpt lat="43.42067" lon="-1.61944">
        <ele>21.5</ele>
        <time>2021-07-18T09:08:26Z</time>
      </trkpt>
      <trkpt lat="43.42071" lon="-1.61946">
        <ele>21.6</ele>
        <time>2021-07-18T09:08:27Z</time>
      </trkpt>
      <trkpt lat="43.42074" lon="-1.61946">
        <ele>21.7</ele>
        <time>2021-07-18T09:08:28Z</time>
      </trkpt>
      <trkpt lat="43.42078" lon="-1.61947">
        <ele>21.9</ele>
        <time>2021-07-18T09:08:30Z</time>
      </trkpt>
      <trkpt lat="43.42082" lon="-1.61947">
        <ele>22.1</ele>
        <time>2021-07-18T09:08:31Z</time>
      </trkpt>
      <trkpt lat="43.42087" lon="-1.61946">
        <ele>22.2</ele>
        <time>2021-07-18T09:08:33Z</time>
      </trkpt>
      <trkpt lat="43.42089" lon="-1.61945">
        <ele>22.3</ele>
        <time>2021-07-18T09:08:34Z</time>
      </trkpt>
      <trkpt lat="43.42094" lon="-1.61943">
        <ele>22.6</ele>
        <time>2021-07-18T09:08:36Z</time>
      </trkpt>
      <trkpt lat="43.42097" lon="-1.61941">
        <ele>22.7</ele>
        <time>2021-07-18T09:08:37Z</time>
      </trkpt>
      <trkpt lat="43.42102" lon="-1.61939">
        <ele>22.9</ele>
        <time>2021-07-18T09:08:39Z</time>
      </trkpt>
      <trkpt lat="43.42106" lon="-1.61937">
        <ele>23.1</ele>
        <time>2021-07-18T09:08:41Z</time>
      </trkpt>
      <trkpt lat="43.4211" lon="-1.61936">
        <ele>23.3</ele>
        <time>2021-07-18T09:08:42Z</time>
      </trkpt>
      <trkpt lat="43.42114" lon="-1.61935">
        <ele>23.5</ele>
        <time>2021-07-18T09:08:44Z</time>
      </trkpt>
      <trkpt lat="43.42117" lon="-1.61934">
        <ele>23.7</ele>
        <time>2021-07-18T09:08:45Z</time>
      </trkpt>
      <trkpt lat="43.42119" lon="-1.61933">
        <ele>23.9</ele>
        <time>2021-07-18T09:08:47Z</time>
      </trkpt>
      <trkpt lat="43.42122" lon="-1.61932">
        <ele>24</ele>
        <time>2021-07-18T09:08:48Z</time>
      </trkpt>
      <trkpt lat="43.42126" lon="-1.61931">
        <ele>24.2</ele>
        <time>2021-07-18T09:08:50Z</time>
      </trkpt>
      <trkpt lat="43.42129" lon="-1.6193">
        <ele>24.4</ele>
        <time>2021-07-18T09:08:51Z</time>
      </trkpt>
      <trkpt lat="43.4213" lon="-1.6193">
        <ele>24.5</ele>
        <time>2021-07-18T09:08:52Z</time>
      </trkpt>
      <trkpt lat="43.42133" lon="-1.61929">
        <ele>24.7</ele>
        <time>2021-07-18T09:08:54Z</time>
      </trkpt>
      <trkpt lat="43.42135" lon="-1.61928">
        <ele>24.9</ele>
        <time>2021-07-18T09:08:55Z</time>
      </trkpt>
      <trkpt lat="43.42138" lon="-1.61927">
        <ele>25.1</ele>
        <time>2021-07-18T09:08:57Z</time>
      </trkpt>
      <trkpt lat="43.42142" lon="-1.61927">
        <ele>25.3</ele>
        <time>2021-07-18T09:08:58Z</time>
      </trkpt>
      <trkpt lat="43.42143" lon="-1.61926">
        <ele>25.4</ele>
        <time>2021-07-18T09:08:59Z</time>
      </trkpt>
      <trkpt lat="43.42146" lon="-1.61926">
        <ele>25.6</ele>
        <time>2021-07-18T09:09:01Z</time>
      </trkpt>
      <trkpt lat="43.42149" lon="-1.61923">
        <ele>25.8</ele>
        <time>2021-07-18T09:09:03Z</time>
      </trkpt>
      <trkpt lat="43.42153" lon="-1.61921">
        <ele>26</ele>
        <time>2021-07-18T09:09:05Z</time>
      </trkpt>
      <trkpt lat="43.42154" lon="-1.61918">
        <ele>26.2</ele>
        <time>2021-07-18T09:09:06Z</time>
      </trkpt>
      <trkpt lat="43.42157" lon="-1.61914">
        <ele>26.5</ele>
        <time>2021-07-18T09:09:08Z</time>
      </trkpt>
      <trkpt lat="43.4216" lon="-1.61912">
        <ele>26.7</ele>
        <time>2021-07-18T09:09:09Z</time>
      </trkpt>
      <trkpt lat="43.42161" lon="-1.61911">
        <ele>26.8</ele>
        <time>2021-07-18T09:09:10Z</time>
      </trkpt>
      <trkpt lat="43.42163" lon="-1.61907">
        <ele>27</ele>
        <time>2021-07-18T09:09:11Z</time>
      </trkpt>
      <trkpt lat="43.42164" lon="-1.61906">
        <ele>27.1</ele>
        <time>2021-07-18T09:09:12Z</time>
      </trkpt>
      <trkpt lat="43.42167" lon="-1.61902">
        <ele>27.3</ele>
        <time>2021-07-18T09:09:14Z</time>
      </trkpt>
      <trkpt lat="43.42168" lon="-1.61899">
        <ele>27.5</ele>
        <time>2021-07-18T09:09:15Z</time>
      </trkpt>
      <trkpt lat="43.42171" lon="-1.61894">
        <ele>27.8</ele>
        <time>2021-07-18T09:09:17Z</time>
      </trkpt>
      <trkpt lat="43.42172" lon="-1.61891">
        <ele>28</ele>
        <time>2021-07-18T09:09:18Z</time>
      </trkpt>
      <trkpt lat="43.42173" lon="-1.61886">
        <ele>28.2</ele>
        <time>2021-07-18T09:09:20Z</time>
      </trkpt>
      <trkpt lat="43.42174" lon="-1.61882">
        <ele>28.4</ele>
        <time>2021-07-18T09:09:21Z</time>
      </trkpt>
      <trkpt lat="43.42176" lon="-1.61877">
        <ele>28.7</ele>
        <time>2021-07-18T09:09:23Z</time>
      </trkpt>
      <trkpt lat="43.42177" lon="-1.61873">
        <ele>28.8</ele>
        <time>2021-07-18T09:09:24Z</time>
      </trkpt>
      <trkpt lat="43.42177" lon="-1.61872">
        <ele>28.9</ele>
        <time>2021-07-18T09:09:25Z</time>
      </trkpt>
      <trkpt lat="43.42178" lon="-1.61869">
        <ele>29.1</ele>
        <time>2021-07-18T09:09:26Z</time>
      </trkpt>
      <trkpt lat="43.42179" lon="-1.61863">
        <ele>29.3</ele>
        <time>2021-07-18T09:09:28Z</time>
      </trkpt>
      <trkpt lat="43.4218" lon="-1.61858">
        <ele>29.6</ele>
        <time>2021-07-18T09:09:29Z</time>
      </trkpt>
      <trkpt lat="43.4218" lon="-1.61856">
        <ele>29.6</ele>
        <time>2021-07-18T09:09:30Z</time>
      </trkpt>
      <trkpt lat="43.4218" lon="-1.61853">
        <ele>29.7</ele>
        <time>2021-07-18T09:09:31Z</time>
      </trkpt>
      <trkpt lat="43.42181" lon="-1.61847">
        <ele>29.9</ele>
        <time>2021-07-18T09:09:33Z</time>
      </trkpt>
      <trkpt lat="43.42181" lon="-1.61841">
        <ele>30.1</ele>
        <time>2021-07-18T09:09:35Z</time>
      </trkpt>
      <trkpt lat="43.42182" lon="-1.61836">
        <ele>30.2</ele>
        <time>2021-07-18T09:09:37Z</time>
      </trkpt>
      <trkpt lat="43.42182" lon="-1.61833">
        <ele>30.3</ele>
        <time>2021-07-18T09:09:38Z</time>
      </trkpt>
      <trkpt lat="43.42182" lon="-1.61828">
        <ele>30.5</ele>
        <time>2021-07-18T09:09:40Z</time>
      </trkpt>
      <trkpt lat="43.42182" lon="-1.61824">
        <ele>30.6</ele>
        <time>2021-07-18T09:09:41Z</time>
      </trkpt>
      <trkpt lat="43.42182" lon="-1.61819">
        <ele>30.7</ele>
        <time>2021-07-18T09:09:42Z</time>
      </trkpt>
      <trkpt lat="43.42182" lon="-1.61818">
        <ele>30.7</ele>
        <time>2021-07-18T09:09:43Z</time>
      </trkpt>
      <trkpt lat="43.42182" lon="-1.61812">
        <ele>30.8</ele>
        <time>2021-07-18T09:09:45Z</time>
      </trkpt>
      <trkpt lat="43.42183" lon="-1.61808">
        <ele>30.9</ele>
        <time>2021-07-18T09:09:46Z</time>
      </trkpt>
      <trkpt lat="43.42184" lon="-1.61803">
        <ele>30.8</ele>
        <time>2021-07-18T09:09:48Z</time>
      </trkpt>
      <trkpt lat="43.42185" lon="-1.61801">
        <ele>30.7</ele>
        <time>2021-07-18T09:09:49Z</time>
      </trkpt>
      <trkpt lat="43.42186" lon="-1.61799">
        <ele>30.5</ele>
        <time>2021-07-18T09:09:50Z</time>
      </trkpt>
      <trkpt lat="43.42187" lon="-1.61798">
        <ele>30.3</ele>
        <time>2021-07-18T09:09:51Z</time>
      </trkpt>
      <trkpt lat="43.42188" lon="-1.61795">
        <ele>30.1</ele>
        <time>2021-07-18T09:09:52Z</time>
      </trkpt>
      <trkpt lat="43.42189" lon="-1.61793">
        <ele>29.9</ele>
        <time>2021-07-18T09:09:54Z</time>
      </trkpt>
      <trkpt lat="43.42189" lon="-1.61791">
        <ele>29.6</ele>
        <time>2021-07-18T09:09:55Z</time>
      </trkpt>
      <trkpt lat="43.42188" lon="-1.61789">
        <ele>29.4</ele>
        <time>2021-07-18T09:09:56Z</time>
      </trkpt>
      <trkpt lat="43.4219" lon="-1.61783">
        <ele>28.6</ele>
        <time>2021-07-18T09:09:58Z</time>
      </trkpt>
      <trkpt lat="43.42191" lon="-1.6178">
        <ele>28.3</ele>
        <time>2021-07-18T09:10:00Z</time>
      </trkpt>
      <trkpt lat="43.42192" lon="-1.61778">
        <ele>28</ele>
        <time>2021-07-18T09:10:01Z</time>
      </trkpt>
      <trkpt lat="43.42192" lon="-1.61776">
        <ele>27.6</ele>
        <time>2021-07-18T09:10:02Z</time>
      </trkpt>
      <trkpt lat="43.42193" lon="-1.61772">
        <ele>27</ele>
        <time>2021-07-18T09:10:04Z</time>
      </trkpt>
      <trkpt lat="43.42193" lon="-1.61768">
        <ele>26.4</ele>
        <time>2021-07-18T09:10:05Z</time>
      </trkpt>
      <trkpt lat="43.42194" lon="-1.61763">
        <ele>25.6</ele>
        <time>2021-07-18T09:10:06Z</time>
      </trkpt>
      <trkpt lat="43.42194" lon="-1.61761">
        <ele>25.3</ele>
        <time>2021-07-18T09:10:07Z</time>
      </trkpt>
      <trkpt lat="43.42194" lon="-1.61756">
        <ele>24.6</ele>
        <time>2021-07-18T09:10:09Z</time>
      </trkpt>
      <trkpt lat="43.42194" lon="-1.61753">
        <ele>24</ele>
        <time>2021-07-18T09:10:10Z</time>
      </trkpt>
      <trkpt lat="43.42193" lon="-1.61748">
        <ele>23.4</ele>
        <time>2021-07-18T09:10:11Z</time>
      </trkpt>
      <trkpt lat="43.42193" lon="-1.61743">
        <ele>22.7</ele>
        <time>2021-07-18T09:10:12Z</time>
      </trkpt>
      <trkpt lat="43.42194" lon="-1.6174">
        <ele>22.2</ele>
        <time>2021-07-18T09:10:13Z</time>
      </trkpt>
      <trkpt lat="43.42196" lon="-1.61737">
        <ele>21.7</ele>
        <time>2021-07-18T09:10:15Z</time>
      </trkpt>
      <trkpt lat="43.42199" lon="-1.61736">
        <ele>21.2</ele>
        <time>2021-07-18T09:10:16Z</time>
      </trkpt>
      <trkpt lat="43.42201" lon="-1.61738">
        <ele>20.8</ele>
        <time>2021-07-18T09:10:17Z</time>
      </trkpt>
      <trkpt lat="43.42206" lon="-1.61747">
        <ele>19.9</ele>
        <time>2021-07-18T09:10:18Z</time>
      </trkpt>
      <trkpt lat="43.42209" lon="-1.61753">
        <ele>19.3</ele>
        <time>2021-07-18T09:10:19Z</time>
      </trkpt>
      <trkpt lat="43.42212" lon="-1.6176">
        <ele>18.9</ele>
        <time>2021-07-18T09:10:20Z</time>
      </trkpt>
      <trkpt lat="43.42218" lon="-1.61774">
        <ele>18.1</ele>
        <time>2021-07-18T09:10:22Z</time>
      </trkpt>
      <trkpt lat="43.42221" lon="-1.61781">
        <ele>17.7</ele>
        <time>2021-07-18T09:10:23Z</time>
      </trkpt>
      <trkpt lat="43.42227" lon="-1.61795">
        <ele>16.9</ele>
        <time>2021-07-18T09:10:25Z</time>
      </trkpt>
      <trkpt lat="43.42229" lon="-1.61801">
        <ele>16.6</ele>
        <time>2021-07-18T09:10:26Z</time>
      </trkpt>
      <trkpt lat="43.42233" lon="-1.61813">
        <ele>16.1</ele>
        <time>2021-07-18T09:10:28Z</time>
      </trkpt>
      <trkpt lat="43.42235" lon="-1.61819">
        <ele>15.8</ele>
        <time>2021-07-18T09:10:29Z</time>
      </trkpt>
      <trkpt lat="43.42237" lon="-1.61828">
        <ele>15.5</ele>
        <time>2021-07-18T09:10:31Z</time>
      </trkpt>
      <trkpt lat="43.42238" lon="-1.61831">
        <ele>15.4</ele>
        <time>2021-07-18T09:10:32Z</time>
      </trkpt>
      <trkpt lat="43.42239" lon="-1.61835">
        <ele>15.3</ele>
        <time>2021-07-18T09:10:33Z</time>
      </trkpt>
      <trkpt lat="43.42244" lon="-1.61836">
        <ele>15</ele>
        <time>2021-07-18T09:10:35Z</time>
      </trkpt>
      <trkpt lat="43.42249" lon="-1.61832">
        <ele>14.9</ele>
        <time>2021-07-18T09:10:37Z</time>
      </trkpt>
      <trkpt lat="43.42251" lon="-1.61828">
        <ele>14.8</ele>
        <time>2021-07-18T09:10:38Z</time>
      </trkpt>
      <trkpt lat="43.42255" lon="-1.61821">
        <ele>14.8</ele>
        <time>2021-07-18T09:10:40Z</time>
      </trkpt>
      <trkpt lat="43.4226" lon="-1.61812">
        <ele>14.8</ele>
        <time>2021-07-18T09:10:42Z</time>
      </trkpt>
      <trkpt lat="43.42264" lon="-1.61807">
        <ele>14.9</ele>
        <time>2021-07-18T09:10:44Z</time>
      </trkpt>
      <trkpt lat="43.42267" lon="-1.61802">
        <ele>15</ele>
        <time>2021-07-18T09:10:45Z</time>
      </trkpt>
      <trkpt lat="43.42271" lon="-1.61794">
        <ele>15.3</ele>
        <time>2021-07-18T09:10:47Z</time>
      </trkpt>
      <trkpt lat="43.42274" lon="-1.61788">
        <ele>15.4</ele>
        <time>2021-07-18T09:10:49Z</time>
      </trkpt>
      <trkpt lat="43.42277" lon="-1.61785">
        <ele>15.6</ele>
        <time>2021-07-18T09:10:50Z</time>
      </trkpt>
      <trkpt lat="43.42279" lon="-1.61781">
        <ele>15.7</ele>
        <time>2021-07-18T09:10:51Z</time>
      </trkpt>
      <trkpt lat="43.42284" lon="-1.61777">
        <ele>15.7</ele>
        <time>2021-07-18T09:10:53Z</time>
      </trkpt>
      <trkpt lat="43.42287" lon="-1.61777">
        <ele>15.7</ele>
        <time>2021-07-18T09:10:54Z</time>
      </trkpt>
      <trkpt lat="43.42288" lon="-1.61777">
        <ele>15.7</ele>
        <time>2021-07-18T09:10:55Z</time>
      </trkpt>
      <trkpt lat="43.42289" lon="-1.61776">
        <ele>15.8</ele>
        <time>2021-07-18T09:10:57Z</time>
      </trkpt>
      <trkpt lat="43.4229" lon="-1.61774">
        <ele>15.9</ele>
        <time>2021-07-18T09:10:58Z</time>
      </trkpt>
      <trkpt lat="43.42291" lon="-1.61772">
        <ele>16</ele>
        <time>2021-07-18T09:10:59Z</time>
      </trkpt>
      <trkpt lat="43.42292" lon="-1.61768">
        <ele>16.3</ele>
        <time>2021-07-18T09:11:01Z</time>
      </trkpt>
      <trkpt lat="43.42293" lon="-1.61766">
        <ele>16.4</ele>
        <time>2021-07-18T09:11:02Z</time>
      </trkpt>
      <trkpt lat="43.42293" lon="-1.61764">
        <ele>16.5</ele>
        <time>2021-07-18T09:11:03Z</time>
      </trkpt>
      <trkpt lat="43.42294" lon="-1.61759">
        <ele>16.8</ele>
        <time>2021-07-18T09:11:05Z</time>
      </trkpt>
      <trkpt lat="43.42295" lon="-1.61758">
        <ele>16.9</ele>
        <time>2021-07-18T09:11:06Z</time>
      </trkpt>
      <trkpt lat="43.42296" lon="-1.61756">
        <ele>17.1</ele>
        <time>2021-07-18T09:11:07Z</time>
      </trkpt>
      <trkpt lat="43.42298" lon="-1.61753">
        <ele>17.4</ele>
        <time>2021-07-18T09:11:09Z</time>
      </trkpt>
      <trkpt lat="43.42299" lon="-1.61751">
        <ele>17.5</ele>
        <time>2021-07-18T09:11:10Z</time>
      </trkpt>
      <trkpt lat="43.42301" lon="-1.61748">
        <ele>17.8</ele>
        <time>2021-07-18T09:11:12Z</time>
      </trkpt>
      <trkpt lat="43.42303" lon="-1.61745">
        <ele>18</ele>
        <time>2021-07-18T09:11:14Z</time>
      </trkpt>
      <trkpt lat="43.42303" lon="-1.61744">
        <ele>18.1</ele>
        <time>2021-07-18T09:11:15Z</time>
      </trkpt>
      <trkpt lat="43.42305" lon="-1.6174">
        <ele>18.5</ele>
        <time>2021-07-18T09:11:17Z</time>
      </trkpt>
      <trkpt lat="43.42305" lon="-1.61739">
        <ele>18.6</ele>
        <time>2021-07-18T09:11:18Z</time>
      </trkpt>
      <trkpt lat="43.42305" lon="-1.61737">
        <ele>18.7</ele>
        <time>2021-07-18T09:11:19Z</time>
      </trkpt>
      <trkpt lat="43.42306" lon="-1.61735">
        <ele>18.9</ele>
        <time>2021-07-18T09:11:20Z</time>
      </trkpt>
      <trkpt lat="43.42307" lon="-1.61732">
        <ele>19.2</ele>
        <time>2021-07-18T09:11:22Z</time>
      </trkpt>
      <trkpt lat="43.42308" lon="-1.6173">
        <ele>19.4</ele>
        <time>2021-07-18T09:11:23Z</time>
      </trkpt>
      <trkpt lat="43.42309" lon="-1.61729">
        <ele>19.5</ele>
        <time>2021-07-18T09:11:24Z</time>
      </trkpt>
      <trkpt lat="43.42309" lon="-1.61727">
        <ele>19.7</ele>
        <time>2021-07-18T09:11:25Z</time>
      </trkpt>
      <trkpt lat="43.4231" lon="-1.61723">
        <ele>20</ele>
        <time>2021-07-18T09:11:27Z</time>
      </trkpt>
      <trkpt lat="43.42311" lon="-1.61721">
        <ele>20.2</ele>
        <time>2021-07-18T09:11:28Z</time>
      </trkpt>
      <trkpt lat="43.42312" lon="-1.61717">
        <ele>20.5</ele>
        <time>2021-07-18T09:11:30Z</time>
      </trkpt>
      <trkpt lat="43.42313" lon="-1.61713">
        <ele>20.8</ele>
        <time>2021-07-18T09:11:32Z</time>
      </trkpt>
      <trkpt lat="43.42314" lon="-1.61711">
        <ele>21</ele>
        <time>2021-07-18T09:11:33Z</time>
      </trkpt>
      <trkpt lat="43.42315" lon="-1.61707">
        <ele>21.3</ele>
        <time>2021-07-18T09:11:35Z</time>
      </trkpt>
      <trkpt lat="43.42315" lon="-1.61706">
        <ele>21.5</ele>
        <time>2021-07-18T09:11:36Z</time>
      </trkpt>
      <trkpt lat="43.42316" lon="-1.61703">
        <ele>21.7</ele>
        <time>2021-07-18T09:11:38Z</time>
      </trkpt>
      <trkpt lat="43.42317" lon="-1.617">
        <ele>22</ele>
        <time>2021-07-18T09:11:39Z</time>
      </trkpt>
      <trkpt lat="43.42318" lon="-1.61696">
        <ele>22.3</ele>
        <time>2021-07-18T09:11:41Z</time>
      </trkpt>
      <trkpt lat="43.42318" lon="-1.61694">
        <ele>22.5</ele>
        <time>2021-07-18T09:11:42Z</time>
      </trkpt>
      <trkpt lat="43.42318" lon="-1.61692">
        <ele>22.6</ele>
        <time>2021-07-18T09:11:43Z</time>
      </trkpt>
      <trkpt lat="43.42319" lon="-1.61688">
        <ele>22.9</ele>
        <time>2021-07-18T09:11:45Z</time>
      </trkpt>
      <trkpt lat="43.4232" lon="-1.61686">
        <ele>23.1</ele>
        <time>2021-07-18T09:11:46Z</time>
      </trkpt>
      <trkpt lat="43.4232" lon="-1.61684">
        <ele>23.2</ele>
        <time>2021-07-18T09:11:47Z</time>
      </trkpt>
      <trkpt lat="43.42321" lon="-1.6168">
        <ele>23.6</ele>
        <time>2021-07-18T09:11:49Z</time>
      </trkpt>
      <trkpt lat="43.42321" lon="-1.61677">
        <ele>23.8</ele>
        <time>2021-07-18T09:11:50Z</time>
      </trkpt>
      <trkpt lat="43.42322" lon="-1.61672">
        <ele>24.1</ele>
        <time>2021-07-18T09:11:52Z</time>
      </trkpt>
      <trkpt lat="43.42323" lon="-1.6167">
        <ele>24.3</ele>
        <time>2021-07-18T09:11:53Z</time>
      </trkpt>
      <trkpt lat="43.42324" lon="-1.61666">
        <ele>24.6</ele>
        <time>2021-07-18T09:11:55Z</time>
      </trkpt>
      <trkpt lat="43.42325" lon="-1.61663">
        <ele>24.9</ele>
        <time>2021-07-18T09:11:57Z</time>
      </trkpt>
      <trkpt lat="43.42326" lon="-1.61661">
        <ele>25</ele>
        <time>2021-07-18T09:11:58Z</time>
      </trkpt>
      <trkpt lat="43.42328" lon="-1.61658">
        <ele>25.3</ele>
        <time>2021-07-18T09:12:00Z</time>
      </trkpt>
      <trkpt lat="43.42329" lon="-1.61653">
        <ele>25.7</ele>
        <time>2021-07-18T09:12:02Z</time>
      </trkpt>
      <trkpt lat="43.4233" lon="-1.61651">
        <ele>25.8</ele>
        <time>2021-07-18T09:12:03Z</time>
      </trkpt>
      <trkpt lat="43.4233" lon="-1.61648">
        <ele>26.1</ele>
        <time>2021-07-18T09:12:05Z</time>
      </trkpt>
      <trkpt lat="43.4233" lon="-1.61644">
        <ele>26.4</ele>
        <time>2021-07-18T09:12:07Z</time>
      </trkpt>
      <trkpt lat="43.42331" lon="-1.61641">
        <ele>26.7</ele>
        <time>2021-07-18T09:12:09Z</time>
      </trkpt>
      <trkpt lat="43.42332" lon="-1.61639">
        <ele>26.8</ele>
        <time>2021-07-18T09:12:10Z</time>
      </trkpt>
      <trkpt lat="43.42332" lon="-1.61635">
        <ele>27.2</ele>
        <time>2021-07-18T09:12:12Z</time>
      </trkpt>
      <trkpt lat="43.42332" lon="-1.61634">
        <ele>27.2</ele>
        <time>2021-07-18T09:12:13Z</time>
      </trkpt>
      <trkpt lat="43.42333" lon="-1.6163">
        <ele>27.6</ele>
        <time>2021-07-18T09:12:15Z</time>
      </trkpt>
      <trkpt lat="43.42332" lon="-1.61626">
        <ele>27.9</ele>
        <time>2021-07-18T09:12:17Z</time>
      </trkpt>
      <trkpt lat="43.42332" lon="-1.61622">
        <ele>28.2</ele>
        <time>2021-07-18T09:12:19Z</time>
      </trkpt>
      <trkpt lat="43.42333" lon="-1.61621">
        <ele>28.3</ele>
        <time>2021-07-18T09:12:20Z</time>
      </trkpt>
      <trkpt lat="43.42333" lon="-1.61619">
        <ele>28.5</ele>
        <time>2021-07-18T09:12:21Z</time>
      </trkpt>
      <trkpt lat="43.42334" lon="-1.61615">
        <ele>28.8</ele>
        <time>2021-07-18T09:12:23Z</time>
      </trkpt>
      <trkpt lat="43.42334" lon="-1.61613">
        <ele>29</ele>
        <time>2021-07-18T09:12:24Z</time>
      </trkpt>
      <trkpt lat="43.42332" lon="-1.61608">
        <ele>29.4</ele>
        <time>2021-07-18T09:12:26Z</time>
      </trkpt>
      <trkpt lat="43.4233" lon="-1.61604">
        <ele>29.8</ele>
        <time>2021-07-18T09:12:28Z</time>
      </trkpt>
      <trkpt lat="43.42329" lon="-1.616">
        <ele>30.1</ele>
        <time>2021-07-18T09:12:30Z</time>
      </trkpt>
      <trkpt lat="43.42329" lon="-1.61597">
        <ele>30.2</ele>
        <time>2021-07-18T09:12:31Z</time>
      </trkpt>
      <trkpt lat="43.42331" lon="-1.61593">
        <ele>30.4</ele>
        <time>2021-07-18T09:12:33Z</time>
      </trkpt>
      <trkpt lat="43.42332" lon="-1.61589">
        <ele>30.6</ele>
        <time>2021-07-18T09:12:35Z</time>
      </trkpt>
      <trkpt lat="43.42333" lon="-1.61588">
        <ele>30.7</ele>
        <time>2021-07-18T09:12:36Z</time>
      </trkpt>
      <trkpt lat="43.42334" lon="-1.61585">
        <ele>30.9</ele>
        <time>2021-07-18T09:12:38Z</time>
      </trkpt>
      <trkpt lat="43.42337" lon="-1.61582">
        <ele>31.1</ele>
        <time>2021-07-18T09:12:39Z</time>
      </trkpt>
      <trkpt lat="43.42338" lon="-1.61581">
        <ele>31.2</ele>
        <time>2021-07-18T09:12:40Z</time>
      </trkpt>
      <trkpt lat="43.4234" lon="-1.61579">
        <ele>31.4</ele>
        <time>2021-07-18T09:12:41Z</time>
      </trkpt>
      <trkpt lat="43.42341" lon="-1.61576">
        <ele>31.5</ele>
        <time>2021-07-18T09:12:43Z</time>
      </trkpt>
      <trkpt lat="43.42343" lon="-1.61574">
        <ele>31.7</ele>
        <time>2021-07-18T09:12:44Z</time>
      </trkpt>
      <trkpt lat="43.42345" lon="-1.61571">
        <ele>31.9</ele>
        <time>2021-07-18T09:12:46Z</time>
      </trkpt>
      <trkpt lat="43.42349" lon="-1.61567">
        <ele>32.2</ele>
        <time>2021-07-18T09:12:48Z</time>
      </trkpt>
      <trkpt lat="43.42351" lon="-1.61565">
        <ele>32.3</ele>
        <time>2021-07-18T09:12:50Z</time>
      </trkpt>
      <trkpt lat="43.42352" lon="-1.61564">
        <ele>32.5</ele>
        <time>2021-07-18T09:12:52Z</time>
      </trkpt>
      <trkpt lat="43.42354" lon="-1.61562">
        <ele>32.6</ele>
        <time>2021-07-18T09:12:53Z</time>
      </trkpt>
      <trkpt lat="43.42356" lon="-1.61561">
        <ele>32.7</ele>
        <time>2021-07-18T09:12:54Z</time>
      </trkpt>
      <trkpt lat="43.42358" lon="-1.6156">
        <ele>32.8</ele>
        <time>2021-07-18T09:12:55Z</time>
      </trkpt>
      <trkpt lat="43.42361" lon="-1.61558">
        <ele>32.9</ele>
        <time>2021-07-18T09:12:57Z</time>
      </trkpt>
      <trkpt lat="43.42363" lon="-1.61556">
        <ele>33.1</ele>
        <time>2021-07-18T09:12:58Z</time>
      </trkpt>
      <trkpt lat="43.42364" lon="-1.61555">
        <ele>33.1</ele>
        <time>2021-07-18T09:12:59Z</time>
      </trkpt>
      <trkpt lat="43.42367" lon="-1.61552">
        <ele>33.2</ele>
        <time>2021-07-18T09:13:00Z</time>
      </trkpt>
      <trkpt lat="43.42368" lon="-1.61551">
        <ele>33.3</ele>
        <time>2021-07-18T09:13:01Z</time>
      </trkpt>
      <trkpt lat="43.4237" lon="-1.61549">
        <ele>33.3</ele>
        <time>2021-07-18T09:13:02Z</time>
      </trkpt>
      <trkpt lat="43.42373" lon="-1.61546">
        <ele>33.4</ele>
        <time>2021-07-18T09:13:04Z</time>
      </trkpt>
      <trkpt lat="43.42374" lon="-1.61543">
        <ele>33.5</ele>
        <time>2021-07-18T09:13:05Z</time>
      </trkpt>
      <trkpt lat="43.42377" lon="-1.6154">
        <ele>33.5</ele>
        <time>2021-07-18T09:13:06Z</time>
      </trkpt>
      <trkpt lat="43.42379" lon="-1.61537">
        <ele>33.6</ele>
        <time>2021-07-18T09:13:07Z</time>
      </trkpt>
      <trkpt lat="43.42382" lon="-1.61532">
        <ele>33.6</ele>
        <time>2021-07-18T09:13:09Z</time>
      </trkpt>
      <trkpt lat="43.42385" lon="-1.61527">
        <ele>33.6</ele>
        <time>2021-07-18T09:13:10Z</time>
      </trkpt>
      <trkpt lat="43.42388" lon="-1.61523">
        <ele>33.7</ele>
        <time>2021-07-18T09:13:11Z</time>
      </trkpt>
      <trkpt lat="43.4239" lon="-1.61519">
        <ele>33.7</ele>
        <time>2021-07-18T09:13:12Z</time>
      </trkpt>
      <trkpt lat="43.42395" lon="-1.61512">
        <ele>33.7</ele>
        <time>2021-07-18T09:13:14Z</time>
      </trkpt>
      <trkpt lat="43.42399" lon="-1.61504">
        <ele>33.7</ele>
        <time>2021-07-18T09:13:16Z</time>
      </trkpt>
      <trkpt lat="43.42402" lon="-1.61496">
        <ele>33.6</ele>
        <time>2021-07-18T09:13:18Z</time>
      </trkpt>
      <trkpt lat="43.42404" lon="-1.61489">
        <ele>33.4</ele>
        <time>2021-07-18T09:13:19Z</time>
      </trkpt>
      <trkpt lat="43.42408" lon="-1.61482">
        <ele>33.1</ele>
        <time>2021-07-18T09:13:21Z</time>
      </trkpt>
      <trkpt lat="43.4241" lon="-1.61477">
        <ele>32.9</ele>
        <time>2021-07-18T09:13:22Z</time>
      </trkpt>
      <trkpt lat="43.42414" lon="-1.6147">
        <ele>32.4</ele>
        <time>2021-07-18T09:13:23Z</time>
      </trkpt>
      <trkpt lat="43.42415" lon="-1.61464">
        <ele>32.1</ele>
        <time>2021-07-18T09:13:24Z</time>
      </trkpt>
      <trkpt lat="43.4242" lon="-1.61447">
        <ele>31.1</ele>
        <time>2021-07-18T09:13:26Z</time>
      </trkpt>
      <trkpt lat="43.42425" lon="-1.61435">
        <ele>30.3</ele>
        <time>2021-07-18T09:13:28Z</time>
      </trkpt>
      <trkpt lat="43.42427" lon="-1.61429">
        <ele>29.9</ele>
        <time>2021-07-18T09:13:29Z</time>
      </trkpt>
      <trkpt lat="43.42431" lon="-1.61414">
        <ele>29.1</ele>
        <time>2021-07-18T09:13:31Z</time>
      </trkpt>
      <trkpt lat="43.42435" lon="-1.61397">
        <ele>28.4</ele>
        <time>2021-07-18T09:13:33Z</time>
      </trkpt>
      <trkpt lat="43.42438" lon="-1.61389">
        <ele>28.2</ele>
        <time>2021-07-18T09:13:34Z</time>
      </trkpt>
      <trkpt lat="43.42443" lon="-1.61373">
        <ele>28.1</ele>
        <time>2021-07-18T09:13:36Z</time>
      </trkpt>
      <trkpt lat="43.42446" lon="-1.61366">
        <ele>28.1</ele>
        <time>2021-07-18T09:13:37Z</time>
      </trkpt>
      <trkpt lat="43.42451" lon="-1.61354">
        <ele>28.2</ele>
        <time>2021-07-18T09:13:39Z</time>
      </trkpt>
      <trkpt lat="43.42453" lon="-1.61348">
        <ele>28.2</ele>
        <time>2021-07-18T09:13:40Z</time>
      </trkpt>
      <trkpt lat="43.42456" lon="-1.61343">
        <ele>28.3</ele>
        <time>2021-07-18T09:13:41Z</time>
      </trkpt>
      <trkpt lat="43.42461" lon="-1.61332">
        <ele>28.4</ele>
        <time>2021-07-18T09:13:43Z</time>
      </trkpt>
      <trkpt lat="43.42465" lon="-1.61321">
        <ele>28.6</ele>
        <time>2021-07-18T09:13:45Z</time>
      </trkpt>
      <trkpt lat="43.4247" lon="-1.61312">
        <ele>28.9</ele>
        <time>2021-07-18T09:13:47Z</time>
      </trkpt>
      <trkpt lat="43.42472" lon="-1.61308">
        <ele>29.1</ele>
        <time>2021-07-18T09:13:48Z</time>
      </trkpt>
      <trkpt lat="43.42474" lon="-1.61304">
        <ele>29.3</ele>
        <time>2021-07-18T09:13:49Z</time>
      </trkpt>
      <trkpt lat="43.42479" lon="-1.61297">
        <ele>29.9</ele>
        <time>2021-07-18T09:13:51Z</time>
      </trkpt>
      <trkpt lat="43.42482" lon="-1.61293">
        <ele>30.2</ele>
        <time>2021-07-18T09:13:53Z</time>
      </trkpt>
      <trkpt lat="43.42485" lon="-1.6129">
        <ele>30.5</ele>
        <time>2021-07-18T09:13:54Z</time>
      </trkpt>
      <trkpt lat="43.42488" lon="-1.61285">
        <ele>30.9</ele>
        <time>2021-07-18T09:13:56Z</time>
      </trkpt>
      <trkpt lat="43.42489" lon="-1.61282">
        <ele>31.1</ele>
        <time>2021-07-18T09:13:57Z</time>
      </trkpt>
      <trkpt lat="43.42491" lon="-1.61278">
        <ele>31.4</ele>
        <time>2021-07-18T09:13:58Z</time>
      </trkpt>
      <trkpt lat="43.42493" lon="-1.61274">
        <ele>31.7</ele>
        <time>2021-07-18T09:13:59Z</time>
      </trkpt>
      <trkpt lat="43.42495" lon="-1.61269">
        <ele>31.9</ele>
        <time>2021-07-18T09:14:01Z</time>
      </trkpt>
      <trkpt lat="43.42497" lon="-1.61265">
        <ele>32.2</ele>
        <time>2021-07-18T09:14:02Z</time>
      </trkpt>
      <trkpt lat="43.42499" lon="-1.6126">
        <ele>32.5</ele>
        <time>2021-07-18T09:14:03Z</time>
      </trkpt>
      <trkpt lat="43.425" lon="-1.61256">
        <ele>32.7</ele>
        <time>2021-07-18T09:14:05Z</time>
      </trkpt>
      <trkpt lat="43.42503" lon="-1.61252">
        <ele>32.9</ele>
        <time>2021-07-18T09:14:06Z</time>
      </trkpt>
      <trkpt lat="43.42504" lon="-1.61248">
        <ele>33.1</ele>
        <time>2021-07-18T09:14:08Z</time>
      </trkpt>
      <trkpt lat="43.42505" lon="-1.61243">
        <ele>33.3</ele>
        <time>2021-07-18T09:14:09Z</time>
      </trkpt>
      <trkpt lat="43.42506" lon="-1.61239">
        <ele>33.5</ele>
        <time>2021-07-18T09:14:11Z</time>
      </trkpt>
      <trkpt lat="43.42508" lon="-1.61235">
        <ele>33.7</ele>
        <time>2021-07-18T09:14:12Z</time>
      </trkpt>
      <trkpt lat="43.42509" lon="-1.61229">
        <ele>33.9</ele>
        <time>2021-07-18T09:14:14Z</time>
      </trkpt>
      <trkpt lat="43.4251" lon="-1.61226">
        <ele>34</ele>
        <time>2021-07-18T09:14:15Z</time>
      </trkpt>
      <trkpt lat="43.42511" lon="-1.61221">
        <ele>34.1</ele>
        <time>2021-07-18T09:14:17Z</time>
      </trkpt>
      <trkpt lat="43.42513" lon="-1.61217">
        <ele>34.2</ele>
        <time>2021-07-18T09:14:18Z</time>
      </trkpt>
      <trkpt lat="43.42514" lon="-1.61214">
        <ele>34.3</ele>
        <time>2021-07-18T09:14:19Z</time>
      </trkpt>
      <trkpt lat="43.42517" lon="-1.61209">
        <ele>34.3</ele>
        <time>2021-07-18T09:14:21Z</time>
      </trkpt>
      <trkpt lat="43.42518" lon="-1.61206">
        <ele>34.3</ele>
        <time>2021-07-18T09:14:22Z</time>
      </trkpt>
      <trkpt lat="43.42518" lon="-1.61199">
        <ele>34.3</ele>
        <time>2021-07-18T09:14:24Z</time>
      </trkpt>
      <trkpt lat="43.42519" lon="-1.61195">
        <ele>34.2</ele>
        <time>2021-07-18T09:14:25Z</time>
      </trkpt>
      <trkpt lat="43.4252" lon="-1.61191">
        <ele>34.2</ele>
        <time>2021-07-18T09:14:26Z</time>
      </trkpt>
      <trkpt lat="43.42522" lon="-1.61184">
        <ele>34</ele>
        <time>2021-07-18T09:14:28Z</time>
      </trkpt>
      <trkpt lat="43.42524" lon="-1.61176">
        <ele>33.8</ele>
        <time>2021-07-18T09:14:29Z</time>
      </trkpt>
      <trkpt lat="43.42525" lon="-1.6117">
        <ele>33.6</ele>
        <time>2021-07-18T09:14:30Z</time>
      </trkpt>
      <trkpt lat="43.42528" lon="-1.61163">
        <ele>33.3</ele>
        <time>2021-07-18T09:14:31Z</time>
      </trkpt>
      <trkpt lat="43.42532" lon="-1.61149">
        <ele>32.7</ele>
        <time>2021-07-18T09:14:33Z</time>
      </trkpt>
      <trkpt lat="43.42534" lon="-1.61142">
        <ele>32.2</ele>
        <time>2021-07-18T09:14:34Z</time>
      </trkpt>
      <trkpt lat="43.42536" lon="-1.61135">
        <ele>31.8</ele>
        <time>2021-07-18T09:14:35Z</time>
      </trkpt>
      <trkpt lat="43.42539" lon="-1.61119">
        <ele>30.5</ele>
        <time>2021-07-18T09:14:37Z</time>
      </trkpt>
      <trkpt lat="43.42541" lon="-1.61111">
        <ele>29.6</ele>
        <time>2021-07-18T09:14:38Z</time>
      </trkpt>
      <trkpt lat="43.42545" lon="-1.6109">
        <ele>27.8</ele>
        <time>2021-07-18T09:14:40Z</time>
      </trkpt>
      <trkpt lat="43.42547" lon="-1.6108">
        <ele>27</ele>
        <time>2021-07-18T09:14:41Z</time>
      </trkpt>
      <trkpt lat="43.42551" lon="-1.61063">
        <ele>25.5</ele>
        <time>2021-07-18T09:14:43Z</time>
      </trkpt>
      <trkpt lat="43.42553" lon="-1.61054">
        <ele>24.8</ele>
        <time>2021-07-18T09:14:44Z</time>
      </trkpt>
      <trkpt lat="43.42556" lon="-1.61039">
        <ele>23.3</ele>
        <time>2021-07-18T09:14:46Z</time>
      </trkpt>
      <trkpt lat="43.42554" lon="-1.6102">
        <ele>21.6</ele>
        <time>2021-07-18T09:14:48Z</time>
      </trkpt>
      <trkpt lat="43.42554" lon="-1.60998">
        <ele>20.6</ele>
        <time>2021-07-18T09:14:50Z</time>
      </trkpt>
      <trkpt lat="43.42554" lon="-1.60987">
        <ele>20.4</ele>
        <time>2021-07-18T09:14:51Z</time>
      </trkpt>
      <trkpt lat="43.42555" lon="-1.60977">
        <ele>20.4</ele>
        <time>2021-07-18T09:14:52Z</time>
      </trkpt>
      <trkpt lat="43.42561" lon="-1.6096">
        <ele>20.7</ele>
        <time>2021-07-18T09:14:54Z</time>
      </trkpt>
      <trkpt lat="43.42566" lon="-1.60953">
        <ele>21</ele>
        <time>2021-07-18T09:14:55Z</time>
      </trkpt>
      <trkpt lat="43.4257" lon="-1.60948">
        <ele>21.3</ele>
        <time>2021-07-18T09:14:56Z</time>
      </trkpt>
      <trkpt lat="43.42575" lon="-1.60944">
        <ele>22</ele>
        <time>2021-07-18T09:14:58Z</time>
      </trkpt>
      <trkpt lat="43.42577" lon="-1.60942">
        <ele>22.3</ele>
        <time>2021-07-18T09:14:59Z</time>
      </trkpt>
      <trkpt lat="43.42579" lon="-1.60938">
        <ele>22.8</ele>
        <time>2021-07-18T09:15:01Z</time>
      </trkpt>
      <trkpt lat="43.42581" lon="-1.60935">
        <ele>23.3</ele>
        <time>2021-07-18T09:15:03Z</time>
      </trkpt>
      <trkpt lat="43.42582" lon="-1.60934">
        <ele>23.5</ele>
        <time>2021-07-18T09:15:04Z</time>
      </trkpt>
      <trkpt lat="43.42584" lon="-1.60932">
        <ele>23.8</ele>
        <time>2021-07-18T09:15:05Z</time>
      </trkpt>
      <trkpt lat="43.42586" lon="-1.60929">
        <ele>24.2</ele>
        <time>2021-07-18T09:15:07Z</time>
      </trkpt>
      <trkpt lat="43.42588" lon="-1.60924">
        <ele>24.6</ele>
        <time>2021-07-18T09:15:09Z</time>
      </trkpt>
      <trkpt lat="43.42588" lon="-1.60922">
        <ele>24.7</ele>
        <time>2021-07-18T09:15:11Z</time>
      </trkpt>
      <trkpt lat="43.42588" lon="-1.6092">
        <ele>24.9</ele>
        <time>2021-07-18T09:15:12Z</time>
      </trkpt>
      <trkpt lat="43.42589" lon="-1.60916">
        <ele>25.2</ele>
        <time>2021-07-18T09:15:14Z</time>
      </trkpt>
      <trkpt lat="43.42588" lon="-1.60915">
        <ele>25.3</ele>
        <time>2021-07-18T09:15:15Z</time>
      </trkpt>
      <trkpt lat="43.42589" lon="-1.60913">
        <ele>25.5</ele>
        <time>2021-07-18T09:15:16Z</time>
      </trkpt>
      <trkpt lat="43.42589" lon="-1.6091">
        <ele>25.8</ele>
        <time>2021-07-18T09:15:17Z</time>
      </trkpt>
      <trkpt lat="43.42587" lon="-1.60906">
        <ele>26.2</ele>
        <time>2021-07-18T09:15:19Z</time>
      </trkpt>
      <trkpt lat="43.42586" lon="-1.60903">
        <ele>26.5</ele>
        <time>2021-07-18T09:15:20Z</time>
      </trkpt>
      <trkpt lat="43.42584" lon="-1.60901">
        <ele>26.8</ele>
        <time>2021-07-18T09:15:22Z</time>
      </trkpt>
      <trkpt lat="43.42584" lon="-1.60898">
        <ele>27.1</ele>
        <time>2021-07-18T09:15:23Z</time>
      </trkpt>
      <trkpt lat="43.42583" lon="-1.60896">
        <ele>27.3</ele>
        <time>2021-07-18T09:15:24Z</time>
      </trkpt>
      <trkpt lat="43.42581" lon="-1.60893">
        <ele>27.7</ele>
        <time>2021-07-18T09:15:26Z</time>
      </trkpt>
      <trkpt lat="43.4258" lon="-1.60892">
        <ele>27.9</ele>
        <time>2021-07-18T09:15:27Z</time>
      </trkpt>
      <trkpt lat="43.42578" lon="-1.60888">
        <ele>28.2</ele>
        <time>2021-07-18T09:15:29Z</time>
      </trkpt>
      <trkpt lat="43.42578" lon="-1.60886">
        <ele>28.4</ele>
        <time>2021-07-18T09:15:30Z</time>
      </trkpt>
      <trkpt lat="43.42576" lon="-1.60883">
        <ele>28.6</ele>
        <time>2021-07-18T09:15:32Z</time>
      </trkpt>
      <trkpt lat="43.42575" lon="-1.60878">
        <ele>28.9</ele>
        <time>2021-07-18T09:15:34Z</time>
      </trkpt>
      <trkpt lat="43.42574" lon="-1.60874">
        <ele>29.2</ele>
        <time>2021-07-18T09:15:36Z</time>
      </trkpt>
      <trkpt lat="43.42573" lon="-1.60873">
        <ele>29.3</ele>
        <time>2021-07-18T09:15:37Z</time>
      </trkpt>
      <trkpt lat="43.42573" lon="-1.60871">
        <ele>29.4</ele>
        <time>2021-07-18T09:15:38Z</time>
      </trkpt>
      <trkpt lat="43.42571" lon="-1.60868">
        <ele>29.7</ele>
        <time>2021-07-18T09:15:40Z</time>
      </trkpt>
      <trkpt lat="43.4257" lon="-1.60867">
        <ele>29.8</ele>
        <time>2021-07-18T09:15:41Z</time>
      </trkpt>
      <trkpt lat="43.4257" lon="-1.60865">
        <ele>29.9</ele>
        <time>2021-07-18T09:15:43Z</time>
      </trkpt>
      <trkpt lat="43.4257" lon="-1.60866">
        <ele>29.9</ele>
        <time>2021-07-18T09:15:44Z</time>
      </trkpt>
      <trkpt lat="43.42569" lon="-1.60867">
        <ele>30</ele>
        <time>2021-07-18T09:15:46Z</time>
      </trkpt>
      <trkpt lat="43.42569" lon="-1.60867">
        <ele>30</ele>
        <time>2021-07-18T09:15:48Z</time>
      </trkpt>
      <trkpt lat="43.42569" lon="-1.60869">
        <ele>30</ele>
        <time>2021-07-18T09:15:50Z</time>
      </trkpt>
      <trkpt lat="43.42569" lon="-1.60868">
        <ele>30</ele>
        <time>2021-07-18T09:15:51Z</time>
      </trkpt>
      <trkpt lat="43.42572" lon="-1.60873">
        <ele>30.1</ele>
        <time>2021-07-18T09:16:33Z</time>
      </trkpt>
      <trkpt lat="43.42571" lon="-1.60875">
        <ele>30.1</ele>
        <time>2021-07-18T09:16:34Z</time>
      </trkpt>
      <trkpt lat="43.4257" lon="-1.60877">
        <ele>30.2</ele>
        <time>2021-07-18T09:16:35Z</time>
      </trkpt>
      <trkpt lat="43.42566" lon="-1.60879">
        <ele>30.2</ele>
        <time>2021-07-18T09:16:37Z</time>
      </trkpt>
      <trkpt lat="43.42565" lon="-1.6088">
        <ele>30.3</ele>
        <time>2021-07-18T09:16:38Z</time>
      </trkpt>
      <trkpt lat="43.42563" lon="-1.60881">
        <ele>30.4</ele>
        <time>2021-07-18T09:16:40Z</time>
      </trkpt>
      <trkpt lat="43.42563" lon="-1.60879">
        <ele>30.5</ele>
        <time>2021-07-18T09:16:42Z</time>
      </trkpt>
      <trkpt lat="43.42563" lon="-1.60879">
        <ele>30.5</ele>
        <time>2021-07-18T09:16:43Z</time>
      </trkpt>
      <trkpt lat="43.42563" lon="-1.60879">
        <ele>30.5</ele>
        <time>2021-07-18T09:16:45Z</time>
      </trkpt>
      <trkpt lat="43.42563" lon="-1.60879">
        <ele>30.5</ele>
        <time>2021-07-18T09:16:47Z</time>
      </trkpt>
      <trkpt lat="43.42563" lon="-1.60878">
        <ele>30.5</ele>
        <time>2021-07-18T09:16:49Z</time>
      </trkpt>
      <trkpt lat="43.42563" lon="-1.60877">
        <ele>30.6</ele>
        <time>2021-07-18T09:16:50Z</time>
      </trkpt>
      <trkpt lat="43.42562" lon="-1.60875">
        <ele>30.6</ele>
        <time>2021-07-18T09:16:52Z</time>
      </trkpt>
      <trkpt lat="43.42561" lon="-1.60874">
        <ele>30.7</ele>
        <time>2021-07-18T09:16:53Z</time>
      </trkpt>
      <trkpt lat="43.42552" lon="-1.60881">
        <ele>31.1</ele>
        <time>2021-07-18T09:16:55Z</time>
      </trkpt>
      <trkpt lat="43.4255" lon="-1.60883">
        <ele>31.2</ele>
        <time>2021-07-18T09:16:56Z</time>
      </trkpt>
      <trkpt lat="43.42546" lon="-1.60887">
        <ele>31.4</ele>
        <time>2021-07-18T09:16:58Z</time>
      </trkpt>
      <trkpt lat="43.42542" lon="-1.60889">
        <ele>31.5</ele>
        <time>2021-07-18T09:17:00Z</time>
      </trkpt>
      <trkpt lat="43.42538" lon="-1.60891">
        <ele>31.7</ele>
        <time>2021-07-18T09:17:02Z</time>
      </trkpt>
      <trkpt lat="43.42534" lon="-1.60893">
        <ele>31.9</ele>
        <time>2021-07-18T09:17:03Z</time>
      </trkpt>
      <trkpt lat="43.42532" lon="-1.60893">
        <ele>32</ele>
        <time>2021-07-18T09:17:04Z</time>
      </trkpt>
      <trkpt lat="43.42527" lon="-1.60895">
        <ele>32.1</ele>
        <time>2021-07-18T09:17:06Z</time>
      </trkpt>
      <trkpt lat="43.42524" lon="-1.60895">
        <ele>32.2</ele>
        <time>2021-07-18T09:17:07Z</time>
      </trkpt>
      <trkpt lat="43.4252" lon="-1.60894">
        <ele>32.3</ele>
        <time>2021-07-18T09:17:09Z</time>
      </trkpt>
      <trkpt lat="43.42515" lon="-1.60894">
        <ele>32.5</ele>
        <time>2021-07-18T09:17:11Z</time>
      </trkpt>
      <trkpt lat="43.42511" lon="-1.60895">
        <ele>32.6</ele>
        <time>2021-07-18T09:17:13Z</time>
      </trkpt>
      <trkpt lat="43.42508" lon="-1.60896">
        <ele>32.7</ele>
        <time>2021-07-18T09:17:14Z</time>
      </trkpt>
      <trkpt lat="43.42505" lon="-1.60897">
        <ele>32.8</ele>
        <time>2021-07-18T09:17:15Z</time>
      </trkpt>
      <trkpt lat="43.42503" lon="-1.60899">
        <ele>32.8</ele>
        <time>2021-07-18T09:17:16Z</time>
      </trkpt>
      <trkpt lat="43.42499" lon="-1.60901">
        <ele>33</ele>
        <time>2021-07-18T09:17:18Z</time>
      </trkpt>
      <trkpt lat="43.42496" lon="-1.60902">
        <ele>33.1</ele>
        <time>2021-07-18T09:17:19Z</time>
      </trkpt>
      <trkpt lat="43.42493" lon="-1.60902">
        <ele>33.2</ele>
        <time>2021-07-18T09:17:21Z</time>
      </trkpt>
      <trkpt lat="43.4249" lon="-1.60902">
        <ele>33.3</ele>
        <time>2021-07-18T09:17:22Z</time>
      </trkpt>
      <trkpt lat="43.42486" lon="-1.60903">
        <ele>33.4</ele>
        <time>2021-07-18T09:17:24Z</time>
      </trkpt>
      <trkpt lat="43.42482" lon="-1.60904">
        <ele>33.6</ele>
        <time>2021-07-18T09:17:25Z</time>
      </trkpt>
      <trkpt lat="43.42481" lon="-1.60905">
        <ele>33.6</ele>
        <time>2021-07-18T09:17:26Z</time>
      </trkpt>
      <trkpt lat="43.42476" lon="-1.60907">
        <ele>33.8</ele>
        <time>2021-07-18T09:17:28Z</time>
      </trkpt>
      <trkpt lat="43.42472" lon="-1.60908">
        <ele>33.9</ele>
        <time>2021-07-18T09:17:29Z</time>
      </trkpt>
      <trkpt lat="43.42471" lon="-1.60908">
        <ele>34</ele>
        <time>2021-07-18T09:17:30Z</time>
      </trkpt>
      <trkpt lat="43.42467" lon="-1.60908">
        <ele>34.1</ele>
        <time>2021-07-18T09:17:32Z</time>
      </trkpt>
      <trkpt lat="43.42464" lon="-1.60908">
        <ele>34.1</ele>
        <time>2021-07-18T09:17:33Z</time>
      </trkpt>
      <trkpt lat="43.42461" lon="-1.60909">
        <ele>34.2</ele>
        <time>2021-07-18T09:17:35Z</time>
      </trkpt>
      <trkpt lat="43.42458" lon="-1.6091">
        <ele>34.3</ele>
        <time>2021-07-18T09:17:37Z</time>
      </trkpt>
      <trkpt lat="43.42458" lon="-1.6091">
        <ele>34.3</ele>
        <time>2021-07-18T09:17:38Z</time>
      </trkpt>
      <trkpt lat="43.42458" lon="-1.60911">
        <ele>34.3</ele>
        <time>2021-07-18T09:17:40Z</time>
      </trkpt>
      <trkpt lat="43.42457" lon="-1.60911">
        <ele>34.3</ele>
        <time>2021-07-18T09:17:41Z</time>
      </trkpt>
      <trkpt lat="43.42454" lon="-1.60912">
        <ele>34.4</ele>
        <time>2021-07-18T09:17:43Z</time>
      </trkpt>
      <trkpt lat="43.42451" lon="-1.60912">
        <ele>34.5</ele>
        <time>2021-07-18T09:17:44Z</time>
      </trkpt>
      <trkpt lat="43.42446" lon="-1.60912">
        <ele>34.6</ele>
        <time>2021-07-18T09:17:46Z</time>
      </trkpt>
      <trkpt lat="43.42441" lon="-1.60912">
        <ele>34.6</ele>
        <time>2021-07-18T09:17:47Z</time>
      </trkpt>
      <trkpt lat="43.42436" lon="-1.60913">
        <ele>34.7</ele>
        <time>2021-07-18T09:17:49Z</time>
      </trkpt>
      <trkpt lat="43.4243" lon="-1.60912">
        <ele>34.8</ele>
        <time>2021-07-18T09:17:51Z</time>
      </trkpt>
      <trkpt lat="43.42425" lon="-1.60911">
        <ele>34.8</ele>
        <time>2021-07-18T09:17:53Z</time>
      </trkpt>
      <trkpt lat="43.4242" lon="-1.60911">
        <ele>34.9</ele>
        <time>2021-07-18T09:17:55Z</time>
      </trkpt>
      <trkpt lat="43.42418" lon="-1.60909">
        <ele>34.9</ele>
        <time>2021-07-18T09:17:56Z</time>
      </trkpt>
      <trkpt lat="43.42414" lon="-1.60908">
        <ele>34.9</ele>
        <time>2021-07-18T09:17:58Z</time>
      </trkpt>
      <trkpt lat="43.42413" lon="-1.60908">
        <ele>34.9</ele>
        <time>2021-07-18T09:17:59Z</time>
      </trkpt>
      <trkpt lat="43.42408" lon="-1.60907">
        <ele>34.9</ele>
        <time>2021-07-18T09:18:01Z</time>
      </trkpt>
      <trkpt lat="43.42403" lon="-1.60907">
        <ele>35</ele>
        <time>2021-07-18T09:18:03Z</time>
      </trkpt>
      <trkpt lat="43.424" lon="-1.60907">
        <ele>35</ele>
        <time>2021-07-18T09:18:04Z</time>
      </trkpt>
      <trkpt lat="43.42395" lon="-1.60906">
        <ele>35.1</ele>
        <time>2021-07-18T09:18:05Z</time>
      </trkpt>
      <trkpt lat="43.42392" lon="-1.60905">
        <ele>35.2</ele>
        <time>2021-07-18T09:18:06Z</time>
      </trkpt>
      <trkpt lat="43.42387" lon="-1.60903">
        <ele>35.4</ele>
        <time>2021-07-18T09:18:08Z</time>
      </trkpt>
      <trkpt lat="43.42384" lon="-1.60902">
        <ele>35.6</ele>
        <time>2021-07-18T09:18:09Z</time>
      </trkpt>
      <trkpt lat="43.4238" lon="-1.609">
        <ele>35.7</ele>
        <time>2021-07-18T09:18:11Z</time>
      </trkpt>
      <trkpt lat="43.42376" lon="-1.60901">
        <ele>35.9</ele>
        <time>2021-07-18T09:18:13Z</time>
      </trkpt>
      <trkpt lat="43.42375" lon="-1.609">
        <ele>36</ele>
        <time>2021-07-18T09:18:14Z</time>
      </trkpt>
      <trkpt lat="43.42372" lon="-1.609">
        <ele>36.2</ele>
        <time>2021-07-18T09:18:16Z</time>
      </trkpt>
      <trkpt lat="43.42371" lon="-1.609">
        <ele>36.3</ele>
        <time>2021-07-18T09:18:17Z</time>
      </trkpt>
      <trkpt lat="43.42369" lon="-1.60897">
        <ele>36.5</ele>
        <time>2021-07-18T09:18:18Z</time>
      </trkpt>
      <trkpt lat="43.42365" lon="-1.60896">
        <ele>36.7</ele>
        <time>2021-07-18T09:18:20Z</time>
      </trkpt>
      <trkpt lat="43.42364" lon="-1.60896">
        <ele>36.8</ele>
        <time>2021-07-18T09:18:22Z</time>
      </trkpt>
      <trkpt lat="43.42363" lon="-1.60895">
        <ele>36.9</ele>
        <time>2021-07-18T09:18:24Z</time>
      </trkpt>
      <trkpt lat="43.42362" lon="-1.60895">
        <ele>36.9</ele>
        <time>2021-07-18T09:18:26Z</time>
      </trkpt>
      <trkpt lat="43.42361" lon="-1.60895">
        <ele>37</ele>
        <time>2021-07-18T09:18:28Z</time>
      </trkpt>
      <trkpt lat="43.4236" lon="-1.60894">
        <ele>37.1</ele>
        <time>2021-07-18T09:18:30Z</time>
      </trkpt>
      <trkpt lat="43.42359" lon="-1.60894">
        <ele>37.2</ele>
        <time>2021-07-18T09:18:31Z</time>
      </trkpt>
      <trkpt lat="43.42358" lon="-1.60894">
        <ele>37.2</ele>
        <time>2021-07-18T09:18:33Z</time>
      </trkpt>
      <trkpt lat="43.42357" lon="-1.60893">
        <ele>37.3</ele>
        <time>2021-07-18T09:19:09Z</time>
      </trkpt>
      <trkpt lat="43.42356" lon="-1.60893">
        <ele>37.4</ele>
        <time>2021-07-18T09:19:10Z</time>
      </trkpt>
      <trkpt lat="43.42355" lon="-1.60893">
        <ele>37.4</ele>
        <time>2021-07-18T09:19:11Z</time>
      </trkpt>
      <trkpt lat="43.42351" lon="-1.60892">
        <ele>37.7</ele>
        <time>2021-07-18T09:19:13Z</time>
      </trkpt>
      <trkpt lat="43.42347" lon="-1.60891">
        <ele>38</ele>
        <time>2021-07-18T09:19:15Z</time>
      </trkpt>
      <trkpt lat="43.42344" lon="-1.60891">
        <ele>38.1</ele>
        <time>2021-07-18T09:19:16Z</time>
      </trkpt>
      <trkpt lat="43.4234" lon="-1.6089">
        <ele>38.4</ele>
        <time>2021-07-18T09:19:18Z</time>
      </trkpt>
      <trkpt lat="43.42338" lon="-1.6089">
        <ele>38.6</ele>
        <time>2021-07-18T09:19:19Z</time>
      </trkpt>
      <trkpt lat="43.42337" lon="-1.6089">
        <ele>38.7</ele>
        <time>2021-07-18T09:19:20Z</time>
      </trkpt>
      <trkpt lat="43.42334" lon="-1.60891">
        <ele>38.9</ele>
        <time>2021-07-18T09:19:22Z</time>
      </trkpt>
      <trkpt lat="43.42331" lon="-1.60891">
        <ele>39.1</ele>
        <time>2021-07-18T09:19:23Z</time>
      </trkpt>
      <trkpt lat="43.42327" lon="-1.60891">
        <ele>39.4</ele>
        <time>2021-07-18T09:19:25Z</time>
      </trkpt>
      <trkpt lat="43.42324" lon="-1.60892">
        <ele>39.6</ele>
        <time>2021-07-18T09:19:26Z</time>
      </trkpt>
      <trkpt lat="43.42323" lon="-1.60892">
        <ele>39.7</ele>
        <time>2021-07-18T09:19:27Z</time>
      </trkpt>
      <trkpt lat="43.42319" lon="-1.60893">
        <ele>40</ele>
        <time>2021-07-18T09:19:29Z</time>
      </trkpt>
      <trkpt lat="43.42314" lon="-1.60893">
        <ele>40.3</ele>
        <time>2021-07-18T09:19:31Z</time>
      </trkpt>
      <trkpt lat="43.42311" lon="-1.60893">
        <ele>40.5</ele>
        <time>2021-07-18T09:19:33Z</time>
      </trkpt>
      <trkpt lat="43.42308" lon="-1.60893">
        <ele>40.7</ele>
        <time>2021-07-18T09:19:34Z</time>
      </trkpt>
      <trkpt lat="43.42306" lon="-1.60893">
        <ele>40.9</ele>
        <time>2021-07-18T09:19:35Z</time>
      </trkpt>
      <trkpt lat="43.42301" lon="-1.60892">
        <ele>41.2</ele>
        <time>2021-07-18T09:19:37Z</time>
      </trkpt>
      <trkpt lat="43.42296" lon="-1.60892">
        <ele>41.5</ele>
        <time>2021-07-18T09:19:39Z</time>
      </trkpt>
      <trkpt lat="43.42293" lon="-1.60892">
        <ele>41.7</ele>
        <time>2021-07-18T09:19:41Z</time>
      </trkpt>
      <trkpt lat="43.4229" lon="-1.60892">
        <ele>41.9</ele>
        <time>2021-07-18T09:19:42Z</time>
      </trkpt>
      <trkpt lat="43.42288" lon="-1.60892">
        <ele>42</ele>
        <time>2021-07-18T09:19:43Z</time>
      </trkpt>
      <trkpt lat="43.42285" lon="-1.60894">
        <ele>42.2</ele>
        <time>2021-07-18T09:19:45Z</time>
      </trkpt>
      <trkpt lat="43.42283" lon="-1.60894">
        <ele>42.3</ele>
        <time>2021-07-18T09:19:46Z</time>
      </trkpt>
      <trkpt lat="43.42278" lon="-1.60894">
        <ele>42.5</ele>
        <time>2021-07-18T09:19:48Z</time>
      </trkpt>
      <trkpt lat="43.42274" lon="-1.60893">
        <ele>42.6</ele>
        <time>2021-07-18T09:19:50Z</time>
      </trkpt>
      <trkpt lat="43.42269" lon="-1.60892">
        <ele>42.8</ele>
        <time>2021-07-18T09:19:52Z</time>
      </trkpt>
      <trkpt lat="43.42267" lon="-1.60892">
        <ele>42.9</ele>
        <time>2021-07-18T09:19:53Z</time>
      </trkpt>
      <trkpt lat="43.42262" lon="-1.60891">
        <ele>43</ele>
        <time>2021-07-18T09:19:55Z</time>
      </trkpt>
      <trkpt lat="43.42257" lon="-1.6089">
        <ele>43.1</ele>
        <time>2021-07-18T09:19:57Z</time>
      </trkpt>
      <trkpt lat="43.42252" lon="-1.60889">
        <ele>43.3</ele>
        <time>2021-07-18T09:19:59Z</time>
      </trkpt>
      <trkpt lat="43.42247" lon="-1.60888">
        <ele>43.4</ele>
        <time>2021-07-18T09:20:01Z</time>
      </trkpt>
      <trkpt lat="43.42244" lon="-1.60889">
        <ele>43.5</ele>
        <time>2021-07-18T09:20:02Z</time>
      </trkpt>
      <trkpt lat="43.42241" lon="-1.60888">
        <ele>43.6</ele>
        <time>2021-07-18T09:20:03Z</time>
      </trkpt>
      <trkpt lat="43.42238" lon="-1.60886">
        <ele>43.6</ele>
        <time>2021-07-18T09:20:04Z</time>
      </trkpt>
      <trkpt lat="43.42234" lon="-1.60884">
        <ele>43.7</ele>
        <time>2021-07-18T09:20:06Z</time>
      </trkpt>
      <trkpt lat="43.42231" lon="-1.60883">
        <ele>43.8</ele>
        <time>2021-07-18T09:20:08Z</time>
      </trkpt>
      <trkpt lat="43.42232" lon="-1.6088">
        <ele>43.8</ele>
        <time>2021-07-18T09:20:09Z</time>
      </trkpt>
      <trkpt lat="43.42233" lon="-1.60878">
        <ele>43.9</ele>
        <time>2021-07-18T09:20:11Z</time>
      </trkpt>
      <trkpt lat="43.42234" lon="-1.60876">
        <ele>43.9</ele>
        <time>2021-07-18T09:20:12Z</time>
      </trkpt>
      <trkpt lat="43.42236" lon="-1.60877">
        <ele>43.9</ele>
        <time>2021-07-18T09:20:13Z</time>
      </trkpt>
      <trkpt lat="43.42239" lon="-1.60879">
        <ele>44</ele>
        <time>2021-07-18T09:20:15Z</time>
      </trkpt>
      <trkpt lat="43.42241" lon="-1.60884">
        <ele>44.1</ele>
        <time>2021-07-18T09:20:17Z</time>
      </trkpt>
      <trkpt lat="43.42241" lon="-1.60885">
        <ele>44.1</ele>
        <time>2021-07-18T09:20:19Z</time>
      </trkpt>
      <trkpt lat="43.42241" lon="-1.60885">
        <ele>44.1</ele>
        <time>2021-07-18T09:20:21Z</time>
      </trkpt>
      <trkpt lat="43.42241" lon="-1.60885">
        <ele>44.1</ele>
        <time>2021-07-18T09:20:23Z</time>
      </trkpt>
      <trkpt lat="43.42235" lon="-1.6089">
        <ele>44.3</ele>
        <time>2021-07-18T09:22:53Z</time>
      </trkpt>
      <trkpt lat="43.42229" lon="-1.60889">
        <ele>44.4</ele>
        <time>2021-07-18T09:22:55Z</time>
      </trkpt>
      <trkpt lat="43.42226" lon="-1.60887">
        <ele>44.5</ele>
        <time>2021-07-18T09:22:56Z</time>
      </trkpt>
      <trkpt lat="43.42223" lon="-1.60885">
        <ele>44.6</ele>
        <time>2021-07-18T09:22:57Z</time>
      </trkpt>
      <trkpt lat="43.42218" lon="-1.60881">
        <ele>44.8</ele>
        <time>2021-07-18T09:22:59Z</time>
      </trkpt>
      <trkpt lat="43.42216" lon="-1.60878">
        <ele>44.9</ele>
        <time>2021-07-18T09:23:00Z</time>
      </trkpt>
      <trkpt lat="43.42213" lon="-1.60876">
        <ele>45</ele>
        <time>2021-07-18T09:23:01Z</time>
      </trkpt>
      <trkpt lat="43.42211" lon="-1.60873">
        <ele>45.1</ele>
        <time>2021-07-18T09:23:02Z</time>
      </trkpt>
      <trkpt lat="43.42206" lon="-1.6087">
        <ele>45.2</ele>
        <time>2021-07-18T09:23:04Z</time>
      </trkpt>
      <trkpt lat="43.42202" lon="-1.60866">
        <ele>45.3</ele>
        <time>2021-07-18T09:23:06Z</time>
      </trkpt>
      <trkpt lat="43.42199" lon="-1.60863">
        <ele>45.4</ele>
        <time>2021-07-18T09:23:08Z</time>
      </trkpt>
      <trkpt lat="43.42196" lon="-1.6086">
        <ele>45.4</ele>
        <time>2021-07-18T09:23:09Z</time>
      </trkpt>
      <trkpt lat="43.42193" lon="-1.60857">
        <ele>45.5</ele>
        <time>2021-07-18T09:23:11Z</time>
      </trkpt>
      <trkpt lat="43.42191" lon="-1.60855">
        <ele>45.5</ele>
        <time>2021-07-18T09:23:12Z</time>
      </trkpt>
      <trkpt lat="43.42188" lon="-1.60851">
        <ele>45.6</ele>
        <time>2021-07-18T09:23:13Z</time>
      </trkpt>
      <trkpt lat="43.42186" lon="-1.60848">
        <ele>45.7</ele>
        <time>2021-07-18T09:23:14Z</time>
      </trkpt>
      <trkpt lat="43.42184" lon="-1.60845">
        <ele>45.8</ele>
        <time>2021-07-18T09:23:15Z</time>
      </trkpt>
      <trkpt lat="43.42182" lon="-1.60841">
        <ele>45.8</ele>
        <time>2021-07-18T09:23:17Z</time>
      </trkpt>
      <trkpt lat="43.42181" lon="-1.60837">
        <ele>45.9</ele>
        <time>2021-07-18T09:23:18Z</time>
      </trkpt>
      <trkpt lat="43.42178" lon="-1.60834">
        <ele>46</ele>
        <time>2021-07-18T09:23:19Z</time>
      </trkpt>
      <trkpt lat="43.42177" lon="-1.60831">
        <ele>46.1</ele>
        <time>2021-07-18T09:23:20Z</time>
      </trkpt>
      <trkpt lat="43.42174" lon="-1.60826">
        <ele>46.3</ele>
        <time>2021-07-18T09:23:22Z</time>
      </trkpt>
      <trkpt lat="43.42173" lon="-1.60823">
        <ele>46.4</ele>
        <time>2021-07-18T09:23:23Z</time>
      </trkpt>
      <trkpt lat="43.42171" lon="-1.60821">
        <ele>46.4</ele>
        <time>2021-07-18T09:23:24Z</time>
      </trkpt>
      <trkpt lat="43.42169" lon="-1.60816">
        <ele>46.5</ele>
        <time>2021-07-18T09:23:26Z</time>
      </trkpt>
      <trkpt lat="43.42166" lon="-1.60812">
        <ele>46.6</ele>
        <time>2021-07-18T09:23:27Z</time>
      </trkpt>
      <trkpt lat="43.42165" lon="-1.60808">
        <ele>46.7</ele>
        <time>2021-07-18T09:23:28Z</time>
      </trkpt>
      <trkpt lat="43.42163" lon="-1.60804">
        <ele>46.8</ele>
        <time>2021-07-18T09:23:29Z</time>
      </trkpt>
      <trkpt lat="43.4216" lon="-1.60797">
        <ele>46.9</ele>
        <time>2021-07-18T09:23:31Z</time>
      </trkpt>
      <trkpt lat="43.42158" lon="-1.60794">
        <ele>47</ele>
        <time>2021-07-18T09:23:32Z</time>
      </trkpt>
      <trkpt lat="43.42157" lon="-1.6079">
        <ele>47.1</ele>
        <time>2021-07-18T09:23:33Z</time>
      </trkpt>
      <trkpt lat="43.42154" lon="-1.60783">
        <ele>47.2</ele>
        <time>2021-07-18T09:23:35Z</time>
      </trkpt>
      <trkpt lat="43.42152" lon="-1.60776">
        <ele>47.3</ele>
        <time>2021-07-18T09:23:37Z</time>
      </trkpt>
      <trkpt lat="43.4215" lon="-1.60769">
        <ele>47.4</ele>
        <time>2021-07-18T09:23:39Z</time>
      </trkpt>
      <trkpt lat="43.42149" lon="-1.60765">
        <ele>47.5</ele>
        <time>2021-07-18T09:23:40Z</time>
      </trkpt>
      <trkpt lat="43.42146" lon="-1.60759">
        <ele>47.6</ele>
        <time>2021-07-18T09:23:42Z</time>
      </trkpt>
      <trkpt lat="43.42144" lon="-1.60753">
        <ele>47.7</ele>
        <time>2021-07-18T09:23:44Z</time>
      </trkpt>
      <trkpt lat="43.42142" lon="-1.60747">
        <ele>47.8</ele>
        <time>2021-07-18T09:23:46Z</time>
      </trkpt>
      <trkpt lat="43.4214" lon="-1.60741">
        <ele>47.9</ele>
        <time>2021-07-18T09:23:48Z</time>
      </trkpt>
      <trkpt lat="43.42137" lon="-1.60735">
        <ele>48.1</ele>
        <time>2021-07-18T09:23:50Z</time>
      </trkpt>
      <trkpt lat="43.42135" lon="-1.60729">
        <ele>48.4</ele>
        <time>2021-07-18T09:23:52Z</time>
      </trkpt>
      <trkpt lat="43.42133" lon="-1.60725">
        <ele>48.5</ele>
        <time>2021-07-18T09:23:53Z</time>
      </trkpt>
      <trkpt lat="43.42133" lon="-1.60724">
        <ele>48.6</ele>
        <time>2021-07-18T09:23:54Z</time>
      </trkpt>
      <trkpt lat="43.42129" lon="-1.6072">
        <ele>48.8</ele>
        <time>2021-07-18T09:23:56Z</time>
      </trkpt>
      <trkpt lat="43.42126" lon="-1.60717">
        <ele>49</ele>
        <time>2021-07-18T09:23:57Z</time>
      </trkpt>
      <trkpt lat="43.42125" lon="-1.60715">
        <ele>49.2</ele>
        <time>2021-07-18T09:23:58Z</time>
      </trkpt>
      <trkpt lat="43.42122" lon="-1.6071">
        <ele>49.4</ele>
        <time>2021-07-18T09:24:00Z</time>
      </trkpt>
      <trkpt lat="43.4212" lon="-1.60708">
        <ele>49.6</ele>
        <time>2021-07-18T09:24:01Z</time>
      </trkpt>
      <trkpt lat="43.42116" lon="-1.60705">
        <ele>49.8</ele>
        <time>2021-07-18T09:24:03Z</time>
      </trkpt>
      <trkpt lat="43.42113" lon="-1.60701">
        <ele>50.1</ele>
        <time>2021-07-18T09:24:05Z</time>
      </trkpt>
      <trkpt lat="43.4211" lon="-1.60697">
        <ele>50.3</ele>
        <time>2021-07-18T09:24:07Z</time>
      </trkpt>
      <trkpt lat="43.42108" lon="-1.60694">
        <ele>50.6</ele>
        <time>2021-07-18T09:24:08Z</time>
      </trkpt>
      <trkpt lat="43.42107" lon="-1.60693">
        <ele>50.6</ele>
        <time>2021-07-18T09:24:09Z</time>
      </trkpt>
      <trkpt lat="43.42105" lon="-1.60691">
        <ele>50.8</ele>
        <time>2021-07-18T09:24:10Z</time>
      </trkpt>
      <trkpt lat="43.42102" lon="-1.60689">
        <ele>51</ele>
        <time>2021-07-18T09:24:12Z</time>
      </trkpt>
      <trkpt lat="43.42101" lon="-1.60688">
        <ele>51</ele>
        <time>2021-07-18T09:24:14Z</time>
      </trkpt>
      <trkpt lat="43.421" lon="-1.60689">
        <ele>51.1</ele>
        <time>2021-07-18T09:24:16Z</time>
      </trkpt>
      <trkpt lat="43.421" lon="-1.60689">
        <ele>51.1</ele>
        <time>2021-07-18T09:24:18Z</time>
      </trkpt>
      <trkpt lat="43.421" lon="-1.60689">
        <ele>51.1</ele>
        <time>2021-07-18T09:24:20Z</time>
      </trkpt>
      <trkpt lat="43.421" lon="-1.60689">
        <ele>51.1</ele>
        <time>2021-07-18T09:24:22Z</time>
      </trkpt>
      <trkpt lat="43.421" lon="-1.60689">
        <ele>51.1</ele>
        <time>2021-07-18T09:24:24Z</time>
      </trkpt>
      <trkpt lat="43.421" lon="-1.60689">
        <ele>51.1</ele>
        <time>2021-07-18T09:24:26Z</time>
      </trkpt>
      <trkpt lat="43.42099" lon="-1.60685">
        <ele>51.3</ele>
        <time>2021-07-18T09:24:34Z</time>
      </trkpt>
      <trkpt lat="43.42097" lon="-1.6068">
        <ele>51.6</ele>
        <time>2021-07-18T09:24:36Z</time>
      </trkpt>
      <trkpt lat="43.42093" lon="-1.60676">
        <ele>51.8</ele>
        <time>2021-07-18T09:24:38Z</time>
      </trkpt>
      <trkpt lat="43.42089" lon="-1.60671">
        <ele>52.1</ele>
        <time>2021-07-18T09:24:40Z</time>
      </trkpt>
      <trkpt lat="43.42087" lon="-1.60666">
        <ele>52.3</ele>
        <time>2021-07-18T09:24:42Z</time>
      </trkpt>
      <trkpt lat="43.42086" lon="-1.60662">
        <ele>52.5</ele>
        <time>2021-07-18T09:24:43Z</time>
      </trkpt>
      <trkpt lat="43.42085" lon="-1.60658">
        <ele>52.3</ele>
        <time>2021-07-18T09:24:44Z</time>
      </trkpt>
      <trkpt lat="43.42085" lon="-1.60652">
        <ele>52.1</ele>
        <time>2021-07-18T09:24:45Z</time>
      </trkpt>
      <trkpt lat="43.42086" lon="-1.60642">
        <ele>51.6</ele>
        <time>2021-07-18T09:24:46Z</time>
      </trkpt>
      <trkpt lat="43.42089" lon="-1.60628">
        <ele>50.9</ele>
        <time>2021-07-18T09:24:48Z</time>
      </trkpt>
      <trkpt lat="43.42092" lon="-1.6062">
        <ele>50.5</ele>
        <time>2021-07-18T09:24:49Z</time>
      </trkpt>
      <trkpt lat="43.42097" lon="-1.60602">
        <ele>49.6</ele>
        <time>2021-07-18T09:24:51Z</time>
      </trkpt>
      <trkpt lat="43.421" lon="-1.60593">
        <ele>49.2</ele>
        <time>2021-07-18T09:24:52Z</time>
      </trkpt>
      <trkpt lat="43.42103" lon="-1.60584">
        <ele>48.7</ele>
        <time>2021-07-18T09:24:53Z</time>
      </trkpt>
      <trkpt lat="43.4211" lon="-1.60565">
        <ele>47.6</ele>
        <time>2021-07-18T09:24:55Z</time>
      </trkpt>
      <trkpt lat="43.42117" lon="-1.60544">
        <ele>46.7</ele>
        <time>2021-07-18T09:24:57Z</time>
      </trkpt>
      <trkpt lat="43.42127" lon="-1.60526">
        <ele>45.8</ele>
        <time>2021-07-18T09:24:59Z</time>
      </trkpt>
      <trkpt lat="43.42139" lon="-1.6051">
        <ele>44.9</ele>
        <time>2021-07-18T09:25:01Z</time>
      </trkpt>
      <trkpt lat="43.42154" lon="-1.60498">
        <ele>43.9</ele>
        <time>2021-07-18T09:25:03Z</time>
      </trkpt>
      <trkpt lat="43.4217" lon="-1.6049">
        <ele>43</ele>
        <time>2021-07-18T09:25:05Z</time>
      </trkpt>
      <trkpt lat="43.42179" lon="-1.60487">
        <ele>42.5</ele>
        <time>2021-07-18T09:25:06Z</time>
      </trkpt>
      <trkpt lat="43.42196" lon="-1.60485">
        <ele>41.7</ele>
        <time>2021-07-18T09:25:08Z</time>
      </trkpt>
      <trkpt lat="43.42213" lon="-1.60488">
        <ele>40.8</ele>
        <time>2021-07-18T09:25:10Z</time>
      </trkpt>
      <trkpt lat="43.42222" lon="-1.60491">
        <ele>40.4</ele>
        <time>2021-07-18T09:25:11Z</time>
      </trkpt>
      <trkpt lat="43.42238" lon="-1.60498">
        <ele>39.6</ele>
        <time>2021-07-18T09:25:13Z</time>
      </trkpt>
      <trkpt lat="43.42255" lon="-1.60506">
        <ele>38.8</ele>
        <time>2021-07-18T09:25:15Z</time>
      </trkpt>
      <trkpt lat="43.42272" lon="-1.60512">
        <ele>38.1</ele>
        <time>2021-07-18T09:25:17Z</time>
      </trkpt>
      <trkpt lat="43.4229" lon="-1.60513">
        <ele>37.6</ele>
        <time>2021-07-18T09:25:19Z</time>
      </trkpt>
      <trkpt lat="43.42299" lon="-1.60513">
        <ele>37.5</ele>
        <time>2021-07-18T09:25:20Z</time>
      </trkpt>
      <trkpt lat="43.42308" lon="-1.60511">
        <ele>37.3</ele>
        <time>2021-07-18T09:25:21Z</time>
      </trkpt>
      <trkpt lat="43.42323" lon="-1.60506">
        <ele>37.1</ele>
        <time>2021-07-18T09:25:23Z</time>
      </trkpt>
      <trkpt lat="43.42331" lon="-1.60504">
        <ele>37</ele>
        <time>2021-07-18T09:25:24Z</time>
      </trkpt>
      <trkpt lat="43.42345" lon="-1.60501">
        <ele>37</ele>
        <time>2021-07-18T09:25:26Z</time>
      </trkpt>
      <trkpt lat="43.42358" lon="-1.60498">
        <ele>37</ele>
        <time>2021-07-18T09:25:28Z</time>
      </trkpt>
      <trkpt lat="43.42371" lon="-1.60494">
        <ele>36.9</ele>
        <time>2021-07-18T09:25:30Z</time>
      </trkpt>
      <trkpt lat="43.42378" lon="-1.60491">
        <ele>36.9</ele>
        <time>2021-07-18T09:25:31Z</time>
      </trkpt>
      <trkpt lat="43.42384" lon="-1.60488">
        <ele>36.8</ele>
        <time>2021-07-18T09:25:32Z</time>
      </trkpt>
      <trkpt lat="43.42396" lon="-1.60482">
        <ele>36.6</ele>
        <time>2021-07-18T09:25:34Z</time>
      </trkpt>
      <trkpt lat="43.42402" lon="-1.6048">
        <ele>36.5</ele>
        <time>2021-07-18T09:25:35Z</time>
      </trkpt>
      <trkpt lat="43.42414" lon="-1.60473">
        <ele>36.2</ele>
        <time>2021-07-18T09:25:37Z</time>
      </trkpt>
      <trkpt lat="43.42425" lon="-1.60468">
        <ele>35.9</ele>
        <time>2021-07-18T09:25:39Z</time>
      </trkpt>
      <trkpt lat="43.42429" lon="-1.60465">
        <ele>35.8</ele>
        <time>2021-07-18T09:25:40Z</time>
      </trkpt>
      <trkpt lat="43.42431" lon="-1.60463">
        <ele>35.7</ele>
        <time>2021-07-18T09:25:42Z</time>
      </trkpt>
      <trkpt lat="43.4243" lon="-1.60463">
        <ele>35.7</ele>
        <time>2021-07-18T09:25:43Z</time>
      </trkpt>
      <trkpt lat="43.4243" lon="-1.60463">
        <ele>35.7</ele>
        <time>2021-07-18T09:25:44Z</time>
      </trkpt>
      <trkpt lat="43.42429" lon="-1.60464">
        <ele>35.7</ele>
        <time>2021-07-18T09:25:45Z</time>
      </trkpt>
      <trkpt lat="43.4243" lon="-1.60463">
        <ele>35.7</ele>
        <time>2021-07-18T09:25:47Z</time>
      </trkpt>
      <trkpt lat="43.42431" lon="-1.60463">
        <ele>35.7</ele>
        <time>2021-07-18T09:25:48Z</time>
      </trkpt>
      <trkpt lat="43.42434" lon="-1.60462">
        <ele>35.7</ele>
        <time>2021-07-18T09:25:50Z</time>
      </trkpt>
      <trkpt lat="43.42439" lon="-1.60461">
        <ele>35.6</ele>
        <time>2021-07-18T09:25:52Z</time>
      </trkpt>
      <trkpt lat="43.42445" lon="-1.60459">
        <ele>35.5</ele>
        <time>2021-07-18T09:25:54Z</time>
      </trkpt>
      <trkpt lat="43.42451" lon="-1.60457">
        <ele>35.4</ele>
        <time>2021-07-18T09:25:56Z</time>
      </trkpt>
      <trkpt lat="43.42455" lon="-1.60456">
        <ele>35.3</ele>
        <time>2021-07-18T09:25:57Z</time>
      </trkpt>
      <trkpt lat="43.42463" lon="-1.60452">
        <ele>35.1</ele>
        <time>2021-07-18T09:25:59Z</time>
      </trkpt>
      <trkpt lat="43.42467" lon="-1.60449">
        <ele>34.9</ele>
        <time>2021-07-18T09:26:00Z</time>
      </trkpt>
      <trkpt lat="43.42477" lon="-1.60444">
        <ele>34.6</ele>
        <time>2021-07-18T09:26:02Z</time>
      </trkpt>
      <trkpt lat="43.42487" lon="-1.60439">
        <ele>34.4</ele>
        <time>2021-07-18T09:26:04Z</time>
      </trkpt>
      <trkpt lat="43.42493" lon="-1.60437">
        <ele>34.2</ele>
        <time>2021-07-18T09:26:05Z</time>
      </trkpt>
      <trkpt lat="43.42503" lon="-1.60432">
        <ele>33.9</ele>
        <time>2021-07-18T09:26:07Z</time>
      </trkpt>
      <trkpt lat="43.42509" lon="-1.60429">
        <ele>33.8</ele>
        <time>2021-07-18T09:26:08Z</time>
      </trkpt>
      <trkpt lat="43.4252" lon="-1.60424">
        <ele>33.6</ele>
        <time>2021-07-18T09:26:10Z</time>
      </trkpt>
      <trkpt lat="43.42532" lon="-1.60419">
        <ele>33.4</ele>
        <time>2021-07-18T09:26:12Z</time>
      </trkpt>
      <trkpt lat="43.42544" lon="-1.60413">
        <ele>33.2</ele>
        <time>2021-07-18T09:26:14Z</time>
      </trkpt>
      <trkpt lat="43.4255" lon="-1.6041">
        <ele>33.1</ele>
        <time>2021-07-18T09:26:15Z</time>
      </trkpt>
      <trkpt lat="43.42562" lon="-1.60405">
        <ele>32.9</ele>
        <time>2021-07-18T09:26:17Z</time>
      </trkpt>
      <trkpt lat="43.42569" lon="-1.60402">
        <ele>32.7</ele>
        <time>2021-07-18T09:26:18Z</time>
      </trkpt>
      <trkpt lat="43.42575" lon="-1.60399">
        <ele>32.6</ele>
        <time>2021-07-18T09:26:19Z</time>
      </trkpt>
      <trkpt lat="43.42581" lon="-1.60396">
        <ele>32.5</ele>
        <time>2021-07-18T09:26:20Z</time>
      </trkpt>
      <trkpt lat="43.42593" lon="-1.6039">
        <ele>32.2</ele>
        <time>2021-07-18T09:26:22Z</time>
      </trkpt>
      <trkpt lat="43.42599" lon="-1.60388">
        <ele>32.1</ele>
        <time>2021-07-18T09:26:23Z</time>
      </trkpt>
      <trkpt lat="43.4261" lon="-1.60382">
        <ele>31.8</ele>
        <time>2021-07-18T09:26:25Z</time>
      </trkpt>
      <trkpt lat="43.42616" lon="-1.60379">
        <ele>31.7</ele>
        <time>2021-07-18T09:26:26Z</time>
      </trkpt>
      <trkpt lat="43.42628" lon="-1.60374">
        <ele>31.4</ele>
        <time>2021-07-18T09:26:28Z</time>
      </trkpt>
      <trkpt lat="43.42639" lon="-1.60369">
        <ele>31.1</ele>
        <time>2021-07-18T09:26:30Z</time>
      </trkpt>
      <trkpt lat="43.42645" lon="-1.60367">
        <ele>30.9</ele>
        <time>2021-07-18T09:26:31Z</time>
      </trkpt>
      <trkpt lat="43.42657" lon="-1.60364">
        <ele>30.7</ele>
        <time>2021-07-18T09:26:33Z</time>
      </trkpt>
      <trkpt lat="43.4267" lon="-1.60367">
        <ele>30.5</ele>
        <time>2021-07-18T09:26:35Z</time>
      </trkpt>
      <trkpt lat="43.42683" lon="-1.60373">
        <ele>30.2</ele>
        <time>2021-07-18T09:26:37Z</time>
      </trkpt>
      <trkpt lat="43.42689" lon="-1.60377">
        <ele>30</ele>
        <time>2021-07-18T09:26:38Z</time>
      </trkpt>
      <trkpt lat="43.42696" lon="-1.6038">
        <ele>29.9</ele>
        <time>2021-07-18T09:26:39Z</time>
      </trkpt>
      <trkpt lat="43.42709" lon="-1.60385">
        <ele>29.6</ele>
        <time>2021-07-18T09:26:41Z</time>
      </trkpt>
      <trkpt lat="43.42716" lon="-1.60385">
        <ele>29.3</ele>
        <time>2021-07-18T09:26:42Z</time>
      </trkpt>
      <trkpt lat="43.42722" lon="-1.6038">
        <ele>29</ele>
        <time>2021-07-18T09:26:44Z</time>
      </trkpt>
      <trkpt lat="43.42719" lon="-1.60371">
        <ele>28.7</ele>
        <time>2021-07-18T09:26:46Z</time>
      </trkpt>
      <trkpt lat="43.42715" lon="-1.60366">
        <ele>27.9</ele>
        <time>2021-07-18T09:26:48Z</time>
      </trkpt>
      <trkpt lat="43.42714" lon="-1.60365">
        <ele>27.8</ele>
        <time>2021-07-18T09:26:49Z</time>
      </trkpt>
      <trkpt lat="43.42711" lon="-1.60362">
        <ele>27.7</ele>
        <time>2021-07-18T09:26:51Z</time>
      </trkpt>
      <trkpt lat="43.42712" lon="-1.6036">
        <ele>27.6</ele>
        <time>2021-07-18T09:26:52Z</time>
      </trkpt>
      <trkpt lat="43.42712" lon="-1.60356">
        <ele>27.5</ele>
        <time>2021-07-18T09:26:54Z</time>
      </trkpt>
      <trkpt lat="43.42712" lon="-1.6035">
        <ele>27.3</ele>
        <time>2021-07-18T09:26:55Z</time>
      </trkpt>
      <trkpt lat="43.42712" lon="-1.60342">
        <ele>27.1</ele>
        <time>2021-07-18T09:26:56Z</time>
      </trkpt>
      <trkpt lat="43.42713" lon="-1.60334">
        <ele>26.8</ele>
        <time>2021-07-18T09:26:57Z</time>
      </trkpt>
      <trkpt lat="43.42719" lon="-1.60318">
        <ele>26.2</ele>
        <time>2021-07-18T09:26:59Z</time>
      </trkpt>
      <trkpt lat="43.42725" lon="-1.60307">
        <ele>25.7</ele>
        <time>2021-07-18T09:27:01Z</time>
      </trkpt>
      <trkpt lat="43.42733" lon="-1.60297">
        <ele>25.3</ele>
        <time>2021-07-18T09:27:03Z</time>
      </trkpt>
      <trkpt lat="43.42742" lon="-1.6029">
        <ele>24.8</ele>
        <time>2021-07-18T09:27:05Z</time>
      </trkpt>
      <trkpt lat="43.42751" lon="-1.60284">
        <ele>24.3</ele>
        <time>2021-07-18T09:27:07Z</time>
      </trkpt>
      <trkpt lat="43.42755" lon="-1.6028">
        <ele>24.1</ele>
        <time>2021-07-18T09:27:08Z</time>
      </trkpt>
      <trkpt lat="43.42758" lon="-1.60267">
        <ele>23.7</ele>
        <time>2021-07-18T09:27:10Z</time>
      </trkpt>
      <trkpt lat="43.42762" lon="-1.60255">
        <ele>23.3</ele>
        <time>2021-07-18T09:27:12Z</time>
      </trkpt>
      <trkpt lat="43.42765" lon="-1.6025">
        <ele>23.1</ele>
        <time>2021-07-18T09:27:13Z</time>
      </trkpt>
      <trkpt lat="43.42768" lon="-1.60241">
        <ele>22.9</ele>
        <time>2021-07-18T09:27:15Z</time>
      </trkpt>
      <trkpt lat="43.42771" lon="-1.60238">
        <ele>22.8</ele>
        <time>2021-07-18T09:27:16Z</time>
      </trkpt>
      <trkpt lat="43.42774" lon="-1.60236">
        <ele>22.7</ele>
        <time>2021-07-18T09:27:17Z</time>
      </trkpt>
      <trkpt lat="43.42774" lon="-1.60235">
        <ele>22.6</ele>
        <time>2021-07-18T09:27:18Z</time>
      </trkpt>
      <trkpt lat="43.42775" lon="-1.60234">
        <ele>22.6</ele>
        <time>2021-07-18T09:27:19Z</time>
      </trkpt>
      <trkpt lat="43.42778" lon="-1.60232">
        <ele>22.5</ele>
        <time>2021-07-18T09:27:21Z</time>
      </trkpt>
      <trkpt lat="43.42779" lon="-1.60231">
        <ele>22.5</ele>
        <time>2021-07-18T09:27:22Z</time>
      </trkpt>
      <trkpt lat="43.42778" lon="-1.60233">
        <ele>22.5</ele>
        <time>2021-07-18T09:27:24Z</time>
      </trkpt>
      <trkpt lat="43.42777" lon="-1.60233">
        <ele>22.5</ele>
        <time>2021-07-18T09:27:25Z</time>
      </trkpt>
      <trkpt lat="43.42776" lon="-1.60234">
        <ele>22.6</ele>
        <time>2021-07-18T09:27:27Z</time>
      </trkpt>
      <trkpt lat="43.42776" lon="-1.60234">
        <ele>22.6</ele>
        <time>2021-07-18T09:27:28Z</time>
      </trkpt>
      <trkpt lat="43.42776" lon="-1.60234">
        <ele>22.6</ele>
        <time>2021-07-18T09:27:29Z</time>
      </trkpt>
      <trkpt lat="43.42776" lon="-1.60234">
        <ele>22.6</ele>
        <time>2021-07-18T09:27:30Z</time>
      </trkpt>
      <trkpt lat="43.42776" lon="-1.60234">
        <ele>22.6</ele>
        <time>2021-07-18T09:27:31Z</time>
      </trkpt>
      <trkpt lat="43.42776" lon="-1.60234">
        <ele>22.6</ele>
        <time>2021-07-18T09:27:33Z</time>
      </trkpt>
      <trkpt lat="43.42776" lon="-1.60235">
        <ele>22.6</ele>
        <time>2021-07-18T09:27:49Z</time>
      </trkpt>
      <trkpt lat="43.42776" lon="-1.60236">
        <ele>22.6</ele>
        <time>2021-07-18T09:27:50Z</time>
      </trkpt>
      <trkpt lat="43.42776" lon="-1.60236">
        <ele>22.6</ele>
        <time>2021-07-18T09:27:51Z</time>
      </trkpt>
      <trkpt lat="43.42774" lon="-1.60238">
        <ele>22.7</ele>
        <time>2021-07-18T09:27:53Z</time>
      </trkpt>
      <trkpt lat="43.42772" lon="-1.60239">
        <ele>22.8</ele>
        <time>2021-07-18T09:27:54Z</time>
      </trkpt>
      <trkpt lat="43.42768" lon="-1.60243">
        <ele>22.9</ele>
        <time>2021-07-18T09:27:56Z</time>
      </trkpt>
      <trkpt lat="43.42767" lon="-1.60245">
        <ele>23</ele>
        <time>2021-07-18T09:27:57Z</time>
      </trkpt>
      <trkpt lat="43.42766" lon="-1.60251">
        <ele>23.1</ele>
        <time>2021-07-18T09:27:59Z</time>
      </trkpt>
      <trkpt lat="43.42764" lon="-1.60255">
        <ele>23.3</ele>
        <time>2021-07-18T09:28:01Z</time>
      </trkpt>
      <trkpt lat="43.42762" lon="-1.60258">
        <ele>23.4</ele>
        <time>2021-07-18T09:28:02Z</time>
      </trkpt>
      <trkpt lat="43.42761" lon="-1.60259">
        <ele>23.4</ele>
        <time>2021-07-18T09:28:03Z</time>
      </trkpt>
      <trkpt lat="43.42759" lon="-1.60263">
        <ele>23.5</ele>
        <time>2021-07-18T09:28:05Z</time>
      </trkpt>
      <trkpt lat="43.42758" lon="-1.60266">
        <ele>23.7</ele>
        <time>2021-07-18T09:28:06Z</time>
      </trkpt>
      <trkpt lat="43.42756" lon="-1.6027">
        <ele>23.8</ele>
        <time>2021-07-18T09:28:08Z</time>
      </trkpt>
      <trkpt lat="43.42755" lon="-1.60274">
        <ele>23.9</ele>
        <time>2021-07-18T09:28:09Z</time>
      </trkpt>
      <trkpt lat="43.42754" lon="-1.60278">
        <ele>24.1</ele>
        <time>2021-07-18T09:28:10Z</time>
      </trkpt>
      <trkpt lat="43.42752" lon="-1.60283">
        <ele>24.3</ele>
        <time>2021-07-18T09:28:12Z</time>
      </trkpt>
      <trkpt lat="43.4275" lon="-1.60285">
        <ele>24.4</ele>
        <time>2021-07-18T09:28:13Z</time>
      </trkpt>
      <trkpt lat="43.42748" lon="-1.60288">
        <ele>24.5</ele>
        <time>2021-07-18T09:28:15Z</time>
      </trkpt>
      <trkpt lat="43.42745" lon="-1.60289">
        <ele>24.6</ele>
        <time>2021-07-18T09:28:16Z</time>
      </trkpt>
      <trkpt lat="43.42742" lon="-1.60291">
        <ele>24.8</ele>
        <time>2021-07-18T09:28:18Z</time>
      </trkpt>
      <trkpt lat="43.4274" lon="-1.60292">
        <ele>24.9</ele>
        <time>2021-07-18T09:28:19Z</time>
      </trkpt>
      <trkpt lat="43.42737" lon="-1.60294">
        <ele>25.1</ele>
        <time>2021-07-18T09:28:21Z</time>
      </trkpt>
      <trkpt lat="43.42734" lon="-1.60296">
        <ele>25.2</ele>
        <time>2021-07-18T09:28:22Z</time>
      </trkpt>
      <trkpt lat="43.42731" lon="-1.60298">
        <ele>25.4</ele>
        <time>2021-07-18T09:28:23Z</time>
      </trkpt>
      <trkpt lat="43.4273" lon="-1.60299">
        <ele>25.4</ele>
        <time>2021-07-18T09:28:24Z</time>
      </trkpt>
      <trkpt lat="43.42726" lon="-1.60303">
        <ele>25.6</ele>
        <time>2021-07-18T09:28:26Z</time>
      </trkpt>
      <trkpt lat="43.42725" lon="-1.60305">
        <ele>25.7</ele>
        <time>2021-07-18T09:28:27Z</time>
      </trkpt>
      <trkpt lat="43.42724" lon="-1.60306">
        <ele>25.8</ele>
        <time>2021-07-18T09:28:28Z</time>
      </trkpt>
      <trkpt lat="43.42721" lon="-1.60311">
        <ele>26</ele>
        <time>2021-07-18T09:28:30Z</time>
      </trkpt>
      <trkpt lat="43.4272" lon="-1.60312">
        <ele>26</ele>
        <time>2021-07-18T09:28:31Z</time>
      </trkpt>
      <trkpt lat="43.42718" lon="-1.60314">
        <ele>26.1</ele>
        <time>2021-07-18T09:28:32Z</time>
      </trkpt>
      <trkpt lat="43.42717" lon="-1.60316">
        <ele>26.2</ele>
        <time>2021-07-18T09:28:33Z</time>
      </trkpt>
      <trkpt lat="43.42714" lon="-1.6032">
        <ele>26.4</ele>
        <time>2021-07-18T09:28:35Z</time>
      </trkpt>
      <trkpt lat="43.42713" lon="-1.60324">
        <ele>26.5</ele>
        <time>2021-07-18T09:28:36Z</time>
      </trkpt>
      <trkpt lat="43.42711" lon="-1.60329">
        <ele>26.7</ele>
        <time>2021-07-18T09:28:38Z</time>
      </trkpt>
      <trkpt lat="43.4271" lon="-1.60334">
        <ele>26.8</ele>
        <time>2021-07-18T09:28:39Z</time>
      </trkpt>
      <trkpt lat="43.42709" lon="-1.60336">
        <ele>26.9</ele>
        <time>2021-07-18T09:28:40Z</time>
      </trkpt>
      <trkpt lat="43.42708" lon="-1.60341">
        <ele>27.1</ele>
        <time>2021-07-18T09:28:42Z</time>
      </trkpt>
      <trkpt lat="43.42707" lon="-1.60343">
        <ele>27.2</ele>
        <time>2021-07-18T09:28:43Z</time>
      </trkpt>
      <trkpt lat="43.42706" lon="-1.60347">
        <ele>27.3</ele>
        <time>2021-07-18T09:28:44Z</time>
      </trkpt>
      <trkpt lat="43.42706" lon="-1.60351">
        <ele>27.4</ele>
        <time>2021-07-18T09:28:45Z</time>
      </trkpt>
      <trkpt lat="43.42705" lon="-1.60355">
        <ele>27.5</ele>
        <time>2021-07-18T09:28:47Z</time>
      </trkpt>
      <trkpt lat="43.42705" lon="-1.60359">
        <ele>27.6</ele>
        <time>2021-07-18T09:28:48Z</time>
      </trkpt>
      <trkpt lat="43.42705" lon="-1.60364">
        <ele>27.8</ele>
        <time>2021-07-18T09:28:50Z</time>
      </trkpt>
      <trkpt lat="43.42708" lon="-1.60368">
        <ele>27.9</ele>
        <time>2021-07-18T09:28:51Z</time>
      </trkpt>
      <trkpt lat="43.42709" lon="-1.60368">
        <ele>28</ele>
        <time>2021-07-18T09:28:52Z</time>
      </trkpt>
      <trkpt lat="43.42712" lon="-1.60373">
        <ele>28.2</ele>
        <time>2021-07-18T09:28:54Z</time>
      </trkpt>
      <trkpt lat="43.42713" lon="-1.60376">
        <ele>28.3</ele>
        <time>2021-07-18T09:28:55Z</time>
      </trkpt>
      <trkpt lat="43.42715" lon="-1.60383">
        <ele>28.6</ele>
        <time>2021-07-18T09:28:57Z</time>
      </trkpt>
      <trkpt lat="43.42717" lon="-1.60388">
        <ele>29.6</ele>
        <time>2021-07-18T09:28:59Z</time>
      </trkpt>
      <trkpt lat="43.42719" lon="-1.60393">
        <ele>29.6</ele>
        <time>2021-07-18T09:29:00Z</time>
      </trkpt>
      <trkpt lat="43.42719" lon="-1.60396">
        <ele>29.7</ele>
        <time>2021-07-18T09:29:01Z</time>
      </trkpt>
      <trkpt lat="43.4272" lon="-1.60401">
        <ele>29.7</ele>
        <time>2021-07-18T09:29:03Z</time>
      </trkpt>
      <trkpt lat="43.4272" lon="-1.60405">
        <ele>29.7</ele>
        <time>2021-07-18T09:29:04Z</time>
      </trkpt>
      <trkpt lat="43.42721" lon="-1.60409">
        <ele>29.8</ele>
        <time>2021-07-18T09:29:05Z</time>
      </trkpt>
      <trkpt lat="43.42722" lon="-1.6041">
        <ele>29.8</ele>
        <time>2021-07-18T09:29:06Z</time>
      </trkpt>
      <trkpt lat="43.42724" lon="-1.6041">
        <ele>29.9</ele>
        <time>2021-07-18T09:29:07Z</time>
      </trkpt>
      <trkpt lat="43.42725" lon="-1.60415">
        <ele>29.9</ele>
        <time>2021-07-18T09:29:09Z</time>
      </trkpt>
      <trkpt lat="43.42728" lon="-1.60418">
        <ele>30</ele>
        <time>2021-07-18T09:29:10Z</time>
      </trkpt>
      <trkpt lat="43.42729" lon="-1.60419">
        <ele>30.1</ele>
        <time>2021-07-18T09:29:11Z</time>
      </trkpt>
      <trkpt lat="43.42731" lon="-1.6042">
        <ele>30.1</ele>
        <time>2021-07-18T09:29:12Z</time>
      </trkpt>
      <trkpt lat="43.42735" lon="-1.60423">
        <ele>30.2</ele>
        <time>2021-07-18T09:29:14Z</time>
      </trkpt>
      <trkpt lat="43.42737" lon="-1.60425">
        <ele>30.3</ele>
        <time>2021-07-18T09:29:15Z</time>
      </trkpt>
      <trkpt lat="43.4274" lon="-1.60428">
        <ele>30.4</ele>
        <time>2021-07-18T09:29:17Z</time>
      </trkpt>
      <trkpt lat="43.42743" lon="-1.60429">
        <ele>30.5</ele>
        <time>2021-07-18T09:29:18Z</time>
      </trkpt>
      <trkpt lat="43.42745" lon="-1.60429">
        <ele>30.6</ele>
        <time>2021-07-18T09:29:19Z</time>
      </trkpt>
      <trkpt lat="43.42748" lon="-1.60431">
        <ele>30.8</ele>
        <time>2021-07-18T09:29:21Z</time>
      </trkpt>
      <trkpt lat="43.42751" lon="-1.60432">
        <ele>31.1</ele>
        <time>2021-07-18T09:29:23Z</time>
      </trkpt>
      <trkpt lat="43.42754" lon="-1.60429">
        <ele>31.3</ele>
        <time>2021-07-18T09:29:24Z</time>
      </trkpt>
      <trkpt lat="43.42758" lon="-1.60428">
        <ele>31.5</ele>
        <time>2021-07-18T09:29:26Z</time>
      </trkpt>
      <trkpt lat="43.42761" lon="-1.60428">
        <ele>31.7</ele>
        <time>2021-07-18T09:29:28Z</time>
      </trkpt>
      <trkpt lat="43.42764" lon="-1.60428">
        <ele>31.9</ele>
        <time>2021-07-18T09:29:29Z</time>
      </trkpt>
      <trkpt lat="43.42766" lon="-1.60427">
        <ele>32</ele>
        <time>2021-07-18T09:29:30Z</time>
      </trkpt>
      <trkpt lat="43.42769" lon="-1.60427">
        <ele>32.2</ele>
        <time>2021-07-18T09:29:32Z</time>
      </trkpt>
      <trkpt lat="43.42772" lon="-1.60427">
        <ele>32.4</ele>
        <time>2021-07-18T09:29:33Z</time>
      </trkpt>
      <trkpt lat="43.42775" lon="-1.60425">
        <ele>32.5</ele>
        <time>2021-07-18T09:29:35Z</time>
      </trkpt>
      <trkpt lat="43.42777" lon="-1.60423">
        <ele>32.7</ele>
        <time>2021-07-18T09:29:36Z</time>
      </trkpt>
      <trkpt lat="43.4278" lon="-1.60422">
        <ele>32.9</ele>
        <time>2021-07-18T09:29:38Z</time>
      </trkpt>
      <trkpt lat="43.42784" lon="-1.60422">
        <ele>33.1</ele>
        <time>2021-07-18T09:29:39Z</time>
      </trkpt>
      <trkpt lat="43.42785" lon="-1.60421">
        <ele>33.1</ele>
        <time>2021-07-18T09:29:40Z</time>
      </trkpt>
      <trkpt lat="43.42788" lon="-1.6042">
        <ele>33.3</ele>
        <time>2021-07-18T09:29:41Z</time>
      </trkpt>
      <trkpt lat="43.42789" lon="-1.6042">
        <ele>33.4</ele>
        <time>2021-07-18T09:29:42Z</time>
      </trkpt>
      <trkpt lat="43.42792" lon="-1.60418">
        <ele>33.6</ele>
        <time>2021-07-18T09:29:44Z</time>
      </trkpt>
      <trkpt lat="43.42794" lon="-1.60417">
        <ele>33.7</ele>
        <time>2021-07-18T09:29:45Z</time>
      </trkpt>
      <trkpt lat="43.42799" lon="-1.60417">
        <ele>33.9</ele>
        <time>2021-07-18T09:29:47Z</time>
      </trkpt>
      <trkpt lat="43.42802" lon="-1.60417">
        <ele>34.1</ele>
        <time>2021-07-18T09:29:49Z</time>
      </trkpt>
      <trkpt lat="43.42805" lon="-1.60418">
        <ele>34.3</ele>
        <time>2021-07-18T09:29:50Z</time>
      </trkpt>
      <trkpt lat="43.42806" lon="-1.60418">
        <ele>34.3</ele>
        <time>2021-07-18T09:29:51Z</time>
      </trkpt>
      <trkpt lat="43.4281" lon="-1.60417">
        <ele>34.5</ele>
        <time>2021-07-18T09:29:53Z</time>
      </trkpt>
      <trkpt lat="43.42814" lon="-1.60416">
        <ele>34.7</ele>
        <time>2021-07-18T09:29:54Z</time>
      </trkpt>
      <trkpt lat="43.42815" lon="-1.60415">
        <ele>34.7</ele>
        <time>2021-07-18T09:29:55Z</time>
      </trkpt>
      <trkpt lat="43.42819" lon="-1.60414">
        <ele>34.9</ele>
        <time>2021-07-18T09:29:57Z</time>
      </trkpt>
      <trkpt lat="43.4282" lon="-1.60414">
        <ele>35</ele>
        <time>2021-07-18T09:29:58Z</time>
      </trkpt>
      <trkpt lat="43.4282" lon="-1.60413">
        <ele>35.1</ele>
        <time>2021-07-18T09:30:00Z</time>
      </trkpt>
      <trkpt lat="43.42819" lon="-1.60411">
        <ele>35.1</ele>
        <time>2021-07-18T09:30:02Z</time>
      </trkpt>
      <trkpt lat="43.42821" lon="-1.60407">
        <ele>35.2</ele>
        <time>2021-07-18T09:30:04Z</time>
      </trkpt>
      <trkpt lat="43.42824" lon="-1.60406">
        <ele>35.3</ele>
        <time>2021-07-18T09:30:05Z</time>
      </trkpt>
      <trkpt lat="43.42826" lon="-1.60405">
        <ele>35.5</ele>
        <time>2021-07-18T09:30:06Z</time>
      </trkpt>
      <trkpt lat="43.42831" lon="-1.604">
        <ele>35.5</ele>
        <time>2021-07-18T09:30:08Z</time>
      </trkpt>
      <trkpt lat="43.42833" lon="-1.60398">
        <ele>35.6</ele>
        <time>2021-07-18T09:30:09Z</time>
      </trkpt>
      <trkpt lat="43.42837" lon="-1.60391">
        <ele>35.6</ele>
        <time>2021-07-18T09:30:11Z</time>
      </trkpt>
      <trkpt lat="43.42839" lon="-1.60387">
        <ele>35.6</ele>
        <time>2021-07-18T09:30:12Z</time>
      </trkpt>
      <trkpt lat="43.42843" lon="-1.60382">
        <ele>35.7</ele>
        <time>2021-07-18T09:30:14Z</time>
      </trkpt>
      <trkpt lat="43.42846" lon="-1.60378">
        <ele>35.7</ele>
        <time>2021-07-18T09:30:15Z</time>
      </trkpt>
      <trkpt lat="43.4285" lon="-1.60373">
        <ele>35.8</ele>
        <time>2021-07-18T09:30:17Z</time>
      </trkpt>
      <trkpt lat="43.42854" lon="-1.60369">
        <ele>35.9</ele>
        <time>2021-07-18T09:30:18Z</time>
      </trkpt>
      <trkpt lat="43.42858" lon="-1.60363">
        <ele>36</ele>
        <time>2021-07-18T09:30:20Z</time>
      </trkpt>
      <trkpt lat="43.42861" lon="-1.60359">
        <ele>36.1</ele>
        <time>2021-07-18T09:30:21Z</time>
      </trkpt>
      <trkpt lat="43.42866" lon="-1.60352">
        <ele>36.3</ele>
        <time>2021-07-18T09:30:23Z</time>
      </trkpt>
      <trkpt lat="43.42871" lon="-1.60347">
        <ele>36.4</ele>
        <time>2021-07-18T09:30:25Z</time>
      </trkpt>
      <trkpt lat="43.42874" lon="-1.60344">
        <ele>36.5</ele>
        <time>2021-07-18T09:30:26Z</time>
      </trkpt>
      <trkpt lat="43.42876" lon="-1.6034">
        <ele>36.5</ele>
        <time>2021-07-18T09:30:27Z</time>
      </trkpt>
      <trkpt lat="43.42881" lon="-1.60334">
        <ele>36.6</ele>
        <time>2021-07-18T09:30:29Z</time>
      </trkpt>
      <trkpt lat="43.42884" lon="-1.60326">
        <ele>36.6</ele>
        <time>2021-07-18T09:30:31Z</time>
      </trkpt>
      <trkpt lat="43.4289" lon="-1.60319">
        <ele>36.7</ele>
        <time>2021-07-18T09:30:33Z</time>
      </trkpt>
      <trkpt lat="43.42892" lon="-1.60316">
        <ele>36.7</ele>
        <time>2021-07-18T09:30:34Z</time>
      </trkpt>
      <trkpt lat="43.42896" lon="-1.6031">
        <ele>36.6</ele>
        <time>2021-07-18T09:30:36Z</time>
      </trkpt>
      <trkpt lat="43.42901" lon="-1.60306">
        <ele>36.6</ele>
        <time>2021-07-18T09:30:37Z</time>
      </trkpt>
      <trkpt lat="43.42904" lon="-1.60303">
        <ele>36.6</ele>
        <time>2021-07-18T09:30:38Z</time>
      </trkpt>
      <trkpt lat="43.42909" lon="-1.60296">
        <ele>36.5</ele>
        <time>2021-07-18T09:30:40Z</time>
      </trkpt>
      <trkpt lat="43.42913" lon="-1.6029">
        <ele>36.4</ele>
        <time>2021-07-18T09:30:41Z</time>
      </trkpt>
      <trkpt lat="43.42919" lon="-1.60283">
        <ele>36.2</ele>
        <time>2021-07-18T09:30:43Z</time>
      </trkpt>
      <trkpt lat="43.42922" lon="-1.6028">
        <ele>36.1</ele>
        <time>2021-07-18T09:30:44Z</time>
      </trkpt>
      <trkpt lat="43.42926" lon="-1.60276">
        <ele>35.9</ele>
        <time>2021-07-18T09:30:45Z</time>
      </trkpt>
      <trkpt lat="43.42933" lon="-1.60266">
        <ele>35.3</ele>
        <time>2021-07-18T09:30:47Z</time>
      </trkpt>
      <trkpt lat="43.42937" lon="-1.60262">
        <ele>34.9</ele>
        <time>2021-07-18T09:30:48Z</time>
      </trkpt>
      <trkpt lat="43.42942" lon="-1.60258">
        <ele>34.5</ele>
        <time>2021-07-18T09:30:49Z</time>
      </trkpt>
      <trkpt lat="43.42947" lon="-1.60254">
        <ele>34</ele>
        <time>2021-07-18T09:30:50Z</time>
      </trkpt>
      <trkpt lat="43.42959" lon="-1.60245">
        <ele>33</ele>
        <time>2021-07-18T09:30:52Z</time>
      </trkpt>
      <trkpt lat="43.42964" lon="-1.60241">
        <ele>32.4</ele>
        <time>2021-07-18T09:30:53Z</time>
      </trkpt>
      <trkpt lat="43.42974" lon="-1.60235">
        <ele>31.2</ele>
        <time>2021-07-18T09:30:55Z</time>
      </trkpt>
      <trkpt lat="43.42981" lon="-1.6023">
        <ele>30.1</ele>
        <time>2021-07-18T09:30:57Z</time>
      </trkpt>
      <trkpt lat="43.42985" lon="-1.60228">
        <ele>29.5</ele>
        <time>2021-07-18T09:30:58Z</time>
      </trkpt>
      <trkpt lat="43.42987" lon="-1.60224">
        <ele>29.1</ele>
        <time>2021-07-18T09:30:59Z</time>
      </trkpt>
      <trkpt lat="43.42986" lon="-1.60217">
        <ele>28.2</ele>
        <time>2021-07-18T09:31:00Z</time>
      </trkpt>
      <trkpt lat="43.42987" lon="-1.60201">
        <ele>26.5</ele>
        <time>2021-07-18T09:31:02Z</time>
      </trkpt>
      <trkpt lat="43.42985" lon="-1.60193">
        <ele>25.5</ele>
        <time>2021-07-18T09:31:03Z</time>
      </trkpt>
      <trkpt lat="43.42982" lon="-1.60174">
        <ele>23.5</ele>
        <time>2021-07-18T09:31:05Z</time>
      </trkpt>
      <trkpt lat="43.4298" lon="-1.60164">
        <ele>22.6</ele>
        <time>2021-07-18T09:31:06Z</time>
      </trkpt>
      <trkpt lat="43.42976" lon="-1.60145">
        <ele>20.8</ele>
        <time>2021-07-18T09:31:08Z</time>
      </trkpt>
      <trkpt lat="43.42972" lon="-1.60122">
        <ele>18.7</ele>
        <time>2021-07-18T09:31:10Z</time>
      </trkpt>
      <trkpt lat="43.42968" lon="-1.601">
        <ele>17.4</ele>
        <time>2021-07-18T09:31:12Z</time>
      </trkpt>
      <trkpt lat="43.42967" lon="-1.60089">
        <ele>16.8</ele>
        <time>2021-07-18T09:31:13Z</time>
      </trkpt>
      <trkpt lat="43.42966" lon="-1.60068">
        <ele>15.8</ele>
        <time>2021-07-18T09:31:15Z</time>
      </trkpt>
      <trkpt lat="43.42966" lon="-1.60058">
        <ele>15.3</ele>
        <time>2021-07-18T09:31:16Z</time>
      </trkpt>
      <trkpt lat="43.42967" lon="-1.60041">
        <ele>14.5</ele>
        <time>2021-07-18T09:31:18Z</time>
      </trkpt>
      <trkpt lat="43.42968" lon="-1.60028">
        <ele>13.3</ele>
        <time>2021-07-18T09:31:20Z</time>
      </trkpt>
      <trkpt lat="43.42967" lon="-1.60025">
        <ele>13.2</ele>
        <time>2021-07-18T09:31:21Z</time>
      </trkpt>
      <trkpt lat="43.42966" lon="-1.6002">
        <ele>13.1</ele>
        <time>2021-07-18T09:31:23Z</time>
      </trkpt>
      <trkpt lat="43.42967" lon="-1.60019">
        <ele>13</ele>
        <time>2021-07-18T09:31:25Z</time>
      </trkpt>
      <trkpt lat="43.42967" lon="-1.60016">
        <ele>12.9</ele>
        <time>2021-07-18T09:31:27Z</time>
      </trkpt>
      <trkpt lat="43.42967" lon="-1.60016">
        <ele>12.9</ele>
        <time>2021-07-18T09:31:28Z</time>
      </trkpt>
      <trkpt lat="43.42968" lon="-1.60016">
        <ele>12.9</ele>
        <time>2021-07-18T09:31:30Z</time>
      </trkpt>
      <trkpt lat="43.42969" lon="-1.60017">
        <ele>12.8</ele>
        <time>2021-07-18T09:31:32Z</time>
      </trkpt>
      <trkpt lat="43.42969" lon="-1.60018">
        <ele>12.8</ele>
        <time>2021-07-18T09:31:33Z</time>
      </trkpt>
      <trkpt lat="43.4297" lon="-1.6002">
        <ele>12.7</ele>
        <time>2021-07-18T09:31:34Z</time>
      </trkpt>
      <trkpt lat="43.4297" lon="-1.60024">
        <ele>12.6</ele>
        <time>2021-07-18T09:31:36Z</time>
      </trkpt>
      <trkpt lat="43.42971" lon="-1.60025">
        <ele>12.6</ele>
        <time>2021-07-18T09:31:38Z</time>
      </trkpt>
      <trkpt lat="43.42972" lon="-1.60024">
        <ele>12.5</ele>
        <time>2021-07-18T09:31:39Z</time>
      </trkpt>
      <trkpt lat="43.42973" lon="-1.6002">
        <ele>12.4</ele>
        <time>2021-07-18T09:31:41Z</time>
      </trkpt>
      <trkpt lat="43.42974" lon="-1.60015">
        <ele>12.2</ele>
        <time>2021-07-18T09:31:43Z</time>
      </trkpt>
      <trkpt lat="43.42978" lon="-1.60011">
        <ele>12</ele>
        <time>2021-07-18T09:31:44Z</time>
      </trkpt>
      <trkpt lat="43.42983" lon="-1.60007">
        <ele>11.8</ele>
        <time>2021-07-18T09:31:46Z</time>
      </trkpt>
      <trkpt lat="43.42987" lon="-1.60003">
        <ele>11.6</ele>
        <time>2021-07-18T09:31:47Z</time>
      </trkpt>
      <trkpt lat="43.4299" lon="-1.59997">
        <ele>11.4</ele>
        <time>2021-07-18T09:31:48Z</time>
      </trkpt>
      <trkpt lat="43.42994" lon="-1.59986">
        <ele>11</ele>
        <time>2021-07-18T09:31:49Z</time>
      </trkpt>
      <trkpt lat="43.43002" lon="-1.59976">
        <ele>10.6</ele>
        <time>2021-07-18T09:31:51Z</time>
      </trkpt>
      <trkpt lat="43.43005" lon="-1.59971">
        <ele>10.4</ele>
        <time>2021-07-18T09:31:52Z</time>
      </trkpt>
      <trkpt lat="43.4301" lon="-1.59973">
        <ele>10.2</ele>
        <time>2021-07-18T09:31:54Z</time>
      </trkpt>
      <trkpt lat="43.43013" lon="-1.5997">
        <ele>10</ele>
        <time>2021-07-18T09:31:55Z</time>
      </trkpt>
      <trkpt lat="43.43016" lon="-1.59962">
        <ele>9.7</ele>
        <time>2021-07-18T09:31:56Z</time>
      </trkpt>
      <trkpt lat="43.4302" lon="-1.59956">
        <ele>9.4</ele>
        <time>2021-07-18T09:31:58Z</time>
      </trkpt>
      <trkpt lat="43.43025" lon="-1.5995">
        <ele>9.1</ele>
        <time>2021-07-18T09:31:59Z</time>
      </trkpt>
      <trkpt lat="43.43029" lon="-1.59943">
        <ele>8.8</ele>
        <time>2021-07-18T09:32:00Z</time>
      </trkpt>
      <trkpt lat="43.43031" lon="-1.59936">
        <ele>8.6</ele>
        <time>2021-07-18T09:32:02Z</time>
      </trkpt>
      <trkpt lat="43.43034" lon="-1.59932">
        <ele>8.4</ele>
        <time>2021-07-18T09:32:03Z</time>
      </trkpt>
      <trkpt lat="43.43042" lon="-1.59932">
        <ele>7.8</ele>
        <time>2021-07-18T09:32:05Z</time>
      </trkpt>
      <trkpt lat="43.4305" lon="-1.59933">
        <ele>7.4</ele>
        <time>2021-07-18T09:32:06Z</time>
      </trkpt>
      <trkpt lat="43.43059" lon="-1.59925">
        <ele>6.9</ele>
        <time>2021-07-18T09:32:08Z</time>
      </trkpt>
      <trkpt lat="43.43063" lon="-1.5992">
        <ele>6.8</ele>
        <time>2021-07-18T09:32:09Z</time>
      </trkpt>
      <trkpt lat="43.43069" lon="-1.59911">
        <ele>6.8</ele>
        <time>2021-07-18T09:32:11Z</time>
      </trkpt>
      <trkpt lat="43.43073" lon="-1.59905">
        <ele>6.7</ele>
        <time>2021-07-18T09:32:12Z</time>
      </trkpt>
      <trkpt lat="43.43079" lon="-1.59894">
        <ele>6.7</ele>
        <time>2021-07-18T09:32:14Z</time>
      </trkpt>
      <trkpt lat="43.43082" lon="-1.59889">
        <ele>6.7</ele>
        <time>2021-07-18T09:32:16Z</time>
      </trkpt>
      <trkpt lat="43.43083" lon="-1.5989">
        <ele>6.7</ele>
        <time>2021-07-18T09:32:17Z</time>
      </trkpt>
      <trkpt lat="43.43081" lon="-1.59895">
        <ele>6.7</ele>
        <time>2021-07-18T09:32:19Z</time>
      </trkpt>
      <trkpt lat="43.43079" lon="-1.59898">
        <ele>6.7</ele>
        <time>2021-07-18T09:32:20Z</time>
      </trkpt>
      <trkpt lat="43.43078" lon="-1.599">
        <ele>6.7</ele>
        <time>2021-07-18T09:32:21Z</time>
      </trkpt>
      <trkpt lat="43.43078" lon="-1.59908">
        <ele>6.3</ele>
        <time>2021-07-18T09:32:23Z</time>
      </trkpt>
      <trkpt lat="43.43079" lon="-1.59914">
        <ele>6.2</ele>
        <time>2021-07-18T09:32:25Z</time>
      </trkpt>
      <trkpt lat="43.43081" lon="-1.59916">
        <ele>6.2</ele>
        <time>2021-07-18T09:32:26Z</time>
      </trkpt>
      <trkpt lat="43.43083" lon="-1.59909">
        <ele>6.1</ele>
        <time>2021-07-18T09:32:28Z</time>
      </trkpt>
      <trkpt lat="43.43087" lon="-1.59905">
        <ele>6</ele>
        <time>2021-07-18T09:32:30Z</time>
      </trkpt>
      <trkpt lat="43.4309" lon="-1.59902">
        <ele>6</ele>
        <time>2021-07-18T09:32:31Z</time>
      </trkpt>
      <trkpt lat="43.43093" lon="-1.59896">
        <ele>6</ele>
        <time>2021-07-18T09:32:33Z</time>
      </trkpt>
      <trkpt lat="43.43096" lon="-1.5989">
        <ele>5.9</ele>
        <time>2021-07-18T09:32:34Z</time>
      </trkpt>
      <trkpt lat="43.43099" lon="-1.59885">
        <ele>5.9</ele>
        <time>2021-07-18T09:32:35Z</time>
      </trkpt>
      <trkpt lat="43.43101" lon="-1.59881">
        <ele>5.9</ele>
        <time>2021-07-18T09:32:36Z</time>
      </trkpt>
      <trkpt lat="43.43103" lon="-1.59873">
        <ele>5.9</ele>
        <time>2021-07-18T09:32:38Z</time>
      </trkpt>
      <trkpt lat="43.43104" lon="-1.59866">
        <ele>5.9</ele>
        <time>2021-07-18T09:32:39Z</time>
      </trkpt>
      <trkpt lat="43.43106" lon="-1.5986">
        <ele>5.9</ele>
        <time>2021-07-18T09:32:40Z</time>
      </trkpt>
      <trkpt lat="43.43107" lon="-1.59855">
        <ele>6</ele>
        <time>2021-07-18T09:32:41Z</time>
      </trkpt>
      <trkpt lat="43.4311" lon="-1.59847">
        <ele>6.1</ele>
        <time>2021-07-18T09:32:43Z</time>
      </trkpt>
      <trkpt lat="43.43113" lon="-1.59841">
        <ele>6.1</ele>
        <time>2021-07-18T09:32:44Z</time>
      </trkpt>
      <trkpt lat="43.43115" lon="-1.59835">
        <ele>6.2</ele>
        <time>2021-07-18T09:32:45Z</time>
      </trkpt>
      <trkpt lat="43.43118" lon="-1.59831">
        <ele>6.2</ele>
        <time>2021-07-18T09:32:46Z</time>
      </trkpt>
      <trkpt lat="43.43121" lon="-1.59823">
        <ele>6.3</ele>
        <time>2021-07-18T09:32:48Z</time>
      </trkpt>
      <trkpt lat="43.43123" lon="-1.59818">
        <ele>6.3</ele>
        <time>2021-07-18T09:32:49Z</time>
      </trkpt>
      <trkpt lat="43.43126" lon="-1.59811">
        <ele>6.3</ele>
        <time>2021-07-18T09:32:51Z</time>
      </trkpt>
      <trkpt lat="43.43129" lon="-1.59807">
        <ele>6.3</ele>
        <time>2021-07-18T09:32:52Z</time>
      </trkpt>
      <trkpt lat="43.4313" lon="-1.59806">
        <ele>6.3</ele>
        <time>2021-07-18T09:32:53Z</time>
      </trkpt>
      <trkpt lat="43.43134" lon="-1.59804">
        <ele>6.2</ele>
        <time>2021-07-18T09:32:55Z</time>
      </trkpt>
      <trkpt lat="43.43137" lon="-1.59803">
        <ele>6.2</ele>
        <time>2021-07-18T09:32:56Z</time>
      </trkpt>
      <trkpt lat="43.43141" lon="-1.59801">
        <ele>6.1</ele>
        <time>2021-07-18T09:32:57Z</time>
      </trkpt>
      <trkpt lat="43.43144" lon="-1.598">
        <ele>6.1</ele>
        <time>2021-07-18T09:32:58Z</time>
      </trkpt>
      <trkpt lat="43.43149" lon="-1.59798">
        <ele>5.9</ele>
        <time>2021-07-18T09:33:00Z</time>
      </trkpt>
      <trkpt lat="43.43155" lon="-1.59795">
        <ele>5.8</ele>
        <time>2021-07-18T09:33:02Z</time>
      </trkpt>
      <trkpt lat="43.43161" lon="-1.59795">
        <ele>5.7</ele>
        <time>2021-07-18T09:33:04Z</time>
      </trkpt>
      <trkpt lat="43.43165" lon="-1.59795">
        <ele>5.6</ele>
        <time>2021-07-18T09:33:05Z</time>
      </trkpt>
      <trkpt lat="43.43169" lon="-1.59795">
        <ele>5.6</ele>
        <time>2021-07-18T09:33:07Z</time>
      </trkpt>
      <trkpt lat="43.43172" lon="-1.59793">
        <ele>5.6</ele>
        <time>2021-07-18T09:33:08Z</time>
      </trkpt>
      <trkpt lat="43.43175" lon="-1.59793">
        <ele>5.6</ele>
        <time>2021-07-18T09:33:09Z</time>
      </trkpt>
      <trkpt lat="43.43177" lon="-1.59793">
        <ele>5.6</ele>
        <time>2021-07-18T09:33:11Z</time>
      </trkpt>
      <trkpt lat="43.4318" lon="-1.59791">
        <ele>5.6</ele>
        <time>2021-07-18T09:33:12Z</time>
      </trkpt>
      <trkpt lat="43.43181" lon="-1.59791">
        <ele>5.6</ele>
        <time>2021-07-18T09:33:13Z</time>
      </trkpt>
      <trkpt lat="43.43184" lon="-1.59789">
        <ele>5.6</ele>
        <time>2021-07-18T09:33:15Z</time>
      </trkpt>
      <trkpt lat="43.43185" lon="-1.59789">
        <ele>5.6</ele>
        <time>2021-07-18T09:33:16Z</time>
      </trkpt>
      <trkpt lat="43.43188" lon="-1.5979">
        <ele>5.6</ele>
        <time>2021-07-18T09:33:17Z</time>
      </trkpt>
      <trkpt lat="43.43192" lon="-1.59789">
        <ele>5.6</ele>
        <time>2021-07-18T09:33:19Z</time>
      </trkpt>
      <trkpt lat="43.43196" lon="-1.59787">
        <ele>5.6</ele>
        <time>2021-07-18T09:33:20Z</time>
      </trkpt>
      <trkpt lat="43.43199" lon="-1.59787">
        <ele>5.6</ele>
        <time>2021-07-18T09:33:22Z</time>
      </trkpt>
      <trkpt lat="43.43203" lon="-1.59787">
        <ele>5.6</ele>
        <time>2021-07-18T09:33:23Z</time>
      </trkpt>
      <trkpt lat="43.43204" lon="-1.59787">
        <ele>5.6</ele>
        <time>2021-07-18T09:33:24Z</time>
      </trkpt>
      <trkpt lat="43.43207" lon="-1.59787">
        <ele>5.6</ele>
        <time>2021-07-18T09:33:25Z</time>
      </trkpt>
      <trkpt lat="43.43208" lon="-1.59787">
        <ele>5.6</ele>
        <time>2021-07-18T09:33:26Z</time>
      </trkpt>
      <trkpt lat="43.43208" lon="-1.59785">
        <ele>5.6</ele>
        <time>2021-07-18T09:33:28Z</time>
      </trkpt>
      <trkpt lat="43.43208" lon="-1.59783">
        <ele>5.6</ele>
        <time>2021-07-18T09:33:29Z</time>
      </trkpt>
      <trkpt lat="43.43209" lon="-1.59779">
        <ele>5.7</ele>
        <time>2021-07-18T09:33:31Z</time>
      </trkpt>
      <trkpt lat="43.4321" lon="-1.59776">
        <ele>5.7</ele>
        <time>2021-07-18T09:33:32Z</time>
      </trkpt>
      <trkpt lat="43.43211" lon="-1.59772">
        <ele>5.7</ele>
        <time>2021-07-18T09:33:34Z</time>
      </trkpt>
      <trkpt lat="43.43211" lon="-1.59767">
        <ele>5.8</ele>
        <time>2021-07-18T09:33:35Z</time>
      </trkpt>
      <trkpt lat="43.43212" lon="-1.59765">
        <ele>5.8</ele>
        <time>2021-07-18T09:33:36Z</time>
      </trkpt>
      <trkpt lat="43.43212" lon="-1.59762">
        <ele>5.8</ele>
        <time>2021-07-18T09:33:37Z</time>
      </trkpt>
      <trkpt lat="43.43213" lon="-1.59755">
        <ele>5.9</ele>
        <time>2021-07-18T09:33:39Z</time>
      </trkpt>
      <trkpt lat="43.43215" lon="-1.5975">
        <ele>6</ele>
        <time>2021-07-18T09:33:41Z</time>
      </trkpt>
      <trkpt lat="43.43217" lon="-1.59747">
        <ele>6</ele>
        <time>2021-07-18T09:33:42Z</time>
      </trkpt>
      <trkpt lat="43.43218" lon="-1.59744">
        <ele>6</ele>
        <time>2021-07-18T09:33:44Z</time>
      </trkpt>
      <trkpt lat="43.43219" lon="-1.5974">
        <ele>6</ele>
        <time>2021-07-18T09:33:45Z</time>
      </trkpt>
      <trkpt lat="43.4322" lon="-1.59734">
        <ele>6.1</ele>
        <time>2021-07-18T09:33:47Z</time>
      </trkpt>
      <trkpt lat="43.43221" lon="-1.59732">
        <ele>6.1</ele>
        <time>2021-07-18T09:33:48Z</time>
      </trkpt>
      <trkpt lat="43.43222" lon="-1.5973">
        <ele>6.1</ele>
        <time>2021-07-18T09:33:49Z</time>
      </trkpt>
      <trkpt lat="43.43224" lon="-1.59726">
        <ele>6.1</ele>
        <time>2021-07-18T09:33:51Z</time>
      </trkpt>
      <trkpt lat="43.43226" lon="-1.59721">
        <ele>6.2</ele>
        <time>2021-07-18T09:33:52Z</time>
      </trkpt>
      <trkpt lat="43.43231" lon="-1.59715">
        <ele>6.2</ele>
        <time>2021-07-18T09:33:54Z</time>
      </trkpt>
      <trkpt lat="43.43233" lon="-1.59712">
        <ele>6.2</ele>
        <time>2021-07-18T09:33:55Z</time>
      </trkpt>
      <trkpt lat="43.43235" lon="-1.5971">
        <ele>6.3</ele>
        <time>2021-07-18T09:33:56Z</time>
      </trkpt>
      <trkpt lat="43.43239" lon="-1.59708">
        <ele>6.3</ele>
        <time>2021-07-18T09:33:57Z</time>
      </trkpt>
      <trkpt lat="43.43243" lon="-1.59708">
        <ele>6.4</ele>
        <time>2021-07-18T09:33:59Z</time>
      </trkpt>
      <trkpt lat="43.43247" lon="-1.59709">
        <ele>6.4</ele>
        <time>2021-07-18T09:34:00Z</time>
      </trkpt>
      <trkpt lat="43.43252" lon="-1.5971">
        <ele>6.5</ele>
        <time>2021-07-18T09:34:02Z</time>
      </trkpt>
      <trkpt lat="43.43256" lon="-1.59712">
        <ele>6.5</ele>
        <time>2021-07-18T09:34:03Z</time>
      </trkpt>
      <trkpt lat="43.43259" lon="-1.59712">
        <ele>6.6</ele>
        <time>2021-07-18T09:34:04Z</time>
      </trkpt>
      <trkpt lat="43.43265" lon="-1.59714">
        <ele>6.7</ele>
        <time>2021-07-18T09:34:06Z</time>
      </trkpt>
      <trkpt lat="43.4327" lon="-1.59716">
        <ele>6.7</ele>
        <time>2021-07-18T09:34:08Z</time>
      </trkpt>
      <trkpt lat="43.43273" lon="-1.59717">
        <ele>6.8</ele>
        <time>2021-07-18T09:34:09Z</time>
      </trkpt>
      <trkpt lat="43.43277" lon="-1.59718">
        <ele>6.8</ele>
        <time>2021-07-18T09:34:10Z</time>
      </trkpt>
      <trkpt lat="43.4328" lon="-1.59719">
        <ele>6.9</ele>
        <time>2021-07-18T09:34:11Z</time>
      </trkpt>
      <trkpt lat="43.43286" lon="-1.59721">
        <ele>7</ele>
        <time>2021-07-18T09:34:13Z</time>
      </trkpt>
      <trkpt lat="43.43289" lon="-1.59723">
        <ele>7</ele>
        <time>2021-07-18T09:34:14Z</time>
      </trkpt>
      <trkpt lat="43.43292" lon="-1.59725">
        <ele>7.1</ele>
        <time>2021-07-18T09:34:15Z</time>
      </trkpt>
      <trkpt lat="43.43298" lon="-1.59727">
        <ele>7.2</ele>
        <time>2021-07-18T09:34:17Z</time>
      </trkpt>
      <trkpt lat="43.43301" lon="-1.59727">
        <ele>7.3</ele>
        <time>2021-07-18T09:34:18Z</time>
      </trkpt>
      <trkpt lat="43.43307" lon="-1.59729">
        <ele>7.4</ele>
        <time>2021-07-18T09:34:20Z</time>
      </trkpt>
      <trkpt lat="43.43312" lon="-1.59727">
        <ele>7.6</ele>
        <time>2021-07-18T09:34:22Z</time>
      </trkpt>
      <trkpt lat="43.43315" lon="-1.59726">
        <ele>7.6</ele>
        <time>2021-07-18T09:34:23Z</time>
      </trkpt>
      <trkpt lat="43.43317" lon="-1.59725">
        <ele>7.7</ele>
        <time>2021-07-18T09:34:25Z</time>
      </trkpt>
      <trkpt lat="43.43319" lon="-1.59721">
        <ele>7.8</ele>
        <time>2021-07-18T09:34:26Z</time>
      </trkpt>
      <trkpt lat="43.43319" lon="-1.59719">
        <ele>7.9</ele>
        <time>2021-07-18T09:34:27Z</time>
      </trkpt>
      <trkpt lat="43.4332" lon="-1.59716">
        <ele>7.9</ele>
        <time>2021-07-18T09:34:28Z</time>
      </trkpt>
      <trkpt lat="43.4332" lon="-1.59709">
        <ele>8</ele>
        <time>2021-07-18T09:34:30Z</time>
      </trkpt>
      <trkpt lat="43.43322" lon="-1.59705">
        <ele>8.1</ele>
        <time>2021-07-18T09:34:32Z</time>
      </trkpt>
      <trkpt lat="43.43324" lon="-1.59701">
        <ele>8.2</ele>
        <time>2021-07-18T09:34:33Z</time>
      </trkpt>
      <trkpt lat="43.43326" lon="-1.59699">
        <ele>8.2</ele>
        <time>2021-07-18T09:34:34Z</time>
      </trkpt>
      <trkpt lat="43.43331" lon="-1.59698">
        <ele>8.3</ele>
        <time>2021-07-18T09:34:36Z</time>
      </trkpt>
      <trkpt lat="43.43335" lon="-1.59699">
        <ele>8.4</ele>
        <time>2021-07-18T09:34:37Z</time>
      </trkpt>
      <trkpt lat="43.43339" lon="-1.59699">
        <ele>8.5</ele>
        <time>2021-07-18T09:34:38Z</time>
      </trkpt>
      <trkpt lat="43.4334" lon="-1.59699">
        <ele>8.5</ele>
        <time>2021-07-18T09:34:39Z</time>
      </trkpt>
      <trkpt lat="43.43344" lon="-1.59698">
        <ele>8.6</ele>
        <time>2021-07-18T09:34:41Z</time>
      </trkpt>
      <trkpt lat="43.43347" lon="-1.59697">
        <ele>8.7</ele>
        <time>2021-07-18T09:34:42Z</time>
      </trkpt>
      <trkpt lat="43.4335" lon="-1.59696">
        <ele>8.7</ele>
        <time>2021-07-18T09:34:43Z</time>
      </trkpt>
      <trkpt lat="43.43353" lon="-1.59692">
        <ele>8.9</ele>
        <time>2021-07-18T09:34:45Z</time>
      </trkpt>
      <trkpt lat="43.43357" lon="-1.5969">
        <ele>9</ele>
        <time>2021-07-18T09:34:47Z</time>
      </trkpt>
      <trkpt lat="43.43359" lon="-1.59688">
        <ele>9.1</ele>
        <time>2021-07-18T09:34:48Z</time>
      </trkpt>
      <trkpt lat="43.43363" lon="-1.59687">
        <ele>9.3</ele>
        <time>2021-07-18T09:34:50Z</time>
      </trkpt>
      <trkpt lat="43.43366" lon="-1.59685">
        <ele>9.4</ele>
        <time>2021-07-18T09:34:51Z</time>
      </trkpt>
      <trkpt lat="43.43368" lon="-1.59685">
        <ele>9.5</ele>
        <time>2021-07-18T09:34:52Z</time>
      </trkpt>
      <trkpt lat="43.43373" lon="-1.59683">
        <ele>9.7</ele>
        <time>2021-07-18T09:34:54Z</time>
      </trkpt>
      <trkpt lat="43.43377" lon="-1.59681">
        <ele>10</ele>
        <time>2021-07-18T09:34:56Z</time>
      </trkpt>
      <trkpt lat="43.43381" lon="-1.59679">
        <ele>10.2</ele>
        <time>2021-07-18T09:34:58Z</time>
      </trkpt>
      <trkpt lat="43.43385" lon="-1.59677">
        <ele>10.5</ele>
        <time>2021-07-18T09:35:00Z</time>
      </trkpt>
      <trkpt lat="43.43389" lon="-1.59676">
        <ele>10.8</ele>
        <time>2021-07-18T09:35:02Z</time>
      </trkpt>
      <trkpt lat="43.43393" lon="-1.59674">
        <ele>11.1</ele>
        <time>2021-07-18T09:35:04Z</time>
      </trkpt>
      <trkpt lat="43.43396" lon="-1.59672">
        <ele>11.2</ele>
        <time>2021-07-18T09:35:05Z</time>
      </trkpt>
      <trkpt lat="43.43397" lon="-1.59672">
        <ele>11.3</ele>
        <time>2021-07-18T09:35:06Z</time>
      </trkpt>
      <trkpt lat="43.43399" lon="-1.59671">
        <ele>11.5</ele>
        <time>2021-07-18T09:35:07Z</time>
      </trkpt>
      <trkpt lat="43.43402" lon="-1.59669">
        <ele>11.7</ele>
        <time>2021-07-18T09:35:09Z</time>
      </trkpt>
      <trkpt lat="43.43406" lon="-1.59668">
        <ele>12</ele>
        <time>2021-07-18T09:35:11Z</time>
      </trkpt>
      <trkpt lat="43.43409" lon="-1.59667">
        <ele>12.3</ele>
        <time>2021-07-18T09:35:13Z</time>
      </trkpt>
      <trkpt lat="43.43412" lon="-1.59665">
        <ele>12.6</ele>
        <time>2021-07-18T09:35:15Z</time>
      </trkpt>
      <trkpt lat="43.43415" lon="-1.59664">
        <ele>12.8</ele>
        <time>2021-07-18T09:35:17Z</time>
      </trkpt>
      <trkpt lat="43.43416" lon="-1.59663">
        <ele>12.9</ele>
        <time>2021-07-18T09:35:18Z</time>
      </trkpt>
      <trkpt lat="43.43418" lon="-1.59662">
        <ele>13</ele>
        <time>2021-07-18T09:35:19Z</time>
      </trkpt>
      <trkpt lat="43.43421" lon="-1.59661">
        <ele>13.3</ele>
        <time>2021-07-18T09:35:21Z</time>
      </trkpt>
      <trkpt lat="43.43422" lon="-1.59661">
        <ele>13.4</ele>
        <time>2021-07-18T09:35:22Z</time>
      </trkpt>
      <trkpt lat="43.43424" lon="-1.5966">
        <ele>13.6</ele>
        <time>2021-07-18T09:35:23Z</time>
      </trkpt>
      <trkpt lat="43.43426" lon="-1.59659">
        <ele>13.8</ele>
        <time>2021-07-18T09:35:25Z</time>
      </trkpt>
      <trkpt lat="43.43428" lon="-1.59658">
        <ele>13.9</ele>
        <time>2021-07-18T09:35:26Z</time>
      </trkpt>
      <trkpt lat="43.43431" lon="-1.59655">
        <ele>14.2</ele>
        <time>2021-07-18T09:35:28Z</time>
      </trkpt>
      <trkpt lat="43.43433" lon="-1.59654">
        <ele>14.4</ele>
        <time>2021-07-18T09:35:29Z</time>
      </trkpt>
      <trkpt lat="43.43436" lon="-1.59652">
        <ele>14.7</ele>
        <time>2021-07-18T09:35:31Z</time>
      </trkpt>
      <trkpt lat="43.4344" lon="-1.5965">
        <ele>15</ele>
        <time>2021-07-18T09:35:33Z</time>
      </trkpt>
      <trkpt lat="43.43443" lon="-1.59648">
        <ele>15.3</ele>
        <time>2021-07-18T09:35:35Z</time>
      </trkpt>
      <trkpt lat="43.43445" lon="-1.59648">
        <ele>15.4</ele>
        <time>2021-07-18T09:35:36Z</time>
      </trkpt>
      <trkpt lat="43.43447" lon="-1.59645">
        <ele>15.7</ele>
        <time>2021-07-18T09:35:38Z</time>
      </trkpt>
      <trkpt lat="43.43449" lon="-1.59644">
        <ele>15.9</ele>
        <time>2021-07-18T09:35:39Z</time>
      </trkpt>
      <trkpt lat="43.43453" lon="-1.59642">
        <ele>16.2</ele>
        <time>2021-07-18T09:35:41Z</time>
      </trkpt>
      <trkpt lat="43.43456" lon="-1.5964">
        <ele>16.5</ele>
        <time>2021-07-18T09:35:42Z</time>
      </trkpt>
      <trkpt lat="43.43457" lon="-1.5964">
        <ele>16.6</ele>
        <time>2021-07-18T09:35:43Z</time>
      </trkpt>
      <trkpt lat="43.43459" lon="-1.59639">
        <ele>16.8</ele>
        <time>2021-07-18T09:35:44Z</time>
      </trkpt>
      <trkpt lat="43.4346" lon="-1.59638">
        <ele>16.9</ele>
        <time>2021-07-18T09:35:45Z</time>
      </trkpt>
      <trkpt lat="43.43463" lon="-1.59635">
        <ele>17.2</ele>
        <time>2021-07-18T09:35:47Z</time>
      </trkpt>
      <trkpt lat="43.43465" lon="-1.59634">
        <ele>17.4</ele>
        <time>2021-07-18T09:35:48Z</time>
      </trkpt>
      <trkpt lat="43.43468" lon="-1.59632">
        <ele>17.7</ele>
        <time>2021-07-18T09:35:50Z</time>
      </trkpt>
      <trkpt lat="43.4347" lon="-1.59631">
        <ele>17.8</ele>
        <time>2021-07-18T09:35:51Z</time>
      </trkpt>
      <trkpt lat="43.43473" lon="-1.59629">
        <ele>18</ele>
        <time>2021-07-18T09:35:53Z</time>
      </trkpt>
      <trkpt lat="43.43474" lon="-1.59628">
        <ele>18.1</ele>
        <time>2021-07-18T09:35:54Z</time>
      </trkpt>
      <trkpt lat="43.43478" lon="-1.59628">
        <ele>18.4</ele>
        <time>2021-07-18T09:35:56Z</time>
      </trkpt>
      <trkpt lat="43.43479" lon="-1.59627">
        <ele>18.5</ele>
        <time>2021-07-18T09:35:57Z</time>
      </trkpt>
      <trkpt lat="43.43483" lon="-1.59625">
        <ele>18.8</ele>
        <time>2021-07-18T09:35:59Z</time>
      </trkpt>
      <trkpt lat="43.43486" lon="-1.59622">
        <ele>19</ele>
        <time>2021-07-18T09:36:01Z</time>
      </trkpt>
      <trkpt lat="43.43487" lon="-1.59621">
        <ele>19.2</ele>
        <time>2021-07-18T09:36:02Z</time>
      </trkpt>
      <trkpt lat="43.4349" lon="-1.59619">
        <ele>19.4</ele>
        <time>2021-07-18T09:36:04Z</time>
      </trkpt>
      <trkpt lat="43.43493" lon="-1.59616">
        <ele>19.6</ele>
        <time>2021-07-18T09:36:06Z</time>
      </trkpt>
      <trkpt lat="43.43496" lon="-1.59614">
        <ele>19.8</ele>
        <time>2021-07-18T09:36:08Z</time>
      </trkpt>
      <trkpt lat="43.43497" lon="-1.59613">
        <ele>19.9</ele>
        <time>2021-07-18T09:36:09Z</time>
      </trkpt>
      <trkpt lat="43.435" lon="-1.5961">
        <ele>20.1</ele>
        <time>2021-07-18T09:36:11Z</time>
      </trkpt>
      <trkpt lat="43.43502" lon="-1.59607">
        <ele>20.2</ele>
        <time>2021-07-18T09:36:12Z</time>
      </trkpt>
      <trkpt lat="43.43503" lon="-1.59606">
        <ele>20.2</ele>
        <time>2021-07-18T09:36:13Z</time>
      </trkpt>
      <trkpt lat="43.43505" lon="-1.59604">
        <ele>20.3</ele>
        <time>2021-07-18T09:36:15Z</time>
      </trkpt>
      <trkpt lat="43.43508" lon="-1.59601">
        <ele>20.4</ele>
        <time>2021-07-18T09:36:16Z</time>
      </trkpt>
      <trkpt lat="43.43511" lon="-1.59597">
        <ele>20.4</ele>
        <time>2021-07-18T09:36:18Z</time>
      </trkpt>
      <trkpt lat="43.43513" lon="-1.59594">
        <ele>20.5</ele>
        <time>2021-07-18T09:36:19Z</time>
      </trkpt>
      <trkpt lat="43.43517" lon="-1.59588">
        <ele>20.6</ele>
        <time>2021-07-18T09:36:21Z</time>
      </trkpt>
      <trkpt lat="43.43519" lon="-1.59586">
        <ele>20.6</ele>
        <time>2021-07-18T09:36:22Z</time>
      </trkpt>
      <trkpt lat="43.43523" lon="-1.5958">
        <ele>20.7</ele>
        <time>2021-07-18T09:36:24Z</time>
      </trkpt>
      <trkpt lat="43.43527" lon="-1.59576">
        <ele>20.8</ele>
        <time>2021-07-18T09:36:26Z</time>
      </trkpt>
      <trkpt lat="43.43531" lon="-1.59572">
        <ele>20.9</ele>
        <time>2021-07-18T09:36:27Z</time>
      </trkpt>
      <trkpt lat="43.43536" lon="-1.59566">
        <ele>21</ele>
        <time>2021-07-18T09:36:29Z</time>
      </trkpt>
      <trkpt lat="43.43539" lon="-1.59561">
        <ele>21.1</ele>
        <time>2021-07-18T09:36:31Z</time>
      </trkpt>
      <trkpt lat="43.43543" lon="-1.59557">
        <ele>21.1</ele>
        <time>2021-07-18T09:36:32Z</time>
      </trkpt>
      <trkpt lat="43.43545" lon="-1.59554">
        <ele>21.2</ele>
        <time>2021-07-18T09:36:33Z</time>
      </trkpt>
      <trkpt lat="43.43547" lon="-1.59551">
        <ele>21.3</ele>
        <time>2021-07-18T09:36:34Z</time>
      </trkpt>
      <trkpt lat="43.43552" lon="-1.59544">
        <ele>21.4</ele>
        <time>2021-07-18T09:36:36Z</time>
      </trkpt>
      <trkpt lat="43.43555" lon="-1.59541">
        <ele>21.5</ele>
        <time>2021-07-18T09:36:37Z</time>
      </trkpt>
      <trkpt lat="43.43557" lon="-1.59538">
        <ele>21.5</ele>
        <time>2021-07-18T09:36:38Z</time>
      </trkpt>
      <trkpt lat="43.4356" lon="-1.59533">
        <ele>21.7</ele>
        <time>2021-07-18T09:36:40Z</time>
      </trkpt>
      <trkpt lat="43.43564" lon="-1.59528">
        <ele>21.8</ele>
        <time>2021-07-18T09:36:41Z</time>
      </trkpt>
      <trkpt lat="43.43566" lon="-1.59525">
        <ele>21.9</ele>
        <time>2021-07-18T09:36:42Z</time>
      </trkpt>
      <trkpt lat="43.43571" lon="-1.59518">
        <ele>22.1</ele>
        <time>2021-07-18T09:36:44Z</time>
      </trkpt>
      <trkpt lat="43.43574" lon="-1.59514">
        <ele>22.2</ele>
        <time>2021-07-18T09:36:46Z</time>
      </trkpt>
      <trkpt lat="43.43578" lon="-1.59509">
        <ele>22.4</ele>
        <time>2021-07-18T09:36:47Z</time>
      </trkpt>
      <trkpt lat="43.43583" lon="-1.59503">
        <ele>22.6</ele>
        <time>2021-07-18T09:36:49Z</time>
      </trkpt>
      <trkpt lat="43.43588" lon="-1.59498">
        <ele>22.8</ele>
        <time>2021-07-18T09:36:51Z</time>
      </trkpt>
      <trkpt lat="43.4359" lon="-1.59495">
        <ele>22.9</ele>
        <time>2021-07-18T09:36:52Z</time>
      </trkpt>
      <trkpt lat="43.43594" lon="-1.59488">
        <ele>23.1</ele>
        <time>2021-07-18T09:36:54Z</time>
      </trkpt>
      <trkpt lat="43.43598" lon="-1.59482">
        <ele>23.3</ele>
        <time>2021-07-18T09:36:56Z</time>
      </trkpt>
      <trkpt lat="43.43601" lon="-1.5948">
        <ele>23.5</ele>
        <time>2021-07-18T09:36:57Z</time>
      </trkpt>
      <trkpt lat="43.43605" lon="-1.59474">
        <ele>23.7</ele>
        <time>2021-07-18T09:36:59Z</time>
      </trkpt>
      <trkpt lat="43.43608" lon="-1.59471">
        <ele>23.9</ele>
        <time>2021-07-18T09:37:00Z</time>
      </trkpt>
      <trkpt lat="43.43612" lon="-1.59466">
        <ele>24.2</ele>
        <time>2021-07-18T09:37:02Z</time>
      </trkpt>
      <trkpt lat="43.43616" lon="-1.59461">
        <ele>24.4</ele>
        <time>2021-07-18T09:37:04Z</time>
      </trkpt>
      <trkpt lat="43.43618" lon="-1.59458">
        <ele>24.6</ele>
        <time>2021-07-18T09:37:05Z</time>
      </trkpt>
      <trkpt lat="43.43622" lon="-1.59454">
        <ele>24.8</ele>
        <time>2021-07-18T09:37:07Z</time>
      </trkpt>
      <trkpt lat="43.43624" lon="-1.59451">
        <ele>24.9</ele>
        <time>2021-07-18T09:37:08Z</time>
      </trkpt>
      <trkpt lat="43.43627" lon="-1.59447">
        <ele>25.1</ele>
        <time>2021-07-18T09:37:09Z</time>
      </trkpt>
      <trkpt lat="43.43631" lon="-1.59442">
        <ele>25.4</ele>
        <time>2021-07-18T09:37:11Z</time>
      </trkpt>
      <trkpt lat="43.43633" lon="-1.5944">
        <ele>25.5</ele>
        <time>2021-07-18T09:37:12Z</time>
      </trkpt>
      <trkpt lat="43.43636" lon="-1.59436">
        <ele>25.8</ele>
        <time>2021-07-18T09:37:14Z</time>
      </trkpt>
      <trkpt lat="43.43638" lon="-1.59433">
        <ele>25.9</ele>
        <time>2021-07-18T09:37:15Z</time>
      </trkpt>
      <trkpt lat="43.4364" lon="-1.5943">
        <ele>26.1</ele>
        <time>2021-07-18T09:37:16Z</time>
      </trkpt>
      <trkpt lat="43.43643" lon="-1.59427">
        <ele>26.3</ele>
        <time>2021-07-18T09:37:18Z</time>
      </trkpt>
      <trkpt lat="43.43644" lon="-1.59426">
        <ele>26.4</ele>
        <time>2021-07-18T09:37:19Z</time>
      </trkpt>
      <trkpt lat="43.43647" lon="-1.59422">
        <ele>26.6</ele>
        <time>2021-07-18T09:37:20Z</time>
      </trkpt>
      <trkpt lat="43.43648" lon="-1.59421">
        <ele>26.7</ele>
        <time>2021-07-18T09:37:21Z</time>
      </trkpt>
      <trkpt lat="43.43649" lon="-1.59419">
        <ele>26.8</ele>
        <time>2021-07-18T09:37:22Z</time>
      </trkpt>
      <trkpt lat="43.43652" lon="-1.59415">
        <ele>27.1</ele>
        <time>2021-07-18T09:37:24Z</time>
      </trkpt>
      <trkpt lat="43.43654" lon="-1.59413">
        <ele>27.3</ele>
        <time>2021-07-18T09:37:25Z</time>
      </trkpt>
      <trkpt lat="43.43656" lon="-1.5941">
        <ele>27.5</ele>
        <time>2021-07-18T09:37:27Z</time>
      </trkpt>
      <trkpt lat="43.43659" lon="-1.59407">
        <ele>27.7</ele>
        <time>2021-07-18T09:37:28Z</time>
      </trkpt>
      <trkpt lat="43.4366" lon="-1.59405">
        <ele>27.8</ele>
        <time>2021-07-18T09:37:29Z</time>
      </trkpt>
      <trkpt lat="43.43663" lon="-1.59401">
        <ele>28.1</ele>
        <time>2021-07-18T09:37:31Z</time>
      </trkpt>
      <trkpt lat="43.43665" lon="-1.59399">
        <ele>28.2</ele>
        <time>2021-07-18T09:37:32Z</time>
      </trkpt>
      <trkpt lat="43.43668" lon="-1.59395">
        <ele>28.5</ele>
        <time>2021-07-18T09:37:34Z</time>
      </trkpt>
      <trkpt lat="43.4367" lon="-1.59393">
        <ele>28.7</ele>
        <time>2021-07-18T09:37:35Z</time>
      </trkpt>
      <trkpt lat="43.43673" lon="-1.59389">
        <ele>29</ele>
        <time>2021-07-18T09:37:37Z</time>
      </trkpt>
      <trkpt lat="43.43675" lon="-1.59387">
        <ele>29.1</ele>
        <time>2021-07-18T09:37:38Z</time>
      </trkpt>
      <trkpt lat="43.43678" lon="-1.59383">
        <ele>29.4</ele>
        <time>2021-07-18T09:37:40Z</time>
      </trkpt>
      <trkpt lat="43.43681" lon="-1.59379">
        <ele>29.7</ele>
        <time>2021-07-18T09:37:42Z</time>
      </trkpt>
      <trkpt lat="43.43683" lon="-1.59375">
        <ele>29.9</ele>
        <time>2021-07-18T09:37:43Z</time>
      </trkpt>
      <trkpt lat="43.43684" lon="-1.59374">
        <ele>30</ele>
        <time>2021-07-18T09:37:44Z</time>
      </trkpt>
      <trkpt lat="43.43687" lon="-1.5937">
        <ele>30.3</ele>
        <time>2021-07-18T09:37:46Z</time>
      </trkpt>
      <trkpt lat="43.4369" lon="-1.59367">
        <ele>30.6</ele>
        <time>2021-07-18T09:37:48Z</time>
      </trkpt>
      <trkpt lat="43.43693" lon="-1.59362">
        <ele>30.9</ele>
        <time>2021-07-18T09:37:50Z</time>
      </trkpt>
      <trkpt lat="43.43694" lon="-1.5936">
        <ele>31</ele>
        <time>2021-07-18T09:37:51Z</time>
      </trkpt>
      <trkpt lat="43.43695" lon="-1.59359">
        <ele>31.1</ele>
        <time>2021-07-18T09:37:52Z</time>
      </trkpt>
      <trkpt lat="43.43697" lon="-1.59357">
        <ele>31.3</ele>
        <time>2021-07-18T09:37:53Z</time>
      </trkpt>
      <trkpt lat="43.437" lon="-1.59353">
        <ele>31.5</ele>
        <time>2021-07-18T09:37:55Z</time>
      </trkpt>
      <trkpt lat="43.43702" lon="-1.5935">
        <ele>31.7</ele>
        <time>2021-07-18T09:37:56Z</time>
      </trkpt>
      <trkpt lat="43.43703" lon="-1.59349">
        <ele>31.8</ele>
        <time>2021-07-18T09:37:57Z</time>
      </trkpt>
      <trkpt lat="43.43705" lon="-1.59346">
        <ele>32</ele>
        <time>2021-07-18T09:37:58Z</time>
      </trkpt>
      <trkpt lat="43.43706" lon="-1.59345">
        <ele>32</ele>
        <time>2021-07-18T09:37:59Z</time>
      </trkpt>
      <trkpt lat="43.43708" lon="-1.59344">
        <ele>32.2</ele>
        <time>2021-07-18T09:38:00Z</time>
      </trkpt>
      <trkpt lat="43.43711" lon="-1.5934">
        <ele>32.4</ele>
        <time>2021-07-18T09:38:02Z</time>
      </trkpt>
      <trkpt lat="43.43713" lon="-1.59336">
        <ele>32.7</ele>
        <time>2021-07-18T09:38:04Z</time>
      </trkpt>
      <trkpt lat="43.43717" lon="-1.59333">
        <ele>32.9</ele>
        <time>2021-07-18T09:38:06Z</time>
      </trkpt>
      <trkpt lat="43.4372" lon="-1.59329">
        <ele>33.2</ele>
        <time>2021-07-18T09:38:08Z</time>
      </trkpt>
      <trkpt lat="43.43722" lon="-1.59326">
        <ele>33.4</ele>
        <time>2021-07-18T09:38:09Z</time>
      </trkpt>
      <trkpt lat="43.43723" lon="-1.59326">
        <ele>33.5</ele>
        <time>2021-07-18T09:38:10Z</time>
      </trkpt>
      <trkpt lat="43.43725" lon="-1.59321">
        <ele>33.8</ele>
        <time>2021-07-18T09:38:12Z</time>
      </trkpt>
      <trkpt lat="43.43726" lon="-1.59319">
        <ele>33.9</ele>
        <time>2021-07-18T09:38:13Z</time>
      </trkpt>
      <trkpt lat="43.43729" lon="-1.59315">
        <ele>34.2</ele>
        <time>2021-07-18T09:38:15Z</time>
      </trkpt>
      <trkpt lat="43.43732" lon="-1.59311">
        <ele>34.5</ele>
        <time>2021-07-18T09:38:17Z</time>
      </trkpt>
      <trkpt lat="43.43734" lon="-1.59309">
        <ele>34.6</ele>
        <time>2021-07-18T09:38:18Z</time>
      </trkpt>
      <trkpt lat="43.43737" lon="-1.59305">
        <ele>34.9</ele>
        <time>2021-07-18T09:38:20Z</time>
      </trkpt>
      <trkpt lat="43.43738" lon="-1.59303">
        <ele>35</ele>
        <time>2021-07-18T09:38:21Z</time>
      </trkpt>
      <trkpt lat="43.43742" lon="-1.593">
        <ele>35.3</ele>
        <time>2021-07-18T09:38:23Z</time>
      </trkpt>
      <trkpt lat="43.43744" lon="-1.59296">
        <ele>35.6</ele>
        <time>2021-07-18T09:38:25Z</time>
      </trkpt>
      <trkpt lat="43.43746" lon="-1.59294">
        <ele>35.7</ele>
        <time>2021-07-18T09:38:26Z</time>
      </trkpt>
      <trkpt lat="43.43749" lon="-1.5929">
        <ele>36</ele>
        <time>2021-07-18T09:38:28Z</time>
      </trkpt>
      <trkpt lat="43.43751" lon="-1.59288">
        <ele>36.1</ele>
        <time>2021-07-18T09:38:29Z</time>
      </trkpt>
      <trkpt lat="43.43754" lon="-1.59284">
        <ele>36.4</ele>
        <time>2021-07-18T09:38:31Z</time>
      </trkpt>
      <trkpt lat="43.43755" lon="-1.59282">
        <ele>36.5</ele>
        <time>2021-07-18T09:38:32Z</time>
      </trkpt>
      <trkpt lat="43.43758" lon="-1.59278">
        <ele>36.8</ele>
        <time>2021-07-18T09:38:34Z</time>
      </trkpt>
      <trkpt lat="43.4376" lon="-1.59275">
        <ele>37</ele>
        <time>2021-07-18T09:38:35Z</time>
      </trkpt>
      <trkpt lat="43.43761" lon="-1.59274">
        <ele>37</ele>
        <time>2021-07-18T09:38:36Z</time>
      </trkpt>
      <trkpt lat="43.43764" lon="-1.5927">
        <ele>37.3</ele>
        <time>2021-07-18T09:38:38Z</time>
      </trkpt>
      <trkpt lat="43.43765" lon="-1.59268">
        <ele>37.4</ele>
        <time>2021-07-18T09:38:39Z</time>
      </trkpt>
      <trkpt lat="43.43768" lon="-1.59264">
        <ele>37.6</ele>
        <time>2021-07-18T09:38:41Z</time>
      </trkpt>
      <trkpt lat="43.43771" lon="-1.5926">
        <ele>37.9</ele>
        <time>2021-07-18T09:38:43Z</time>
      </trkpt>
      <trkpt lat="43.43775" lon="-1.59255">
        <ele>38.2</ele>
        <time>2021-07-18T09:38:45Z</time>
      </trkpt>
      <trkpt lat="43.43777" lon="-1.59253">
        <ele>38.3</ele>
        <time>2021-07-18T09:38:46Z</time>
      </trkpt>
      <trkpt lat="43.43781" lon="-1.5925">
        <ele>38.6</ele>
        <time>2021-07-18T09:38:48Z</time>
      </trkpt>
      <trkpt lat="43.43783" lon="-1.59248">
        <ele>38.7</ele>
        <time>2021-07-18T09:38:49Z</time>
      </trkpt>
      <trkpt lat="43.43787" lon="-1.59244">
        <ele>38.9</ele>
        <time>2021-07-18T09:38:51Z</time>
      </trkpt>
      <trkpt lat="43.43792" lon="-1.59241">
        <ele>39.2</ele>
        <time>2021-07-18T09:38:53Z</time>
      </trkpt>
      <trkpt lat="43.43795" lon="-1.59238">
        <ele>39.4</ele>
        <time>2021-07-18T09:38:54Z</time>
      </trkpt>
      <trkpt lat="43.43796" lon="-1.59237">
        <ele>39.4</ele>
        <time>2021-07-18T09:38:55Z</time>
      </trkpt>
      <trkpt lat="43.43801" lon="-1.59234">
        <ele>39.7</ele>
        <time>2021-07-18T09:38:57Z</time>
      </trkpt>
      <trkpt lat="43.43805" lon="-1.59231">
        <ele>39.9</ele>
        <time>2021-07-18T09:38:59Z</time>
      </trkpt>
      <trkpt lat="43.4381" lon="-1.59229">
        <ele>40.1</ele>
        <time>2021-07-18T09:39:01Z</time>
      </trkpt>
      <trkpt lat="43.43815" lon="-1.59227">
        <ele>40.4</ele>
        <time>2021-07-18T09:39:03Z</time>
      </trkpt>
      <trkpt lat="43.43819" lon="-1.59225">
        <ele>40.6</ele>
        <time>2021-07-18T09:39:05Z</time>
      </trkpt>
      <trkpt lat="43.43823" lon="-1.59223">
        <ele>40.9</ele>
        <time>2021-07-18T09:39:06Z</time>
      </trkpt>
      <trkpt lat="43.43824" lon="-1.59222">
        <ele>40.9</ele>
        <time>2021-07-18T09:39:07Z</time>
      </trkpt>
      <trkpt lat="43.43826" lon="-1.59221">
        <ele>41.1</ele>
        <time>2021-07-18T09:39:08Z</time>
      </trkpt>
      <trkpt lat="43.43831" lon="-1.59219">
        <ele>41.3</ele>
        <time>2021-07-18T09:39:10Z</time>
      </trkpt>
      <trkpt lat="43.43832" lon="-1.59218">
        <ele>41.4</ele>
        <time>2021-07-18T09:39:11Z</time>
      </trkpt>
      <trkpt lat="43.43836" lon="-1.59216">
        <ele>41.7</ele>
        <time>2021-07-18T09:39:13Z</time>
      </trkpt>
      <trkpt lat="43.43839" lon="-1.59214">
        <ele>41.9</ele>
        <time>2021-07-18T09:39:14Z</time>
      </trkpt>
      <trkpt lat="43.4384" lon="-1.59214">
        <ele>42</ele>
        <time>2021-07-18T09:39:15Z</time>
      </trkpt>
      <trkpt lat="43.43844" lon="-1.59212">
        <ele>42.3</ele>
        <time>2021-07-18T09:39:17Z</time>
      </trkpt>
      <trkpt lat="43.43846" lon="-1.59211">
        <ele>42.4</ele>
        <time>2021-07-18T09:39:18Z</time>
      </trkpt>
      <trkpt lat="43.43847" lon="-1.5921">
        <ele>42.6</ele>
        <time>2021-07-18T09:39:19Z</time>
      </trkpt>
      <trkpt lat="43.43851" lon="-1.59209">
        <ele>42.8</ele>
        <time>2021-07-18T09:39:20Z</time>
      </trkpt>
      <trkpt lat="43.43852" lon="-1.59209">
        <ele>42.9</ele>
        <time>2021-07-18T09:39:21Z</time>
      </trkpt>
      <trkpt lat="43.43853" lon="-1.59208">
        <ele>43</ele>
        <time>2021-07-18T09:39:22Z</time>
      </trkpt>
      <trkpt lat="43.43857" lon="-1.59206">
        <ele>43.4</ele>
        <time>2021-07-18T09:39:24Z</time>
      </trkpt>
      <trkpt lat="43.43859" lon="-1.59206">
        <ele>43.5</ele>
        <time>2021-07-18T09:39:25Z</time>
      </trkpt>
      <trkpt lat="43.43863" lon="-1.59204">
        <ele>43.9</ele>
        <time>2021-07-18T09:39:27Z</time>
      </trkpt>
      <trkpt lat="43.43866" lon="-1.59203">
        <ele>44.1</ele>
        <time>2021-07-18T09:39:28Z</time>
      </trkpt>
      <trkpt lat="43.43867" lon="-1.59203">
        <ele>44.2</ele>
        <time>2021-07-18T09:39:29Z</time>
      </trkpt>
      <trkpt lat="43.43871" lon="-1.59201">
        <ele>44.5</ele>
        <time>2021-07-18T09:39:31Z</time>
      </trkpt>
      <trkpt lat="43.43874" lon="-1.592">
        <ele>44.7</ele>
        <time>2021-07-18T09:39:32Z</time>
      </trkpt>
      <trkpt lat="43.43875" lon="-1.59199">
        <ele>44.8</ele>
        <time>2021-07-18T09:39:33Z</time>
      </trkpt>
      <trkpt lat="43.43878" lon="-1.59197">
        <ele>45.2</ele>
        <time>2021-07-18T09:39:35Z</time>
      </trkpt>
      <trkpt lat="43.43882" lon="-1.59194">
        <ele>45.4</ele>
        <time>2021-07-18T09:39:37Z</time>
      </trkpt>
      <trkpt lat="43.43885" lon="-1.59191">
        <ele>45.6</ele>
        <time>2021-07-18T09:39:39Z</time>
      </trkpt>
      <trkpt lat="43.43887" lon="-1.59186">
        <ele>45.7</ele>
        <time>2021-07-18T09:39:41Z</time>
      </trkpt>
      <trkpt lat="43.43889" lon="-1.59184">
        <ele>45.7</ele>
        <time>2021-07-18T09:39:42Z</time>
      </trkpt>
      <trkpt lat="43.43891" lon="-1.59179">
        <ele>45.9</ele>
        <time>2021-07-18T09:39:44Z</time>
      </trkpt>
      <trkpt lat="43.43892" lon="-1.59174">
        <ele>46.1</ele>
        <time>2021-07-18T09:39:46Z</time>
      </trkpt>
      <trkpt lat="43.43893" lon="-1.59169">
        <ele>46.3</ele>
        <time>2021-07-18T09:39:47Z</time>
      </trkpt>
      <trkpt lat="43.43893" lon="-1.59168">
        <ele>46.4</ele>
        <time>2021-07-18T09:39:48Z</time>
      </trkpt>
      <trkpt lat="43.43895" lon="-1.59162">
        <ele>46.6</ele>
        <time>2021-07-18T09:39:50Z</time>
      </trkpt>
      <trkpt lat="43.43895" lon="-1.59159">
        <ele>46.7</ele>
        <time>2021-07-18T09:39:51Z</time>
      </trkpt>
      <trkpt lat="43.43897" lon="-1.59154">
        <ele>47</ele>
        <time>2021-07-18T09:39:53Z</time>
      </trkpt>
      <trkpt lat="43.43898" lon="-1.59149">
        <ele>47.2</ele>
        <time>2021-07-18T09:39:54Z</time>
      </trkpt>
      <trkpt lat="43.43898" lon="-1.59148">
        <ele>47.2</ele>
        <time>2021-07-18T09:39:55Z</time>
      </trkpt>
      <trkpt lat="43.43899" lon="-1.59142">
        <ele>47.5</ele>
        <time>2021-07-18T09:39:57Z</time>
      </trkpt>
      <trkpt lat="43.43899" lon="-1.59139">
        <ele>47.6</ele>
        <time>2021-07-18T09:39:58Z</time>
      </trkpt>
      <trkpt lat="43.439" lon="-1.59135">
        <ele>47.8</ele>
        <time>2021-07-18T09:40:00Z</time>
      </trkpt>
      <trkpt lat="43.43902" lon="-1.5913">
        <ele>48</ele>
        <time>2021-07-18T09:40:01Z</time>
      </trkpt>
      <trkpt lat="43.43902" lon="-1.59129">
        <ele>48.1</ele>
        <time>2021-07-18T09:40:02Z</time>
      </trkpt>
      <trkpt lat="43.43902" lon="-1.59126">
        <ele>48.2</ele>
        <time>2021-07-18T09:40:03Z</time>
      </trkpt>
      <trkpt lat="43.43904" lon="-1.5912">
        <ele>48.5</ele>
        <time>2021-07-18T09:40:05Z</time>
      </trkpt>
      <trkpt lat="43.43905" lon="-1.59114">
        <ele>48.7</ele>
        <time>2021-07-18T09:40:07Z</time>
      </trkpt>
      <trkpt lat="43.43907" lon="-1.59106">
        <ele>49.1</ele>
        <time>2021-07-18T09:40:09Z</time>
      </trkpt>
      <trkpt lat="43.43909" lon="-1.591">
        <ele>49.4</ele>
        <time>2021-07-18T09:40:11Z</time>
      </trkpt>
      <trkpt lat="43.4391" lon="-1.59097">
        <ele>49.6</ele>
        <time>2021-07-18T09:40:12Z</time>
      </trkpt>
      <trkpt lat="43.43911" lon="-1.5909">
        <ele>49.9</ele>
        <time>2021-07-18T09:40:14Z</time>
      </trkpt>
      <trkpt lat="43.43912" lon="-1.59086">
        <ele>50.1</ele>
        <time>2021-07-18T09:40:15Z</time>
      </trkpt>
      <trkpt lat="43.43912" lon="-1.59084">
        <ele>50.2</ele>
        <time>2021-07-18T09:40:16Z</time>
      </trkpt>
      <trkpt lat="43.43913" lon="-1.59078">
        <ele>50.6</ele>
        <time>2021-07-18T09:40:18Z</time>
      </trkpt>
      <trkpt lat="43.43914" lon="-1.59073">
        <ele>50.9</ele>
        <time>2021-07-18T09:40:19Z</time>
      </trkpt>
      <trkpt lat="43.43915" lon="-1.59072">
        <ele>51</ele>
        <time>2021-07-18T09:40:20Z</time>
      </trkpt>
      <trkpt lat="43.43916" lon="-1.59066">
        <ele>51.3</ele>
        <time>2021-07-18T09:40:22Z</time>
      </trkpt>
      <trkpt lat="43.43916" lon="-1.59063">
        <ele>51.5</ele>
        <time>2021-07-18T09:40:23Z</time>
      </trkpt>
      <trkpt lat="43.43918" lon="-1.59058">
        <ele>51.9</ele>
        <time>2021-07-18T09:40:25Z</time>
      </trkpt>
      <trkpt lat="43.43919" lon="-1.59054">
        <ele>52.1</ele>
        <time>2021-07-18T09:40:26Z</time>
      </trkpt>
      <trkpt lat="43.4392" lon="-1.59048">
        <ele>52.5</ele>
        <time>2021-07-18T09:40:28Z</time>
      </trkpt>
      <trkpt lat="43.4392" lon="-1.59046">
        <ele>52.6</ele>
        <time>2021-07-18T09:40:29Z</time>
      </trkpt>
      <trkpt lat="43.4392" lon="-1.59044">
        <ele>52.7</ele>
        <time>2021-07-18T09:40:30Z</time>
      </trkpt>
      <trkpt lat="43.4392" lon="-1.5904">
        <ele>53</ele>
        <time>2021-07-18T09:40:32Z</time>
      </trkpt>
      <trkpt lat="43.43921" lon="-1.59036">
        <ele>53.2</ele>
        <time>2021-07-18T09:40:33Z</time>
      </trkpt>
      <trkpt lat="43.43923" lon="-1.59031">
        <ele>53.6</ele>
        <time>2021-07-18T09:40:35Z</time>
      </trkpt>
      <trkpt lat="43.43923" lon="-1.59028">
        <ele>53.7</ele>
        <time>2021-07-18T09:40:36Z</time>
      </trkpt>
      <trkpt lat="43.43925" lon="-1.59023">
        <ele>54.1</ele>
        <time>2021-07-18T09:40:38Z</time>
      </trkpt>
      <trkpt lat="43.43927" lon="-1.59017">
        <ele>54.8</ele>
        <time>2021-07-18T09:40:40Z</time>
      </trkpt>
      <trkpt lat="43.43927" lon="-1.59015">
        <ele>54.8</ele>
        <time>2021-07-18T09:40:41Z</time>
      </trkpt>
      <trkpt lat="43.43928" lon="-1.59014">
        <ele>54.8</ele>
        <time>2021-07-18T09:40:42Z</time>
      </trkpt>
      <trkpt lat="43.4393" lon="-1.59011">
        <ele>54.8</ele>
        <time>2021-07-18T09:40:44Z</time>
      </trkpt>
      <trkpt lat="43.43931" lon="-1.5901">
        <ele>54.8</ele>
        <time>2021-07-18T09:40:45Z</time>
      </trkpt>
      <trkpt lat="43.43931" lon="-1.59009">
        <ele>54.8</ele>
        <time>2021-07-18T09:40:46Z</time>
      </trkpt>
      <trkpt lat="43.43931" lon="-1.5901">
        <ele>54.8</ele>
        <time>2021-07-18T09:40:48Z</time>
      </trkpt>
      <trkpt lat="43.43931" lon="-1.5901">
        <ele>54.8</ele>
        <time>2021-07-18T09:40:50Z</time>
      </trkpt>
      <trkpt lat="43.43931" lon="-1.5901">
        <ele>54.8</ele>
        <time>2021-07-18T09:40:51Z</time>
      </trkpt>
      <trkpt lat="43.43931" lon="-1.5901">
        <ele>54.8</ele>
        <time>2021-07-18T09:40:53Z</time>
      </trkpt>
      <trkpt lat="43.43931" lon="-1.5901">
        <ele>54.9</ele>
        <time>2021-07-18T09:40:54Z</time>
      </trkpt>
      <trkpt lat="43.43931" lon="-1.5901">
        <ele>54.9</ele>
        <time>2021-07-18T09:40:55Z</time>
      </trkpt>
      <trkpt lat="43.43932" lon="-1.59011">
        <ele>54.9</ele>
        <time>2021-07-18T09:40:56Z</time>
      </trkpt>
      <trkpt lat="43.43933" lon="-1.59012">
        <ele>54.9</ele>
        <time>2021-07-18T09:40:58Z</time>
      </trkpt>
      <trkpt lat="43.43934" lon="-1.59013">
        <ele>54.9</ele>
        <time>2021-07-18T09:40:59Z</time>
      </trkpt>
      <trkpt lat="43.43935" lon="-1.59017">
        <ele>54.9</ele>
        <time>2021-07-18T09:41:01Z</time>
      </trkpt>
      <trkpt lat="43.43936" lon="-1.5902">
        <ele>54.9</ele>
        <time>2021-07-18T09:41:02Z</time>
      </trkpt>
      <trkpt lat="43.43937" lon="-1.59025">
        <ele>55</ele>
        <time>2021-07-18T09:41:04Z</time>
      </trkpt>
      <trkpt lat="43.43939" lon="-1.59029">
        <ele>55</ele>
        <time>2021-07-18T09:41:05Z</time>
      </trkpt>
      <trkpt lat="43.43941" lon="-1.59034">
        <ele>55</ele>
        <time>2021-07-18T09:41:07Z</time>
      </trkpt>
      <trkpt lat="43.43943" lon="-1.59037">
        <ele>55</ele>
        <time>2021-07-18T09:41:08Z</time>
      </trkpt>
      <trkpt lat="43.43944" lon="-1.59038">
        <ele>55</ele>
        <time>2021-07-18T09:41:09Z</time>
      </trkpt>
      <trkpt lat="43.43946" lon="-1.59041">
        <ele>55</ele>
        <time>2021-07-18T09:41:11Z</time>
      </trkpt>
      <trkpt lat="43.43946" lon="-1.59041">
        <ele>55</ele>
        <time>2021-07-18T09:41:12Z</time>
      </trkpt>
      <trkpt lat="43.43946" lon="-1.5904">
        <ele>55</ele>
        <time>2021-07-18T09:41:14Z</time>
      </trkpt>
      <trkpt lat="43.43946" lon="-1.59039">
        <ele>55</ele>
        <time>2021-07-18T09:41:15Z</time>
      </trkpt>
      <trkpt lat="43.43946" lon="-1.59039">
        <ele>55</ele>
        <time>2021-07-18T09:41:16Z</time>
      </trkpt>
      <trkpt lat="43.43946" lon="-1.59039">
        <ele>55</ele>
        <time>2021-07-18T09:41:18Z</time>
      </trkpt>
      <trkpt lat="43.43946" lon="-1.59039">
        <ele>55</ele>
        <time>2021-07-18T09:41:20Z</time>
      </trkpt>
      <trkpt lat="43.43946" lon="-1.5904">
        <ele>55</ele>
        <time>2021-07-18T09:41:22Z</time>
      </trkpt>
      <trkpt lat="43.43942" lon="-1.59041">
        <ele>54.9</ele>
        <time>2021-07-18T09:53:36Z</time>
      </trkpt>
      <trkpt lat="43.43941" lon="-1.5904">
        <ele>54.9</ele>
        <time>2021-07-18T09:53:37Z</time>
      </trkpt>
      <trkpt lat="43.4394" lon="-1.59038">
        <ele>54.9</ele>
        <time>2021-07-18T09:53:38Z</time>
      </trkpt>
      <trkpt lat="43.43941" lon="-1.59038">
        <ele>54.9</ele>
        <time>2021-07-18T09:53:40Z</time>
      </trkpt>
      <trkpt lat="43.43941" lon="-1.59038">
        <ele>54.9</ele>
        <time>2021-07-18T09:53:42Z</time>
      </trkpt>
      <trkpt lat="43.43941" lon="-1.59039">
        <ele>54.9</ele>
        <time>2021-07-18T09:53:43Z</time>
      </trkpt>
      <trkpt lat="43.43941" lon="-1.59039">
        <ele>54.9</ele>
        <time>2021-07-18T09:53:45Z</time>
      </trkpt>
      <trkpt lat="43.43941" lon="-1.59039">
        <ele>54.9</ele>
        <time>2021-07-18T09:53:47Z</time>
      </trkpt>
      <trkpt lat="43.43944" lon="-1.59038">
        <ele>54.9</ele>
        <time>2021-07-18T10:14:55Z</time>
      </trkpt>
      <trkpt lat="43.43944" lon="-1.59038">
        <ele>54.9</ele>
        <time>2021-07-18T10:14:56Z</time>
      </trkpt>
      <trkpt lat="43.43945" lon="-1.59039">
        <ele>54.9</ele>
        <time>2021-07-18T10:14:57Z</time>
      </trkpt>
      <trkpt lat="43.43947" lon="-1.5904">
        <ele>54.9</ele>
        <time>2021-07-18T10:14:59Z</time>
      </trkpt>
      <trkpt lat="43.43946" lon="-1.5904">
        <ele>54.9</ele>
        <time>2021-07-18T10:15:01Z</time>
      </trkpt>
      <trkpt lat="43.43946" lon="-1.5904">
        <ele>54.9</ele>
        <time>2021-07-18T10:15:02Z</time>
      </trkpt>
      <trkpt lat="43.43947" lon="-1.59041">
        <ele>54.9</ele>
        <time>2021-07-18T10:15:04Z</time>
      </trkpt>
      <trkpt lat="43.43947" lon="-1.5904">
        <ele>54.9</ele>
        <time>2021-07-18T10:15:05Z</time>
      </trkpt>
      <trkpt lat="43.43947" lon="-1.5904">
        <ele>54.9</ele>
        <time>2021-07-18T10:15:07Z</time>
      </trkpt>
      <trkpt lat="43.43943" lon="-1.59036">
        <ele>54.9</ele>
        <time>2021-07-18T10:17:43Z</time>
      </trkpt>
      <trkpt lat="43.43942" lon="-1.59034">
        <ele>54.9</ele>
        <time>2021-07-18T10:17:44Z</time>
      </trkpt>
      <trkpt lat="43.4394" lon="-1.59031">
        <ele>54.9</ele>
        <time>2021-07-18T10:17:46Z</time>
      </trkpt>
      <trkpt lat="43.43939" lon="-1.59028">
        <ele>54.9</ele>
        <time>2021-07-18T10:17:47Z</time>
      </trkpt>
      <trkpt lat="43.43937" lon="-1.59023">
        <ele>54.9</ele>
        <time>2021-07-18T10:17:49Z</time>
      </trkpt>
      <trkpt lat="43.43935" lon="-1.59019">
        <ele>54.9</ele>
        <time>2021-07-18T10:17:50Z</time>
      </trkpt>
      <trkpt lat="43.43934" lon="-1.59018">
        <ele>54.9</ele>
        <time>2021-07-18T10:17:51Z</time>
      </trkpt>
      <trkpt lat="43.43933" lon="-1.59011">
        <ele>54.8</ele>
        <time>2021-07-18T10:17:53Z</time>
      </trkpt>
      <trkpt lat="43.43934" lon="-1.59009">
        <ele>54.8</ele>
        <time>2021-07-18T10:17:54Z</time>
      </trkpt>
      <trkpt lat="43.43934" lon="-1.59006">
        <ele>54.8</ele>
        <time>2021-07-18T10:17:55Z</time>
      </trkpt>
      <trkpt lat="43.43937" lon="-1.59004">
        <ele>55.4</ele>
        <time>2021-07-18T10:17:57Z</time>
      </trkpt>
      <trkpt lat="43.43937" lon="-1.59003">
        <ele>55.5</ele>
        <time>2021-07-18T10:17:58Z</time>
      </trkpt>
      <trkpt lat="43.4394" lon="-1.59001">
        <ele>55.8</ele>
        <time>2021-07-18T10:18:00Z</time>
      </trkpt>
      <trkpt lat="43.43944" lon="-1.59">
        <ele>56.1</ele>
        <time>2021-07-18T10:18:02Z</time>
      </trkpt>
      <trkpt lat="43.43947" lon="-1.58999">
        <ele>56.4</ele>
        <time>2021-07-18T10:18:04Z</time>
      </trkpt>
      <trkpt lat="43.43949" lon="-1.58998">
        <ele>56.6</ele>
        <time>2021-07-18T10:18:05Z</time>
      </trkpt>
      <trkpt lat="43.43952" lon="-1.58997">
        <ele>56.9</ele>
        <time>2021-07-18T10:18:07Z</time>
      </trkpt>
      <trkpt lat="43.43953" lon="-1.58996">
        <ele>57.1</ele>
        <time>2021-07-18T10:18:08Z</time>
      </trkpt>
      <trkpt lat="43.43955" lon="-1.58995">
        <ele>57.2</ele>
        <time>2021-07-18T10:18:09Z</time>
      </trkpt>
      <trkpt lat="43.43957" lon="-1.58994">
        <ele>57.5</ele>
        <time>2021-07-18T10:18:11Z</time>
      </trkpt>
      <trkpt lat="43.4396" lon="-1.58992">
        <ele>57.8</ele>
        <time>2021-07-18T10:18:13Z</time>
      </trkpt>
      <trkpt lat="43.43961" lon="-1.58991">
        <ele>57.8</ele>
        <time>2021-07-18T10:18:14Z</time>
      </trkpt>
      <trkpt lat="43.43963" lon="-1.58988">
        <ele>57.9</ele>
        <time>2021-07-18T10:18:16Z</time>
      </trkpt>
      <trkpt lat="43.43964" lon="-1.58987">
        <ele>58</ele>
        <time>2021-07-18T10:18:17Z</time>
      </trkpt>
      <trkpt lat="43.43965" lon="-1.58986">
        <ele>58.2</ele>
        <time>2021-07-18T10:18:19Z</time>
      </trkpt>
      <trkpt lat="43.43966" lon="-1.58985">
        <ele>58.3</ele>
        <time>2021-07-18T10:18:20Z</time>
      </trkpt>
      <trkpt lat="43.43968" lon="-1.58982">
        <ele>58.6</ele>
        <time>2021-07-18T10:18:22Z</time>
      </trkpt>
      <trkpt lat="43.43971" lon="-1.5898">
        <ele>58.8</ele>
        <time>2021-07-18T10:18:24Z</time>
      </trkpt>
      <trkpt lat="43.43973" lon="-1.5898">
        <ele>59.1</ele>
        <time>2021-07-18T10:18:26Z</time>
      </trkpt>
      <trkpt lat="43.43976" lon="-1.58979">
        <ele>59.4</ele>
        <time>2021-07-18T10:18:28Z</time>
      </trkpt>
      <trkpt lat="43.43977" lon="-1.58978">
        <ele>59.5</ele>
        <time>2021-07-18T10:18:29Z</time>
      </trkpt>
      <trkpt lat="43.43979" lon="-1.58977">
        <ele>59.8</ele>
        <time>2021-07-18T10:18:31Z</time>
      </trkpt>
      <trkpt lat="43.43982" lon="-1.58974">
        <ele>60.1</ele>
        <time>2021-07-18T10:18:33Z</time>
      </trkpt>
      <trkpt lat="43.43982" lon="-1.58973">
        <ele>60.2</ele>
        <time>2021-07-18T10:18:34Z</time>
      </trkpt>
      <trkpt lat="43.43983" lon="-1.58972">
        <ele>60.3</ele>
        <time>2021-07-18T10:18:35Z</time>
      </trkpt>
      <trkpt lat="43.43985" lon="-1.58971">
        <ele>60.6</ele>
        <time>2021-07-18T10:18:37Z</time>
      </trkpt>
      <trkpt lat="43.43987" lon="-1.5897">
        <ele>60.7</ele>
        <time>2021-07-18T10:18:38Z</time>
      </trkpt>
      <trkpt lat="43.43988" lon="-1.58969">
        <ele>60.9</ele>
        <time>2021-07-18T10:18:39Z</time>
      </trkpt>
      <trkpt lat="43.43989" lon="-1.58968">
        <ele>61</ele>
        <time>2021-07-18T10:18:40Z</time>
      </trkpt>
      <trkpt lat="43.4399" lon="-1.58966">
        <ele>61.3</ele>
        <time>2021-07-18T10:18:42Z</time>
      </trkpt>
      <trkpt lat="43.43991" lon="-1.58964">
        <ele>61.4</ele>
        <time>2021-07-18T10:18:43Z</time>
      </trkpt>
      <trkpt lat="43.43993" lon="-1.58962">
        <ele>61.7</ele>
        <time>2021-07-18T10:18:45Z</time>
      </trkpt>
      <trkpt lat="43.43995" lon="-1.58958">
        <ele>62</ele>
        <time>2021-07-18T10:18:47Z</time>
      </trkpt>
      <trkpt lat="43.43996" lon="-1.58957">
        <ele>62.1</ele>
        <time>2021-07-18T10:18:48Z</time>
      </trkpt>
      <trkpt lat="43.43998" lon="-1.58956">
        <ele>62.3</ele>
        <time>2021-07-18T10:18:50Z</time>
      </trkpt>
      <trkpt lat="43.43999" lon="-1.58956">
        <ele>62.4</ele>
        <time>2021-07-18T10:18:51Z</time>
      </trkpt>
      <trkpt lat="43.44002" lon="-1.58955">
        <ele>62.7</ele>
        <time>2021-07-18T10:18:53Z</time>
      </trkpt>
      <trkpt lat="43.44003" lon="-1.58955">
        <ele>62.8</ele>
        <time>2021-07-18T10:18:54Z</time>
      </trkpt>
      <trkpt lat="43.44003" lon="-1.58954">
        <ele>62.9</ele>
        <time>2021-07-18T10:18:55Z</time>
      </trkpt>
      <trkpt lat="43.44006" lon="-1.58953">
        <ele>63.1</ele>
        <time>2021-07-18T10:18:57Z</time>
      </trkpt>
      <trkpt lat="43.44007" lon="-1.58951">
        <ele>63.3</ele>
        <time>2021-07-18T10:18:58Z</time>
      </trkpt>
      <trkpt lat="43.44009" lon="-1.5895">
        <ele>63.5</ele>
        <time>2021-07-18T10:19:00Z</time>
      </trkpt>
      <trkpt lat="43.4401" lon="-1.58949">
        <ele>63.6</ele>
        <time>2021-07-18T10:19:01Z</time>
      </trkpt>
      <trkpt lat="43.44012" lon="-1.58946">
        <ele>63.9</ele>
        <time>2021-07-18T10:19:03Z</time>
      </trkpt>
      <trkpt lat="43.44015" lon="-1.58945">
        <ele>64.2</ele>
        <time>2021-07-18T10:19:05Z</time>
      </trkpt>
      <trkpt lat="43.44016" lon="-1.58944">
        <ele>64.3</ele>
        <time>2021-07-18T10:19:06Z</time>
      </trkpt>
      <trkpt lat="43.44019" lon="-1.58942">
        <ele>64.5</ele>
        <time>2021-07-18T10:19:08Z</time>
      </trkpt>
      <trkpt lat="43.4402" lon="-1.58942">
        <ele>64.6</ele>
        <time>2021-07-18T10:19:09Z</time>
      </trkpt>
      <trkpt lat="43.44021" lon="-1.58941">
        <ele>64.7</ele>
        <time>2021-07-18T10:19:10Z</time>
      </trkpt>
      <trkpt lat="43.44022" lon="-1.58941">
        <ele>64.8</ele>
        <time>2021-07-18T10:19:11Z</time>
      </trkpt>
      <trkpt lat="43.44025" lon="-1.58938">
        <ele>65.1</ele>
        <time>2021-07-18T10:19:13Z</time>
      </trkpt>
      <trkpt lat="43.44027" lon="-1.58936">
        <ele>65.4</ele>
        <time>2021-07-18T10:19:15Z</time>
      </trkpt>
      <trkpt lat="43.44028" lon="-1.58935">
        <ele>65.5</ele>
        <time>2021-07-18T10:19:16Z</time>
      </trkpt>
      <trkpt lat="43.4403" lon="-1.58933">
        <ele>65.7</ele>
        <time>2021-07-18T10:19:18Z</time>
      </trkpt>
      <trkpt lat="43.44032" lon="-1.58931">
        <ele>65.9</ele>
        <time>2021-07-18T10:19:19Z</time>
      </trkpt>
      <trkpt lat="43.44034" lon="-1.5893">
        <ele>66.1</ele>
        <time>2021-07-18T10:19:21Z</time>
      </trkpt>
      <trkpt lat="43.44036" lon="-1.58929">
        <ele>66.2</ele>
        <time>2021-07-18T10:19:22Z</time>
      </trkpt>
      <trkpt lat="43.44038" lon="-1.58927">
        <ele>66.5</ele>
        <time>2021-07-18T10:19:24Z</time>
      </trkpt>
      <trkpt lat="43.44041" lon="-1.58925">
        <ele>66.7</ele>
        <time>2021-07-18T10:19:26Z</time>
      </trkpt>
      <trkpt lat="43.44042" lon="-1.58924">
        <ele>66.8</ele>
        <time>2021-07-18T10:19:27Z</time>
      </trkpt>
      <trkpt lat="43.44045" lon="-1.58922">
        <ele>67.1</ele>
        <time>2021-07-18T10:19:29Z</time>
      </trkpt>
      <trkpt lat="43.44046" lon="-1.58921">
        <ele>67.2</ele>
        <time>2021-07-18T10:19:30Z</time>
      </trkpt>
      <trkpt lat="43.44049" lon="-1.58919">
        <ele>67.5</ele>
        <time>2021-07-18T10:19:32Z</time>
      </trkpt>
      <trkpt lat="43.4405" lon="-1.58918">
        <ele>67.6</ele>
        <time>2021-07-18T10:19:33Z</time>
      </trkpt>
      <trkpt lat="43.44052" lon="-1.58917">
        <ele>67.7</ele>
        <time>2021-07-18T10:19:34Z</time>
      </trkpt>
      <trkpt lat="43.44055" lon="-1.58914">
        <ele>68</ele>
        <time>2021-07-18T10:19:36Z</time>
      </trkpt>
      <trkpt lat="43.44057" lon="-1.58911">
        <ele>68.2</ele>
        <time>2021-07-18T10:19:38Z</time>
      </trkpt>
      <trkpt lat="43.4406" lon="-1.58909">
        <ele>68.4</ele>
        <time>2021-07-18T10:19:40Z</time>
      </trkpt>
      <trkpt lat="43.44062" lon="-1.58907">
        <ele>68.7</ele>
        <time>2021-07-18T10:19:42Z</time>
      </trkpt>
      <trkpt lat="43.44065" lon="-1.58904">
        <ele>68.9</ele>
        <time>2021-07-18T10:19:44Z</time>
      </trkpt>
      <trkpt lat="43.44067" lon="-1.58903">
        <ele>69</ele>
        <time>2021-07-18T10:19:45Z</time>
      </trkpt>
      <trkpt lat="43.44068" lon="-1.58902">
        <ele>69.1</ele>
        <time>2021-07-18T10:19:46Z</time>
      </trkpt>
      <trkpt lat="43.44071" lon="-1.58899">
        <ele>69.4</ele>
        <time>2021-07-18T10:19:48Z</time>
      </trkpt>
      <trkpt lat="43.44073" lon="-1.58898">
        <ele>69.5</ele>
        <time>2021-07-18T10:19:49Z</time>
      </trkpt>
      <trkpt lat="43.44075" lon="-1.58895">
        <ele>69.7</ele>
        <time>2021-07-18T10:19:51Z</time>
      </trkpt>
      <trkpt lat="43.44077" lon="-1.58894">
        <ele>69.7</ele>
        <time>2021-07-18T10:19:52Z</time>
      </trkpt>
      <trkpt lat="43.44078" lon="-1.58893">
        <ele>69.8</ele>
        <time>2021-07-18T10:19:53Z</time>
      </trkpt>
      <trkpt lat="43.4408" lon="-1.5889">
        <ele>69.9</ele>
        <time>2021-07-18T10:19:55Z</time>
      </trkpt>
      <trkpt lat="43.44082" lon="-1.58889">
        <ele>70</ele>
        <time>2021-07-18T10:19:56Z</time>
      </trkpt>
      <trkpt lat="43.44083" lon="-1.58888">
        <ele>70.1</ele>
        <time>2021-07-18T10:19:57Z</time>
      </trkpt>
      <trkpt lat="43.44086" lon="-1.58885">
        <ele>70.2</ele>
        <time>2021-07-18T10:19:59Z</time>
      </trkpt>
      <trkpt lat="43.44088" lon="-1.58882">
        <ele>70.4</ele>
        <time>2021-07-18T10:20:01Z</time>
      </trkpt>
      <trkpt lat="43.44089" lon="-1.58881">
        <ele>70.4</ele>
        <time>2021-07-18T10:20:02Z</time>
      </trkpt>
      <trkpt lat="43.44091" lon="-1.58879">
        <ele>70.5</ele>
        <time>2021-07-18T10:20:03Z</time>
      </trkpt>
      <trkpt lat="43.44093" lon="-1.58876">
        <ele>70.6</ele>
        <time>2021-07-18T10:20:05Z</time>
      </trkpt>
      <trkpt lat="43.44095" lon="-1.58874">
        <ele>70.7</ele>
        <time>2021-07-18T10:20:06Z</time>
      </trkpt>
      <trkpt lat="43.44097" lon="-1.58871">
        <ele>70.8</ele>
        <time>2021-07-18T10:20:08Z</time>
      </trkpt>
      <trkpt lat="43.44101" lon="-1.58868">
        <ele>70.9</ele>
        <time>2021-07-18T10:20:10Z</time>
      </trkpt>
      <trkpt lat="43.44104" lon="-1.58865">
        <ele>70.9</ele>
        <time>2021-07-18T10:20:12Z</time>
      </trkpt>
      <trkpt lat="43.44106" lon="-1.58863">
        <ele>71</ele>
        <time>2021-07-18T10:20:13Z</time>
      </trkpt>
      <trkpt lat="43.44109" lon="-1.58859">
        <ele>71</ele>
        <time>2021-07-18T10:20:15Z</time>
      </trkpt>
      <trkpt lat="43.44113" lon="-1.58854">
        <ele>71</ele>
        <time>2021-07-18T10:20:17Z</time>
      </trkpt>
      <trkpt lat="43.44115" lon="-1.58851">
        <ele>70.9</ele>
        <time>2021-07-18T10:20:18Z</time>
      </trkpt>
      <trkpt lat="43.44117" lon="-1.58848">
        <ele>70.8</ele>
        <time>2021-07-18T10:20:19Z</time>
      </trkpt>
      <trkpt lat="43.44121" lon="-1.58841">
        <ele>70.6</ele>
        <time>2021-07-18T10:20:21Z</time>
      </trkpt>
      <trkpt lat="43.44124" lon="-1.58834">
        <ele>70.4</ele>
        <time>2021-07-18T10:20:22Z</time>
      </trkpt>
      <trkpt lat="43.44131" lon="-1.58823">
        <ele>69.9</ele>
        <time>2021-07-18T10:20:24Z</time>
      </trkpt>
      <trkpt lat="43.44135" lon="-1.58817">
        <ele>69.7</ele>
        <time>2021-07-18T10:20:25Z</time>
      </trkpt>
      <trkpt lat="43.44142" lon="-1.58805">
        <ele>69.2</ele>
        <time>2021-07-18T10:20:27Z</time>
      </trkpt>
      <trkpt lat="43.44146" lon="-1.58798">
        <ele>69</ele>
        <time>2021-07-18T10:20:28Z</time>
      </trkpt>
      <trkpt lat="43.44155" lon="-1.58783">
        <ele>68.7</ele>
        <time>2021-07-18T10:20:30Z</time>
      </trkpt>
      <trkpt lat="43.44163" lon="-1.5877">
        <ele>68.6</ele>
        <time>2021-07-18T10:20:32Z</time>
      </trkpt>
      <trkpt lat="43.44167" lon="-1.58763">
        <ele>68.6</ele>
        <time>2021-07-18T10:20:33Z</time>
      </trkpt>
      <trkpt lat="43.44174" lon="-1.58751">
        <ele>68.8</ele>
        <time>2021-07-18T10:20:35Z</time>
      </trkpt>
      <trkpt lat="43.4418" lon="-1.5874">
        <ele>69.1</ele>
        <time>2021-07-18T10:20:37Z</time>
      </trkpt>
      <trkpt lat="43.44183" lon="-1.58735">
        <ele>69.2</ele>
        <time>2021-07-18T10:20:38Z</time>
      </trkpt>
      <trkpt lat="43.44188" lon="-1.58727">
        <ele>69.4</ele>
        <time>2021-07-18T10:20:40Z</time>
      </trkpt>
      <trkpt lat="43.44192" lon="-1.5872">
        <ele>69.7</ele>
        <time>2021-07-18T10:20:42Z</time>
      </trkpt>
      <trkpt lat="43.44193" lon="-1.58717">
        <ele>69.8</ele>
        <time>2021-07-18T10:20:43Z</time>
      </trkpt>
      <trkpt lat="43.44198" lon="-1.58709">
        <ele>70</ele>
        <time>2021-07-18T10:20:45Z</time>
      </trkpt>
      <trkpt lat="43.442" lon="-1.58705">
        <ele>70.2</ele>
        <time>2021-07-18T10:20:47Z</time>
      </trkpt>
      <trkpt lat="43.44202" lon="-1.58702">
        <ele>70.3</ele>
        <time>2021-07-18T10:20:48Z</time>
      </trkpt>
      <trkpt lat="43.44204" lon="-1.58698">
        <ele>70.4</ele>
        <time>2021-07-18T10:20:49Z</time>
      </trkpt>
      <trkpt lat="43.44205" lon="-1.58697">
        <ele>70.5</ele>
        <time>2021-07-18T10:20:50Z</time>
      </trkpt>
      <trkpt lat="43.44208" lon="-1.58692">
        <ele>70.6</ele>
        <time>2021-07-18T10:20:52Z</time>
      </trkpt>
      <trkpt lat="43.44211" lon="-1.58687">
        <ele>70.8</ele>
        <time>2021-07-18T10:20:54Z</time>
      </trkpt>
      <trkpt lat="43.44213" lon="-1.58682">
        <ele>70.9</ele>
        <time>2021-07-18T10:20:56Z</time>
      </trkpt>
      <trkpt lat="43.44217" lon="-1.58677">
        <ele>71</ele>
        <time>2021-07-18T10:20:58Z</time>
      </trkpt>
      <trkpt lat="43.44219" lon="-1.58675">
        <ele>71.1</ele>
        <time>2021-07-18T10:20:59Z</time>
      </trkpt>
      <trkpt lat="43.44221" lon="-1.58672">
        <ele>71.2</ele>
        <time>2021-07-18T10:21:00Z</time>
      </trkpt>
      <trkpt lat="43.44226" lon="-1.58667">
        <ele>71.3</ele>
        <time>2021-07-18T10:21:02Z</time>
      </trkpt>
      <trkpt lat="43.44228" lon="-1.58664">
        <ele>71.3</ele>
        <time>2021-07-18T10:21:03Z</time>
      </trkpt>
      <trkpt lat="43.44231" lon="-1.58657">
        <ele>71.5</ele>
        <time>2021-07-18T10:21:05Z</time>
      </trkpt>
      <trkpt lat="43.44233" lon="-1.58653">
        <ele>71.5</ele>
        <time>2021-07-18T10:21:06Z</time>
      </trkpt>
      <trkpt lat="43.44237" lon="-1.58646">
        <ele>71.6</ele>
        <time>2021-07-18T10:21:08Z</time>
      </trkpt>
      <trkpt lat="43.44241" lon="-1.58639">
        <ele>71.8</ele>
        <time>2021-07-18T10:21:10Z</time>
      </trkpt>
      <trkpt lat="43.44246" lon="-1.58633">
        <ele>71.9</ele>
        <time>2021-07-18T10:21:12Z</time>
      </trkpt>
      <trkpt lat="43.44249" lon="-1.58626">
        <ele>71.9</ele>
        <time>2021-07-18T10:21:14Z</time>
      </trkpt>
      <trkpt lat="43.44252" lon="-1.58623">
        <ele>71.9</ele>
        <time>2021-07-18T10:21:15Z</time>
      </trkpt>
      <trkpt lat="43.44254" lon="-1.58617">
        <ele>72</ele>
        <time>2021-07-18T10:21:16Z</time>
      </trkpt>
      <trkpt lat="43.44258" lon="-1.58611">
        <ele>72</ele>
        <time>2021-07-18T10:21:18Z</time>
      </trkpt>
      <trkpt lat="43.44261" lon="-1.58606">
        <ele>72.1</ele>
        <time>2021-07-18T10:21:19Z</time>
      </trkpt>
      <trkpt lat="43.44265" lon="-1.58598">
        <ele>72.1</ele>
        <time>2021-07-18T10:21:21Z</time>
      </trkpt>
      <trkpt lat="43.44267" lon="-1.58595">
        <ele>72.2</ele>
        <time>2021-07-18T10:21:22Z</time>
      </trkpt>
      <trkpt lat="43.4427" lon="-1.5859">
        <ele>72.2</ele>
        <time>2021-07-18T10:21:24Z</time>
      </trkpt>
      <trkpt lat="43.44273" lon="-1.58587">
        <ele>72.3</ele>
        <time>2021-07-18T10:21:25Z</time>
      </trkpt>
      <trkpt lat="43.44276" lon="-1.58583">
        <ele>72.3</ele>
        <time>2021-07-18T10:21:26Z</time>
      </trkpt>
      <trkpt lat="43.44282" lon="-1.58578">
        <ele>72.3</ele>
        <time>2021-07-18T10:21:28Z</time>
      </trkpt>
      <trkpt lat="43.44285" lon="-1.58576">
        <ele>72.3</ele>
        <time>2021-07-18T10:21:29Z</time>
      </trkpt>
      <trkpt lat="43.44291" lon="-1.58572">
        <ele>72</ele>
        <time>2021-07-18T10:21:31Z</time>
      </trkpt>
      <trkpt lat="43.44295" lon="-1.58571">
        <ele>71.8</ele>
        <time>2021-07-18T10:21:33Z</time>
      </trkpt>
      <trkpt lat="43.44297" lon="-1.58568">
        <ele>71.8</ele>
        <time>2021-07-18T10:21:34Z</time>
      </trkpt>
      <trkpt lat="43.44298" lon="-1.58566">
        <ele>71.8</ele>
        <time>2021-07-18T10:21:35Z</time>
      </trkpt>
      <trkpt lat="43.44299" lon="-1.58564">
        <ele>71.8</ele>
        <time>2021-07-18T10:21:36Z</time>
      </trkpt>
      <trkpt lat="43.443" lon="-1.58563">
        <ele>71.8</ele>
        <time>2021-07-18T10:21:37Z</time>
      </trkpt>
      <trkpt lat="43.44302" lon="-1.58568">
        <ele>71.9</ele>
        <time>2021-07-18T10:21:39Z</time>
      </trkpt>
      <trkpt lat="43.44302" lon="-1.5857">
        <ele>71.9</ele>
        <time>2021-07-18T10:21:40Z</time>
      </trkpt>
      <trkpt lat="43.44302" lon="-1.58571">
        <ele>71.9</ele>
        <time>2021-07-18T10:21:41Z</time>
      </trkpt>
      <trkpt lat="43.44302" lon="-1.5857">
        <ele>71.9</ele>
        <time>2021-07-18T10:21:42Z</time>
      </trkpt>
      <trkpt lat="43.44302" lon="-1.58569">
        <ele>71.9</ele>
        <time>2021-07-18T10:21:43Z</time>
      </trkpt>
      <trkpt lat="43.44302" lon="-1.58569">
        <ele>71.9</ele>
        <time>2021-07-18T10:21:45Z</time>
      </trkpt>
      <trkpt lat="43.44302" lon="-1.58568">
        <ele>71.9</ele>
        <time>2021-07-18T10:21:46Z</time>
      </trkpt>
      <trkpt lat="43.44302" lon="-1.58568">
        <ele>71.9</ele>
        <time>2021-07-18T10:21:48Z</time>
      </trkpt>
      <trkpt lat="43.44302" lon="-1.58568">
        <ele>71.9</ele>
        <time>2021-07-18T10:21:49Z</time>
      </trkpt>
      <trkpt lat="43.44302" lon="-1.58568">
        <ele>71.9</ele>
        <time>2021-07-18T10:21:51Z</time>
      </trkpt>
      <trkpt lat="43.44304" lon="-1.58563">
        <ele>71.9</ele>
        <time>2021-07-18T10:22:49Z</time>
      </trkpt>
      <trkpt lat="43.44305" lon="-1.58562">
        <ele>72</ele>
        <time>2021-07-18T10:22:50Z</time>
      </trkpt>
      <trkpt lat="43.44306" lon="-1.5856">
        <ele>72</ele>
        <time>2021-07-18T10:22:51Z</time>
      </trkpt>
      <trkpt lat="43.44309" lon="-1.58558">
        <ele>72</ele>
        <time>2021-07-18T10:22:52Z</time>
      </trkpt>
      <trkpt lat="43.4431" lon="-1.58557">
        <ele>72</ele>
        <time>2021-07-18T10:22:53Z</time>
      </trkpt>
      <trkpt lat="43.44313" lon="-1.58555">
        <ele>72</ele>
        <time>2021-07-18T10:22:55Z</time>
      </trkpt>
      <trkpt lat="43.44314" lon="-1.58554">
        <ele>72</ele>
        <time>2021-07-18T10:22:56Z</time>
      </trkpt>
      <trkpt lat="43.44316" lon="-1.58552">
        <ele>72</ele>
        <time>2021-07-18T10:22:58Z</time>
      </trkpt>
      <trkpt lat="43.44319" lon="-1.5855">
        <ele>72</ele>
        <time>2021-07-18T10:23:00Z</time>
      </trkpt>
      <trkpt lat="43.44319" lon="-1.5855">
        <ele>72</ele>
        <time>2021-07-18T10:23:01Z</time>
      </trkpt>
      <trkpt lat="43.44322" lon="-1.58548">
        <ele>72.1</ele>
        <time>2021-07-18T10:23:03Z</time>
      </trkpt>
      <trkpt lat="43.44323" lon="-1.58545">
        <ele>72.1</ele>
        <time>2021-07-18T10:23:05Z</time>
      </trkpt>
      <trkpt lat="43.44324" lon="-1.58544">
        <ele>72.1</ele>
        <time>2021-07-18T10:23:06Z</time>
      </trkpt>
      <trkpt lat="43.44325" lon="-1.58542">
        <ele>72.1</ele>
        <time>2021-07-18T10:23:07Z</time>
      </trkpt>
      <trkpt lat="43.44331" lon="-1.5854">
        <ele>72.1</ele>
        <time>2021-07-18T10:23:09Z</time>
      </trkpt>
      <trkpt lat="43.44333" lon="-1.58539">
        <ele>72.1</ele>
        <time>2021-07-18T10:23:10Z</time>
      </trkpt>
      <trkpt lat="43.44338" lon="-1.58538">
        <ele>72</ele>
        <time>2021-07-18T10:23:12Z</time>
      </trkpt>
      <trkpt lat="43.44344" lon="-1.58535">
        <ele>72</ele>
        <time>2021-07-18T10:23:14Z</time>
      </trkpt>
      <trkpt lat="43.44349" lon="-1.58532">
        <ele>71.9</ele>
        <time>2021-07-18T10:23:15Z</time>
      </trkpt>
      <trkpt lat="43.44352" lon="-1.58529">
        <ele>71.9</ele>
        <time>2021-07-18T10:23:16Z</time>
      </trkpt>
      <trkpt lat="43.44359" lon="-1.58526">
        <ele>71.8</ele>
        <time>2021-07-18T10:23:18Z</time>
      </trkpt>
      <trkpt lat="43.44363" lon="-1.58523">
        <ele>71.8</ele>
        <time>2021-07-18T10:23:19Z</time>
      </trkpt>
      <trkpt lat="43.44368" lon="-1.58518">
        <ele>71.8</ele>
        <time>2021-07-18T10:23:20Z</time>
      </trkpt>
      <trkpt lat="43.44371" lon="-1.58515">
        <ele>71.8</ele>
        <time>2021-07-18T10:23:21Z</time>
      </trkpt>
      <trkpt lat="43.44379" lon="-1.58511">
        <ele>71.7</ele>
        <time>2021-07-18T10:23:23Z</time>
      </trkpt>
      <trkpt lat="43.44382" lon="-1.58508">
        <ele>71.7</ele>
        <time>2021-07-18T10:23:24Z</time>
      </trkpt>
      <trkpt lat="43.44388" lon="-1.58501">
        <ele>71.6</ele>
        <time>2021-07-18T10:23:26Z</time>
      </trkpt>
      <trkpt lat="43.44392" lon="-1.58498">
        <ele>71.6</ele>
        <time>2021-07-18T10:23:27Z</time>
      </trkpt>
      <trkpt lat="43.44396" lon="-1.58496">
        <ele>71.6</ele>
        <time>2021-07-18T10:23:28Z</time>
      </trkpt>
      <trkpt lat="43.44402" lon="-1.58493">
        <ele>71.5</ele>
        <time>2021-07-18T10:23:30Z</time>
      </trkpt>
      <trkpt lat="43.44406" lon="-1.58491">
        <ele>71.5</ele>
        <time>2021-07-18T10:23:31Z</time>
      </trkpt>
      <trkpt lat="43.4441" lon="-1.58489">
        <ele>71.5</ele>
        <time>2021-07-18T10:23:32Z</time>
      </trkpt>
      <trkpt lat="43.44415" lon="-1.58488">
        <ele>71.5</ele>
        <time>2021-07-18T10:23:33Z</time>
      </trkpt>
      <trkpt lat="43.44421" lon="-1.58486">
        <ele>71.5</ele>
        <time>2021-07-18T10:23:35Z</time>
      </trkpt>
      <trkpt lat="43.44426" lon="-1.58485">
        <ele>71.5</ele>
        <time>2021-07-18T10:23:36Z</time>
      </trkpt>
      <trkpt lat="43.4443" lon="-1.58485">
        <ele>71.5</ele>
        <time>2021-07-18T10:23:37Z</time>
      </trkpt>
      <trkpt lat="43.44437" lon="-1.58485">
        <ele>71.6</ele>
        <time>2021-07-18T10:23:39Z</time>
      </trkpt>
      <trkpt lat="43.44441" lon="-1.58484">
        <ele>71.6</ele>
        <time>2021-07-18T10:23:40Z</time>
      </trkpt>
      <trkpt lat="43.44444" lon="-1.58484">
        <ele>71.6</ele>
        <time>2021-07-18T10:23:41Z</time>
      </trkpt>
      <trkpt lat="43.44449" lon="-1.58483">
        <ele>71.6</ele>
        <time>2021-07-18T10:23:42Z</time>
      </trkpt>
      <trkpt lat="43.44455" lon="-1.58484">
        <ele>71.7</ele>
        <time>2021-07-18T10:23:44Z</time>
      </trkpt>
      <trkpt lat="43.44461" lon="-1.58484">
        <ele>71.7</ele>
        <time>2021-07-18T10:23:45Z</time>
      </trkpt>
      <trkpt lat="43.44464" lon="-1.58484">
        <ele>71.7</ele>
        <time>2021-07-18T10:23:47Z</time>
      </trkpt>
      <trkpt lat="43.44468" lon="-1.58484">
        <ele>71.8</ele>
        <time>2021-07-18T10:23:48Z</time>
      </trkpt>
      <trkpt lat="43.44473" lon="-1.58483">
        <ele>71.8</ele>
        <time>2021-07-18T10:23:49Z</time>
      </trkpt>
      <trkpt lat="43.44477" lon="-1.58483">
        <ele>71.8</ele>
        <time>2021-07-18T10:23:50Z</time>
      </trkpt>
      <trkpt lat="43.44484" lon="-1.58482">
        <ele>71.9</ele>
        <time>2021-07-18T10:23:52Z</time>
      </trkpt>
      <trkpt lat="43.4449" lon="-1.58481">
        <ele>71.9</ele>
        <time>2021-07-18T10:23:54Z</time>
      </trkpt>
      <trkpt lat="43.44495" lon="-1.58479">
        <ele>71.9</ele>
        <time>2021-07-18T10:23:55Z</time>
      </trkpt>
      <trkpt lat="43.44501" lon="-1.58476">
        <ele>71.9</ele>
        <time>2021-07-18T10:23:57Z</time>
      </trkpt>
      <trkpt lat="43.44505" lon="-1.58471">
        <ele>71.9</ele>
        <time>2021-07-18T10:23:58Z</time>
      </trkpt>
      <trkpt lat="43.4451" lon="-1.58468">
        <ele>71.9</ele>
        <time>2021-07-18T10:24:00Z</time>
      </trkpt>
      <trkpt lat="43.44513" lon="-1.58466">
        <ele>72</ele>
        <time>2021-07-18T10:24:01Z</time>
      </trkpt>
      <trkpt lat="43.4452" lon="-1.58465">
        <ele>72</ele>
        <time>2021-07-18T10:24:03Z</time>
      </trkpt>
      <trkpt lat="43.44524" lon="-1.58464">
        <ele>72.1</ele>
        <time>2021-07-18T10:24:04Z</time>
      </trkpt>
      <trkpt lat="43.44528" lon="-1.58463">
        <ele>72.1</ele>
        <time>2021-07-18T10:24:05Z</time>
      </trkpt>
      <trkpt lat="43.44532" lon="-1.58462">
        <ele>72.2</ele>
        <time>2021-07-18T10:24:06Z</time>
      </trkpt>
      <trkpt lat="43.44536" lon="-1.58461">
        <ele>72.2</ele>
        <time>2021-07-18T10:24:07Z</time>
      </trkpt>
      <trkpt lat="43.4454" lon="-1.58459">
        <ele>72.3</ele>
        <time>2021-07-18T10:24:08Z</time>
      </trkpt>
      <trkpt lat="43.44544" lon="-1.58457">
        <ele>72.4</ele>
        <time>2021-07-18T10:24:09Z</time>
      </trkpt>
      <trkpt lat="43.44548" lon="-1.58456">
        <ele>72.6</ele>
        <time>2021-07-18T10:24:11Z</time>
      </trkpt>
      <trkpt lat="43.44553" lon="-1.58455">
        <ele>72.7</ele>
        <time>2021-07-18T10:24:12Z</time>
      </trkpt>
      <trkpt lat="43.44556" lon="-1.58454">
        <ele>72.8</ele>
        <time>2021-07-18T10:24:13Z</time>
      </trkpt>
      <trkpt lat="43.4456" lon="-1.58454">
        <ele>73</ele>
        <time>2021-07-18T10:24:14Z</time>
      </trkpt>
      <trkpt lat="43.44564" lon="-1.58454">
        <ele>73.1</ele>
        <time>2021-07-18T10:24:15Z</time>
      </trkpt>
      <trkpt lat="43.44567" lon="-1.58453">
        <ele>73.2</ele>
        <time>2021-07-18T10:24:16Z</time>
      </trkpt>
      <trkpt lat="43.4457" lon="-1.58452">
        <ele>73.3</ele>
        <time>2021-07-18T10:24:18Z</time>
      </trkpt>
      <trkpt lat="43.44574" lon="-1.58451">
        <ele>73.4</ele>
        <time>2021-07-18T10:24:19Z</time>
      </trkpt>
      <trkpt lat="43.44577" lon="-1.58449">
        <ele>73.5</ele>
        <time>2021-07-18T10:24:20Z</time>
      </trkpt>
      <trkpt lat="43.44582" lon="-1.58448">
        <ele>73.6</ele>
        <time>2021-07-18T10:24:22Z</time>
      </trkpt>
      <trkpt lat="43.44585" lon="-1.58447">
        <ele>73.7</ele>
        <time>2021-07-18T10:24:23Z</time>
      </trkpt>
      <trkpt lat="43.44588" lon="-1.58445">
        <ele>73.8</ele>
        <time>2021-07-18T10:24:24Z</time>
      </trkpt>
      <trkpt lat="43.44592" lon="-1.58444">
        <ele>73.8</ele>
        <time>2021-07-18T10:24:25Z</time>
      </trkpt>
      <trkpt lat="43.44596" lon="-1.58443">
        <ele>73.9</ele>
        <time>2021-07-18T10:24:26Z</time>
      </trkpt>
      <trkpt lat="43.446" lon="-1.58442">
        <ele>74</ele>
        <time>2021-07-18T10:24:28Z</time>
      </trkpt>
      <trkpt lat="43.44605" lon="-1.58441">
        <ele>74.1</ele>
        <time>2021-07-18T10:24:29Z</time>
      </trkpt>
      <trkpt lat="43.44608" lon="-1.5844">
        <ele>74.2</ele>
        <time>2021-07-18T10:24:30Z</time>
      </trkpt>
      <trkpt lat="43.44614" lon="-1.58438">
        <ele>74.3</ele>
        <time>2021-07-18T10:24:32Z</time>
      </trkpt>
      <trkpt lat="43.44618" lon="-1.58436">
        <ele>74.4</ele>
        <time>2021-07-18T10:24:34Z</time>
      </trkpt>
      <trkpt lat="43.44623" lon="-1.58436">
        <ele>74.4</ele>
        <time>2021-07-18T10:24:35Z</time>
      </trkpt>
      <trkpt lat="43.44627" lon="-1.58434">
        <ele>74.5</ele>
        <time>2021-07-18T10:24:37Z</time>
      </trkpt>
      <trkpt lat="43.4463" lon="-1.58432">
        <ele>74.6</ele>
        <time>2021-07-18T10:24:38Z</time>
      </trkpt>
      <trkpt lat="43.44634" lon="-1.58431">
        <ele>74.6</ele>
        <time>2021-07-18T10:24:39Z</time>
      </trkpt>
      <trkpt lat="43.44638" lon="-1.58429">
        <ele>74.7</ele>
        <time>2021-07-18T10:24:40Z</time>
      </trkpt>
      <trkpt lat="43.44641" lon="-1.58427">
        <ele>74.7</ele>
        <time>2021-07-18T10:24:41Z</time>
      </trkpt>
      <trkpt lat="43.44643" lon="-1.58425">
        <ele>74.8</ele>
        <time>2021-07-18T10:24:42Z</time>
      </trkpt>
      <trkpt lat="43.44649" lon="-1.58421">
        <ele>74.8</ele>
        <time>2021-07-18T10:24:44Z</time>
      </trkpt>
      <trkpt lat="43.44655" lon="-1.58418">
        <ele>74.9</ele>
        <time>2021-07-18T10:24:46Z</time>
      </trkpt>
      <trkpt lat="43.44658" lon="-1.58415">
        <ele>74.9</ele>
        <time>2021-07-18T10:24:47Z</time>
      </trkpt>
      <trkpt lat="43.44663" lon="-1.58411">
        <ele>74.9</ele>
        <time>2021-07-18T10:24:49Z</time>
      </trkpt>
      <trkpt lat="43.44666" lon="-1.58408">
        <ele>75</ele>
        <time>2021-07-18T10:24:50Z</time>
      </trkpt>
      <trkpt lat="43.44669" lon="-1.58407">
        <ele>75</ele>
        <time>2021-07-18T10:24:51Z</time>
      </trkpt>
      <trkpt lat="43.44673" lon="-1.58404">
        <ele>75</ele>
        <time>2021-07-18T10:24:53Z</time>
      </trkpt>
      <trkpt lat="43.44677" lon="-1.58401">
        <ele>75</ele>
        <time>2021-07-18T10:24:54Z</time>
      </trkpt>
      <trkpt lat="43.4468" lon="-1.584">
        <ele>74.9</ele>
        <time>2021-07-18T10:24:55Z</time>
      </trkpt>
      <trkpt lat="43.44685" lon="-1.58395">
        <ele>74.9</ele>
        <time>2021-07-18T10:24:57Z</time>
      </trkpt>
      <trkpt lat="43.44693" lon="-1.5839">
        <ele>74.9</ele>
        <time>2021-07-18T10:24:58Z</time>
      </trkpt>
      <trkpt lat="43.44702" lon="-1.58383">
        <ele>74.8</ele>
        <time>2021-07-18T10:25:00Z</time>
      </trkpt>
      <trkpt lat="43.44712" lon="-1.58376">
        <ele>74.9</ele>
        <time>2021-07-18T10:25:02Z</time>
      </trkpt>
      <trkpt lat="43.44722" lon="-1.58368">
        <ele>75</ele>
        <time>2021-07-18T10:25:04Z</time>
      </trkpt>
      <trkpt lat="43.4473" lon="-1.5836">
        <ele>75.2</ele>
        <time>2021-07-18T10:25:06Z</time>
      </trkpt>
      <trkpt lat="43.44732" lon="-1.58358">
        <ele>75.3</ele>
        <time>2021-07-18T10:25:07Z</time>
      </trkpt>
      <trkpt lat="43.44739" lon="-1.58354">
        <ele>75.4</ele>
        <time>2021-07-18T10:25:09Z</time>
      </trkpt>
      <trkpt lat="43.44745" lon="-1.58351">
        <ele>75.5</ele>
        <time>2021-07-18T10:25:11Z</time>
      </trkpt>
      <trkpt lat="43.44748" lon="-1.58349">
        <ele>75.6</ele>
        <time>2021-07-18T10:25:12Z</time>
      </trkpt>
      <trkpt lat="43.44755" lon="-1.58346">
        <ele>75.8</ele>
        <time>2021-07-18T10:25:14Z</time>
      </trkpt>
      <trkpt lat="43.44762" lon="-1.58342">
        <ele>75.9</ele>
        <time>2021-07-18T10:25:16Z</time>
      </trkpt>
      <trkpt lat="43.44768" lon="-1.5834">
        <ele>76</ele>
        <time>2021-07-18T10:25:18Z</time>
      </trkpt>
      <trkpt lat="43.44775" lon="-1.58336">
        <ele>76.2</ele>
        <time>2021-07-18T10:25:20Z</time>
      </trkpt>
      <trkpt lat="43.44781" lon="-1.58333">
        <ele>76.3</ele>
        <time>2021-07-18T10:25:22Z</time>
      </trkpt>
      <trkpt lat="43.44785" lon="-1.58331">
        <ele>76.3</ele>
        <time>2021-07-18T10:25:23Z</time>
      </trkpt>
      <trkpt lat="43.44789" lon="-1.58325">
        <ele>76.4</ele>
        <time>2021-07-18T10:25:25Z</time>
      </trkpt>
      <trkpt lat="43.44792" lon="-1.58315">
        <ele>76.3</ele>
        <time>2021-07-18T10:25:27Z</time>
      </trkpt>
      <trkpt lat="43.44794" lon="-1.58307">
        <ele>76.3</ele>
        <time>2021-07-18T10:25:29Z</time>
      </trkpt>
      <trkpt lat="43.44796" lon="-1.58298">
        <ele>76.3</ele>
        <time>2021-07-18T10:25:30Z</time>
      </trkpt>
      <trkpt lat="43.44796" lon="-1.58291">
        <ele>76.3</ele>
        <time>2021-07-18T10:25:31Z</time>
      </trkpt>
      <trkpt lat="43.44797" lon="-1.58282">
        <ele>76.2</ele>
        <time>2021-07-18T10:25:33Z</time>
      </trkpt>
      <trkpt lat="43.44798" lon="-1.58271">
        <ele>76.2</ele>
        <time>2021-07-18T10:25:34Z</time>
      </trkpt>
      <trkpt lat="43.44798" lon="-1.58265">
        <ele>76.2</ele>
        <time>2021-07-18T10:25:35Z</time>
      </trkpt>
      <trkpt lat="43.448" lon="-1.58252">
        <ele>76.1</ele>
        <time>2021-07-18T10:25:37Z</time>
      </trkpt>
      <trkpt lat="43.44801" lon="-1.58239">
        <ele>76.1</ele>
        <time>2021-07-18T10:25:39Z</time>
      </trkpt>
      <trkpt lat="43.44803" lon="-1.58225">
        <ele>76</ele>
        <time>2021-07-18T10:25:41Z</time>
      </trkpt>
      <trkpt lat="43.44804" lon="-1.58219">
        <ele>76</ele>
        <time>2021-07-18T10:25:42Z</time>
      </trkpt>
      <trkpt lat="43.44805" lon="-1.58205">
        <ele>76</ele>
        <time>2021-07-18T10:25:44Z</time>
      </trkpt>
      <trkpt lat="43.44806" lon="-1.58192">
        <ele>76</ele>
        <time>2021-07-18T10:25:46Z</time>
      </trkpt>
      <trkpt lat="43.44805" lon="-1.58179">
        <ele>76.1</ele>
        <time>2021-07-18T10:25:48Z</time>
      </trkpt>
      <trkpt lat="43.44803" lon="-1.58173">
        <ele>76.1</ele>
        <time>2021-07-18T10:25:49Z</time>
      </trkpt>
      <trkpt lat="43.44801" lon="-1.58161">
        <ele>76.1</ele>
        <time>2021-07-18T10:25:51Z</time>
      </trkpt>
      <trkpt lat="43.44802" lon="-1.58154">
        <ele>76.1</ele>
        <time>2021-07-18T10:25:52Z</time>
      </trkpt>
      <trkpt lat="43.44803" lon="-1.58142">
        <ele>76.2</ele>
        <time>2021-07-18T10:25:54Z</time>
      </trkpt>
      <trkpt lat="43.44803" lon="-1.58135">
        <ele>76.2</ele>
        <time>2021-07-18T10:25:55Z</time>
      </trkpt>
      <trkpt lat="43.44803" lon="-1.58129">
        <ele>76.2</ele>
        <time>2021-07-18T10:25:56Z</time>
      </trkpt>
      <trkpt lat="43.44804" lon="-1.58118">
        <ele>76.3</ele>
        <time>2021-07-18T10:25:58Z</time>
      </trkpt>
      <trkpt lat="43.44807" lon="-1.58107">
        <ele>76.3</ele>
        <time>2021-07-18T10:26:00Z</time>
      </trkpt>
      <trkpt lat="43.44811" lon="-1.58097">
        <ele>76.4</ele>
        <time>2021-07-18T10:26:02Z</time>
      </trkpt>
      <trkpt lat="43.44817" lon="-1.5809">
        <ele>76.4</ele>
        <time>2021-07-18T10:26:04Z</time>
      </trkpt>
      <trkpt lat="43.44821" lon="-1.58086">
        <ele>76.5</ele>
        <time>2021-07-18T10:26:05Z</time>
      </trkpt>
      <trkpt lat="43.44824" lon="-1.58083">
        <ele>76.5</ele>
        <time>2021-07-18T10:26:06Z</time>
      </trkpt>
      <trkpt lat="43.44833" lon="-1.58075">
        <ele>76.5</ele>
        <time>2021-07-18T10:26:08Z</time>
      </trkpt>
      <trkpt lat="43.44838" lon="-1.58071">
        <ele>76.5</ele>
        <time>2021-07-18T10:26:09Z</time>
      </trkpt>
      <trkpt lat="43.44847" lon="-1.58063">
        <ele>76.5</ele>
        <time>2021-07-18T10:26:11Z</time>
      </trkpt>
      <trkpt lat="43.44851" lon="-1.58059">
        <ele>76.5</ele>
        <time>2021-07-18T10:26:12Z</time>
      </trkpt>
      <trkpt lat="43.44855" lon="-1.58055">
        <ele>76.4</ele>
        <time>2021-07-18T10:26:13Z</time>
      </trkpt>
      <trkpt lat="43.4486" lon="-1.58051">
        <ele>76.4</ele>
        <time>2021-07-18T10:26:14Z</time>
      </trkpt>
      <trkpt lat="43.44864" lon="-1.58047">
        <ele>76.3</ele>
        <time>2021-07-18T10:26:15Z</time>
      </trkpt>
      <trkpt lat="43.44869" lon="-1.58043">
        <ele>76.3</ele>
        <time>2021-07-18T10:26:16Z</time>
      </trkpt>
      <trkpt lat="43.44878" lon="-1.58035">
        <ele>76.1</ele>
        <time>2021-07-18T10:26:18Z</time>
      </trkpt>
      <trkpt lat="43.44883" lon="-1.58032">
        <ele>76.1</ele>
        <time>2021-07-18T10:26:19Z</time>
      </trkpt>
      <trkpt lat="43.44894" lon="-1.58031">
        <ele>75.4</ele>
        <time>2021-07-18T10:26:21Z</time>
      </trkpt>
      <trkpt lat="43.44902" lon="-1.58027">
        <ele>75.2</ele>
        <time>2021-07-18T10:26:23Z</time>
      </trkpt>
      <trkpt lat="43.44905" lon="-1.58023">
        <ele>75.1</ele>
        <time>2021-07-18T10:26:24Z</time>
      </trkpt>
      <trkpt lat="43.44912" lon="-1.58012">
        <ele>74.7</ele>
        <time>2021-07-18T10:26:26Z</time>
      </trkpt>
      <trkpt lat="43.4492" lon="-1.58">
        <ele>74.3</ele>
        <time>2021-07-18T10:26:28Z</time>
      </trkpt>
      <trkpt lat="43.44923" lon="-1.57993">
        <ele>74.1</ele>
        <time>2021-07-18T10:26:29Z</time>
      </trkpt>
      <trkpt lat="43.4493" lon="-1.57978">
        <ele>73.5</ele>
        <time>2021-07-18T10:26:31Z</time>
      </trkpt>
      <trkpt lat="43.44933" lon="-1.57971">
        <ele>73.3</ele>
        <time>2021-07-18T10:26:32Z</time>
      </trkpt>
      <trkpt lat="43.44939" lon="-1.57955">
        <ele>72.8</ele>
        <time>2021-07-18T10:26:34Z</time>
      </trkpt>
      <trkpt lat="43.44941" lon="-1.57946">
        <ele>72.5</ele>
        <time>2021-07-18T10:26:35Z</time>
      </trkpt>
      <trkpt lat="43.44945" lon="-1.57928">
        <ele>71.9</ele>
        <time>2021-07-18T10:26:37Z</time>
      </trkpt>
      <trkpt lat="43.44947" lon="-1.57919">
        <ele>71.6</ele>
        <time>2021-07-18T10:26:38Z</time>
      </trkpt>
      <trkpt lat="43.44948" lon="-1.57909">
        <ele>71.3</ele>
        <time>2021-07-18T10:26:39Z</time>
      </trkpt>
      <trkpt lat="43.4495" lon="-1.579">
        <ele>70.9</ele>
        <time>2021-07-18T10:26:40Z</time>
      </trkpt>
      <trkpt lat="43.44953" lon="-1.5788">
        <ele>70.3</ele>
        <time>2021-07-18T10:26:42Z</time>
      </trkpt>
      <trkpt lat="43.44955" lon="-1.57869">
        <ele>70</ele>
        <time>2021-07-18T10:26:43Z</time>
      </trkpt>
      <trkpt lat="43.44959" lon="-1.57848">
        <ele>69.3</ele>
        <time>2021-07-18T10:26:45Z</time>
      </trkpt>
      <trkpt lat="43.44961" lon="-1.57837">
        <ele>69</ele>
        <time>2021-07-18T10:26:46Z</time>
      </trkpt>
      <trkpt lat="43.44965" lon="-1.57816">
        <ele>68.3</ele>
        <time>2021-07-18T10:26:48Z</time>
      </trkpt>
      <trkpt lat="43.44967" lon="-1.57805">
        <ele>68</ele>
        <time>2021-07-18T10:26:49Z</time>
      </trkpt>
      <trkpt lat="43.44974" lon="-1.57784">
        <ele>67.3</ele>
        <time>2021-07-18T10:26:51Z</time>
      </trkpt>
      <trkpt lat="43.44983" lon="-1.57764">
        <ele>66.6</ele>
        <time>2021-07-18T10:26:53Z</time>
      </trkpt>
      <trkpt lat="43.44993" lon="-1.57744">
        <ele>66</ele>
        <time>2021-07-18T10:26:55Z</time>
      </trkpt>
      <trkpt lat="43.44997" lon="-1.57734">
        <ele>65.7</ele>
        <time>2021-07-18T10:26:56Z</time>
      </trkpt>
      <trkpt lat="43.45002" lon="-1.57724">
        <ele>65.4</ele>
        <time>2021-07-18T10:26:57Z</time>
      </trkpt>
      <trkpt lat="43.45007" lon="-1.57713">
        <ele>65.1</ele>
        <time>2021-07-18T10:26:58Z</time>
      </trkpt>
      <trkpt lat="43.45012" lon="-1.57704">
        <ele>64.7</ele>
        <time>2021-07-18T10:26:59Z</time>
      </trkpt>
      <trkpt lat="43.45016" lon="-1.57694">
        <ele>64.4</ele>
        <time>2021-07-18T10:27:00Z</time>
      </trkpt>
      <trkpt lat="43.45026" lon="-1.57674">
        <ele>63.8</ele>
        <time>2021-07-18T10:27:02Z</time>
      </trkpt>
      <trkpt lat="43.45035" lon="-1.57654">
        <ele>63.2</ele>
        <time>2021-07-18T10:27:04Z</time>
      </trkpt>
      <trkpt lat="43.45039" lon="-1.57644">
        <ele>62.8</ele>
        <time>2021-07-18T10:27:05Z</time>
      </trkpt>
      <trkpt lat="43.45046" lon="-1.57622">
        <ele>62.1</ele>
        <time>2021-07-18T10:27:07Z</time>
      </trkpt>
      <trkpt lat="43.45051" lon="-1.57601">
        <ele>61.4</ele>
        <time>2021-07-18T10:27:09Z</time>
      </trkpt>
      <trkpt lat="43.45055" lon="-1.57579">
        <ele>60.6</ele>
        <time>2021-07-18T10:27:11Z</time>
      </trkpt>
      <trkpt lat="43.45058" lon="-1.57568">
        <ele>60.3</ele>
        <time>2021-07-18T10:27:12Z</time>
      </trkpt>
      <trkpt lat="43.45064" lon="-1.57545">
        <ele>59.5</ele>
        <time>2021-07-18T10:27:14Z</time>
      </trkpt>
      <trkpt lat="43.4507" lon="-1.57523">
        <ele>58.8</ele>
        <time>2021-07-18T10:27:16Z</time>
      </trkpt>
      <trkpt lat="43.45074" lon="-1.57512">
        <ele>58.5</ele>
        <time>2021-07-18T10:27:17Z</time>
      </trkpt>
      <trkpt lat="43.45078" lon="-1.57502">
        <ele>58.2</ele>
        <time>2021-07-18T10:27:18Z</time>
      </trkpt>
      <trkpt lat="43.45088" lon="-1.57484">
        <ele>57.7</ele>
        <time>2021-07-18T10:27:20Z</time>
      </trkpt>
      <trkpt lat="43.45093" lon="-1.57476">
        <ele>57.5</ele>
        <time>2021-07-18T10:27:21Z</time>
      </trkpt>
      <trkpt lat="43.45099" lon="-1.57468">
        <ele>57.4</ele>
        <time>2021-07-18T10:27:22Z</time>
      </trkpt>
      <trkpt lat="43.45111" lon="-1.57454">
        <ele>57.1</ele>
        <time>2021-07-18T10:27:24Z</time>
      </trkpt>
      <trkpt lat="43.45118" lon="-1.57449">
        <ele>56.9</ele>
        <time>2021-07-18T10:27:25Z</time>
      </trkpt>
      <trkpt lat="43.45131" lon="-1.57439">
        <ele>56.6</ele>
        <time>2021-07-18T10:27:27Z</time>
      </trkpt>
      <trkpt lat="43.45138" lon="-1.57434">
        <ele>56.4</ele>
        <time>2021-07-18T10:27:28Z</time>
      </trkpt>
      <trkpt lat="43.45145" lon="-1.5743">
        <ele>56.2</ele>
        <time>2021-07-18T10:27:29Z</time>
      </trkpt>
      <trkpt lat="43.45159" lon="-1.57423">
        <ele>55.8</ele>
        <time>2021-07-18T10:27:31Z</time>
      </trkpt>
      <trkpt lat="43.45173" lon="-1.57417">
        <ele>55.2</ele>
        <time>2021-07-18T10:27:33Z</time>
      </trkpt>
      <trkpt lat="43.45179" lon="-1.57413">
        <ele>55</ele>
        <time>2021-07-18T10:27:34Z</time>
      </trkpt>
      <trkpt lat="43.45193" lon="-1.57407">
        <ele>54.3</ele>
        <time>2021-07-18T10:27:36Z</time>
      </trkpt>
      <trkpt lat="43.45199" lon="-1.57404">
        <ele>53.9</ele>
        <time>2021-07-18T10:27:37Z</time>
      </trkpt>
      <trkpt lat="43.45213" lon="-1.57401">
        <ele>53.2</ele>
        <time>2021-07-18T10:27:39Z</time>
      </trkpt>
      <trkpt lat="43.45228" lon="-1.57399">
        <ele>52.3</ele>
        <time>2021-07-18T10:27:41Z</time>
      </trkpt>
      <trkpt lat="43.45236" lon="-1.57399">
        <ele>51.8</ele>
        <time>2021-07-18T10:27:42Z</time>
      </trkpt>
      <trkpt lat="43.45244" lon="-1.57399">
        <ele>51.3</ele>
        <time>2021-07-18T10:27:43Z</time>
      </trkpt>
      <trkpt lat="43.4526" lon="-1.57399">
        <ele>50.3</ele>
        <time>2021-07-18T10:27:45Z</time>
      </trkpt>
      <trkpt lat="43.45277" lon="-1.57397">
        <ele>49.3</ele>
        <time>2021-07-18T10:27:47Z</time>
      </trkpt>
      <trkpt lat="43.45294" lon="-1.57395">
        <ele>48.1</ele>
        <time>2021-07-18T10:27:49Z</time>
      </trkpt>
      <trkpt lat="43.45311" lon="-1.57391">
        <ele>46.9</ele>
        <time>2021-07-18T10:27:51Z</time>
      </trkpt>
      <trkpt lat="43.45329" lon="-1.57386">
        <ele>45.7</ele>
        <time>2021-07-18T10:27:53Z</time>
      </trkpt>
      <trkpt lat="43.45348" lon="-1.57381">
        <ele>44.3</ele>
        <time>2021-07-18T10:27:55Z</time>
      </trkpt>
      <trkpt lat="43.45365" lon="-1.57379">
        <ele>43.1</ele>
        <time>2021-07-18T10:27:57Z</time>
      </trkpt>
      <trkpt lat="43.45373" lon="-1.57377">
        <ele>42.5</ele>
        <time>2021-07-18T10:27:58Z</time>
      </trkpt>
      <trkpt lat="43.45381" lon="-1.57376">
        <ele>41.9</ele>
        <time>2021-07-18T10:27:59Z</time>
      </trkpt>
      <trkpt lat="43.45397" lon="-1.5737">
        <ele>40.6</ele>
        <time>2021-07-18T10:28:01Z</time>
      </trkpt>
      <trkpt lat="43.45405" lon="-1.57366">
        <ele>40</ele>
        <time>2021-07-18T10:28:02Z</time>
      </trkpt>
      <trkpt lat="43.45422" lon="-1.5736">
        <ele>38.8</ele>
        <time>2021-07-18T10:28:04Z</time>
      </trkpt>
      <trkpt lat="43.45439" lon="-1.57355">
        <ele>37.8</ele>
        <time>2021-07-18T10:28:06Z</time>
      </trkpt>
      <trkpt lat="43.45448" lon="-1.57352">
        <ele>37.4</ele>
        <time>2021-07-18T10:28:07Z</time>
      </trkpt>
      <trkpt lat="43.45466" lon="-1.57349">
        <ele>36.8</ele>
        <time>2021-07-18T10:28:09Z</time>
      </trkpt>
      <trkpt lat="43.45475" lon="-1.57348">
        <ele>36.7</ele>
        <time>2021-07-18T10:28:10Z</time>
      </trkpt>
      <trkpt lat="43.45484" lon="-1.57346">
        <ele>36.6</ele>
        <time>2021-07-18T10:28:11Z</time>
      </trkpt>
      <trkpt lat="43.45492" lon="-1.57345">
        <ele>36.7</ele>
        <time>2021-07-18T10:28:12Z</time>
      </trkpt>
      <trkpt lat="43.45508" lon="-1.57342">
        <ele>36.7</ele>
        <time>2021-07-18T10:28:14Z</time>
      </trkpt>
      <trkpt lat="43.45523" lon="-1.5734">
        <ele>36.8</ele>
        <time>2021-07-18T10:28:16Z</time>
      </trkpt>
      <trkpt lat="43.45537" lon="-1.57338">
        <ele>36.9</ele>
        <time>2021-07-18T10:28:18Z</time>
      </trkpt>
      <trkpt lat="43.45543" lon="-1.57337">
        <ele>36.9</ele>
        <time>2021-07-18T10:28:19Z</time>
      </trkpt>
      <trkpt lat="43.45549" lon="-1.57335">
        <ele>36.9</ele>
        <time>2021-07-18T10:28:20Z</time>
      </trkpt>
      <trkpt lat="43.45555" lon="-1.57333">
        <ele>37</ele>
        <time>2021-07-18T10:28:21Z</time>
      </trkpt>
      <trkpt lat="43.45566" lon="-1.57327">
        <ele>37</ele>
        <time>2021-07-18T10:28:23Z</time>
      </trkpt>
      <trkpt lat="43.45576" lon="-1.57321">
        <ele>37</ele>
        <time>2021-07-18T10:28:25Z</time>
      </trkpt>
      <trkpt lat="43.45584" lon="-1.57312">
        <ele>36.9</ele>
        <time>2021-07-18T10:28:27Z</time>
      </trkpt>
      <trkpt lat="43.45593" lon="-1.57305">
        <ele>36.8</ele>
        <time>2021-07-18T10:28:29Z</time>
      </trkpt>
      <trkpt lat="43.45597" lon="-1.57301">
        <ele>36.8</ele>
        <time>2021-07-18T10:28:30Z</time>
      </trkpt>
      <trkpt lat="43.45601" lon="-1.57296">
        <ele>36.7</ele>
        <time>2021-07-18T10:28:31Z</time>
      </trkpt>
      <trkpt lat="43.45605" lon="-1.57292">
        <ele>36.5</ele>
        <time>2021-07-18T10:28:32Z</time>
      </trkpt>
      <trkpt lat="43.45615" lon="-1.57283">
        <ele>36.3</ele>
        <time>2021-07-18T10:28:34Z</time>
      </trkpt>
      <trkpt lat="43.45625" lon="-1.57274">
        <ele>35.9</ele>
        <time>2021-07-18T10:28:36Z</time>
      </trkpt>
      <trkpt lat="43.45636" lon="-1.57264">
        <ele>35.6</ele>
        <time>2021-07-18T10:28:38Z</time>
      </trkpt>
      <trkpt lat="43.45642" lon="-1.57259">
        <ele>35.4</ele>
        <time>2021-07-18T10:28:39Z</time>
      </trkpt>
      <trkpt lat="43.45654" lon="-1.57249">
        <ele>35.1</ele>
        <time>2021-07-18T10:28:41Z</time>
      </trkpt>
      <trkpt lat="43.45667" lon="-1.57243">
        <ele>34.8</ele>
        <time>2021-07-18T10:28:43Z</time>
      </trkpt>
      <trkpt lat="43.45674" lon="-1.57241">
        <ele>34.7</ele>
        <time>2021-07-18T10:28:44Z</time>
      </trkpt>
      <trkpt lat="43.45681" lon="-1.57239">
        <ele>34.6</ele>
        <time>2021-07-18T10:28:45Z</time>
      </trkpt>
      <trkpt lat="43.45689" lon="-1.57238">
        <ele>34.5</ele>
        <time>2021-07-18T10:28:46Z</time>
      </trkpt>
      <trkpt lat="43.45702" lon="-1.57239">
        <ele>34.3</ele>
        <time>2021-07-18T10:28:48Z</time>
      </trkpt>
      <trkpt lat="43.45707" lon="-1.5724">
        <ele>34.2</ele>
        <time>2021-07-18T10:28:49Z</time>
      </trkpt>
      <trkpt lat="43.45713" lon="-1.57241">
        <ele>34.1</ele>
        <time>2021-07-18T10:28:50Z</time>
      </trkpt>
      <trkpt lat="43.45725" lon="-1.57244">
        <ele>33.9</ele>
        <time>2021-07-18T10:28:52Z</time>
      </trkpt>
      <trkpt lat="43.45736" lon="-1.57246">
        <ele>33.8</ele>
        <time>2021-07-18T10:28:54Z</time>
      </trkpt>
      <trkpt lat="43.45746" lon="-1.57248">
        <ele>33.6</ele>
        <time>2021-07-18T10:28:56Z</time>
      </trkpt>
      <trkpt lat="43.45757" lon="-1.5725">
        <ele>33.4</ele>
        <time>2021-07-18T10:28:58Z</time>
      </trkpt>
      <trkpt lat="43.45762" lon="-1.5725">
        <ele>33.3</ele>
        <time>2021-07-18T10:28:59Z</time>
      </trkpt>
      <trkpt lat="43.45768" lon="-1.57251">
        <ele>33.2</ele>
        <time>2021-07-18T10:29:00Z</time>
      </trkpt>
      <trkpt lat="43.45778" lon="-1.57251">
        <ele>33</ele>
        <time>2021-07-18T10:29:02Z</time>
      </trkpt>
      <trkpt lat="43.45783" lon="-1.57251">
        <ele>33</ele>
        <time>2021-07-18T10:29:03Z</time>
      </trkpt>
      <trkpt lat="43.45793" lon="-1.57253">
        <ele>32.8</ele>
        <time>2021-07-18T10:29:05Z</time>
      </trkpt>
      <trkpt lat="43.45798" lon="-1.57254">
        <ele>32.8</ele>
        <time>2021-07-18T10:29:06Z</time>
      </trkpt>
      <trkpt lat="43.45802" lon="-1.57256">
        <ele>32.7</ele>
        <time>2021-07-18T10:29:07Z</time>
      </trkpt>
      <trkpt lat="43.45809" lon="-1.57256">
        <ele>32.7</ele>
        <time>2021-07-18T10:29:09Z</time>
      </trkpt>
      <trkpt lat="43.45815" lon="-1.5726">
        <ele>32.7</ele>
        <time>2021-07-18T10:29:11Z</time>
      </trkpt>
      <trkpt lat="43.45817" lon="-1.57263">
        <ele>32.7</ele>
        <time>2021-07-18T10:29:12Z</time>
      </trkpt>
      <trkpt lat="43.4582" lon="-1.5727">
        <ele>32.6</ele>
        <time>2021-07-18T10:29:14Z</time>
      </trkpt>
      <trkpt lat="43.45822" lon="-1.57268">
        <ele>32.6</ele>
        <time>2021-07-18T10:29:16Z</time>
      </trkpt>
      <trkpt lat="43.45826" lon="-1.57268">
        <ele>32.5</ele>
        <time>2021-07-18T10:29:18Z</time>
      </trkpt>
      <trkpt lat="43.4583" lon="-1.57268">
        <ele>32.1</ele>
        <time>2021-07-18T10:29:19Z</time>
      </trkpt>
      <trkpt lat="43.45835" lon="-1.57265">
        <ele>31.6</ele>
        <time>2021-07-18T10:29:21Z</time>
      </trkpt>
      <trkpt lat="43.45839" lon="-1.5726">
        <ele>31.2</ele>
        <time>2021-07-18T10:29:22Z</time>
      </trkpt>
      <trkpt lat="43.45845" lon="-1.57254">
        <ele>30.6</ele>
        <time>2021-07-18T10:29:24Z</time>
      </trkpt>
      <trkpt lat="43.45852" lon="-1.57247">
        <ele>29.8</ele>
        <time>2021-07-18T10:29:25Z</time>
      </trkpt>
      <trkpt lat="43.45857" lon="-1.57245">
        <ele>29.3</ele>
        <time>2021-07-18T10:29:26Z</time>
      </trkpt>
      <trkpt lat="43.45868" lon="-1.5724">
        <ele>28.4</ele>
        <time>2021-07-18T10:29:28Z</time>
      </trkpt>
      <trkpt lat="43.45874" lon="-1.57237">
        <ele>27.9</ele>
        <time>2021-07-18T10:29:29Z</time>
      </trkpt>
      <trkpt lat="43.45887" lon="-1.5723">
        <ele>26.9</ele>
        <time>2021-07-18T10:29:31Z</time>
      </trkpt>
      <trkpt lat="43.45901" lon="-1.57222">
        <ele>25.7</ele>
        <time>2021-07-18T10:29:33Z</time>
      </trkpt>
      <trkpt lat="43.45909" lon="-1.57218">
        <ele>25.1</ele>
        <time>2021-07-18T10:29:34Z</time>
      </trkpt>
      <trkpt lat="43.45923" lon="-1.57208">
        <ele>24</ele>
        <time>2021-07-18T10:29:36Z</time>
      </trkpt>
      <trkpt lat="43.45931" lon="-1.57204">
        <ele>23.4</ele>
        <time>2021-07-18T10:29:37Z</time>
      </trkpt>
      <trkpt lat="43.45939" lon="-1.57199">
        <ele>22.7</ele>
        <time>2021-07-18T10:29:38Z</time>
      </trkpt>
      <trkpt lat="43.45955" lon="-1.57188">
        <ele>21.4</ele>
        <time>2021-07-18T10:29:40Z</time>
      </trkpt>
      <trkpt lat="43.45972" lon="-1.57178">
        <ele>20.3</ele>
        <time>2021-07-18T10:29:42Z</time>
      </trkpt>
      <trkpt lat="43.45988" lon="-1.57167">
        <ele>19.3</ele>
        <time>2021-07-18T10:29:44Z</time>
      </trkpt>
      <trkpt lat="43.45997" lon="-1.57162">
        <ele>18.9</ele>
        <time>2021-07-18T10:29:45Z</time>
      </trkpt>
      <trkpt lat="43.46014" lon="-1.57152">
        <ele>18.2</ele>
        <time>2021-07-18T10:29:47Z</time>
      </trkpt>
      <trkpt lat="43.46022" lon="-1.57146">
        <ele>18</ele>
        <time>2021-07-18T10:29:48Z</time>
      </trkpt>
      <trkpt lat="43.4603" lon="-1.57141">
        <ele>17.9</ele>
        <time>2021-07-18T10:29:49Z</time>
      </trkpt>
      <trkpt lat="43.46046" lon="-1.5713">
        <ele>18.1</ele>
        <time>2021-07-18T10:29:51Z</time>
      </trkpt>
      <trkpt lat="43.46053" lon="-1.57126">
        <ele>18.2</ele>
        <time>2021-07-18T10:29:52Z</time>
      </trkpt>
      <trkpt lat="43.4606" lon="-1.57121">
        <ele>18.5</ele>
        <time>2021-07-18T10:29:53Z</time>
      </trkpt>
      <trkpt lat="43.46073" lon="-1.57114">
        <ele>19</ele>
        <time>2021-07-18T10:29:55Z</time>
      </trkpt>
      <trkpt lat="43.46079" lon="-1.5711">
        <ele>19.3</ele>
        <time>2021-07-18T10:29:56Z</time>
      </trkpt>
      <trkpt lat="43.46085" lon="-1.57106">
        <ele>19.6</ele>
        <time>2021-07-18T10:29:57Z</time>
      </trkpt>
      <trkpt lat="43.4609" lon="-1.57103">
        <ele>20</ele>
        <time>2021-07-18T10:29:58Z</time>
      </trkpt>
      <trkpt lat="43.461" lon="-1.57096">
        <ele>20.6</ele>
        <time>2021-07-18T10:30:00Z</time>
      </trkpt>
      <trkpt lat="43.46104" lon="-1.57094">
        <ele>20.9</ele>
        <time>2021-07-18T10:30:01Z</time>
      </trkpt>
      <trkpt lat="43.4611" lon="-1.5709">
        <ele>21.3</ele>
        <time>2021-07-18T10:30:03Z</time>
      </trkpt>
      <trkpt lat="43.46113" lon="-1.57089">
        <ele>21.5</ele>
        <time>2021-07-18T10:30:04Z</time>
      </trkpt>
      <trkpt lat="43.4612" lon="-1.57085">
        <ele>21.9</ele>
        <time>2021-07-18T10:30:06Z</time>
      </trkpt>
      <trkpt lat="43.46122" lon="-1.57083">
        <ele>22.1</ele>
        <time>2021-07-18T10:30:07Z</time>
      </trkpt>
      <trkpt lat="43.46129" lon="-1.57079">
        <ele>22.5</ele>
        <time>2021-07-18T10:30:09Z</time>
      </trkpt>
      <trkpt lat="43.46131" lon="-1.57078">
        <ele>22.7</ele>
        <time>2021-07-18T10:30:10Z</time>
      </trkpt>
      <trkpt lat="43.46134" lon="-1.57073">
        <ele>22.9</ele>
        <time>2021-07-18T10:30:12Z</time>
      </trkpt>
      <trkpt lat="43.46137" lon="-1.57072">
        <ele>23.1</ele>
        <time>2021-07-18T10:30:14Z</time>
      </trkpt>
      <trkpt lat="43.46141" lon="-1.5707">
        <ele>23.4</ele>
        <time>2021-07-18T10:30:15Z</time>
      </trkpt>
      <trkpt lat="43.46144" lon="-1.57068">
        <ele>23.6</ele>
        <time>2021-07-18T10:30:16Z</time>
      </trkpt>
      <trkpt lat="43.46147" lon="-1.57066">
        <ele>23.8</ele>
        <time>2021-07-18T10:30:18Z</time>
      </trkpt>
      <trkpt lat="43.46152" lon="-1.57064">
        <ele>24.1</ele>
        <time>2021-07-18T10:30:20Z</time>
      </trkpt>
      <trkpt lat="43.46157" lon="-1.57062">
        <ele>24.4</ele>
        <time>2021-07-18T10:30:22Z</time>
      </trkpt>
      <trkpt lat="43.46161" lon="-1.57061">
        <ele>24.7</ele>
        <time>2021-07-18T10:30:23Z</time>
      </trkpt>
      <trkpt lat="43.46162" lon="-1.57061">
        <ele>24.7</ele>
        <time>2021-07-18T10:30:24Z</time>
      </trkpt>
      <trkpt lat="43.46165" lon="-1.5706">
        <ele>24.9</ele>
        <time>2021-07-18T10:30:25Z</time>
      </trkpt>
      <trkpt lat="43.4617" lon="-1.5706">
        <ele>25.2</ele>
        <time>2021-07-18T10:30:27Z</time>
      </trkpt>
      <trkpt lat="43.46172" lon="-1.5706">
        <ele>25.4</ele>
        <time>2021-07-18T10:30:28Z</time>
      </trkpt>
      <trkpt lat="43.46174" lon="-1.5706">
        <ele>25.4</ele>
        <time>2021-07-18T10:30:29Z</time>
      </trkpt>
      <trkpt lat="43.46176" lon="-1.5706">
        <ele>25.6</ele>
        <time>2021-07-18T10:30:30Z</time>
      </trkpt>
      <trkpt lat="43.46181" lon="-1.57061">
        <ele>25.9</ele>
        <time>2021-07-18T10:30:32Z</time>
      </trkpt>
      <trkpt lat="43.46186" lon="-1.5706">
        <ele>26.1</ele>
        <time>2021-07-18T10:30:34Z</time>
      </trkpt>
      <trkpt lat="43.46189" lon="-1.57062">
        <ele>26.2</ele>
        <time>2021-07-18T10:30:36Z</time>
      </trkpt>
      <trkpt lat="43.46192" lon="-1.57064">
        <ele>26.3</ele>
        <time>2021-07-18T10:30:37Z</time>
      </trkpt>
      <trkpt lat="43.46194" lon="-1.57066">
        <ele>26.4</ele>
        <time>2021-07-18T10:30:38Z</time>
      </trkpt>
      <trkpt lat="43.46197" lon="-1.57068">
        <ele>26.4</ele>
        <time>2021-07-18T10:30:40Z</time>
      </trkpt>
      <trkpt lat="43.462" lon="-1.57071">
        <ele>26.5</ele>
        <time>2021-07-18T10:30:41Z</time>
      </trkpt>
      <trkpt lat="43.46202" lon="-1.57071">
        <ele>26.5</ele>
        <time>2021-07-18T10:30:42Z</time>
      </trkpt>
      <trkpt lat="43.46206" lon="-1.57067">
        <ele>26.4</ele>
        <time>2021-07-18T10:30:44Z</time>
      </trkpt>
      <trkpt lat="43.46208" lon="-1.57064">
        <ele>26.3</ele>
        <time>2021-07-18T10:30:45Z</time>
      </trkpt>
      <trkpt lat="43.4621" lon="-1.57063">
        <ele>26.3</ele>
        <time>2021-07-18T10:30:46Z</time>
      </trkpt>
      <trkpt lat="43.46215" lon="-1.57062">
        <ele>26.4</ele>
        <time>2021-07-18T10:30:48Z</time>
      </trkpt>
      <trkpt lat="43.46217" lon="-1.57062">
        <ele>26.5</ele>
        <time>2021-07-18T10:30:49Z</time>
      </trkpt>
      <trkpt lat="43.46222" lon="-1.57061">
        <ele>26.7</ele>
        <time>2021-07-18T10:30:51Z</time>
      </trkpt>
      <trkpt lat="43.46228" lon="-1.5706">
        <ele>26.9</ele>
        <time>2021-07-18T10:30:53Z</time>
      </trkpt>
      <trkpt lat="43.46232" lon="-1.57061">
        <ele>27</ele>
        <time>2021-07-18T10:30:55Z</time>
      </trkpt>
      <trkpt lat="43.46235" lon="-1.57063">
        <ele>27.1</ele>
        <time>2021-07-18T10:30:56Z</time>
      </trkpt>
      <trkpt lat="43.46239" lon="-1.57066">
        <ele>27.3</ele>
        <time>2021-07-18T10:30:58Z</time>
      </trkpt>
      <trkpt lat="43.46241" lon="-1.57069">
        <ele>27.4</ele>
        <time>2021-07-18T10:30:59Z</time>
      </trkpt>
      <trkpt lat="43.46245" lon="-1.57074">
        <ele>27.6</ele>
        <time>2021-07-18T10:31:01Z</time>
      </trkpt>
      <trkpt lat="43.46248" lon="-1.57076">
        <ele>27.8</ele>
        <time>2021-07-18T10:31:02Z</time>
      </trkpt>
      <trkpt lat="43.46249" lon="-1.57076">
        <ele>27.9</ele>
        <time>2021-07-18T10:31:03Z</time>
      </trkpt>
      <trkpt lat="43.46252" lon="-1.57076">
        <ele>28</ele>
        <time>2021-07-18T10:31:04Z</time>
      </trkpt>
      <trkpt lat="43.46258" lon="-1.57075">
        <ele>28.3</ele>
        <time>2021-07-18T10:31:06Z</time>
      </trkpt>
      <trkpt lat="43.4626" lon="-1.57073">
        <ele>28.4</ele>
        <time>2021-07-18T10:31:07Z</time>
      </trkpt>
      <trkpt lat="43.46263" lon="-1.57072">
        <ele>28.5</ele>
        <time>2021-07-18T10:31:08Z</time>
      </trkpt>
      <trkpt lat="43.4627" lon="-1.5707">
        <ele>28.6</ele>
        <time>2021-07-18T10:31:10Z</time>
      </trkpt>
      <trkpt lat="43.46276" lon="-1.57068">
        <ele>28.7</ele>
        <time>2021-07-18T10:31:12Z</time>
      </trkpt>
      <trkpt lat="43.46279" lon="-1.57068">
        <ele>28.7</ele>
        <time>2021-07-18T10:31:13Z</time>
      </trkpt>
      <trkpt lat="43.46284" lon="-1.57066">
        <ele>28.8</ele>
        <time>2021-07-18T10:31:15Z</time>
      </trkpt>
      <trkpt lat="43.46288" lon="-1.57066">
        <ele>28.9</ele>
        <time>2021-07-18T10:31:16Z</time>
      </trkpt>
      <trkpt lat="43.46292" lon="-1.57066">
        <ele>28.9</ele>
        <time>2021-07-18T10:31:17Z</time>
      </trkpt>
      <trkpt lat="43.46296" lon="-1.57066">
        <ele>29</ele>
        <time>2021-07-18T10:31:18Z</time>
      </trkpt>
      <trkpt lat="43.46299" lon="-1.57066">
        <ele>29</ele>
        <time>2021-07-18T10:31:19Z</time>
      </trkpt>
      <trkpt lat="43.46303" lon="-1.57065">
        <ele>29.1</ele>
        <time>2021-07-18T10:31:20Z</time>
      </trkpt>
      <trkpt lat="43.46308" lon="-1.57065">
        <ele>29.1</ele>
        <time>2021-07-18T10:31:22Z</time>
      </trkpt>
      <trkpt lat="43.46313" lon="-1.57065">
        <ele>29.2</ele>
        <time>2021-07-18T10:31:23Z</time>
      </trkpt>
      <trkpt lat="43.46316" lon="-1.57064">
        <ele>29.2</ele>
        <time>2021-07-18T10:31:24Z</time>
      </trkpt>
      <trkpt lat="43.46322" lon="-1.57063">
        <ele>29.3</ele>
        <time>2021-07-18T10:31:26Z</time>
      </trkpt>
      <trkpt lat="43.46326" lon="-1.57062">
        <ele>29.3</ele>
        <time>2021-07-18T10:31:27Z</time>
      </trkpt>
      <trkpt lat="43.4633" lon="-1.57062">
        <ele>29.4</ele>
        <time>2021-07-18T10:31:28Z</time>
      </trkpt>
      <trkpt lat="43.46333" lon="-1.57062">
        <ele>29.4</ele>
        <time>2021-07-18T10:31:29Z</time>
      </trkpt>
      <trkpt lat="43.4634" lon="-1.57061">
        <ele>29.4</ele>
        <time>2021-07-18T10:31:31Z</time>
      </trkpt>
      <trkpt lat="43.46344" lon="-1.5706">
        <ele>29.5</ele>
        <time>2021-07-18T10:31:32Z</time>
      </trkpt>
      <trkpt lat="43.46351" lon="-1.5706">
        <ele>29.4</ele>
        <time>2021-07-18T10:31:34Z</time>
      </trkpt>
      <trkpt lat="43.46354" lon="-1.5706">
        <ele>29.4</ele>
        <time>2021-07-18T10:31:35Z</time>
      </trkpt>
      <trkpt lat="43.46358" lon="-1.57059">
        <ele>29.4</ele>
        <time>2021-07-18T10:31:36Z</time>
      </trkpt>
      <trkpt lat="43.46364" lon="-1.57059">
        <ele>29.3</ele>
        <time>2021-07-18T10:31:38Z</time>
      </trkpt>
      <trkpt lat="43.4637" lon="-1.57059">
        <ele>29.2</ele>
        <time>2021-07-18T10:31:39Z</time>
      </trkpt>
      <trkpt lat="43.46377" lon="-1.57058">
        <ele>29.1</ele>
        <time>2021-07-18T10:31:41Z</time>
      </trkpt>
      <trkpt lat="43.46382" lon="-1.57057">
        <ele>29.1</ele>
        <time>2021-07-18T10:31:42Z</time>
      </trkpt>
      <trkpt lat="43.46388" lon="-1.57058">
        <ele>29.1</ele>
        <time>2021-07-18T10:31:43Z</time>
      </trkpt>
      <trkpt lat="43.46394" lon="-1.57059">
        <ele>29.1</ele>
        <time>2021-07-18T10:31:45Z</time>
      </trkpt>
      <trkpt lat="43.46398" lon="-1.57059">
        <ele>29</ele>
        <time>2021-07-18T10:31:46Z</time>
      </trkpt>
      <trkpt lat="43.46404" lon="-1.57061">
        <ele>28.9</ele>
        <time>2021-07-18T10:31:47Z</time>
      </trkpt>
      <trkpt lat="43.46409" lon="-1.57062">
        <ele>28.7</ele>
        <time>2021-07-18T10:31:48Z</time>
      </trkpt>
      <trkpt lat="43.46418" lon="-1.57065">
        <ele>28.5</ele>
        <time>2021-07-18T10:31:50Z</time>
      </trkpt>
      <trkpt lat="43.46423" lon="-1.57068">
        <ele>28.3</ele>
        <time>2021-07-18T10:31:51Z</time>
      </trkpt>
      <trkpt lat="43.46428" lon="-1.57071">
        <ele>28.2</ele>
        <time>2021-07-18T10:31:52Z</time>
      </trkpt>
      <trkpt lat="43.46438" lon="-1.57078">
        <ele>27.7</ele>
        <time>2021-07-18T10:31:54Z</time>
      </trkpt>
      <trkpt lat="43.46448" lon="-1.57086">
        <ele>26.9</ele>
        <time>2021-07-18T10:31:56Z</time>
      </trkpt>
      <trkpt lat="43.46453" lon="-1.57091">
        <ele>26.5</ele>
        <time>2021-07-18T10:31:57Z</time>
      </trkpt>
      <trkpt lat="43.46459" lon="-1.57097">
        <ele>26.1</ele>
        <time>2021-07-18T10:31:58Z</time>
      </trkpt>
      <trkpt lat="43.4647" lon="-1.57108">
        <ele>25.1</ele>
        <time>2021-07-18T10:32:00Z</time>
      </trkpt>
      <trkpt lat="43.46475" lon="-1.57114">
        <ele>24.6</ele>
        <time>2021-07-18T10:32:01Z</time>
      </trkpt>
      <trkpt lat="43.46487" lon="-1.57128">
        <ele>23.5</ele>
        <time>2021-07-18T10:32:03Z</time>
      </trkpt>
      <trkpt lat="43.46493" lon="-1.57136">
        <ele>22.9</ele>
        <time>2021-07-18T10:32:04Z</time>
      </trkpt>
      <trkpt lat="43.46505" lon="-1.57151">
        <ele>21.9</ele>
        <time>2021-07-18T10:32:06Z</time>
      </trkpt>
      <trkpt lat="43.46511" lon="-1.57157">
        <ele>21.6</ele>
        <time>2021-07-18T10:32:07Z</time>
      </trkpt>
      <trkpt lat="43.46526" lon="-1.57168">
        <ele>21.3</ele>
        <time>2021-07-18T10:32:09Z</time>
      </trkpt>
      <trkpt lat="43.46538" lon="-1.57183">
        <ele>20.8</ele>
        <time>2021-07-18T10:32:11Z</time>
      </trkpt>
      <trkpt lat="43.46551" lon="-1.57194">
        <ele>20.2</ele>
        <time>2021-07-18T10:32:13Z</time>
      </trkpt>
      <trkpt lat="43.46557" lon="-1.57199">
        <ele>19.9</ele>
        <time>2021-07-18T10:32:14Z</time>
      </trkpt>
      <trkpt lat="43.46564" lon="-1.57204">
        <ele>19.6</ele>
        <time>2021-07-18T10:32:15Z</time>
      </trkpt>
      <trkpt lat="43.46577" lon="-1.57211">
        <ele>19.1</ele>
        <time>2021-07-18T10:32:17Z</time>
      </trkpt>
      <trkpt lat="43.46584" lon="-1.57213">
        <ele>18.9</ele>
        <time>2021-07-18T10:32:18Z</time>
      </trkpt>
      <trkpt lat="43.46598" lon="-1.57216">
        <ele>18.6</ele>
        <time>2021-07-18T10:32:20Z</time>
      </trkpt>
      <trkpt lat="43.46611" lon="-1.57218">
        <ele>18.4</ele>
        <time>2021-07-18T10:32:22Z</time>
      </trkpt>
      <trkpt lat="43.46617" lon="-1.57218">
        <ele>18.4</ele>
        <time>2021-07-18T10:32:23Z</time>
      </trkpt>
      <trkpt lat="43.46623" lon="-1.57216">
        <ele>18.4</ele>
        <time>2021-07-18T10:32:24Z</time>
      </trkpt>
      <trkpt lat="43.46635" lon="-1.57213">
        <ele>18.5</ele>
        <time>2021-07-18T10:32:26Z</time>
      </trkpt>
      <trkpt lat="43.46646" lon="-1.57208">
        <ele>18.6</ele>
        <time>2021-07-18T10:32:28Z</time>
      </trkpt>
      <trkpt lat="43.46656" lon="-1.57202">
        <ele>18.9</ele>
        <time>2021-07-18T10:32:30Z</time>
      </trkpt>
      <trkpt lat="43.46661" lon="-1.57198">
        <ele>19</ele>
        <time>2021-07-18T10:32:31Z</time>
      </trkpt>
      <trkpt lat="43.46668" lon="-1.5719">
        <ele>19.2</ele>
        <time>2021-07-18T10:32:33Z</time>
      </trkpt>
      <trkpt lat="43.46673" lon="-1.57179">
        <ele>19.4</ele>
        <time>2021-07-18T10:32:35Z</time>
      </trkpt>
      <trkpt lat="43.46674" lon="-1.57173">
        <ele>19.4</ele>
        <time>2021-07-18T10:32:36Z</time>
      </trkpt>
      <trkpt lat="43.4668" lon="-1.57165">
        <ele>19.6</ele>
        <time>2021-07-18T10:32:38Z</time>
      </trkpt>
      <trkpt lat="43.46683" lon="-1.57162">
        <ele>19.6</ele>
        <time>2021-07-18T10:32:39Z</time>
      </trkpt>
      <trkpt lat="43.46689" lon="-1.57155">
        <ele>19.7</ele>
        <time>2021-07-18T10:32:41Z</time>
      </trkpt>
      <trkpt lat="43.46693" lon="-1.57148">
        <ele>19.9</ele>
        <time>2021-07-18T10:32:43Z</time>
      </trkpt>
      <trkpt lat="43.46697" lon="-1.57139">
        <ele>20</ele>
        <time>2021-07-18T10:32:44Z</time>
      </trkpt>
      <trkpt lat="43.46698" lon="-1.57136">
        <ele>20.1</ele>
        <time>2021-07-18T10:32:45Z</time>
      </trkpt>
      <trkpt lat="43.46699" lon="-1.5713">
        <ele>20.2</ele>
        <time>2021-07-18T10:32:47Z</time>
      </trkpt>
      <trkpt lat="43.46701" lon="-1.57124">
        <ele>20.3</ele>
        <time>2021-07-18T10:32:48Z</time>
      </trkpt>
      <trkpt lat="43.46702" lon="-1.57119">
        <ele>20.4</ele>
        <time>2021-07-18T10:32:49Z</time>
      </trkpt>
      <trkpt lat="43.46703" lon="-1.5711">
        <ele>20.5</ele>
        <time>2021-07-18T10:32:51Z</time>
      </trkpt>
      <trkpt lat="43.46704" lon="-1.57101">
        <ele>20.7</ele>
        <time>2021-07-18T10:32:53Z</time>
      </trkpt>
      <trkpt lat="43.46705" lon="-1.57092">
        <ele>20.9</ele>
        <time>2021-07-18T10:32:55Z</time>
      </trkpt>
      <trkpt lat="43.46705" lon="-1.57083">
        <ele>21.1</ele>
        <time>2021-07-18T10:32:57Z</time>
      </trkpt>
      <trkpt lat="43.46706" lon="-1.57076">
        <ele>21.3</ele>
        <time>2021-07-18T10:32:59Z</time>
      </trkpt>
      <trkpt lat="43.46707" lon="-1.5707">
        <ele>21.4</ele>
        <time>2021-07-18T10:33:00Z</time>
      </trkpt>
      <trkpt lat="43.46707" lon="-1.57063">
        <ele>21.5</ele>
        <time>2021-07-18T10:33:02Z</time>
      </trkpt>
      <trkpt lat="43.46709" lon="-1.57057">
        <ele>21.7</ele>
        <time>2021-07-18T10:33:03Z</time>
      </trkpt>
      <trkpt lat="43.4671" lon="-1.57048">
        <ele>21.8</ele>
        <time>2021-07-18T10:33:05Z</time>
      </trkpt>
      <trkpt lat="43.46712" lon="-1.5704">
        <ele>22</ele>
        <time>2021-07-18T10:33:07Z</time>
      </trkpt>
      <trkpt lat="43.46714" lon="-1.57035">
        <ele>22.1</ele>
        <time>2021-07-18T10:33:08Z</time>
      </trkpt>
      <trkpt lat="43.46717" lon="-1.57031">
        <ele>22.2</ele>
        <time>2021-07-18T10:33:10Z</time>
      </trkpt>
      <trkpt lat="43.46719" lon="-1.57027">
        <ele>22.2</ele>
        <time>2021-07-18T10:33:11Z</time>
      </trkpt>
      <trkpt lat="43.46722" lon="-1.57022">
        <ele>22.3</ele>
        <time>2021-07-18T10:33:12Z</time>
      </trkpt>
      <trkpt lat="43.46726" lon="-1.57017">
        <ele>22.5</ele>
        <time>2021-07-18T10:33:14Z</time>
      </trkpt>
      <trkpt lat="43.46728" lon="-1.57014">
        <ele>22.6</ele>
        <time>2021-07-18T10:33:15Z</time>
      </trkpt>
      <trkpt lat="43.46731" lon="-1.57011">
        <ele>22.6</ele>
        <time>2021-07-18T10:33:16Z</time>
      </trkpt>
      <trkpt lat="43.46734" lon="-1.57007">
        <ele>22.7</ele>
        <time>2021-07-18T10:33:17Z</time>
      </trkpt>
      <trkpt lat="43.46736" lon="-1.57004">
        <ele>22.8</ele>
        <time>2021-07-18T10:33:18Z</time>
      </trkpt>
      <trkpt lat="43.46741" lon="-1.56998">
        <ele>23</ele>
        <time>2021-07-18T10:33:20Z</time>
      </trkpt>
      <trkpt lat="43.46743" lon="-1.56995">
        <ele>23.1</ele>
        <time>2021-07-18T10:33:21Z</time>
      </trkpt>
      <trkpt lat="43.46747" lon="-1.56991">
        <ele>23.2</ele>
        <time>2021-07-18T10:33:22Z</time>
      </trkpt>
      <trkpt lat="43.46749" lon="-1.56989">
        <ele>23.3</ele>
        <time>2021-07-18T10:33:23Z</time>
      </trkpt>
      <trkpt lat="43.46755" lon="-1.56983">
        <ele>23.5</ele>
        <time>2021-07-18T10:33:25Z</time>
      </trkpt>
      <trkpt lat="43.4676" lon="-1.56977">
        <ele>23.7</ele>
        <time>2021-07-18T10:33:27Z</time>
      </trkpt>
      <trkpt lat="43.46764" lon="-1.56971">
        <ele>23.8</ele>
        <time>2021-07-18T10:33:29Z</time>
      </trkpt>
      <trkpt lat="43.46767" lon="-1.56968">
        <ele>24</ele>
        <time>2021-07-18T10:33:30Z</time>
      </trkpt>
      <trkpt lat="43.4677" lon="-1.56965">
        <ele>24.1</ele>
        <time>2021-07-18T10:33:31Z</time>
      </trkpt>
      <trkpt lat="43.46775" lon="-1.56958">
        <ele>24.3</ele>
        <time>2021-07-18T10:33:33Z</time>
      </trkpt>
      <trkpt lat="43.46777" lon="-1.56956">
        <ele>24.4</ele>
        <time>2021-07-18T10:33:34Z</time>
      </trkpt>
      <trkpt lat="43.46779" lon="-1.56954">
        <ele>24.5</ele>
        <time>2021-07-18T10:33:35Z</time>
      </trkpt>
      <trkpt lat="43.46784" lon="-1.56948">
        <ele>24.6</ele>
        <time>2021-07-18T10:33:37Z</time>
      </trkpt>
      <trkpt lat="43.46787" lon="-1.56945">
        <ele>24.8</ele>
        <time>2021-07-18T10:33:38Z</time>
      </trkpt>
      <trkpt lat="43.46789" lon="-1.56943">
        <ele>24.9</ele>
        <time>2021-07-18T10:33:39Z</time>
      </trkpt>
      <trkpt lat="43.46793" lon="-1.56939">
        <ele>25</ele>
        <time>2021-07-18T10:33:41Z</time>
      </trkpt>
      <trkpt lat="43.46797" lon="-1.56933">
        <ele>25.3</ele>
        <time>2021-07-18T10:33:43Z</time>
      </trkpt>
      <trkpt lat="43.468" lon="-1.56929">
        <ele>25.4</ele>
        <time>2021-07-18T10:33:44Z</time>
      </trkpt>
      <trkpt lat="43.46804" lon="-1.56925">
        <ele>25.6</ele>
        <time>2021-07-18T10:33:46Z</time>
      </trkpt>
      <trkpt lat="43.46806" lon="-1.56923">
        <ele>25.7</ele>
        <time>2021-07-18T10:33:47Z</time>
      </trkpt>
      <trkpt lat="43.46809" lon="-1.5692">
        <ele>25.9</ele>
        <time>2021-07-18T10:33:48Z</time>
      </trkpt>
      <trkpt lat="43.46813" lon="-1.56916">
        <ele>26.1</ele>
        <time>2021-07-18T10:33:50Z</time>
      </trkpt>
      <trkpt lat="43.46816" lon="-1.56912">
        <ele>26.2</ele>
        <time>2021-07-18T10:33:51Z</time>
      </trkpt>
      <trkpt lat="43.4682" lon="-1.56908">
        <ele>26.4</ele>
        <time>2021-07-18T10:33:53Z</time>
      </trkpt>
      <trkpt lat="43.46823" lon="-1.56904">
        <ele>26.6</ele>
        <time>2021-07-18T10:33:54Z</time>
      </trkpt>
      <trkpt lat="43.46826" lon="-1.569">
        <ele>26.7</ele>
        <time>2021-07-18T10:33:56Z</time>
      </trkpt>
      <trkpt lat="43.4683" lon="-1.56896">
        <ele>26.9</ele>
        <time>2021-07-18T10:33:58Z</time>
      </trkpt>
      <trkpt lat="43.46833" lon="-1.56892">
        <ele>27.1</ele>
        <time>2021-07-18T10:33:59Z</time>
      </trkpt>
      <trkpt lat="43.46835" lon="-1.56889">
        <ele>27.2</ele>
        <time>2021-07-18T10:34:00Z</time>
      </trkpt>
      <trkpt lat="43.46837" lon="-1.56887">
        <ele>27.3</ele>
        <time>2021-07-18T10:34:01Z</time>
      </trkpt>
      <trkpt lat="43.4684" lon="-1.56882">
        <ele>27.5</ele>
        <time>2021-07-18T10:34:03Z</time>
      </trkpt>
      <trkpt lat="43.46843" lon="-1.56878">
        <ele>27.6</ele>
        <time>2021-07-18T10:34:04Z</time>
      </trkpt>
      <trkpt lat="43.46847" lon="-1.56874">
        <ele>27.8</ele>
        <time>2021-07-18T10:34:06Z</time>
      </trkpt>
      <trkpt lat="43.46851" lon="-1.5687">
        <ele>28</ele>
        <time>2021-07-18T10:34:07Z</time>
      </trkpt>
      <trkpt lat="43.46855" lon="-1.56867">
        <ele>28.2</ele>
        <time>2021-07-18T10:34:09Z</time>
      </trkpt>
      <trkpt lat="43.46858" lon="-1.56863">
        <ele>28.4</ele>
        <time>2021-07-18T10:34:10Z</time>
      </trkpt>
      <trkpt lat="43.4686" lon="-1.56861">
        <ele>28.5</ele>
        <time>2021-07-18T10:34:11Z</time>
      </trkpt>
      <trkpt lat="43.46865" lon="-1.56857">
        <ele>28.6</ele>
        <time>2021-07-18T10:34:13Z</time>
      </trkpt>
      <trkpt lat="43.4687" lon="-1.56853">
        <ele>28.8</ele>
        <time>2021-07-18T10:34:15Z</time>
      </trkpt>
      <trkpt lat="43.46873" lon="-1.56851">
        <ele>28.8</ele>
        <time>2021-07-18T10:34:16Z</time>
      </trkpt>
      <trkpt lat="43.46878" lon="-1.56848">
        <ele>29</ele>
        <time>2021-07-18T10:34:18Z</time>
      </trkpt>
      <trkpt lat="43.46881" lon="-1.56845">
        <ele>29.1</ele>
        <time>2021-07-18T10:34:19Z</time>
      </trkpt>
      <trkpt lat="43.46882" lon="-1.56844">
        <ele>29.1</ele>
        <time>2021-07-18T10:34:20Z</time>
      </trkpt>
      <trkpt lat="43.46884" lon="-1.56843">
        <ele>29.1</ele>
        <time>2021-07-18T10:34:21Z</time>
      </trkpt>
      <trkpt lat="43.46888" lon="-1.5684">
        <ele>29.3</ele>
        <time>2021-07-18T10:34:23Z</time>
      </trkpt>
      <trkpt lat="43.46891" lon="-1.56838">
        <ele>29.4</ele>
        <time>2021-07-18T10:34:24Z</time>
      </trkpt>
      <trkpt lat="43.46892" lon="-1.56837">
        <ele>29.4</ele>
        <time>2021-07-18T10:34:25Z</time>
      </trkpt>
      <trkpt lat="43.46895" lon="-1.56835">
        <ele>29.5</ele>
        <time>2021-07-18T10:34:27Z</time>
      </trkpt>
      <trkpt lat="43.46898" lon="-1.56834">
        <ele>29.7</ele>
        <time>2021-07-18T10:34:28Z</time>
      </trkpt>
      <trkpt lat="43.46901" lon="-1.56832">
        <ele>29.8</ele>
        <time>2021-07-18T10:34:29Z</time>
      </trkpt>
      <trkpt lat="43.46904" lon="-1.56829">
        <ele>29.9</ele>
        <time>2021-07-18T10:34:30Z</time>
      </trkpt>
      <trkpt lat="43.46905" lon="-1.56828">
        <ele>30</ele>
        <time>2021-07-18T10:34:31Z</time>
      </trkpt>
      <trkpt lat="43.4691" lon="-1.56825">
        <ele>30.2</ele>
        <time>2021-07-18T10:34:33Z</time>
      </trkpt>
      <trkpt lat="43.46913" lon="-1.56822">
        <ele>30.4</ele>
        <time>2021-07-18T10:34:34Z</time>
      </trkpt>
      <trkpt lat="43.46914" lon="-1.56822">
        <ele>30.4</ele>
        <time>2021-07-18T10:34:35Z</time>
      </trkpt>
      <trkpt lat="43.46919" lon="-1.56818">
        <ele>30.6</ele>
        <time>2021-07-18T10:34:37Z</time>
      </trkpt>
      <trkpt lat="43.46922" lon="-1.56815">
        <ele>30.8</ele>
        <time>2021-07-18T10:34:39Z</time>
      </trkpt>
      <trkpt lat="43.46925" lon="-1.56813">
        <ele>31</ele>
        <time>2021-07-18T10:34:40Z</time>
      </trkpt>
      <trkpt lat="43.46928" lon="-1.56811">
        <ele>31.1</ele>
        <time>2021-07-18T10:34:41Z</time>
      </trkpt>
      <trkpt lat="43.46933" lon="-1.56807">
        <ele>31.4</ele>
        <time>2021-07-18T10:34:43Z</time>
      </trkpt>
      <trkpt lat="43.46936" lon="-1.56804">
        <ele>31.5</ele>
        <time>2021-07-18T10:34:45Z</time>
      </trkpt>
      <trkpt lat="43.46939" lon="-1.56802">
        <ele>31.7</ele>
        <time>2021-07-18T10:34:46Z</time>
      </trkpt>
      <trkpt lat="43.46943" lon="-1.568">
        <ele>31.8</ele>
        <time>2021-07-18T10:34:47Z</time>
      </trkpt>
      <trkpt lat="43.46945" lon="-1.56798">
        <ele>32</ele>
        <time>2021-07-18T10:34:48Z</time>
      </trkpt>
      <trkpt lat="43.4695" lon="-1.56795">
        <ele>32.2</ele>
        <time>2021-07-18T10:34:50Z</time>
      </trkpt>
      <trkpt lat="43.46952" lon="-1.56793">
        <ele>32.3</ele>
        <time>2021-07-18T10:34:51Z</time>
      </trkpt>
      <trkpt lat="43.46956" lon="-1.5679">
        <ele>32.5</ele>
        <time>2021-07-18T10:34:52Z</time>
      </trkpt>
      <trkpt lat="43.4696" lon="-1.56787">
        <ele>32.7</ele>
        <time>2021-07-18T10:34:54Z</time>
      </trkpt>
      <trkpt lat="43.46962" lon="-1.56784">
        <ele>32.8</ele>
        <time>2021-07-18T10:34:55Z</time>
      </trkpt>
      <trkpt lat="43.46966" lon="-1.56782">
        <ele>33</ele>
        <time>2021-07-18T10:34:56Z</time>
      </trkpt>
      <trkpt lat="43.46968" lon="-1.56779">
        <ele>33.1</ele>
        <time>2021-07-18T10:34:58Z</time>
      </trkpt>
      <trkpt lat="43.46971" lon="-1.56777">
        <ele>33.3</ele>
        <time>2021-07-18T10:34:59Z</time>
      </trkpt>
      <trkpt lat="43.46975" lon="-1.56774">
        <ele>33.4</ele>
        <time>2021-07-18T10:35:00Z</time>
      </trkpt>
      <trkpt lat="43.46978" lon="-1.56772">
        <ele>33.6</ele>
        <time>2021-07-18T10:35:01Z</time>
      </trkpt>
      <trkpt lat="43.4698" lon="-1.56769">
        <ele>33.7</ele>
        <time>2021-07-18T10:35:02Z</time>
      </trkpt>
      <trkpt lat="43.46983" lon="-1.56766">
        <ele>33.9</ele>
        <time>2021-07-18T10:35:03Z</time>
      </trkpt>
      <trkpt lat="43.46987" lon="-1.56764">
        <ele>34</ele>
        <time>2021-07-18T10:35:05Z</time>
      </trkpt>
      <trkpt lat="43.46991" lon="-1.56761">
        <ele>34.2</ele>
        <time>2021-07-18T10:35:06Z</time>
      </trkpt>
      <trkpt lat="43.46995" lon="-1.56759">
        <ele>34.4</ele>
        <time>2021-07-18T10:35:07Z</time>
      </trkpt>
      <trkpt lat="43.46999" lon="-1.56756">
        <ele>34.5</ele>
        <time>2021-07-18T10:35:09Z</time>
      </trkpt>
      <trkpt lat="43.47003" lon="-1.56753">
        <ele>34.7</ele>
        <time>2021-07-18T10:35:10Z</time>
      </trkpt>
      <trkpt lat="43.47007" lon="-1.56751">
        <ele>34.9</ele>
        <time>2021-07-18T10:35:12Z</time>
      </trkpt>
      <trkpt lat="43.4701" lon="-1.56749">
        <ele>35</ele>
        <time>2021-07-18T10:35:13Z</time>
      </trkpt>
      <trkpt lat="43.47015" lon="-1.56747">
        <ele>35.2</ele>
        <time>2021-07-18T10:35:14Z</time>
      </trkpt>
      <trkpt lat="43.47019" lon="-1.56744">
        <ele>35.3</ele>
        <time>2021-07-18T10:35:16Z</time>
      </trkpt>
      <trkpt lat="43.47023" lon="-1.56741">
        <ele>35.5</ele>
        <time>2021-07-18T10:35:17Z</time>
      </trkpt>
      <trkpt lat="43.47026" lon="-1.56739">
        <ele>35.6</ele>
        <time>2021-07-18T10:35:18Z</time>
      </trkpt>
      <trkpt lat="43.4703" lon="-1.56737">
        <ele>35.8</ele>
        <time>2021-07-18T10:35:20Z</time>
      </trkpt>
      <trkpt lat="43.47033" lon="-1.56735">
        <ele>35.9</ele>
        <time>2021-07-18T10:35:21Z</time>
      </trkpt>
      <trkpt lat="43.47037" lon="-1.56732">
        <ele>36</ele>
        <time>2021-07-18T10:35:22Z</time>
      </trkpt>
      <trkpt lat="43.47042" lon="-1.56729">
        <ele>36.2</ele>
        <time>2021-07-18T10:35:24Z</time>
      </trkpt>
      <trkpt lat="43.47047" lon="-1.56726">
        <ele>36.5</ele>
        <time>2021-07-18T10:35:26Z</time>
      </trkpt>
      <trkpt lat="43.47051" lon="-1.56724">
        <ele>36.7</ele>
        <time>2021-07-18T10:35:28Z</time>
      </trkpt>
      <trkpt lat="43.47055" lon="-1.56721">
        <ele>36.8</ele>
        <time>2021-07-18T10:35:29Z</time>
      </trkpt>
      <trkpt lat="43.47057" lon="-1.56719">
        <ele>36.9</ele>
        <time>2021-07-18T10:35:30Z</time>
      </trkpt>
      <trkpt lat="43.4706" lon="-1.56718">
        <ele>37.1</ele>
        <time>2021-07-18T10:35:31Z</time>
      </trkpt>
      <trkpt lat="43.47063" lon="-1.56717">
        <ele>37.2</ele>
        <time>2021-07-18T10:35:32Z</time>
      </trkpt>
      <trkpt lat="43.47066" lon="-1.56715">
        <ele>37.4</ele>
        <time>2021-07-18T10:35:34Z</time>
      </trkpt>
      <trkpt lat="43.4707" lon="-1.56713">
        <ele>37.6</ele>
        <time>2021-07-18T10:35:35Z</time>
      </trkpt>
      <trkpt lat="43.47074" lon="-1.56711">
        <ele>37.8</ele>
        <time>2021-07-18T10:35:37Z</time>
      </trkpt>
      <trkpt lat="43.47078" lon="-1.56709">
        <ele>38.1</ele>
        <time>2021-07-18T10:35:39Z</time>
      </trkpt>
      <trkpt lat="43.4708" lon="-1.56707">
        <ele>38.2</ele>
        <time>2021-07-18T10:35:40Z</time>
      </trkpt>
      <trkpt lat="43.47084" lon="-1.56704">
        <ele>38.4</ele>
        <time>2021-07-18T10:35:42Z</time>
      </trkpt>
      <trkpt lat="43.47087" lon="-1.56702">
        <ele>38.6</ele>
        <time>2021-07-18T10:35:43Z</time>
      </trkpt>
      <trkpt lat="43.47088" lon="-1.56702">
        <ele>38.7</ele>
        <time>2021-07-18T10:35:44Z</time>
      </trkpt>
      <trkpt lat="43.47093" lon="-1.567">
        <ele>39</ele>
        <time>2021-07-18T10:35:46Z</time>
      </trkpt>
      <trkpt lat="43.47097" lon="-1.56697">
        <ele>39.3</ele>
        <time>2021-07-18T10:35:48Z</time>
      </trkpt>
      <trkpt lat="43.47101" lon="-1.56694">
        <ele>39.6</ele>
        <time>2021-07-18T10:35:50Z</time>
      </trkpt>
      <trkpt lat="43.47104" lon="-1.56692">
        <ele>39.8</ele>
        <time>2021-07-18T10:35:51Z</time>
      </trkpt>
      <trkpt lat="43.47105" lon="-1.56692">
        <ele>39.9</ele>
        <time>2021-07-18T10:35:52Z</time>
      </trkpt>
      <trkpt lat="43.47107" lon="-1.56691">
        <ele>40.1</ele>
        <time>2021-07-18T10:35:53Z</time>
      </trkpt>
      <trkpt lat="43.47111" lon="-1.56688">
        <ele>40.4</ele>
        <time>2021-07-18T10:35:55Z</time>
      </trkpt>
      <trkpt lat="43.47113" lon="-1.56687">
        <ele>40.5</ele>
        <time>2021-07-18T10:35:56Z</time>
      </trkpt>
      <trkpt lat="43.47117" lon="-1.56685">
        <ele>40.8</ele>
        <time>2021-07-18T10:35:58Z</time>
      </trkpt>
      <trkpt lat="43.47119" lon="-1.56684">
        <ele>41</ele>
        <time>2021-07-18T10:35:59Z</time>
      </trkpt>
      <trkpt lat="43.47123" lon="-1.56682">
        <ele>41.3</ele>
        <time>2021-07-18T10:36:01Z</time>
      </trkpt>
      <trkpt lat="43.47127" lon="-1.5668">
        <ele>41.6</ele>
        <time>2021-07-18T10:36:03Z</time>
      </trkpt>
      <trkpt lat="43.47129" lon="-1.56678">
        <ele>41.8</ele>
        <time>2021-07-18T10:36:04Z</time>
      </trkpt>
      <trkpt lat="43.47131" lon="-1.56677">
        <ele>42</ele>
        <time>2021-07-18T10:36:05Z</time>
      </trkpt>
      <trkpt lat="43.47135" lon="-1.56675">
        <ele>42.3</ele>
        <time>2021-07-18T10:36:07Z</time>
      </trkpt>
      <trkpt lat="43.47137" lon="-1.56674">
        <ele>42.4</ele>
        <time>2021-07-18T10:36:08Z</time>
      </trkpt>
      <trkpt lat="43.4714" lon="-1.56673">
        <ele>42.6</ele>
        <time>2021-07-18T10:36:10Z</time>
      </trkpt>
      <trkpt lat="43.47142" lon="-1.56672">
        <ele>42.9</ele>
        <time>2021-07-18T10:36:11Z</time>
      </trkpt>
      <trkpt lat="43.47146" lon="-1.5667">
        <ele>43.1</ele>
        <time>2021-07-18T10:36:12Z</time>
      </trkpt>
      <trkpt lat="43.47147" lon="-1.5667">
        <ele>43.2</ele>
        <time>2021-07-18T10:36:13Z</time>
      </trkpt>
      <trkpt lat="43.4715" lon="-1.56668">
        <ele>43.4</ele>
        <time>2021-07-18T10:36:15Z</time>
      </trkpt>
      <trkpt lat="43.47153" lon="-1.56667">
        <ele>43.6</ele>
        <time>2021-07-18T10:36:16Z</time>
      </trkpt>
      <trkpt lat="43.47157" lon="-1.56666">
        <ele>43.9</ele>
        <time>2021-07-18T10:36:18Z</time>
      </trkpt>
      <trkpt lat="43.47159" lon="-1.56665">
        <ele>44.1</ele>
        <time>2021-07-18T10:36:19Z</time>
      </trkpt>
      <trkpt lat="43.47164" lon="-1.56664">
        <ele>44.4</ele>
        <time>2021-07-18T10:36:21Z</time>
      </trkpt>
      <trkpt lat="43.47166" lon="-1.56662">
        <ele>44.6</ele>
        <time>2021-07-18T10:36:22Z</time>
      </trkpt>
      <trkpt lat="43.47171" lon="-1.56661">
        <ele>45</ele>
        <time>2021-07-18T10:36:24Z</time>
      </trkpt>
      <trkpt lat="43.47175" lon="-1.5666">
        <ele>45.3</ele>
        <time>2021-07-18T10:36:26Z</time>
      </trkpt>
      <trkpt lat="43.47179" lon="-1.5666">
        <ele>45.5</ele>
        <time>2021-07-18T10:36:27Z</time>
      </trkpt>
      <trkpt lat="43.4718" lon="-1.5666">
        <ele>45.6</ele>
        <time>2021-07-18T10:36:28Z</time>
      </trkpt>
      <trkpt lat="43.47184" lon="-1.5666">
        <ele>45.8</ele>
        <time>2021-07-18T10:36:29Z</time>
      </trkpt>
      <trkpt lat="43.47185" lon="-1.5666">
        <ele>45.9</ele>
        <time>2021-07-18T10:36:30Z</time>
      </trkpt>
      <trkpt lat="43.47189" lon="-1.5666">
        <ele>46.2</ele>
        <time>2021-07-18T10:36:32Z</time>
      </trkpt>
      <trkpt lat="43.47194" lon="-1.56659">
        <ele>46.5</ele>
        <time>2021-07-18T10:36:34Z</time>
      </trkpt>
      <trkpt lat="43.47199" lon="-1.56659">
        <ele>46.8</ele>
        <time>2021-07-18T10:36:36Z</time>
      </trkpt>
      <trkpt lat="43.47202" lon="-1.56659">
        <ele>46.9</ele>
        <time>2021-07-18T10:36:38Z</time>
      </trkpt>
      <trkpt lat="43.47206" lon="-1.56658">
        <ele>47.1</ele>
        <time>2021-07-18T10:36:39Z</time>
      </trkpt>
      <trkpt lat="43.47208" lon="-1.56658">
        <ele>47.2</ele>
        <time>2021-07-18T10:36:40Z</time>
      </trkpt>
      <trkpt lat="43.47213" lon="-1.56659">
        <ele>47.4</ele>
        <time>2021-07-18T10:36:42Z</time>
      </trkpt>
      <trkpt lat="43.47219" lon="-1.56659">
        <ele>47.5</ele>
        <time>2021-07-18T10:36:44Z</time>
      </trkpt>
      <trkpt lat="43.47222" lon="-1.56659">
        <ele>47.6</ele>
        <time>2021-07-18T10:36:45Z</time>
      </trkpt>
      <trkpt lat="43.47228" lon="-1.56659">
        <ele>47.8</ele>
        <time>2021-07-18T10:36:47Z</time>
      </trkpt>
      <trkpt lat="43.47234" lon="-1.56659">
        <ele>47.9</ele>
        <time>2021-07-18T10:36:49Z</time>
      </trkpt>
      <trkpt lat="43.47237" lon="-1.56659">
        <ele>48</ele>
        <time>2021-07-18T10:36:50Z</time>
      </trkpt>
      <trkpt lat="43.47241" lon="-1.56659">
        <ele>48</ele>
        <time>2021-07-18T10:36:51Z</time>
      </trkpt>
      <trkpt lat="43.47247" lon="-1.56659">
        <ele>48.1</ele>
        <time>2021-07-18T10:36:53Z</time>
      </trkpt>
      <trkpt lat="43.47251" lon="-1.56658">
        <ele>48.2</ele>
        <time>2021-07-18T10:36:54Z</time>
      </trkpt>
      <trkpt lat="43.47254" lon="-1.56658">
        <ele>48.2</ele>
        <time>2021-07-18T10:36:55Z</time>
      </trkpt>
      <trkpt lat="43.47258" lon="-1.56658">
        <ele>48.3</ele>
        <time>2021-07-18T10:36:56Z</time>
      </trkpt>
      <trkpt lat="43.47262" lon="-1.56657">
        <ele>48.3</ele>
        <time>2021-07-18T10:36:57Z</time>
      </trkpt>
      <trkpt lat="43.4727" lon="-1.56657">
        <ele>48.4</ele>
        <time>2021-07-18T10:36:59Z</time>
      </trkpt>
      <trkpt lat="43.47277" lon="-1.56656">
        <ele>48.4</ele>
        <time>2021-07-18T10:37:01Z</time>
      </trkpt>
      <trkpt lat="43.47282" lon="-1.56655">
        <ele>48.5</ele>
        <time>2021-07-18T10:37:02Z</time>
      </trkpt>
      <trkpt lat="43.47287" lon="-1.56653">
        <ele>48.5</ele>
        <time>2021-07-18T10:37:03Z</time>
      </trkpt>
      <trkpt lat="43.47292" lon="-1.5665">
        <ele>48.5</ele>
        <time>2021-07-18T10:37:05Z</time>
      </trkpt>
      <trkpt lat="43.47296" lon="-1.56645">
        <ele>48.6</ele>
        <time>2021-07-18T10:37:06Z</time>
      </trkpt>
      <trkpt lat="43.473" lon="-1.5664">
        <ele>48.6</ele>
        <time>2021-07-18T10:37:08Z</time>
      </trkpt>
      <trkpt lat="43.47304" lon="-1.56638">
        <ele>48.6</ele>
        <time>2021-07-18T10:37:09Z</time>
      </trkpt>
      <trkpt lat="43.47308" lon="-1.56638">
        <ele>48.7</ele>
        <time>2021-07-18T10:37:10Z</time>
      </trkpt>
      <trkpt lat="43.47313" lon="-1.5664">
        <ele>48.7</ele>
        <time>2021-07-18T10:37:11Z</time>
      </trkpt>
      <trkpt lat="43.47317" lon="-1.56645">
        <ele>48.6</ele>
        <time>2021-07-18T10:37:13Z</time>
      </trkpt>
      <trkpt lat="43.4732" lon="-1.56652">
        <ele>48.5</ele>
        <time>2021-07-18T10:37:14Z</time>
      </trkpt>
      <trkpt lat="43.47323" lon="-1.5666">
        <ele>48.4</ele>
        <time>2021-07-18T10:37:15Z</time>
      </trkpt>
      <trkpt lat="43.47326" lon="-1.56665">
        <ele>48.4</ele>
        <time>2021-07-18T10:37:17Z</time>
      </trkpt>
      <trkpt lat="43.47331" lon="-1.56667">
        <ele>48.4</ele>
        <time>2021-07-18T10:37:18Z</time>
      </trkpt>
      <trkpt lat="43.47337" lon="-1.56667">
        <ele>48.4</ele>
        <time>2021-07-18T10:37:19Z</time>
      </trkpt>
      <trkpt lat="43.47341" lon="-1.56668">
        <ele>48.4</ele>
        <time>2021-07-18T10:37:20Z</time>
      </trkpt>
      <trkpt lat="43.47346" lon="-1.56668">
        <ele>48.4</ele>
        <time>2021-07-18T10:37:21Z</time>
      </trkpt>
      <trkpt lat="43.47352" lon="-1.56668">
        <ele>48.4</ele>
        <time>2021-07-18T10:37:23Z</time>
      </trkpt>
      <trkpt lat="43.47358" lon="-1.56669">
        <ele>48.4</ele>
        <time>2021-07-18T10:37:24Z</time>
      </trkpt>
      <trkpt lat="43.47365" lon="-1.56668">
        <ele>48.4</ele>
        <time>2021-07-18T10:37:26Z</time>
      </trkpt>
      <trkpt lat="43.47372" lon="-1.56667">
        <ele>48.5</ele>
        <time>2021-07-18T10:37:27Z</time>
      </trkpt>
      <trkpt lat="43.47377" lon="-1.56665">
        <ele>48.5</ele>
        <time>2021-07-18T10:37:28Z</time>
      </trkpt>
      <trkpt lat="43.47381" lon="-1.56664">
        <ele>48.5</ele>
        <time>2021-07-18T10:37:29Z</time>
      </trkpt>
      <trkpt lat="43.47391" lon="-1.56662">
        <ele>48.5</ele>
        <time>2021-07-18T10:37:31Z</time>
      </trkpt>
      <trkpt lat="43.47395" lon="-1.56661">
        <ele>48.5</ele>
        <time>2021-07-18T10:37:32Z</time>
      </trkpt>
      <trkpt lat="43.47404" lon="-1.56659">
        <ele>48.5</ele>
        <time>2021-07-18T10:37:34Z</time>
      </trkpt>
      <trkpt lat="43.47409" lon="-1.56657">
        <ele>48.5</ele>
        <time>2021-07-18T10:37:35Z</time>
      </trkpt>
      <trkpt lat="43.47416" lon="-1.56657">
        <ele>48.5</ele>
        <time>2021-07-18T10:37:37Z</time>
      </trkpt>
      <trkpt lat="43.47419" lon="-1.56659">
        <ele>48.5</ele>
        <time>2021-07-18T10:37:38Z</time>
      </trkpt>
      <trkpt lat="43.47426" lon="-1.56656">
        <ele>48.4</ele>
        <time>2021-07-18T10:37:39Z</time>
      </trkpt>
      <trkpt lat="43.47431" lon="-1.56654">
        <ele>48.4</ele>
        <time>2021-07-18T10:37:40Z</time>
      </trkpt>
      <trkpt lat="43.4744" lon="-1.5665">
        <ele>48.3</ele>
        <time>2021-07-18T10:37:42Z</time>
      </trkpt>
      <trkpt lat="43.47449" lon="-1.56646">
        <ele>48.2</ele>
        <time>2021-07-18T10:37:44Z</time>
      </trkpt>
      <trkpt lat="43.47453" lon="-1.56645">
        <ele>48.2</ele>
        <time>2021-07-18T10:37:45Z</time>
      </trkpt>
      <trkpt lat="43.4746" lon="-1.56641">
        <ele>48.2</ele>
        <time>2021-07-18T10:37:47Z</time>
      </trkpt>
      <trkpt lat="43.47465" lon="-1.56638">
        <ele>48.1</ele>
        <time>2021-07-18T10:37:48Z</time>
      </trkpt>
      <trkpt lat="43.4747" lon="-1.56636">
        <ele>48.1</ele>
        <time>2021-07-18T10:37:49Z</time>
      </trkpt>
      <trkpt lat="43.47479" lon="-1.56632">
        <ele>48</ele>
        <time>2021-07-18T10:37:51Z</time>
      </trkpt>
      <trkpt lat="43.47488" lon="-1.5663">
        <ele>47.9</ele>
        <time>2021-07-18T10:37:53Z</time>
      </trkpt>
      <trkpt lat="43.47492" lon="-1.56629">
        <ele>47.8</ele>
        <time>2021-07-18T10:37:54Z</time>
      </trkpt>
      <trkpt lat="43.47496" lon="-1.56629">
        <ele>47.8</ele>
        <time>2021-07-18T10:37:56Z</time>
      </trkpt>
      <trkpt lat="43.475" lon="-1.56627">
        <ele>47.8</ele>
        <time>2021-07-18T10:37:57Z</time>
      </trkpt>
      <trkpt lat="43.47507" lon="-1.56622">
        <ele>47.8</ele>
        <time>2021-07-18T10:37:59Z</time>
      </trkpt>
      <trkpt lat="43.47509" lon="-1.56622">
        <ele>47.8</ele>
        <time>2021-07-18T10:38:00Z</time>
      </trkpt>
      <trkpt lat="43.47511" lon="-1.56621">
        <ele>47.8</ele>
        <time>2021-07-18T10:38:02Z</time>
      </trkpt>
      <trkpt lat="43.47511" lon="-1.56621">
        <ele>47.8</ele>
        <time>2021-07-18T10:38:03Z</time>
      </trkpt>
      <trkpt lat="43.47509" lon="-1.56622">
        <ele>47.8</ele>
        <time>2021-07-18T10:38:04Z</time>
      </trkpt>
      <trkpt lat="43.47509" lon="-1.56623">
        <ele>47.8</ele>
        <time>2021-07-18T10:38:06Z</time>
      </trkpt>
      <trkpt lat="43.4751" lon="-1.56625">
        <ele>47.8</ele>
        <time>2021-07-18T10:38:07Z</time>
      </trkpt>
      <trkpt lat="43.4751" lon="-1.56628">
        <ele>47.8</ele>
        <time>2021-07-18T10:38:09Z</time>
      </trkpt>
      <trkpt lat="43.47508" lon="-1.56631">
        <ele>47.8</ele>
        <time>2021-07-18T10:38:10Z</time>
      </trkpt>
      <trkpt lat="43.47506" lon="-1.56633">
        <ele>47.8</ele>
        <time>2021-07-18T10:38:12Z</time>
      </trkpt>
      <trkpt lat="43.47502" lon="-1.56634">
        <ele>47.8</ele>
        <time>2021-07-18T10:38:13Z</time>
      </trkpt>
      <trkpt lat="43.475" lon="-1.56635">
        <ele>47.8</ele>
        <time>2021-07-18T10:38:14Z</time>
      </trkpt>
      <trkpt lat="43.47496" lon="-1.56639">
        <ele>47.8</ele>
        <time>2021-07-18T10:38:16Z</time>
      </trkpt>
      <trkpt lat="43.47496" lon="-1.56643">
        <ele>47.8</ele>
        <time>2021-07-18T10:38:17Z</time>
      </trkpt>
      <trkpt lat="43.47496" lon="-1.56645">
        <ele>47.3</ele>
        <time>2021-07-18T10:38:18Z</time>
      </trkpt>
      <trkpt lat="43.47498" lon="-1.56649">
        <ele>47.2</ele>
        <time>2021-07-18T10:38:20Z</time>
      </trkpt>
      <trkpt lat="43.47502" lon="-1.56651">
        <ele>47.2</ele>
        <time>2021-07-18T10:38:21Z</time>
      </trkpt>
      <trkpt lat="43.47506" lon="-1.56651">
        <ele>47</ele>
        <time>2021-07-18T10:38:23Z</time>
      </trkpt>
      <trkpt lat="43.47509" lon="-1.56652">
        <ele>47</ele>
        <time>2021-07-18T10:38:24Z</time>
      </trkpt>
      <trkpt lat="43.47511" lon="-1.56651">
        <ele>46.9</ele>
        <time>2021-07-18T10:38:26Z</time>
      </trkpt>
      <trkpt lat="43.47511" lon="-1.56649">
        <ele>46.9</ele>
        <time>2021-07-18T10:38:28Z</time>
      </trkpt>
      <trkpt lat="43.47511" lon="-1.56649">
        <ele>46.9</ele>
        <time>2021-07-18T10:38:29Z</time>
      </trkpt>
      <trkpt lat="43.47511" lon="-1.56649">
        <ele>46.9</ele>
        <time>2021-07-18T10:38:30Z</time>
      </trkpt>
      <trkpt lat="43.47511" lon="-1.56649">
        <ele>46.9</ele>
        <time>2021-07-18T10:38:31Z</time>
      </trkpt>
      <trkpt lat="43.47511" lon="-1.56649">
        <ele>46.9</ele>
        <time>2021-07-18T10:38:33Z</time>
      </trkpt>
      <trkpt lat="43.4751" lon="-1.56649">
        <ele>46.9</ele>
        <time>2021-07-18T10:38:35Z</time>
      </trkpt>
      <trkpt lat="43.4751" lon="-1.56648">
        <ele>46.9</ele>
        <time>2021-07-18T10:38:36Z</time>
      </trkpt>
      <trkpt lat="43.4751" lon="-1.56648">
        <ele>46.8</ele>
        <time>2021-07-18T10:38:38Z</time>
      </trkpt>
      <trkpt lat="43.4751" lon="-1.56648">
        <ele>46.8</ele>
        <time>2021-07-18T10:38:39Z</time>
      </trkpt>
      <trkpt lat="43.4751" lon="-1.56648">
        <ele>46.8</ele>
        <time>2021-07-18T10:38:40Z</time>
      </trkpt>
      <trkpt lat="43.47509" lon="-1.5665">
        <ele>46.8</ele>
        <time>2021-07-18T10:38:42Z</time>
      </trkpt>
      <trkpt lat="43.47508" lon="-1.56651">
        <ele>46.8</ele>
        <time>2021-07-18T10:38:43Z</time>
      </trkpt>
      <trkpt lat="43.47508" lon="-1.56652">
        <ele>46.8</ele>
        <time>2021-07-18T10:38:44Z</time>
      </trkpt>
      <trkpt lat="43.47509" lon="-1.56652">
        <ele>46.8</ele>
        <time>2021-07-18T10:38:46Z</time>
      </trkpt>
      <trkpt lat="43.47508" lon="-1.56653">
        <ele>46.7</ele>
        <time>2021-07-18T10:38:48Z</time>
      </trkpt>
      <trkpt lat="43.47508" lon="-1.56653">
        <ele>46.7</ele>
        <time>2021-07-18T10:38:49Z</time>
      </trkpt>
      <trkpt lat="43.47508" lon="-1.56653">
        <ele>46.7</ele>
        <time>2021-07-18T10:38:50Z</time>
      </trkpt>
      <trkpt lat="43.47508" lon="-1.56653">
        <ele>46.7</ele>
        <time>2021-07-18T10:38:51Z</time>
      </trkpt>
      <trkpt lat="43.47508" lon="-1.56653">
        <ele>46.7</ele>
        <time>2021-07-18T10:38:53Z</time>
      </trkpt>
      <trkpt lat="43.4751" lon="-1.56656">
        <ele>46.7</ele>
        <time>2021-07-18T10:42:44Z</time>
      </trkpt>
      <trkpt lat="43.4751" lon="-1.56657">
        <ele>46.6</ele>
        <time>2021-07-18T10:42:45Z</time>
      </trkpt>
      <trkpt lat="43.4751" lon="-1.5666">
        <ele>46.6</ele>
        <time>2021-07-18T10:42:47Z</time>
      </trkpt>
      <trkpt lat="43.4751" lon="-1.56662">
        <ele>46.5</ele>
        <time>2021-07-18T10:42:49Z</time>
      </trkpt>
      <trkpt lat="43.4751" lon="-1.56662">
        <ele>46.5</ele>
        <time>2021-07-18T10:42:50Z</time>
      </trkpt>
      <trkpt lat="43.47511" lon="-1.56664">
        <ele>46.5</ele>
        <time>2021-07-18T10:42:52Z</time>
      </trkpt>
      <trkpt lat="43.47512" lon="-1.56665">
        <ele>46.5</ele>
        <time>2021-07-18T10:42:53Z</time>
      </trkpt>
      <trkpt lat="43.47513" lon="-1.56667">
        <ele>46.4</ele>
        <time>2021-07-18T10:42:55Z</time>
      </trkpt>
      <trkpt lat="43.47515" lon="-1.56669">
        <ele>46.4</ele>
        <time>2021-07-18T10:42:56Z</time>
      </trkpt>
      <trkpt lat="43.47517" lon="-1.56669">
        <ele>46.3</ele>
        <time>2021-07-18T10:42:58Z</time>
      </trkpt>
      <trkpt lat="43.47517" lon="-1.56669">
        <ele>46.3</ele>
        <time>2021-07-18T10:43:00Z</time>
      </trkpt>
      <trkpt lat="43.47517" lon="-1.56669">
        <ele>46.3</ele>
        <time>2021-07-18T10:43:01Z</time>
      </trkpt>
      <trkpt lat="43.47517" lon="-1.56669">
        <ele>46.3</ele>
        <time>2021-07-18T10:43:02Z</time>
      </trkpt>
      <trkpt lat="43.47517" lon="-1.56669">
        <ele>46.3</ele>
        <time>2021-07-18T10:43:04Z</time>
      </trkpt>
      <trkpt lat="43.47517" lon="-1.56669">
        <ele>46.3</ele>
        <time>2021-07-18T10:43:06Z</time>
      </trkpt>
      <trkpt lat="43.47517" lon="-1.56668">
        <ele>46.3</ele>
        <time>2021-07-18T10:43:08Z</time>
      </trkpt>
      <trkpt lat="43.47512" lon="-1.56669">
        <ele>46.2</ele>
        <time>2021-07-18T10:44:49Z</time>
      </trkpt>
      <trkpt lat="43.47509" lon="-1.56671">
        <ele>46.1</ele>
        <time>2021-07-18T10:44:51Z</time>
      </trkpt>
      <trkpt lat="43.47508" lon="-1.56672">
        <ele>46.1</ele>
        <time>2021-07-18T10:44:52Z</time>
      </trkpt>
      <trkpt lat="43.47505" lon="-1.56674">
        <ele>46</ele>
        <time>2021-07-18T10:44:54Z</time>
      </trkpt>
      <trkpt lat="43.47503" lon="-1.56675">
        <ele>46</ele>
        <time>2021-07-18T10:44:56Z</time>
      </trkpt>
      <trkpt lat="43.47505" lon="-1.56678">
        <ele>45.5</ele>
        <time>2021-07-18T10:44:57Z</time>
      </trkpt>
      <trkpt lat="43.47508" lon="-1.5668">
        <ele>45.2</ele>
        <time>2021-07-18T10:44:59Z</time>
      </trkpt>
      <trkpt lat="43.47511" lon="-1.5668">
        <ele>44.9</ele>
        <time>2021-07-18T10:45:00Z</time>
      </trkpt>
      <trkpt lat="43.47514" lon="-1.56681">
        <ele>44.5</ele>
        <time>2021-07-18T10:45:01Z</time>
      </trkpt>
      <trkpt lat="43.47518" lon="-1.56681">
        <ele>44.1</ele>
        <time>2021-07-18T10:45:03Z</time>
      </trkpt>
      <trkpt lat="43.4752" lon="-1.56681">
        <ele>43.9</ele>
        <time>2021-07-18T10:45:04Z</time>
      </trkpt>
      <trkpt lat="43.47521" lon="-1.56681">
        <ele>43.7</ele>
        <time>2021-07-18T10:45:05Z</time>
      </trkpt>
      <trkpt lat="43.47523" lon="-1.5668">
        <ele>43.4</ele>
        <time>2021-07-18T10:45:06Z</time>
      </trkpt>
      <trkpt lat="43.47526" lon="-1.56679">
        <ele>43.1</ele>
        <time>2021-07-18T10:45:08Z</time>
      </trkpt>
      <trkpt lat="43.47529" lon="-1.5668">
        <ele>42.7</ele>
        <time>2021-07-18T10:45:09Z</time>
      </trkpt>
      <trkpt lat="43.4753" lon="-1.5668">
        <ele>42.6</ele>
        <time>2021-07-18T10:45:10Z</time>
      </trkpt>
      <trkpt lat="43.47533" lon="-1.5668">
        <ele>42.1</ele>
        <time>2021-07-18T10:45:12Z</time>
      </trkpt>
      <trkpt lat="43.47535" lon="-1.5668">
        <ele>41.9</ele>
        <time>2021-07-18T10:45:13Z</time>
      </trkpt>
      <trkpt lat="43.47538" lon="-1.5668">
        <ele>41.5</ele>
        <time>2021-07-18T10:45:15Z</time>
      </trkpt>
      <trkpt lat="43.47539" lon="-1.5668">
        <ele>41.2</ele>
        <time>2021-07-18T10:45:16Z</time>
      </trkpt>
      <trkpt lat="43.47542" lon="-1.5668">
        <ele>40.9</ele>
        <time>2021-07-18T10:45:18Z</time>
      </trkpt>
      <trkpt lat="43.47543" lon="-1.5668">
        <ele>40.7</ele>
        <time>2021-07-18T10:45:19Z</time>
      </trkpt>
      <trkpt lat="43.47545" lon="-1.56681">
        <ele>40.4</ele>
        <time>2021-07-18T10:45:21Z</time>
      </trkpt>
      <trkpt lat="43.47545" lon="-1.5668">
        <ele>40.4</ele>
        <time>2021-07-18T10:45:23Z</time>
      </trkpt>
      <trkpt lat="43.47545" lon="-1.5668">
        <ele>40.3</ele>
        <time>2021-07-18T10:45:25Z</time>
      </trkpt>
      <trkpt lat="43.47544" lon="-1.5668">
        <ele>40.3</ele>
        <time>2021-07-18T10:45:27Z</time>
      </trkpt>
      <trkpt lat="43.47544" lon="-1.5668">
        <ele>40.3</ele>
        <time>2021-07-18T10:45:29Z</time>
      </trkpt>
      <trkpt lat="43.47544" lon="-1.5668">
        <ele>40.2</ele>
        <time>2021-07-18T10:45:30Z</time>
      </trkpt>
      <trkpt lat="43.47544" lon="-1.5668">
        <ele>40.1</ele>
        <time>2021-07-18T10:45:32Z</time>
      </trkpt>
      <trkpt lat="43.47548" lon="-1.56675">
        <ele>39.4</ele>
        <time>2021-07-18T10:46:50Z</time>
      </trkpt>
      <trkpt lat="43.47551" lon="-1.56675">
        <ele>38.9</ele>
        <time>2021-07-18T10:46:51Z</time>
      </trkpt>
      <trkpt lat="43.47555" lon="-1.56675">
        <ele>38.5</ele>
        <time>2021-07-18T10:46:52Z</time>
      </trkpt>
      <trkpt lat="43.47558" lon="-1.56675">
        <ele>38</ele>
        <time>2021-07-18T10:46:53Z</time>
      </trkpt>
      <trkpt lat="43.4756" lon="-1.56674">
        <ele>37.6</ele>
        <time>2021-07-18T10:46:54Z</time>
      </trkpt>
      <trkpt lat="43.47565" lon="-1.56674">
        <ele>37</ele>
        <time>2021-07-18T10:46:56Z</time>
      </trkpt>
      <trkpt lat="43.47568" lon="-1.56674">
        <ele>36.4</ele>
        <time>2021-07-18T10:46:57Z</time>
      </trkpt>
      <trkpt lat="43.47573" lon="-1.56674">
        <ele>35.9</ele>
        <time>2021-07-18T10:46:59Z</time>
      </trkpt>
      <trkpt lat="43.47577" lon="-1.56672">
        <ele>35.9</ele>
        <time>2021-07-18T10:47:00Z</time>
      </trkpt>
      <trkpt lat="43.47581" lon="-1.56671">
        <ele>35.9</ele>
        <time>2021-07-18T10:47:01Z</time>
      </trkpt>
      <trkpt lat="43.47583" lon="-1.56669">
        <ele>35.9</ele>
        <time>2021-07-18T10:47:02Z</time>
      </trkpt>
      <trkpt lat="43.47586" lon="-1.56667">
        <ele>35.9</ele>
        <time>2021-07-18T10:47:04Z</time>
      </trkpt>
      <trkpt lat="43.47589" lon="-1.56663">
        <ele>35.9</ele>
        <time>2021-07-18T10:47:06Z</time>
      </trkpt>
      <trkpt lat="43.4759" lon="-1.56662">
        <ele>35.9</ele>
        <time>2021-07-18T10:47:07Z</time>
      </trkpt>
      <trkpt lat="43.47593" lon="-1.5666">
        <ele>35.9</ele>
        <time>2021-07-18T10:47:08Z</time>
      </trkpt>
      <trkpt lat="43.47594" lon="-1.5666">
        <ele>35.9</ele>
        <time>2021-07-18T10:47:09Z</time>
      </trkpt>
      <trkpt lat="43.47598" lon="-1.56658">
        <ele>35.9</ele>
        <time>2021-07-18T10:47:11Z</time>
      </trkpt>
      <trkpt lat="43.47602" lon="-1.56658">
        <ele>35.9</ele>
        <time>2021-07-18T10:47:12Z</time>
      </trkpt>
      <trkpt lat="43.47605" lon="-1.56657">
        <ele>35.9</ele>
        <time>2021-07-18T10:47:13Z</time>
      </trkpt>
      <trkpt lat="43.47609" lon="-1.56654">
        <ele>35.9</ele>
        <time>2021-07-18T10:47:15Z</time>
      </trkpt>
      <trkpt lat="43.47613" lon="-1.56654">
        <ele>35.9</ele>
        <time>2021-07-18T10:47:16Z</time>
      </trkpt>
      <trkpt lat="43.47616" lon="-1.56653">
        <ele>35.9</ele>
        <time>2021-07-18T10:47:18Z</time>
      </trkpt>
      <trkpt lat="43.47616" lon="-1.56653">
        <ele>35.9</ele>
        <time>2021-07-18T10:47:19Z</time>
      </trkpt>
      <trkpt lat="43.47613" lon="-1.56653">
        <ele>35.9</ele>
        <time>2021-07-18T10:47:21Z</time>
      </trkpt>
      <trkpt lat="43.47613" lon="-1.56653">
        <ele>35.9</ele>
        <time>2021-07-18T10:47:22Z</time>
      </trkpt>
      <trkpt lat="43.47612" lon="-1.56653">
        <ele>35.9</ele>
        <time>2021-07-18T10:47:23Z</time>
      </trkpt>
      <trkpt lat="43.47612" lon="-1.56653">
        <ele>35.9</ele>
        <time>2021-07-18T10:47:24Z</time>
      </trkpt>
      <trkpt lat="43.47612" lon="-1.56653">
        <ele>35.9</ele>
        <time>2021-07-18T10:47:26Z</time>
      </trkpt>
      <trkpt lat="43.47612" lon="-1.56653">
        <ele>35.9</ele>
        <time>2021-07-18T10:47:28Z</time>
      </trkpt>
      <trkpt lat="43.47612" lon="-1.56653">
        <ele>35.9</ele>
        <time>2021-07-18T10:47:30Z</time>
      </trkpt>
      <trkpt lat="43.47612" lon="-1.56653">
        <ele>35.9</ele>
        <time>2021-07-18T10:47:31Z</time>
      </trkpt>
      <trkpt lat="43.47611" lon="-1.56653">
        <ele>35.9</ele>
        <time>2021-07-18T10:47:33Z</time>
      </trkpt>
      <trkpt lat="43.47614" lon="-1.56649">
        <ele>35.9</ele>
        <time>2021-07-18T10:47:50Z</time>
      </trkpt>
      <trkpt lat="43.47617" lon="-1.56648">
        <ele>35.9</ele>
        <time>2021-07-18T10:47:51Z</time>
      </trkpt>
      <trkpt lat="43.47623" lon="-1.56647">
        <ele>36</ele>
        <time>2021-07-18T10:47:53Z</time>
      </trkpt>
      <trkpt lat="43.47627" lon="-1.56647">
        <ele>36</ele>
        <time>2021-07-18T10:47:54Z</time>
      </trkpt>
      <trkpt lat="43.47633" lon="-1.56647">
        <ele>36</ele>
        <time>2021-07-18T10:47:56Z</time>
      </trkpt>
      <trkpt lat="43.47636" lon="-1.56647">
        <ele>36.1</ele>
        <time>2021-07-18T10:47:57Z</time>
      </trkpt>
      <trkpt lat="43.47639" lon="-1.56646">
        <ele>36.2</ele>
        <time>2021-07-18T10:47:58Z</time>
      </trkpt>
      <trkpt lat="43.47642" lon="-1.56645">
        <ele>36.3</ele>
        <time>2021-07-18T10:47:59Z</time>
      </trkpt>
      <trkpt lat="43.47644" lon="-1.56644">
        <ele>36.5</ele>
        <time>2021-07-18T10:48:00Z</time>
      </trkpt>
      <trkpt lat="43.47648" lon="-1.56643">
        <ele>36.7</ele>
        <time>2021-07-18T10:48:02Z</time>
      </trkpt>
      <trkpt lat="43.47651" lon="-1.56642">
        <ele>36.9</ele>
        <time>2021-07-18T10:48:03Z</time>
      </trkpt>
      <trkpt lat="43.47653" lon="-1.56641">
        <ele>37</ele>
        <time>2021-07-18T10:48:04Z</time>
      </trkpt>
      <trkpt lat="43.47656" lon="-1.5664">
        <ele>36.7</ele>
        <time>2021-07-18T10:48:06Z</time>
      </trkpt>
      <trkpt lat="43.47661" lon="-1.5664">
        <ele>36.2</ele>
        <time>2021-07-18T10:48:07Z</time>
      </trkpt>
      <trkpt lat="43.47662" lon="-1.5664">
        <ele>36</ele>
        <time>2021-07-18T10:48:08Z</time>
      </trkpt>
      <trkpt lat="43.47666" lon="-1.5664">
        <ele>35.6</ele>
        <time>2021-07-18T10:48:09Z</time>
      </trkpt>
      <trkpt lat="43.4767" lon="-1.5664">
        <ele>35.1</ele>
        <time>2021-07-18T10:48:11Z</time>
      </trkpt>
      <trkpt lat="43.47673" lon="-1.5664">
        <ele>34.7</ele>
        <time>2021-07-18T10:48:12Z</time>
      </trkpt>
      <trkpt lat="43.47678" lon="-1.5664">
        <ele>34.2</ele>
        <time>2021-07-18T10:48:14Z</time>
      </trkpt>
      <trkpt lat="43.47685" lon="-1.56638">
        <ele>33.4</ele>
        <time>2021-07-18T10:48:15Z</time>
      </trkpt>
      <trkpt lat="43.47689" lon="-1.56637">
        <ele>32.8</ele>
        <time>2021-07-18T10:48:16Z</time>
      </trkpt>
      <trkpt lat="43.47694" lon="-1.56637">
        <ele>32.2</ele>
        <time>2021-07-18T10:48:18Z</time>
      </trkpt>
      <trkpt lat="43.47696" lon="-1.5664">
        <ele>31.8</ele>
        <time>2021-07-18T10:48:19Z</time>
      </trkpt>
      <trkpt lat="43.47696" lon="-1.56642">
        <ele>31.7</ele>
        <time>2021-07-18T10:48:20Z</time>
      </trkpt>
      <trkpt lat="43.47696" lon="-1.56645">
        <ele>31.4</ele>
        <time>2021-07-18T10:48:21Z</time>
      </trkpt>
      <trkpt lat="43.47693" lon="-1.56648">
        <ele>31</ele>
        <time>2021-07-18T10:48:23Z</time>
      </trkpt>
      <trkpt lat="43.4769" lon="-1.56649">
        <ele>30.6</ele>
        <time>2021-07-18T10:48:24Z</time>
      </trkpt>
      <trkpt lat="43.47688" lon="-1.5665">
        <ele>30.3</ele>
        <time>2021-07-18T10:48:25Z</time>
      </trkpt>
      <trkpt lat="43.47687" lon="-1.5665">
        <ele>30.3</ele>
        <time>2021-07-18T10:48:26Z</time>
      </trkpt>
      <trkpt lat="43.47687" lon="-1.5665">
        <ele>30.3</ele>
        <time>2021-07-18T10:48:27Z</time>
      </trkpt>
      <trkpt lat="43.47687" lon="-1.56649">
        <ele>30.2</ele>
        <time>2021-07-18T10:48:29Z</time>
      </trkpt>
      <trkpt lat="43.47687" lon="-1.56649">
        <ele>30.2</ele>
        <time>2021-07-18T10:48:30Z</time>
      </trkpt>
      <trkpt lat="43.47686" lon="-1.56649">
        <ele>30.2</ele>
        <time>2021-07-18T10:48:31Z</time>
      </trkpt>
      <trkpt lat="43.47686" lon="-1.56649">
        <ele>30.2</ele>
        <time>2021-07-18T10:48:32Z</time>
      </trkpt>
      <trkpt lat="43.47686" lon="-1.56649">
        <ele>30.2</ele>
        <time>2021-07-18T10:48:33Z</time>
      </trkpt>
      <trkpt lat="43.47686" lon="-1.56649">
        <ele>30.1</ele>
        <time>2021-07-18T10:48:35Z</time>
      </trkpt>
      <trkpt lat="43.47682" lon="-1.5665">
        <ele>29.7</ele>
        <time>2021-07-18T10:48:53Z</time>
      </trkpt>
      <trkpt lat="43.47677" lon="-1.56651">
        <ele>29.1</ele>
        <time>2021-07-18T10:48:55Z</time>
      </trkpt>
      <trkpt lat="43.47671" lon="-1.56653">
        <ele>28.5</ele>
        <time>2021-07-18T10:48:56Z</time>
      </trkpt>
      <trkpt lat="43.47665" lon="-1.56656">
        <ele>27.7</ele>
        <time>2021-07-18T10:48:58Z</time>
      </trkpt>
      <trkpt lat="43.47661" lon="-1.56658">
        <ele>27.3</ele>
        <time>2021-07-18T10:48:59Z</time>
      </trkpt>
      <trkpt lat="43.47658" lon="-1.56659">
        <ele>26.8</ele>
        <time>2021-07-18T10:49:00Z</time>
      </trkpt>
      <trkpt lat="43.47653" lon="-1.56663">
        <ele>26.1</ele>
        <time>2021-07-18T10:49:02Z</time>
      </trkpt>
      <trkpt lat="43.47656" lon="-1.56664">
        <ele>25.8</ele>
        <time>2021-07-18T10:49:03Z</time>
      </trkpt>
      <trkpt lat="43.47659" lon="-1.56663">
        <ele>25.4</ele>
        <time>2021-07-18T10:49:04Z</time>
      </trkpt>
      <trkpt lat="43.47664" lon="-1.56663">
        <ele>24.7</ele>
        <time>2021-07-18T10:49:06Z</time>
      </trkpt>
      <trkpt lat="43.47669" lon="-1.56662">
        <ele>24.1</ele>
        <time>2021-07-18T10:49:07Z</time>
      </trkpt>
      <trkpt lat="43.47673" lon="-1.56662">
        <ele>23.7</ele>
        <time>2021-07-18T10:49:08Z</time>
      </trkpt>
      <trkpt lat="43.47678" lon="-1.56662">
        <ele>23</ele>
        <time>2021-07-18T10:49:09Z</time>
      </trkpt>
      <trkpt lat="43.47686" lon="-1.56661">
        <ele>22.1</ele>
        <time>2021-07-18T10:49:11Z</time>
      </trkpt>
      <trkpt lat="43.47691" lon="-1.5666">
        <ele>21.5</ele>
        <time>2021-07-18T10:49:13Z</time>
      </trkpt>
      <trkpt lat="43.47695" lon="-1.56661">
        <ele>21.1</ele>
        <time>2021-07-18T10:49:14Z</time>
      </trkpt>
      <trkpt lat="43.47699" lon="-1.56663">
        <ele>20.7</ele>
        <time>2021-07-18T10:49:15Z</time>
      </trkpt>
      <trkpt lat="43.47698" lon="-1.5667">
        <ele>20.3</ele>
        <time>2021-07-18T10:49:17Z</time>
      </trkpt>
      <trkpt lat="43.47694" lon="-1.56672">
        <ele>19.8</ele>
        <time>2021-07-18T10:49:18Z</time>
      </trkpt>
      <trkpt lat="43.47692" lon="-1.56673">
        <ele>19.5</ele>
        <time>2021-07-18T10:49:19Z</time>
      </trkpt>
      <trkpt lat="43.47683" lon="-1.56681">
        <ele>18.3</ele>
        <time>2021-07-18T10:49:21Z</time>
      </trkpt>
      <trkpt lat="43.47673" lon="-1.56687">
        <ele>17.1</ele>
        <time>2021-07-18T10:49:23Z</time>
      </trkpt>
      <trkpt lat="43.47666" lon="-1.56691">
        <ele>16.1</ele>
        <time>2021-07-18T10:49:25Z</time>
      </trkpt>
      <trkpt lat="43.47666" lon="-1.56696">
        <ele>15.7</ele>
        <time>2021-07-18T10:49:26Z</time>
      </trkpt>
      <trkpt lat="43.47667" lon="-1.56698">
        <ele>15.3</ele>
        <time>2021-07-18T10:49:27Z</time>
      </trkpt>
      <trkpt lat="43.4767" lon="-1.56699">
        <ele>14.8</ele>
        <time>2021-07-18T10:49:29Z</time>
      </trkpt>
      <trkpt lat="43.47674" lon="-1.56699">
        <ele>14.3</ele>
        <time>2021-07-18T10:49:30Z</time>
      </trkpt>
      <trkpt lat="43.47677" lon="-1.56699">
        <ele>14</ele>
        <time>2021-07-18T10:49:31Z</time>
      </trkpt>
      <trkpt lat="43.47681" lon="-1.56698">
        <ele>13.5</ele>
        <time>2021-07-18T10:49:33Z</time>
      </trkpt>
      <trkpt lat="43.47683" lon="-1.56698">
        <ele>13.4</ele>
        <time>2021-07-18T10:49:34Z</time>
      </trkpt>
      <trkpt lat="43.47684" lon="-1.56697">
        <ele>13.2</ele>
        <time>2021-07-18T10:49:35Z</time>
      </trkpt>
      <trkpt lat="43.47688" lon="-1.56696">
        <ele>12.9</ele>
        <time>2021-07-18T10:49:36Z</time>
      </trkpt>
      <trkpt lat="43.47692" lon="-1.56695">
        <ele>12.4</ele>
        <time>2021-07-18T10:49:38Z</time>
      </trkpt>
      <trkpt lat="43.47697" lon="-1.56694">
        <ele>11.9</ele>
        <time>2021-07-18T10:49:39Z</time>
      </trkpt>
      <trkpt lat="43.47702" lon="-1.56694">
        <ele>11.3</ele>
        <time>2021-07-18T10:49:41Z</time>
      </trkpt>
      <trkpt lat="43.47707" lon="-1.56693">
        <ele>10.9</ele>
        <time>2021-07-18T10:49:42Z</time>
      </trkpt>
      <trkpt lat="43.4771" lon="-1.56692">
        <ele>10.5</ele>
        <time>2021-07-18T10:49:43Z</time>
      </trkpt>
      <trkpt lat="43.47714" lon="-1.56691">
        <ele>10.2</ele>
        <time>2021-07-18T10:49:44Z</time>
      </trkpt>
      <trkpt lat="43.47717" lon="-1.56689">
        <ele>9.8</ele>
        <time>2021-07-18T10:49:46Z</time>
      </trkpt>
      <trkpt lat="43.4772" lon="-1.5669">
        <ele>9.6</ele>
        <time>2021-07-18T10:49:47Z</time>
      </trkpt>
      <trkpt lat="43.47721" lon="-1.56694">
        <ele>9.3</ele>
        <time>2021-07-18T10:49:48Z</time>
      </trkpt>
      <trkpt lat="43.47721" lon="-1.56695">
        <ele>9.2</ele>
        <time>2021-07-18T10:49:49Z</time>
      </trkpt>
      <trkpt lat="43.4772" lon="-1.56699">
        <ele>8.9</ele>
        <time>2021-07-18T10:49:51Z</time>
      </trkpt>
      <trkpt lat="43.47722" lon="-1.56701">
        <ele>8.5</ele>
        <time>2021-07-18T10:49:52Z</time>
      </trkpt>
      <trkpt lat="43.47724" lon="-1.567">
        <ele>8.5</ele>
        <time>2021-07-18T10:49:54Z</time>
      </trkpt>
      <trkpt lat="43.47726" lon="-1.56697">
        <ele>8.5</ele>
        <time>2021-07-18T10:49:55Z</time>
      </trkpt>
      <trkpt lat="43.47727" lon="-1.56696">
        <ele>8.5</ele>
        <time>2021-07-18T10:49:56Z</time>
      </trkpt>
      <trkpt lat="43.47728" lon="-1.56695">
        <ele>8.5</ele>
        <time>2021-07-18T10:49:57Z</time>
      </trkpt>
      <trkpt lat="43.4773" lon="-1.56695">
        <ele>8.5</ele>
        <time>2021-07-18T10:49:58Z</time>
      </trkpt>
      <trkpt lat="43.47731" lon="-1.56694">
        <ele>8.5</ele>
        <time>2021-07-18T10:50:00Z</time>
      </trkpt>
      <trkpt lat="43.47733" lon="-1.56693">
        <ele>8.5</ele>
        <time>2021-07-18T10:50:01Z</time>
      </trkpt>
      <trkpt lat="43.47734" lon="-1.56692">
        <ele>8.5</ele>
        <time>2021-07-18T10:50:02Z</time>
      </trkpt>
      <trkpt lat="43.47735" lon="-1.56691">
        <ele>8.5</ele>
        <time>2021-07-18T10:50:03Z</time>
      </trkpt>
      <trkpt lat="43.47736" lon="-1.56689">
        <ele>8.5</ele>
        <time>2021-07-18T10:50:05Z</time>
      </trkpt>
      <trkpt lat="43.47738" lon="-1.56689">
        <ele>8.5</ele>
        <time>2021-07-18T10:50:06Z</time>
      </trkpt>
      <trkpt lat="43.47742" lon="-1.56689">
        <ele>8.5</ele>
        <time>2021-07-18T10:50:08Z</time>
      </trkpt>
      <trkpt lat="43.47746" lon="-1.56689">
        <ele>8.5</ele>
        <time>2021-07-18T10:50:09Z</time>
      </trkpt>
      <trkpt lat="43.47747" lon="-1.56689">
        <ele>8.5</ele>
        <time>2021-07-18T10:50:10Z</time>
      </trkpt>
      <trkpt lat="43.4775" lon="-1.56688">
        <ele>8.5</ele>
        <time>2021-07-18T10:50:11Z</time>
      </trkpt>
      <trkpt lat="43.47753" lon="-1.56688">
        <ele>8.5</ele>
        <time>2021-07-18T10:50:13Z</time>
      </trkpt>
      <trkpt lat="43.47756" lon="-1.56686">
        <ele>8.5</ele>
        <time>2021-07-18T10:50:14Z</time>
      </trkpt>
      <trkpt lat="43.47759" lon="-1.56685">
        <ele>8.5</ele>
        <time>2021-07-18T10:50:15Z</time>
      </trkpt>
      <trkpt lat="43.47762" lon="-1.56682">
        <ele>8.5</ele>
        <time>2021-07-18T10:50:17Z</time>
      </trkpt>
      <trkpt lat="43.47765" lon="-1.5668">
        <ele>8.5</ele>
        <time>2021-07-18T10:50:18Z</time>
      </trkpt>
      <trkpt lat="43.47767" lon="-1.56676">
        <ele>8.5</ele>
        <time>2021-07-18T10:50:19Z</time>
      </trkpt>
      <trkpt lat="43.47769" lon="-1.56673">
        <ele>8.5</ele>
        <time>2021-07-18T10:50:20Z</time>
      </trkpt>
      <trkpt lat="43.47772" lon="-1.56668">
        <ele>8.5</ele>
        <time>2021-07-18T10:50:22Z</time>
      </trkpt>
      <trkpt lat="43.47775" lon="-1.56665">
        <ele>8.5</ele>
        <time>2021-07-18T10:50:23Z</time>
      </trkpt>
      <trkpt lat="43.47778" lon="-1.56663">
        <ele>8.5</ele>
        <time>2021-07-18T10:50:24Z</time>
      </trkpt>
      <trkpt lat="43.47782" lon="-1.5666">
        <ele>8.6</ele>
        <time>2021-07-18T10:50:26Z</time>
      </trkpt>
      <trkpt lat="43.47785" lon="-1.56658">
        <ele>8.6</ele>
        <time>2021-07-18T10:50:27Z</time>
      </trkpt>
      <trkpt lat="43.47789" lon="-1.56656">
        <ele>8.6</ele>
        <time>2021-07-18T10:50:28Z</time>
      </trkpt>
      <trkpt lat="43.47793" lon="-1.56653">
        <ele>8.6</ele>
        <time>2021-07-18T10:50:30Z</time>
      </trkpt>
      <trkpt lat="43.47796" lon="-1.56652">
        <ele>8.6</ele>
        <time>2021-07-18T10:50:31Z</time>
      </trkpt>
      <trkpt lat="43.47799" lon="-1.5665">
        <ele>8.5</ele>
        <time>2021-07-18T10:50:32Z</time>
      </trkpt>
      <trkpt lat="43.47802" lon="-1.56647">
        <ele>8.5</ele>
        <time>2021-07-18T10:50:34Z</time>
      </trkpt>
      <trkpt lat="43.47805" lon="-1.56645">
        <ele>8.5</ele>
        <time>2021-07-18T10:50:35Z</time>
      </trkpt>
      <trkpt lat="43.47808" lon="-1.56643">
        <ele>8.5</ele>
        <time>2021-07-18T10:50:36Z</time>
      </trkpt>
      <trkpt lat="43.47812" lon="-1.56644">
        <ele>8.5</ele>
        <time>2021-07-18T10:50:37Z</time>
      </trkpt>
      <trkpt lat="43.47815" lon="-1.56643">
        <ele>8.5</ele>
        <time>2021-07-18T10:50:38Z</time>
      </trkpt>
      <trkpt lat="43.47817" lon="-1.56642">
        <ele>8.5</ele>
        <time>2021-07-18T10:50:39Z</time>
      </trkpt>
      <trkpt lat="43.47821" lon="-1.56643">
        <ele>8.5</ele>
        <time>2021-07-18T10:50:41Z</time>
      </trkpt>
      <trkpt lat="43.47823" lon="-1.56643">
        <ele>8.5</ele>
        <time>2021-07-18T10:50:43Z</time>
      </trkpt>
      <trkpt lat="43.47824" lon="-1.56649">
        <ele>8.5</ele>
        <time>2021-07-18T10:50:45Z</time>
      </trkpt>
      <trkpt lat="43.47827" lon="-1.56649">
        <ele>8.5</ele>
        <time>2021-07-18T10:50:47Z</time>
      </trkpt>
      <trkpt lat="43.47829" lon="-1.56648">
        <ele>8.5</ele>
        <time>2021-07-18T10:50:48Z</time>
      </trkpt>
      <trkpt lat="43.47833" lon="-1.56646">
        <ele>8.5</ele>
        <time>2021-07-18T10:50:50Z</time>
      </trkpt>
      <trkpt lat="43.47836" lon="-1.56646">
        <ele>8.5</ele>
        <time>2021-07-18T10:50:51Z</time>
      </trkpt>
      <trkpt lat="43.4784" lon="-1.56646">
        <ele>8.5</ele>
        <time>2021-07-18T10:50:53Z</time>
      </trkpt>
      <trkpt lat="43.47843" lon="-1.56645">
        <ele>8.5</ele>
        <time>2021-07-18T10:50:54Z</time>
      </trkpt>
      <trkpt lat="43.47847" lon="-1.56644">
        <ele>8.5</ele>
        <time>2021-07-18T10:50:55Z</time>
      </trkpt>
      <trkpt lat="43.47851" lon="-1.56643">
        <ele>8.5</ele>
        <time>2021-07-18T10:50:57Z</time>
      </trkpt>
      <trkpt lat="43.47854" lon="-1.56641">
        <ele>8.4</ele>
        <time>2021-07-18T10:50:58Z</time>
      </trkpt>
      <trkpt lat="43.47859" lon="-1.56641">
        <ele>8.4</ele>
        <time>2021-07-18T10:50:59Z</time>
      </trkpt>
      <trkpt lat="43.4786" lon="-1.56641">
        <ele>8.4</ele>
        <time>2021-07-18T10:51:00Z</time>
      </trkpt>
      <trkpt lat="43.47866" lon="-1.56639">
        <ele>8.4</ele>
        <time>2021-07-18T10:51:02Z</time>
      </trkpt>
      <trkpt lat="43.4787" lon="-1.56639">
        <ele>8.4</ele>
        <time>2021-07-18T10:51:03Z</time>
      </trkpt>
      <trkpt lat="43.47872" lon="-1.56638">
        <ele>8.4</ele>
        <time>2021-07-18T10:51:04Z</time>
      </trkpt>
      <trkpt lat="43.47878" lon="-1.56636">
        <ele>8.4</ele>
        <time>2021-07-18T10:51:06Z</time>
      </trkpt>
      <trkpt lat="43.47884" lon="-1.56634">
        <ele>8.4</ele>
        <time>2021-07-18T10:51:08Z</time>
      </trkpt>
      <trkpt lat="43.47887" lon="-1.56632">
        <ele>8.4</ele>
        <time>2021-07-18T10:51:09Z</time>
      </trkpt>
      <trkpt lat="43.4789" lon="-1.56632">
        <ele>8.4</ele>
        <time>2021-07-18T10:51:10Z</time>
      </trkpt>
      <trkpt lat="43.47893" lon="-1.56631">
        <ele>8.4</ele>
        <time>2021-07-18T10:51:11Z</time>
      </trkpt>
      <trkpt lat="43.47898" lon="-1.5663">
        <ele>8.4</ele>
        <time>2021-07-18T10:51:13Z</time>
      </trkpt>
      <trkpt lat="43.47904" lon="-1.56629">
        <ele>8.5</ele>
        <time>2021-07-18T10:51:14Z</time>
      </trkpt>
      <trkpt lat="43.47911" lon="-1.56628">
        <ele>8.5</ele>
        <time>2021-07-18T10:51:16Z</time>
      </trkpt>
      <trkpt lat="43.47918" lon="-1.56627">
        <ele>8.5</ele>
        <time>2021-07-18T10:51:18Z</time>
      </trkpt>
      <trkpt lat="43.47921" lon="-1.56627">
        <ele>8.5</ele>
        <time>2021-07-18T10:51:19Z</time>
      </trkpt>
      <trkpt lat="43.47929" lon="-1.56626">
        <ele>8.5</ele>
        <time>2021-07-18T10:51:21Z</time>
      </trkpt>
      <trkpt lat="43.47932" lon="-1.56625">
        <ele>8.5</ele>
        <time>2021-07-18T10:51:22Z</time>
      </trkpt>
      <trkpt lat="43.47935" lon="-1.56625">
        <ele>8.5</ele>
        <time>2021-07-18T10:51:23Z</time>
      </trkpt>
      <trkpt lat="43.47939" lon="-1.56625">
        <ele>8.5</ele>
        <time>2021-07-18T10:51:24Z</time>
      </trkpt>
      <trkpt lat="43.47946" lon="-1.56628">
        <ele>8.5</ele>
        <time>2021-07-18T10:51:26Z</time>
      </trkpt>
      <trkpt lat="43.4795" lon="-1.56627">
        <ele>8.5</ele>
        <time>2021-07-18T10:51:27Z</time>
      </trkpt>
      <trkpt lat="43.47957" lon="-1.56626">
        <ele>8.5</ele>
        <time>2021-07-18T10:51:29Z</time>
      </trkpt>
      <trkpt lat="43.47961" lon="-1.56625">
        <ele>8.5</ele>
        <time>2021-07-18T10:51:30Z</time>
      </trkpt>
      <trkpt lat="43.47968" lon="-1.56624">
        <ele>8.5</ele>
        <time>2021-07-18T10:51:32Z</time>
      </trkpt>
      <trkpt lat="43.47971" lon="-1.56623">
        <ele>8.5</ele>
        <time>2021-07-18T10:51:33Z</time>
      </trkpt>
      <trkpt lat="43.47974" lon="-1.56623">
        <ele>8.5</ele>
        <time>2021-07-18T10:51:34Z</time>
      </trkpt>
      <trkpt lat="43.47978" lon="-1.56623">
        <ele>8.5</ele>
        <time>2021-07-18T10:51:35Z</time>
      </trkpt>
      <trkpt lat="43.47986" lon="-1.56622">
        <ele>8.5</ele>
        <time>2021-07-18T10:51:37Z</time>
      </trkpt>
      <trkpt lat="43.47994" lon="-1.5662">
        <ele>8.5</ele>
        <time>2021-07-18T10:51:39Z</time>
      </trkpt>
      <trkpt lat="43.48001" lon="-1.56619">
        <ele>8.5</ele>
        <time>2021-07-18T10:51:41Z</time>
      </trkpt>
      <trkpt lat="43.48009" lon="-1.56617">
        <ele>8.5</ele>
        <time>2021-07-18T10:51:43Z</time>
      </trkpt>
      <trkpt lat="43.48016" lon="-1.56617">
        <ele>8.5</ele>
        <time>2021-07-18T10:51:45Z</time>
      </trkpt>
      <trkpt lat="43.48019" lon="-1.56617">
        <ele>8.5</ele>
        <time>2021-07-18T10:51:46Z</time>
      </trkpt>
      <trkpt lat="43.48027" lon="-1.56619">
        <ele>8.6</ele>
        <time>2021-07-18T10:51:48Z</time>
      </trkpt>
      <trkpt lat="43.48035" lon="-1.56622">
        <ele>8.6</ele>
        <time>2021-07-18T10:51:50Z</time>
      </trkpt>
      <trkpt lat="43.48038" lon="-1.56624">
        <ele>8.6</ele>
        <time>2021-07-18T10:51:51Z</time>
      </trkpt>
      <trkpt lat="43.48045" lon="-1.5663">
        <ele>8.6</ele>
        <time>2021-07-18T10:51:53Z</time>
      </trkpt>
      <trkpt lat="43.48048" lon="-1.56633">
        <ele>8.6</ele>
        <time>2021-07-18T10:51:54Z</time>
      </trkpt>
      <trkpt lat="43.48056" lon="-1.56643">
        <ele>8.7</ele>
        <time>2021-07-18T10:51:56Z</time>
      </trkpt>
      <trkpt lat="43.4806" lon="-1.56646">
        <ele>8.7</ele>
        <time>2021-07-18T10:51:57Z</time>
      </trkpt>
      <trkpt lat="43.48062" lon="-1.56649">
        <ele>8.7</ele>
        <time>2021-07-18T10:51:58Z</time>
      </trkpt>
      <trkpt lat="43.48067" lon="-1.56655">
        <ele>8.7</ele>
        <time>2021-07-18T10:52:00Z</time>
      </trkpt>
      <trkpt lat="43.48071" lon="-1.56659">
        <ele>8.7</ele>
        <time>2021-07-18T10:52:01Z</time>
      </trkpt>
      <trkpt lat="43.48073" lon="-1.56664">
        <ele>8.7</ele>
        <time>2021-07-18T10:52:02Z</time>
      </trkpt>
      <trkpt lat="43.48076" lon="-1.56676">
        <ele>8.7</ele>
        <time>2021-07-18T10:52:04Z</time>
      </trkpt>
      <trkpt lat="43.48078" lon="-1.56681">
        <ele>8.6</ele>
        <time>2021-07-18T10:52:05Z</time>
      </trkpt>
      <trkpt lat="43.4808" lon="-1.56686">
        <ele>8.6</ele>
        <time>2021-07-18T10:52:06Z</time>
      </trkpt>
      <trkpt lat="43.48084" lon="-1.56693">
        <ele>8.6</ele>
        <time>2021-07-18T10:52:08Z</time>
      </trkpt>
      <trkpt lat="43.48086" lon="-1.56699">
        <ele>8.6</ele>
        <time>2021-07-18T10:52:09Z</time>
      </trkpt>
      <trkpt lat="43.48089" lon="-1.56708">
        <ele>8.6</ele>
        <time>2021-07-18T10:52:11Z</time>
      </trkpt>
      <trkpt lat="43.48091" lon="-1.56712">
        <ele>8.6</ele>
        <time>2021-07-18T10:52:12Z</time>
      </trkpt>
      <trkpt lat="43.48093" lon="-1.56721">
        <ele>8.6</ele>
        <time>2021-07-18T10:52:14Z</time>
      </trkpt>
      <trkpt lat="43.48096" lon="-1.5673">
        <ele>8.6</ele>
        <time>2021-07-18T10:52:16Z</time>
      </trkpt>
      <trkpt lat="43.48097" lon="-1.56734">
        <ele>8.6</ele>
        <time>2021-07-18T10:52:17Z</time>
      </trkpt>
      <trkpt lat="43.481" lon="-1.56744">
        <ele>8.6</ele>
        <time>2021-07-18T10:52:19Z</time>
      </trkpt>
      <trkpt lat="43.48101" lon="-1.56748">
        <ele>8.6</ele>
        <time>2021-07-18T10:52:20Z</time>
      </trkpt>
      <trkpt lat="43.48102" lon="-1.56753">
        <ele>8.6</ele>
        <time>2021-07-18T10:52:21Z</time>
      </trkpt>
      <trkpt lat="43.48105" lon="-1.56762">
        <ele>8.6</ele>
        <time>2021-07-18T10:52:23Z</time>
      </trkpt>
      <trkpt lat="43.48107" lon="-1.5677">
        <ele>8.6</ele>
        <time>2021-07-18T10:52:25Z</time>
      </trkpt>
      <trkpt lat="43.48109" lon="-1.56777">
        <ele>8.6</ele>
        <time>2021-07-18T10:52:26Z</time>
      </trkpt>
      <trkpt lat="43.4811" lon="-1.56781">
        <ele>8.6</ele>
        <time>2021-07-18T10:52:27Z</time>
      </trkpt>
      <trkpt lat="43.48111" lon="-1.56786">
        <ele>8.6</ele>
        <time>2021-07-18T10:52:28Z</time>
      </trkpt>
      <trkpt lat="43.48114" lon="-1.56795">
        <ele>8.6</ele>
        <time>2021-07-18T10:52:30Z</time>
      </trkpt>
      <trkpt lat="43.48117" lon="-1.56805">
        <ele>8.6</ele>
        <time>2021-07-18T10:52:32Z</time>
      </trkpt>
      <trkpt lat="43.48119" lon="-1.56813">
        <ele>8.6</ele>
        <time>2021-07-18T10:52:34Z</time>
      </trkpt>
      <trkpt lat="43.4812" lon="-1.56818">
        <ele>8.6</ele>
        <time>2021-07-18T10:52:35Z</time>
      </trkpt>
      <trkpt lat="43.48121" lon="-1.56827">
        <ele>8.6</ele>
        <time>2021-07-18T10:52:37Z</time>
      </trkpt>
      <trkpt lat="43.48124" lon="-1.56837">
        <ele>8.6</ele>
        <time>2021-07-18T10:52:39Z</time>
      </trkpt>
      <trkpt lat="43.48125" lon="-1.56846">
        <ele>8.7</ele>
        <time>2021-07-18T10:52:41Z</time>
      </trkpt>
      <trkpt lat="43.48125" lon="-1.56851">
        <ele>8.7</ele>
        <time>2021-07-18T10:52:42Z</time>
      </trkpt>
      <trkpt lat="43.48127" lon="-1.56856">
        <ele>8.8</ele>
        <time>2021-07-18T10:52:43Z</time>
      </trkpt>
      <trkpt lat="43.48129" lon="-1.56863">
        <ele>8.9</ele>
        <time>2021-07-18T10:52:45Z</time>
      </trkpt>
      <trkpt lat="43.48131" lon="-1.56869">
        <ele>9</ele>
        <time>2021-07-18T10:52:46Z</time>
      </trkpt>
      <trkpt lat="43.48135" lon="-1.56876">
        <ele>9.2</ele>
        <time>2021-07-18T10:52:48Z</time>
      </trkpt>
      <trkpt lat="43.48138" lon="-1.56879">
        <ele>9.3</ele>
        <time>2021-07-18T10:52:49Z</time>
      </trkpt>
      <trkpt lat="43.48143" lon="-1.56883">
        <ele>9.5</ele>
        <time>2021-07-18T10:52:51Z</time>
      </trkpt>
      <trkpt lat="43.48146" lon="-1.56884">
        <ele>9.7</ele>
        <time>2021-07-18T10:52:52Z</time>
      </trkpt>
      <trkpt lat="43.48149" lon="-1.56885">
        <ele>9.8</ele>
        <time>2021-07-18T10:52:53Z</time>
      </trkpt>
      <trkpt lat="43.48154" lon="-1.56886">
        <ele>10.1</ele>
        <time>2021-07-18T10:52:55Z</time>
      </trkpt>
      <trkpt lat="43.48156" lon="-1.56887">
        <ele>10.2</ele>
        <time>2021-07-18T10:52:56Z</time>
      </trkpt>
      <trkpt lat="43.4816" lon="-1.56885">
        <ele>10.5</ele>
        <time>2021-07-18T10:52:58Z</time>
      </trkpt>
      <trkpt lat="43.48162" lon="-1.56884">
        <ele>10.6</ele>
        <time>2021-07-18T10:52:59Z</time>
      </trkpt>
      <trkpt lat="43.48166" lon="-1.56881">
        <ele>10.8</ele>
        <time>2021-07-18T10:53:01Z</time>
      </trkpt>
      <trkpt lat="43.4817" lon="-1.56879">
        <ele>11</ele>
        <time>2021-07-18T10:53:03Z</time>
      </trkpt>
      <trkpt lat="43.48173" lon="-1.56877">
        <ele>11.1</ele>
        <time>2021-07-18T10:53:05Z</time>
      </trkpt>
      <trkpt lat="43.48174" lon="-1.56877">
        <ele>11.2</ele>
        <time>2021-07-18T10:53:06Z</time>
      </trkpt>
      <trkpt lat="43.48177" lon="-1.56875">
        <ele>11.3</ele>
        <time>2021-07-18T10:53:07Z</time>
      </trkpt>
      <trkpt lat="43.4818" lon="-1.56874">
        <ele>11.4</ele>
        <time>2021-07-18T10:53:08Z</time>
      </trkpt>
      <trkpt lat="43.48181" lon="-1.56873">
        <ele>11.4</ele>
        <time>2021-07-18T10:53:09Z</time>
      </trkpt>
      <trkpt lat="43.48182" lon="-1.56872">
        <ele>11.5</ele>
        <time>2021-07-18T10:53:11Z</time>
      </trkpt>
      <trkpt lat="43.48183" lon="-1.5687">
        <ele>11.5</ele>
        <time>2021-07-18T10:53:12Z</time>
      </trkpt>
      <trkpt lat="43.48183" lon="-1.56871">
        <ele>11.5</ele>
        <time>2021-07-18T10:53:14Z</time>
      </trkpt>
      <trkpt lat="43.48182" lon="-1.56871">
        <ele>11.6</ele>
        <time>2021-07-18T10:53:16Z</time>
      </trkpt>
      <trkpt lat="43.48182" lon="-1.56871">
        <ele>11.6</ele>
        <time>2021-07-18T10:53:18Z</time>
      </trkpt>
      <trkpt lat="43.48182" lon="-1.5687">
        <ele>11.6</ele>
        <time>2021-07-18T10:53:19Z</time>
      </trkpt>
      <trkpt lat="43.48182" lon="-1.56871">
        <ele>11.6</ele>
        <time>2021-07-18T10:53:21Z</time>
      </trkpt>
      <trkpt lat="43.48182" lon="-1.56871">
        <ele>11.6</ele>
        <time>2021-07-18T10:53:23Z</time>
      </trkpt>
      <trkpt lat="43.48183" lon="-1.5687">
        <ele>11.6</ele>
        <time>2021-07-18T10:53:47Z</time>
      </trkpt>
      <trkpt lat="43.48187" lon="-1.56867">
        <ele>11.8</ele>
        <time>2021-07-18T10:53:49Z</time>
      </trkpt>
      <trkpt lat="43.48189" lon="-1.56864">
        <ele>11.9</ele>
        <time>2021-07-18T10:53:50Z</time>
      </trkpt>
      <trkpt lat="43.48191" lon="-1.56863">
        <ele>11.9</ele>
        <time>2021-07-18T10:53:51Z</time>
      </trkpt>
      <trkpt lat="43.48193" lon="-1.56859">
        <ele>12</ele>
        <time>2021-07-18T10:53:53Z</time>
      </trkpt>
      <trkpt lat="43.48195" lon="-1.56857">
        <ele>12.1</ele>
        <time>2021-07-18T10:53:54Z</time>
      </trkpt>
      <trkpt lat="43.48198" lon="-1.56853">
        <ele>12.2</ele>
        <time>2021-07-18T10:53:56Z</time>
      </trkpt>
      <trkpt lat="43.48202" lon="-1.5685">
        <ele>12.3</ele>
        <time>2021-07-18T10:53:58Z</time>
      </trkpt>
      <trkpt lat="43.48204" lon="-1.56848">
        <ele>12.4</ele>
        <time>2021-07-18T10:53:59Z</time>
      </trkpt>
      <trkpt lat="43.48208" lon="-1.56844">
        <ele>12.5</ele>
        <time>2021-07-18T10:54:01Z</time>
      </trkpt>
      <trkpt lat="43.48209" lon="-1.56841">
        <ele>12.6</ele>
        <time>2021-07-18T10:54:02Z</time>
      </trkpt>
      <trkpt lat="43.48212" lon="-1.56835">
        <ele>12.7</ele>
        <time>2021-07-18T10:54:04Z</time>
      </trkpt>
      <trkpt lat="43.48214" lon="-1.5683">
        <ele>12.8</ele>
        <time>2021-07-18T10:54:06Z</time>
      </trkpt>
      <trkpt lat="43.48215" lon="-1.56826">
        <ele>12.8</ele>
        <time>2021-07-18T10:54:07Z</time>
      </trkpt>
      <trkpt lat="43.48217" lon="-1.5682">
        <ele>12.9</ele>
        <time>2021-07-18T10:54:09Z</time>
      </trkpt>
      <trkpt lat="43.48219" lon="-1.56813">
        <ele>13</ele>
        <time>2021-07-18T10:54:11Z</time>
      </trkpt>
      <trkpt lat="43.48219" lon="-1.5681">
        <ele>13</ele>
        <time>2021-07-18T10:54:12Z</time>
      </trkpt>
      <trkpt lat="43.48219" lon="-1.56802">
        <ele>13.2</ele>
        <time>2021-07-18T10:54:14Z</time>
      </trkpt>
      <trkpt lat="43.48219" lon="-1.56799">
        <ele>13.2</ele>
        <time>2021-07-18T10:54:15Z</time>
      </trkpt>
      <trkpt lat="43.48218" lon="-1.56791">
        <ele>13.4</ele>
        <time>2021-07-18T10:54:17Z</time>
      </trkpt>
      <trkpt lat="43.48217" lon="-1.56786">
        <ele>13.5</ele>
        <time>2021-07-18T10:54:19Z</time>
      </trkpt>
      <trkpt lat="43.48217" lon="-1.56783">
        <ele>13.6</ele>
        <time>2021-07-18T10:54:20Z</time>
      </trkpt>
      <trkpt lat="43.48216" lon="-1.56779">
        <ele>13.7</ele>
        <time>2021-07-18T10:54:21Z</time>
      </trkpt>
      <trkpt lat="43.48215" lon="-1.56772">
        <ele>13.9</ele>
        <time>2021-07-18T10:54:23Z</time>
      </trkpt>
      <trkpt lat="43.48215" lon="-1.56769">
        <ele>14</ele>
        <time>2021-07-18T10:54:24Z</time>
      </trkpt>
      <trkpt lat="43.48214" lon="-1.56763">
        <ele>14.1</ele>
        <time>2021-07-18T10:54:26Z</time>
      </trkpt>
      <trkpt lat="43.48214" lon="-1.56759">
        <ele>14.2</ele>
        <time>2021-07-18T10:54:27Z</time>
      </trkpt>
      <trkpt lat="43.48213" lon="-1.56754">
        <ele>14.4</ele>
        <time>2021-07-18T10:54:28Z</time>
      </trkpt>
      <trkpt lat="43.48213" lon="-1.56753">
        <ele>14.4</ele>
        <time>2021-07-18T10:54:29Z</time>
      </trkpt>
      <trkpt lat="43.48213" lon="-1.56746">
        <ele>14.6</ele>
        <time>2021-07-18T10:54:31Z</time>
      </trkpt>
      <trkpt lat="43.48212" lon="-1.56739">
        <ele>14.8</ele>
        <time>2021-07-18T10:54:33Z</time>
      </trkpt>
      <trkpt lat="43.48212" lon="-1.56733">
        <ele>15</ele>
        <time>2021-07-18T10:54:35Z</time>
      </trkpt>
      <trkpt lat="43.48212" lon="-1.5673">
        <ele>15.1</ele>
        <time>2021-07-18T10:54:36Z</time>
      </trkpt>
      <trkpt lat="43.48212" lon="-1.56724">
        <ele>15.3</ele>
        <time>2021-07-18T10:54:38Z</time>
      </trkpt>
      <trkpt lat="43.48214" lon="-1.5672">
        <ele>15.4</ele>
        <time>2021-07-18T10:54:39Z</time>
      </trkpt>
      <trkpt lat="43.48214" lon="-1.56719">
        <ele>15.4</ele>
        <time>2021-07-18T10:54:40Z</time>
      </trkpt>
      <trkpt lat="43.48215" lon="-1.56716">
        <ele>15.5</ele>
        <time>2021-07-18T10:54:41Z</time>
      </trkpt>
      <trkpt lat="43.48217" lon="-1.56711">
        <ele>15.6</ele>
        <time>2021-07-18T10:54:43Z</time>
      </trkpt>
      <trkpt lat="43.48219" lon="-1.56709">
        <ele>15.7</ele>
        <time>2021-07-18T10:54:44Z</time>
      </trkpt>
      <trkpt lat="43.48222" lon="-1.56705">
        <ele>15.9</ele>
        <time>2021-07-18T10:54:46Z</time>
      </trkpt>
      <trkpt lat="43.48223" lon="-1.56703">
        <ele>15.9</ele>
        <time>2021-07-18T10:54:47Z</time>
      </trkpt>
      <trkpt lat="43.48226" lon="-1.567">
        <ele>15.9</ele>
        <time>2021-07-18T10:54:49Z</time>
      </trkpt>
      <trkpt lat="43.48229" lon="-1.56699">
        <ele>15.8</ele>
        <time>2021-07-18T10:54:50Z</time>
      </trkpt>
      <trkpt lat="43.48233" lon="-1.56699">
        <ele>15.8</ele>
        <time>2021-07-18T10:54:51Z</time>
      </trkpt>
      <trkpt lat="43.48234" lon="-1.56699">
        <ele>15.8</ele>
        <time>2021-07-18T10:54:52Z</time>
      </trkpt>
      <trkpt lat="43.4824" lon="-1.567">
        <ele>15.7</ele>
        <time>2021-07-18T10:54:54Z</time>
      </trkpt>
      <trkpt lat="43.48243" lon="-1.56701">
        <ele>15.7</ele>
        <time>2021-07-18T10:54:55Z</time>
      </trkpt>
      <trkpt lat="43.48247" lon="-1.56706">
        <ele>15.6</ele>
        <time>2021-07-18T10:54:57Z</time>
      </trkpt>
      <trkpt lat="43.4825" lon="-1.5671">
        <ele>15.5</ele>
        <time>2021-07-18T10:54:58Z</time>
      </trkpt>
      <trkpt lat="43.48252" lon="-1.56713">
        <ele>15.5</ele>
        <time>2021-07-18T10:54:59Z</time>
      </trkpt>
      <trkpt lat="43.48254" lon="-1.56717">
        <ele>15.5</ele>
        <time>2021-07-18T10:55:00Z</time>
      </trkpt>
      <trkpt lat="43.48258" lon="-1.56725">
        <ele>15.4</ele>
        <time>2021-07-18T10:55:02Z</time>
      </trkpt>
      <trkpt lat="43.4826" lon="-1.56729">
        <ele>15.4</ele>
        <time>2021-07-18T10:55:03Z</time>
      </trkpt>
      <trkpt lat="43.48265" lon="-1.56737">
        <ele>15.4</ele>
        <time>2021-07-18T10:55:05Z</time>
      </trkpt>
      <trkpt lat="43.48269" lon="-1.56746">
        <ele>15.4</ele>
        <time>2021-07-18T10:55:07Z</time>
      </trkpt>
      <trkpt lat="43.48271" lon="-1.5675">
        <ele>15.4</ele>
        <time>2021-07-18T10:55:08Z</time>
      </trkpt>
      <trkpt lat="43.48274" lon="-1.56757">
        <ele>15.4</ele>
        <time>2021-07-18T10:55:10Z</time>
      </trkpt>
      <trkpt lat="43.48277" lon="-1.56764">
        <ele>15.4</ele>
        <time>2021-07-18T10:55:11Z</time>
      </trkpt>
      <trkpt lat="43.48279" lon="-1.56771">
        <ele>15.4</ele>
        <time>2021-07-18T10:55:12Z</time>
      </trkpt>
      <trkpt lat="43.48281" lon="-1.56775">
        <ele>15.4</ele>
        <time>2021-07-18T10:55:13Z</time>
      </trkpt>
      <trkpt lat="43.48282" lon="-1.5678">
        <ele>15.4</ele>
        <time>2021-07-18T10:55:15Z</time>
      </trkpt>
      <trkpt lat="43.48285" lon="-1.56787">
        <ele>15.4</ele>
        <time>2021-07-18T10:55:16Z</time>
      </trkpt>
      <trkpt lat="43.48287" lon="-1.56791">
        <ele>15.4</ele>
        <time>2021-07-18T10:55:17Z</time>
      </trkpt>
      <trkpt lat="43.48289" lon="-1.56796">
        <ele>15.4</ele>
        <time>2021-07-18T10:55:18Z</time>
      </trkpt>
      <trkpt lat="43.48292" lon="-1.56802">
        <ele>15.4</ele>
        <time>2021-07-18T10:55:20Z</time>
      </trkpt>
      <trkpt lat="43.48297" lon="-1.56805">
        <ele>15.4</ele>
        <time>2021-07-18T10:55:21Z</time>
      </trkpt>
      <trkpt lat="43.48302" lon="-1.56809">
        <ele>15.4</ele>
        <time>2021-07-18T10:55:23Z</time>
      </trkpt>
      <trkpt lat="43.48307" lon="-1.56812">
        <ele>15.4</ele>
        <time>2021-07-18T10:55:24Z</time>
      </trkpt>
      <trkpt lat="43.4831" lon="-1.56814">
        <ele>15.4</ele>
        <time>2021-07-18T10:55:25Z</time>
      </trkpt>
      <trkpt lat="43.48315" lon="-1.56816">
        <ele>15.5</ele>
        <time>2021-07-18T10:55:26Z</time>
      </trkpt>
      <trkpt lat="43.48318" lon="-1.56818">
        <ele>15.5</ele>
        <time>2021-07-18T10:55:27Z</time>
      </trkpt>
      <trkpt lat="43.48322" lon="-1.5682">
        <ele>15.5</ele>
        <time>2021-07-18T10:55:28Z</time>
      </trkpt>
      <trkpt lat="43.48329" lon="-1.56824">
        <ele>15.5</ele>
        <time>2021-07-18T10:55:30Z</time>
      </trkpt>
      <trkpt lat="43.48335" lon="-1.56826">
        <ele>15.6</ele>
        <time>2021-07-18T10:55:32Z</time>
      </trkpt>
      <trkpt lat="43.48338" lon="-1.56826">
        <ele>15.6</ele>
        <time>2021-07-18T10:55:33Z</time>
      </trkpt>
      <trkpt lat="43.48342" lon="-1.56826">
        <ele>15.7</ele>
        <time>2021-07-18T10:55:34Z</time>
      </trkpt>
      <trkpt lat="43.48345" lon="-1.56825">
        <ele>15.7</ele>
        <time>2021-07-18T10:55:35Z</time>
      </trkpt>
      <trkpt lat="43.48349" lon="-1.56821">
        <ele>15.7</ele>
        <time>2021-07-18T10:55:37Z</time>
      </trkpt>
      <trkpt lat="43.48352" lon="-1.56817">
        <ele>15.8</ele>
        <time>2021-07-18T10:55:38Z</time>
      </trkpt>
      <trkpt lat="43.48354" lon="-1.56812">
        <ele>15.8</ele>
        <time>2021-07-18T10:55:39Z</time>
      </trkpt>
      <trkpt lat="43.48358" lon="-1.56807">
        <ele>15.9</ele>
        <time>2021-07-18T10:55:41Z</time>
      </trkpt>
      <trkpt lat="43.48361" lon="-1.56804">
        <ele>15.9</ele>
        <time>2021-07-18T10:55:42Z</time>
      </trkpt>
      <trkpt lat="43.48364" lon="-1.568">
        <ele>16</ele>
        <time>2021-07-18T10:55:43Z</time>
      </trkpt>
      <trkpt lat="43.48368" lon="-1.56795">
        <ele>16.1</ele>
        <time>2021-07-18T10:55:44Z</time>
      </trkpt>
      <trkpt lat="43.48369" lon="-1.56791">
        <ele>16.2</ele>
        <time>2021-07-18T10:55:45Z</time>
      </trkpt>
      <trkpt lat="43.48369" lon="-1.56785">
        <ele>16.1</ele>
        <time>2021-07-18T10:55:47Z</time>
      </trkpt>
      <trkpt lat="43.48368" lon="-1.56778">
        <ele>16.1</ele>
        <time>2021-07-18T10:55:48Z</time>
      </trkpt>
      <trkpt lat="43.48365" lon="-1.56773">
        <ele>16.2</ele>
        <time>2021-07-18T10:55:49Z</time>
      </trkpt>
      <trkpt lat="43.48361" lon="-1.56767">
        <ele>16.2</ele>
        <time>2021-07-18T10:55:51Z</time>
      </trkpt>
      <trkpt lat="43.48358" lon="-1.56763">
        <ele>16.2</ele>
        <time>2021-07-18T10:55:52Z</time>
      </trkpt>
      <trkpt lat="43.48355" lon="-1.56757">
        <ele>16.3</ele>
        <time>2021-07-18T10:55:54Z</time>
      </trkpt>
      <trkpt lat="43.48351" lon="-1.56751">
        <ele>16.3</ele>
        <time>2021-07-18T10:55:56Z</time>
      </trkpt>
      <trkpt lat="43.48349" lon="-1.56748">
        <ele>16.3</ele>
        <time>2021-07-18T10:55:57Z</time>
      </trkpt>
      <trkpt lat="43.48346" lon="-1.56744">
        <ele>16.3</ele>
        <time>2021-07-18T10:55:59Z</time>
      </trkpt>
      <trkpt lat="43.48343" lon="-1.56739">
        <ele>16.3</ele>
        <time>2021-07-18T10:56:00Z</time>
      </trkpt>
      <trkpt lat="43.48337" lon="-1.56734">
        <ele>16.3</ele>
        <time>2021-07-18T10:56:02Z</time>
      </trkpt>
      <trkpt lat="43.48332" lon="-1.56729">
        <ele>16.3</ele>
        <time>2021-07-18T10:56:04Z</time>
      </trkpt>
      <trkpt lat="43.48329" lon="-1.56726">
        <ele>16.3</ele>
        <time>2021-07-18T10:56:05Z</time>
      </trkpt>
      <trkpt lat="43.48323" lon="-1.56719">
        <ele>16.2</ele>
        <time>2021-07-18T10:56:06Z</time>
      </trkpt>
      <trkpt lat="43.48321" lon="-1.56715">
        <ele>16.2</ele>
        <time>2021-07-18T10:56:08Z</time>
      </trkpt>
      <trkpt lat="43.48318" lon="-1.56712">
        <ele>16.2</ele>
        <time>2021-07-18T10:56:09Z</time>
      </trkpt>
      <trkpt lat="43.48313" lon="-1.56695">
        <ele>16.1</ele>
        <time>2021-07-18T10:56:11Z</time>
      </trkpt>
      <trkpt lat="43.4831" lon="-1.56689">
        <ele>16.1</ele>
        <time>2021-07-18T10:56:12Z</time>
      </trkpt>
      <trkpt lat="43.48309" lon="-1.56685">
        <ele>16.1</ele>
        <time>2021-07-18T10:56:13Z</time>
      </trkpt>
      <trkpt lat="43.48305" lon="-1.5668">
        <ele>16.1</ele>
        <time>2021-07-18T10:56:15Z</time>
      </trkpt>
      <trkpt lat="43.48302" lon="-1.56675">
        <ele>16.1</ele>
        <time>2021-07-18T10:56:16Z</time>
      </trkpt>
      <trkpt lat="43.483" lon="-1.56669">
        <ele>16.1</ele>
        <time>2021-07-18T10:56:17Z</time>
      </trkpt>
      <trkpt lat="43.48297" lon="-1.56662">
        <ele>16.1</ele>
        <time>2021-07-18T10:56:19Z</time>
      </trkpt>
      <trkpt lat="43.48297" lon="-1.56659">
        <ele>16.1</ele>
        <time>2021-07-18T10:56:20Z</time>
      </trkpt>
      <trkpt lat="43.48295" lon="-1.56653">
        <ele>16.2</ele>
        <time>2021-07-18T10:56:22Z</time>
      </trkpt>
      <trkpt lat="43.48295" lon="-1.56652">
        <ele>16.2</ele>
        <time>2021-07-18T10:56:23Z</time>
      </trkpt>
      <trkpt lat="43.48295" lon="-1.56652">
        <ele>16.2</ele>
        <time>2021-07-18T10:56:25Z</time>
      </trkpt>
      <trkpt lat="43.48295" lon="-1.56653">
        <ele>16.2</ele>
        <time>2021-07-18T10:56:26Z</time>
      </trkpt>
      <trkpt lat="43.48295" lon="-1.56653">
        <ele>16.2</ele>
        <time>2021-07-18T10:56:28Z</time>
      </trkpt>
      <trkpt lat="43.48295" lon="-1.56652">
        <ele>16.2</ele>
        <time>2021-07-18T10:56:30Z</time>
      </trkpt>
      <trkpt lat="43.48295" lon="-1.56652">
        <ele>16.2</ele>
        <time>2021-07-18T10:56:32Z</time>
      </trkpt>
      <trkpt lat="43.48295" lon="-1.56652">
        <ele>16.2</ele>
        <time>2021-07-18T10:56:33Z</time>
      </trkpt>
      <trkpt lat="43.48295" lon="-1.56652">
        <ele>16.2</ele>
        <time>2021-07-18T10:56:34Z</time>
      </trkpt>
      <trkpt lat="43.48295" lon="-1.56652">
        <ele>16.2</ele>
        <time>2021-07-18T10:56:35Z</time>
      </trkpt>
      <trkpt lat="43.48295" lon="-1.56651">
        <ele>16.2</ele>
        <time>2021-07-18T10:56:37Z</time>
      </trkpt>
      <trkpt lat="43.48296" lon="-1.56651">
        <ele>16.2</ele>
        <time>2021-07-18T10:56:38Z</time>
      </trkpt>
      <trkpt lat="43.48296" lon="-1.56651">
        <ele>16.2</ele>
        <time>2021-07-18T10:56:40Z</time>
      </trkpt>
      <trkpt lat="43.48297" lon="-1.56651">
        <ele>16.2</ele>
        <time>2021-07-18T10:56:41Z</time>
      </trkpt>
      <trkpt lat="43.48297" lon="-1.5665">
        <ele>16.2</ele>
        <time>2021-07-18T10:56:42Z</time>
      </trkpt>
      <trkpt lat="43.48299" lon="-1.5665">
        <ele>16.2</ele>
        <time>2021-07-18T10:56:44Z</time>
      </trkpt>
      <trkpt lat="43.48298" lon="-1.5665">
        <ele>16.2</ele>
        <time>2021-07-18T10:56:46Z</time>
      </trkpt>
      <trkpt lat="43.48299" lon="-1.56651">
        <ele>16.2</ele>
        <time>2021-07-18T10:56:47Z</time>
      </trkpt>
      <trkpt lat="43.48298" lon="-1.56652">
        <ele>16.2</ele>
        <time>2021-07-18T10:56:48Z</time>
      </trkpt>
      <trkpt lat="43.48299" lon="-1.56652">
        <ele>16.2</ele>
        <time>2021-07-18T10:56:49Z</time>
      </trkpt>
      <trkpt lat="43.48299" lon="-1.56652">
        <ele>16.2</ele>
        <time>2021-07-18T10:56:51Z</time>
      </trkpt>
      <trkpt lat="43.483" lon="-1.56652">
        <ele>16.2</ele>
        <time>2021-07-18T10:56:53Z</time>
      </trkpt>
      <trkpt lat="43.483" lon="-1.56652">
        <ele>16.2</ele>
        <time>2021-07-18T10:56:55Z</time>
      </trkpt>
      <trkpt lat="43.483" lon="-1.56652">
        <ele>16.2</ele>
        <time>2021-07-18T10:56:56Z</time>
      </trkpt>
      <trkpt lat="43.483" lon="-1.56651">
        <ele>16.2</ele>
        <time>2021-07-18T10:56:58Z</time>
      </trkpt>
      <trkpt lat="43.48295" lon="-1.56645">
        <ele>16.3</ele>
        <time>2021-07-18T10:57:43Z</time>
      </trkpt>
      <trkpt lat="43.48295" lon="-1.56643">
        <ele>16.3</ele>
        <time>2021-07-18T10:57:44Z</time>
      </trkpt>
      <trkpt lat="43.48294" lon="-1.56641">
        <ele>16.3</ele>
        <time>2021-07-18T10:57:45Z</time>
      </trkpt>
      <trkpt lat="43.48293" lon="-1.56636">
        <ele>16.3</ele>
        <time>2021-07-18T10:57:47Z</time>
      </trkpt>
      <trkpt lat="43.48292" lon="-1.56633">
        <ele>16.4</ele>
        <time>2021-07-18T10:57:48Z</time>
      </trkpt>
      <trkpt lat="43.48291" lon="-1.56628">
        <ele>16.5</ele>
        <time>2021-07-18T10:57:50Z</time>
      </trkpt>
      <trkpt lat="43.4829" lon="-1.56626">
        <ele>16.5</ele>
        <time>2021-07-18T10:57:51Z</time>
      </trkpt>
      <trkpt lat="43.4829" lon="-1.56623">
        <ele>16.5</ele>
        <time>2021-07-18T10:57:52Z</time>
      </trkpt>
      <trkpt lat="43.48288" lon="-1.56619">
        <ele>16.6</ele>
        <time>2021-07-18T10:57:54Z</time>
      </trkpt>
      <trkpt lat="43.48287" lon="-1.56615">
        <ele>16.7</ele>
        <time>2021-07-18T10:57:55Z</time>
      </trkpt>
      <trkpt lat="43.48286" lon="-1.56614">
        <ele>16.7</ele>
        <time>2021-07-18T10:57:56Z</time>
      </trkpt>
      <trkpt lat="43.48286" lon="-1.56611">
        <ele>16.8</ele>
        <time>2021-07-18T10:57:58Z</time>
      </trkpt>
      <trkpt lat="43.48286" lon="-1.56608">
        <ele>16.8</ele>
        <time>2021-07-18T10:58:00Z</time>
      </trkpt>
      <trkpt lat="43.48286" lon="-1.56607">
        <ele>16.9</ele>
        <time>2021-07-18T10:58:01Z</time>
      </trkpt>
      <trkpt lat="43.48287" lon="-1.56606">
        <ele>16.9</ele>
        <time>2021-07-18T10:58:02Z</time>
      </trkpt>
      <trkpt lat="43.48287" lon="-1.56603">
        <ele>16.9</ele>
        <time>2021-07-18T10:58:04Z</time>
      </trkpt>
      <trkpt lat="43.48287" lon="-1.56602">
        <ele>17</ele>
        <time>2021-07-18T10:58:05Z</time>
      </trkpt>
      <trkpt lat="43.48286" lon="-1.56601">
        <ele>17</ele>
        <time>2021-07-18T10:58:06Z</time>
      </trkpt>
      <trkpt lat="43.48286" lon="-1.566">
        <ele>17</ele>
        <time>2021-07-18T10:58:07Z</time>
      </trkpt>
      <trkpt lat="43.48285" lon="-1.56597">
        <ele>17.1</ele>
        <time>2021-07-18T10:58:09Z</time>
      </trkpt>
      <trkpt lat="43.48285" lon="-1.56594">
        <ele>17.1</ele>
        <time>2021-07-18T10:58:10Z</time>
      </trkpt>
      <trkpt lat="43.48284" lon="-1.56592">
        <ele>17.2</ele>
        <time>2021-07-18T10:58:11Z</time>
      </trkpt>
      <trkpt lat="43.48284" lon="-1.5659">
        <ele>17.2</ele>
        <time>2021-07-18T10:58:12Z</time>
      </trkpt>
      <trkpt lat="43.48283" lon="-1.56586">
        <ele>17.3</ele>
        <time>2021-07-18T10:58:14Z</time>
      </trkpt>
      <trkpt lat="43.48282" lon="-1.5658">
        <ele>17.4</ele>
        <time>2021-07-18T10:58:16Z</time>
      </trkpt>
      <trkpt lat="43.48282" lon="-1.56578">
        <ele>17.4</ele>
        <time>2021-07-18T10:58:17Z</time>
      </trkpt>
      <trkpt lat="43.48282" lon="-1.56576">
        <ele>17.4</ele>
        <time>2021-07-18T10:58:18Z</time>
      </trkpt>
      <trkpt lat="43.48281" lon="-1.56573">
        <ele>17.5</ele>
        <time>2021-07-18T10:58:19Z</time>
      </trkpt>
      <trkpt lat="43.48281" lon="-1.56568">
        <ele>17.5</ele>
        <time>2021-07-18T10:58:21Z</time>
      </trkpt>
      <trkpt lat="43.48281" lon="-1.56566">
        <ele>17.6</ele>
        <time>2021-07-18T10:58:22Z</time>
      </trkpt>
      <trkpt lat="43.48281" lon="-1.56562">
        <ele>17.6</ele>
        <time>2021-07-18T10:58:24Z</time>
      </trkpt>
      <trkpt lat="43.48281" lon="-1.56558">
        <ele>17.6</ele>
        <time>2021-07-18T10:58:25Z</time>
      </trkpt>
      <trkpt lat="43.48282" lon="-1.56552">
        <ele>17.7</ele>
        <time>2021-07-18T10:58:27Z</time>
      </trkpt>
      <trkpt lat="43.48283" lon="-1.56548">
        <ele>17.7</ele>
        <time>2021-07-18T10:58:28Z</time>
      </trkpt>
      <trkpt lat="43.48284" lon="-1.56544">
        <ele>17.8</ele>
        <time>2021-07-18T10:58:29Z</time>
      </trkpt>
      <trkpt lat="43.48286" lon="-1.56539">
        <ele>17.8</ele>
        <time>2021-07-18T10:58:31Z</time>
      </trkpt>
      <trkpt lat="43.48287" lon="-1.56534">
        <ele>17.8</ele>
        <time>2021-07-18T10:58:32Z</time>
      </trkpt>
      <trkpt lat="43.48288" lon="-1.56527">
        <ele>17.9</ele>
        <time>2021-07-18T10:58:34Z</time>
      </trkpt>
      <trkpt lat="43.48289" lon="-1.56522">
        <ele>17.9</ele>
        <time>2021-07-18T10:58:35Z</time>
      </trkpt>
      <trkpt lat="43.48289" lon="-1.56516">
        <ele>17.9</ele>
        <time>2021-07-18T10:58:37Z</time>
      </trkpt>
      <trkpt lat="43.4829" lon="-1.5651">
        <ele>17.9</ele>
        <time>2021-07-18T10:58:39Z</time>
      </trkpt>
      <trkpt lat="43.48291" lon="-1.56505">
        <ele>18</ele>
        <time>2021-07-18T10:58:40Z</time>
      </trkpt>
      <trkpt lat="43.48291" lon="-1.56501">
        <ele>18</ele>
        <time>2021-07-18T10:58:41Z</time>
      </trkpt>
      <trkpt lat="43.48292" lon="-1.56495">
        <ele>18</ele>
        <time>2021-07-18T10:58:43Z</time>
      </trkpt>
      <trkpt lat="43.48293" lon="-1.56489">
        <ele>18</ele>
        <time>2021-07-18T10:58:44Z</time>
      </trkpt>
      <trkpt lat="43.48293" lon="-1.56484">
        <ele>18</ele>
        <time>2021-07-18T10:58:46Z</time>
      </trkpt>
      <trkpt lat="43.48294" lon="-1.56477">
        <ele>18</ele>
        <time>2021-07-18T10:58:47Z</time>
      </trkpt>
      <trkpt lat="43.48295" lon="-1.56473">
        <ele>18</ele>
        <time>2021-07-18T10:58:48Z</time>
      </trkpt>
      <trkpt lat="43.48296" lon="-1.56464">
        <ele>17.9</ele>
        <time>2021-07-18T10:58:50Z</time>
      </trkpt>
      <trkpt lat="43.48296" lon="-1.5646">
        <ele>17.9</ele>
        <time>2021-07-18T10:58:51Z</time>
      </trkpt>
      <trkpt lat="43.48297" lon="-1.56456">
        <ele>17.9</ele>
        <time>2021-07-18T10:58:52Z</time>
      </trkpt>
      <trkpt lat="43.48298" lon="-1.56449">
        <ele>17.8</ele>
        <time>2021-07-18T10:58:54Z</time>
      </trkpt>
      <trkpt lat="43.48298" lon="-1.56443">
        <ele>17.8</ele>
        <time>2021-07-18T10:58:55Z</time>
      </trkpt>
      <trkpt lat="43.48299" lon="-1.56438">
        <ele>17.7</ele>
        <time>2021-07-18T10:58:56Z</time>
      </trkpt>
      <trkpt lat="43.48299" lon="-1.56434">
        <ele>17.7</ele>
        <time>2021-07-18T10:58:57Z</time>
      </trkpt>
      <trkpt lat="43.483" lon="-1.56426">
        <ele>17.6</ele>
        <time>2021-07-18T10:58:59Z</time>
      </trkpt>
      <trkpt lat="43.483" lon="-1.56421">
        <ele>17.6</ele>
        <time>2021-07-18T10:59:00Z</time>
      </trkpt>
      <trkpt lat="43.483" lon="-1.56413">
        <ele>17.5</ele>
        <time>2021-07-18T10:59:02Z</time>
      </trkpt>
      <trkpt lat="43.48299" lon="-1.56406">
        <ele>17.4</ele>
        <time>2021-07-18T10:59:03Z</time>
      </trkpt>
      <trkpt lat="43.48299" lon="-1.56401">
        <ele>17.3</ele>
        <time>2021-07-18T10:59:04Z</time>
      </trkpt>
      <trkpt lat="43.48298" lon="-1.56396">
        <ele>17.2</ele>
        <time>2021-07-18T10:59:05Z</time>
      </trkpt>
      <trkpt lat="43.48299" lon="-1.56388">
        <ele>17.1</ele>
        <time>2021-07-18T10:59:07Z</time>
      </trkpt>
      <trkpt lat="43.483" lon="-1.56382">
        <ele>17</ele>
        <time>2021-07-18T10:59:08Z</time>
      </trkpt>
      <trkpt lat="43.48302" lon="-1.56372">
        <ele>16.8</ele>
        <time>2021-07-18T10:59:10Z</time>
      </trkpt>
      <trkpt lat="43.48304" lon="-1.56364">
        <ele>16.5</ele>
        <time>2021-07-18T10:59:12Z</time>
      </trkpt>
      <trkpt lat="43.48306" lon="-1.5636">
        <ele>16.4</ele>
        <time>2021-07-18T10:59:13Z</time>
      </trkpt>
      <trkpt lat="43.48307" lon="-1.56355">
        <ele>16.2</ele>
        <time>2021-07-18T10:59:14Z</time>
      </trkpt>
      <trkpt lat="43.4831" lon="-1.56344">
        <ele>15.8</ele>
        <time>2021-07-18T10:59:16Z</time>
      </trkpt>
      <trkpt lat="43.48311" lon="-1.56337">
        <ele>15.6</ele>
        <time>2021-07-18T10:59:17Z</time>
      </trkpt>
      <trkpt lat="43.48313" lon="-1.56331">
        <ele>15.2</ele>
        <time>2021-07-18T10:59:18Z</time>
      </trkpt>
      <trkpt lat="43.48317" lon="-1.56317">
        <ele>14.6</ele>
        <time>2021-07-18T10:59:20Z</time>
      </trkpt>
      <trkpt lat="43.4832" lon="-1.56309">
        <ele>14.2</ele>
        <time>2021-07-18T10:59:21Z</time>
      </trkpt>
      <trkpt lat="43.48323" lon="-1.56301">
        <ele>13.7</ele>
        <time>2021-07-18T10:59:22Z</time>
      </trkpt>
      <trkpt lat="43.48325" lon="-1.56293">
        <ele>13.3</ele>
        <time>2021-07-18T10:59:23Z</time>
      </trkpt>
      <trkpt lat="43.48328" lon="-1.56285">
        <ele>12.9</ele>
        <time>2021-07-18T10:59:24Z</time>
      </trkpt>
      <trkpt lat="43.48335" lon="-1.5627">
        <ele>12.3</ele>
        <time>2021-07-18T10:59:26Z</time>
      </trkpt>
      <trkpt lat="43.4834" lon="-1.56259">
        <ele>11.9</ele>
        <time>2021-07-18T10:59:28Z</time>
      </trkpt>
      <trkpt lat="43.48345" lon="-1.56252">
        <ele>11.7</ele>
        <time>2021-07-18T10:59:30Z</time>
      </trkpt>
      <trkpt lat="43.48349" lon="-1.56249">
        <ele>11.6</ele>
        <time>2021-07-18T10:59:31Z</time>
      </trkpt>
      <trkpt lat="43.48358" lon="-1.56245">
        <ele>11.4</ele>
        <time>2021-07-18T10:59:33Z</time>
      </trkpt>
      <trkpt lat="43.48365" lon="-1.56236">
        <ele>11.2</ele>
        <time>2021-07-18T10:59:35Z</time>
      </trkpt>
      <trkpt lat="43.48368" lon="-1.5623">
        <ele>10.8</ele>
        <time>2021-07-18T10:59:36Z</time>
      </trkpt>
      <trkpt lat="43.4837" lon="-1.56217">
        <ele>10.5</ele>
        <time>2021-07-18T10:59:38Z</time>
      </trkpt>
      <trkpt lat="43.48367" lon="-1.56203">
        <ele>10</ele>
        <time>2021-07-18T10:59:40Z</time>
      </trkpt>
      <trkpt lat="43.48362" lon="-1.56189">
        <ele>9.6</ele>
        <time>2021-07-18T10:59:42Z</time>
      </trkpt>
      <trkpt lat="43.4835" lon="-1.5618">
        <ele>9</ele>
        <time>2021-07-18T10:59:44Z</time>
      </trkpt>
      <trkpt lat="43.48344" lon="-1.56177">
        <ele>8.7</ele>
        <time>2021-07-18T10:59:45Z</time>
      </trkpt>
      <trkpt lat="43.48332" lon="-1.56166">
        <ele>8.3</ele>
        <time>2021-07-18T10:59:47Z</time>
      </trkpt>
      <trkpt lat="43.48329" lon="-1.56147">
        <ele>8</ele>
        <time>2021-07-18T10:59:49Z</time>
      </trkpt>
      <trkpt lat="43.48331" lon="-1.56132">
        <ele>7.8</ele>
        <time>2021-07-18T10:59:51Z</time>
      </trkpt>
      <trkpt lat="43.48332" lon="-1.56127">
        <ele>7.7</ele>
        <time>2021-07-18T10:59:52Z</time>
      </trkpt>
      <trkpt lat="43.48333" lon="-1.56126">
        <ele>7.7</ele>
        <time>2021-07-18T10:59:53Z</time>
      </trkpt>
      <trkpt lat="43.48333" lon="-1.56121">
        <ele>7.6</ele>
        <time>2021-07-18T10:59:55Z</time>
      </trkpt>
      <trkpt lat="43.48332" lon="-1.56117">
        <ele>7.6</ele>
        <time>2021-07-18T10:59:57Z</time>
      </trkpt>
      <trkpt lat="43.48333" lon="-1.56111">
        <ele>7.5</ele>
        <time>2021-07-18T10:59:59Z</time>
      </trkpt>
      <trkpt lat="43.48333" lon="-1.56106">
        <ele>7.5</ele>
        <time>2021-07-18T11:00:00Z</time>
      </trkpt>
      <trkpt lat="43.48334" lon="-1.56102">
        <ele>7.5</ele>
        <time>2021-07-18T11:00:01Z</time>
      </trkpt>
      <trkpt lat="43.48334" lon="-1.56097">
        <ele>7.4</ele>
        <time>2021-07-18T11:00:02Z</time>
      </trkpt>
      <trkpt lat="43.48335" lon="-1.56091">
        <ele>7.4</ele>
        <time>2021-07-18T11:00:04Z</time>
      </trkpt>
      <trkpt lat="43.48336" lon="-1.56085">
        <ele>7.4</ele>
        <time>2021-07-18T11:00:05Z</time>
      </trkpt>
      <trkpt lat="43.48337" lon="-1.56077">
        <ele>7.4</ele>
        <time>2021-07-18T11:00:07Z</time>
      </trkpt>
      <trkpt lat="43.48337" lon="-1.56073">
        <ele>7.4</ele>
        <time>2021-07-18T11:00:08Z</time>
      </trkpt>
      <trkpt lat="43.48336" lon="-1.56066">
        <ele>7.3</ele>
        <time>2021-07-18T11:00:10Z</time>
      </trkpt>
      <trkpt lat="43.48336" lon="-1.56062">
        <ele>7.3</ele>
        <time>2021-07-18T11:00:11Z</time>
      </trkpt>
      <trkpt lat="43.48337" lon="-1.56056">
        <ele>7.3</ele>
        <time>2021-07-18T11:00:13Z</time>
      </trkpt>
      <trkpt lat="43.48337" lon="-1.56051">
        <ele>7.4</ele>
        <time>2021-07-18T11:00:14Z</time>
      </trkpt>
      <trkpt lat="43.48337" lon="-1.56049">
        <ele>7.4</ele>
        <time>2021-07-18T11:00:15Z</time>
      </trkpt>
      <trkpt lat="43.48336" lon="-1.56046">
        <ele>7.4</ele>
        <time>2021-07-18T11:00:16Z</time>
      </trkpt>
      <trkpt lat="43.48334" lon="-1.5604">
        <ele>7.4</ele>
        <time>2021-07-18T11:00:18Z</time>
      </trkpt>
      <trkpt lat="43.48333" lon="-1.56036">
        <ele>7.5</ele>
        <time>2021-07-18T11:00:19Z</time>
      </trkpt>
      <trkpt lat="43.4833" lon="-1.56029">
        <ele>7.5</ele>
        <time>2021-07-18T11:00:21Z</time>
      </trkpt>
      <trkpt lat="43.48327" lon="-1.56022">
        <ele>7.6</ele>
        <time>2021-07-18T11:00:23Z</time>
      </trkpt>
      <trkpt lat="43.48324" lon="-1.56014">
        <ele>7.7</ele>
        <time>2021-07-18T11:00:25Z</time>
      </trkpt>
      <trkpt lat="43.48323" lon="-1.56008">
        <ele>7.7</ele>
        <time>2021-07-18T11:00:27Z</time>
      </trkpt>
      <trkpt lat="43.4832" lon="-1.56001">
        <ele>7.8</ele>
        <time>2021-07-18T11:00:28Z</time>
      </trkpt>
      <trkpt lat="43.48319" lon="-1.55997">
        <ele>7.9</ele>
        <time>2021-07-18T11:00:29Z</time>
      </trkpt>
      <trkpt lat="43.48317" lon="-1.55989">
        <ele>8</ele>
        <time>2021-07-18T11:00:31Z</time>
      </trkpt>
      <trkpt lat="43.48317" lon="-1.55983">
        <ele>8</ele>
        <time>2021-07-18T11:00:32Z</time>
      </trkpt>
      <trkpt lat="43.48319" lon="-1.55974">
        <ele>8</ele>
        <time>2021-07-18T11:00:34Z</time>
      </trkpt>
      <trkpt lat="43.48322" lon="-1.55965">
        <ele>8</ele>
        <time>2021-07-18T11:00:36Z</time>
      </trkpt>
      <trkpt lat="43.48326" lon="-1.55956">
        <ele>8</ele>
        <time>2021-07-18T11:00:38Z</time>
      </trkpt>
      <trkpt lat="43.48329" lon="-1.55952">
        <ele>8</ele>
        <time>2021-07-18T11:00:39Z</time>
      </trkpt>
      <trkpt lat="43.48333" lon="-1.55946">
        <ele>8</ele>
        <time>2021-07-18T11:00:41Z</time>
      </trkpt>
      <trkpt lat="43.48336" lon="-1.55942">
        <ele>8.1</ele>
        <time>2021-07-18T11:00:43Z</time>
      </trkpt>
      <trkpt lat="43.48339" lon="-1.55938">
        <ele>8.1</ele>
        <time>2021-07-18T11:00:44Z</time>
      </trkpt>
      <trkpt lat="43.48342" lon="-1.55934">
        <ele>8.1</ele>
        <time>2021-07-18T11:00:45Z</time>
      </trkpt>
      <trkpt lat="43.48344" lon="-1.5593">
        <ele>8.2</ele>
        <time>2021-07-18T11:00:46Z</time>
      </trkpt>
      <trkpt lat="43.48348" lon="-1.55925">
        <ele>8.2</ele>
        <time>2021-07-18T11:00:48Z</time>
      </trkpt>
      <trkpt lat="43.48352" lon="-1.55921">
        <ele>8.3</ele>
        <time>2021-07-18T11:00:49Z</time>
      </trkpt>
      <trkpt lat="43.48355" lon="-1.55917">
        <ele>8.4</ele>
        <time>2021-07-18T11:00:50Z</time>
      </trkpt>
      <trkpt lat="43.48361" lon="-1.55911">
        <ele>8.5</ele>
        <time>2021-07-18T11:00:52Z</time>
      </trkpt>
      <trkpt lat="43.48364" lon="-1.55907">
        <ele>8.6</ele>
        <time>2021-07-18T11:00:53Z</time>
      </trkpt>
      <trkpt lat="43.48366" lon="-1.55903">
        <ele>8.7</ele>
        <time>2021-07-18T11:00:54Z</time>
      </trkpt>
      <trkpt lat="43.48372" lon="-1.55897">
        <ele>8.9</ele>
        <time>2021-07-18T11:00:56Z</time>
      </trkpt>
      <trkpt lat="43.48374" lon="-1.55894">
        <ele>9</ele>
        <time>2021-07-18T11:00:57Z</time>
      </trkpt>
      <trkpt lat="43.48376" lon="-1.55891">
        <ele>9.1</ele>
        <time>2021-07-18T11:00:58Z</time>
      </trkpt>
      <trkpt lat="43.48379" lon="-1.55888">
        <ele>9.2</ele>
        <time>2021-07-18T11:01:00Z</time>
      </trkpt>
      <trkpt lat="43.48381" lon="-1.55885">
        <ele>9.3</ele>
        <time>2021-07-18T11:01:01Z</time>
      </trkpt>
      <trkpt lat="43.48383" lon="-1.55881">
        <ele>9.4</ele>
        <time>2021-07-18T11:01:02Z</time>
      </trkpt>
      <trkpt lat="43.48385" lon="-1.55878">
        <ele>9.5</ele>
        <time>2021-07-18T11:01:03Z</time>
      </trkpt>
      <trkpt lat="43.48388" lon="-1.55874">
        <ele>9.6</ele>
        <time>2021-07-18T11:01:04Z</time>
      </trkpt>
      <trkpt lat="43.48389" lon="-1.55873">
        <ele>9.6</ele>
        <time>2021-07-18T11:01:05Z</time>
      </trkpt>
      <trkpt lat="43.48391" lon="-1.5587">
        <ele>9.7</ele>
        <time>2021-07-18T11:01:06Z</time>
      </trkpt>
      <trkpt lat="43.48393" lon="-1.55866">
        <ele>9.8</ele>
        <time>2021-07-18T11:01:08Z</time>
      </trkpt>
      <trkpt lat="43.48397" lon="-1.55863">
        <ele>9.9</ele>
        <time>2021-07-18T11:01:09Z</time>
      </trkpt>
      <trkpt lat="43.48399" lon="-1.55861">
        <ele>10</ele>
        <time>2021-07-18T11:01:10Z</time>
      </trkpt>
      <trkpt lat="43.48401" lon="-1.55858">
        <ele>10.1</ele>
        <time>2021-07-18T11:01:11Z</time>
      </trkpt>
      <trkpt lat="43.48404" lon="-1.55855">
        <ele>10.1</ele>
        <time>2021-07-18T11:01:12Z</time>
      </trkpt>
      <trkpt lat="43.48406" lon="-1.5585">
        <ele>10.2</ele>
        <time>2021-07-18T11:01:14Z</time>
      </trkpt>
      <trkpt lat="43.48409" lon="-1.55846">
        <ele>10.3</ele>
        <time>2021-07-18T11:01:16Z</time>
      </trkpt>
      <trkpt lat="43.48412" lon="-1.55842">
        <ele>10.3</ele>
        <time>2021-07-18T11:01:17Z</time>
      </trkpt>
      <trkpt lat="43.48415" lon="-1.55839">
        <ele>10.3</ele>
        <time>2021-07-18T11:01:18Z</time>
      </trkpt>
      <trkpt lat="43.4842" lon="-1.55834">
        <ele>10.3</ele>
        <time>2021-07-18T11:01:20Z</time>
      </trkpt>
      <trkpt lat="43.48425" lon="-1.55831">
        <ele>10.3</ele>
        <time>2021-07-18T11:01:22Z</time>
      </trkpt>
      <trkpt lat="43.48428" lon="-1.55828">
        <ele>10.3</ele>
        <time>2021-07-18T11:01:23Z</time>
      </trkpt>
      <trkpt lat="43.48433" lon="-1.55823">
        <ele>10.2</ele>
        <time>2021-07-18T11:01:25Z</time>
      </trkpt>
      <trkpt lat="43.48436" lon="-1.55819">
        <ele>10.2</ele>
        <time>2021-07-18T11:01:26Z</time>
      </trkpt>
      <trkpt lat="43.48441" lon="-1.55814">
        <ele>10.1</ele>
        <time>2021-07-18T11:01:28Z</time>
      </trkpt>
      <trkpt lat="43.48447" lon="-1.55808">
        <ele>10</ele>
        <time>2021-07-18T11:01:30Z</time>
      </trkpt>
      <trkpt lat="43.48451" lon="-1.55804">
        <ele>10</ele>
        <time>2021-07-18T11:01:31Z</time>
      </trkpt>
      <trkpt lat="43.48454" lon="-1.558">
        <ele>10</ele>
        <time>2021-07-18T11:01:32Z</time>
      </trkpt>
      <trkpt lat="43.48458" lon="-1.55795">
        <ele>9.9</ele>
        <time>2021-07-18T11:01:33Z</time>
      </trkpt>
      <trkpt lat="43.48463" lon="-1.55789">
        <ele>9.9</ele>
        <time>2021-07-18T11:01:35Z</time>
      </trkpt>
      <trkpt lat="43.48468" lon="-1.55783">
        <ele>9.9</ele>
        <time>2021-07-18T11:01:37Z</time>
      </trkpt>
      <trkpt lat="43.48472" lon="-1.55778">
        <ele>9.8</ele>
        <time>2021-07-18T11:01:38Z</time>
      </trkpt>
      <trkpt lat="43.48476" lon="-1.55773">
        <ele>9.8</ele>
        <time>2021-07-18T11:01:40Z</time>
      </trkpt>
      <trkpt lat="43.4848" lon="-1.55767">
        <ele>9.8</ele>
        <time>2021-07-18T11:01:41Z</time>
      </trkpt>
      <trkpt lat="43.48482" lon="-1.55764">
        <ele>9.8</ele>
        <time>2021-07-18T11:01:42Z</time>
      </trkpt>
      <trkpt lat="43.48488" lon="-1.55757">
        <ele>9.7</ele>
        <time>2021-07-18T11:01:44Z</time>
      </trkpt>
      <trkpt lat="43.48491" lon="-1.55753">
        <ele>9.7</ele>
        <time>2021-07-18T11:01:45Z</time>
      </trkpt>
      <trkpt lat="43.48494" lon="-1.55749">
        <ele>9.6</ele>
        <time>2021-07-18T11:01:46Z</time>
      </trkpt>
      <trkpt lat="43.48499" lon="-1.55744">
        <ele>9.6</ele>
        <time>2021-07-18T11:01:47Z</time>
      </trkpt>
      <trkpt lat="43.48506" lon="-1.55735">
        <ele>9.5</ele>
        <time>2021-07-18T11:01:49Z</time>
      </trkpt>
      <trkpt lat="43.4851" lon="-1.55731">
        <ele>9.4</ele>
        <time>2021-07-18T11:01:50Z</time>
      </trkpt>
      <trkpt lat="43.48517" lon="-1.55722">
        <ele>9.3</ele>
        <time>2021-07-18T11:01:52Z</time>
      </trkpt>
      <trkpt lat="43.48524" lon="-1.55713">
        <ele>9.3</ele>
        <time>2021-07-18T11:01:54Z</time>
      </trkpt>
      <trkpt lat="43.48527" lon="-1.55709">
        <ele>9.3</ele>
        <time>2021-07-18T11:01:55Z</time>
      </trkpt>
      <trkpt lat="43.48531" lon="-1.55705">
        <ele>9.4</ele>
        <time>2021-07-18T11:01:56Z</time>
      </trkpt>
      <trkpt lat="43.48538" lon="-1.55697">
        <ele>9.4</ele>
        <time>2021-07-18T11:01:58Z</time>
      </trkpt>
      <trkpt lat="43.48542" lon="-1.55692">
        <ele>9.5</ele>
        <time>2021-07-18T11:01:59Z</time>
      </trkpt>
      <trkpt lat="43.48545" lon="-1.55688">
        <ele>9.6</ele>
        <time>2021-07-18T11:02:00Z</time>
      </trkpt>
      <trkpt lat="43.48547" lon="-1.55683">
        <ele>9.7</ele>
        <time>2021-07-18T11:02:01Z</time>
      </trkpt>
      <trkpt lat="43.48548" lon="-1.55674">
        <ele>9.9</ele>
        <time>2021-07-18T11:02:03Z</time>
      </trkpt>
      <trkpt lat="43.48546" lon="-1.55666">
        <ele>10.8</ele>
        <time>2021-07-18T11:02:05Z</time>
      </trkpt>
      <trkpt lat="43.48545" lon="-1.55663">
        <ele>11</ele>
        <time>2021-07-18T11:02:06Z</time>
      </trkpt>
      <trkpt lat="43.48542" lon="-1.55657">
        <ele>11.2</ele>
        <time>2021-07-18T11:02:08Z</time>
      </trkpt>
      <trkpt lat="43.4854" lon="-1.55654">
        <ele>11.3</ele>
        <time>2021-07-18T11:02:09Z</time>
      </trkpt>
      <trkpt lat="43.48537" lon="-1.55651">
        <ele>11.5</ele>
        <time>2021-07-18T11:02:11Z</time>
      </trkpt>
      <trkpt lat="43.48533" lon="-1.55647">
        <ele>11.7</ele>
        <time>2021-07-18T11:02:13Z</time>
      </trkpt>
      <trkpt lat="43.48533" lon="-1.55641">
        <ele>11.9</ele>
        <time>2021-07-18T11:02:15Z</time>
      </trkpt>
      <trkpt lat="43.48533" lon="-1.55639">
        <ele>12</ele>
        <time>2021-07-18T11:02:17Z</time>
      </trkpt>
      <trkpt lat="43.48534" lon="-1.55638">
        <ele>12</ele>
        <time>2021-07-18T11:02:18Z</time>
      </trkpt>
      <trkpt lat="43.48533" lon="-1.55635">
        <ele>12.1</ele>
        <time>2021-07-18T11:02:19Z</time>
      </trkpt>
      <trkpt lat="43.48533" lon="-1.55633">
        <ele>12.2</ele>
        <time>2021-07-18T11:02:20Z</time>
      </trkpt>
      <trkpt lat="43.48532" lon="-1.55628">
        <ele>12.2</ele>
        <time>2021-07-18T11:02:22Z</time>
      </trkpt>
      <trkpt lat="43.48531" lon="-1.55625">
        <ele>12.1</ele>
        <time>2021-07-18T11:02:23Z</time>
      </trkpt>
      <trkpt lat="43.4853" lon="-1.55624">
        <ele>12.1</ele>
        <time>2021-07-18T11:02:24Z</time>
      </trkpt>
      <trkpt lat="43.4853" lon="-1.55619">
        <ele>12.1</ele>
        <time>2021-07-18T11:02:26Z</time>
      </trkpt>
      <trkpt lat="43.48532" lon="-1.55614">
        <ele>12.1</ele>
        <time>2021-07-18T11:02:27Z</time>
      </trkpt>
      <trkpt lat="43.48534" lon="-1.5561">
        <ele>12</ele>
        <time>2021-07-18T11:02:28Z</time>
      </trkpt>
      <trkpt lat="43.48537" lon="-1.55605">
        <ele>12</ele>
        <time>2021-07-18T11:02:29Z</time>
      </trkpt>
      <trkpt lat="43.48539" lon="-1.55602">
        <ele>11.9</ele>
        <time>2021-07-18T11:02:30Z</time>
      </trkpt>
      <trkpt lat="43.48543" lon="-1.55594">
        <ele>11.9</ele>
        <time>2021-07-18T11:02:32Z</time>
      </trkpt>
      <trkpt lat="43.48547" lon="-1.55588">
        <ele>11.8</ele>
        <time>2021-07-18T11:02:33Z</time>
      </trkpt>
      <trkpt lat="43.48549" lon="-1.55584">
        <ele>11.8</ele>
        <time>2021-07-18T11:02:34Z</time>
      </trkpt>
      <trkpt lat="43.48552" lon="-1.55576">
        <ele>11.8</ele>
        <time>2021-07-18T11:02:36Z</time>
      </trkpt>
      <trkpt lat="43.48556" lon="-1.5557">
        <ele>11.8</ele>
        <time>2021-07-18T11:02:37Z</time>
      </trkpt>
      <trkpt lat="43.4856" lon="-1.5556">
        <ele>11.9</ele>
        <time>2021-07-18T11:02:39Z</time>
      </trkpt>
      <trkpt lat="43.48563" lon="-1.55555">
        <ele>12</ele>
        <time>2021-07-18T11:02:40Z</time>
      </trkpt>
      <trkpt lat="43.48569" lon="-1.55549">
        <ele>12.1</ele>
        <time>2021-07-18T11:02:42Z</time>
      </trkpt>
      <trkpt lat="43.48573" lon="-1.55543">
        <ele>12.3</ele>
        <time>2021-07-18T11:02:44Z</time>
      </trkpt>
      <trkpt lat="43.48577" lon="-1.5554">
        <ele>12.4</ele>
        <time>2021-07-18T11:02:45Z</time>
      </trkpt>
      <trkpt lat="43.4858" lon="-1.55537">
        <ele>12.5</ele>
        <time>2021-07-18T11:02:46Z</time>
      </trkpt>
      <trkpt lat="43.48582" lon="-1.55534">
        <ele>12.6</ele>
        <time>2021-07-18T11:02:47Z</time>
      </trkpt>
      <trkpt lat="43.48585" lon="-1.55532">
        <ele>12.7</ele>
        <time>2021-07-18T11:02:48Z</time>
      </trkpt>
      <trkpt lat="43.48588" lon="-1.5553">
        <ele>12.8</ele>
        <time>2021-07-18T11:02:49Z</time>
      </trkpt>
      <trkpt lat="43.48592" lon="-1.55527">
        <ele>13</ele>
        <time>2021-07-18T11:02:51Z</time>
      </trkpt>
      <trkpt lat="43.48595" lon="-1.55524">
        <ele>13.1</ele>
        <time>2021-07-18T11:02:52Z</time>
      </trkpt>
      <trkpt lat="43.48599" lon="-1.55523">
        <ele>13.3</ele>
        <time>2021-07-18T11:02:53Z</time>
      </trkpt>
      <trkpt lat="43.48601" lon="-1.55522">
        <ele>13.4</ele>
        <time>2021-07-18T11:02:54Z</time>
      </trkpt>
      <trkpt lat="43.48606" lon="-1.55521">
        <ele>13.7</ele>
        <time>2021-07-18T11:02:56Z</time>
      </trkpt>
      <trkpt lat="43.48611" lon="-1.5552">
        <ele>13.9</ele>
        <time>2021-07-18T11:02:58Z</time>
      </trkpt>
      <trkpt lat="43.48615" lon="-1.55519">
        <ele>14.1</ele>
        <time>2021-07-18T11:02:59Z</time>
      </trkpt>
      <trkpt lat="43.48616" lon="-1.55519">
        <ele>14.2</ele>
        <time>2021-07-18T11:03:00Z</time>
      </trkpt>
      <trkpt lat="43.4862" lon="-1.55518">
        <ele>14.4</ele>
        <time>2021-07-18T11:03:02Z</time>
      </trkpt>
      <trkpt lat="43.48625" lon="-1.55518">
        <ele>14.7</ele>
        <time>2021-07-18T11:03:04Z</time>
      </trkpt>
      <trkpt lat="43.4863" lon="-1.55518">
        <ele>15</ele>
        <time>2021-07-18T11:03:06Z</time>
      </trkpt>
      <trkpt lat="43.48634" lon="-1.55518">
        <ele>15.2</ele>
        <time>2021-07-18T11:03:07Z</time>
      </trkpt>
      <trkpt lat="43.48636" lon="-1.55518">
        <ele>15.3</ele>
        <time>2021-07-18T11:03:08Z</time>
      </trkpt>
      <trkpt lat="43.48638" lon="-1.55517">
        <ele>15.5</ele>
        <time>2021-07-18T11:03:09Z</time>
      </trkpt>
      <trkpt lat="43.48644" lon="-1.55517">
        <ele>15.8</ele>
        <time>2021-07-18T11:03:11Z</time>
      </trkpt>
      <trkpt lat="43.48646" lon="-1.55516">
        <ele>15.9</ele>
        <time>2021-07-18T11:03:12Z</time>
      </trkpt>
      <trkpt lat="43.48652" lon="-1.55516">
        <ele>16.2</ele>
        <time>2021-07-18T11:03:14Z</time>
      </trkpt>
      <trkpt lat="43.48654" lon="-1.55515">
        <ele>16.3</ele>
        <time>2021-07-18T11:03:15Z</time>
      </trkpt>
      <trkpt lat="43.48658" lon="-1.55513">
        <ele>16.5</ele>
        <time>2021-07-18T11:03:17Z</time>
      </trkpt>
      <trkpt lat="43.48662" lon="-1.55511">
        <ele>16.8</ele>
        <time>2021-07-18T11:03:18Z</time>
      </trkpt>
      <trkpt lat="43.48663" lon="-1.5551">
        <ele>16.8</ele>
        <time>2021-07-18T11:03:19Z</time>
      </trkpt>
      <trkpt lat="43.48666" lon="-1.55507">
        <ele>17</ele>
        <time>2021-07-18T11:03:20Z</time>
      </trkpt>
      <trkpt lat="43.48667" lon="-1.55506">
        <ele>17.1</ele>
        <time>2021-07-18T11:03:21Z</time>
      </trkpt>
      <trkpt lat="43.48671" lon="-1.55502">
        <ele>17.4</ele>
        <time>2021-07-18T11:03:23Z</time>
      </trkpt>
      <trkpt lat="43.48674" lon="-1.555">
        <ele>17.5</ele>
        <time>2021-07-18T11:03:24Z</time>
      </trkpt>
      <trkpt lat="43.48677" lon="-1.55496">
        <ele>17.7</ele>
        <time>2021-07-18T11:03:26Z</time>
      </trkpt>
      <trkpt lat="43.48681" lon="-1.55491">
        <ele>18</ele>
        <time>2021-07-18T11:03:28Z</time>
      </trkpt>
      <trkpt lat="43.48682" lon="-1.55489">
        <ele>18.1</ele>
        <time>2021-07-18T11:03:29Z</time>
      </trkpt>
      <trkpt lat="43.48686" lon="-1.55485">
        <ele>18.3</ele>
        <time>2021-07-18T11:03:31Z</time>
      </trkpt>
      <trkpt lat="43.48688" lon="-1.55481">
        <ele>18.5</ele>
        <time>2021-07-18T11:03:32Z</time>
      </trkpt>
      <trkpt lat="43.48689" lon="-1.5548">
        <ele>18.6</ele>
        <time>2021-07-18T11:03:33Z</time>
      </trkpt>
      <trkpt lat="43.48691" lon="-1.55478">
        <ele>18.7</ele>
        <time>2021-07-18T11:03:34Z</time>
      </trkpt>
      <trkpt lat="43.48694" lon="-1.55474">
        <ele>19</ele>
        <time>2021-07-18T11:03:36Z</time>
      </trkpt>
      <trkpt lat="43.48696" lon="-1.5547">
        <ele>19.2</ele>
        <time>2021-07-18T11:03:37Z</time>
      </trkpt>
      <trkpt lat="43.48697" lon="-1.55469">
        <ele>19.2</ele>
        <time>2021-07-18T11:03:38Z</time>
      </trkpt>
      <trkpt lat="43.487" lon="-1.55465">
        <ele>19.5</ele>
        <time>2021-07-18T11:03:40Z</time>
      </trkpt>
      <trkpt lat="43.48703" lon="-1.55461">
        <ele>19.8</ele>
        <time>2021-07-18T11:03:42Z</time>
      </trkpt>
      <trkpt lat="43.48705" lon="-1.55459">
        <ele>19.9</ele>
        <time>2021-07-18T11:03:43Z</time>
      </trkpt>
      <trkpt lat="43.48708" lon="-1.55455">
        <ele>20.2</ele>
        <time>2021-07-18T11:03:45Z</time>
      </trkpt>
      <trkpt lat="43.4871" lon="-1.5545">
        <ele>20.5</ele>
        <time>2021-07-18T11:03:47Z</time>
      </trkpt>
      <trkpt lat="43.48713" lon="-1.55446">
        <ele>20.8</ele>
        <time>2021-07-18T11:03:49Z</time>
      </trkpt>
      <trkpt lat="43.48716" lon="-1.55442">
        <ele>21.1</ele>
        <time>2021-07-18T11:03:51Z</time>
      </trkpt>
      <trkpt lat="43.48718" lon="-1.5544">
        <ele>21.3</ele>
        <time>2021-07-18T11:03:52Z</time>
      </trkpt>
      <trkpt lat="43.48721" lon="-1.55435">
        <ele>21.6</ele>
        <time>2021-07-18T11:03:54Z</time>
      </trkpt>
      <trkpt lat="43.48723" lon="-1.55432">
        <ele>21.8</ele>
        <time>2021-07-18T11:03:55Z</time>
      </trkpt>
      <trkpt lat="43.48724" lon="-1.55431">
        <ele>21.9</ele>
        <time>2021-07-18T11:03:56Z</time>
      </trkpt>
      <trkpt lat="43.48726" lon="-1.55426">
        <ele>22.2</ele>
        <time>2021-07-18T11:03:58Z</time>
      </trkpt>
      <trkpt lat="43.48728" lon="-1.55424">
        <ele>22.3</ele>
        <time>2021-07-18T11:03:59Z</time>
      </trkpt>
      <trkpt lat="43.48731" lon="-1.55419">
        <ele>22.6</ele>
        <time>2021-07-18T11:04:01Z</time>
      </trkpt>
      <trkpt lat="43.48733" lon="-1.55416">
        <ele>22.8</ele>
        <time>2021-07-18T11:04:02Z</time>
      </trkpt>
      <trkpt lat="43.48733" lon="-1.55415">
        <ele>22.9</ele>
        <time>2021-07-18T11:04:03Z</time>
      </trkpt>
      <trkpt lat="43.48736" lon="-1.5541">
        <ele>23.2</ele>
        <time>2021-07-18T11:04:05Z</time>
      </trkpt>
      <trkpt lat="43.48739" lon="-1.55407">
        <ele>23.4</ele>
        <time>2021-07-18T11:04:07Z</time>
      </trkpt>
      <trkpt lat="43.48741" lon="-1.55405">
        <ele>23.6</ele>
        <time>2021-07-18T11:04:08Z</time>
      </trkpt>
      <trkpt lat="43.48744" lon="-1.55401">
        <ele>23.9</ele>
        <time>2021-07-18T11:04:10Z</time>
      </trkpt>
      <trkpt lat="43.48746" lon="-1.55399">
        <ele>24</ele>
        <time>2021-07-18T11:04:11Z</time>
      </trkpt>
      <trkpt lat="43.48749" lon="-1.55395">
        <ele>24.3</ele>
        <time>2021-07-18T11:04:13Z</time>
      </trkpt>
      <trkpt lat="43.48752" lon="-1.5539">
        <ele>24.6</ele>
        <time>2021-07-18T11:04:15Z</time>
      </trkpt>
      <trkpt lat="43.48755" lon="-1.55386">
        <ele>24.9</ele>
        <time>2021-07-18T11:04:17Z</time>
      </trkpt>
      <trkpt lat="43.48756" lon="-1.55384">
        <ele>25</ele>
        <time>2021-07-18T11:04:18Z</time>
      </trkpt>
      <trkpt lat="43.48759" lon="-1.5538">
        <ele>25.3</ele>
        <time>2021-07-18T11:04:20Z</time>
      </trkpt>
      <trkpt lat="43.4876" lon="-1.55378">
        <ele>25.4</ele>
        <time>2021-07-18T11:04:21Z</time>
      </trkpt>
      <trkpt lat="43.48763" lon="-1.55374">
        <ele>25.7</ele>
        <time>2021-07-18T11:04:23Z</time>
      </trkpt>
      <trkpt lat="43.48766" lon="-1.5537">
        <ele>26</ele>
        <time>2021-07-18T11:04:25Z</time>
      </trkpt>
      <trkpt lat="43.48769" lon="-1.55366">
        <ele>26.2</ele>
        <time>2021-07-18T11:04:27Z</time>
      </trkpt>
      <trkpt lat="43.4877" lon="-1.55365">
        <ele>26.3</ele>
        <time>2021-07-18T11:04:28Z</time>
      </trkpt>
      <trkpt lat="43.48772" lon="-1.55364">
        <ele>26.4</ele>
        <time>2021-07-18T11:04:29Z</time>
      </trkpt>
      <trkpt lat="43.48773" lon="-1.55362">
        <ele>26.5</ele>
        <time>2021-07-18T11:04:30Z</time>
      </trkpt>
      <trkpt lat="43.48775" lon="-1.5536">
        <ele>26.7</ele>
        <time>2021-07-18T11:04:32Z</time>
      </trkpt>
      <trkpt lat="43.48778" lon="-1.55357">
        <ele>27</ele>
        <time>2021-07-18T11:04:34Z</time>
      </trkpt>
      <trkpt lat="43.4878" lon="-1.55354">
        <ele>27.1</ele>
        <time>2021-07-18T11:04:36Z</time>
      </trkpt>
      <trkpt lat="43.48781" lon="-1.55352">
        <ele>27.2</ele>
        <time>2021-07-18T11:04:37Z</time>
      </trkpt>
      <trkpt lat="43.48785" lon="-1.55349">
        <ele>27.6</ele>
        <time>2021-07-18T11:04:39Z</time>
      </trkpt>
      <trkpt lat="43.48788" lon="-1.55345">
        <ele>27.9</ele>
        <time>2021-07-18T11:04:41Z</time>
      </trkpt>
      <trkpt lat="43.4879" lon="-1.55342">
        <ele>28.2</ele>
        <time>2021-07-18T11:04:42Z</time>
      </trkpt>
      <trkpt lat="43.48791" lon="-1.55341">
        <ele>28.3</ele>
        <time>2021-07-18T11:04:43Z</time>
      </trkpt>
      <trkpt lat="43.48794" lon="-1.55339">
        <ele>28.5</ele>
        <time>2021-07-18T11:04:44Z</time>
      </trkpt>
      <trkpt lat="43.48795" lon="-1.55338">
        <ele>28.6</ele>
        <time>2021-07-18T11:04:45Z</time>
      </trkpt>
      <trkpt lat="43.48799" lon="-1.55335">
        <ele>29</ele>
        <time>2021-07-18T11:04:47Z</time>
      </trkpt>
      <trkpt lat="43.48802" lon="-1.55333">
        <ele>29.3</ele>
        <time>2021-07-18T11:04:48Z</time>
      </trkpt>
      <trkpt lat="43.48803" lon="-1.55332">
        <ele>29.4</ele>
        <time>2021-07-18T11:04:49Z</time>
      </trkpt>
      <trkpt lat="43.48808" lon="-1.55329">
        <ele>29.8</ele>
        <time>2021-07-18T11:04:51Z</time>
      </trkpt>
      <trkpt lat="43.48812" lon="-1.55327">
        <ele>30.2</ele>
        <time>2021-07-18T11:04:53Z</time>
      </trkpt>
      <trkpt lat="43.48816" lon="-1.55325">
        <ele>30.5</ele>
        <time>2021-07-18T11:04:55Z</time>
      </trkpt>
      <trkpt lat="43.4882" lon="-1.55323">
        <ele>30.8</ele>
        <time>2021-07-18T11:04:56Z</time>
      </trkpt>
      <trkpt lat="43.48821" lon="-1.55323">
        <ele>30.9</ele>
        <time>2021-07-18T11:04:57Z</time>
      </trkpt>
      <trkpt lat="43.48825" lon="-1.55322">
        <ele>30.9</ele>
        <time>2021-07-18T11:04:59Z</time>
      </trkpt>
      <trkpt lat="43.48827" lon="-1.55321">
        <ele>31</ele>
        <time>2021-07-18T11:05:00Z</time>
      </trkpt>
      <trkpt lat="43.48832" lon="-1.55319">
        <ele>31.4</ele>
        <time>2021-07-18T11:05:02Z</time>
      </trkpt>
      <trkpt lat="43.48833" lon="-1.55319">
        <ele>31.5</ele>
        <time>2021-07-18T11:05:03Z</time>
      </trkpt>
      <trkpt lat="43.48837" lon="-1.55316">
        <ele>31.8</ele>
        <time>2021-07-18T11:05:05Z</time>
      </trkpt>
      <trkpt lat="43.48841" lon="-1.55314">
        <ele>32.1</ele>
        <time>2021-07-18T11:05:07Z</time>
      </trkpt>
      <trkpt lat="43.48845" lon="-1.55312">
        <ele>32.3</ele>
        <time>2021-07-18T11:05:09Z</time>
      </trkpt>
      <trkpt lat="43.48849" lon="-1.5531">
        <ele>32.6</ele>
        <time>2021-07-18T11:05:11Z</time>
      </trkpt>
      <trkpt lat="43.48852" lon="-1.55308">
        <ele>32.8</ele>
        <time>2021-07-18T11:05:12Z</time>
      </trkpt>
      <trkpt lat="43.48853" lon="-1.55307">
        <ele>32.9</ele>
        <time>2021-07-18T11:05:13Z</time>
      </trkpt>
      <trkpt lat="43.48857" lon="-1.55305">
        <ele>33.1</ele>
        <time>2021-07-18T11:05:15Z</time>
      </trkpt>
      <trkpt lat="43.48862" lon="-1.55303">
        <ele>33.5</ele>
        <time>2021-07-18T11:05:17Z</time>
      </trkpt>
      <trkpt lat="43.48863" lon="-1.55303">
        <ele>33.6</ele>
        <time>2021-07-18T11:05:18Z</time>
      </trkpt>
      <trkpt lat="43.48867" lon="-1.55301">
        <ele>33.8</ele>
        <time>2021-07-18T11:05:20Z</time>
      </trkpt>
      <trkpt lat="43.48869" lon="-1.553">
        <ele>33.9</ele>
        <time>2021-07-18T11:05:21Z</time>
      </trkpt>
      <trkpt lat="43.48873" lon="-1.55299">
        <ele>34.2</ele>
        <time>2021-07-18T11:05:23Z</time>
      </trkpt>
      <trkpt lat="43.48876" lon="-1.55297">
        <ele>34.4</ele>
        <time>2021-07-18T11:05:24Z</time>
      </trkpt>
      <trkpt lat="43.48877" lon="-1.55296">
        <ele>34.5</ele>
        <time>2021-07-18T11:05:25Z</time>
      </trkpt>
      <trkpt lat="43.48882" lon="-1.55295">
        <ele>34.7</ele>
        <time>2021-07-18T11:05:27Z</time>
      </trkpt>
      <trkpt lat="43.48886" lon="-1.55292">
        <ele>35</ele>
        <time>2021-07-18T11:05:29Z</time>
      </trkpt>
      <trkpt lat="43.4889" lon="-1.5529">
        <ele>35.3</ele>
        <time>2021-07-18T11:05:31Z</time>
      </trkpt>
      <trkpt lat="43.48892" lon="-1.55288">
        <ele>35.4</ele>
        <time>2021-07-18T11:05:32Z</time>
      </trkpt>
      <trkpt lat="43.48896" lon="-1.55286">
        <ele>35.7</ele>
        <time>2021-07-18T11:05:34Z</time>
      </trkpt>
      <trkpt lat="43.48898" lon="-1.55284">
        <ele>35.7</ele>
        <time>2021-07-18T11:05:35Z</time>
      </trkpt>
      <trkpt lat="43.48902" lon="-1.55282">
        <ele>35.9</ele>
        <time>2021-07-18T11:05:37Z</time>
      </trkpt>
      <trkpt lat="43.48905" lon="-1.5528">
        <ele>36</ele>
        <time>2021-07-18T11:05:38Z</time>
      </trkpt>
      <trkpt lat="43.48906" lon="-1.55279">
        <ele>36.1</ele>
        <time>2021-07-18T11:05:39Z</time>
      </trkpt>
      <trkpt lat="43.4891" lon="-1.55277">
        <ele>36.2</ele>
        <time>2021-07-18T11:05:41Z</time>
      </trkpt>
      <trkpt lat="43.48911" lon="-1.55276">
        <ele>36.3</ele>
        <time>2021-07-18T11:05:42Z</time>
      </trkpt>
      <trkpt lat="43.48915" lon="-1.55275">
        <ele>36.5</ele>
        <time>2021-07-18T11:05:44Z</time>
      </trkpt>
      <trkpt lat="43.48919" lon="-1.55274">
        <ele>36.7</ele>
        <time>2021-07-18T11:05:45Z</time>
      </trkpt>
      <trkpt lat="43.4892" lon="-1.55273">
        <ele>36.8</ele>
        <time>2021-07-18T11:05:46Z</time>
      </trkpt>
      <trkpt lat="43.48924" lon="-1.55271">
        <ele>37.1</ele>
        <time>2021-07-18T11:05:48Z</time>
      </trkpt>
      <trkpt lat="43.48926" lon="-1.5527">
        <ele>37.2</ele>
        <time>2021-07-18T11:05:49Z</time>
      </trkpt>
      <trkpt lat="43.4893" lon="-1.55267">
        <ele>37.5</ele>
        <time>2021-07-18T11:05:51Z</time>
      </trkpt>
      <trkpt lat="43.48933" lon="-1.55266">
        <ele>37.6</ele>
        <time>2021-07-18T11:05:52Z</time>
      </trkpt>
      <trkpt lat="43.48937" lon="-1.55265">
        <ele>37.8</ele>
        <time>2021-07-18T11:05:54Z</time>
      </trkpt>
      <trkpt lat="43.48941" lon="-1.55264">
        <ele>38</ele>
        <time>2021-07-18T11:05:55Z</time>
      </trkpt>
      <trkpt lat="43.48942" lon="-1.55263">
        <ele>38</ele>
        <time>2021-07-18T11:05:56Z</time>
      </trkpt>
      <trkpt lat="43.48945" lon="-1.55261">
        <ele>38.2</ele>
        <time>2021-07-18T11:05:58Z</time>
      </trkpt>
      <trkpt lat="43.48948" lon="-1.55259">
        <ele>38.3</ele>
        <time>2021-07-18T11:05:59Z</time>
      </trkpt>
      <trkpt lat="43.48953" lon="-1.55257">
        <ele>38.6</ele>
        <time>2021-07-18T11:06:01Z</time>
      </trkpt>
      <trkpt lat="43.48958" lon="-1.55256">
        <ele>38.8</ele>
        <time>2021-07-18T11:06:03Z</time>
      </trkpt>
      <trkpt lat="43.48962" lon="-1.55254">
        <ele>39.1</ele>
        <time>2021-07-18T11:06:05Z</time>
      </trkpt>
      <trkpt lat="43.48965" lon="-1.55253">
        <ele>39.2</ele>
        <time>2021-07-18T11:06:06Z</time>
      </trkpt>
      <trkpt lat="43.48968" lon="-1.55252">
        <ele>39.4</ele>
        <time>2021-07-18T11:06:07Z</time>
      </trkpt>
      <trkpt lat="43.48971" lon="-1.5525">
        <ele>39.5</ele>
        <time>2021-07-18T11:06:09Z</time>
      </trkpt>
      <trkpt lat="43.48976" lon="-1.55248">
        <ele>39.7</ele>
        <time>2021-07-18T11:06:11Z</time>
      </trkpt>
      <trkpt lat="43.48981" lon="-1.55245">
        <ele>39.9</ele>
        <time>2021-07-18T11:06:13Z</time>
      </trkpt>
      <trkpt lat="43.48983" lon="-1.55244">
        <ele>40</ele>
        <time>2021-07-18T11:06:14Z</time>
      </trkpt>
      <trkpt lat="43.48987" lon="-1.55242">
        <ele>40.1</ele>
        <time>2021-07-18T11:06:16Z</time>
      </trkpt>
      <trkpt lat="43.4899" lon="-1.55241">
        <ele>40.2</ele>
        <time>2021-07-18T11:06:17Z</time>
      </trkpt>
      <trkpt lat="43.48993" lon="-1.5524">
        <ele>40.3</ele>
        <time>2021-07-18T11:06:18Z</time>
      </trkpt>
      <trkpt lat="43.48998" lon="-1.55238">
        <ele>40.4</ele>
        <time>2021-07-18T11:06:20Z</time>
      </trkpt>
      <trkpt lat="43.49001" lon="-1.55236">
        <ele>40.5</ele>
        <time>2021-07-18T11:06:21Z</time>
      </trkpt>
      <trkpt lat="43.49004" lon="-1.55234">
        <ele>40.5</ele>
        <time>2021-07-18T11:06:23Z</time>
      </trkpt>
      <trkpt lat="43.49008" lon="-1.55232">
        <ele>40.6</ele>
        <time>2021-07-18T11:06:24Z</time>
      </trkpt>
      <trkpt lat="43.49011" lon="-1.55231">
        <ele>40.6</ele>
        <time>2021-07-18T11:06:25Z</time>
      </trkpt>
      <trkpt lat="43.49014" lon="-1.5523">
        <ele>40.7</ele>
        <time>2021-07-18T11:06:26Z</time>
      </trkpt>
      <trkpt lat="43.49017" lon="-1.55228">
        <ele>40.7</ele>
        <time>2021-07-18T11:06:27Z</time>
      </trkpt>
      <trkpt lat="43.49023" lon="-1.55226">
        <ele>40.7</ele>
        <time>2021-07-18T11:06:29Z</time>
      </trkpt>
      <trkpt lat="43.49027" lon="-1.55224">
        <ele>40.8</ele>
        <time>2021-07-18T11:06:30Z</time>
      </trkpt>
      <trkpt lat="43.4903" lon="-1.55222">
        <ele>40.8</ele>
        <time>2021-07-18T11:06:31Z</time>
      </trkpt>
      <trkpt lat="43.49035" lon="-1.55219">
        <ele>40.8</ele>
        <time>2021-07-18T11:06:33Z</time>
      </trkpt>
      <trkpt lat="43.4904" lon="-1.55217">
        <ele>40.8</ele>
        <time>2021-07-18T11:06:34Z</time>
      </trkpt>
      <trkpt lat="43.49043" lon="-1.55215">
        <ele>40.8</ele>
        <time>2021-07-18T11:06:35Z</time>
      </trkpt>
      <trkpt lat="43.49051" lon="-1.55212">
        <ele>40.8</ele>
        <time>2021-07-18T11:06:37Z</time>
      </trkpt>
      <trkpt lat="43.49056" lon="-1.55209">
        <ele>40.8</ele>
        <time>2021-07-18T11:06:39Z</time>
      </trkpt>
      <trkpt lat="43.4906" lon="-1.55207">
        <ele>40.8</ele>
        <time>2021-07-18T11:06:40Z</time>
      </trkpt>
      <trkpt lat="43.49065" lon="-1.55205">
        <ele>40.8</ele>
        <time>2021-07-18T11:06:41Z</time>
      </trkpt>
      <trkpt lat="43.49069" lon="-1.55203">
        <ele>40.8</ele>
        <time>2021-07-18T11:06:42Z</time>
      </trkpt>
      <trkpt lat="43.49075" lon="-1.552">
        <ele>40.7</ele>
        <time>2021-07-18T11:06:44Z</time>
      </trkpt>
      <trkpt lat="43.4908" lon="-1.55199">
        <ele>40.7</ele>
        <time>2021-07-18T11:06:45Z</time>
      </trkpt>
      <trkpt lat="43.49086" lon="-1.55199">
        <ele>40.7</ele>
        <time>2021-07-18T11:06:46Z</time>
      </trkpt>
      <trkpt lat="43.4909" lon="-1.55199">
        <ele>40.7</ele>
        <time>2021-07-18T11:06:47Z</time>
      </trkpt>
      <trkpt lat="43.49094" lon="-1.55198">
        <ele>40.7</ele>
        <time>2021-07-18T11:06:48Z</time>
      </trkpt>
      <trkpt lat="43.491" lon="-1.55198">
        <ele>40.7</ele>
        <time>2021-07-18T11:06:50Z</time>
      </trkpt>
      <trkpt lat="43.49106" lon="-1.55198">
        <ele>40.7</ele>
        <time>2021-07-18T11:06:51Z</time>
      </trkpt>
      <trkpt lat="43.49113" lon="-1.55197">
        <ele>40.7</ele>
        <time>2021-07-18T11:06:53Z</time>
      </trkpt>
      <trkpt lat="43.49116" lon="-1.55197">
        <ele>40.7</ele>
        <time>2021-07-18T11:06:54Z</time>
      </trkpt>
      <trkpt lat="43.49124" lon="-1.55197">
        <ele>40.7</ele>
        <time>2021-07-18T11:06:56Z</time>
      </trkpt>
      <trkpt lat="43.49127" lon="-1.55197">
        <ele>40.7</ele>
        <time>2021-07-18T11:06:57Z</time>
      </trkpt>
      <trkpt lat="43.49134" lon="-1.55194">
        <ele>40.8</ele>
        <time>2021-07-18T11:06:59Z</time>
      </trkpt>
      <trkpt lat="43.4914" lon="-1.5519">
        <ele>40.8</ele>
        <time>2021-07-18T11:07:01Z</time>
      </trkpt>
      <trkpt lat="43.49144" lon="-1.55187">
        <ele>40.8</ele>
        <time>2021-07-18T11:07:02Z</time>
      </trkpt>
      <trkpt lat="43.49147" lon="-1.55185">
        <ele>40.8</ele>
        <time>2021-07-18T11:07:03Z</time>
      </trkpt>
      <trkpt lat="43.4915" lon="-1.55182">
        <ele>40.8</ele>
        <time>2021-07-18T11:07:04Z</time>
      </trkpt>
      <trkpt lat="43.49153" lon="-1.55178">
        <ele>40.8</ele>
        <time>2021-07-18T11:07:05Z</time>
      </trkpt>
      <trkpt lat="43.49159" lon="-1.55174">
        <ele>40.9</ele>
        <time>2021-07-18T11:07:07Z</time>
      </trkpt>
      <trkpt lat="43.49162" lon="-1.55175">
        <ele>40.8</ele>
        <time>2021-07-18T11:07:08Z</time>
      </trkpt>
      <trkpt lat="43.49167" lon="-1.55177">
        <ele>40.7</ele>
        <time>2021-07-18T11:07:09Z</time>
      </trkpt>
      <trkpt lat="43.49172" lon="-1.55178">
        <ele>40.6</ele>
        <time>2021-07-18T11:07:11Z</time>
      </trkpt>
      <trkpt lat="43.49178" lon="-1.55179">
        <ele>40.5</ele>
        <time>2021-07-18T11:07:12Z</time>
      </trkpt>
      <trkpt lat="43.49183" lon="-1.55179">
        <ele>40.4</ele>
        <time>2021-07-18T11:07:13Z</time>
      </trkpt>
      <trkpt lat="43.49188" lon="-1.5518">
        <ele>40.3</ele>
        <time>2021-07-18T11:07:14Z</time>
      </trkpt>
      <trkpt lat="43.49193" lon="-1.55181">
        <ele>40.2</ele>
        <time>2021-07-18T11:07:15Z</time>
      </trkpt>
      <trkpt lat="43.49198" lon="-1.55182">
        <ele>40.2</ele>
        <time>2021-07-18T11:07:17Z</time>
      </trkpt>
      <trkpt lat="43.49203" lon="-1.55185">
        <ele>40.1</ele>
        <time>2021-07-18T11:07:18Z</time>
      </trkpt>
      <trkpt lat="43.49207" lon="-1.55188">
        <ele>40.1</ele>
        <time>2021-07-18T11:07:19Z</time>
      </trkpt>
      <trkpt lat="43.49214" lon="-1.55193">
        <ele>40</ele>
        <time>2021-07-18T11:07:21Z</time>
      </trkpt>
      <trkpt lat="43.49218" lon="-1.55198">
        <ele>39.9</ele>
        <time>2021-07-18T11:07:22Z</time>
      </trkpt>
      <trkpt lat="43.49223" lon="-1.55204">
        <ele>39.9</ele>
        <time>2021-07-18T11:07:24Z</time>
      </trkpt>
      <trkpt lat="43.49226" lon="-1.55209">
        <ele>39.8</ele>
        <time>2021-07-18T11:07:25Z</time>
      </trkpt>
      <trkpt lat="43.49231" lon="-1.55216">
        <ele>39.7</ele>
        <time>2021-07-18T11:07:26Z</time>
      </trkpt>
      <trkpt lat="43.49236" lon="-1.55221">
        <ele>39.6</ele>
        <time>2021-07-18T11:07:28Z</time>
      </trkpt>
      <trkpt lat="43.49239" lon="-1.55226">
        <ele>39.6</ele>
        <time>2021-07-18T11:07:29Z</time>
      </trkpt>
      <trkpt lat="43.49244" lon="-1.55232">
        <ele>39.5</ele>
        <time>2021-07-18T11:07:30Z</time>
      </trkpt>
      <trkpt lat="43.49248" lon="-1.55236">
        <ele>39.5</ele>
        <time>2021-07-18T11:07:31Z</time>
      </trkpt>
      <trkpt lat="43.49255" lon="-1.55244">
        <ele>39.4</ele>
        <time>2021-07-18T11:07:33Z</time>
      </trkpt>
      <trkpt lat="43.4926" lon="-1.55247">
        <ele>39.3</ele>
        <time>2021-07-18T11:07:34Z</time>
      </trkpt>
      <trkpt lat="43.4927" lon="-1.5525">
        <ele>39.1</ele>
        <time>2021-07-18T11:07:36Z</time>
      </trkpt>
      <trkpt lat="43.49274" lon="-1.55252">
        <ele>39</ele>
        <time>2021-07-18T11:07:37Z</time>
      </trkpt>
      <trkpt lat="43.49278" lon="-1.55256">
        <ele>38.9</ele>
        <time>2021-07-18T11:07:38Z</time>
      </trkpt>
      <trkpt lat="43.49283" lon="-1.55257">
        <ele>38.8</ele>
        <time>2021-07-18T11:07:40Z</time>
      </trkpt>
      <trkpt lat="43.49289" lon="-1.55257">
        <ele>38.6</ele>
        <time>2021-07-18T11:07:41Z</time>
      </trkpt>
      <trkpt lat="43.49293" lon="-1.55255">
        <ele>38.4</ele>
        <time>2021-07-18T11:07:42Z</time>
      </trkpt>
      <trkpt lat="43.49303" lon="-1.55253">
        <ele>38.1</ele>
        <time>2021-07-18T11:07:44Z</time>
      </trkpt>
      <trkpt lat="43.49312" lon="-1.55257">
        <ele>37.7</ele>
        <time>2021-07-18T11:07:46Z</time>
      </trkpt>
      <trkpt lat="43.49316" lon="-1.55261">
        <ele>37.5</ele>
        <time>2021-07-18T11:07:47Z</time>
      </trkpt>
      <trkpt lat="43.4932" lon="-1.55266">
        <ele>37.2</ele>
        <time>2021-07-18T11:07:48Z</time>
      </trkpt>
      <trkpt lat="43.49327" lon="-1.55279">
        <ele>36.5</ele>
        <time>2021-07-18T11:07:50Z</time>
      </trkpt>
      <trkpt lat="43.49329" lon="-1.55286">
        <ele>36.1</ele>
        <time>2021-07-18T11:07:51Z</time>
      </trkpt>
      <trkpt lat="43.49332" lon="-1.55294">
        <ele>35.7</ele>
        <time>2021-07-18T11:07:52Z</time>
      </trkpt>
      <trkpt lat="43.49335" lon="-1.55301">
        <ele>35.3</ele>
        <time>2021-07-18T11:07:53Z</time>
      </trkpt>
      <trkpt lat="43.49338" lon="-1.55308">
        <ele>34.9</ele>
        <time>2021-07-18T11:07:54Z</time>
      </trkpt>
      <trkpt lat="43.49342" lon="-1.55321">
        <ele>34.1</ele>
        <time>2021-07-18T11:07:56Z</time>
      </trkpt>
      <trkpt lat="43.49344" lon="-1.55327">
        <ele>33.7</ele>
        <time>2021-07-18T11:07:57Z</time>
      </trkpt>
      <trkpt lat="43.49346" lon="-1.55333">
        <ele>33.4</ele>
        <time>2021-07-18T11:07:58Z</time>
      </trkpt>
      <trkpt lat="43.49348" lon="-1.55337">
        <ele>33.1</ele>
        <time>2021-07-18T11:07:59Z</time>
      </trkpt>
      <trkpt lat="43.49352" lon="-1.55344">
        <ele>32.6</ele>
        <time>2021-07-18T11:08:01Z</time>
      </trkpt>
      <trkpt lat="43.49361" lon="-1.55344">
        <ele>32.2</ele>
        <time>2021-07-18T11:08:03Z</time>
      </trkpt>
      <trkpt lat="43.49371" lon="-1.55344">
        <ele>32</ele>
        <time>2021-07-18T11:08:05Z</time>
      </trkpt>
      <trkpt lat="43.49373" lon="-1.5534">
        <ele>31.9</ele>
        <time>2021-07-18T11:08:06Z</time>
      </trkpt>
      <trkpt lat="43.49376" lon="-1.55341">
        <ele>31.9</ele>
        <time>2021-07-18T11:08:07Z</time>
      </trkpt>
      <trkpt lat="43.49381" lon="-1.55344">
        <ele>31.8</ele>
        <time>2021-07-18T11:08:09Z</time>
      </trkpt>
      <trkpt lat="43.49382" lon="-1.55348">
        <ele>31.8</ele>
        <time>2021-07-18T11:08:10Z</time>
      </trkpt>
      <trkpt lat="43.49385" lon="-1.55351">
        <ele>31.9</ele>
        <time>2021-07-18T11:08:11Z</time>
      </trkpt>
      <trkpt lat="43.49388" lon="-1.55353">
        <ele>31.9</ele>
        <time>2021-07-18T11:08:13Z</time>
      </trkpt>
      <trkpt lat="43.4939" lon="-1.55356">
        <ele>31.9</ele>
        <time>2021-07-18T11:08:14Z</time>
      </trkpt>
      <trkpt lat="43.49392" lon="-1.55358">
        <ele>31.9</ele>
        <time>2021-07-18T11:08:15Z</time>
      </trkpt>
      <trkpt lat="43.49395" lon="-1.5536">
        <ele>31.9</ele>
        <time>2021-07-18T11:08:17Z</time>
      </trkpt>
      <trkpt lat="43.49397" lon="-1.5536">
        <ele>31.9</ele>
        <time>2021-07-18T11:08:18Z</time>
      </trkpt>
      <trkpt lat="43.49401" lon="-1.55359">
        <ele>32</ele>
        <time>2021-07-18T11:08:20Z</time>
      </trkpt>
      <trkpt lat="43.49403" lon="-1.55356">
        <ele>32</ele>
        <time>2021-07-18T11:08:21Z</time>
      </trkpt>
      <trkpt lat="43.49405" lon="-1.55351">
        <ele>32</ele>
        <time>2021-07-18T11:08:22Z</time>
      </trkpt>
      <trkpt lat="43.49407" lon="-1.55348">
        <ele>32</ele>
        <time>2021-07-18T11:08:24Z</time>
      </trkpt>
      <trkpt lat="43.49408" lon="-1.55344">
        <ele>32</ele>
        <time>2021-07-18T11:08:25Z</time>
      </trkpt>
      <trkpt lat="43.49411" lon="-1.5534">
        <ele>32.1</ele>
        <time>2021-07-18T11:08:26Z</time>
      </trkpt>
      <trkpt lat="43.49413" lon="-1.55336">
        <ele>32.1</ele>
        <time>2021-07-18T11:08:27Z</time>
      </trkpt>
      <trkpt lat="43.49415" lon="-1.55337">
        <ele>32.1</ele>
        <time>2021-07-18T11:08:28Z</time>
      </trkpt>
      <trkpt lat="43.49419" lon="-1.55341">
        <ele>32</ele>
        <time>2021-07-18T11:08:30Z</time>
      </trkpt>
      <trkpt lat="43.49422" lon="-1.55343">
        <ele>32</ele>
        <time>2021-07-18T11:08:31Z</time>
      </trkpt>
      <trkpt lat="43.49424" lon="-1.55346">
        <ele>32</ele>
        <time>2021-07-18T11:08:32Z</time>
      </trkpt>
      <trkpt lat="43.49425" lon="-1.55349">
        <ele>32</ele>
        <time>2021-07-18T11:08:33Z</time>
      </trkpt>
      <trkpt lat="43.49425" lon="-1.55354">
        <ele>31.9</ele>
        <time>2021-07-18T11:08:35Z</time>
      </trkpt>
      <trkpt lat="43.49424" lon="-1.55358">
        <ele>31.9</ele>
        <time>2021-07-18T11:08:36Z</time>
      </trkpt>
      <trkpt lat="43.49424" lon="-1.55359">
        <ele>31.9</ele>
        <time>2021-07-18T11:08:37Z</time>
      </trkpt>
      <trkpt lat="43.49422" lon="-1.55363">
        <ele>31.9</ele>
        <time>2021-07-18T11:08:39Z</time>
      </trkpt>
      <trkpt lat="43.49421" lon="-1.55365">
        <ele>31.9</ele>
        <time>2021-07-18T11:08:40Z</time>
      </trkpt>
      <trkpt lat="43.49419" lon="-1.55368">
        <ele>31.8</ele>
        <time>2021-07-18T11:08:42Z</time>
      </trkpt>
      <trkpt lat="43.49419" lon="-1.55368">
        <ele>31.8</ele>
        <time>2021-07-18T11:08:43Z</time>
      </trkpt>
      <trkpt lat="43.49419" lon="-1.55367">
        <ele>31.8</ele>
        <time>2021-07-18T11:08:45Z</time>
      </trkpt>
      <trkpt lat="43.49419" lon="-1.55367">
        <ele>31.8</ele>
        <time>2021-07-18T11:08:46Z</time>
      </trkpt>
      <trkpt lat="43.49419" lon="-1.55367">
        <ele>31.8</ele>
        <time>2021-07-18T11:08:47Z</time>
      </trkpt>
      <trkpt lat="43.49419" lon="-1.55367">
        <ele>31.8</ele>
        <time>2021-07-18T11:08:49Z</time>
      </trkpt>
      <trkpt lat="43.49419" lon="-1.55367">
        <ele>31.8</ele>
        <time>2021-07-18T11:08:51Z</time>
      </trkpt>
      <trkpt lat="43.49419" lon="-1.55367">
        <ele>31.8</ele>
        <time>2021-07-18T11:08:52Z</time>
      </trkpt>
      <trkpt lat="43.49419" lon="-1.55368">
        <ele>31.8</ele>
        <time>2021-07-18T11:08:54Z</time>
      </trkpt>
      <trkpt lat="43.49416" lon="-1.55373">
        <ele>31.8</ele>
        <time>2021-07-18T11:08:57Z</time>
      </trkpt>
      <trkpt lat="43.49415" lon="-1.55374">
        <ele>31.7</ele>
        <time>2021-07-18T11:08:58Z</time>
      </trkpt>
      <trkpt lat="43.49413" lon="-1.55377">
        <ele>31.7</ele>
        <time>2021-07-18T11:09:00Z</time>
      </trkpt>
      <trkpt lat="43.49411" lon="-1.55381">
        <ele>31.7</ele>
        <time>2021-07-18T11:09:01Z</time>
      </trkpt>
      <trkpt lat="43.49409" lon="-1.55384">
        <ele>31.6</ele>
        <time>2021-07-18T11:09:02Z</time>
      </trkpt>
      <trkpt lat="43.49409" lon="-1.55385">
        <ele>31.6</ele>
        <time>2021-07-18T11:09:03Z</time>
      </trkpt>
      <trkpt lat="43.49406" lon="-1.5539">
        <ele>31.6</ele>
        <time>2021-07-18T11:09:05Z</time>
      </trkpt>
      <trkpt lat="43.49405" lon="-1.55392">
        <ele>31.6</ele>
        <time>2021-07-18T11:09:06Z</time>
      </trkpt>
      <trkpt lat="43.49405" lon="-1.55394">
        <ele>31.6</ele>
        <time>2021-07-18T11:09:07Z</time>
      </trkpt>
      <trkpt lat="43.49405" lon="-1.55398">
        <ele>31.5</ele>
        <time>2021-07-18T11:09:08Z</time>
      </trkpt>
      <trkpt lat="43.49402" lon="-1.55402">
        <ele>31.5</ele>
        <time>2021-07-18T11:09:10Z</time>
      </trkpt>
      <trkpt lat="43.49399" lon="-1.55405">
        <ele>31.5</ele>
        <time>2021-07-18T11:09:12Z</time>
      </trkpt>
      <trkpt lat="43.49396" lon="-1.55409">
        <ele>31.6</ele>
        <time>2021-07-18T11:09:13Z</time>
      </trkpt>
      <trkpt lat="43.49395" lon="-1.55411">
        <ele>31.6</ele>
        <time>2021-07-18T11:09:14Z</time>
      </trkpt>
      <trkpt lat="43.49393" lon="-1.55414">
        <ele>31.6</ele>
        <time>2021-07-18T11:09:15Z</time>
      </trkpt>
      <trkpt lat="43.49389" lon="-1.55416">
        <ele>31.6</ele>
        <time>2021-07-18T11:09:17Z</time>
      </trkpt>
      <trkpt lat="43.49387" lon="-1.5542">
        <ele>31.6</ele>
        <time>2021-07-18T11:09:18Z</time>
      </trkpt>
      <trkpt lat="43.49384" lon="-1.55424">
        <ele>31.6</ele>
        <time>2021-07-18T11:09:19Z</time>
      </trkpt>
      <trkpt lat="43.49382" lon="-1.55425">
        <ele>31.6</ele>
        <time>2021-07-18T11:09:20Z</time>
      </trkpt>
      <trkpt lat="43.49379" lon="-1.5543">
        <ele>31.7</ele>
        <time>2021-07-18T11:09:22Z</time>
      </trkpt>
      <trkpt lat="43.49375" lon="-1.55434">
        <ele>31.7</ele>
        <time>2021-07-18T11:09:24Z</time>
      </trkpt>
      <trkpt lat="43.49372" lon="-1.55436">
        <ele>31.7</ele>
        <time>2021-07-18T11:09:26Z</time>
      </trkpt>
      <trkpt lat="43.4937" lon="-1.55436">
        <ele>31.7</ele>
        <time>2021-07-18T11:09:27Z</time>
      </trkpt>
      <trkpt lat="43.49368" lon="-1.55436">
        <ele>31.8</ele>
        <time>2021-07-18T11:09:28Z</time>
      </trkpt>
      <trkpt lat="43.49366" lon="-1.55436">
        <ele>31.8</ele>
        <time>2021-07-18T11:09:29Z</time>
      </trkpt>
      <trkpt lat="43.49362" lon="-1.55436">
        <ele>31.8</ele>
        <time>2021-07-18T11:09:31Z</time>
      </trkpt>
      <trkpt lat="43.49358" lon="-1.55437">
        <ele>31.8</ele>
        <time>2021-07-18T11:09:33Z</time>
      </trkpt>
      <trkpt lat="43.49357" lon="-1.55435">
        <ele>31.9</ele>
        <time>2021-07-18T11:09:34Z</time>
      </trkpt>
      <trkpt lat="43.49354" lon="-1.55431">
        <ele>31.9</ele>
        <time>2021-07-18T11:09:36Z</time>
      </trkpt>
      <trkpt lat="43.49352" lon="-1.5543">
        <ele>31.9</ele>
        <time>2021-07-18T11:09:37Z</time>
      </trkpt>
      <trkpt lat="43.49351" lon="-1.55428">
        <ele>31.9</ele>
        <time>2021-07-18T11:09:38Z</time>
      </trkpt>
      <trkpt lat="43.49348" lon="-1.55425">
        <ele>31.9</ele>
        <time>2021-07-18T11:09:40Z</time>
      </trkpt>
      <trkpt lat="43.49345" lon="-1.55423">
        <ele>31.9</ele>
        <time>2021-07-18T11:09:41Z</time>
      </trkpt>
      <trkpt lat="43.49341" lon="-1.55424">
        <ele>31.9</ele>
        <time>2021-07-18T11:09:42Z</time>
      </trkpt>
      <trkpt lat="43.4934" lon="-1.55424">
        <ele>31.9</ele>
        <time>2021-07-18T11:09:43Z</time>
      </trkpt>
      <trkpt lat="43.49337" lon="-1.55429">
        <ele>31.9</ele>
        <time>2021-07-18T11:09:45Z</time>
      </trkpt>
      <trkpt lat="43.49333" lon="-1.5543">
        <ele>31.9</ele>
        <time>2021-07-18T11:09:46Z</time>
      </trkpt>
      <trkpt lat="43.49332" lon="-1.5543">
        <ele>31.9</ele>
        <time>2021-07-18T11:09:47Z</time>
      </trkpt>
      <trkpt lat="43.49329" lon="-1.55431">
        <ele>31.9</ele>
        <time>2021-07-18T11:09:49Z</time>
      </trkpt>
      <trkpt lat="43.49328" lon="-1.55432">
        <ele>31.9</ele>
        <time>2021-07-18T11:09:50Z</time>
      </trkpt>
      <trkpt lat="43.49326" lon="-1.55432">
        <ele>31.9</ele>
        <time>2021-07-18T11:09:51Z</time>
      </trkpt>
      <trkpt lat="43.49323" lon="-1.55431">
        <ele>31.9</ele>
        <time>2021-07-18T11:09:53Z</time>
      </trkpt>
      <trkpt lat="43.49322" lon="-1.5543">
        <ele>31.9</ele>
        <time>2021-07-18T11:09:54Z</time>
      </trkpt>
      <trkpt lat="43.49321" lon="-1.55429">
        <ele>31.9</ele>
        <time>2021-07-18T11:09:56Z</time>
      </trkpt>
      <trkpt lat="43.4932" lon="-1.55428">
        <ele>31.9</ele>
        <time>2021-07-18T11:09:57Z</time>
      </trkpt>
      <trkpt lat="43.49318" lon="-1.55426">
        <ele>31.9</ele>
        <time>2021-07-18T11:09:59Z</time>
      </trkpt>
      <trkpt lat="43.49316" lon="-1.55424">
        <ele>31.9</ele>
        <time>2021-07-18T11:10:01Z</time>
      </trkpt>
      <trkpt lat="43.49315" lon="-1.55423">
        <ele>31.9</ele>
        <time>2021-07-18T11:10:02Z</time>
      </trkpt>
      <trkpt lat="43.49315" lon="-1.55419">
        <ele>31.9</ele>
        <time>2021-07-18T11:10:04Z</time>
      </trkpt>
      <trkpt lat="43.49316" lon="-1.55414">
        <ele>31.9</ele>
        <time>2021-07-18T11:10:06Z</time>
      </trkpt>
      <trkpt lat="43.49316" lon="-1.55411">
        <ele>31.9</ele>
        <time>2021-07-18T11:10:08Z</time>
      </trkpt>
      <trkpt lat="43.49316" lon="-1.5541">
        <ele>31.9</ele>
        <time>2021-07-18T11:10:09Z</time>
      </trkpt>
      <trkpt lat="43.49316" lon="-1.55409">
        <ele>31.9</ele>
        <time>2021-07-18T11:10:11Z</time>
      </trkpt>
      <trkpt lat="43.49316" lon="-1.55409">
        <ele>31.9</ele>
        <time>2021-07-18T11:10:13Z</time>
      </trkpt>
      <trkpt lat="43.49315" lon="-1.5541">
        <ele>31.9</ele>
        <time>2021-07-18T11:10:15Z</time>
      </trkpt>
      <trkpt lat="43.49315" lon="-1.5541">
        <ele>31.9</ele>
        <time>2021-07-18T11:10:16Z</time>
      </trkpt>
      <trkpt lat="43.49315" lon="-1.5541">
        <ele>31.9</ele>
        <time>2021-07-18T11:10:18Z</time>
      </trkpt>
      <trkpt lat="43.49315" lon="-1.5541">
        <ele>31.9</ele>
        <time>2021-07-18T11:10:20Z</time>
      </trkpt>
      <trkpt lat="43.49315" lon="-1.5541">
        <ele>31.9</ele>
        <time>2021-07-18T11:10:21Z</time>
      </trkpt>
      <trkpt lat="43.49318" lon="-1.55413">
        <ele>32</ele>
        <time>2021-07-18T11:11:12Z</time>
      </trkpt>
      <trkpt lat="43.4932" lon="-1.5541">
        <ele>32</ele>
        <time>2021-07-18T11:11:14Z</time>
      </trkpt>
      <trkpt lat="43.49322" lon="-1.55406">
        <ele>32</ele>
        <time>2021-07-18T11:11:16Z</time>
      </trkpt>
      <trkpt lat="43.49323" lon="-1.55405">
        <ele>32</ele>
        <time>2021-07-18T11:11:17Z</time>
      </trkpt>
      <trkpt lat="43.49324" lon="-1.55401">
        <ele>32</ele>
        <time>2021-07-18T11:11:19Z</time>
      </trkpt>
      <trkpt lat="43.49325" lon="-1.55396">
        <ele>32</ele>
        <time>2021-07-18T11:11:21Z</time>
      </trkpt>
      <trkpt lat="43.49326" lon="-1.55393">
        <ele>32.1</ele>
        <time>2021-07-18T11:11:22Z</time>
      </trkpt>
      <trkpt lat="43.49326" lon="-1.55389">
        <ele>32.1</ele>
        <time>2021-07-18T11:11:24Z</time>
      </trkpt>
      <trkpt lat="43.49327" lon="-1.55385">
        <ele>32.1</ele>
        <time>2021-07-18T11:11:25Z</time>
      </trkpt>
      <trkpt lat="43.49328" lon="-1.55381">
        <ele>32.2</ele>
        <time>2021-07-18T11:11:26Z</time>
      </trkpt>
      <trkpt lat="43.4933" lon="-1.55376">
        <ele>32.2</ele>
        <time>2021-07-18T11:11:28Z</time>
      </trkpt>
      <trkpt lat="43.49331" lon="-1.55373">
        <ele>32.3</ele>
        <time>2021-07-18T11:11:29Z</time>
      </trkpt>
      <trkpt lat="43.49331" lon="-1.55366">
        <ele>32.4</ele>
        <time>2021-07-18T11:11:31Z</time>
      </trkpt>
      <trkpt lat="43.49331" lon="-1.5536">
        <ele>32.6</ele>
        <time>2021-07-18T11:11:32Z</time>
      </trkpt>
      <trkpt lat="43.49332" lon="-1.55358">
        <ele>32.7</ele>
        <time>2021-07-18T11:11:33Z</time>
      </trkpt>
      <trkpt lat="43.49334" lon="-1.55353">
        <ele>32.8</ele>
        <time>2021-07-18T11:11:35Z</time>
      </trkpt>
      <trkpt lat="43.49336" lon="-1.55351">
        <ele>33</ele>
        <time>2021-07-18T11:11:36Z</time>
      </trkpt>
      <trkpt lat="43.49339" lon="-1.55347">
        <ele>33.2</ele>
        <time>2021-07-18T11:11:37Z</time>
      </trkpt>
      <trkpt lat="43.4934" lon="-1.55344">
        <ele>33.3</ele>
        <time>2021-07-18T11:11:38Z</time>
      </trkpt>
      <trkpt lat="43.4934" lon="-1.5534">
        <ele>33.5</ele>
        <time>2021-07-18T11:11:40Z</time>
      </trkpt>
      <trkpt lat="43.49339" lon="-1.55336">
        <ele>33.7</ele>
        <time>2021-07-18T11:11:41Z</time>
      </trkpt>
      <trkpt lat="43.49338" lon="-1.55329">
        <ele>34</ele>
        <time>2021-07-18T11:11:43Z</time>
      </trkpt>
      <trkpt lat="43.49338" lon="-1.55327">
        <ele>34.1</ele>
        <time>2021-07-18T11:11:44Z</time>
      </trkpt>
      <trkpt lat="43.49338" lon="-1.55325">
        <ele>34.2</ele>
        <time>2021-07-18T11:11:46Z</time>
      </trkpt>
      <trkpt lat="43.49338" lon="-1.55324">
        <ele>34.3</ele>
        <time>2021-07-18T11:11:47Z</time>
      </trkpt>
      <trkpt lat="43.49338" lon="-1.55322">
        <ele>34.4</ele>
        <time>2021-07-18T11:11:48Z</time>
      </trkpt>
      <trkpt lat="43.49338" lon="-1.5532">
        <ele>34.5</ele>
        <time>2021-07-18T11:11:49Z</time>
      </trkpt>
      <trkpt lat="43.49336" lon="-1.55315">
        <ele>34.8</ele>
        <time>2021-07-18T11:11:51Z</time>
      </trkpt>
      <trkpt lat="43.49335" lon="-1.55312">
        <ele>35</ele>
        <time>2021-07-18T11:11:52Z</time>
      </trkpt>
      <trkpt lat="43.49334" lon="-1.55311">
        <ele>35.1</ele>
        <time>2021-07-18T11:11:53Z</time>
      </trkpt>
      <trkpt lat="43.49333" lon="-1.55309">
        <ele>35.2</ele>
        <time>2021-07-18T11:11:54Z</time>
      </trkpt>
      <trkpt lat="43.49332" lon="-1.55304">
        <ele>35.4</ele>
        <time>2021-07-18T11:11:56Z</time>
      </trkpt>
      <trkpt lat="43.49331" lon="-1.55302">
        <ele>35.5</ele>
        <time>2021-07-18T11:11:57Z</time>
      </trkpt>
      <trkpt lat="43.4933" lon="-1.55297">
        <ele>35.7</ele>
        <time>2021-07-18T11:11:59Z</time>
      </trkpt>
      <trkpt lat="43.49329" lon="-1.55293">
        <ele>35.9</ele>
        <time>2021-07-18T11:12:00Z</time>
      </trkpt>
      <trkpt lat="43.49328" lon="-1.55292">
        <ele>35.9</ele>
        <time>2021-07-18T11:12:01Z</time>
      </trkpt>
      <trkpt lat="43.49327" lon="-1.55288">
        <ele>36.1</ele>
        <time>2021-07-18T11:12:02Z</time>
      </trkpt>
      <trkpt lat="43.49327" lon="-1.55287">
        <ele>36.2</ele>
        <time>2021-07-18T11:12:03Z</time>
      </trkpt>
      <trkpt lat="43.49325" lon="-1.55282">
        <ele>36.4</ele>
        <time>2021-07-18T11:12:05Z</time>
      </trkpt>
      <trkpt lat="43.49325" lon="-1.5528">
        <ele>36.5</ele>
        <time>2021-07-18T11:12:06Z</time>
      </trkpt>
      <trkpt lat="43.49323" lon="-1.55276">
        <ele>36.8</ele>
        <time>2021-07-18T11:12:08Z</time>
      </trkpt>
      <trkpt lat="43.49322" lon="-1.55274">
        <ele>36.9</ele>
        <time>2021-07-18T11:12:09Z</time>
      </trkpt>
      <trkpt lat="43.49319" lon="-1.55271">
        <ele>37</ele>
        <time>2021-07-18T11:12:11Z</time>
      </trkpt>
      <trkpt lat="43.49317" lon="-1.55269">
        <ele>37.2</ele>
        <time>2021-07-18T11:12:12Z</time>
      </trkpt>
      <trkpt lat="43.49315" lon="-1.55267">
        <ele>37.3</ele>
        <time>2021-07-18T11:12:13Z</time>
      </trkpt>
      <trkpt lat="43.49313" lon="-1.55265">
        <ele>37.5</ele>
        <time>2021-07-18T11:12:15Z</time>
      </trkpt>
      <trkpt lat="43.49311" lon="-1.55263">
        <ele>37.6</ele>
        <time>2021-07-18T11:12:16Z</time>
      </trkpt>
      <trkpt lat="43.49308" lon="-1.55262">
        <ele>37.8</ele>
        <time>2021-07-18T11:12:17Z</time>
      </trkpt>
      <trkpt lat="43.49307" lon="-1.55261">
        <ele>37.8</ele>
        <time>2021-07-18T11:12:18Z</time>
      </trkpt>
      <trkpt lat="43.49302" lon="-1.5526">
        <ele>38.1</ele>
        <time>2021-07-18T11:12:20Z</time>
      </trkpt>
      <trkpt lat="43.49301" lon="-1.5526">
        <ele>38.2</ele>
        <time>2021-07-18T11:12:21Z</time>
      </trkpt>
      <trkpt lat="43.49299" lon="-1.5526">
        <ele>38.2</ele>
        <time>2021-07-18T11:12:22Z</time>
      </trkpt>
      <trkpt lat="43.49297" lon="-1.55259">
        <ele>38.3</ele>
        <time>2021-07-18T11:12:23Z</time>
      </trkpt>
      <trkpt lat="43.49292" lon="-1.55259">
        <ele>38.5</ele>
        <time>2021-07-18T11:12:25Z</time>
      </trkpt>
      <trkpt lat="43.49289" lon="-1.55258">
        <ele>38.6</ele>
        <time>2021-07-18T11:12:26Z</time>
      </trkpt>
      <trkpt lat="43.49288" lon="-1.55258">
        <ele>38.6</ele>
        <time>2021-07-18T11:12:27Z</time>
      </trkpt>
      <trkpt lat="43.49284" lon="-1.55258">
        <ele>38.7</ele>
        <time>2021-07-18T11:12:29Z</time>
      </trkpt>
      <trkpt lat="43.49283" lon="-1.55258">
        <ele>38.8</ele>
        <time>2021-07-18T11:12:30Z</time>
      </trkpt>
      <trkpt lat="43.49279" lon="-1.55257">
        <ele>38.9</ele>
        <time>2021-07-18T11:12:32Z</time>
      </trkpt>
      <trkpt lat="43.49277" lon="-1.55256">
        <ele>38.9</ele>
        <time>2021-07-18T11:12:33Z</time>
      </trkpt>
      <trkpt lat="43.49273" lon="-1.55256">
        <ele>39</ele>
        <time>2021-07-18T11:12:35Z</time>
      </trkpt>
      <trkpt lat="43.49271" lon="-1.55256">
        <ele>39.1</ele>
        <time>2021-07-18T11:12:36Z</time>
      </trkpt>
      <trkpt lat="43.49267" lon="-1.55255">
        <ele>39.1</ele>
        <time>2021-07-18T11:12:38Z</time>
      </trkpt>
      <trkpt lat="43.49264" lon="-1.55254">
        <ele>39.2</ele>
        <time>2021-07-18T11:12:39Z</time>
      </trkpt>
      <trkpt lat="43.49261" lon="-1.55254">
        <ele>39.2</ele>
        <time>2021-07-18T11:12:41Z</time>
      </trkpt>
      <trkpt lat="43.49257" lon="-1.55254">
        <ele>39.3</ele>
        <time>2021-07-18T11:12:42Z</time>
      </trkpt>
      <trkpt lat="43.49254" lon="-1.55252">
        <ele>39.4</ele>
        <time>2021-07-18T11:12:43Z</time>
      </trkpt>
      <trkpt lat="43.49251" lon="-1.55249">
        <ele>39.4</ele>
        <time>2021-07-18T11:12:45Z</time>
      </trkpt>
      <trkpt lat="43.49248" lon="-1.55246">
        <ele>39.5</ele>
        <time>2021-07-18T11:12:46Z</time>
      </trkpt>
      <trkpt lat="43.49246" lon="-1.55243">
        <ele>39.5</ele>
        <time>2021-07-18T11:12:48Z</time>
      </trkpt>
      <trkpt lat="43.49244" lon="-1.55239">
        <ele>39.5</ele>
        <time>2021-07-18T11:12:49Z</time>
      </trkpt>
      <trkpt lat="43.49242" lon="-1.55234">
        <ele>39.5</ele>
        <time>2021-07-18T11:12:50Z</time>
      </trkpt>
      <trkpt lat="43.49239" lon="-1.55229">
        <ele>39.6</ele>
        <time>2021-07-18T11:12:52Z</time>
      </trkpt>
      <trkpt lat="43.49236" lon="-1.55226">
        <ele>39.6</ele>
        <time>2021-07-18T11:12:53Z</time>
      </trkpt>
      <trkpt lat="43.49233" lon="-1.55224">
        <ele>39.7</ele>
        <time>2021-07-18T11:12:54Z</time>
      </trkpt>
      <trkpt lat="43.49231" lon="-1.5522">
        <ele>39.7</ele>
        <time>2021-07-18T11:12:55Z</time>
      </trkpt>
      <trkpt lat="43.49227" lon="-1.55215">
        <ele>39.8</ele>
        <time>2021-07-18T11:12:57Z</time>
      </trkpt>
      <trkpt lat="43.49224" lon="-1.55212">
        <ele>39.8</ele>
        <time>2021-07-18T11:12:58Z</time>
      </trkpt>
      <trkpt lat="43.49221" lon="-1.55208">
        <ele>39.9</ele>
        <time>2021-07-18T11:12:59Z</time>
      </trkpt>
      <trkpt lat="43.49218" lon="-1.55204">
        <ele>39.9</ele>
        <time>2021-07-18T11:13:00Z</time>
      </trkpt>
      <trkpt lat="43.49215" lon="-1.55202">
        <ele>40</ele>
        <time>2021-07-18T11:13:02Z</time>
      </trkpt>
      <trkpt lat="43.49211" lon="-1.55198">
        <ele>40</ele>
        <time>2021-07-18T11:13:03Z</time>
      </trkpt>
      <trkpt lat="43.49206" lon="-1.55195">
        <ele>40.1</ele>
        <time>2021-07-18T11:13:05Z</time>
      </trkpt>
      <trkpt lat="43.49202" lon="-1.55192">
        <ele>40.1</ele>
        <time>2021-07-18T11:13:06Z</time>
      </trkpt>
      <trkpt lat="43.49199" lon="-1.5519">
        <ele>40.1</ele>
        <time>2021-07-18T11:13:07Z</time>
      </trkpt>
      <trkpt lat="43.49194" lon="-1.55189">
        <ele>40.2</ele>
        <time>2021-07-18T11:13:09Z</time>
      </trkpt>
      <trkpt lat="43.4919" lon="-1.55188">
        <ele>40.2</ele>
        <time>2021-07-18T11:13:10Z</time>
      </trkpt>
      <trkpt lat="43.49186" lon="-1.55188">
        <ele>40.3</ele>
        <time>2021-07-18T11:13:11Z</time>
      </trkpt>
      <trkpt lat="43.49182" lon="-1.55189">
        <ele>40.4</ele>
        <time>2021-07-18T11:13:13Z</time>
      </trkpt>
      <trkpt lat="43.49177" lon="-1.5519">
        <ele>40.5</ele>
        <time>2021-07-18T11:13:14Z</time>
      </trkpt>
      <trkpt lat="43.49173" lon="-1.5519">
        <ele>40.5</ele>
        <time>2021-07-18T11:13:15Z</time>
      </trkpt>
      <trkpt lat="43.49168" lon="-1.55189">
        <ele>40.6</ele>
        <time>2021-07-18T11:13:17Z</time>
      </trkpt>
      <trkpt lat="43.49165" lon="-1.55186">
        <ele>40.7</ele>
        <time>2021-07-18T11:13:18Z</time>
      </trkpt>
      <trkpt lat="43.49163" lon="-1.55183">
        <ele>40.7</ele>
        <time>2021-07-18T11:13:19Z</time>
      </trkpt>
      <trkpt lat="43.49162" lon="-1.55178">
        <ele>40.8</ele>
        <time>2021-07-18T11:13:21Z</time>
      </trkpt>
      <trkpt lat="43.49162" lon="-1.55177">
        <ele>40.9</ele>
        <time>2021-07-18T11:13:22Z</time>
      </trkpt>
      <trkpt lat="43.49162" lon="-1.55176">
        <ele>40.9</ele>
        <time>2021-07-18T11:13:23Z</time>
      </trkpt>
      <trkpt lat="43.49162" lon="-1.55174">
        <ele>40.9</ele>
        <time>2021-07-18T11:13:25Z</time>
      </trkpt>
      <trkpt lat="43.49162" lon="-1.55173">
        <ele>40.9</ele>
        <time>2021-07-18T11:13:27Z</time>
      </trkpt>
      <trkpt lat="43.49163" lon="-1.55172">
        <ele>40.9</ele>
        <time>2021-07-18T11:13:28Z</time>
      </trkpt>
      <trkpt lat="43.49163" lon="-1.55168">
        <ele>41</ele>
        <time>2021-07-18T11:13:29Z</time>
      </trkpt>
      <trkpt lat="43.49167" lon="-1.55162">
        <ele>41</ele>
        <time>2021-07-18T11:13:31Z</time>
      </trkpt>
      <trkpt lat="43.49172" lon="-1.55156">
        <ele>41.1</ele>
        <time>2021-07-18T11:13:33Z</time>
      </trkpt>
      <trkpt lat="43.49174" lon="-1.55153">
        <ele>41.1</ele>
        <time>2021-07-18T11:13:34Z</time>
      </trkpt>
      <trkpt lat="43.49179" lon="-1.55147">
        <ele>41.2</ele>
        <time>2021-07-18T11:13:36Z</time>
      </trkpt>
      <trkpt lat="43.49182" lon="-1.55144">
        <ele>41.3</ele>
        <time>2021-07-18T11:13:37Z</time>
      </trkpt>
      <trkpt lat="43.49185" lon="-1.55139">
        <ele>41.3</ele>
        <time>2021-07-18T11:13:39Z</time>
      </trkpt>
      <trkpt lat="43.49189" lon="-1.55133">
        <ele>41.4</ele>
        <time>2021-07-18T11:13:40Z</time>
      </trkpt>
      <trkpt lat="43.49191" lon="-1.55129">
        <ele>41.4</ele>
        <time>2021-07-18T11:13:41Z</time>
      </trkpt>
      <trkpt lat="43.49193" lon="-1.55125">
        <ele>41.5</ele>
        <time>2021-07-18T11:13:42Z</time>
      </trkpt>
      <trkpt lat="43.49195" lon="-1.55121">
        <ele>41.6</ele>
        <time>2021-07-18T11:13:43Z</time>
      </trkpt>
      <trkpt lat="43.49199" lon="-1.55113">
        <ele>41.7</ele>
        <time>2021-07-18T11:13:45Z</time>
      </trkpt>
      <trkpt lat="43.49202" lon="-1.55105">
        <ele>41.8</ele>
        <time>2021-07-18T11:13:47Z</time>
      </trkpt>
      <trkpt lat="43.49205" lon="-1.551">
        <ele>41.9</ele>
        <time>2021-07-18T11:13:48Z</time>
      </trkpt>
      <trkpt lat="43.49207" lon="-1.55096">
        <ele>42</ele>
        <time>2021-07-18T11:13:49Z</time>
      </trkpt>
      <trkpt lat="43.4921" lon="-1.55088">
        <ele>42.1</ele>
        <time>2021-07-18T11:13:51Z</time>
      </trkpt>
      <trkpt lat="43.49213" lon="-1.55081">
        <ele>42.3</ele>
        <time>2021-07-18T11:13:53Z</time>
      </trkpt>
      <trkpt lat="43.49214" lon="-1.55077">
        <ele>42.4</ele>
        <time>2021-07-18T11:13:54Z</time>
      </trkpt>
      <trkpt lat="43.49216" lon="-1.55068">
        <ele>42.5</ele>
        <time>2021-07-18T11:13:56Z</time>
      </trkpt>
      <trkpt lat="43.49217" lon="-1.5506">
        <ele>42.7</ele>
        <time>2021-07-18T11:13:58Z</time>
      </trkpt>
      <trkpt lat="43.49218" lon="-1.55054">
        <ele>42.8</ele>
        <time>2021-07-18T11:13:59Z</time>
      </trkpt>
      <trkpt lat="43.49219" lon="-1.5505">
        <ele>42.9</ele>
        <time>2021-07-18T11:14:00Z</time>
      </trkpt>
      <trkpt lat="43.4922" lon="-1.55042">
        <ele>43.1</ele>
        <time>2021-07-18T11:14:02Z</time>
      </trkpt>
      <trkpt lat="43.49221" lon="-1.55038">
        <ele>43.1</ele>
        <time>2021-07-18T11:14:03Z</time>
      </trkpt>
      <trkpt lat="43.49222" lon="-1.55029">
        <ele>43.3</ele>
        <time>2021-07-18T11:14:05Z</time>
      </trkpt>
      <trkpt lat="43.49223" lon="-1.55024">
        <ele>43.4</ele>
        <time>2021-07-18T11:14:06Z</time>
      </trkpt>
      <trkpt lat="43.49224" lon="-1.55016">
        <ele>43.6</ele>
        <time>2021-07-18T11:14:08Z</time>
      </trkpt>
      <trkpt lat="43.49224" lon="-1.55012">
        <ele>43.6</ele>
        <time>2021-07-18T11:14:09Z</time>
      </trkpt>
      <trkpt lat="43.49225" lon="-1.55003">
        <ele>43.8</ele>
        <time>2021-07-18T11:14:11Z</time>
      </trkpt>
      <trkpt lat="43.49226" lon="-1.54994">
        <ele>44</ele>
        <time>2021-07-18T11:14:13Z</time>
      </trkpt>
      <trkpt lat="43.49226" lon="-1.5499">
        <ele>44.1</ele>
        <time>2021-07-18T11:14:14Z</time>
      </trkpt>
      <trkpt lat="43.49227" lon="-1.54985">
        <ele>44.2</ele>
        <time>2021-07-18T11:14:15Z</time>
      </trkpt>
      <trkpt lat="43.49228" lon="-1.54977">
        <ele>44.4</ele>
        <time>2021-07-18T11:14:17Z</time>
      </trkpt>
      <trkpt lat="43.49229" lon="-1.54973">
        <ele>44.4</ele>
        <time>2021-07-18T11:14:18Z</time>
      </trkpt>
      <trkpt lat="43.49231" lon="-1.54965">
        <ele>44.6</ele>
        <time>2021-07-18T11:14:20Z</time>
      </trkpt>
      <trkpt lat="43.49233" lon="-1.54957">
        <ele>44.7</ele>
        <time>2021-07-18T11:14:22Z</time>
      </trkpt>
      <trkpt lat="43.49233" lon="-1.54952">
        <ele>44.8</ele>
        <time>2021-07-18T11:14:23Z</time>
      </trkpt>
      <trkpt lat="43.49234" lon="-1.54947">
        <ele>44.9</ele>
        <time>2021-07-18T11:14:24Z</time>
      </trkpt>
      <trkpt lat="43.49235" lon="-1.54939">
        <ele>45</ele>
        <time>2021-07-18T11:14:26Z</time>
      </trkpt>
      <trkpt lat="43.49236" lon="-1.54932">
        <ele>45.1</ele>
        <time>2021-07-18T11:14:28Z</time>
      </trkpt>
      <trkpt lat="43.49236" lon="-1.54926">
        <ele>45.2</ele>
        <time>2021-07-18T11:14:29Z</time>
      </trkpt>
      <trkpt lat="43.49237" lon="-1.54916">
        <ele>45.4</ele>
        <time>2021-07-18T11:14:31Z</time>
      </trkpt>
      <trkpt lat="43.49237" lon="-1.54912">
        <ele>45.5</ele>
        <time>2021-07-18T11:14:32Z</time>
      </trkpt>
      <trkpt lat="43.49238" lon="-1.54903">
        <ele>45.6</ele>
        <time>2021-07-18T11:14:34Z</time>
      </trkpt>
      <trkpt lat="43.49238" lon="-1.54898">
        <ele>45.7</ele>
        <time>2021-07-18T11:14:35Z</time>
      </trkpt>
      <trkpt lat="43.49238" lon="-1.54894">
        <ele>45.7</ele>
        <time>2021-07-18T11:14:36Z</time>
      </trkpt>
      <trkpt lat="43.4924" lon="-1.54885">
        <ele>45.9</ele>
        <time>2021-07-18T11:14:38Z</time>
      </trkpt>
      <trkpt lat="43.4924" lon="-1.54876">
        <ele>46</ele>
        <time>2021-07-18T11:14:40Z</time>
      </trkpt>
      <trkpt lat="43.49241" lon="-1.54866">
        <ele>46.1</ele>
        <time>2021-07-18T11:14:42Z</time>
      </trkpt>
      <trkpt lat="43.49241" lon="-1.54862">
        <ele>46.1</ele>
        <time>2021-07-18T11:14:43Z</time>
      </trkpt>
      <trkpt lat="43.49241" lon="-1.54857">
        <ele>46.2</ele>
        <time>2021-07-18T11:14:44Z</time>
      </trkpt>
      <trkpt lat="43.49242" lon="-1.54852">
        <ele>46.3</ele>
        <time>2021-07-18T11:14:45Z</time>
      </trkpt>
      <trkpt lat="43.49241" lon="-1.54844">
        <ele>46.4</ele>
        <time>2021-07-18T11:14:47Z</time>
      </trkpt>
      <trkpt lat="43.49242" lon="-1.54838">
        <ele>46.4</ele>
        <time>2021-07-18T11:14:48Z</time>
      </trkpt>
      <trkpt lat="43.49243" lon="-1.54833">
        <ele>46.5</ele>
        <time>2021-07-18T11:14:49Z</time>
      </trkpt>
      <trkpt lat="43.49244" lon="-1.54827">
        <ele>46.6</ele>
        <time>2021-07-18T11:14:51Z</time>
      </trkpt>
      <trkpt lat="43.49244" lon="-1.54823">
        <ele>46.6</ele>
        <time>2021-07-18T11:14:52Z</time>
      </trkpt>
      <trkpt lat="43.49245" lon="-1.54816">
        <ele>46.7</ele>
        <time>2021-07-18T11:14:53Z</time>
      </trkpt>
      <trkpt lat="43.49246" lon="-1.54809">
        <ele>46.7</ele>
        <time>2021-07-18T11:14:54Z</time>
      </trkpt>
      <trkpt lat="43.49248" lon="-1.54801">
        <ele>46.8</ele>
        <time>2021-07-18T11:14:56Z</time>
      </trkpt>
      <trkpt lat="43.49248" lon="-1.54796">
        <ele>46.9</ele>
        <time>2021-07-18T11:14:57Z</time>
      </trkpt>
      <trkpt lat="43.49249" lon="-1.54791">
        <ele>46.9</ele>
        <time>2021-07-18T11:14:58Z</time>
      </trkpt>
      <trkpt lat="43.4925" lon="-1.54785">
        <ele>46.9</ele>
        <time>2021-07-18T11:14:59Z</time>
      </trkpt>
      <trkpt lat="43.49251" lon="-1.54779">
        <ele>47</ele>
        <time>2021-07-18T11:15:01Z</time>
      </trkpt>
      <trkpt lat="43.49252" lon="-1.54772">
        <ele>47</ele>
        <time>2021-07-18T11:15:02Z</time>
      </trkpt>
      <trkpt lat="43.49252" lon="-1.54767">
        <ele>47</ele>
        <time>2021-07-18T11:15:03Z</time>
      </trkpt>
      <trkpt lat="43.49254" lon="-1.54759">
        <ele>47.1</ele>
        <time>2021-07-18T11:15:05Z</time>
      </trkpt>
      <trkpt lat="43.49254" lon="-1.54752">
        <ele>47.1</ele>
        <time>2021-07-18T11:15:07Z</time>
      </trkpt>
      <trkpt lat="43.49254" lon="-1.5475">
        <ele>47.1</ele>
        <time>2021-07-18T11:15:09Z</time>
      </trkpt>
      <trkpt lat="43.49254" lon="-1.54749">
        <ele>47.1</ele>
        <time>2021-07-18T11:15:10Z</time>
      </trkpt>
      <trkpt lat="43.49254" lon="-1.54748">
        <ele>47.1</ele>
        <time>2021-07-18T11:15:12Z</time>
      </trkpt>
      <trkpt lat="43.49254" lon="-1.54747">
        <ele>47.1</ele>
        <time>2021-07-18T11:15:13Z</time>
      </trkpt>
      <trkpt lat="43.49254" lon="-1.54746">
        <ele>47.1</ele>
        <time>2021-07-18T11:15:15Z</time>
      </trkpt>
      <trkpt lat="43.49255" lon="-1.54745">
        <ele>47.1</ele>
        <time>2021-07-18T11:15:16Z</time>
      </trkpt>
      <trkpt lat="43.49257" lon="-1.54738">
        <ele>47.2</ele>
        <time>2021-07-18T11:15:18Z</time>
      </trkpt>
      <trkpt lat="43.4926" lon="-1.54729">
        <ele>47.2</ele>
        <time>2021-07-18T11:15:20Z</time>
      </trkpt>
      <trkpt lat="43.49262" lon="-1.54724">
        <ele>47.2</ele>
        <time>2021-07-18T11:15:21Z</time>
      </trkpt>
      <trkpt lat="43.49263" lon="-1.5472">
        <ele>47.2</ele>
        <time>2021-07-18T11:15:22Z</time>
      </trkpt>
      <trkpt lat="43.49268" lon="-1.54711">
        <ele>47.3</ele>
        <time>2021-07-18T11:15:24Z</time>
      </trkpt>
      <trkpt lat="43.4927" lon="-1.54707">
        <ele>47.3</ele>
        <time>2021-07-18T11:15:25Z</time>
      </trkpt>
      <trkpt lat="43.49274" lon="-1.547">
        <ele>47.3</ele>
        <time>2021-07-18T11:15:27Z</time>
      </trkpt>
      <trkpt lat="43.49276" lon="-1.54695">
        <ele>47.4</ele>
        <time>2021-07-18T11:15:28Z</time>
      </trkpt>
      <trkpt lat="43.49279" lon="-1.5469">
        <ele>47.4</ele>
        <time>2021-07-18T11:15:29Z</time>
      </trkpt>
      <trkpt lat="43.49282" lon="-1.54684">
        <ele>47.4</ele>
        <time>2021-07-18T11:15:30Z</time>
      </trkpt>
      <trkpt lat="43.49287" lon="-1.54675">
        <ele>47.4</ele>
        <time>2021-07-18T11:15:32Z</time>
      </trkpt>
      <trkpt lat="43.4929" lon="-1.5467">
        <ele>47.4</ele>
        <time>2021-07-18T11:15:33Z</time>
      </trkpt>
      <trkpt lat="43.49295" lon="-1.54661">
        <ele>47.4</ele>
        <time>2021-07-18T11:15:35Z</time>
      </trkpt>
      <trkpt lat="43.49298" lon="-1.54656">
        <ele>47.4</ele>
        <time>2021-07-18T11:15:36Z</time>
      </trkpt>
      <trkpt lat="43.49301" lon="-1.54649">
        <ele>47.3</ele>
        <time>2021-07-18T11:15:38Z</time>
      </trkpt>
      <trkpt lat="43.49304" lon="-1.54644">
        <ele>47.3</ele>
        <time>2021-07-18T11:15:39Z</time>
      </trkpt>
      <trkpt lat="43.49308" lon="-1.5464">
        <ele>47.3</ele>
        <time>2021-07-18T11:15:40Z</time>
      </trkpt>
      <trkpt lat="43.49311" lon="-1.54635">
        <ele>47.3</ele>
        <time>2021-07-18T11:15:41Z</time>
      </trkpt>
      <trkpt lat="43.49313" lon="-1.5463">
        <ele>47.3</ele>
        <time>2021-07-18T11:15:42Z</time>
      </trkpt>
      <trkpt lat="43.49316" lon="-1.54624">
        <ele>47.3</ele>
        <time>2021-07-18T11:15:43Z</time>
      </trkpt>
      <trkpt lat="43.49319" lon="-1.54618">
        <ele>47.3</ele>
        <time>2021-07-18T11:15:44Z</time>
      </trkpt>
      <trkpt lat="43.49325" lon="-1.54607">
        <ele>47.4</ele>
        <time>2021-07-18T11:15:46Z</time>
      </trkpt>
      <trkpt lat="43.4933" lon="-1.54596">
        <ele>47.4</ele>
        <time>2021-07-18T11:15:48Z</time>
      </trkpt>
      <trkpt lat="43.49335" lon="-1.54588">
        <ele>47.4</ele>
        <time>2021-07-18T11:15:50Z</time>
      </trkpt>
      <trkpt lat="43.49338" lon="-1.54585">
        <ele>47.4</ele>
        <time>2021-07-18T11:15:51Z</time>
      </trkpt>
      <trkpt lat="43.49343" lon="-1.54576">
        <ele>47.4</ele>
        <time>2021-07-18T11:15:53Z</time>
      </trkpt>
      <trkpt lat="43.49345" lon="-1.54572">
        <ele>47.3</ele>
        <time>2021-07-18T11:15:54Z</time>
      </trkpt>
      <trkpt lat="43.49347" lon="-1.5457">
        <ele>47.3</ele>
        <time>2021-07-18T11:15:55Z</time>
      </trkpt>
      <trkpt lat="43.49352" lon="-1.54572">
        <ele>47.3</ele>
        <time>2021-07-18T11:15:57Z</time>
      </trkpt>
      <trkpt lat="43.49355" lon="-1.54573">
        <ele>47.2</ele>
        <time>2021-07-18T11:15:58Z</time>
      </trkpt>
      <trkpt lat="43.49358" lon="-1.54568">
        <ele>47.2</ele>
        <time>2021-07-18T11:15:59Z</time>
      </trkpt>
      <trkpt lat="43.4936" lon="-1.54564">
        <ele>47.2</ele>
        <time>2021-07-18T11:16:01Z</time>
      </trkpt>
      <trkpt lat="43.49362" lon="-1.54558">
        <ele>47.1</ele>
        <time>2021-07-18T11:16:02Z</time>
      </trkpt>
      <trkpt lat="43.49364" lon="-1.54554">
        <ele>47.1</ele>
        <time>2021-07-18T11:16:03Z</time>
      </trkpt>
      <trkpt lat="43.49366" lon="-1.54549">
        <ele>47.1</ele>
        <time>2021-07-18T11:16:04Z</time>
      </trkpt>
      <trkpt lat="43.49369" lon="-1.54544">
        <ele>47</ele>
        <time>2021-07-18T11:16:06Z</time>
      </trkpt>
      <trkpt lat="43.49372" lon="-1.54541">
        <ele>47</ele>
        <time>2021-07-18T11:16:07Z</time>
      </trkpt>
      <trkpt lat="43.49374" lon="-1.54537">
        <ele>47</ele>
        <time>2021-07-18T11:16:08Z</time>
      </trkpt>
      <trkpt lat="43.49375" lon="-1.54534">
        <ele>46.9</ele>
        <time>2021-07-18T11:16:09Z</time>
      </trkpt>
      <trkpt lat="43.49378" lon="-1.5453">
        <ele>46.9</ele>
        <time>2021-07-18T11:16:11Z</time>
      </trkpt>
      <trkpt lat="43.49381" lon="-1.54528">
        <ele>46.9</ele>
        <time>2021-07-18T11:16:12Z</time>
      </trkpt>
      <trkpt lat="43.49383" lon="-1.54527">
        <ele>46.9</ele>
        <time>2021-07-18T11:16:13Z</time>
      </trkpt>
      <trkpt lat="43.49386" lon="-1.54525">
        <ele>46.8</ele>
        <time>2021-07-18T11:16:14Z</time>
      </trkpt>
      <trkpt lat="43.49389" lon="-1.54522">
        <ele>46.8</ele>
        <time>2021-07-18T11:16:16Z</time>
      </trkpt>
      <trkpt lat="43.49391" lon="-1.54519">
        <ele>46.8</ele>
        <time>2021-07-18T11:16:17Z</time>
      </trkpt>
      <trkpt lat="43.49393" lon="-1.54514">
        <ele>46.7</ele>
        <time>2021-07-18T11:16:19Z</time>
      </trkpt>
      <trkpt lat="43.49394" lon="-1.54508">
        <ele>46.7</ele>
        <time>2021-07-18T11:16:20Z</time>
      </trkpt>
      <trkpt lat="43.49397" lon="-1.54501">
        <ele>46.7</ele>
        <time>2021-07-18T11:16:22Z</time>
      </trkpt>
      <trkpt lat="43.49399" lon="-1.54495">
        <ele>46.6</ele>
        <time>2021-07-18T11:16:23Z</time>
      </trkpt>
      <trkpt lat="43.494" lon="-1.5449">
        <ele>46.6</ele>
        <time>2021-07-18T11:16:24Z</time>
      </trkpt>
      <trkpt lat="43.49402" lon="-1.54485">
        <ele>46.6</ele>
        <time>2021-07-18T11:16:25Z</time>
      </trkpt>
      <trkpt lat="43.49405" lon="-1.54476">
        <ele>46.5</ele>
        <time>2021-07-18T11:16:27Z</time>
      </trkpt>
      <trkpt lat="43.49407" lon="-1.5447">
        <ele>46.4</ele>
        <time>2021-07-18T11:16:28Z</time>
      </trkpt>
      <trkpt lat="43.49409" lon="-1.54465">
        <ele>46.4</ele>
        <time>2021-07-18T11:16:29Z</time>
      </trkpt>
      <trkpt lat="43.49411" lon="-1.5446">
        <ele>46.3</ele>
        <time>2021-07-18T11:16:30Z</time>
      </trkpt>
      <trkpt lat="43.49414" lon="-1.54453">
        <ele>46.3</ele>
        <time>2021-07-18T11:16:32Z</time>
      </trkpt>
      <trkpt lat="43.49418" lon="-1.54447">
        <ele>46.2</ele>
        <time>2021-07-18T11:16:33Z</time>
      </trkpt>
      <trkpt lat="43.49421" lon="-1.54442">
        <ele>46.1</ele>
        <time>2021-07-18T11:16:34Z</time>
      </trkpt>
      <trkpt lat="43.49424" lon="-1.54437">
        <ele>46.1</ele>
        <time>2021-07-18T11:16:35Z</time>
      </trkpt>
      <trkpt lat="43.49429" lon="-1.54431">
        <ele>46</ele>
        <time>2021-07-18T11:16:36Z</time>
      </trkpt>
      <trkpt lat="43.49432" lon="-1.54426">
        <ele>45.9</ele>
        <time>2021-07-18T11:16:37Z</time>
      </trkpt>
      <trkpt lat="43.49439" lon="-1.54416">
        <ele>45.7</ele>
        <time>2021-07-18T11:16:39Z</time>
      </trkpt>
      <trkpt lat="43.49442" lon="-1.54411">
        <ele>45.5</ele>
        <time>2021-07-18T11:16:40Z</time>
      </trkpt>
      <trkpt lat="43.49448" lon="-1.544">
        <ele>45.3</ele>
        <time>2021-07-18T11:16:42Z</time>
      </trkpt>
      <trkpt lat="43.4945" lon="-1.54395">
        <ele>45.2</ele>
        <time>2021-07-18T11:16:43Z</time>
      </trkpt>
      <trkpt lat="43.49454" lon="-1.54383">
        <ele>45</ele>
        <time>2021-07-18T11:16:45Z</time>
      </trkpt>
      <trkpt lat="43.49459" lon="-1.5437">
        <ele>44.7</ele>
        <time>2021-07-18T11:16:47Z</time>
      </trkpt>
      <trkpt lat="43.49463" lon="-1.54358">
        <ele>44.4</ele>
        <time>2021-07-18T11:16:49Z</time>
      </trkpt>
      <trkpt lat="43.49466" lon="-1.54351">
        <ele>44.3</ele>
        <time>2021-07-18T11:16:50Z</time>
      </trkpt>
      <trkpt lat="43.49471" lon="-1.54339">
        <ele>44</ele>
        <time>2021-07-18T11:16:52Z</time>
      </trkpt>
      <trkpt lat="43.49474" lon="-1.54332">
        <ele>43.9</ele>
        <time>2021-07-18T11:16:53Z</time>
      </trkpt>
      <trkpt lat="43.4948" lon="-1.54324">
        <ele>43.7</ele>
        <time>2021-07-18T11:16:55Z</time>
      </trkpt>
      <trkpt lat="43.49482" lon="-1.54319">
        <ele>43.6</ele>
        <time>2021-07-18T11:16:56Z</time>
      </trkpt>
      <trkpt lat="43.49484" lon="-1.54312">
        <ele>43.5</ele>
        <time>2021-07-18T11:16:57Z</time>
      </trkpt>
      <trkpt lat="43.49488" lon="-1.54302">
        <ele>43.3</ele>
        <time>2021-07-18T11:16:59Z</time>
      </trkpt>
      <trkpt lat="43.49495" lon="-1.54293">
        <ele>43.1</ele>
        <time>2021-07-18T11:17:01Z</time>
      </trkpt>
      <trkpt lat="43.49498" lon="-1.54292">
        <ele>43.1</ele>
        <time>2021-07-18T11:17:02Z</time>
      </trkpt>
      <trkpt lat="43.49501" lon="-1.54294">
        <ele>43</ele>
        <time>2021-07-18T11:17:03Z</time>
      </trkpt>
      <trkpt lat="43.49506" lon="-1.54295">
        <ele>42.9</ele>
        <time>2021-07-18T11:17:04Z</time>
      </trkpt>
      <trkpt lat="43.49511" lon="-1.54297">
        <ele>43</ele>
        <time>2021-07-18T11:17:06Z</time>
      </trkpt>
      <trkpt lat="43.49516" lon="-1.54298">
        <ele>43</ele>
        <time>2021-07-18T11:17:07Z</time>
      </trkpt>
      <trkpt lat="43.4952" lon="-1.54298">
        <ele>43</ele>
        <time>2021-07-18T11:17:08Z</time>
      </trkpt>
      <trkpt lat="43.49525" lon="-1.54299">
        <ele>43.1</ele>
        <time>2021-07-18T11:17:10Z</time>
      </trkpt>
      <trkpt lat="43.4953" lon="-1.543">
        <ele>43.1</ele>
        <time>2021-07-18T11:17:11Z</time>
      </trkpt>
      <trkpt lat="43.49532" lon="-1.54301">
        <ele>43.1</ele>
        <time>2021-07-18T11:17:12Z</time>
      </trkpt>
      <trkpt lat="43.49536" lon="-1.54301">
        <ele>43.2</ele>
        <time>2021-07-18T11:17:14Z</time>
      </trkpt>
      <trkpt lat="43.4954" lon="-1.54301">
        <ele>43.2</ele>
        <time>2021-07-18T11:17:15Z</time>
      </trkpt>
      <trkpt lat="43.49544" lon="-1.54301">
        <ele>43.2</ele>
        <time>2021-07-18T11:17:17Z</time>
      </trkpt>
      <trkpt lat="43.49547" lon="-1.54301">
        <ele>43.2</ele>
        <time>2021-07-18T11:17:18Z</time>
      </trkpt>
      <trkpt lat="43.4955" lon="-1.54301">
        <ele>43.1</ele>
        <time>2021-07-18T11:17:19Z</time>
      </trkpt>
      <trkpt lat="43.49555" lon="-1.54303">
        <ele>43.1</ele>
        <time>2021-07-18T11:17:20Z</time>
      </trkpt>
      <trkpt lat="43.49562" lon="-1.54305">
        <ele>43</ele>
        <time>2021-07-18T11:17:22Z</time>
      </trkpt>
      <trkpt lat="43.4957" lon="-1.54305">
        <ele>42.9</ele>
        <time>2021-07-18T11:17:24Z</time>
      </trkpt>
      <trkpt lat="43.49574" lon="-1.54306">
        <ele>42.9</ele>
        <time>2021-07-18T11:17:25Z</time>
      </trkpt>
      <trkpt lat="43.49579" lon="-1.54307">
        <ele>42.8</ele>
        <time>2021-07-18T11:17:26Z</time>
      </trkpt>
      <trkpt lat="43.49587" lon="-1.54309">
        <ele>42.6</ele>
        <time>2021-07-18T11:17:28Z</time>
      </trkpt>
      <trkpt lat="43.49594" lon="-1.54308">
        <ele>42.5</ele>
        <time>2021-07-18T11:17:29Z</time>
      </trkpt>
      <trkpt lat="43.49604" lon="-1.54306">
        <ele>42.2</ele>
        <time>2021-07-18T11:17:31Z</time>
      </trkpt>
      <trkpt lat="43.49609" lon="-1.54304">
        <ele>42</ele>
        <time>2021-07-18T11:17:32Z</time>
      </trkpt>
      <trkpt lat="43.4962" lon="-1.543">
        <ele>41.6</ele>
        <time>2021-07-18T11:17:34Z</time>
      </trkpt>
      <trkpt lat="43.4963" lon="-1.54296">
        <ele>41.2</ele>
        <time>2021-07-18T11:17:36Z</time>
      </trkpt>
      <trkpt lat="43.49642" lon="-1.54289">
        <ele>40.8</ele>
        <time>2021-07-18T11:17:38Z</time>
      </trkpt>
      <trkpt lat="43.49647" lon="-1.54286">
        <ele>40.5</ele>
        <time>2021-07-18T11:17:39Z</time>
      </trkpt>
      <trkpt lat="43.4966" lon="-1.54282">
        <ele>40</ele>
        <time>2021-07-18T11:17:41Z</time>
      </trkpt>
      <trkpt lat="43.49667" lon="-1.54281">
        <ele>39.7</ele>
        <time>2021-07-18T11:17:42Z</time>
      </trkpt>
      <trkpt lat="43.49673" lon="-1.5428">
        <ele>39.4</ele>
        <time>2021-07-18T11:17:43Z</time>
      </trkpt>
      <trkpt lat="43.49686" lon="-1.54279">
        <ele>38.8</ele>
        <time>2021-07-18T11:17:45Z</time>
      </trkpt>
      <trkpt lat="43.497" lon="-1.54279">
        <ele>38.1</ele>
        <time>2021-07-18T11:17:47Z</time>
      </trkpt>
      <trkpt lat="43.49708" lon="-1.54278">
        <ele>37.7</ele>
        <time>2021-07-18T11:17:48Z</time>
      </trkpt>
      <trkpt lat="43.49716" lon="-1.54277">
        <ele>37.3</ele>
        <time>2021-07-18T11:17:49Z</time>
      </trkpt>
      <trkpt lat="43.4973" lon="-1.54276">
        <ele>36.6</ele>
        <time>2021-07-18T11:17:51Z</time>
      </trkpt>
      <trkpt lat="43.49742" lon="-1.54274">
        <ele>36</ele>
        <time>2021-07-18T11:17:53Z</time>
      </trkpt>
      <trkpt lat="43.49748" lon="-1.54271">
        <ele>35.6</ele>
        <time>2021-07-18T11:17:55Z</time>
      </trkpt>
      <trkpt lat="43.49751" lon="-1.54272">
        <ele>35.5</ele>
        <time>2021-07-18T11:17:56Z</time>
      </trkpt>
      <trkpt lat="43.49753" lon="-1.54277">
        <ele>35.3</ele>
        <time>2021-07-18T11:17:58Z</time>
      </trkpt>
      <trkpt lat="43.49754" lon="-1.54281">
        <ele>35.1</ele>
        <time>2021-07-18T11:17:59Z</time>
      </trkpt>
      <trkpt lat="43.49759" lon="-1.54286">
        <ele>34.8</ele>
        <time>2021-07-18T11:18:01Z</time>
      </trkpt>
      <trkpt lat="43.49761" lon="-1.54287">
        <ele>34.7</ele>
        <time>2021-07-18T11:18:03Z</time>
      </trkpt>
      <trkpt lat="43.49762" lon="-1.54288">
        <ele>34.7</ele>
        <time>2021-07-18T11:18:04Z</time>
      </trkpt>
      <trkpt lat="43.49765" lon="-1.5429">
        <ele>34.5</ele>
        <time>2021-07-18T11:18:05Z</time>
      </trkpt>
      <trkpt lat="43.49769" lon="-1.54292">
        <ele>34.3</ele>
        <time>2021-07-18T11:18:07Z</time>
      </trkpt>
      <trkpt lat="43.49772" lon="-1.54291">
        <ele>33.9</ele>
        <time>2021-07-18T11:18:08Z</time>
      </trkpt>
      <trkpt lat="43.49774" lon="-1.5429">
        <ele>33.8</ele>
        <time>2021-07-18T11:18:09Z</time>
      </trkpt>
      <trkpt lat="43.49776" lon="-1.54289">
        <ele>33.7</ele>
        <time>2021-07-18T11:18:11Z</time>
      </trkpt>
      <trkpt lat="43.49776" lon="-1.54288">
        <ele>33.7</ele>
        <time>2021-07-18T11:18:12Z</time>
      </trkpt>
      <trkpt lat="43.49776" lon="-1.54288">
        <ele>33.7</ele>
        <time>2021-07-18T11:18:14Z</time>
      </trkpt>
      <trkpt lat="43.49776" lon="-1.54288">
        <ele>33.7</ele>
        <time>2021-07-18T11:18:15Z</time>
      </trkpt>
      <trkpt lat="43.49775" lon="-1.54288">
        <ele>33.7</ele>
        <time>2021-07-18T11:18:17Z</time>
      </trkpt>
      <trkpt lat="43.49775" lon="-1.54288">
        <ele>33.7</ele>
        <time>2021-07-18T11:18:19Z</time>
      </trkpt>
      <trkpt lat="43.49775" lon="-1.54287">
        <ele>33.7</ele>
        <time>2021-07-18T11:18:20Z</time>
      </trkpt>
      <trkpt lat="43.49774" lon="-1.54287">
        <ele>33.6</ele>
        <time>2021-07-18T11:18:22Z</time>
      </trkpt>
      <trkpt lat="43.49771" lon="-1.54291">
        <ele>33.5</ele>
        <time>2021-07-18T11:55:06Z</time>
      </trkpt>
      <trkpt lat="43.4977" lon="-1.54292">
        <ele>33.5</ele>
        <time>2021-07-18T11:55:07Z</time>
      </trkpt>
      <trkpt lat="43.49769" lon="-1.54293">
        <ele>33.4</ele>
        <time>2021-07-18T11:55:09Z</time>
      </trkpt>
      <trkpt lat="43.49768" lon="-1.54294">
        <ele>33.4</ele>
        <time>2021-07-18T11:55:10Z</time>
      </trkpt>
      <trkpt lat="43.49768" lon="-1.54295">
        <ele>33.4</ele>
        <time>2021-07-18T11:55:11Z</time>
      </trkpt>
      <trkpt lat="43.49767" lon="-1.54296">
        <ele>33.3</ele>
        <time>2021-07-18T11:55:12Z</time>
      </trkpt>
      <trkpt lat="43.49767" lon="-1.54298">
        <ele>33.3</ele>
        <time>2021-07-18T11:55:14Z</time>
      </trkpt>
      <trkpt lat="43.49767" lon="-1.54299">
        <ele>33.2</ele>
        <time>2021-07-18T11:55:16Z</time>
      </trkpt>
      <trkpt lat="43.49769" lon="-1.543">
        <ele>33.2</ele>
        <time>2021-07-18T11:55:18Z</time>
      </trkpt>
      <trkpt lat="43.4977" lon="-1.543">
        <ele>33.2</ele>
        <time>2021-07-18T11:55:20Z</time>
      </trkpt>
      <trkpt lat="43.4977" lon="-1.543">
        <ele>33.2</ele>
        <time>2021-07-18T11:55:21Z</time>
      </trkpt>
      <trkpt lat="43.4977" lon="-1.543">
        <ele>33.2</ele>
        <time>2021-07-18T11:55:23Z</time>
      </trkpt>
      <trkpt lat="43.4977" lon="-1.543">
        <ele>33.2</ele>
        <time>2021-07-18T11:55:24Z</time>
      </trkpt>
      <trkpt lat="43.4977" lon="-1.543">
        <ele>33.2</ele>
        <time>2021-07-18T11:55:25Z</time>
      </trkpt>
      <trkpt lat="43.4977" lon="-1.543">
        <ele>33.2</ele>
        <time>2021-07-18T11:55:26Z</time>
      </trkpt>
      <trkpt lat="43.4977" lon="-1.543">
        <ele>33.2</ele>
        <time>2021-07-18T11:55:28Z</time>
      </trkpt>
      <trkpt lat="43.4977" lon="-1.543">
        <ele>33.1</ele>
        <time>2021-07-18T11:55:29Z</time>
      </trkpt>
      <trkpt lat="43.4977" lon="-1.543">
        <ele>33.1</ele>
        <time>2021-07-18T11:55:31Z</time>
      </trkpt>
      <trkpt lat="43.49771" lon="-1.54299">
        <ele>33.1</ele>
        <time>2021-07-18T11:55:33Z</time>
      </trkpt>
      <trkpt lat="43.49772" lon="-1.54297">
        <ele>33</ele>
        <time>2021-07-18T11:55:35Z</time>
      </trkpt>
      <trkpt lat="43.49773" lon="-1.54296">
        <ele>33</ele>
        <time>2021-07-18T11:55:37Z</time>
      </trkpt>
      <trkpt lat="43.49774" lon="-1.54295">
        <ele>33</ele>
        <time>2021-07-18T11:55:38Z</time>
      </trkpt>
      <trkpt lat="43.49774" lon="-1.54294">
        <ele>32.9</ele>
        <time>2021-07-18T11:55:39Z</time>
      </trkpt>
      <trkpt lat="43.49775" lon="-1.54293">
        <ele>32.9</ele>
        <time>2021-07-18T11:55:41Z</time>
      </trkpt>
      <trkpt lat="43.49776" lon="-1.54292">
        <ele>32.9</ele>
        <time>2021-07-18T11:55:43Z</time>
      </trkpt>
      <trkpt lat="43.49776" lon="-1.54292">
        <ele>32.8</ele>
        <time>2021-07-18T11:55:45Z</time>
      </trkpt>
      <trkpt lat="43.49776" lon="-1.54292">
        <ele>32.8</ele>
        <time>2021-07-18T11:55:46Z</time>
      </trkpt>
      <trkpt lat="43.49776" lon="-1.54292">
        <ele>32.8</ele>
        <time>2021-07-18T11:55:48Z</time>
      </trkpt>
      <trkpt lat="43.49776" lon="-1.54292">
        <ele>32.8</ele>
        <time>2021-07-18T11:55:49Z</time>
      </trkpt>
      <trkpt lat="43.49773" lon="-1.54294">
        <ele>32.7</ele>
        <time>2021-07-18T11:57:19Z</time>
      </trkpt>
      <trkpt lat="43.49773" lon="-1.54294">
        <ele>32.7</ele>
        <time>2021-07-18T11:57:20Z</time>
      </trkpt>
      <trkpt lat="43.49771" lon="-1.54295">
        <ele>32.7</ele>
        <time>2021-07-18T11:57:21Z</time>
      </trkpt>
      <trkpt lat="43.4977" lon="-1.54295">
        <ele>32.6</ele>
        <time>2021-07-18T11:57:22Z</time>
      </trkpt>
      <trkpt lat="43.49768" lon="-1.54295">
        <ele>32.5</ele>
        <time>2021-07-18T11:57:24Z</time>
      </trkpt>
      <trkpt lat="43.49767" lon="-1.54295">
        <ele>32.5</ele>
        <time>2021-07-18T11:57:25Z</time>
      </trkpt>
      <trkpt lat="43.49767" lon="-1.54294">
        <ele>32.5</ele>
        <time>2021-07-18T11:57:26Z</time>
      </trkpt>
      <trkpt lat="43.49766" lon="-1.54294">
        <ele>32.5</ele>
        <time>2021-07-18T11:57:27Z</time>
      </trkpt>
      <trkpt lat="43.49767" lon="-1.54294">
        <ele>32.5</ele>
        <time>2021-07-18T11:57:29Z</time>
      </trkpt>
      <trkpt lat="43.49767" lon="-1.54294">
        <ele>32.5</ele>
        <time>2021-07-18T11:57:30Z</time>
      </trkpt>
      <trkpt lat="43.49766" lon="-1.54293">
        <ele>32.4</ele>
        <time>2021-07-18T11:57:32Z</time>
      </trkpt>
      <trkpt lat="43.49764" lon="-1.54291">
        <ele>32.4</ele>
        <time>2021-07-18T11:57:34Z</time>
      </trkpt>
      <trkpt lat="43.49762" lon="-1.54289">
        <ele>32.3</ele>
        <time>2021-07-18T11:57:36Z</time>
      </trkpt>
      <trkpt lat="43.4976" lon="-1.54287">
        <ele>32.2</ele>
        <time>2021-07-18T11:57:38Z</time>
      </trkpt>
      <trkpt lat="43.49757" lon="-1.54284">
        <ele>32.1</ele>
        <time>2021-07-18T11:57:40Z</time>
      </trkpt>
      <trkpt lat="43.49755" lon="-1.54281">
        <ele>32</ele>
        <time>2021-07-18T11:57:42Z</time>
      </trkpt>
      <trkpt lat="43.49754" lon="-1.5428">
        <ele>31.9</ele>
        <time>2021-07-18T11:57:43Z</time>
      </trkpt>
      <trkpt lat="43.49753" lon="-1.54276">
        <ele>31.8</ele>
        <time>2021-07-18T11:57:45Z</time>
      </trkpt>
      <trkpt lat="43.49753" lon="-1.54274">
        <ele>31.8</ele>
        <time>2021-07-18T11:57:46Z</time>
      </trkpt>
      <trkpt lat="43.49754" lon="-1.54268">
        <ele>31.6</ele>
        <time>2021-07-18T11:57:48Z</time>
      </trkpt>
      <trkpt lat="43.49759" lon="-1.54263">
        <ele>31.4</ele>
        <time>2021-07-18T11:57:50Z</time>
      </trkpt>
      <trkpt lat="43.49762" lon="-1.54261">
        <ele>31.3</ele>
        <time>2021-07-18T11:57:51Z</time>
      </trkpt>
      <trkpt lat="43.49766" lon="-1.54258">
        <ele>31.2</ele>
        <time>2021-07-18T11:57:52Z</time>
      </trkpt>
      <trkpt lat="43.49773" lon="-1.54252">
        <ele>30.9</ele>
        <time>2021-07-18T11:57:54Z</time>
      </trkpt>
      <trkpt lat="43.4978" lon="-1.54243">
        <ele>30.6</ele>
        <time>2021-07-18T11:57:56Z</time>
      </trkpt>
      <trkpt lat="43.49787" lon="-1.5423">
        <ele>30.2</ele>
        <time>2021-07-18T11:57:58Z</time>
      </trkpt>
      <trkpt lat="43.49789" lon="-1.54223">
        <ele>30</ele>
        <time>2021-07-18T11:57:59Z</time>
      </trkpt>
      <trkpt lat="43.49794" lon="-1.54207">
        <ele>29.6</ele>
        <time>2021-07-18T11:58:01Z</time>
      </trkpt>
      <trkpt lat="43.49796" lon="-1.54198">
        <ele>29.4</ele>
        <time>2021-07-18T11:58:02Z</time>
      </trkpt>
      <trkpt lat="43.498" lon="-1.54181">
        <ele>29</ele>
        <time>2021-07-18T11:58:04Z</time>
      </trkpt>
      <trkpt lat="43.49803" lon="-1.54173">
        <ele>28.8</ele>
        <time>2021-07-18T11:58:05Z</time>
      </trkpt>
      <trkpt lat="43.49806" lon="-1.54165">
        <ele>28.6</ele>
        <time>2021-07-18T11:58:06Z</time>
      </trkpt>
      <trkpt lat="43.4981" lon="-1.54157">
        <ele>28.4</ele>
        <time>2021-07-18T11:58:07Z</time>
      </trkpt>
      <trkpt lat="43.49815" lon="-1.54151">
        <ele>28.2</ele>
        <time>2021-07-18T11:58:08Z</time>
      </trkpt>
      <trkpt lat="43.49822" lon="-1.54147">
        <ele>27.8</ele>
        <time>2021-07-18T11:58:10Z</time>
      </trkpt>
      <trkpt lat="43.49833" lon="-1.54141">
        <ele>27.1</ele>
        <time>2021-07-18T11:58:12Z</time>
      </trkpt>
      <trkpt lat="43.49845" lon="-1.54138">
        <ele>26.3</ele>
        <time>2021-07-18T11:58:14Z</time>
      </trkpt>
      <trkpt lat="43.49857" lon="-1.54136">
        <ele>25.6</ele>
        <time>2021-07-18T11:58:16Z</time>
      </trkpt>
      <trkpt lat="43.49864" lon="-1.54135">
        <ele>25.2</ele>
        <time>2021-07-18T11:58:17Z</time>
      </trkpt>
      <trkpt lat="43.49878" lon="-1.5413">
        <ele>24.4</ele>
        <time>2021-07-18T11:58:19Z</time>
      </trkpt>
      <trkpt lat="43.49884" lon="-1.54127">
        <ele>24</ele>
        <time>2021-07-18T11:58:20Z</time>
      </trkpt>
      <trkpt lat="43.4989" lon="-1.54123">
        <ele>23.7</ele>
        <time>2021-07-18T11:58:21Z</time>
      </trkpt>
      <trkpt lat="43.49895" lon="-1.5412">
        <ele>23.4</ele>
        <time>2021-07-18T11:58:22Z</time>
      </trkpt>
      <trkpt lat="43.49896" lon="-1.54118">
        <ele>23.3</ele>
        <time>2021-07-18T11:58:23Z</time>
      </trkpt>
      <trkpt lat="43.49899" lon="-1.54115">
        <ele>23.1</ele>
        <time>2021-07-18T11:58:25Z</time>
      </trkpt>
      <trkpt lat="43.49901" lon="-1.54113">
        <ele>23</ele>
        <time>2021-07-18T11:58:26Z</time>
      </trkpt>
      <trkpt lat="43.49906" lon="-1.54107">
        <ele>22.7</ele>
        <time>2021-07-18T11:58:28Z</time>
      </trkpt>
      <trkpt lat="43.49912" lon="-1.54099">
        <ele>22.3</ele>
        <time>2021-07-18T11:58:30Z</time>
      </trkpt>
      <trkpt lat="43.49916" lon="-1.54094">
        <ele>22</ele>
        <time>2021-07-18T11:58:31Z</time>
      </trkpt>
      <trkpt lat="43.49921" lon="-1.54084">
        <ele>21.6</ele>
        <time>2021-07-18T11:58:33Z</time>
      </trkpt>
      <trkpt lat="43.49924" lon="-1.54078">
        <ele>21.4</ele>
        <time>2021-07-18T11:58:34Z</time>
      </trkpt>
      <trkpt lat="43.49927" lon="-1.54072">
        <ele>21.4</ele>
        <time>2021-07-18T11:58:35Z</time>
      </trkpt>
      <trkpt lat="43.49931" lon="-1.54067">
        <ele>21.4</ele>
        <time>2021-07-18T11:58:36Z</time>
      </trkpt>
      <trkpt lat="43.49938" lon="-1.54056">
        <ele>21.4</ele>
        <time>2021-07-18T11:58:38Z</time>
      </trkpt>
      <trkpt lat="43.49942" lon="-1.54051">
        <ele>21.5</ele>
        <time>2021-07-18T11:58:40Z</time>
      </trkpt>
      <trkpt lat="43.49943" lon="-1.54049">
        <ele>21.5</ele>
        <time>2021-07-18T11:58:42Z</time>
      </trkpt>
      <trkpt lat="43.4994" lon="-1.54049">
        <ele>21.6</ele>
        <time>2021-07-18T11:58:43Z</time>
      </trkpt>
      <trkpt lat="43.49938" lon="-1.54045">
        <ele>21.7</ele>
        <time>2021-07-18T11:58:45Z</time>
      </trkpt>
      <trkpt lat="43.49939" lon="-1.54039">
        <ele>21.6</ele>
        <time>2021-07-18T11:58:47Z</time>
      </trkpt>
      <trkpt lat="43.49943" lon="-1.54033">
        <ele>21.6</ele>
        <time>2021-07-18T11:58:49Z</time>
      </trkpt>
      <trkpt lat="43.49945" lon="-1.54031">
        <ele>21.6</ele>
        <time>2021-07-18T11:58:50Z</time>
      </trkpt>
      <trkpt lat="43.49952" lon="-1.54027">
        <ele>21.5</ele>
        <time>2021-07-18T11:58:52Z</time>
      </trkpt>
      <trkpt lat="43.4996" lon="-1.54028">
        <ele>21.5</ele>
        <time>2021-07-18T11:58:54Z</time>
      </trkpt>
      <trkpt lat="43.49965" lon="-1.54028">
        <ele>21.5</ele>
        <time>2021-07-18T11:58:55Z</time>
      </trkpt>
      <trkpt lat="43.49969" lon="-1.54026">
        <ele>21.4</ele>
        <time>2021-07-18T11:58:57Z</time>
      </trkpt>
      <trkpt lat="43.4997" lon="-1.54025">
        <ele>21.4</ele>
        <time>2021-07-18T11:58:58Z</time>
      </trkpt>
      <trkpt lat="43.49972" lon="-1.54025">
        <ele>21.4</ele>
        <time>2021-07-18T11:58:59Z</time>
      </trkpt>
      <trkpt lat="43.49972" lon="-1.54025">
        <ele>21.4</ele>
        <time>2021-07-18T11:59:00Z</time>
      </trkpt>
      <trkpt lat="43.49974" lon="-1.54024">
        <ele>21.4</ele>
        <time>2021-07-18T11:59:02Z</time>
      </trkpt>
      <trkpt lat="43.49974" lon="-1.54025">
        <ele>21.4</ele>
        <time>2021-07-18T11:59:03Z</time>
      </trkpt>
      <trkpt lat="43.49974" lon="-1.54025">
        <ele>21.4</ele>
        <time>2021-07-18T11:59:05Z</time>
      </trkpt>
      <trkpt lat="43.49975" lon="-1.54026">
        <ele>21.4</ele>
        <time>2021-07-18T11:59:06Z</time>
      </trkpt>
      <trkpt lat="43.49975" lon="-1.54027">
        <ele>21.4</ele>
        <time>2021-07-18T11:59:07Z</time>
      </trkpt>
      <trkpt lat="43.49976" lon="-1.54026">
        <ele>21.4</ele>
        <time>2021-07-18T11:59:09Z</time>
      </trkpt>
      <trkpt lat="43.49977" lon="-1.54026">
        <ele>21.4</ele>
        <time>2021-07-18T11:59:10Z</time>
      </trkpt>
      <trkpt lat="43.49979" lon="-1.54027">
        <ele>21.4</ele>
        <time>2021-07-18T11:59:12Z</time>
      </trkpt>
      <trkpt lat="43.49975" lon="-1.54032">
        <ele>21.3</ele>
        <time>2021-07-18T11:59:14Z</time>
      </trkpt>
      <trkpt lat="43.49972" lon="-1.54037">
        <ele>21.3</ele>
        <time>2021-07-18T11:59:15Z</time>
      </trkpt>
      <trkpt lat="43.49971" lon="-1.54042">
        <ele>21.2</ele>
        <time>2021-07-18T11:59:16Z</time>
      </trkpt>
      <trkpt lat="43.4997" lon="-1.54046">
        <ele>21.1</ele>
        <time>2021-07-18T11:59:17Z</time>
      </trkpt>
      <trkpt lat="43.49969" lon="-1.54052">
        <ele>20.9</ele>
        <time>2021-07-18T11:59:19Z</time>
      </trkpt>
      <trkpt lat="43.49967" lon="-1.54054">
        <ele>20.8</ele>
        <time>2021-07-18T11:59:21Z</time>
      </trkpt>
      <trkpt lat="43.49967" lon="-1.5405">
        <ele>20.7</ele>
        <time>2021-07-18T11:59:23Z</time>
      </trkpt>
      <trkpt lat="43.49968" lon="-1.54049">
        <ele>20.7</ele>
        <time>2021-07-18T11:59:24Z</time>
      </trkpt>
      <trkpt lat="43.4997" lon="-1.54047">
        <ele>20.7</ele>
        <time>2021-07-18T11:59:26Z</time>
      </trkpt>
      <trkpt lat="43.49972" lon="-1.54045">
        <ele>20.6</ele>
        <time>2021-07-18T11:59:27Z</time>
      </trkpt>
      <trkpt lat="43.49973" lon="-1.54043">
        <ele>20.6</ele>
        <time>2021-07-18T11:59:29Z</time>
      </trkpt>
      <trkpt lat="43.49976" lon="-1.54039">
        <ele>20.5</ele>
        <time>2021-07-18T11:59:30Z</time>
      </trkpt>
      <trkpt lat="43.4998" lon="-1.54034">
        <ele>20.4</ele>
        <time>2021-07-18T11:59:32Z</time>
      </trkpt>
      <trkpt lat="43.49983" lon="-1.54031">
        <ele>20.3</ele>
        <time>2021-07-18T11:59:33Z</time>
      </trkpt>
      <trkpt lat="43.49987" lon="-1.54027">
        <ele>20.2</ele>
        <time>2021-07-18T11:59:34Z</time>
      </trkpt>
      <trkpt lat="43.49991" lon="-1.54024">
        <ele>20.1</ele>
        <time>2021-07-18T11:59:36Z</time>
      </trkpt>
      <trkpt lat="43.49995" lon="-1.54019">
        <ele>19.8</ele>
        <time>2021-07-18T11:59:37Z</time>
      </trkpt>
      <trkpt lat="43.49998" lon="-1.54014">
        <ele>19.7</ele>
        <time>2021-07-18T11:59:38Z</time>
      </trkpt>
      <trkpt lat="43.5" lon="-1.54009">
        <ele>19.5</ele>
        <time>2021-07-18T11:59:39Z</time>
      </trkpt>
      <trkpt lat="43.50004" lon="-1.54001">
        <ele>19.1</ele>
        <time>2021-07-18T11:59:41Z</time>
      </trkpt>
      <trkpt lat="43.50007" lon="-1.53993">
        <ele>18.7</ele>
        <time>2021-07-18T11:59:42Z</time>
      </trkpt>
      <trkpt lat="43.50009" lon="-1.53976">
        <ele>17.8</ele>
        <time>2021-07-18T11:59:44Z</time>
      </trkpt>
      <trkpt lat="43.50011" lon="-1.53968">
        <ele>17.3</ele>
        <time>2021-07-18T11:59:45Z</time>
      </trkpt>
      <trkpt lat="43.50013" lon="-1.5395">
        <ele>16.4</ele>
        <time>2021-07-18T11:59:47Z</time>
      </trkpt>
      <trkpt lat="43.50015" lon="-1.53941">
        <ele>15.9</ele>
        <time>2021-07-18T11:59:48Z</time>
      </trkpt>
      <trkpt lat="43.50024" lon="-1.53923">
        <ele>14.9</ele>
        <time>2021-07-18T11:59:50Z</time>
      </trkpt>
      <trkpt lat="43.50036" lon="-1.53909">
        <ele>14</ele>
        <time>2021-07-18T11:59:52Z</time>
      </trkpt>
      <trkpt lat="43.50043" lon="-1.53902">
        <ele>13.7</ele>
        <time>2021-07-18T11:59:53Z</time>
      </trkpt>
      <trkpt lat="43.50056" lon="-1.53888">
        <ele>12.9</ele>
        <time>2021-07-18T11:59:55Z</time>
      </trkpt>
      <trkpt lat="43.50069" lon="-1.53874">
        <ele>12.2</ele>
        <time>2021-07-18T11:59:57Z</time>
      </trkpt>
      <trkpt lat="43.50075" lon="-1.53868">
        <ele>11.9</ele>
        <time>2021-07-18T11:59:58Z</time>
      </trkpt>
      <trkpt lat="43.50079" lon="-1.53863">
        <ele>11.7</ele>
        <time>2021-07-18T11:59:59Z</time>
      </trkpt>
      <trkpt lat="43.50088" lon="-1.53855">
        <ele>11.4</ele>
        <time>2021-07-18T12:00:01Z</time>
      </trkpt>
      <trkpt lat="43.50092" lon="-1.53852">
        <ele>11.3</ele>
        <time>2021-07-18T12:00:02Z</time>
      </trkpt>
      <trkpt lat="43.50097" lon="-1.53849">
        <ele>11.1</ele>
        <time>2021-07-18T12:00:04Z</time>
      </trkpt>
      <trkpt lat="43.50104" lon="-1.53851">
        <ele>11.1</ele>
        <time>2021-07-18T12:00:06Z</time>
      </trkpt>
      <trkpt lat="43.5011" lon="-1.53846">
        <ele>11.1</ele>
        <time>2021-07-18T12:00:08Z</time>
      </trkpt>
      <trkpt lat="43.5011" lon="-1.53845">
        <ele>11.1</ele>
        <time>2021-07-18T12:00:09Z</time>
      </trkpt>
      <trkpt lat="43.5011" lon="-1.5384">
        <ele>11.1</ele>
        <time>2021-07-18T12:00:11Z</time>
      </trkpt>
      <trkpt lat="43.50112" lon="-1.53832">
        <ele>11.1</ele>
        <time>2021-07-18T12:00:12Z</time>
      </trkpt>
      <trkpt lat="43.50117" lon="-1.53829">
        <ele>11.1</ele>
        <time>2021-07-18T12:00:13Z</time>
      </trkpt>
      <trkpt lat="43.50121" lon="-1.53825">
        <ele>11.1</ele>
        <time>2021-07-18T12:00:15Z</time>
      </trkpt>
      <trkpt lat="43.50124" lon="-1.53821">
        <ele>11.2</ele>
        <time>2021-07-18T12:00:16Z</time>
      </trkpt>
      <trkpt lat="43.50127" lon="-1.53818">
        <ele>11.2</ele>
        <time>2021-07-18T12:00:17Z</time>
      </trkpt>
      <trkpt lat="43.5013" lon="-1.53814">
        <ele>11.2</ele>
        <time>2021-07-18T12:00:18Z</time>
      </trkpt>
      <trkpt lat="43.50134" lon="-1.5381">
        <ele>11.2</ele>
        <time>2021-07-18T12:00:19Z</time>
      </trkpt>
      <trkpt lat="43.50139" lon="-1.53805">
        <ele>11.2</ele>
        <time>2021-07-18T12:00:21Z</time>
      </trkpt>
      <trkpt lat="43.50142" lon="-1.53802">
        <ele>11.2</ele>
        <time>2021-07-18T12:00:22Z</time>
      </trkpt>
      <trkpt lat="43.50147" lon="-1.53798">
        <ele>11.2</ele>
        <time>2021-07-18T12:00:23Z</time>
      </trkpt>
      <trkpt lat="43.50152" lon="-1.53793">
        <ele>11.2</ele>
        <time>2021-07-18T12:00:25Z</time>
      </trkpt>
      <trkpt lat="43.50158" lon="-1.53785">
        <ele>11.2</ele>
        <time>2021-07-18T12:00:27Z</time>
      </trkpt>
      <trkpt lat="43.50161" lon="-1.53782">
        <ele>11.2</ele>
        <time>2021-07-18T12:00:28Z</time>
      </trkpt>
      <trkpt lat="43.50165" lon="-1.53778">
        <ele>11.2</ele>
        <time>2021-07-18T12:00:29Z</time>
      </trkpt>
      <trkpt lat="43.50171" lon="-1.53771">
        <ele>11.2</ele>
        <time>2021-07-18T12:00:31Z</time>
      </trkpt>
      <trkpt lat="43.50178" lon="-1.53765">
        <ele>11.2</ele>
        <time>2021-07-18T12:00:33Z</time>
      </trkpt>
      <trkpt lat="43.50181" lon="-1.53761">
        <ele>11.2</ele>
        <time>2021-07-18T12:00:34Z</time>
      </trkpt>
      <trkpt lat="43.50184" lon="-1.53757">
        <ele>11.2</ele>
        <time>2021-07-18T12:00:35Z</time>
      </trkpt>
      <trkpt lat="43.50191" lon="-1.5375">
        <ele>11.2</ele>
        <time>2021-07-18T12:00:37Z</time>
      </trkpt>
      <trkpt lat="43.50198" lon="-1.53744">
        <ele>11.2</ele>
        <time>2021-07-18T12:00:39Z</time>
      </trkpt>
      <trkpt lat="43.50206" lon="-1.53737">
        <ele>11.2</ele>
        <time>2021-07-18T12:00:41Z</time>
      </trkpt>
      <trkpt lat="43.50214" lon="-1.53731">
        <ele>11.2</ele>
        <time>2021-07-18T12:00:43Z</time>
      </trkpt>
      <trkpt lat="43.50221" lon="-1.53724">
        <ele>11.2</ele>
        <time>2021-07-18T12:00:45Z</time>
      </trkpt>
      <trkpt lat="43.50229" lon="-1.53718">
        <ele>11.2</ele>
        <time>2021-07-18T12:00:47Z</time>
      </trkpt>
      <trkpt lat="43.50233" lon="-1.53715">
        <ele>11.2</ele>
        <time>2021-07-18T12:00:48Z</time>
      </trkpt>
      <trkpt lat="43.50237" lon="-1.53712">
        <ele>11.2</ele>
        <time>2021-07-18T12:00:49Z</time>
      </trkpt>
      <trkpt lat="43.50245" lon="-1.53705">
        <ele>11.1</ele>
        <time>2021-07-18T12:00:51Z</time>
      </trkpt>
      <trkpt lat="43.5025" lon="-1.53703">
        <ele>11.1</ele>
        <time>2021-07-18T12:00:52Z</time>
      </trkpt>
      <trkpt lat="43.50258" lon="-1.53696">
        <ele>11.1</ele>
        <time>2021-07-18T12:00:54Z</time>
      </trkpt>
      <trkpt lat="43.50262" lon="-1.53693">
        <ele>11.1</ele>
        <time>2021-07-18T12:00:55Z</time>
      </trkpt>
      <trkpt lat="43.50271" lon="-1.53687">
        <ele>11.1</ele>
        <time>2021-07-18T12:00:57Z</time>
      </trkpt>
      <trkpt lat="43.50275" lon="-1.53684">
        <ele>11.1</ele>
        <time>2021-07-18T12:00:58Z</time>
      </trkpt>
      <trkpt lat="43.5028" lon="-1.5368">
        <ele>11.1</ele>
        <time>2021-07-18T12:00:59Z</time>
      </trkpt>
      <trkpt lat="43.50288" lon="-1.53675">
        <ele>11.1</ele>
        <time>2021-07-18T12:01:01Z</time>
      </trkpt>
      <trkpt lat="43.50296" lon="-1.53669">
        <ele>11</ele>
        <time>2021-07-18T12:01:03Z</time>
      </trkpt>
      <trkpt lat="43.50301" lon="-1.53666">
        <ele>11</ele>
        <time>2021-07-18T12:01:04Z</time>
      </trkpt>
      <trkpt lat="43.50308" lon="-1.5366">
        <ele>11</ele>
        <time>2021-07-18T12:01:06Z</time>
      </trkpt>
      <trkpt lat="43.50316" lon="-1.53655">
        <ele>11.1</ele>
        <time>2021-07-18T12:01:08Z</time>
      </trkpt>
      <trkpt lat="43.50324" lon="-1.53655">
        <ele>11.1</ele>
        <time>2021-07-18T12:01:10Z</time>
      </trkpt>
      <trkpt lat="43.50327" lon="-1.53654">
        <ele>11.1</ele>
        <time>2021-07-18T12:01:11Z</time>
      </trkpt>
      <trkpt lat="43.50332" lon="-1.53648">
        <ele>11.1</ele>
        <time>2021-07-18T12:01:13Z</time>
      </trkpt>
      <trkpt lat="43.50335" lon="-1.53635">
        <ele>11.1</ele>
        <time>2021-07-18T12:01:15Z</time>
      </trkpt>
      <trkpt lat="43.50333" lon="-1.5363">
        <ele>11</ele>
        <time>2021-07-18T12:01:16Z</time>
      </trkpt>
      <trkpt lat="43.50339" lon="-1.53623">
        <ele>11</ele>
        <time>2021-07-18T12:01:18Z</time>
      </trkpt>
      <trkpt lat="43.50345" lon="-1.5362">
        <ele>10.9</ele>
        <time>2021-07-18T12:01:19Z</time>
      </trkpt>
      <trkpt lat="43.50352" lon="-1.53617">
        <ele>10.8</ele>
        <time>2021-07-18T12:01:20Z</time>
      </trkpt>
      <trkpt lat="43.50356" lon="-1.53614">
        <ele>10.8</ele>
        <time>2021-07-18T12:01:21Z</time>
      </trkpt>
      <trkpt lat="43.50361" lon="-1.53611">
        <ele>10.8</ele>
        <time>2021-07-18T12:01:23Z</time>
      </trkpt>
      <trkpt lat="43.50366" lon="-1.53607">
        <ele>10.8</ele>
        <time>2021-07-18T12:01:24Z</time>
      </trkpt>
      <trkpt lat="43.50373" lon="-1.53604">
        <ele>10.7</ele>
        <time>2021-07-18T12:01:25Z</time>
      </trkpt>
      <trkpt lat="43.50382" lon="-1.53598">
        <ele>10.7</ele>
        <time>2021-07-18T12:01:27Z</time>
      </trkpt>
      <trkpt lat="43.50386" lon="-1.53595">
        <ele>10.7</ele>
        <time>2021-07-18T12:01:28Z</time>
      </trkpt>
      <trkpt lat="43.50393" lon="-1.5359">
        <ele>10.7</ele>
        <time>2021-07-18T12:01:30Z</time>
      </trkpt>
      <trkpt lat="43.50396" lon="-1.53587">
        <ele>10.7</ele>
        <time>2021-07-18T12:01:31Z</time>
      </trkpt>
      <trkpt lat="43.50401" lon="-1.53584">
        <ele>10.7</ele>
        <time>2021-07-18T12:01:32Z</time>
      </trkpt>
      <trkpt lat="43.50409" lon="-1.53578">
        <ele>10.6</ele>
        <time>2021-07-18T12:01:34Z</time>
      </trkpt>
      <trkpt lat="43.50418" lon="-1.53571">
        <ele>10.5</ele>
        <time>2021-07-18T12:01:36Z</time>
      </trkpt>
      <trkpt lat="43.50423" lon="-1.53568">
        <ele>10.5</ele>
        <time>2021-07-18T12:01:37Z</time>
      </trkpt>
      <trkpt lat="43.50432" lon="-1.53561">
        <ele>10.4</ele>
        <time>2021-07-18T12:01:39Z</time>
      </trkpt>
      <trkpt lat="43.50436" lon="-1.53558">
        <ele>10.4</ele>
        <time>2021-07-18T12:01:40Z</time>
      </trkpt>
      <trkpt lat="43.50446" lon="-1.53552">
        <ele>10.3</ele>
        <time>2021-07-18T12:01:42Z</time>
      </trkpt>
      <trkpt lat="43.50455" lon="-1.53544">
        <ele>10.3</ele>
        <time>2021-07-18T12:01:44Z</time>
      </trkpt>
      <trkpt lat="43.50459" lon="-1.53541">
        <ele>10.3</ele>
        <time>2021-07-18T12:01:45Z</time>
      </trkpt>
      <trkpt lat="43.50464" lon="-1.53537">
        <ele>10.2</ele>
        <time>2021-07-18T12:01:46Z</time>
      </trkpt>
      <trkpt lat="43.50473" lon="-1.5353">
        <ele>10.2</ele>
        <time>2021-07-18T12:01:48Z</time>
      </trkpt>
      <trkpt lat="43.50478" lon="-1.53526">
        <ele>10.1</ele>
        <time>2021-07-18T12:01:49Z</time>
      </trkpt>
      <trkpt lat="43.50487" lon="-1.53519">
        <ele>10.1</ele>
        <time>2021-07-18T12:01:51Z</time>
      </trkpt>
      <trkpt lat="43.50496" lon="-1.53512">
        <ele>10</ele>
        <time>2021-07-18T12:01:53Z</time>
      </trkpt>
      <trkpt lat="43.505" lon="-1.53509">
        <ele>10</ele>
        <time>2021-07-18T12:01:54Z</time>
      </trkpt>
      <trkpt lat="43.50505" lon="-1.53506">
        <ele>10</ele>
        <time>2021-07-18T12:01:55Z</time>
      </trkpt>
      <trkpt lat="43.50514" lon="-1.53498">
        <ele>9.9</ele>
        <time>2021-07-18T12:01:57Z</time>
      </trkpt>
      <trkpt lat="43.50522" lon="-1.53491">
        <ele>9.9</ele>
        <time>2021-07-18T12:01:59Z</time>
      </trkpt>
      <trkpt lat="43.50531" lon="-1.53483">
        <ele>9.9</ele>
        <time>2021-07-18T12:02:01Z</time>
      </trkpt>
      <trkpt lat="43.50535" lon="-1.5348">
        <ele>9.9</ele>
        <time>2021-07-18T12:02:02Z</time>
      </trkpt>
      <trkpt lat="43.50543" lon="-1.53475">
        <ele>9.9</ele>
        <time>2021-07-18T12:02:04Z</time>
      </trkpt>
      <trkpt lat="43.50549" lon="-1.53468">
        <ele>9.8</ele>
        <time>2021-07-18T12:02:06Z</time>
      </trkpt>
      <trkpt lat="43.50552" lon="-1.53465">
        <ele>9.8</ele>
        <time>2021-07-18T12:02:07Z</time>
      </trkpt>
      <trkpt lat="43.50556" lon="-1.53462">
        <ele>9.7</ele>
        <time>2021-07-18T12:02:08Z</time>
      </trkpt>
      <trkpt lat="43.5056" lon="-1.53458">
        <ele>9.7</ele>
        <time>2021-07-18T12:02:09Z</time>
      </trkpt>
      <trkpt lat="43.50569" lon="-1.53452">
        <ele>9.6</ele>
        <time>2021-07-18T12:02:11Z</time>
      </trkpt>
      <trkpt lat="43.50578" lon="-1.53446">
        <ele>9.5</ele>
        <time>2021-07-18T12:02:13Z</time>
      </trkpt>
      <trkpt lat="43.50583" lon="-1.53444">
        <ele>9.5</ele>
        <time>2021-07-18T12:02:14Z</time>
      </trkpt>
      <trkpt lat="43.50592" lon="-1.53438">
        <ele>9.3</ele>
        <time>2021-07-18T12:02:16Z</time>
      </trkpt>
      <trkpt lat="43.50597" lon="-1.53435">
        <ele>9.3</ele>
        <time>2021-07-18T12:02:17Z</time>
      </trkpt>
      <trkpt lat="43.50602" lon="-1.53432">
        <ele>9.2</ele>
        <time>2021-07-18T12:02:18Z</time>
      </trkpt>
      <trkpt lat="43.50612" lon="-1.53425">
        <ele>9.1</ele>
        <time>2021-07-18T12:02:20Z</time>
      </trkpt>
      <trkpt lat="43.50622" lon="-1.53419">
        <ele>8.9</ele>
        <time>2021-07-18T12:02:22Z</time>
      </trkpt>
      <trkpt lat="43.50632" lon="-1.53413">
        <ele>8.8</ele>
        <time>2021-07-18T12:02:24Z</time>
      </trkpt>
      <trkpt lat="43.50643" lon="-1.53407">
        <ele>8.7</ele>
        <time>2021-07-18T12:02:26Z</time>
      </trkpt>
      <trkpt lat="43.50648" lon="-1.53403">
        <ele>8.6</ele>
        <time>2021-07-18T12:02:27Z</time>
      </trkpt>
      <trkpt lat="43.50658" lon="-1.53396">
        <ele>8.5</ele>
        <time>2021-07-18T12:02:29Z</time>
      </trkpt>
      <trkpt lat="43.50669" lon="-1.53389">
        <ele>8.4</ele>
        <time>2021-07-18T12:02:31Z</time>
      </trkpt>
      <trkpt lat="43.50674" lon="-1.53385">
        <ele>8.3</ele>
        <time>2021-07-18T12:02:32Z</time>
      </trkpt>
      <trkpt lat="43.50679" lon="-1.53381">
        <ele>8.3</ele>
        <time>2021-07-18T12:02:33Z</time>
      </trkpt>
      <trkpt lat="43.50684" lon="-1.53377">
        <ele>8.2</ele>
        <time>2021-07-18T12:02:34Z</time>
      </trkpt>
      <trkpt lat="43.50689" lon="-1.53373">
        <ele>8.2</ele>
        <time>2021-07-18T12:02:35Z</time>
      </trkpt>
      <trkpt lat="43.50694" lon="-1.5337">
        <ele>8.2</ele>
        <time>2021-07-18T12:02:36Z</time>
      </trkpt>
      <trkpt lat="43.50704" lon="-1.53363">
        <ele>8.1</ele>
        <time>2021-07-18T12:02:38Z</time>
      </trkpt>
      <trkpt lat="43.50708" lon="-1.5336">
        <ele>8.1</ele>
        <time>2021-07-18T12:02:39Z</time>
      </trkpt>
      <trkpt lat="43.50716" lon="-1.53354">
        <ele>8</ele>
        <time>2021-07-18T12:02:41Z</time>
      </trkpt>
      <trkpt lat="43.5072" lon="-1.53351">
        <ele>8</ele>
        <time>2021-07-18T12:02:42Z</time>
      </trkpt>
      <trkpt lat="43.50724" lon="-1.53348">
        <ele>8</ele>
        <time>2021-07-18T12:02:43Z</time>
      </trkpt>
      <trkpt lat="43.5073" lon="-1.53344">
        <ele>8</ele>
        <time>2021-07-18T12:02:45Z</time>
      </trkpt>
      <trkpt lat="43.50738" lon="-1.53337">
        <ele>8.1</ele>
        <time>2021-07-18T12:02:47Z</time>
      </trkpt>
      <trkpt lat="43.50746" lon="-1.53333">
        <ele>8.2</ele>
        <time>2021-07-18T12:02:49Z</time>
      </trkpt>
      <trkpt lat="43.50751" lon="-1.5333">
        <ele>8.2</ele>
        <time>2021-07-18T12:02:50Z</time>
      </trkpt>
      <trkpt lat="43.50755" lon="-1.53327">
        <ele>8.3</ele>
        <time>2021-07-18T12:02:51Z</time>
      </trkpt>
      <trkpt lat="43.50761" lon="-1.53321">
        <ele>8.4</ele>
        <time>2021-07-18T12:02:53Z</time>
      </trkpt>
      <trkpt lat="43.50765" lon="-1.53318">
        <ele>8.5</ele>
        <time>2021-07-18T12:02:54Z</time>
      </trkpt>
      <trkpt lat="43.50768" lon="-1.53315">
        <ele>8.6</ele>
        <time>2021-07-18T12:02:55Z</time>
      </trkpt>
      <trkpt lat="43.50774" lon="-1.53308">
        <ele>8.7</ele>
        <time>2021-07-18T12:02:57Z</time>
      </trkpt>
      <trkpt lat="43.5078" lon="-1.53302">
        <ele>8.8</ele>
        <time>2021-07-18T12:02:59Z</time>
      </trkpt>
      <trkpt lat="43.50785" lon="-1.53296">
        <ele>8.9</ele>
        <time>2021-07-18T12:03:01Z</time>
      </trkpt>
      <trkpt lat="43.50791" lon="-1.53288">
        <ele>9.1</ele>
        <time>2021-07-18T12:03:03Z</time>
      </trkpt>
      <trkpt lat="43.50795" lon="-1.53281">
        <ele>9.3</ele>
        <time>2021-07-18T12:03:05Z</time>
      </trkpt>
      <trkpt lat="43.50797" lon="-1.53278">
        <ele>9.4</ele>
        <time>2021-07-18T12:03:06Z</time>
      </trkpt>
      <trkpt lat="43.50801" lon="-1.53272">
        <ele>9.5</ele>
        <time>2021-07-18T12:03:08Z</time>
      </trkpt>
      <trkpt lat="43.50805" lon="-1.53265">
        <ele>9.6</ele>
        <time>2021-07-18T12:03:10Z</time>
      </trkpt>
      <trkpt lat="43.50809" lon="-1.53258">
        <ele>9.6</ele>
        <time>2021-07-18T12:03:12Z</time>
      </trkpt>
      <trkpt lat="43.50814" lon="-1.53249">
        <ele>9.7</ele>
        <time>2021-07-18T12:03:14Z</time>
      </trkpt>
      <trkpt lat="43.50818" lon="-1.53242">
        <ele>9.7</ele>
        <time>2021-07-18T12:03:16Z</time>
      </trkpt>
      <trkpt lat="43.50823" lon="-1.53233">
        <ele>9.8</ele>
        <time>2021-07-18T12:03:18Z</time>
      </trkpt>
      <trkpt lat="43.50825" lon="-1.53229">
        <ele>9.8</ele>
        <time>2021-07-18T12:03:19Z</time>
      </trkpt>
      <trkpt lat="43.50829" lon="-1.5322">
        <ele>9.9</ele>
        <time>2021-07-18T12:03:21Z</time>
      </trkpt>
      <trkpt lat="43.50831" lon="-1.53217">
        <ele>10</ele>
        <time>2021-07-18T12:03:22Z</time>
      </trkpt>
      <trkpt lat="43.50836" lon="-1.53209">
        <ele>10.1</ele>
        <time>2021-07-18T12:03:24Z</time>
      </trkpt>
      <trkpt lat="43.5084" lon="-1.53201">
        <ele>10.2</ele>
        <time>2021-07-18T12:03:26Z</time>
      </trkpt>
      <trkpt lat="43.50842" lon="-1.53197">
        <ele>10.3</ele>
        <time>2021-07-18T12:03:27Z</time>
      </trkpt>
      <trkpt lat="43.50844" lon="-1.53193">
        <ele>10.4</ele>
        <time>2021-07-18T12:03:28Z</time>
      </trkpt>
      <trkpt lat="43.50848" lon="-1.53185">
        <ele>10.6</ele>
        <time>2021-07-18T12:03:30Z</time>
      </trkpt>
      <trkpt lat="43.50852" lon="-1.53179">
        <ele>10.7</ele>
        <time>2021-07-18T12:03:32Z</time>
      </trkpt>
      <trkpt lat="43.50856" lon="-1.53171">
        <ele>10.9</ele>
        <time>2021-07-18T12:03:34Z</time>
      </trkpt>
      <trkpt lat="43.5086" lon="-1.53164">
        <ele>11.1</ele>
        <time>2021-07-18T12:03:36Z</time>
      </trkpt>
      <trkpt lat="43.50864" lon="-1.53156">
        <ele>11.3</ele>
        <time>2021-07-18T12:03:38Z</time>
      </trkpt>
      <trkpt lat="43.50869" lon="-1.5315">
        <ele>11.5</ele>
        <time>2021-07-18T12:03:40Z</time>
      </trkpt>
      <trkpt lat="43.50871" lon="-1.53146">
        <ele>11.6</ele>
        <time>2021-07-18T12:03:41Z</time>
      </trkpt>
      <trkpt lat="43.50874" lon="-1.5314">
        <ele>11.8</ele>
        <time>2021-07-18T12:03:43Z</time>
      </trkpt>
      <trkpt lat="43.50876" lon="-1.53137">
        <ele>11.9</ele>
        <time>2021-07-18T12:03:44Z</time>
      </trkpt>
      <trkpt lat="43.50879" lon="-1.5313">
        <ele>12</ele>
        <time>2021-07-18T12:03:46Z</time>
      </trkpt>
      <trkpt lat="43.50881" lon="-1.53126">
        <ele>12.1</ele>
        <time>2021-07-18T12:03:47Z</time>
      </trkpt>
      <trkpt lat="43.50885" lon="-1.53119">
        <ele>12.3</ele>
        <time>2021-07-18T12:03:49Z</time>
      </trkpt>
      <trkpt lat="43.50889" lon="-1.53111">
        <ele>12.4</ele>
        <time>2021-07-18T12:03:51Z</time>
      </trkpt>
      <trkpt lat="43.50891" lon="-1.53108">
        <ele>12.5</ele>
        <time>2021-07-18T12:03:52Z</time>
      </trkpt>
      <trkpt lat="43.50894" lon="-1.53102">
        <ele>12.6</ele>
        <time>2021-07-18T12:03:54Z</time>
      </trkpt>
      <trkpt lat="43.50896" lon="-1.53098">
        <ele>12.6</ele>
        <time>2021-07-18T12:03:55Z</time>
      </trkpt>
      <trkpt lat="43.50899" lon="-1.53092">
        <ele>12.7</ele>
        <time>2021-07-18T12:03:57Z</time>
      </trkpt>
      <trkpt lat="43.50902" lon="-1.53087">
        <ele>12.8</ele>
        <time>2021-07-18T12:03:58Z</time>
      </trkpt>
      <trkpt lat="43.50905" lon="-1.53079">
        <ele>12.9</ele>
        <time>2021-07-18T12:04:00Z</time>
      </trkpt>
      <trkpt lat="43.50909" lon="-1.53071">
        <ele>12.9</ele>
        <time>2021-07-18T12:04:02Z</time>
      </trkpt>
      <trkpt lat="43.50912" lon="-1.53067">
        <ele>12.9</ele>
        <time>2021-07-18T12:04:03Z</time>
      </trkpt>
      <trkpt lat="43.50915" lon="-1.53065">
        <ele>12.9</ele>
        <time>2021-07-18T12:04:04Z</time>
      </trkpt>
      <trkpt lat="43.50919" lon="-1.53066">
        <ele>12.9</ele>
        <time>2021-07-18T12:04:05Z</time>
      </trkpt>
      <trkpt lat="43.50925" lon="-1.53066">
        <ele>12.9</ele>
        <time>2021-07-18T12:04:07Z</time>
      </trkpt>
      <trkpt lat="43.5093" lon="-1.53061">
        <ele>12.8</ele>
        <time>2021-07-18T12:04:09Z</time>
      </trkpt>
      <trkpt lat="43.5093" lon="-1.53057">
        <ele>12.8</ele>
        <time>2021-07-18T12:04:10Z</time>
      </trkpt>
      <trkpt lat="43.5093" lon="-1.53049">
        <ele>12.7</ele>
        <time>2021-07-18T12:04:12Z</time>
      </trkpt>
      <trkpt lat="43.50929" lon="-1.53044">
        <ele>12.6</ele>
        <time>2021-07-18T12:04:13Z</time>
      </trkpt>
      <trkpt lat="43.50929" lon="-1.53036">
        <ele>12.5</ele>
        <time>2021-07-18T12:04:15Z</time>
      </trkpt>
      <trkpt lat="43.5093" lon="-1.5303">
        <ele>12.3</ele>
        <time>2021-07-18T12:04:16Z</time>
      </trkpt>
      <trkpt lat="43.50931" lon="-1.53026">
        <ele>12.2</ele>
        <time>2021-07-18T12:04:17Z</time>
      </trkpt>
      <trkpt lat="43.50933" lon="-1.53022">
        <ele>12.1</ele>
        <time>2021-07-18T12:04:18Z</time>
      </trkpt>
      <trkpt lat="43.50937" lon="-1.53013">
        <ele>11.9</ele>
        <time>2021-07-18T12:04:20Z</time>
      </trkpt>
      <trkpt lat="43.50941" lon="-1.53004">
        <ele>11.6</ele>
        <time>2021-07-18T12:04:21Z</time>
      </trkpt>
      <trkpt lat="43.50944" lon="-1.52998">
        <ele>11.5</ele>
        <time>2021-07-18T12:04:22Z</time>
      </trkpt>
      <trkpt lat="43.50947" lon="-1.52993">
        <ele>11.3</ele>
        <time>2021-07-18T12:04:23Z</time>
      </trkpt>
      <trkpt lat="43.50954" lon="-1.52982">
        <ele>10.9</ele>
        <time>2021-07-18T12:04:25Z</time>
      </trkpt>
      <trkpt lat="43.50962" lon="-1.52971">
        <ele>10.5</ele>
        <time>2021-07-18T12:04:27Z</time>
      </trkpt>
      <trkpt lat="43.5097" lon="-1.5296">
        <ele>10.1</ele>
        <time>2021-07-18T12:04:29Z</time>
      </trkpt>
      <trkpt lat="43.50974" lon="-1.52955">
        <ele>9.9</ele>
        <time>2021-07-18T12:04:30Z</time>
      </trkpt>
      <trkpt lat="43.50982" lon="-1.52942">
        <ele>9.5</ele>
        <time>2021-07-18T12:04:32Z</time>
      </trkpt>
      <trkpt lat="43.50987" lon="-1.52937">
        <ele>9.2</ele>
        <time>2021-07-18T12:04:33Z</time>
      </trkpt>
      <trkpt lat="43.50992" lon="-1.52931">
        <ele>9</ele>
        <time>2021-07-18T12:04:34Z</time>
      </trkpt>
      <trkpt lat="43.51001" lon="-1.52918">
        <ele>8.5</ele>
        <time>2021-07-18T12:04:36Z</time>
      </trkpt>
      <trkpt lat="43.51005" lon="-1.52911">
        <ele>8.3</ele>
        <time>2021-07-18T12:04:37Z</time>
      </trkpt>
      <trkpt lat="43.5101" lon="-1.52905">
        <ele>8.1</ele>
        <time>2021-07-18T12:04:38Z</time>
      </trkpt>
      <trkpt lat="43.51014" lon="-1.52899">
        <ele>7.8</ele>
        <time>2021-07-18T12:04:39Z</time>
      </trkpt>
      <trkpt lat="43.51019" lon="-1.52892">
        <ele>7.6</ele>
        <time>2021-07-18T12:04:40Z</time>
      </trkpt>
      <trkpt lat="43.51023" lon="-1.52887">
        <ele>7.4</ele>
        <time>2021-07-18T12:04:41Z</time>
      </trkpt>
      <trkpt lat="43.51025" lon="-1.52883">
        <ele>7.3</ele>
        <time>2021-07-18T12:04:43Z</time>
      </trkpt>
      <trkpt lat="43.51028" lon="-1.52881">
        <ele>7.2</ele>
        <time>2021-07-18T12:04:44Z</time>
      </trkpt>
      <trkpt lat="43.5103" lon="-1.52878">
        <ele>7.1</ele>
        <time>2021-07-18T12:04:45Z</time>
      </trkpt>
      <trkpt lat="43.51036" lon="-1.52871">
        <ele>6.9</ele>
        <time>2021-07-18T12:04:47Z</time>
      </trkpt>
      <trkpt lat="43.51043" lon="-1.52863">
        <ele>6.6</ele>
        <time>2021-07-18T12:04:49Z</time>
      </trkpt>
      <trkpt lat="43.51044" lon="-1.52858">
        <ele>6.4</ele>
        <time>2021-07-18T12:04:51Z</time>
      </trkpt>
      <trkpt lat="43.51054" lon="-1.52852">
        <ele>6.1</ele>
        <time>2021-07-18T12:04:52Z</time>
      </trkpt>
      <trkpt lat="43.51064" lon="-1.52842">
        <ele>5.8</ele>
        <time>2021-07-18T12:04:54Z</time>
      </trkpt>
      <trkpt lat="43.51072" lon="-1.52834">
        <ele>5.6</ele>
        <time>2021-07-18T12:04:56Z</time>
      </trkpt>
      <trkpt lat="43.51081" lon="-1.52826">
        <ele>5.5</ele>
        <time>2021-07-18T12:04:58Z</time>
      </trkpt>
      <trkpt lat="43.5109" lon="-1.52818">
        <ele>5.4</ele>
        <time>2021-07-18T12:05:00Z</time>
      </trkpt>
      <trkpt lat="43.51094" lon="-1.52813">
        <ele>5.4</ele>
        <time>2021-07-18T12:05:01Z</time>
      </trkpt>
      <trkpt lat="43.51103" lon="-1.52804">
        <ele>5.3</ele>
        <time>2021-07-18T12:05:03Z</time>
      </trkpt>
      <trkpt lat="43.51107" lon="-1.52799">
        <ele>5.3</ele>
        <time>2021-07-18T12:05:04Z</time>
      </trkpt>
      <trkpt lat="43.51112" lon="-1.52794">
        <ele>5.3</ele>
        <time>2021-07-18T12:05:05Z</time>
      </trkpt>
      <trkpt lat="43.5112" lon="-1.52784">
        <ele>5.3</ele>
        <time>2021-07-18T12:05:07Z</time>
      </trkpt>
      <trkpt lat="43.51129" lon="-1.52775">
        <ele>5.4</ele>
        <time>2021-07-18T12:05:09Z</time>
      </trkpt>
      <trkpt lat="43.51133" lon="-1.52771">
        <ele>5.4</ele>
        <time>2021-07-18T12:05:10Z</time>
      </trkpt>
      <trkpt lat="43.51137" lon="-1.52767">
        <ele>5.4</ele>
        <time>2021-07-18T12:05:11Z</time>
      </trkpt>
      <trkpt lat="43.51145" lon="-1.52759">
        <ele>5.4</ele>
        <time>2021-07-18T12:05:13Z</time>
      </trkpt>
      <trkpt lat="43.51149" lon="-1.52755">
        <ele>5.4</ele>
        <time>2021-07-18T12:05:14Z</time>
      </trkpt>
      <trkpt lat="43.51153" lon="-1.52751">
        <ele>5.4</ele>
        <time>2021-07-18T12:05:15Z</time>
      </trkpt>
      <trkpt lat="43.5116" lon="-1.52744">
        <ele>5.4</ele>
        <time>2021-07-18T12:05:17Z</time>
      </trkpt>
      <trkpt lat="43.51167" lon="-1.52739">
        <ele>5.4</ele>
        <time>2021-07-18T12:05:19Z</time>
      </trkpt>
      <trkpt lat="43.51174" lon="-1.5273">
        <ele>5.4</ele>
        <time>2021-07-18T12:05:21Z</time>
      </trkpt>
      <trkpt lat="43.51179" lon="-1.52725">
        <ele>5.4</ele>
        <time>2021-07-18T12:05:22Z</time>
      </trkpt>
      <trkpt lat="43.51182" lon="-1.52724">
        <ele>5.4</ele>
        <time>2021-07-18T12:05:23Z</time>
      </trkpt>
      <trkpt lat="43.51183" lon="-1.52723">
        <ele>5.4</ele>
        <time>2021-07-18T12:05:24Z</time>
      </trkpt>
      <trkpt lat="43.51191" lon="-1.52716">
        <ele>5.4</ele>
        <time>2021-07-18T12:05:26Z</time>
      </trkpt>
      <trkpt lat="43.51195" lon="-1.52712">
        <ele>5.4</ele>
        <time>2021-07-18T12:05:27Z</time>
      </trkpt>
      <trkpt lat="43.51203" lon="-1.52707">
        <ele>5.4</ele>
        <time>2021-07-18T12:05:29Z</time>
      </trkpt>
      <trkpt lat="43.51206" lon="-1.52704">
        <ele>5.4</ele>
        <time>2021-07-18T12:05:30Z</time>
      </trkpt>
      <trkpt lat="43.51213" lon="-1.52698">
        <ele>5.4</ele>
        <time>2021-07-18T12:05:32Z</time>
      </trkpt>
      <trkpt lat="43.51221" lon="-1.52692">
        <ele>5.5</ele>
        <time>2021-07-18T12:05:34Z</time>
      </trkpt>
      <trkpt lat="43.51226" lon="-1.52689">
        <ele>5.5</ele>
        <time>2021-07-18T12:05:35Z</time>
      </trkpt>
      <trkpt lat="43.51234" lon="-1.52684">
        <ele>5.5</ele>
        <time>2021-07-18T12:05:37Z</time>
      </trkpt>
      <trkpt lat="43.51237" lon="-1.52682">
        <ele>5.5</ele>
        <time>2021-07-18T12:05:38Z</time>
      </trkpt>
      <trkpt lat="43.51242" lon="-1.52679">
        <ele>5.6</ele>
        <time>2021-07-18T12:05:39Z</time>
      </trkpt>
      <trkpt lat="43.51249" lon="-1.52672">
        <ele>5.6</ele>
        <time>2021-07-18T12:05:41Z</time>
      </trkpt>
      <trkpt lat="43.51253" lon="-1.52669">
        <ele>5.7</ele>
        <time>2021-07-18T12:05:42Z</time>
      </trkpt>
      <trkpt lat="43.51256" lon="-1.52666">
        <ele>5.7</ele>
        <time>2021-07-18T12:05:43Z</time>
      </trkpt>
      <trkpt lat="43.51264" lon="-1.52661">
        <ele>5.8</ele>
        <time>2021-07-18T12:05:45Z</time>
      </trkpt>
      <trkpt lat="43.51269" lon="-1.52657">
        <ele>5.9</ele>
        <time>2021-07-18T12:05:46Z</time>
      </trkpt>
      <trkpt lat="43.51275" lon="-1.52652">
        <ele>6</ele>
        <time>2021-07-18T12:05:48Z</time>
      </trkpt>
      <trkpt lat="43.51279" lon="-1.52649">
        <ele>6.1</ele>
        <time>2021-07-18T12:05:49Z</time>
      </trkpt>
      <trkpt lat="43.51282" lon="-1.52648">
        <ele>6.2</ele>
        <time>2021-07-18T12:05:50Z</time>
      </trkpt>
      <trkpt lat="43.5129" lon="-1.52643">
        <ele>6.4</ele>
        <time>2021-07-18T12:05:52Z</time>
      </trkpt>
      <trkpt lat="43.51292" lon="-1.52641">
        <ele>6.4</ele>
        <time>2021-07-18T12:05:53Z</time>
      </trkpt>
      <trkpt lat="43.51299" lon="-1.52637">
        <ele>6.6</ele>
        <time>2021-07-18T12:05:55Z</time>
      </trkpt>
      <trkpt lat="43.51302" lon="-1.52635">
        <ele>6.7</ele>
        <time>2021-07-18T12:05:56Z</time>
      </trkpt>
      <trkpt lat="43.51305" lon="-1.52633">
        <ele>6.8</ele>
        <time>2021-07-18T12:05:57Z</time>
      </trkpt>
      <trkpt lat="43.51311" lon="-1.52628">
        <ele>6.8</ele>
        <time>2021-07-18T12:05:59Z</time>
      </trkpt>
      <trkpt lat="43.51314" lon="-1.52626">
        <ele>6.9</ele>
        <time>2021-07-18T12:06:00Z</time>
      </trkpt>
      <trkpt lat="43.51319" lon="-1.52622">
        <ele>7.2</ele>
        <time>2021-07-18T12:06:02Z</time>
      </trkpt>
      <trkpt lat="43.51322" lon="-1.5262">
        <ele>7.3</ele>
        <time>2021-07-18T12:06:03Z</time>
      </trkpt>
      <trkpt lat="43.51324" lon="-1.52619">
        <ele>7.4</ele>
        <time>2021-07-18T12:06:04Z</time>
      </trkpt>
      <trkpt lat="43.51328" lon="-1.52616">
        <ele>7.6</ele>
        <time>2021-07-18T12:06:06Z</time>
      </trkpt>
      <trkpt lat="43.51332" lon="-1.52612">
        <ele>7.8</ele>
        <time>2021-07-18T12:06:08Z</time>
      </trkpt>
      <trkpt lat="43.51335" lon="-1.5261">
        <ele>8</ele>
        <time>2021-07-18T12:06:09Z</time>
      </trkpt>
      <trkpt lat="43.51336" lon="-1.52609">
        <ele>8.1</ele>
        <time>2021-07-18T12:06:10Z</time>
      </trkpt>
      <trkpt lat="43.51339" lon="-1.52608">
        <ele>8.2</ele>
        <time>2021-07-18T12:06:11Z</time>
      </trkpt>
      <trkpt lat="43.51343" lon="-1.52605">
        <ele>8.4</ele>
        <time>2021-07-18T12:06:13Z</time>
      </trkpt>
      <trkpt lat="43.51346" lon="-1.52604">
        <ele>8.6</ele>
        <time>2021-07-18T12:06:14Z</time>
      </trkpt>
      <trkpt lat="43.51347" lon="-1.52603">
        <ele>8.6</ele>
        <time>2021-07-18T12:06:15Z</time>
      </trkpt>
      <trkpt lat="43.51352" lon="-1.52602">
        <ele>8.8</ele>
        <time>2021-07-18T12:06:17Z</time>
      </trkpt>
      <trkpt lat="43.51353" lon="-1.52601">
        <ele>8.9</ele>
        <time>2021-07-18T12:06:18Z</time>
      </trkpt>
      <trkpt lat="43.51357" lon="-1.52598">
        <ele>9.1</ele>
        <time>2021-07-18T12:06:20Z</time>
      </trkpt>
      <trkpt lat="43.51361" lon="-1.52595">
        <ele>9.3</ele>
        <time>2021-07-18T12:06:22Z</time>
      </trkpt>
      <trkpt lat="43.51364" lon="-1.52592">
        <ele>9.5</ele>
        <time>2021-07-18T12:06:24Z</time>
      </trkpt>
      <trkpt lat="43.51366" lon="-1.5259">
        <ele>9.6</ele>
        <time>2021-07-18T12:06:25Z</time>
      </trkpt>
      <trkpt lat="43.5137" lon="-1.52586">
        <ele>9.8</ele>
        <time>2021-07-18T12:06:27Z</time>
      </trkpt>
      <trkpt lat="43.51372" lon="-1.52583">
        <ele>9.9</ele>
        <time>2021-07-18T12:06:28Z</time>
      </trkpt>
      <trkpt lat="43.51373" lon="-1.52581">
        <ele>10</ele>
        <time>2021-07-18T12:06:29Z</time>
      </trkpt>
      <trkpt lat="43.51376" lon="-1.52576">
        <ele>10.2</ele>
        <time>2021-07-18T12:06:31Z</time>
      </trkpt>
      <trkpt lat="43.5138" lon="-1.52571">
        <ele>10.3</ele>
        <time>2021-07-18T12:06:33Z</time>
      </trkpt>
      <trkpt lat="43.51383" lon="-1.52567">
        <ele>10.4</ele>
        <time>2021-07-18T12:06:35Z</time>
      </trkpt>
      <trkpt lat="43.51388" lon="-1.52563">
        <ele>10.6</ele>
        <time>2021-07-18T12:06:37Z</time>
      </trkpt>
      <trkpt lat="43.51392" lon="-1.52558">
        <ele>10.7</ele>
        <time>2021-07-18T12:06:39Z</time>
      </trkpt>
      <trkpt lat="43.51394" lon="-1.52556">
        <ele>10.7</ele>
        <time>2021-07-18T12:06:40Z</time>
      </trkpt>
      <trkpt lat="43.51399" lon="-1.52551">
        <ele>10.8</ele>
        <time>2021-07-18T12:06:42Z</time>
      </trkpt>
      <trkpt lat="43.51401" lon="-1.52549">
        <ele>10.8</ele>
        <time>2021-07-18T12:06:43Z</time>
      </trkpt>
      <trkpt lat="43.51404" lon="-1.52547">
        <ele>10.9</ele>
        <time>2021-07-18T12:06:44Z</time>
      </trkpt>
      <trkpt lat="43.51406" lon="-1.52543">
        <ele>10.9</ele>
        <time>2021-07-18T12:06:45Z</time>
      </trkpt>
      <trkpt lat="43.51412" lon="-1.52538">
        <ele>10.9</ele>
        <time>2021-07-18T12:06:47Z</time>
      </trkpt>
      <trkpt lat="43.51414" lon="-1.52536">
        <ele>11</ele>
        <time>2021-07-18T12:06:48Z</time>
      </trkpt>
      <trkpt lat="43.5142" lon="-1.52531">
        <ele>11</ele>
        <time>2021-07-18T12:06:50Z</time>
      </trkpt>
      <trkpt lat="43.51424" lon="-1.52526">
        <ele>11</ele>
        <time>2021-07-18T12:06:52Z</time>
      </trkpt>
      <trkpt lat="43.51427" lon="-1.52523">
        <ele>11</ele>
        <time>2021-07-18T12:06:53Z</time>
      </trkpt>
      <trkpt lat="43.51433" lon="-1.52518">
        <ele>11</ele>
        <time>2021-07-18T12:06:55Z</time>
      </trkpt>
      <trkpt lat="43.51436" lon="-1.52515">
        <ele>11</ele>
        <time>2021-07-18T12:06:56Z</time>
      </trkpt>
      <trkpt lat="43.5144" lon="-1.52513">
        <ele>11</ele>
        <time>2021-07-18T12:06:57Z</time>
      </trkpt>
      <trkpt lat="43.51444" lon="-1.5251">
        <ele>10.9</ele>
        <time>2021-07-18T12:06:58Z</time>
      </trkpt>
      <trkpt lat="43.51447" lon="-1.52508">
        <ele>10.9</ele>
        <time>2021-07-18T12:06:59Z</time>
      </trkpt>
      <trkpt lat="43.5145" lon="-1.52505">
        <ele>10.9</ele>
        <time>2021-07-18T12:07:00Z</time>
      </trkpt>
      <trkpt lat="43.51455" lon="-1.52503">
        <ele>10.8</ele>
        <time>2021-07-18T12:07:02Z</time>
      </trkpt>
      <trkpt lat="43.51459" lon="-1.525">
        <ele>10.8</ele>
        <time>2021-07-18T12:07:03Z</time>
      </trkpt>
      <trkpt lat="43.51464" lon="-1.52496">
        <ele>10.7</ele>
        <time>2021-07-18T12:07:04Z</time>
      </trkpt>
      <trkpt lat="43.51467" lon="-1.52494">
        <ele>10.7</ele>
        <time>2021-07-18T12:07:05Z</time>
      </trkpt>
      <trkpt lat="43.51471" lon="-1.52492">
        <ele>10.6</ele>
        <time>2021-07-18T12:07:06Z</time>
      </trkpt>
      <trkpt lat="43.51478" lon="-1.52488">
        <ele>10.5</ele>
        <time>2021-07-18T12:07:08Z</time>
      </trkpt>
      <trkpt lat="43.51483" lon="-1.52485">
        <ele>10.4</ele>
        <time>2021-07-18T12:07:09Z</time>
      </trkpt>
      <trkpt lat="43.51488" lon="-1.52482">
        <ele>10.3</ele>
        <time>2021-07-18T12:07:10Z</time>
      </trkpt>
      <trkpt lat="43.51493" lon="-1.52479">
        <ele>10.2</ele>
        <time>2021-07-18T12:07:11Z</time>
      </trkpt>
      <trkpt lat="43.51498" lon="-1.52476">
        <ele>10.1</ele>
        <time>2021-07-18T12:07:12Z</time>
      </trkpt>
      <trkpt lat="43.51503" lon="-1.52474">
        <ele>9.9</ele>
        <time>2021-07-18T12:07:13Z</time>
      </trkpt>
      <trkpt lat="43.51513" lon="-1.52469">
        <ele>9.8</ele>
        <time>2021-07-18T12:07:15Z</time>
      </trkpt>
      <trkpt lat="43.51518" lon="-1.52466">
        <ele>9.7</ele>
        <time>2021-07-18T12:07:16Z</time>
      </trkpt>
      <trkpt lat="43.51523" lon="-1.52463">
        <ele>9.7</ele>
        <time>2021-07-18T12:07:17Z</time>
      </trkpt>
      <trkpt lat="43.51534" lon="-1.52458">
        <ele>9.6</ele>
        <time>2021-07-18T12:07:19Z</time>
      </trkpt>
      <trkpt lat="43.51539" lon="-1.52456">
        <ele>9.6</ele>
        <time>2021-07-18T12:07:20Z</time>
      </trkpt>
      <trkpt lat="43.51544" lon="-1.52453">
        <ele>9.7</ele>
        <time>2021-07-18T12:07:21Z</time>
      </trkpt>
      <trkpt lat="43.51549" lon="-1.52451">
        <ele>9.7</ele>
        <time>2021-07-18T12:07:22Z</time>
      </trkpt>
      <trkpt lat="43.51558" lon="-1.52445">
        <ele>9.8</ele>
        <time>2021-07-18T12:07:24Z</time>
      </trkpt>
      <trkpt lat="43.51563" lon="-1.52442">
        <ele>9.8</ele>
        <time>2021-07-18T12:07:25Z</time>
      </trkpt>
      <trkpt lat="43.51571" lon="-1.52437">
        <ele>9.9</ele>
        <time>2021-07-18T12:07:27Z</time>
      </trkpt>
      <trkpt lat="43.51576" lon="-1.52433">
        <ele>9.9</ele>
        <time>2021-07-18T12:07:28Z</time>
      </trkpt>
      <trkpt lat="43.5158" lon="-1.5243">
        <ele>10</ele>
        <time>2021-07-18T12:07:29Z</time>
      </trkpt>
      <trkpt lat="43.51588" lon="-1.52424">
        <ele>10</ele>
        <time>2021-07-18T12:07:31Z</time>
      </trkpt>
      <trkpt lat="43.51594" lon="-1.5242">
        <ele>10.1</ele>
        <time>2021-07-18T12:07:33Z</time>
      </trkpt>
      <trkpt lat="43.51598" lon="-1.52418">
        <ele>10.1</ele>
        <time>2021-07-18T12:07:34Z</time>
      </trkpt>
      <trkpt lat="43.51602" lon="-1.52415">
        <ele>10.1</ele>
        <time>2021-07-18T12:07:35Z</time>
      </trkpt>
      <trkpt lat="43.51608" lon="-1.52407">
        <ele>10.1</ele>
        <time>2021-07-18T12:07:37Z</time>
      </trkpt>
      <trkpt lat="43.51615" lon="-1.52402">
        <ele>10</ele>
        <time>2021-07-18T12:07:38Z</time>
      </trkpt>
      <trkpt lat="43.51618" lon="-1.524">
        <ele>10</ele>
        <time>2021-07-18T12:07:39Z</time>
      </trkpt>
      <trkpt lat="43.51624" lon="-1.52394">
        <ele>10</ele>
        <time>2021-07-18T12:07:41Z</time>
      </trkpt>
      <trkpt lat="43.51628" lon="-1.52389">
        <ele>10</ele>
        <time>2021-07-18T12:07:42Z</time>
      </trkpt>
      <trkpt lat="43.51632" lon="-1.52386">
        <ele>10</ele>
        <time>2021-07-18T12:07:43Z</time>
      </trkpt>
      <trkpt lat="43.51636" lon="-1.52383">
        <ele>9.9</ele>
        <time>2021-07-18T12:07:44Z</time>
      </trkpt>
      <trkpt lat="43.51645" lon="-1.52378">
        <ele>9.9</ele>
        <time>2021-07-18T12:07:46Z</time>
      </trkpt>
      <trkpt lat="43.51654" lon="-1.52374">
        <ele>9.9</ele>
        <time>2021-07-18T12:07:48Z</time>
      </trkpt>
      <trkpt lat="43.51658" lon="-1.52371">
        <ele>9.8</ele>
        <time>2021-07-18T12:07:49Z</time>
      </trkpt>
      <trkpt lat="43.51662" lon="-1.5237">
        <ele>9.8</ele>
        <time>2021-07-18T12:07:50Z</time>
      </trkpt>
      <trkpt lat="43.51672" lon="-1.5237">
        <ele>9.8</ele>
        <time>2021-07-18T12:07:52Z</time>
      </trkpt>
      <trkpt lat="43.51679" lon="-1.52365">
        <ele>9.8</ele>
        <time>2021-07-18T12:07:54Z</time>
      </trkpt>
      <trkpt lat="43.51683" lon="-1.52361">
        <ele>9.8</ele>
        <time>2021-07-18T12:07:55Z</time>
      </trkpt>
      <trkpt lat="43.51688" lon="-1.52358">
        <ele>9.8</ele>
        <time>2021-07-18T12:07:56Z</time>
      </trkpt>
      <trkpt lat="43.51697" lon="-1.52355">
        <ele>9.7</ele>
        <time>2021-07-18T12:07:58Z</time>
      </trkpt>
      <trkpt lat="43.51701" lon="-1.52355">
        <ele>9.7</ele>
        <time>2021-07-18T12:07:59Z</time>
      </trkpt>
      <trkpt lat="43.51706" lon="-1.52354">
        <ele>9.7</ele>
        <time>2021-07-18T12:08:00Z</time>
      </trkpt>
      <trkpt lat="43.51711" lon="-1.52354">
        <ele>9.7</ele>
        <time>2021-07-18T12:08:01Z</time>
      </trkpt>
      <trkpt lat="43.51716" lon="-1.52354">
        <ele>9.8</ele>
        <time>2021-07-18T12:08:02Z</time>
      </trkpt>
      <trkpt lat="43.5172" lon="-1.52354">
        <ele>9.8</ele>
        <time>2021-07-18T12:08:03Z</time>
      </trkpt>
      <trkpt lat="43.51729" lon="-1.52353">
        <ele>9.9</ele>
        <time>2021-07-18T12:08:05Z</time>
      </trkpt>
      <trkpt lat="43.51734" lon="-1.52353">
        <ele>9.9</ele>
        <time>2021-07-18T12:08:06Z</time>
      </trkpt>
      <trkpt lat="43.51738" lon="-1.52354">
        <ele>9.9</ele>
        <time>2021-07-18T12:08:07Z</time>
      </trkpt>
      <trkpt lat="43.51741" lon="-1.52355">
        <ele>10</ele>
        <time>2021-07-18T12:08:08Z</time>
      </trkpt>
      <trkpt lat="43.5175" lon="-1.52354">
        <ele>10</ele>
        <time>2021-07-18T12:08:10Z</time>
      </trkpt>
      <trkpt lat="43.51758" lon="-1.52354">
        <ele>10.1</ele>
        <time>2021-07-18T12:08:12Z</time>
      </trkpt>
      <trkpt lat="43.51763" lon="-1.52354">
        <ele>10.2</ele>
        <time>2021-07-18T12:08:13Z</time>
      </trkpt>
      <trkpt lat="43.5177" lon="-1.52356">
        <ele>10.3</ele>
        <time>2021-07-18T12:08:15Z</time>
      </trkpt>
      <trkpt lat="43.51775" lon="-1.52357">
        <ele>10.4</ele>
        <time>2021-07-18T12:08:16Z</time>
      </trkpt>
      <trkpt lat="43.5178" lon="-1.52359">
        <ele>10.4</ele>
        <time>2021-07-18T12:08:18Z</time>
      </trkpt>
      <trkpt lat="43.51786" lon="-1.52361">
        <ele>10.5</ele>
        <time>2021-07-18T12:08:19Z</time>
      </trkpt>
      <trkpt lat="43.51789" lon="-1.52363">
        <ele>10.6</ele>
        <time>2021-07-18T12:08:20Z</time>
      </trkpt>
      <trkpt lat="43.51793" lon="-1.52364">
        <ele>10.6</ele>
        <time>2021-07-18T12:08:21Z</time>
      </trkpt>
      <trkpt lat="43.51798" lon="-1.52367">
        <ele>10.7</ele>
        <time>2021-07-18T12:08:23Z</time>
      </trkpt>
      <trkpt lat="43.51801" lon="-1.52371">
        <ele>10.8</ele>
        <time>2021-07-18T12:08:24Z</time>
      </trkpt>
      <trkpt lat="43.51804" lon="-1.52373">
        <ele>10.9</ele>
        <time>2021-07-18T12:08:25Z</time>
      </trkpt>
      <trkpt lat="43.51806" lon="-1.52377">
        <ele>10.9</ele>
        <time>2021-07-18T12:08:26Z</time>
      </trkpt>
      <trkpt lat="43.51809" lon="-1.52382">
        <ele>11</ele>
        <time>2021-07-18T12:08:28Z</time>
      </trkpt>
      <trkpt lat="43.51811" lon="-1.52387">
        <ele>11.1</ele>
        <time>2021-07-18T12:08:29Z</time>
      </trkpt>
      <trkpt lat="43.51816" lon="-1.52389">
        <ele>11.1</ele>
        <time>2021-07-18T12:08:30Z</time>
      </trkpt>
      <trkpt lat="43.5182" lon="-1.5239">
        <ele>11.2</ele>
        <time>2021-07-18T12:08:32Z</time>
      </trkpt>
      <trkpt lat="43.51825" lon="-1.5239">
        <ele>11.2</ele>
        <time>2021-07-18T12:08:33Z</time>
      </trkpt>
      <trkpt lat="43.5183" lon="-1.52388">
        <ele>11.2</ele>
        <time>2021-07-18T12:08:34Z</time>
      </trkpt>
      <trkpt lat="43.51834" lon="-1.52388">
        <ele>11.2</ele>
        <time>2021-07-18T12:08:35Z</time>
      </trkpt>
      <trkpt lat="43.51838" lon="-1.52389">
        <ele>11.2</ele>
        <time>2021-07-18T12:08:37Z</time>
      </trkpt>
      <trkpt lat="43.51843" lon="-1.52391">
        <ele>11.2</ele>
        <time>2021-07-18T12:08:38Z</time>
      </trkpt>
      <trkpt lat="43.51848" lon="-1.52392">
        <ele>11.2</ele>
        <time>2021-07-18T12:08:39Z</time>
      </trkpt>
      <trkpt lat="43.51853" lon="-1.52393">
        <ele>11.2</ele>
        <time>2021-07-18T12:08:40Z</time>
      </trkpt>
      <trkpt lat="43.51861" lon="-1.52394">
        <ele>11.2</ele>
        <time>2021-07-18T12:08:42Z</time>
      </trkpt>
      <trkpt lat="43.5187" lon="-1.52395">
        <ele>11.1</ele>
        <time>2021-07-18T12:08:44Z</time>
      </trkpt>
      <trkpt lat="43.51874" lon="-1.52394">
        <ele>11.1</ele>
        <time>2021-07-18T12:08:45Z</time>
      </trkpt>
      <trkpt lat="43.51879" lon="-1.52394">
        <ele>11.1</ele>
        <time>2021-07-18T12:08:46Z</time>
      </trkpt>
      <trkpt lat="43.51883" lon="-1.52393">
        <ele>11.1</ele>
        <time>2021-07-18T12:08:47Z</time>
      </trkpt>
      <trkpt lat="43.51891" lon="-1.52393">
        <ele>11.1</ele>
        <time>2021-07-18T12:08:49Z</time>
      </trkpt>
      <trkpt lat="43.51895" lon="-1.52392">
        <ele>11</ele>
        <time>2021-07-18T12:08:50Z</time>
      </trkpt>
      <trkpt lat="43.51902" lon="-1.52391">
        <ele>11</ele>
        <time>2021-07-18T12:08:52Z</time>
      </trkpt>
      <trkpt lat="43.51907" lon="-1.52389">
        <ele>11</ele>
        <time>2021-07-18T12:08:53Z</time>
      </trkpt>
      <trkpt lat="43.51912" lon="-1.52387">
        <ele>11</ele>
        <time>2021-07-18T12:08:54Z</time>
      </trkpt>
      <trkpt lat="43.5192" lon="-1.52382">
        <ele>10.9</ele>
        <time>2021-07-18T12:08:56Z</time>
      </trkpt>
      <trkpt lat="43.51929" lon="-1.52377">
        <ele>10.8</ele>
        <time>2021-07-18T12:08:58Z</time>
      </trkpt>
      <trkpt lat="43.51933" lon="-1.52375">
        <ele>10.8</ele>
        <time>2021-07-18T12:08:59Z</time>
      </trkpt>
      <trkpt lat="43.51938" lon="-1.52372">
        <ele>10.7</ele>
        <time>2021-07-18T12:09:00Z</time>
      </trkpt>
      <trkpt lat="43.51946" lon="-1.52365">
        <ele>10.6</ele>
        <time>2021-07-18T12:09:02Z</time>
      </trkpt>
      <trkpt lat="43.51954" lon="-1.52358">
        <ele>10.5</ele>
        <time>2021-07-18T12:09:04Z</time>
      </trkpt>
      <trkpt lat="43.51959" lon="-1.52354">
        <ele>10.4</ele>
        <time>2021-07-18T12:09:05Z</time>
      </trkpt>
      <trkpt lat="43.51963" lon="-1.52351">
        <ele>10.4</ele>
        <time>2021-07-18T12:09:06Z</time>
      </trkpt>
      <trkpt lat="43.51968" lon="-1.52348">
        <ele>10.3</ele>
        <time>2021-07-18T12:09:07Z</time>
      </trkpt>
      <trkpt lat="43.51976" lon="-1.52339">
        <ele>10.2</ele>
        <time>2021-07-18T12:09:09Z</time>
      </trkpt>
      <trkpt lat="43.5198" lon="-1.52334">
        <ele>10.1</ele>
        <time>2021-07-18T12:09:10Z</time>
      </trkpt>
      <trkpt lat="43.51984" lon="-1.52329">
        <ele>10</ele>
        <time>2021-07-18T12:09:11Z</time>
      </trkpt>
      <trkpt lat="43.51988" lon="-1.52324">
        <ele>9.9</ele>
        <time>2021-07-18T12:09:12Z</time>
      </trkpt>
      <trkpt lat="43.51992" lon="-1.52319">
        <ele>9.8</ele>
        <time>2021-07-18T12:09:13Z</time>
      </trkpt>
      <trkpt lat="43.52" lon="-1.52311">
        <ele>9.6</ele>
        <time>2021-07-18T12:09:15Z</time>
      </trkpt>
      <trkpt lat="43.52009" lon="-1.52303">
        <ele>9.4</ele>
        <time>2021-07-18T12:09:17Z</time>
      </trkpt>
      <trkpt lat="43.52014" lon="-1.52298">
        <ele>9.3</ele>
        <time>2021-07-18T12:09:18Z</time>
      </trkpt>
      <trkpt lat="43.52023" lon="-1.52289">
        <ele>9.1</ele>
        <time>2021-07-18T12:09:20Z</time>
      </trkpt>
      <trkpt lat="43.52027" lon="-1.52284">
        <ele>8.9</ele>
        <time>2021-07-18T12:09:21Z</time>
      </trkpt>
      <trkpt lat="43.52031" lon="-1.52279">
        <ele>8.8</ele>
        <time>2021-07-18T12:09:22Z</time>
      </trkpt>
      <trkpt lat="43.52036" lon="-1.52274">
        <ele>8.7</ele>
        <time>2021-07-18T12:09:23Z</time>
      </trkpt>
      <trkpt lat="43.52045" lon="-1.52265">
        <ele>8.4</ele>
        <time>2021-07-18T12:09:25Z</time>
      </trkpt>
      <trkpt lat="43.5205" lon="-1.5226">
        <ele>8.3</ele>
        <time>2021-07-18T12:09:26Z</time>
      </trkpt>
      <trkpt lat="43.52055" lon="-1.52255">
        <ele>8.2</ele>
        <time>2021-07-18T12:09:27Z</time>
      </trkpt>
      <trkpt lat="43.52064" lon="-1.52246">
        <ele>7.9</ele>
        <time>2021-07-18T12:09:29Z</time>
      </trkpt>
      <trkpt lat="43.52073" lon="-1.52235">
        <ele>7.7</ele>
        <time>2021-07-18T12:09:31Z</time>
      </trkpt>
      <trkpt lat="43.52078" lon="-1.52231">
        <ele>7.6</ele>
        <time>2021-07-18T12:09:32Z</time>
      </trkpt>
      <trkpt lat="43.52087" lon="-1.52221">
        <ele>7.4</ele>
        <time>2021-07-18T12:09:34Z</time>
      </trkpt>
      <trkpt lat="43.52095" lon="-1.52211">
        <ele>7.2</ele>
        <time>2021-07-18T12:09:36Z</time>
      </trkpt>
      <trkpt lat="43.521" lon="-1.52207">
        <ele>7.2</ele>
        <time>2021-07-18T12:09:37Z</time>
      </trkpt>
      <trkpt lat="43.52104" lon="-1.52202">
        <ele>7.1</ele>
        <time>2021-07-18T12:09:38Z</time>
      </trkpt>
      <trkpt lat="43.52109" lon="-1.52198">
        <ele>7</ele>
        <time>2021-07-18T12:09:39Z</time>
      </trkpt>
      <trkpt lat="43.52117" lon="-1.52189">
        <ele>6.9</ele>
        <time>2021-07-18T12:09:41Z</time>
      </trkpt>
      <trkpt lat="43.52126" lon="-1.5218">
        <ele>6.8</ele>
        <time>2021-07-18T12:09:43Z</time>
      </trkpt>
      <trkpt lat="43.5213" lon="-1.52176">
        <ele>6.7</ele>
        <time>2021-07-18T12:09:44Z</time>
      </trkpt>
      <trkpt lat="43.52134" lon="-1.52171">
        <ele>6.6</ele>
        <time>2021-07-18T12:09:45Z</time>
      </trkpt>
      <trkpt lat="43.52143" lon="-1.52162">
        <ele>6.4</ele>
        <time>2021-07-18T12:09:47Z</time>
      </trkpt>
      <trkpt lat="43.52148" lon="-1.52158">
        <ele>6.3</ele>
        <time>2021-07-18T12:09:48Z</time>
      </trkpt>
      <trkpt lat="43.52152" lon="-1.52154">
        <ele>6.2</ele>
        <time>2021-07-18T12:09:49Z</time>
      </trkpt>
      <trkpt lat="43.52157" lon="-1.52149">
        <ele>6.2</ele>
        <time>2021-07-18T12:09:50Z</time>
      </trkpt>
      <trkpt lat="43.52166" lon="-1.52139">
        <ele>6.1</ele>
        <time>2021-07-18T12:09:52Z</time>
      </trkpt>
      <trkpt lat="43.52171" lon="-1.52135">
        <ele>6</ele>
        <time>2021-07-18T12:09:53Z</time>
      </trkpt>
      <trkpt lat="43.5218" lon="-1.52126">
        <ele>6</ele>
        <time>2021-07-18T12:09:55Z</time>
      </trkpt>
      <trkpt lat="43.52189" lon="-1.52117">
        <ele>6</ele>
        <time>2021-07-18T12:09:57Z</time>
      </trkpt>
      <trkpt lat="43.52193" lon="-1.52113">
        <ele>6.1</ele>
        <time>2021-07-18T12:09:58Z</time>
      </trkpt>
      <trkpt lat="43.52197" lon="-1.52108">
        <ele>6.1</ele>
        <time>2021-07-18T12:09:59Z</time>
      </trkpt>
      <trkpt lat="43.52201" lon="-1.52104">
        <ele>6.1</ele>
        <time>2021-07-18T12:10:00Z</time>
      </trkpt>
      <trkpt lat="43.52209" lon="-1.52095">
        <ele>6.2</ele>
        <time>2021-07-18T12:10:02Z</time>
      </trkpt>
      <trkpt lat="43.52218" lon="-1.52086">
        <ele>6.3</ele>
        <time>2021-07-18T12:10:04Z</time>
      </trkpt>
      <trkpt lat="43.52225" lon="-1.52078">
        <ele>6.3</ele>
        <time>2021-07-18T12:10:06Z</time>
      </trkpt>
      <trkpt lat="43.52229" lon="-1.52074">
        <ele>6.4</ele>
        <time>2021-07-18T12:10:07Z</time>
      </trkpt>
      <trkpt lat="43.52236" lon="-1.52066">
        <ele>6.5</ele>
        <time>2021-07-18T12:10:09Z</time>
      </trkpt>
      <trkpt lat="43.52243" lon="-1.52058">
        <ele>6.6</ele>
        <time>2021-07-18T12:10:11Z</time>
      </trkpt>
      <trkpt lat="43.52246" lon="-1.52055">
        <ele>6.7</ele>
        <time>2021-07-18T12:10:12Z</time>
      </trkpt>
      <trkpt lat="43.52252" lon="-1.52047">
        <ele>6.7</ele>
        <time>2021-07-18T12:10:14Z</time>
      </trkpt>
      <trkpt lat="43.52256" lon="-1.52043">
        <ele>6.8</ele>
        <time>2021-07-18T12:10:15Z</time>
      </trkpt>
      <trkpt lat="43.5226" lon="-1.5204">
        <ele>6.8</ele>
        <time>2021-07-18T12:10:16Z</time>
      </trkpt>
      <trkpt lat="43.52268" lon="-1.52032">
        <ele>6.8</ele>
        <time>2021-07-18T12:10:18Z</time>
      </trkpt>
      <trkpt lat="43.52272" lon="-1.52028">
        <ele>6.9</ele>
        <time>2021-07-18T12:10:19Z</time>
      </trkpt>
      <trkpt lat="43.52273" lon="-1.52027">
        <ele>6.9</ele>
        <time>2021-07-18T12:10:20Z</time>
      </trkpt>
      <trkpt lat="43.52279" lon="-1.5202">
        <ele>6.9</ele>
        <time>2021-07-18T12:10:22Z</time>
      </trkpt>
      <trkpt lat="43.52283" lon="-1.52015">
        <ele>6.9</ele>
        <time>2021-07-18T12:10:23Z</time>
      </trkpt>
      <trkpt lat="43.52288" lon="-1.52011">
        <ele>6.9</ele>
        <time>2021-07-18T12:10:24Z</time>
      </trkpt>
      <trkpt lat="43.52292" lon="-1.52008">
        <ele>6.9</ele>
        <time>2021-07-18T12:10:25Z</time>
      </trkpt>
      <trkpt lat="43.52296" lon="-1.52005">
        <ele>7</ele>
        <time>2021-07-18T12:10:26Z</time>
      </trkpt>
      <trkpt lat="43.52303" lon="-1.51996">
        <ele>7</ele>
        <time>2021-07-18T12:10:28Z</time>
      </trkpt>
      <trkpt lat="43.52307" lon="-1.51993">
        <ele>7</ele>
        <time>2021-07-18T12:10:29Z</time>
      </trkpt>
      <trkpt lat="43.52314" lon="-1.51984">
        <ele>7</ele>
        <time>2021-07-18T12:10:31Z</time>
      </trkpt>
      <trkpt lat="43.52318" lon="-1.5198">
        <ele>7</ele>
        <time>2021-07-18T12:10:32Z</time>
      </trkpt>
      <trkpt lat="43.52325" lon="-1.51972">
        <ele>7</ele>
        <time>2021-07-18T12:10:34Z</time>
      </trkpt>
      <trkpt lat="43.5233" lon="-1.51968">
        <ele>7</ele>
        <time>2021-07-18T12:10:35Z</time>
      </trkpt>
      <trkpt lat="43.52338" lon="-1.5196">
        <ele>7</ele>
        <time>2021-07-18T12:10:37Z</time>
      </trkpt>
      <trkpt lat="43.52346" lon="-1.51952">
        <ele>7</ele>
        <time>2021-07-18T12:10:39Z</time>
      </trkpt>
      <trkpt lat="43.52353" lon="-1.51944">
        <ele>7</ele>
        <time>2021-07-18T12:10:41Z</time>
      </trkpt>
      <trkpt lat="43.5236" lon="-1.51935">
        <ele>7</ele>
        <time>2021-07-18T12:10:43Z</time>
      </trkpt>
      <trkpt lat="43.52365" lon="-1.51932">
        <ele>7</ele>
        <time>2021-07-18T12:10:44Z</time>
      </trkpt>
      <trkpt lat="43.52372" lon="-1.51925">
        <ele>6.9</ele>
        <time>2021-07-18T12:10:46Z</time>
      </trkpt>
      <trkpt lat="43.52375" lon="-1.51922">
        <ele>6.9</ele>
        <time>2021-07-18T12:10:47Z</time>
      </trkpt>
      <trkpt lat="43.52379" lon="-1.51918">
        <ele>6.9</ele>
        <time>2021-07-18T12:10:48Z</time>
      </trkpt>
      <trkpt lat="43.52388" lon="-1.51909">
        <ele>6.9</ele>
        <time>2021-07-18T12:10:50Z</time>
      </trkpt>
      <trkpt lat="43.52392" lon="-1.51904">
        <ele>6.8</ele>
        <time>2021-07-18T12:10:51Z</time>
      </trkpt>
      <trkpt lat="43.524" lon="-1.51896">
        <ele>6.8</ele>
        <time>2021-07-18T12:10:53Z</time>
      </trkpt>
      <trkpt lat="43.52404" lon="-1.51892">
        <ele>6.8</ele>
        <time>2021-07-18T12:10:54Z</time>
      </trkpt>
      <trkpt lat="43.52408" lon="-1.51888">
        <ele>6.8</ele>
        <time>2021-07-18T12:10:55Z</time>
      </trkpt>
      <trkpt lat="43.52416" lon="-1.51879">
        <ele>6.7</ele>
        <time>2021-07-18T12:10:57Z</time>
      </trkpt>
      <trkpt lat="43.52424" lon="-1.51871">
        <ele>6.7</ele>
        <time>2021-07-18T12:10:59Z</time>
      </trkpt>
      <trkpt lat="43.52431" lon="-1.51864">
        <ele>6.8</ele>
        <time>2021-07-18T12:11:01Z</time>
      </trkpt>
      <trkpt lat="43.52439" lon="-1.51856">
        <ele>6.9</ele>
        <time>2021-07-18T12:11:03Z</time>
      </trkpt>
      <trkpt lat="43.52443" lon="-1.51852">
        <ele>6.9</ele>
        <time>2021-07-18T12:11:04Z</time>
      </trkpt>
      <trkpt lat="43.5245" lon="-1.51845">
        <ele>7</ele>
        <time>2021-07-18T12:11:06Z</time>
      </trkpt>
      <trkpt lat="43.52456" lon="-1.51838">
        <ele>7.1</ele>
        <time>2021-07-18T12:11:08Z</time>
      </trkpt>
      <trkpt lat="43.5246" lon="-1.51835">
        <ele>7.2</ele>
        <time>2021-07-18T12:11:09Z</time>
      </trkpt>
      <trkpt lat="43.52463" lon="-1.51832">
        <ele>7.3</ele>
        <time>2021-07-18T12:11:10Z</time>
      </trkpt>
      <trkpt lat="43.52469" lon="-1.51825">
        <ele>7.4</ele>
        <time>2021-07-18T12:11:12Z</time>
      </trkpt>
      <trkpt lat="43.52473" lon="-1.51822">
        <ele>7.5</ele>
        <time>2021-07-18T12:11:13Z</time>
      </trkpt>
      <trkpt lat="43.52478" lon="-1.51816">
        <ele>7.7</ele>
        <time>2021-07-18T12:11:15Z</time>
      </trkpt>
      <trkpt lat="43.52481" lon="-1.51813">
        <ele>7.7</ele>
        <time>2021-07-18T12:11:16Z</time>
      </trkpt>
      <trkpt lat="43.52484" lon="-1.5181">
        <ele>7.8</ele>
        <time>2021-07-18T12:11:17Z</time>
      </trkpt>
      <trkpt lat="43.52488" lon="-1.51807">
        <ele>7.9</ele>
        <time>2021-07-18T12:11:18Z</time>
      </trkpt>
      <trkpt lat="43.52492" lon="-1.51803">
        <ele>8</ele>
        <time>2021-07-18T12:11:19Z</time>
      </trkpt>
      <trkpt lat="43.52496" lon="-1.51799">
        <ele>8.1</ele>
        <time>2021-07-18T12:11:21Z</time>
      </trkpt>
      <trkpt lat="43.52499" lon="-1.51795">
        <ele>8.1</ele>
        <time>2021-07-18T12:11:22Z</time>
      </trkpt>
      <trkpt lat="43.52503" lon="-1.51791">
        <ele>8.2</ele>
        <time>2021-07-18T12:11:23Z</time>
      </trkpt>
      <trkpt lat="43.52507" lon="-1.51787">
        <ele>8.3</ele>
        <time>2021-07-18T12:11:25Z</time>
      </trkpt>
      <trkpt lat="43.52512" lon="-1.51783">
        <ele>8.4</ele>
        <time>2021-07-18T12:11:26Z</time>
      </trkpt>
      <trkpt lat="43.52516" lon="-1.51777">
        <ele>8.4</ele>
        <time>2021-07-18T12:11:28Z</time>
      </trkpt>
      <trkpt lat="43.5252" lon="-1.51773">
        <ele>8.5</ele>
        <time>2021-07-18T12:11:29Z</time>
      </trkpt>
      <trkpt lat="43.52524" lon="-1.51769">
        <ele>8.5</ele>
        <time>2021-07-18T12:11:30Z</time>
      </trkpt>
      <trkpt lat="43.52527" lon="-1.51764">
        <ele>8.6</ele>
        <time>2021-07-18T12:11:31Z</time>
      </trkpt>
      <trkpt lat="43.52531" lon="-1.5176">
        <ele>8.6</ele>
        <time>2021-07-18T12:11:33Z</time>
      </trkpt>
      <trkpt lat="43.52534" lon="-1.51757">
        <ele>8.6</ele>
        <time>2021-07-18T12:11:34Z</time>
      </trkpt>
      <trkpt lat="43.52539" lon="-1.51754">
        <ele>8.6</ele>
        <time>2021-07-18T12:11:35Z</time>
      </trkpt>
      <trkpt lat="43.52542" lon="-1.51751">
        <ele>8.6</ele>
        <time>2021-07-18T12:11:36Z</time>
      </trkpt>
      <trkpt lat="43.52546" lon="-1.51749">
        <ele>8.6</ele>
        <time>2021-07-18T12:11:37Z</time>
      </trkpt>
      <trkpt lat="43.52551" lon="-1.51744">
        <ele>8.6</ele>
        <time>2021-07-18T12:11:39Z</time>
      </trkpt>
      <trkpt lat="43.52555" lon="-1.51739">
        <ele>8.5</ele>
        <time>2021-07-18T12:11:40Z</time>
      </trkpt>
      <trkpt lat="43.5256" lon="-1.51733">
        <ele>8.5</ele>
        <time>2021-07-18T12:11:42Z</time>
      </trkpt>
      <trkpt lat="43.52564" lon="-1.51728">
        <ele>8.4</ele>
        <time>2021-07-18T12:11:43Z</time>
      </trkpt>
      <trkpt lat="43.52569" lon="-1.51725">
        <ele>8.3</ele>
        <time>2021-07-18T12:11:44Z</time>
      </trkpt>
      <trkpt lat="43.52573" lon="-1.51723">
        <ele>8.3</ele>
        <time>2021-07-18T12:11:45Z</time>
      </trkpt>
      <trkpt lat="43.52576" lon="-1.51719">
        <ele>8.4</ele>
        <time>2021-07-18T12:11:46Z</time>
      </trkpt>
      <trkpt lat="43.52575" lon="-1.51713">
        <ele>8.5</ele>
        <time>2021-07-18T12:11:48Z</time>
      </trkpt>
      <trkpt lat="43.52573" lon="-1.5171">
        <ele>8.6</ele>
        <time>2021-07-18T12:11:49Z</time>
      </trkpt>
      <trkpt lat="43.52572" lon="-1.51709">
        <ele>8.6</ele>
        <time>2021-07-18T12:11:50Z</time>
      </trkpt>
      <trkpt lat="43.52573" lon="-1.51704">
        <ele>8.6</ele>
        <time>2021-07-18T12:11:51Z</time>
      </trkpt>
      <trkpt lat="43.52573" lon="-1.51702">
        <ele>8.6</ele>
        <time>2021-07-18T12:11:52Z</time>
      </trkpt>
      <trkpt lat="43.52574" lon="-1.51696">
        <ele>8.6</ele>
        <time>2021-07-18T12:11:54Z</time>
      </trkpt>
      <trkpt lat="43.52576" lon="-1.51689">
        <ele>8.6</ele>
        <time>2021-07-18T12:11:55Z</time>
      </trkpt>
      <trkpt lat="43.52578" lon="-1.51684">
        <ele>8.6</ele>
        <time>2021-07-18T12:11:56Z</time>
      </trkpt>
      <trkpt lat="43.52581" lon="-1.5168">
        <ele>8.6</ele>
        <time>2021-07-18T12:11:57Z</time>
      </trkpt>
      <trkpt lat="43.52583" lon="-1.51675">
        <ele>8.6</ele>
        <time>2021-07-18T12:11:58Z</time>
      </trkpt>
      <trkpt lat="43.52586" lon="-1.51667">
        <ele>8.6</ele>
        <time>2021-07-18T12:12:00Z</time>
      </trkpt>
      <trkpt lat="43.52588" lon="-1.51659">
        <ele>8.6</ele>
        <time>2021-07-18T12:12:01Z</time>
      </trkpt>
      <trkpt lat="43.52589" lon="-1.51652">
        <ele>8.7</ele>
        <time>2021-07-18T12:12:03Z</time>
      </trkpt>
      <trkpt lat="43.52589" lon="-1.51647">
        <ele>8.7</ele>
        <time>2021-07-18T12:12:04Z</time>
      </trkpt>
      <trkpt lat="43.52589" lon="-1.51642">
        <ele>8.7</ele>
        <time>2021-07-18T12:12:05Z</time>
      </trkpt>
      <trkpt lat="43.52589" lon="-1.51637">
        <ele>8.7</ele>
        <time>2021-07-18T12:12:06Z</time>
      </trkpt>
      <trkpt lat="43.52589" lon="-1.51627">
        <ele>8.7</ele>
        <time>2021-07-18T12:12:08Z</time>
      </trkpt>
      <trkpt lat="43.52588" lon="-1.51621">
        <ele>8.7</ele>
        <time>2021-07-18T12:12:09Z</time>
      </trkpt>
      <trkpt lat="43.52589" lon="-1.51614">
        <ele>8.7</ele>
        <time>2021-07-18T12:12:10Z</time>
      </trkpt>
      <trkpt lat="43.52589" lon="-1.51608">
        <ele>8.7</ele>
        <time>2021-07-18T12:12:11Z</time>
      </trkpt>
      <trkpt lat="43.52589" lon="-1.51602">
        <ele>8.6</ele>
        <time>2021-07-18T12:12:12Z</time>
      </trkpt>
      <trkpt lat="43.52589" lon="-1.51596">
        <ele>8.6</ele>
        <time>2021-07-18T12:12:13Z</time>
      </trkpt>
      <trkpt lat="43.52591" lon="-1.51583">
        <ele>8.5</ele>
        <time>2021-07-18T12:12:15Z</time>
      </trkpt>
      <trkpt lat="43.52592" lon="-1.51575">
        <ele>8.4</ele>
        <time>2021-07-18T12:12:16Z</time>
      </trkpt>
      <trkpt lat="43.52592" lon="-1.51571">
        <ele>8.4</ele>
        <time>2021-07-18T12:12:17Z</time>
      </trkpt>
      <trkpt lat="43.52594" lon="-1.51558">
        <ele>8.3</ele>
        <time>2021-07-18T12:12:19Z</time>
      </trkpt>
      <trkpt lat="43.52597" lon="-1.51549">
        <ele>8.2</ele>
        <time>2021-07-18T12:12:21Z</time>
      </trkpt>
      <trkpt lat="43.52597" lon="-1.5154">
        <ele>8.1</ele>
        <time>2021-07-18T12:12:22Z</time>
      </trkpt>
      <trkpt lat="43.52597" lon="-1.51529">
        <ele>8</ele>
        <time>2021-07-18T12:12:24Z</time>
      </trkpt>
      <trkpt lat="43.52597" lon="-1.51522">
        <ele>7.9</ele>
        <time>2021-07-18T12:12:25Z</time>
      </trkpt>
      <trkpt lat="43.52597" lon="-1.51512">
        <ele>7.8</ele>
        <time>2021-07-18T12:12:27Z</time>
      </trkpt>
      <trkpt lat="43.52598" lon="-1.51504">
        <ele>7.7</ele>
        <time>2021-07-18T12:12:28Z</time>
      </trkpt>
      <trkpt lat="43.52599" lon="-1.51497">
        <ele>7.6</ele>
        <time>2021-07-18T12:12:29Z</time>
      </trkpt>
      <trkpt lat="43.52599" lon="-1.51488">
        <ele>7.6</ele>
        <time>2021-07-18T12:12:31Z</time>
      </trkpt>
      <trkpt lat="43.52598" lon="-1.51481">
        <ele>7.5</ele>
        <time>2021-07-18T12:12:32Z</time>
      </trkpt>
      <trkpt lat="43.52596" lon="-1.51474">
        <ele>7.5</ele>
        <time>2021-07-18T12:12:33Z</time>
      </trkpt>
      <trkpt lat="43.52593" lon="-1.51467">
        <ele>7.5</ele>
        <time>2021-07-18T12:12:34Z</time>
      </trkpt>
      <trkpt lat="43.52589" lon="-1.5146">
        <ele>7.5</ele>
        <time>2021-07-18T12:12:36Z</time>
      </trkpt>
      <trkpt lat="43.52585" lon="-1.51455">
        <ele>7.4</ele>
        <time>2021-07-18T12:12:37Z</time>
      </trkpt>
      <trkpt lat="43.52582" lon="-1.51449">
        <ele>7.4</ele>
        <time>2021-07-18T12:12:38Z</time>
      </trkpt>
      <trkpt lat="43.5258" lon="-1.51441">
        <ele>7.4</ele>
        <time>2021-07-18T12:12:39Z</time>
      </trkpt>
      <trkpt lat="43.5258" lon="-1.51434">
        <ele>7.3</ele>
        <time>2021-07-18T12:12:41Z</time>
      </trkpt>
      <trkpt lat="43.52583" lon="-1.51426">
        <ele>7.2</ele>
        <time>2021-07-18T12:12:42Z</time>
      </trkpt>
      <trkpt lat="43.52587" lon="-1.51421">
        <ele>7.2</ele>
        <time>2021-07-18T12:12:43Z</time>
      </trkpt>
      <trkpt lat="43.52591" lon="-1.51417">
        <ele>7.1</ele>
        <time>2021-07-18T12:12:45Z</time>
      </trkpt>
      <trkpt lat="43.52596" lon="-1.5141">
        <ele>7.1</ele>
        <time>2021-07-18T12:12:46Z</time>
      </trkpt>
      <trkpt lat="43.52598" lon="-1.51405">
        <ele>7.1</ele>
        <time>2021-07-18T12:12:47Z</time>
      </trkpt>
      <trkpt lat="43.52601" lon="-1.51399">
        <ele>7.1</ele>
        <time>2021-07-18T12:12:48Z</time>
      </trkpt>
      <trkpt lat="43.52605" lon="-1.51394">
        <ele>7.1</ele>
        <time>2021-07-18T12:12:49Z</time>
      </trkpt>
      <trkpt lat="43.52609" lon="-1.51388">
        <ele>7.1</ele>
        <time>2021-07-18T12:12:51Z</time>
      </trkpt>
      <trkpt lat="43.52613" lon="-1.51382">
        <ele>7</ele>
        <time>2021-07-18T12:12:52Z</time>
      </trkpt>
      <trkpt lat="43.52617" lon="-1.51375">
        <ele>7</ele>
        <time>2021-07-18T12:12:53Z</time>
      </trkpt>
      <trkpt lat="43.5262" lon="-1.5137">
        <ele>7</ele>
        <time>2021-07-18T12:12:54Z</time>
      </trkpt>
      <trkpt lat="43.52623" lon="-1.51363">
        <ele>6.9</ele>
        <time>2021-07-18T12:12:56Z</time>
      </trkpt>
      <trkpt lat="43.52626" lon="-1.51358">
        <ele>6.9</ele>
        <time>2021-07-18T12:12:57Z</time>
      </trkpt>
      <trkpt lat="43.52628" lon="-1.51354">
        <ele>6.9</ele>
        <time>2021-07-18T12:12:58Z</time>
      </trkpt>
      <trkpt lat="43.52629" lon="-1.5135">
        <ele>6.9</ele>
        <time>2021-07-18T12:12:59Z</time>
      </trkpt>
      <trkpt lat="43.52632" lon="-1.51344">
        <ele>6.9</ele>
        <time>2021-07-18T12:13:01Z</time>
      </trkpt>
      <trkpt lat="43.52634" lon="-1.5134">
        <ele>6.9</ele>
        <time>2021-07-18T12:13:02Z</time>
      </trkpt>
      <trkpt lat="43.52636" lon="-1.51335">
        <ele>6.9</ele>
        <time>2021-07-18T12:13:03Z</time>
      </trkpt>
      <trkpt lat="43.52638" lon="-1.51331">
        <ele>6.9</ele>
        <time>2021-07-18T12:13:04Z</time>
      </trkpt>
      <trkpt lat="43.5264" lon="-1.51325">
        <ele>6.9</ele>
        <time>2021-07-18T12:13:06Z</time>
      </trkpt>
      <trkpt lat="43.52641" lon="-1.51325">
        <ele>6.9</ele>
        <time>2021-07-18T12:13:07Z</time>
      </trkpt>
      <trkpt lat="43.52641" lon="-1.51324">
        <ele>6.9</ele>
        <time>2021-07-18T12:13:08Z</time>
      </trkpt>
      <trkpt lat="43.52638" lon="-1.51327">
        <ele>6.9</ele>
        <time>2021-07-18T12:13:10Z</time>
      </trkpt>
      <trkpt lat="43.52639" lon="-1.51329">
        <ele>6.9</ele>
        <time>2021-07-18T12:13:12Z</time>
      </trkpt>
      <trkpt lat="43.52638" lon="-1.51331">
        <ele>6.9</ele>
        <time>2021-07-18T12:13:13Z</time>
      </trkpt>
      <trkpt lat="43.52637" lon="-1.51334">
        <ele>6.9</ele>
        <time>2021-07-18T12:13:15Z</time>
      </trkpt>
      <trkpt lat="43.52635" lon="-1.51339">
        <ele>6.9</ele>
        <time>2021-07-18T12:13:16Z</time>
      </trkpt>
      <trkpt lat="43.52635" lon="-1.51345">
        <ele>6.8</ele>
        <time>2021-07-18T12:13:18Z</time>
      </trkpt>
      <trkpt lat="43.52637" lon="-1.51349">
        <ele>6.8</ele>
        <time>2021-07-18T12:13:19Z</time>
      </trkpt>
      <trkpt lat="43.52638" lon="-1.51349">
        <ele>6.8</ele>
        <time>2021-07-18T12:13:20Z</time>
      </trkpt>
      <trkpt lat="43.5264" lon="-1.5135">
        <ele>6.7</ele>
        <time>2021-07-18T12:13:21Z</time>
      </trkpt>
      <trkpt lat="43.52644" lon="-1.51352">
        <ele>6</ele>
        <time>2021-07-18T12:13:23Z</time>
      </trkpt>
      <trkpt lat="43.52647" lon="-1.51356">
        <ele>5.6</ele>
        <time>2021-07-18T12:13:25Z</time>
      </trkpt>
      <trkpt lat="43.52649" lon="-1.5136">
        <ele>5.3</ele>
        <time>2021-07-18T12:13:26Z</time>
      </trkpt>
      <trkpt lat="43.52653" lon="-1.51362">
        <ele>4.8</ele>
        <time>2021-07-18T12:13:28Z</time>
      </trkpt>
      <trkpt lat="43.52656" lon="-1.5136">
        <ele>4.5</ele>
        <time>2021-07-18T12:13:30Z</time>
      </trkpt>
      <trkpt lat="43.5266" lon="-1.51357">
        <ele>4.1</ele>
        <time>2021-07-18T12:13:31Z</time>
      </trkpt>
      <trkpt lat="43.52664" lon="-1.51353">
        <ele>3.4</ele>
        <time>2021-07-18T12:13:33Z</time>
      </trkpt>
      <trkpt lat="43.52669" lon="-1.5135">
        <ele>2.9</ele>
        <time>2021-07-18T12:13:35Z</time>
      </trkpt>
      <trkpt lat="43.52672" lon="-1.51349">
        <ele>2.6</ele>
        <time>2021-07-18T12:13:36Z</time>
      </trkpt>
      <trkpt lat="43.52675" lon="-1.51348">
        <ele>2.2</ele>
        <time>2021-07-18T12:13:37Z</time>
      </trkpt>
      <trkpt lat="43.52676" lon="-1.51348">
        <ele>2.1</ele>
        <time>2021-07-18T12:13:38Z</time>
      </trkpt>
      <trkpt lat="43.52677" lon="-1.51349">
        <ele>2</ele>
        <time>2021-07-18T12:13:39Z</time>
      </trkpt>
      <trkpt lat="43.52679" lon="-1.5135">
        <ele>1.8</ele>
        <time>2021-07-18T12:13:41Z</time>
      </trkpt>
      <trkpt lat="43.52678" lon="-1.5135">
        <ele>1.8</ele>
        <time>2021-07-18T12:13:42Z</time>
      </trkpt>
      <trkpt lat="43.52677" lon="-1.5135">
        <ele>1.9</ele>
        <time>2021-07-18T12:13:44Z</time>
      </trkpt>
      <trkpt lat="43.52677" lon="-1.5135">
        <ele>1.9</ele>
        <time>2021-07-18T12:13:45Z</time>
      </trkpt>
      <trkpt lat="43.52677" lon="-1.5135">
        <ele>1.9</ele>
        <time>2021-07-18T12:13:47Z</time>
      </trkpt>
      <trkpt lat="43.52677" lon="-1.5135">
        <ele>1.9</ele>
        <time>2021-07-18T12:13:48Z</time>
      </trkpt>
      <trkpt lat="43.52677" lon="-1.5135">
        <ele>1.9</ele>
        <time>2021-07-18T12:13:49Z</time>
      </trkpt>
      <trkpt lat="43.52677" lon="-1.5135">
        <ele>1.9</ele>
        <time>2021-07-18T12:13:51Z</time>
      </trkpt>
      <trkpt lat="43.52676" lon="-1.51352">
        <ele>2.1</ele>
        <time>2021-07-18T12:14:36Z</time>
      </trkpt>
      <trkpt lat="43.52675" lon="-1.51354">
        <ele>2.3</ele>
        <time>2021-07-18T12:14:38Z</time>
      </trkpt>
      <trkpt lat="43.52676" lon="-1.51354">
        <ele>2.4</ele>
        <time>2021-07-18T12:14:40Z</time>
      </trkpt>
      <trkpt lat="43.52673" lon="-1.51353">
        <ele>2.7</ele>
        <time>2021-07-18T12:14:42Z</time>
      </trkpt>
      <trkpt lat="43.52669" lon="-1.51353">
        <ele>3.1</ele>
        <time>2021-07-18T12:14:43Z</time>
      </trkpt>
      <trkpt lat="43.52666" lon="-1.51352">
        <ele>3.4</ele>
        <time>2021-07-18T12:14:45Z</time>
      </trkpt>
      <trkpt lat="43.52663" lon="-1.51353">
        <ele>3.6</ele>
        <time>2021-07-18T12:14:46Z</time>
      </trkpt>
      <trkpt lat="43.5266" lon="-1.51354">
        <ele>3.9</ele>
        <time>2021-07-18T12:14:47Z</time>
      </trkpt>
      <trkpt lat="43.52657" lon="-1.51354">
        <ele>4.2</ele>
        <time>2021-07-18T12:14:48Z</time>
      </trkpt>
      <trkpt lat="43.52652" lon="-1.51356">
        <ele>5.1</ele>
        <time>2021-07-18T12:14:50Z</time>
      </trkpt>
      <trkpt lat="43.52646" lon="-1.51359">
        <ele>5.9</ele>
        <time>2021-07-18T12:14:52Z</time>
      </trkpt>
      <trkpt lat="43.52643" lon="-1.51358">
        <ele>6.6</ele>
        <time>2021-07-18T12:14:53Z</time>
      </trkpt>
      <trkpt lat="43.52642" lon="-1.51357">
        <ele>6.6</ele>
        <time>2021-07-18T12:14:54Z</time>
      </trkpt>
      <trkpt lat="43.5264" lon="-1.51354">
        <ele>6.6</ele>
        <time>2021-07-18T12:14:55Z</time>
      </trkpt>
      <trkpt lat="43.52641" lon="-1.51347">
        <ele>6.6</ele>
        <time>2021-07-18T12:14:57Z</time>
      </trkpt>
      <trkpt lat="43.52644" lon="-1.51339">
        <ele>6.6</ele>
        <time>2021-07-18T12:14:59Z</time>
      </trkpt>
      <trkpt lat="43.52646" lon="-1.51333">
        <ele>6.6</ele>
        <time>2021-07-18T12:15:00Z</time>
      </trkpt>
      <trkpt lat="43.52648" lon="-1.51327">
        <ele>6.6</ele>
        <time>2021-07-18T12:15:01Z</time>
      </trkpt>
      <trkpt lat="43.52651" lon="-1.51316">
        <ele>6.5</ele>
        <time>2021-07-18T12:15:03Z</time>
      </trkpt>
      <trkpt lat="43.52653" lon="-1.51307">
        <ele>6.5</ele>
        <time>2021-07-18T12:15:05Z</time>
      </trkpt>
      <trkpt lat="43.52654" lon="-1.51299">
        <ele>6.5</ele>
        <time>2021-07-18T12:15:06Z</time>
      </trkpt>
      <trkpt lat="43.52655" lon="-1.51288">
        <ele>6.5</ele>
        <time>2021-07-18T12:15:08Z</time>
      </trkpt>
      <trkpt lat="43.52656" lon="-1.51277">
        <ele>6.5</ele>
        <time>2021-07-18T12:15:10Z</time>
      </trkpt>
      <trkpt lat="43.52656" lon="-1.51266">
        <ele>6.4</ele>
        <time>2021-07-18T12:15:12Z</time>
      </trkpt>
      <trkpt lat="43.52655" lon="-1.5126">
        <ele>6.4</ele>
        <time>2021-07-18T12:15:13Z</time>
      </trkpt>
      <trkpt lat="43.52655" lon="-1.51246">
        <ele>6.3</ele>
        <time>2021-07-18T12:15:15Z</time>
      </trkpt>
      <trkpt lat="43.52654" lon="-1.51242">
        <ele>6.3</ele>
        <time>2021-07-18T12:15:16Z</time>
      </trkpt>
      <trkpt lat="43.52653" lon="-1.51237">
        <ele>6.3</ele>
        <time>2021-07-18T12:15:17Z</time>
      </trkpt>
      <trkpt lat="43.52653" lon="-1.51231">
        <ele>6.3</ele>
        <time>2021-07-18T12:15:18Z</time>
      </trkpt>
      <trkpt lat="43.5265" lon="-1.51218">
        <ele>6.2</ele>
        <time>2021-07-18T12:15:20Z</time>
      </trkpt>
      <trkpt lat="43.52649" lon="-1.51212">
        <ele>6.1</ele>
        <time>2021-07-18T12:15:21Z</time>
      </trkpt>
      <trkpt lat="43.52646" lon="-1.51202">
        <ele>6.1</ele>
        <time>2021-07-18T12:15:23Z</time>
      </trkpt>
      <trkpt lat="43.52644" lon="-1.51197">
        <ele>6</ele>
        <time>2021-07-18T12:15:24Z</time>
      </trkpt>
      <trkpt lat="43.52643" lon="-1.51186">
        <ele>5.9</ele>
        <time>2021-07-18T12:15:26Z</time>
      </trkpt>
      <trkpt lat="43.52645" lon="-1.51179">
        <ele>5.7</ele>
        <time>2021-07-18T12:15:27Z</time>
      </trkpt>
      <trkpt lat="43.52645" lon="-1.51166">
        <ele>5.4</ele>
        <time>2021-07-18T12:15:29Z</time>
      </trkpt>
      <trkpt lat="43.52643" lon="-1.51152">
        <ele>5.1</ele>
        <time>2021-07-18T12:15:31Z</time>
      </trkpt>
      <trkpt lat="43.52642" lon="-1.51145">
        <ele>5</ele>
        <time>2021-07-18T12:15:32Z</time>
      </trkpt>
      <trkpt lat="43.52641" lon="-1.51138">
        <ele>4.8</ele>
        <time>2021-07-18T12:15:33Z</time>
      </trkpt>
      <trkpt lat="43.5264" lon="-1.5112">
        <ele>4.5</ele>
        <time>2021-07-18T12:15:35Z</time>
      </trkpt>
      <trkpt lat="43.52638" lon="-1.51108">
        <ele>4.3</ele>
        <time>2021-07-18T12:15:37Z</time>
      </trkpt>
      <trkpt lat="43.52636" lon="-1.51092">
        <ele>4.1</ele>
        <time>2021-07-18T12:15:39Z</time>
      </trkpt>
      <trkpt lat="43.52634" lon="-1.51077">
        <ele>4</ele>
        <time>2021-07-18T12:15:41Z</time>
      </trkpt>
      <trkpt lat="43.52633" lon="-1.51069">
        <ele>3.9</ele>
        <time>2021-07-18T12:15:42Z</time>
      </trkpt>
      <trkpt lat="43.5263" lon="-1.51054">
        <ele>3.9</ele>
        <time>2021-07-18T12:15:44Z</time>
      </trkpt>
      <trkpt lat="43.52629" lon="-1.51047">
        <ele>3.9</ele>
        <time>2021-07-18T12:15:45Z</time>
      </trkpt>
      <trkpt lat="43.52628" lon="-1.51039">
        <ele>3.9</ele>
        <time>2021-07-18T12:15:46Z</time>
      </trkpt>
      <trkpt lat="43.52625" lon="-1.51025">
        <ele>3.8</ele>
        <time>2021-07-18T12:15:48Z</time>
      </trkpt>
      <trkpt lat="43.52623" lon="-1.51018">
        <ele>3.9</ele>
        <time>2021-07-18T12:15:49Z</time>
      </trkpt>
      <trkpt lat="43.52622" lon="-1.51004">
        <ele>3.9</ele>
        <time>2021-07-18T12:15:51Z</time>
      </trkpt>
      <trkpt lat="43.52621" lon="-1.50996">
        <ele>4</ele>
        <time>2021-07-18T12:15:52Z</time>
      </trkpt>
      <trkpt lat="43.5262" lon="-1.50983">
        <ele>4.1</ele>
        <time>2021-07-18T12:15:54Z</time>
      </trkpt>
      <trkpt lat="43.52619" lon="-1.50973">
        <ele>4.3</ele>
        <time>2021-07-18T12:15:55Z</time>
      </trkpt>
      <trkpt lat="43.52616" lon="-1.5097">
        <ele>4.3</ele>
        <time>2021-07-18T12:15:57Z</time>
      </trkpt>
      <trkpt lat="43.52612" lon="-1.50968">
        <ele>4.4</ele>
        <time>2021-07-18T12:15:58Z</time>
      </trkpt>
      <trkpt lat="43.52606" lon="-1.50967">
        <ele>4.4</ele>
        <time>2021-07-18T12:16:00Z</time>
      </trkpt>
      <trkpt lat="43.52598" lon="-1.50972">
        <ele>4.5</ele>
        <time>2021-07-18T12:16:02Z</time>
      </trkpt>
      <trkpt lat="43.52594" lon="-1.50975">
        <ele>4.5</ele>
        <time>2021-07-18T12:16:03Z</time>
      </trkpt>
      <trkpt lat="43.52593" lon="-1.50976">
        <ele>4.5</ele>
        <time>2021-07-18T12:16:04Z</time>
      </trkpt>
      <trkpt lat="43.52587" lon="-1.5098">
        <ele>4.5</ele>
        <time>2021-07-18T12:16:06Z</time>
      </trkpt>
      <trkpt lat="43.52583" lon="-1.50983">
        <ele>4.5</ele>
        <time>2021-07-18T12:16:07Z</time>
      </trkpt>
      <trkpt lat="43.52578" lon="-1.50977">
        <ele>4.6</ele>
        <time>2021-07-18T12:16:09Z</time>
      </trkpt>
      <trkpt lat="43.52576" lon="-1.5097">
        <ele>4.6</ele>
        <time>2021-07-18T12:16:11Z</time>
      </trkpt>
      <trkpt lat="43.52574" lon="-1.50966">
        <ele>4.5</ele>
        <time>2021-07-18T12:16:12Z</time>
      </trkpt>
      <trkpt lat="43.5257" lon="-1.50957">
        <ele>4.5</ele>
        <time>2021-07-18T12:16:14Z</time>
      </trkpt>
      <trkpt lat="43.52568" lon="-1.50952">
        <ele>4.5</ele>
        <time>2021-07-18T12:16:15Z</time>
      </trkpt>
      <trkpt lat="43.52566" lon="-1.50944">
        <ele>4.5</ele>
        <time>2021-07-18T12:16:17Z</time>
      </trkpt>
      <trkpt lat="43.52564" lon="-1.50939">
        <ele>4.5</ele>
        <time>2021-07-18T12:16:18Z</time>
      </trkpt>
      <trkpt lat="43.5256" lon="-1.5093">
        <ele>4.5</ele>
        <time>2021-07-18T12:16:20Z</time>
      </trkpt>
      <trkpt lat="43.52558" lon="-1.50925">
        <ele>4.5</ele>
        <time>2021-07-18T12:16:21Z</time>
      </trkpt>
      <trkpt lat="43.52555" lon="-1.5092">
        <ele>4.5</ele>
        <time>2021-07-18T12:16:22Z</time>
      </trkpt>
      <trkpt lat="43.52552" lon="-1.5091">
        <ele>4.5</ele>
        <time>2021-07-18T12:16:24Z</time>
      </trkpt>
      <trkpt lat="43.52549" lon="-1.50901">
        <ele>4.5</ele>
        <time>2021-07-18T12:16:26Z</time>
      </trkpt>
      <trkpt lat="43.52547" lon="-1.50893">
        <ele>4.5</ele>
        <time>2021-07-18T12:16:28Z</time>
      </trkpt>
      <trkpt lat="43.52546" lon="-1.50883">
        <ele>4.5</ele>
        <time>2021-07-18T12:16:30Z</time>
      </trkpt>
      <trkpt lat="43.52544" lon="-1.50879">
        <ele>4.5</ele>
        <time>2021-07-18T12:16:31Z</time>
      </trkpt>
      <trkpt lat="43.52543" lon="-1.50875">
        <ele>4.5</ele>
        <time>2021-07-18T12:16:32Z</time>
      </trkpt>
      <trkpt lat="43.52539" lon="-1.50867">
        <ele>4.5</ele>
        <time>2021-07-18T12:16:34Z</time>
      </trkpt>
      <trkpt lat="43.52537" lon="-1.50863">
        <ele>4.5</ele>
        <time>2021-07-18T12:16:35Z</time>
      </trkpt>
      <trkpt lat="43.52533" lon="-1.50854">
        <ele>4.5</ele>
        <time>2021-07-18T12:16:37Z</time>
      </trkpt>
      <trkpt lat="43.52531" lon="-1.50849">
        <ele>4.5</ele>
        <time>2021-07-18T12:16:38Z</time>
      </trkpt>
      <trkpt lat="43.52529" lon="-1.50844">
        <ele>4.5</ele>
        <time>2021-07-18T12:16:39Z</time>
      </trkpt>
      <trkpt lat="43.52526" lon="-1.50834">
        <ele>4.5</ele>
        <time>2021-07-18T12:16:41Z</time>
      </trkpt>
      <trkpt lat="43.52523" lon="-1.50824">
        <ele>4.5</ele>
        <time>2021-07-18T12:16:43Z</time>
      </trkpt>
      <trkpt lat="43.52519" lon="-1.50813">
        <ele>4.5</ele>
        <time>2021-07-18T12:16:45Z</time>
      </trkpt>
      <trkpt lat="43.52515" lon="-1.50803">
        <ele>4.6</ele>
        <time>2021-07-18T12:16:47Z</time>
      </trkpt>
      <trkpt lat="43.52513" lon="-1.50798">
        <ele>4.6</ele>
        <time>2021-07-18T12:16:48Z</time>
      </trkpt>
      <trkpt lat="43.52511" lon="-1.50786">
        <ele>4.6</ele>
        <time>2021-07-18T12:16:50Z</time>
      </trkpt>
      <trkpt lat="43.52508" lon="-1.50778">
        <ele>4.7</ele>
        <time>2021-07-18T12:16:52Z</time>
      </trkpt>
      <trkpt lat="43.52505" lon="-1.50767">
        <ele>4.7</ele>
        <time>2021-07-18T12:16:54Z</time>
      </trkpt>
      <trkpt lat="43.52503" lon="-1.50762">
        <ele>4.8</ele>
        <time>2021-07-18T12:16:55Z</time>
      </trkpt>
      <trkpt lat="43.52501" lon="-1.50757">
        <ele>4.8</ele>
        <time>2021-07-18T12:16:56Z</time>
      </trkpt>
      <trkpt lat="43.52498" lon="-1.50749">
        <ele>4.8</ele>
        <time>2021-07-18T12:16:58Z</time>
      </trkpt>
      <trkpt lat="43.52496" lon="-1.50743">
        <ele>4.8</ele>
        <time>2021-07-18T12:16:59Z</time>
      </trkpt>
      <trkpt lat="43.52492" lon="-1.50732">
        <ele>4.7</ele>
        <time>2021-07-18T12:17:01Z</time>
      </trkpt>
      <trkpt lat="43.52488" lon="-1.50722">
        <ele>4.7</ele>
        <time>2021-07-18T12:17:03Z</time>
      </trkpt>
      <trkpt lat="43.52485" lon="-1.50719">
        <ele>4.7</ele>
        <time>2021-07-18T12:17:04Z</time>
      </trkpt>
      <trkpt lat="43.52481" lon="-1.50717">
        <ele>4.7</ele>
        <time>2021-07-18T12:17:05Z</time>
      </trkpt>
      <trkpt lat="43.52479" lon="-1.50712">
        <ele>4.6</ele>
        <time>2021-07-18T12:17:06Z</time>
      </trkpt>
      <trkpt lat="43.5248" lon="-1.50701">
        <ele>4.6</ele>
        <time>2021-07-18T12:17:08Z</time>
      </trkpt>
      <trkpt lat="43.5248" lon="-1.50696">
        <ele>4.6</ele>
        <time>2021-07-18T12:17:09Z</time>
      </trkpt>
      <trkpt lat="43.5248" lon="-1.50685">
        <ele>4.6</ele>
        <time>2021-07-18T12:17:11Z</time>
      </trkpt>
      <trkpt lat="43.52479" lon="-1.50679">
        <ele>4.6</ele>
        <time>2021-07-18T12:17:12Z</time>
      </trkpt>
      <trkpt lat="43.52479" lon="-1.50673">
        <ele>4.6</ele>
        <time>2021-07-18T12:17:13Z</time>
      </trkpt>
      <trkpt lat="43.52478" lon="-1.5066">
        <ele>4.6</ele>
        <time>2021-07-18T12:17:14Z</time>
      </trkpt>
      <trkpt lat="43.52478" lon="-1.50652">
        <ele>4.6</ele>
        <time>2021-07-18T12:17:16Z</time>
      </trkpt>
      <trkpt lat="43.52478" lon="-1.50647">
        <ele>4.6</ele>
        <time>2021-07-18T12:17:17Z</time>
      </trkpt>
      <trkpt lat="43.52477" lon="-1.50637">
        <ele>4.6</ele>
        <time>2021-07-18T12:17:19Z</time>
      </trkpt>
      <trkpt lat="43.52477" lon="-1.50631">
        <ele>4.7</ele>
        <time>2021-07-18T12:17:20Z</time>
      </trkpt>
      <trkpt lat="43.52477" lon="-1.50619">
        <ele>4.7</ele>
        <time>2021-07-18T12:17:22Z</time>
      </trkpt>
      <trkpt lat="43.52476" lon="-1.50608">
        <ele>4.7</ele>
        <time>2021-07-18T12:17:24Z</time>
      </trkpt>
      <trkpt lat="43.52476" lon="-1.506">
        <ele>4.7</ele>
        <time>2021-07-18T12:17:25Z</time>
      </trkpt>
      <trkpt lat="43.52476" lon="-1.50591">
        <ele>4.8</ele>
        <time>2021-07-18T12:17:26Z</time>
      </trkpt>
      <trkpt lat="43.52475" lon="-1.50583">
        <ele>4.8</ele>
        <time>2021-07-18T12:17:28Z</time>
      </trkpt>
      <trkpt lat="43.52475" lon="-1.50576">
        <ele>4.8</ele>
        <time>2021-07-18T12:17:29Z</time>
      </trkpt>
      <trkpt lat="43.52475" lon="-1.50571">
        <ele>4.8</ele>
        <time>2021-07-18T12:17:30Z</time>
      </trkpt>
      <trkpt lat="43.52475" lon="-1.50564">
        <ele>4.8</ele>
        <time>2021-07-18T12:17:31Z</time>
      </trkpt>
      <trkpt lat="43.52475" lon="-1.50558">
        <ele>4.8</ele>
        <time>2021-07-18T12:17:32Z</time>
      </trkpt>
      <trkpt lat="43.52475" lon="-1.50552">
        <ele>4.8</ele>
        <time>2021-07-18T12:17:33Z</time>
      </trkpt>
      <trkpt lat="43.52474" lon="-1.50539">
        <ele>4.8</ele>
        <time>2021-07-18T12:17:35Z</time>
      </trkpt>
      <trkpt lat="43.52473" lon="-1.50533">
        <ele>4.8</ele>
        <time>2021-07-18T12:17:36Z</time>
      </trkpt>
      <trkpt lat="43.52473" lon="-1.5052">
        <ele>4.8</ele>
        <time>2021-07-18T12:17:38Z</time>
      </trkpt>
      <trkpt lat="43.52473" lon="-1.50514">
        <ele>4.9</ele>
        <time>2021-07-18T12:17:39Z</time>
      </trkpt>
      <trkpt lat="43.52473" lon="-1.50508">
        <ele>4.9</ele>
        <time>2021-07-18T12:17:40Z</time>
      </trkpt>
      <trkpt lat="43.52472" lon="-1.50498">
        <ele>5.1</ele>
        <time>2021-07-18T12:17:42Z</time>
      </trkpt>
      <trkpt lat="43.52469" lon="-1.50497">
        <ele>5.1</ele>
        <time>2021-07-18T12:17:44Z</time>
      </trkpt>
      <trkpt lat="43.52464" lon="-1.50496">
        <ele>5.3</ele>
        <time>2021-07-18T12:17:45Z</time>
      </trkpt>
      <trkpt lat="43.52459" lon="-1.50498">
        <ele>5.7</ele>
        <time>2021-07-18T12:17:46Z</time>
      </trkpt>
      <trkpt lat="43.52451" lon="-1.50501">
        <ele>6.4</ele>
        <time>2021-07-18T12:17:48Z</time>
      </trkpt>
      <trkpt lat="43.52448" lon="-1.50499">
        <ele>6.6</ele>
        <time>2021-07-18T12:17:50Z</time>
      </trkpt>
      <trkpt lat="43.52448" lon="-1.50494">
        <ele>6.8</ele>
        <time>2021-07-18T12:17:52Z</time>
      </trkpt>
      <trkpt lat="43.52445" lon="-1.50489">
        <ele>7</ele>
        <time>2021-07-18T12:17:54Z</time>
      </trkpt>
      <trkpt lat="43.52444" lon="-1.50486">
        <ele>7.1</ele>
        <time>2021-07-18T12:17:55Z</time>
      </trkpt>
      <trkpt lat="43.52443" lon="-1.50482">
        <ele>7.2</ele>
        <time>2021-07-18T12:17:56Z</time>
      </trkpt>
      <trkpt lat="43.52441" lon="-1.50475">
        <ele>7.4</ele>
        <time>2021-07-18T12:17:58Z</time>
      </trkpt>
      <trkpt lat="43.5244" lon="-1.50472">
        <ele>7.5</ele>
        <time>2021-07-18T12:17:59Z</time>
      </trkpt>
      <trkpt lat="43.52438" lon="-1.50467">
        <ele>7.7</ele>
        <time>2021-07-18T12:18:01Z</time>
      </trkpt>
      <trkpt lat="43.52436" lon="-1.50464">
        <ele>7.8</ele>
        <time>2021-07-18T12:18:02Z</time>
      </trkpt>
      <trkpt lat="43.52433" lon="-1.5046">
        <ele>7.9</ele>
        <time>2021-07-18T12:18:03Z</time>
      </trkpt>
      <trkpt lat="43.52431" lon="-1.50457">
        <ele>7.9</ele>
        <time>2021-07-18T12:18:04Z</time>
      </trkpt>
      <trkpt lat="43.52429" lon="-1.50454">
        <ele>8</ele>
        <time>2021-07-18T12:18:06Z</time>
      </trkpt>
      <trkpt lat="43.52426" lon="-1.5045">
        <ele>8.1</ele>
        <time>2021-07-18T12:18:08Z</time>
      </trkpt>
      <trkpt lat="43.52423" lon="-1.50447">
        <ele>8.2</ele>
        <time>2021-07-18T12:18:10Z</time>
      </trkpt>
      <trkpt lat="43.5242" lon="-1.50443">
        <ele>8.2</ele>
        <time>2021-07-18T12:18:11Z</time>
      </trkpt>
      <trkpt lat="43.52419" lon="-1.50442">
        <ele>8.2</ele>
        <time>2021-07-18T12:18:12Z</time>
      </trkpt>
      <trkpt lat="43.52416" lon="-1.50438">
        <ele>8.3</ele>
        <time>2021-07-18T12:18:13Z</time>
      </trkpt>
      <trkpt lat="43.5241" lon="-1.50433">
        <ele>8.3</ele>
        <time>2021-07-18T12:18:15Z</time>
      </trkpt>
      <trkpt lat="43.52408" lon="-1.50432">
        <ele>8.4</ele>
        <time>2021-07-18T12:18:16Z</time>
      </trkpt>
      <trkpt lat="43.52404" lon="-1.5043">
        <ele>8.4</ele>
        <time>2021-07-18T12:18:18Z</time>
      </trkpt>
      <trkpt lat="43.52401" lon="-1.50428">
        <ele>8.4</ele>
        <time>2021-07-18T12:18:19Z</time>
      </trkpt>
      <trkpt lat="43.52397" lon="-1.50425">
        <ele>8.4</ele>
        <time>2021-07-18T12:18:20Z</time>
      </trkpt>
      <trkpt lat="43.52391" lon="-1.50421">
        <ele>8.4</ele>
        <time>2021-07-18T12:18:22Z</time>
      </trkpt>
      <trkpt lat="43.52387" lon="-1.50418">
        <ele>8.4</ele>
        <time>2021-07-18T12:18:23Z</time>
      </trkpt>
      <trkpt lat="43.52382" lon="-1.50416">
        <ele>8.4</ele>
        <time>2021-07-18T12:18:25Z</time>
      </trkpt>
      <trkpt lat="43.52378" lon="-1.50414">
        <ele>8.4</ele>
        <time>2021-07-18T12:18:26Z</time>
      </trkpt>
      <trkpt lat="43.52372" lon="-1.50411">
        <ele>8.4</ele>
        <time>2021-07-18T12:18:27Z</time>
      </trkpt>
      <trkpt lat="43.52368" lon="-1.50407">
        <ele>8.4</ele>
        <time>2021-07-18T12:18:29Z</time>
      </trkpt>
      <trkpt lat="43.52364" lon="-1.50405">
        <ele>8.4</ele>
        <time>2021-07-18T12:18:30Z</time>
      </trkpt>
      <trkpt lat="43.52361" lon="-1.50403">
        <ele>8.4</ele>
        <time>2021-07-18T12:18:31Z</time>
      </trkpt>
      <trkpt lat="43.52353" lon="-1.50398">
        <ele>8.5</ele>
        <time>2021-07-18T12:18:33Z</time>
      </trkpt>
      <trkpt lat="43.52349" lon="-1.50396">
        <ele>8.5</ele>
        <time>2021-07-18T12:18:34Z</time>
      </trkpt>
      <trkpt lat="43.52343" lon="-1.50392">
        <ele>8.5</ele>
        <time>2021-07-18T12:18:36Z</time>
      </trkpt>
      <trkpt lat="43.52339" lon="-1.5039">
        <ele>8.5</ele>
        <time>2021-07-18T12:18:37Z</time>
      </trkpt>
      <trkpt lat="43.5233" lon="-1.50388">
        <ele>8.6</ele>
        <time>2021-07-18T12:18:39Z</time>
      </trkpt>
      <trkpt lat="43.52327" lon="-1.50385">
        <ele>8.6</ele>
        <time>2021-07-18T12:18:40Z</time>
      </trkpt>
      <trkpt lat="43.52324" lon="-1.50382">
        <ele>8.6</ele>
        <time>2021-07-18T12:18:41Z</time>
      </trkpt>
      <trkpt lat="43.5232" lon="-1.50379">
        <ele>8.6</ele>
        <time>2021-07-18T12:18:42Z</time>
      </trkpt>
      <trkpt lat="43.52316" lon="-1.50377">
        <ele>8.6</ele>
        <time>2021-07-18T12:18:43Z</time>
      </trkpt>
      <trkpt lat="43.52309" lon="-1.50372">
        <ele>8.7</ele>
        <time>2021-07-18T12:18:45Z</time>
      </trkpt>
      <trkpt lat="43.52306" lon="-1.5037">
        <ele>8.7</ele>
        <time>2021-07-18T12:18:46Z</time>
      </trkpt>
      <trkpt lat="43.52302" lon="-1.50368">
        <ele>8.7</ele>
        <time>2021-07-18T12:18:47Z</time>
      </trkpt>
      <trkpt lat="43.52296" lon="-1.50364">
        <ele>8.8</ele>
        <time>2021-07-18T12:18:49Z</time>
      </trkpt>
      <trkpt lat="43.52291" lon="-1.50361">
        <ele>8.8</ele>
        <time>2021-07-18T12:18:50Z</time>
      </trkpt>
      <trkpt lat="43.52289" lon="-1.5036">
        <ele>8.9</ele>
        <time>2021-07-18T12:18:51Z</time>
      </trkpt>
      <trkpt lat="43.52281" lon="-1.50356">
        <ele>9</ele>
        <time>2021-07-18T12:18:53Z</time>
      </trkpt>
      <trkpt lat="43.52278" lon="-1.50354">
        <ele>9</ele>
        <time>2021-07-18T12:18:54Z</time>
      </trkpt>
      <trkpt lat="43.52272" lon="-1.50351">
        <ele>9</ele>
        <time>2021-07-18T12:18:56Z</time>
      </trkpt>
      <trkpt lat="43.52268" lon="-1.5035">
        <ele>9</ele>
        <time>2021-07-18T12:18:57Z</time>
      </trkpt>
      <trkpt lat="43.52263" lon="-1.50348">
        <ele>9</ele>
        <time>2021-07-18T12:18:58Z</time>
      </trkpt>
      <trkpt lat="43.52259" lon="-1.50346">
        <ele>9</ele>
        <time>2021-07-18T12:18:59Z</time>
      </trkpt>
      <trkpt lat="43.52252" lon="-1.50344">
        <ele>9</ele>
        <time>2021-07-18T12:19:01Z</time>
      </trkpt>
      <trkpt lat="43.52244" lon="-1.50344">
        <ele>8.9</ele>
        <time>2021-07-18T12:19:02Z</time>
      </trkpt>
      <trkpt lat="43.5224" lon="-1.50344">
        <ele>8.8</ele>
        <time>2021-07-18T12:19:03Z</time>
      </trkpt>
      <trkpt lat="43.52232" lon="-1.50344">
        <ele>8.7</ele>
        <time>2021-07-18T12:19:05Z</time>
      </trkpt>
      <trkpt lat="43.52222" lon="-1.50344">
        <ele>8.5</ele>
        <time>2021-07-18T12:19:07Z</time>
      </trkpt>
      <trkpt lat="43.52216" lon="-1.50343">
        <ele>8.3</ele>
        <time>2021-07-18T12:19:08Z</time>
      </trkpt>
      <trkpt lat="43.52211" lon="-1.50343">
        <ele>8.2</ele>
        <time>2021-07-18T12:19:09Z</time>
      </trkpt>
      <trkpt lat="43.52205" lon="-1.50342">
        <ele>8.1</ele>
        <time>2021-07-18T12:19:10Z</time>
      </trkpt>
      <trkpt lat="43.52193" lon="-1.50339">
        <ele>7.8</ele>
        <time>2021-07-18T12:19:12Z</time>
      </trkpt>
      <trkpt lat="43.52181" lon="-1.50337">
        <ele>7.5</ele>
        <time>2021-07-18T12:19:14Z</time>
      </trkpt>
      <trkpt lat="43.52175" lon="-1.50336">
        <ele>7.3</ele>
        <time>2021-07-18T12:19:15Z</time>
      </trkpt>
      <trkpt lat="43.5217" lon="-1.50334">
        <ele>7.2</ele>
        <time>2021-07-18T12:19:16Z</time>
      </trkpt>
      <trkpt lat="43.52159" lon="-1.50329">
        <ele>6.8</ele>
        <time>2021-07-18T12:19:18Z</time>
      </trkpt>
      <trkpt lat="43.52155" lon="-1.50324">
        <ele>6.7</ele>
        <time>2021-07-18T12:19:19Z</time>
      </trkpt>
      <trkpt lat="43.52146" lon="-1.50316">
        <ele>6.3</ele>
        <time>2021-07-18T12:19:21Z</time>
      </trkpt>
      <trkpt lat="43.52141" lon="-1.50311">
        <ele>6.1</ele>
        <time>2021-07-18T12:19:22Z</time>
      </trkpt>
      <trkpt lat="43.52133" lon="-1.503">
        <ele>5.8</ele>
        <time>2021-07-18T12:19:24Z</time>
      </trkpt>
      <trkpt lat="43.52128" lon="-1.50294">
        <ele>5.6</ele>
        <time>2021-07-18T12:19:25Z</time>
      </trkpt>
      <trkpt lat="43.52121" lon="-1.50282">
        <ele>5.4</ele>
        <time>2021-07-18T12:19:27Z</time>
      </trkpt>
      <trkpt lat="43.52116" lon="-1.50278">
        <ele>5.3</ele>
        <time>2021-07-18T12:19:28Z</time>
      </trkpt>
      <trkpt lat="43.52105" lon="-1.50276">
        <ele>5.1</ele>
        <time>2021-07-18T12:19:30Z</time>
      </trkpt>
      <trkpt lat="43.52096" lon="-1.50271">
        <ele>4.9</ele>
        <time>2021-07-18T12:19:32Z</time>
      </trkpt>
      <trkpt lat="43.52086" lon="-1.50263">
        <ele>4.8</ele>
        <time>2021-07-18T12:19:34Z</time>
      </trkpt>
      <trkpt lat="43.5208" lon="-1.50259">
        <ele>4.7</ele>
        <time>2021-07-18T12:19:35Z</time>
      </trkpt>
      <trkpt lat="43.52075" lon="-1.50255">
        <ele>4.7</ele>
        <time>2021-07-18T12:19:36Z</time>
      </trkpt>
      <trkpt lat="43.52064" lon="-1.50248">
        <ele>4.6</ele>
        <time>2021-07-18T12:19:38Z</time>
      </trkpt>
      <trkpt lat="43.52054" lon="-1.50239">
        <ele>4.6</ele>
        <time>2021-07-18T12:19:40Z</time>
      </trkpt>
      <trkpt lat="43.52043" lon="-1.50229">
        <ele>4.6</ele>
        <time>2021-07-18T12:19:42Z</time>
      </trkpt>
      <trkpt lat="43.52038" lon="-1.50225">
        <ele>4.5</ele>
        <time>2021-07-18T12:19:43Z</time>
      </trkpt>
      <trkpt lat="43.52028" lon="-1.50219">
        <ele>4.5</ele>
        <time>2021-07-18T12:19:45Z</time>
      </trkpt>
      <trkpt lat="43.52019" lon="-1.50212">
        <ele>4.5</ele>
        <time>2021-07-18T12:19:47Z</time>
      </trkpt>
      <trkpt lat="43.52014" lon="-1.50209">
        <ele>4.5</ele>
        <time>2021-07-18T12:19:48Z</time>
      </trkpt>
      <trkpt lat="43.5201" lon="-1.50205">
        <ele>4.5</ele>
        <time>2021-07-18T12:19:49Z</time>
      </trkpt>
      <trkpt lat="43.52001" lon="-1.50197">
        <ele>4.5</ele>
        <time>2021-07-18T12:19:51Z</time>
      </trkpt>
      <trkpt lat="43.51996" lon="-1.50193">
        <ele>4.5</ele>
        <time>2021-07-18T12:19:52Z</time>
      </trkpt>
      <trkpt lat="43.51987" lon="-1.50187">
        <ele>4.5</ele>
        <time>2021-07-18T12:19:54Z</time>
      </trkpt>
      <trkpt lat="43.51977" lon="-1.50183">
        <ele>4.5</ele>
        <time>2021-07-18T12:19:56Z</time>
      </trkpt>
      <trkpt lat="43.51967" lon="-1.50178">
        <ele>4.5</ele>
        <time>2021-07-18T12:19:58Z</time>
      </trkpt>
      <trkpt lat="43.51957" lon="-1.50175">
        <ele>4.5</ele>
        <time>2021-07-18T12:20:00Z</time>
      </trkpt>
      <trkpt lat="43.51952" lon="-1.50174">
        <ele>4.5</ele>
        <time>2021-07-18T12:20:01Z</time>
      </trkpt>
      <trkpt lat="43.51942" lon="-1.50173">
        <ele>4.5</ele>
        <time>2021-07-18T12:20:03Z</time>
      </trkpt>
      <trkpt lat="43.51933" lon="-1.50172">
        <ele>4.5</ele>
        <time>2021-07-18T12:20:05Z</time>
      </trkpt>
      <trkpt lat="43.51928" lon="-1.50172">
        <ele>4.5</ele>
        <time>2021-07-18T12:20:06Z</time>
      </trkpt>
      <trkpt lat="43.51919" lon="-1.50171">
        <ele>4.5</ele>
        <time>2021-07-18T12:20:08Z</time>
      </trkpt>
      <trkpt lat="43.51914" lon="-1.50171">
        <ele>4.5</ele>
        <time>2021-07-18T12:20:09Z</time>
      </trkpt>
      <trkpt lat="43.5191" lon="-1.50171">
        <ele>4.5</ele>
        <time>2021-07-18T12:20:10Z</time>
      </trkpt>
      <trkpt lat="43.51901" lon="-1.50171">
        <ele>4.5</ele>
        <time>2021-07-18T12:20:12Z</time>
      </trkpt>
      <trkpt lat="43.51893" lon="-1.50171">
        <ele>4.5</ele>
        <time>2021-07-18T12:20:14Z</time>
      </trkpt>
      <trkpt lat="43.51884" lon="-1.50171">
        <ele>4.5</ele>
        <time>2021-07-18T12:20:16Z</time>
      </trkpt>
      <trkpt lat="43.51875" lon="-1.50171">
        <ele>4.5</ele>
        <time>2021-07-18T12:20:18Z</time>
      </trkpt>
      <trkpt lat="43.5187" lon="-1.50171">
        <ele>4.5</ele>
        <time>2021-07-18T12:20:19Z</time>
      </trkpt>
      <trkpt lat="43.5186" lon="-1.5017">
        <ele>4.5</ele>
        <time>2021-07-18T12:20:21Z</time>
      </trkpt>
      <trkpt lat="43.51856" lon="-1.5017">
        <ele>4.5</ele>
        <time>2021-07-18T12:20:22Z</time>
      </trkpt>
      <trkpt lat="43.51846" lon="-1.50171">
        <ele>4.5</ele>
        <time>2021-07-18T12:20:24Z</time>
      </trkpt>
      <trkpt lat="43.51836" lon="-1.50171">
        <ele>4.5</ele>
        <time>2021-07-18T12:20:26Z</time>
      </trkpt>
      <trkpt lat="43.51827" lon="-1.50171">
        <ele>4.5</ele>
        <time>2021-07-18T12:20:28Z</time>
      </trkpt>
      <trkpt lat="43.51823" lon="-1.50171">
        <ele>4.5</ele>
        <time>2021-07-18T12:20:29Z</time>
      </trkpt>
      <trkpt lat="43.51813" lon="-1.50171">
        <ele>4.5</ele>
        <time>2021-07-18T12:20:31Z</time>
      </trkpt>
      <trkpt lat="43.51808" lon="-1.5017">
        <ele>4.5</ele>
        <time>2021-07-18T12:20:32Z</time>
      </trkpt>
      <trkpt lat="43.51798" lon="-1.5017">
        <ele>4.5</ele>
        <time>2021-07-18T12:20:34Z</time>
      </trkpt>
      <trkpt lat="43.51791" lon="-1.50169">
        <ele>4.5</ele>
        <time>2021-07-18T12:20:35Z</time>
      </trkpt>
      <trkpt lat="43.51783" lon="-1.50167">
        <ele>4.5</ele>
        <time>2021-07-18T12:20:37Z</time>
      </trkpt>
      <trkpt lat="43.51779" lon="-1.50167">
        <ele>4.5</ele>
        <time>2021-07-18T12:20:38Z</time>
      </trkpt>
      <trkpt lat="43.5177" lon="-1.50167">
        <ele>4.5</ele>
        <time>2021-07-18T12:20:40Z</time>
      </trkpt>
      <trkpt lat="43.51765" lon="-1.50167">
        <ele>4.5</ele>
        <time>2021-07-18T12:20:41Z</time>
      </trkpt>
      <trkpt lat="43.51755" lon="-1.50166">
        <ele>4.5</ele>
        <time>2021-07-18T12:20:43Z</time>
      </trkpt>
      <trkpt lat="43.51751" lon="-1.50166">
        <ele>4.4</ele>
        <time>2021-07-18T12:20:44Z</time>
      </trkpt>
      <trkpt lat="43.51742" lon="-1.50165">
        <ele>4.4</ele>
        <time>2021-07-18T12:20:46Z</time>
      </trkpt>
      <trkpt lat="43.51733" lon="-1.50165">
        <ele>4.4</ele>
        <time>2021-07-18T12:20:48Z</time>
      </trkpt>
      <trkpt lat="43.51724" lon="-1.50165">
        <ele>4.3</ele>
        <time>2021-07-18T12:20:50Z</time>
      </trkpt>
      <trkpt lat="43.51714" lon="-1.50164">
        <ele>4.3</ele>
        <time>2021-07-18T12:20:52Z</time>
      </trkpt>
      <trkpt lat="43.51704" lon="-1.50164">
        <ele>4.3</ele>
        <time>2021-07-18T12:20:54Z</time>
      </trkpt>
      <trkpt lat="43.51693" lon="-1.50163">
        <ele>4.3</ele>
        <time>2021-07-18T12:20:56Z</time>
      </trkpt>
      <trkpt lat="43.51685" lon="-1.50163">
        <ele>4.3</ele>
        <time>2021-07-18T12:20:58Z</time>
      </trkpt>
      <trkpt lat="43.51675" lon="-1.50162">
        <ele>4.3</ele>
        <time>2021-07-18T12:21:00Z</time>
      </trkpt>
      <trkpt lat="43.51671" lon="-1.50163">
        <ele>4.4</ele>
        <time>2021-07-18T12:21:01Z</time>
      </trkpt>
      <trkpt lat="43.51666" lon="-1.50163">
        <ele>4.4</ele>
        <time>2021-07-18T12:21:02Z</time>
      </trkpt>
      <trkpt lat="43.51659" lon="-1.50163">
        <ele>4.4</ele>
        <time>2021-07-18T12:21:04Z</time>
      </trkpt>
      <trkpt lat="43.5165" lon="-1.50162">
        <ele>4.5</ele>
        <time>2021-07-18T12:21:06Z</time>
      </trkpt>
      <trkpt lat="43.51646" lon="-1.50161">
        <ele>4.5</ele>
        <time>2021-07-18T12:21:07Z</time>
      </trkpt>
      <trkpt lat="43.51641" lon="-1.50161">
        <ele>4.5</ele>
        <time>2021-07-18T12:21:08Z</time>
      </trkpt>
      <trkpt lat="43.51633" lon="-1.50158">
        <ele>4.5</ele>
        <time>2021-07-18T12:21:09Z</time>
      </trkpt>
      <trkpt lat="43.51626" lon="-1.50156">
        <ele>4.6</ele>
        <time>2021-07-18T12:21:11Z</time>
      </trkpt>
      <trkpt lat="43.51622" lon="-1.50154">
        <ele>4.6</ele>
        <time>2021-07-18T12:21:12Z</time>
      </trkpt>
      <trkpt lat="43.51611" lon="-1.50149">
        <ele>4.6</ele>
        <time>2021-07-18T12:21:14Z</time>
      </trkpt>
      <trkpt lat="43.51607" lon="-1.50148">
        <ele>4.5</ele>
        <time>2021-07-18T12:21:15Z</time>
      </trkpt>
      <trkpt lat="43.51599" lon="-1.50144">
        <ele>4.5</ele>
        <time>2021-07-18T12:21:17Z</time>
      </trkpt>
      <trkpt lat="43.5159" lon="-1.5014">
        <ele>4.5</ele>
        <time>2021-07-18T12:21:19Z</time>
      </trkpt>
      <trkpt lat="43.51582" lon="-1.50135">
        <ele>4.5</ele>
        <time>2021-07-18T12:21:21Z</time>
      </trkpt>
      <trkpt lat="43.51577" lon="-1.50133">
        <ele>4.5</ele>
        <time>2021-07-18T12:21:22Z</time>
      </trkpt>
      <trkpt lat="43.51568" lon="-1.50128">
        <ele>4.6</ele>
        <time>2021-07-18T12:21:24Z</time>
      </trkpt>
      <trkpt lat="43.51563" lon="-1.50126">
        <ele>4.6</ele>
        <time>2021-07-18T12:21:25Z</time>
      </trkpt>
      <trkpt lat="43.51554" lon="-1.50121">
        <ele>4.5</ele>
        <time>2021-07-18T12:21:27Z</time>
      </trkpt>
      <trkpt lat="43.51549" lon="-1.50118">
        <ele>4.5</ele>
        <time>2021-07-18T12:21:28Z</time>
      </trkpt>
      <trkpt lat="43.51539" lon="-1.50114">
        <ele>4.5</ele>
        <time>2021-07-18T12:21:30Z</time>
      </trkpt>
      <trkpt lat="43.51535" lon="-1.50112">
        <ele>4.5</ele>
        <time>2021-07-18T12:21:31Z</time>
      </trkpt>
      <trkpt lat="43.51524" lon="-1.50109">
        <ele>4.5</ele>
        <time>2021-07-18T12:21:33Z</time>
      </trkpt>
      <trkpt lat="43.51512" lon="-1.50105">
        <ele>4.5</ele>
        <time>2021-07-18T12:21:35Z</time>
      </trkpt>
      <trkpt lat="43.51508" lon="-1.50102">
        <ele>4.5</ele>
        <time>2021-07-18T12:21:36Z</time>
      </trkpt>
      <trkpt lat="43.51497" lon="-1.50099">
        <ele>4.5</ele>
        <time>2021-07-18T12:21:38Z</time>
      </trkpt>
      <trkpt lat="43.51487" lon="-1.50094">
        <ele>4.5</ele>
        <time>2021-07-18T12:21:40Z</time>
      </trkpt>
      <trkpt lat="43.51482" lon="-1.50091">
        <ele>4.5</ele>
        <time>2021-07-18T12:21:41Z</time>
      </trkpt>
      <trkpt lat="43.51472" lon="-1.50086">
        <ele>4.5</ele>
        <time>2021-07-18T12:21:43Z</time>
      </trkpt>
      <trkpt lat="43.51462" lon="-1.50082">
        <ele>4.5</ele>
        <time>2021-07-18T12:21:45Z</time>
      </trkpt>
      <trkpt lat="43.51457" lon="-1.50079">
        <ele>4.6</ele>
        <time>2021-07-18T12:21:46Z</time>
      </trkpt>
      <trkpt lat="43.51451" lon="-1.50076">
        <ele>4.6</ele>
        <time>2021-07-18T12:21:47Z</time>
      </trkpt>
      <trkpt lat="43.51446" lon="-1.50072">
        <ele>4.6</ele>
        <time>2021-07-18T12:21:48Z</time>
      </trkpt>
      <trkpt lat="43.51441" lon="-1.50069">
        <ele>4.6</ele>
        <time>2021-07-18T12:21:49Z</time>
      </trkpt>
      <trkpt lat="43.51431" lon="-1.50065">
        <ele>4.6</ele>
        <time>2021-07-18T12:21:51Z</time>
      </trkpt>
      <trkpt lat="43.51426" lon="-1.50062">
        <ele>4.7</ele>
        <time>2021-07-18T12:21:52Z</time>
      </trkpt>
      <trkpt lat="43.51417" lon="-1.50058">
        <ele>4.7</ele>
        <time>2021-07-18T12:21:54Z</time>
      </trkpt>
      <trkpt lat="43.51407" lon="-1.50053">
        <ele>4.6</ele>
        <time>2021-07-18T12:21:56Z</time>
      </trkpt>
      <trkpt lat="43.51403" lon="-1.50051">
        <ele>4.7</ele>
        <time>2021-07-18T12:21:57Z</time>
      </trkpt>
      <trkpt lat="43.51394" lon="-1.50047">
        <ele>4.7</ele>
        <time>2021-07-18T12:21:59Z</time>
      </trkpt>
      <trkpt lat="43.51389" lon="-1.50044">
        <ele>4.7</ele>
        <time>2021-07-18T12:22:00Z</time>
      </trkpt>
      <trkpt lat="43.5138" lon="-1.50038">
        <ele>4.7</ele>
        <time>2021-07-18T12:22:02Z</time>
      </trkpt>
      <trkpt lat="43.5137" lon="-1.50034">
        <ele>4.7</ele>
        <time>2021-07-18T12:22:04Z</time>
      </trkpt>
      <trkpt lat="43.51366" lon="-1.50032">
        <ele>4.7</ele>
        <time>2021-07-18T12:22:05Z</time>
      </trkpt>
      <trkpt lat="43.51361" lon="-1.5003">
        <ele>4.7</ele>
        <time>2021-07-18T12:22:06Z</time>
      </trkpt>
      <trkpt lat="43.51351" lon="-1.50026">
        <ele>4.6</ele>
        <time>2021-07-18T12:22:08Z</time>
      </trkpt>
      <trkpt lat="43.51342" lon="-1.50024">
        <ele>4.6</ele>
        <time>2021-07-18T12:22:10Z</time>
      </trkpt>
      <trkpt lat="43.51336" lon="-1.50023">
        <ele>4.6</ele>
        <time>2021-07-18T12:22:11Z</time>
      </trkpt>
      <trkpt lat="43.51326" lon="-1.50019">
        <ele>4.6</ele>
        <time>2021-07-18T12:22:13Z</time>
      </trkpt>
      <trkpt lat="43.51318" lon="-1.50016">
        <ele>4.7</ele>
        <time>2021-07-18T12:22:14Z</time>
      </trkpt>
      <trkpt lat="43.51314" lon="-1.50015">
        <ele>4.7</ele>
        <time>2021-07-18T12:22:15Z</time>
      </trkpt>
      <trkpt lat="43.51305" lon="-1.50013">
        <ele>4.7</ele>
        <time>2021-07-18T12:22:17Z</time>
      </trkpt>
      <trkpt lat="43.51295" lon="-1.50012">
        <ele>4.7</ele>
        <time>2021-07-18T12:22:19Z</time>
      </trkpt>
      <trkpt lat="43.5129" lon="-1.50012">
        <ele>4.8</ele>
        <time>2021-07-18T12:22:20Z</time>
      </trkpt>
      <trkpt lat="43.51282" lon="-1.50009">
        <ele>4.8</ele>
        <time>2021-07-18T12:22:22Z</time>
      </trkpt>
      <trkpt lat="43.51279" lon="-1.50004">
        <ele>4.8</ele>
        <time>2021-07-18T12:22:23Z</time>
      </trkpt>
      <trkpt lat="43.51277" lon="-1.50001">
        <ele>4.9</ele>
        <time>2021-07-18T12:22:24Z</time>
      </trkpt>
      <trkpt lat="43.51273" lon="-1.49999">
        <ele>4.9</ele>
        <time>2021-07-18T12:22:25Z</time>
      </trkpt>
      <trkpt lat="43.51263" lon="-1.49996">
        <ele>4.9</ele>
        <time>2021-07-18T12:22:27Z</time>
      </trkpt>
      <trkpt lat="43.51258" lon="-1.49995">
        <ele>4.9</ele>
        <time>2021-07-18T12:22:28Z</time>
      </trkpt>
      <trkpt lat="43.51245" lon="-1.4999">
        <ele>5</ele>
        <time>2021-07-18T12:22:30Z</time>
      </trkpt>
      <trkpt lat="43.51241" lon="-1.49989">
        <ele>5</ele>
        <time>2021-07-18T12:22:31Z</time>
      </trkpt>
      <trkpt lat="43.51235" lon="-1.49988">
        <ele>5</ele>
        <time>2021-07-18T12:22:33Z</time>
      </trkpt>
      <trkpt lat="43.51229" lon="-1.49989">
        <ele>5</ele>
        <time>2021-07-18T12:22:35Z</time>
      </trkpt>
      <trkpt lat="43.51225" lon="-1.49991">
        <ele>5</ele>
        <time>2021-07-18T12:22:36Z</time>
      </trkpt>
      <trkpt lat="43.51219" lon="-1.49992">
        <ele>5</ele>
        <time>2021-07-18T12:22:37Z</time>
      </trkpt>
      <trkpt lat="43.51206" lon="-1.49995">
        <ele>5</ele>
        <time>2021-07-18T12:22:39Z</time>
      </trkpt>
      <trkpt lat="43.51203" lon="-1.49995">
        <ele>5</ele>
        <time>2021-07-18T12:22:40Z</time>
      </trkpt>
      <trkpt lat="43.51198" lon="-1.49996">
        <ele>5</ele>
        <time>2021-07-18T12:22:41Z</time>
      </trkpt>
      <trkpt lat="43.51193" lon="-1.49997">
        <ele>5</ele>
        <time>2021-07-18T12:22:43Z</time>
      </trkpt>
      <trkpt lat="43.51188" lon="-1.49998">
        <ele>5.1</ele>
        <time>2021-07-18T12:22:44Z</time>
      </trkpt>
      <trkpt lat="43.51181" lon="-1.5">
        <ele>5.1</ele>
        <time>2021-07-18T12:22:45Z</time>
      </trkpt>
      <trkpt lat="43.51174" lon="-1.50002">
        <ele>5.1</ele>
        <time>2021-07-18T12:22:47Z</time>
      </trkpt>
      <trkpt lat="43.51168" lon="-1.50002">
        <ele>5.2</ele>
        <time>2021-07-18T12:22:49Z</time>
      </trkpt>
      <trkpt lat="43.51163" lon="-1.50002">
        <ele>5.2</ele>
        <time>2021-07-18T12:22:50Z</time>
      </trkpt>
      <trkpt lat="43.51159" lon="-1.50004">
        <ele>5.2</ele>
        <time>2021-07-18T12:22:51Z</time>
      </trkpt>
      <trkpt lat="43.51154" lon="-1.50003">
        <ele>5.2</ele>
        <time>2021-07-18T12:22:52Z</time>
      </trkpt>
      <trkpt lat="43.51152" lon="-1.49996">
        <ele>5.2</ele>
        <time>2021-07-18T12:22:54Z</time>
      </trkpt>
      <trkpt lat="43.51152" lon="-1.49989">
        <ele>5.2</ele>
        <time>2021-07-18T12:22:55Z</time>
      </trkpt>
      <trkpt lat="43.51152" lon="-1.49973">
        <ele>5.1</ele>
        <time>2021-07-18T12:22:57Z</time>
      </trkpt>
      <trkpt lat="43.51151" lon="-1.49966">
        <ele>5.1</ele>
        <time>2021-07-18T12:22:58Z</time>
      </trkpt>
      <trkpt lat="43.51149" lon="-1.49962">
        <ele>5.1</ele>
        <time>2021-07-18T12:23:00Z</time>
      </trkpt>
      <trkpt lat="43.51145" lon="-1.49961">
        <ele>5.1</ele>
        <time>2021-07-18T12:23:01Z</time>
      </trkpt>
      <trkpt lat="43.51142" lon="-1.49964">
        <ele>5.1</ele>
        <time>2021-07-18T12:23:02Z</time>
      </trkpt>
      <trkpt lat="43.51137" lon="-1.49965">
        <ele>5</ele>
        <time>2021-07-18T12:23:03Z</time>
      </trkpt>
      <trkpt lat="43.51132" lon="-1.49966">
        <ele>5</ele>
        <time>2021-07-18T12:23:04Z</time>
      </trkpt>
      <trkpt lat="43.51128" lon="-1.49967">
        <ele>5</ele>
        <time>2021-07-18T12:23:05Z</time>
      </trkpt>
      <trkpt lat="43.5112" lon="-1.49969">
        <ele>5</ele>
        <time>2021-07-18T12:23:07Z</time>
      </trkpt>
      <trkpt lat="43.51115" lon="-1.4997">
        <ele>5</ele>
        <time>2021-07-18T12:23:08Z</time>
      </trkpt>
      <trkpt lat="43.51107" lon="-1.49973">
        <ele>5</ele>
        <time>2021-07-18T12:23:10Z</time>
      </trkpt>
      <trkpt lat="43.51103" lon="-1.49974">
        <ele>5</ele>
        <time>2021-07-18T12:23:11Z</time>
      </trkpt>
      <trkpt lat="43.51099" lon="-1.49976">
        <ele>5</ele>
        <time>2021-07-18T12:23:12Z</time>
      </trkpt>
      <trkpt lat="43.51093" lon="-1.49978">
        <ele>5</ele>
        <time>2021-07-18T12:23:13Z</time>
      </trkpt>
      <trkpt lat="43.51088" lon="-1.49979">
        <ele>5.1</ele>
        <time>2021-07-18T12:23:14Z</time>
      </trkpt>
      <trkpt lat="43.5108" lon="-1.49976">
        <ele>5.1</ele>
        <time>2021-07-18T12:23:16Z</time>
      </trkpt>
      <trkpt lat="43.51076" lon="-1.49975">
        <ele>5.1</ele>
        <time>2021-07-18T12:23:17Z</time>
      </trkpt>
      <trkpt lat="43.51068" lon="-1.49972">
        <ele>5.2</ele>
        <time>2021-07-18T12:23:19Z</time>
      </trkpt>
      <trkpt lat="43.5106" lon="-1.49972">
        <ele>5.2</ele>
        <time>2021-07-18T12:23:20Z</time>
      </trkpt>
      <trkpt lat="43.51057" lon="-1.49972">
        <ele>5.2</ele>
        <time>2021-07-18T12:23:21Z</time>
      </trkpt>
      <trkpt lat="43.51051" lon="-1.4997">
        <ele>5.2</ele>
        <time>2021-07-18T12:23:23Z</time>
      </trkpt>
      <trkpt lat="43.51046" lon="-1.49967">
        <ele>5.2</ele>
        <time>2021-07-18T12:23:24Z</time>
      </trkpt>
      <trkpt lat="43.51042" lon="-1.49964">
        <ele>5.1</ele>
        <time>2021-07-18T12:23:25Z</time>
      </trkpt>
      <trkpt lat="43.51038" lon="-1.49961">
        <ele>5.1</ele>
        <time>2021-07-18T12:23:26Z</time>
      </trkpt>
      <trkpt lat="43.51034" lon="-1.49958">
        <ele>5.1</ele>
        <time>2021-07-18T12:23:28Z</time>
      </trkpt>
      <trkpt lat="43.5103" lon="-1.49955">
        <ele>5.1</ele>
        <time>2021-07-18T12:23:29Z</time>
      </trkpt>
      <trkpt lat="43.51025" lon="-1.49951">
        <ele>5</ele>
        <time>2021-07-18T12:23:30Z</time>
      </trkpt>
      <trkpt lat="43.5102" lon="-1.49945">
        <ele>5</ele>
        <time>2021-07-18T12:23:32Z</time>
      </trkpt>
      <trkpt lat="43.51016" lon="-1.49933">
        <ele>4.9</ele>
        <time>2021-07-18T12:23:33Z</time>
      </trkpt>
      <trkpt lat="43.51016" lon="-1.49927">
        <ele>4.9</ele>
        <time>2021-07-18T12:23:34Z</time>
      </trkpt>
      <trkpt lat="43.51014" lon="-1.49918">
        <ele>4.8</ele>
        <time>2021-07-18T12:23:36Z</time>
      </trkpt>
      <trkpt lat="43.51014" lon="-1.49911">
        <ele>4.8</ele>
        <time>2021-07-18T12:23:37Z</time>
      </trkpt>
      <trkpt lat="43.51013" lon="-1.49904">
        <ele>4.8</ele>
        <time>2021-07-18T12:23:38Z</time>
      </trkpt>
      <trkpt lat="43.51011" lon="-1.49894">
        <ele>4.7</ele>
        <time>2021-07-18T12:23:40Z</time>
      </trkpt>
      <trkpt lat="43.51004" lon="-1.49888">
        <ele>4.7</ele>
        <time>2021-07-18T12:23:41Z</time>
      </trkpt>
      <trkpt lat="43.50999" lon="-1.49886">
        <ele>4.6</ele>
        <time>2021-07-18T12:23:42Z</time>
      </trkpt>
      <trkpt lat="43.50989" lon="-1.49887">
        <ele>4.6</ele>
        <time>2021-07-18T12:23:44Z</time>
      </trkpt>
      <trkpt lat="43.50982" lon="-1.49888">
        <ele>4.6</ele>
        <time>2021-07-18T12:23:46Z</time>
      </trkpt>
      <trkpt lat="43.50978" lon="-1.49886">
        <ele>4.6</ele>
        <time>2021-07-18T12:23:47Z</time>
      </trkpt>
      <trkpt lat="43.5097" lon="-1.49891">
        <ele>4.6</ele>
        <time>2021-07-18T12:23:49Z</time>
      </trkpt>
      <trkpt lat="43.50963" lon="-1.49897">
        <ele>4.6</ele>
        <time>2021-07-18T12:23:50Z</time>
      </trkpt>
      <trkpt lat="43.50959" lon="-1.49899">
        <ele>4.6</ele>
        <time>2021-07-18T12:23:52Z</time>
      </trkpt>
      <trkpt lat="43.50951" lon="-1.49898">
        <ele>4.6</ele>
        <time>2021-07-18T12:23:53Z</time>
      </trkpt>
      <trkpt lat="43.50947" lon="-1.49896">
        <ele>4.6</ele>
        <time>2021-07-18T12:23:54Z</time>
      </trkpt>
      <trkpt lat="43.50941" lon="-1.49893">
        <ele>4.6</ele>
        <time>2021-07-18T12:23:56Z</time>
      </trkpt>
      <trkpt lat="43.50935" lon="-1.49888">
        <ele>4.5</ele>
        <time>2021-07-18T12:23:57Z</time>
      </trkpt>
      <trkpt lat="43.50928" lon="-1.49883">
        <ele>4.4</ele>
        <time>2021-07-18T12:23:59Z</time>
      </trkpt>
      <trkpt lat="43.50921" lon="-1.4988">
        <ele>4.4</ele>
        <time>2021-07-18T12:24:01Z</time>
      </trkpt>
      <trkpt lat="43.50913" lon="-1.49874">
        <ele>4.3</ele>
        <time>2021-07-18T12:24:03Z</time>
      </trkpt>
      <trkpt lat="43.50908" lon="-1.49869">
        <ele>4.2</ele>
        <time>2021-07-18T12:24:04Z</time>
      </trkpt>
      <trkpt lat="43.509" lon="-1.49863">
        <ele>4.2</ele>
        <time>2021-07-18T12:24:06Z</time>
      </trkpt>
      <trkpt lat="43.50891" lon="-1.49856">
        <ele>4.2</ele>
        <time>2021-07-18T12:24:08Z</time>
      </trkpt>
      <trkpt lat="43.50883" lon="-1.4985">
        <ele>4.2</ele>
        <time>2021-07-18T12:24:10Z</time>
      </trkpt>
      <trkpt lat="43.50874" lon="-1.49843">
        <ele>4.1</ele>
        <time>2021-07-18T12:24:12Z</time>
      </trkpt>
      <trkpt lat="43.50865" lon="-1.49837">
        <ele>4.1</ele>
        <time>2021-07-18T12:24:14Z</time>
      </trkpt>
      <trkpt lat="43.5086" lon="-1.49834">
        <ele>4.1</ele>
        <time>2021-07-18T12:24:15Z</time>
      </trkpt>
      <trkpt lat="43.50856" lon="-1.49831">
        <ele>4.1</ele>
        <time>2021-07-18T12:24:16Z</time>
      </trkpt>
      <trkpt lat="43.50847" lon="-1.49824">
        <ele>4</ele>
        <time>2021-07-18T12:24:18Z</time>
      </trkpt>
      <trkpt lat="43.50838" lon="-1.49817">
        <ele>4</ele>
        <time>2021-07-18T12:24:20Z</time>
      </trkpt>
      <trkpt lat="43.50833" lon="-1.49813">
        <ele>4</ele>
        <time>2021-07-18T12:24:21Z</time>
      </trkpt>
      <trkpt lat="43.50825" lon="-1.49807">
        <ele>4.1</ele>
        <time>2021-07-18T12:24:23Z</time>
      </trkpt>
      <trkpt lat="43.50816" lon="-1.49801">
        <ele>4.1</ele>
        <time>2021-07-18T12:24:25Z</time>
      </trkpt>
      <trkpt lat="43.50811" lon="-1.49798">
        <ele>4.1</ele>
        <time>2021-07-18T12:24:26Z</time>
      </trkpt>
      <trkpt lat="43.50802" lon="-1.49791">
        <ele>4.1</ele>
        <time>2021-07-18T12:24:28Z</time>
      </trkpt>
      <trkpt lat="43.50798" lon="-1.49787">
        <ele>4.1</ele>
        <time>2021-07-18T12:24:29Z</time>
      </trkpt>
      <trkpt lat="43.50787" lon="-1.49779">
        <ele>4.1</ele>
        <time>2021-07-18T12:24:31Z</time>
      </trkpt>
      <trkpt lat="43.50783" lon="-1.49776">
        <ele>4.1</ele>
        <time>2021-07-18T12:24:32Z</time>
      </trkpt>
      <trkpt lat="43.50779" lon="-1.49772">
        <ele>4.1</ele>
        <time>2021-07-18T12:24:33Z</time>
      </trkpt>
      <trkpt lat="43.50775" lon="-1.49768">
        <ele>4.1</ele>
        <time>2021-07-18T12:24:34Z</time>
      </trkpt>
      <trkpt lat="43.50766" lon="-1.4976">
        <ele>4.1</ele>
        <time>2021-07-18T12:24:36Z</time>
      </trkpt>
      <trkpt lat="43.50757" lon="-1.49751">
        <ele>4.2</ele>
        <time>2021-07-18T12:24:38Z</time>
      </trkpt>
      <trkpt lat="43.50748" lon="-1.49743">
        <ele>4.3</ele>
        <time>2021-07-18T12:24:40Z</time>
      </trkpt>
      <trkpt lat="43.50744" lon="-1.4974">
        <ele>4.3</ele>
        <time>2021-07-18T12:24:41Z</time>
      </trkpt>
      <trkpt lat="43.50735" lon="-1.49733">
        <ele>4.3</ele>
        <time>2021-07-18T12:24:43Z</time>
      </trkpt>
      <trkpt lat="43.50731" lon="-1.49729">
        <ele>4.2</ele>
        <time>2021-07-18T12:24:44Z</time>
      </trkpt>
      <trkpt lat="43.50724" lon="-1.49724">
        <ele>4.2</ele>
        <time>2021-07-18T12:24:46Z</time>
      </trkpt>
      <trkpt lat="43.50714" lon="-1.49717">
        <ele>4.2</ele>
        <time>2021-07-18T12:24:48Z</time>
      </trkpt>
      <trkpt lat="43.50709" lon="-1.49713">
        <ele>4.3</ele>
        <time>2021-07-18T12:24:49Z</time>
      </trkpt>
      <trkpt lat="43.50699" lon="-1.49706">
        <ele>4.3</ele>
        <time>2021-07-18T12:24:51Z</time>
      </trkpt>
      <trkpt lat="43.50694" lon="-1.49702">
        <ele>4.3</ele>
        <time>2021-07-18T12:24:52Z</time>
      </trkpt>
      <trkpt lat="43.50686" lon="-1.49695">
        <ele>4.3</ele>
        <time>2021-07-18T12:24:54Z</time>
      </trkpt>
      <trkpt lat="43.50679" lon="-1.49692">
        <ele>4.3</ele>
        <time>2021-07-18T12:24:56Z</time>
      </trkpt>
      <trkpt lat="43.50673" lon="-1.49689">
        <ele>4.4</ele>
        <time>2021-07-18T12:24:57Z</time>
      </trkpt>
      <trkpt lat="43.50667" lon="-1.49686">
        <ele>4.4</ele>
        <time>2021-07-18T12:24:58Z</time>
      </trkpt>
      <trkpt lat="43.50662" lon="-1.49682">
        <ele>4.4</ele>
        <time>2021-07-18T12:24:59Z</time>
      </trkpt>
      <trkpt lat="43.50651" lon="-1.49675">
        <ele>4.5</ele>
        <time>2021-07-18T12:25:01Z</time>
      </trkpt>
      <trkpt lat="43.50644" lon="-1.4967">
        <ele>4.5</ele>
        <time>2021-07-18T12:25:03Z</time>
      </trkpt>
      <trkpt lat="43.50641" lon="-1.49669">
        <ele>4.5</ele>
        <time>2021-07-18T12:25:04Z</time>
      </trkpt>
      <trkpt lat="43.50634" lon="-1.49663">
        <ele>4.5</ele>
        <time>2021-07-18T12:25:06Z</time>
      </trkpt>
      <trkpt lat="43.5063" lon="-1.49659">
        <ele>4.5</ele>
        <time>2021-07-18T12:25:07Z</time>
      </trkpt>
      <trkpt lat="43.50626" lon="-1.49656">
        <ele>4.5</ele>
        <time>2021-07-18T12:25:08Z</time>
      </trkpt>
      <trkpt lat="43.50615" lon="-1.49649">
        <ele>4.5</ele>
        <time>2021-07-18T12:25:10Z</time>
      </trkpt>
      <trkpt lat="43.50611" lon="-1.49647">
        <ele>4.5</ele>
        <time>2021-07-18T12:25:11Z</time>
      </trkpt>
      <trkpt lat="43.50608" lon="-1.49643">
        <ele>4.4</ele>
        <time>2021-07-18T12:25:12Z</time>
      </trkpt>
      <trkpt lat="43.50599" lon="-1.49636">
        <ele>4.4</ele>
        <time>2021-07-18T12:25:14Z</time>
      </trkpt>
      <trkpt lat="43.50591" lon="-1.4963">
        <ele>4.4</ele>
        <time>2021-07-18T12:25:16Z</time>
      </trkpt>
      <trkpt lat="43.50582" lon="-1.49623">
        <ele>4.5</ele>
        <time>2021-07-18T12:25:18Z</time>
      </trkpt>
      <trkpt lat="43.50577" lon="-1.4962">
        <ele>4.5</ele>
        <time>2021-07-18T12:25:19Z</time>
      </trkpt>
      <trkpt lat="43.50569" lon="-1.49615">
        <ele>4.5</ele>
        <time>2021-07-18T12:25:21Z</time>
      </trkpt>
      <trkpt lat="43.50562" lon="-1.49609">
        <ele>4.5</ele>
        <time>2021-07-18T12:25:23Z</time>
      </trkpt>
      <trkpt lat="43.5056" lon="-1.49607">
        <ele>4.5</ele>
        <time>2021-07-18T12:25:24Z</time>
      </trkpt>
      <trkpt lat="43.50551" lon="-1.49601">
        <ele>4.6</ele>
        <time>2021-07-18T12:25:26Z</time>
      </trkpt>
      <trkpt lat="43.50546" lon="-1.49597">
        <ele>4.6</ele>
        <time>2021-07-18T12:25:27Z</time>
      </trkpt>
      <trkpt lat="43.50538" lon="-1.4959">
        <ele>4.6</ele>
        <time>2021-07-18T12:25:29Z</time>
      </trkpt>
      <trkpt lat="43.50532" lon="-1.49584">
        <ele>4.6</ele>
        <time>2021-07-18T12:25:30Z</time>
      </trkpt>
      <trkpt lat="43.50528" lon="-1.49581">
        <ele>4.6</ele>
        <time>2021-07-18T12:25:31Z</time>
      </trkpt>
      <trkpt lat="43.50521" lon="-1.49575">
        <ele>4.6</ele>
        <time>2021-07-18T12:25:33Z</time>
      </trkpt>
      <trkpt lat="43.50517" lon="-1.49573">
        <ele>4.6</ele>
        <time>2021-07-18T12:25:34Z</time>
      </trkpt>
      <trkpt lat="43.50507" lon="-1.49566">
        <ele>4.6</ele>
        <time>2021-07-18T12:25:36Z</time>
      </trkpt>
      <trkpt lat="43.50499" lon="-1.4956">
        <ele>4.6</ele>
        <time>2021-07-18T12:25:38Z</time>
      </trkpt>
      <trkpt lat="43.50491" lon="-1.49554">
        <ele>4.7</ele>
        <time>2021-07-18T12:25:40Z</time>
      </trkpt>
      <trkpt lat="43.50488" lon="-1.49551">
        <ele>4.7</ele>
        <time>2021-07-18T12:25:41Z</time>
      </trkpt>
      <trkpt lat="43.50479" lon="-1.49546">
        <ele>4.7</ele>
        <time>2021-07-18T12:25:43Z</time>
      </trkpt>
      <trkpt lat="43.50471" lon="-1.49541">
        <ele>4.7</ele>
        <time>2021-07-18T12:25:45Z</time>
      </trkpt>
      <trkpt lat="43.50465" lon="-1.49538">
        <ele>4.6</ele>
        <time>2021-07-18T12:25:46Z</time>
      </trkpt>
      <trkpt lat="43.5046" lon="-1.49537">
        <ele>4.6</ele>
        <time>2021-07-18T12:25:47Z</time>
      </trkpt>
      <trkpt lat="43.50455" lon="-1.49535">
        <ele>4.6</ele>
        <time>2021-07-18T12:25:48Z</time>
      </trkpt>
      <trkpt lat="43.50442" lon="-1.49529">
        <ele>4.6</ele>
        <time>2021-07-18T12:25:50Z</time>
      </trkpt>
      <trkpt lat="43.50438" lon="-1.49528">
        <ele>4.6</ele>
        <time>2021-07-18T12:25:51Z</time>
      </trkpt>
      <trkpt lat="43.50429" lon="-1.49524">
        <ele>4.6</ele>
        <time>2021-07-18T12:25:53Z</time>
      </trkpt>
      <trkpt lat="43.50425" lon="-1.49521">
        <ele>4.6</ele>
        <time>2021-07-18T12:25:54Z</time>
      </trkpt>
      <trkpt lat="43.50416" lon="-1.49516">
        <ele>4.7</ele>
        <time>2021-07-18T12:25:56Z</time>
      </trkpt>
      <trkpt lat="43.50407" lon="-1.49512">
        <ele>4.7</ele>
        <time>2021-07-18T12:25:58Z</time>
      </trkpt>
      <trkpt lat="43.50403" lon="-1.4951">
        <ele>4.7</ele>
        <time>2021-07-18T12:25:59Z</time>
      </trkpt>
      <trkpt lat="43.50399" lon="-1.49508">
        <ele>4.7</ele>
        <time>2021-07-18T12:26:00Z</time>
      </trkpt>
      <trkpt lat="43.50391" lon="-1.49505">
        <ele>4.7</ele>
        <time>2021-07-18T12:26:02Z</time>
      </trkpt>
      <trkpt lat="43.50386" lon="-1.49503">
        <ele>4.7</ele>
        <time>2021-07-18T12:26:03Z</time>
      </trkpt>
      <trkpt lat="43.5038" lon="-1.495">
        <ele>4.7</ele>
        <time>2021-07-18T12:26:04Z</time>
      </trkpt>
      <trkpt lat="43.50377" lon="-1.49497">
        <ele>4.7</ele>
        <time>2021-07-18T12:26:06Z</time>
      </trkpt>
      <trkpt lat="43.50371" lon="-1.49494">
        <ele>4.8</ele>
        <time>2021-07-18T12:26:07Z</time>
      </trkpt>
      <trkpt lat="43.50362" lon="-1.4949">
        <ele>4.8</ele>
        <time>2021-07-18T12:26:09Z</time>
      </trkpt>
      <trkpt lat="43.5035" lon="-1.49482">
        <ele>4.7</ele>
        <time>2021-07-18T12:26:11Z</time>
      </trkpt>
      <trkpt lat="43.50346" lon="-1.49483">
        <ele>4.7</ele>
        <time>2021-07-18T12:26:12Z</time>
      </trkpt>
      <trkpt lat="43.50343" lon="-1.49482">
        <ele>4.7</ele>
        <time>2021-07-18T12:26:14Z</time>
      </trkpt>
      <trkpt lat="43.50338" lon="-1.49476">
        <ele>4.7</ele>
        <time>2021-07-18T12:26:15Z</time>
      </trkpt>
      <trkpt lat="43.50333" lon="-1.49469">
        <ele>4.7</ele>
        <time>2021-07-18T12:26:17Z</time>
      </trkpt>
      <trkpt lat="43.50328" lon="-1.49465">
        <ele>4.7</ele>
        <time>2021-07-18T12:26:18Z</time>
      </trkpt>
      <trkpt lat="43.50323" lon="-1.4946">
        <ele>4.8</ele>
        <time>2021-07-18T12:26:19Z</time>
      </trkpt>
      <trkpt lat="43.50317" lon="-1.49454">
        <ele>4.8</ele>
        <time>2021-07-18T12:26:21Z</time>
      </trkpt>
      <trkpt lat="43.50313" lon="-1.49449">
        <ele>4.7</ele>
        <time>2021-07-18T12:26:22Z</time>
      </trkpt>
      <trkpt lat="43.50305" lon="-1.49439">
        <ele>4.7</ele>
        <time>2021-07-18T12:26:24Z</time>
      </trkpt>
      <trkpt lat="43.50301" lon="-1.49436">
        <ele>4.6</ele>
        <time>2021-07-18T12:26:25Z</time>
      </trkpt>
      <trkpt lat="43.50296" lon="-1.49429">
        <ele>4.6</ele>
        <time>2021-07-18T12:26:27Z</time>
      </trkpt>
      <trkpt lat="43.50292" lon="-1.49423">
        <ele>4.6</ele>
        <time>2021-07-18T12:26:28Z</time>
      </trkpt>
      <trkpt lat="43.50282" lon="-1.49413">
        <ele>4.5</ele>
        <time>2021-07-18T12:26:30Z</time>
      </trkpt>
      <trkpt lat="43.50278" lon="-1.49409">
        <ele>4.5</ele>
        <time>2021-07-18T12:26:31Z</time>
      </trkpt>
      <trkpt lat="43.50269" lon="-1.49402">
        <ele>4.5</ele>
        <time>2021-07-18T12:26:33Z</time>
      </trkpt>
      <trkpt lat="43.50266" lon="-1.49397">
        <ele>4.5</ele>
        <time>2021-07-18T12:26:34Z</time>
      </trkpt>
      <trkpt lat="43.50257" lon="-1.49388">
        <ele>4.5</ele>
        <time>2021-07-18T12:26:36Z</time>
      </trkpt>
      <trkpt lat="43.50249" lon="-1.4938">
        <ele>4.5</ele>
        <time>2021-07-18T12:26:38Z</time>
      </trkpt>
      <trkpt lat="43.50242" lon="-1.49372">
        <ele>4.5</ele>
        <time>2021-07-18T12:26:40Z</time>
      </trkpt>
      <trkpt lat="43.50238" lon="-1.49367">
        <ele>4.5</ele>
        <time>2021-07-18T12:26:41Z</time>
      </trkpt>
      <trkpt lat="43.50231" lon="-1.49358">
        <ele>4.5</ele>
        <time>2021-07-18T12:26:43Z</time>
      </trkpt>
      <trkpt lat="43.50223" lon="-1.49349">
        <ele>4.5</ele>
        <time>2021-07-18T12:26:45Z</time>
      </trkpt>
      <trkpt lat="43.50215" lon="-1.4934">
        <ele>4.5</ele>
        <time>2021-07-18T12:26:47Z</time>
      </trkpt>
      <trkpt lat="43.50206" lon="-1.49331">
        <ele>4.4</ele>
        <time>2021-07-18T12:26:49Z</time>
      </trkpt>
      <trkpt lat="43.50202" lon="-1.49327">
        <ele>4.4</ele>
        <time>2021-07-18T12:26:50Z</time>
      </trkpt>
      <trkpt lat="43.50194" lon="-1.49317">
        <ele>4.4</ele>
        <time>2021-07-18T12:26:52Z</time>
      </trkpt>
      <trkpt lat="43.50186" lon="-1.49309">
        <ele>4.4</ele>
        <time>2021-07-18T12:26:54Z</time>
      </trkpt>
      <trkpt lat="43.50179" lon="-1.49301">
        <ele>4.4</ele>
        <time>2021-07-18T12:26:56Z</time>
      </trkpt>
      <trkpt lat="43.50175" lon="-1.49296">
        <ele>4.4</ele>
        <time>2021-07-18T12:26:57Z</time>
      </trkpt>
      <trkpt lat="43.50167" lon="-1.49287">
        <ele>4.4</ele>
        <time>2021-07-18T12:26:59Z</time>
      </trkpt>
      <trkpt lat="43.50163" lon="-1.49282">
        <ele>4.4</ele>
        <time>2021-07-18T12:27:00Z</time>
      </trkpt>
      <trkpt lat="43.50159" lon="-1.49278">
        <ele>4.4</ele>
        <time>2021-07-18T12:27:01Z</time>
      </trkpt>
      <trkpt lat="43.50151" lon="-1.49269">
        <ele>4.4</ele>
        <time>2021-07-18T12:27:03Z</time>
      </trkpt>
      <trkpt lat="43.50147" lon="-1.49264">
        <ele>4.4</ele>
        <time>2021-07-18T12:27:04Z</time>
      </trkpt>
      <trkpt lat="43.50139" lon="-1.49256">
        <ele>4.4</ele>
        <time>2021-07-18T12:27:06Z</time>
      </trkpt>
      <trkpt lat="43.50136" lon="-1.49252">
        <ele>4.4</ele>
        <time>2021-07-18T12:27:07Z</time>
      </trkpt>
      <trkpt lat="43.50128" lon="-1.49244">
        <ele>4.4</ele>
        <time>2021-07-18T12:27:09Z</time>
      </trkpt>
      <trkpt lat="43.5012" lon="-1.49236">
        <ele>4.4</ele>
        <time>2021-07-18T12:27:11Z</time>
      </trkpt>
      <trkpt lat="43.50118" lon="-1.49233">
        <ele>4.4</ele>
        <time>2021-07-18T12:27:12Z</time>
      </trkpt>
      <trkpt lat="43.50114" lon="-1.49229">
        <ele>4.4</ele>
        <time>2021-07-18T12:27:13Z</time>
      </trkpt>
      <trkpt lat="43.50109" lon="-1.49224">
        <ele>4.4</ele>
        <time>2021-07-18T12:27:15Z</time>
      </trkpt>
      <trkpt lat="43.50104" lon="-1.49216">
        <ele>4.4</ele>
        <time>2021-07-18T12:27:17Z</time>
      </trkpt>
      <trkpt lat="43.50102" lon="-1.49209">
        <ele>4.4</ele>
        <time>2021-07-18T12:27:19Z</time>
      </trkpt>
      <trkpt lat="43.501" lon="-1.49206">
        <ele>4.4</ele>
        <time>2021-07-18T12:27:20Z</time>
      </trkpt>
      <trkpt lat="43.50098" lon="-1.49202">
        <ele>4.4</ele>
        <time>2021-07-18T12:27:21Z</time>
      </trkpt>
      <trkpt lat="43.50093" lon="-1.49196">
        <ele>4.4</ele>
        <time>2021-07-18T12:27:22Z</time>
      </trkpt>
      <trkpt lat="43.50091" lon="-1.49195">
        <ele>4.4</ele>
        <time>2021-07-18T12:27:24Z</time>
      </trkpt>
      <trkpt lat="43.50093" lon="-1.49198">
        <ele>4.4</ele>
        <time>2021-07-18T12:27:25Z</time>
      </trkpt>
      <trkpt lat="43.50095" lon="-1.492">
        <ele>4.4</ele>
        <time>2021-07-18T12:27:26Z</time>
      </trkpt>
      <trkpt lat="43.50094" lon="-1.49197">
        <ele>4.4</ele>
        <time>2021-07-18T12:27:28Z</time>
      </trkpt>
      <trkpt lat="43.50093" lon="-1.49195">
        <ele>4.4</ele>
        <time>2021-07-18T12:27:29Z</time>
      </trkpt>
      <trkpt lat="43.50091" lon="-1.49193">
        <ele>4.4</ele>
        <time>2021-07-18T12:27:30Z</time>
      </trkpt>
      <trkpt lat="43.50089" lon="-1.4919">
        <ele>4.4</ele>
        <time>2021-07-18T12:27:32Z</time>
      </trkpt>
      <trkpt lat="43.50088" lon="-1.49188">
        <ele>4.4</ele>
        <time>2021-07-18T12:28:16Z</time>
      </trkpt>
      <trkpt lat="43.50086" lon="-1.49185">
        <ele>4.4</ele>
        <time>2021-07-18T12:28:17Z</time>
      </trkpt>
      <trkpt lat="43.50083" lon="-1.4918">
        <ele>4.5</ele>
        <time>2021-07-18T12:28:18Z</time>
      </trkpt>
      <trkpt lat="43.50081" lon="-1.49176">
        <ele>4.5</ele>
        <time>2021-07-18T12:28:19Z</time>
      </trkpt>
      <trkpt lat="43.50077" lon="-1.49169">
        <ele>4.5</ele>
        <time>2021-07-18T12:28:21Z</time>
      </trkpt>
      <trkpt lat="43.50074" lon="-1.49163">
        <ele>4.5</ele>
        <time>2021-07-18T12:28:22Z</time>
      </trkpt>
      <trkpt lat="43.50071" lon="-1.49157">
        <ele>4.5</ele>
        <time>2021-07-18T12:28:23Z</time>
      </trkpt>
      <trkpt lat="43.50066" lon="-1.4915">
        <ele>4.5</ele>
        <time>2021-07-18T12:28:25Z</time>
      </trkpt>
      <trkpt lat="43.50062" lon="-1.49144">
        <ele>4.4</ele>
        <time>2021-07-18T12:28:26Z</time>
      </trkpt>
      <trkpt lat="43.50058" lon="-1.49138">
        <ele>4.4</ele>
        <time>2021-07-18T12:28:28Z</time>
      </trkpt>
      <trkpt lat="43.50053" lon="-1.49131">
        <ele>4.4</ele>
        <time>2021-07-18T12:28:29Z</time>
      </trkpt>
      <trkpt lat="43.50048" lon="-1.4912">
        <ele>4.4</ele>
        <time>2021-07-18T12:28:31Z</time>
      </trkpt>
      <trkpt lat="43.50042" lon="-1.4911">
        <ele>4.4</ele>
        <time>2021-07-18T12:28:33Z</time>
      </trkpt>
      <trkpt lat="43.50039" lon="-1.49104">
        <ele>4.4</ele>
        <time>2021-07-18T12:28:34Z</time>
      </trkpt>
      <trkpt lat="43.50033" lon="-1.49094">
        <ele>4.4</ele>
        <time>2021-07-18T12:28:36Z</time>
      </trkpt>
      <trkpt lat="43.5003" lon="-1.49089">
        <ele>4.4</ele>
        <time>2021-07-18T12:28:37Z</time>
      </trkpt>
      <trkpt lat="43.50027" lon="-1.49084">
        <ele>4.4</ele>
        <time>2021-07-18T12:28:38Z</time>
      </trkpt>
      <trkpt lat="43.50022" lon="-1.49075">
        <ele>4.4</ele>
        <time>2021-07-18T12:28:40Z</time>
      </trkpt>
      <trkpt lat="43.50017" lon="-1.49066">
        <ele>4.3</ele>
        <time>2021-07-18T12:28:42Z</time>
      </trkpt>
      <trkpt lat="43.50014" lon="-1.4906">
        <ele>4.3</ele>
        <time>2021-07-18T12:28:43Z</time>
      </trkpt>
      <trkpt lat="43.50011" lon="-1.49054">
        <ele>4.3</ele>
        <time>2021-07-18T12:28:44Z</time>
      </trkpt>
      <trkpt lat="43.50006" lon="-1.49043">
        <ele>4.2</ele>
        <time>2021-07-18T12:28:46Z</time>
      </trkpt>
      <trkpt lat="43.50003" lon="-1.49038">
        <ele>4.2</ele>
        <time>2021-07-18T12:28:47Z</time>
      </trkpt>
      <trkpt lat="43.49997" lon="-1.49027">
        <ele>4.2</ele>
        <time>2021-07-18T12:28:49Z</time>
      </trkpt>
      <trkpt lat="43.49994" lon="-1.49022">
        <ele>4.2</ele>
        <time>2021-07-18T12:28:50Z</time>
      </trkpt>
      <trkpt lat="43.49988" lon="-1.49011">
        <ele>4.2</ele>
        <time>2021-07-18T12:28:52Z</time>
      </trkpt>
      <trkpt lat="43.49983" lon="-1.49001">
        <ele>4.2</ele>
        <time>2021-07-18T12:28:54Z</time>
      </trkpt>
      <trkpt lat="43.4998" lon="-1.48996">
        <ele>4.2</ele>
        <time>2021-07-18T12:28:55Z</time>
      </trkpt>
      <trkpt lat="43.49975" lon="-1.48985">
        <ele>4.2</ele>
        <time>2021-07-18T12:28:57Z</time>
      </trkpt>
      <trkpt lat="43.49969" lon="-1.48974">
        <ele>4.2</ele>
        <time>2021-07-18T12:28:59Z</time>
      </trkpt>
      <trkpt lat="43.49963" lon="-1.48963">
        <ele>4.2</ele>
        <time>2021-07-18T12:29:01Z</time>
      </trkpt>
      <trkpt lat="43.49961" lon="-1.48957">
        <ele>4.2</ele>
        <time>2021-07-18T12:29:02Z</time>
      </trkpt>
      <trkpt lat="43.49958" lon="-1.48952">
        <ele>4.2</ele>
        <time>2021-07-18T12:29:03Z</time>
      </trkpt>
      <trkpt lat="43.49956" lon="-1.48946">
        <ele>4.2</ele>
        <time>2021-07-18T12:29:04Z</time>
      </trkpt>
      <trkpt lat="43.49951" lon="-1.48937">
        <ele>4.2</ele>
        <time>2021-07-18T12:29:06Z</time>
      </trkpt>
      <trkpt lat="43.49945" lon="-1.48925">
        <ele>4.2</ele>
        <time>2021-07-18T12:29:08Z</time>
      </trkpt>
      <trkpt lat="43.4994" lon="-1.48913">
        <ele>4.2</ele>
        <time>2021-07-18T12:29:10Z</time>
      </trkpt>
      <trkpt lat="43.49937" lon="-1.48907">
        <ele>4.1</ele>
        <time>2021-07-18T12:29:11Z</time>
      </trkpt>
      <trkpt lat="43.49935" lon="-1.48901">
        <ele>4.1</ele>
        <time>2021-07-18T12:29:12Z</time>
      </trkpt>
      <trkpt lat="43.49932" lon="-1.48896">
        <ele>4.1</ele>
        <time>2021-07-18T12:29:13Z</time>
      </trkpt>
      <trkpt lat="43.49928" lon="-1.48885">
        <ele>4.1</ele>
        <time>2021-07-18T12:29:15Z</time>
      </trkpt>
      <trkpt lat="43.49923" lon="-1.48874">
        <ele>4.1</ele>
        <time>2021-07-18T12:29:17Z</time>
      </trkpt>
      <trkpt lat="43.49917" lon="-1.48863">
        <ele>4.2</ele>
        <time>2021-07-18T12:29:19Z</time>
      </trkpt>
      <trkpt lat="43.49915" lon="-1.48858">
        <ele>4.2</ele>
        <time>2021-07-18T12:29:20Z</time>
      </trkpt>
      <trkpt lat="43.49912" lon="-1.48852">
        <ele>4.2</ele>
        <time>2021-07-18T12:29:21Z</time>
      </trkpt>
      <trkpt lat="43.49907" lon="-1.4884">
        <ele>4.2</ele>
        <time>2021-07-18T12:29:23Z</time>
      </trkpt>
      <trkpt lat="43.49902" lon="-1.4883">
        <ele>4.2</ele>
        <time>2021-07-18T12:29:25Z</time>
      </trkpt>
      <trkpt lat="43.499" lon="-1.48825">
        <ele>4.2</ele>
        <time>2021-07-18T12:29:26Z</time>
      </trkpt>
      <trkpt lat="43.49894" lon="-1.48815">
        <ele>4.3</ele>
        <time>2021-07-18T12:29:28Z</time>
      </trkpt>
      <trkpt lat="43.49891" lon="-1.4881">
        <ele>4.3</ele>
        <time>2021-07-18T12:29:29Z</time>
      </trkpt>
      <trkpt lat="43.49884" lon="-1.488">
        <ele>4.3</ele>
        <time>2021-07-18T12:29:31Z</time>
      </trkpt>
      <trkpt lat="43.4988" lon="-1.48795">
        <ele>4.2</ele>
        <time>2021-07-18T12:29:32Z</time>
      </trkpt>
      <trkpt lat="43.49874" lon="-1.48783">
        <ele>4.2</ele>
        <time>2021-07-18T12:29:34Z</time>
      </trkpt>
      <trkpt lat="43.49871" lon="-1.48775">
        <ele>4.2</ele>
        <time>2021-07-18T12:29:36Z</time>
      </trkpt>
      <trkpt lat="43.49869" lon="-1.48771">
        <ele>4.2</ele>
        <time>2021-07-18T12:29:37Z</time>
      </trkpt>
      <trkpt lat="43.49866" lon="-1.48764">
        <ele>4.2</ele>
        <time>2021-07-18T12:29:39Z</time>
      </trkpt>
      <trkpt lat="43.49862" lon="-1.48753">
        <ele>4.2</ele>
        <time>2021-07-18T12:29:41Z</time>
      </trkpt>
      <trkpt lat="43.49861" lon="-1.48748">
        <ele>4.3</ele>
        <time>2021-07-18T12:29:42Z</time>
      </trkpt>
      <trkpt lat="43.49854" lon="-1.48737">
        <ele>4.3</ele>
        <time>2021-07-18T12:29:44Z</time>
      </trkpt>
      <trkpt lat="43.49851" lon="-1.4873">
        <ele>4.3</ele>
        <time>2021-07-18T12:29:45Z</time>
      </trkpt>
      <trkpt lat="43.49848" lon="-1.48717">
        <ele>4.4</ele>
        <time>2021-07-18T12:29:47Z</time>
      </trkpt>
      <trkpt lat="43.49846" lon="-1.48711">
        <ele>4.4</ele>
        <time>2021-07-18T12:29:49Z</time>
      </trkpt>
      <trkpt lat="43.49846" lon="-1.48704">
        <ele>4.4</ele>
        <time>2021-07-18T12:29:50Z</time>
      </trkpt>
      <trkpt lat="43.49845" lon="-1.48698">
        <ele>4.5</ele>
        <time>2021-07-18T12:29:51Z</time>
      </trkpt>
      <trkpt lat="43.49841" lon="-1.48691">
        <ele>4.5</ele>
        <time>2021-07-18T12:29:52Z</time>
      </trkpt>
      <trkpt lat="43.49837" lon="-1.48686">
        <ele>4.4</ele>
        <time>2021-07-18T12:29:53Z</time>
      </trkpt>
      <trkpt lat="43.49832" lon="-1.48678">
        <ele>4.4</ele>
        <time>2021-07-18T12:29:55Z</time>
      </trkpt>
      <trkpt lat="43.49827" lon="-1.48671">
        <ele>4.4</ele>
        <time>2021-07-18T12:29:56Z</time>
      </trkpt>
      <trkpt lat="43.49824" lon="-1.48666">
        <ele>4.3</ele>
        <time>2021-07-18T12:29:57Z</time>
      </trkpt>
      <trkpt lat="43.49817" lon="-1.48656">
        <ele>4.3</ele>
        <time>2021-07-18T12:29:59Z</time>
      </trkpt>
      <trkpt lat="43.49813" lon="-1.48645">
        <ele>4.3</ele>
        <time>2021-07-18T12:30:01Z</time>
      </trkpt>
      <trkpt lat="43.4981" lon="-1.48632">
        <ele>4.3</ele>
        <time>2021-07-18T12:30:03Z</time>
      </trkpt>
      <trkpt lat="43.49808" lon="-1.48626">
        <ele>4.3</ele>
        <time>2021-07-18T12:30:04Z</time>
      </trkpt>
      <trkpt lat="43.49804" lon="-1.48615">
        <ele>4.4</ele>
        <time>2021-07-18T12:30:06Z</time>
      </trkpt>
      <trkpt lat="43.498" lon="-1.48603">
        <ele>4.4</ele>
        <time>2021-07-18T12:30:08Z</time>
      </trkpt>
      <trkpt lat="43.49798" lon="-1.48597">
        <ele>4.4</ele>
        <time>2021-07-18T12:30:09Z</time>
      </trkpt>
      <trkpt lat="43.49795" lon="-1.48587">
        <ele>4.5</ele>
        <time>2021-07-18T12:30:11Z</time>
      </trkpt>
      <trkpt lat="43.49793" lon="-1.48581">
        <ele>4.5</ele>
        <time>2021-07-18T12:30:12Z</time>
      </trkpt>
      <trkpt lat="43.49788" lon="-1.48569">
        <ele>4.5</ele>
        <time>2021-07-18T12:30:14Z</time>
      </trkpt>
      <trkpt lat="43.49786" lon="-1.48562">
        <ele>4.5</ele>
        <time>2021-07-18T12:30:15Z</time>
      </trkpt>
      <trkpt lat="43.49782" lon="-1.4855">
        <ele>4.5</ele>
        <time>2021-07-18T12:30:17Z</time>
      </trkpt>
      <trkpt lat="43.4978" lon="-1.48544">
        <ele>4.5</ele>
        <time>2021-07-18T12:30:18Z</time>
      </trkpt>
      <trkpt lat="43.49778" lon="-1.48539">
        <ele>4.5</ele>
        <time>2021-07-18T12:30:19Z</time>
      </trkpt>
      <trkpt lat="43.49776" lon="-1.48526">
        <ele>4.5</ele>
        <time>2021-07-18T12:30:21Z</time>
      </trkpt>
      <trkpt lat="43.49776" lon="-1.48519">
        <ele>4.5</ele>
        <time>2021-07-18T12:30:22Z</time>
      </trkpt>
      <trkpt lat="43.49775" lon="-1.48512">
        <ele>4.5</ele>
        <time>2021-07-18T12:30:23Z</time>
      </trkpt>
      <trkpt lat="43.49771" lon="-1.48501">
        <ele>4.4</ele>
        <time>2021-07-18T12:30:25Z</time>
      </trkpt>
      <trkpt lat="43.49767" lon="-1.48489">
        <ele>4.3</ele>
        <time>2021-07-18T12:30:27Z</time>
      </trkpt>
      <trkpt lat="43.49762" lon="-1.48477">
        <ele>4.3</ele>
        <time>2021-07-18T12:30:29Z</time>
      </trkpt>
      <trkpt lat="43.4976" lon="-1.4847">
        <ele>4.3</ele>
        <time>2021-07-18T12:30:30Z</time>
      </trkpt>
      <trkpt lat="43.49755" lon="-1.48457">
        <ele>4.3</ele>
        <time>2021-07-18T12:30:32Z</time>
      </trkpt>
      <trkpt lat="43.49754" lon="-1.48451">
        <ele>4.4</ele>
        <time>2021-07-18T12:30:33Z</time>
      </trkpt>
      <trkpt lat="43.4975" lon="-1.4844">
        <ele>4.4</ele>
        <time>2021-07-18T12:30:35Z</time>
      </trkpt>
      <trkpt lat="43.49748" lon="-1.48434">
        <ele>4.5</ele>
        <time>2021-07-18T12:30:36Z</time>
      </trkpt>
      <trkpt lat="43.49746" lon="-1.48428">
        <ele>4.5</ele>
        <time>2021-07-18T12:30:37Z</time>
      </trkpt>
      <trkpt lat="43.49742" lon="-1.48416">
        <ele>4.5</ele>
        <time>2021-07-18T12:30:39Z</time>
      </trkpt>
      <trkpt lat="43.49738" lon="-1.48404">
        <ele>4.6</ele>
        <time>2021-07-18T12:30:41Z</time>
      </trkpt>
      <trkpt lat="43.49735" lon="-1.48398">
        <ele>4.6</ele>
        <time>2021-07-18T12:30:42Z</time>
      </trkpt>
      <trkpt lat="43.49731" lon="-1.48384">
        <ele>4.6</ele>
        <time>2021-07-18T12:30:44Z</time>
      </trkpt>
      <trkpt lat="43.4973" lon="-1.48371">
        <ele>4.6</ele>
        <time>2021-07-18T12:30:46Z</time>
      </trkpt>
      <trkpt lat="43.49732" lon="-1.48364">
        <ele>4.5</ele>
        <time>2021-07-18T12:30:47Z</time>
      </trkpt>
      <trkpt lat="43.49734" lon="-1.4835">
        <ele>4.5</ele>
        <time>2021-07-18T12:30:49Z</time>
      </trkpt>
      <trkpt lat="43.49735" lon="-1.48343">
        <ele>4.4</ele>
        <time>2021-07-18T12:30:50Z</time>
      </trkpt>
      <trkpt lat="43.49735" lon="-1.48335">
        <ele>4.3</ele>
        <time>2021-07-18T12:30:51Z</time>
      </trkpt>
      <trkpt lat="43.49734" lon="-1.48327">
        <ele>4.1</ele>
        <time>2021-07-18T12:30:52Z</time>
      </trkpt>
      <trkpt lat="43.49731" lon="-1.48312">
        <ele>3.9</ele>
        <time>2021-07-18T12:30:54Z</time>
      </trkpt>
      <trkpt lat="43.49729" lon="-1.48307">
        <ele>3.8</ele>
        <time>2021-07-18T12:30:56Z</time>
      </trkpt>
      <trkpt lat="43.49728" lon="-1.48307">
        <ele>3.8</ele>
        <time>2021-07-18T12:30:57Z</time>
      </trkpt>
      <trkpt lat="43.49721" lon="-1.48297">
        <ele>3.8</ele>
        <time>2021-07-18T12:30:59Z</time>
      </trkpt>
      <trkpt lat="43.49717" lon="-1.48288">
        <ele>3.9</ele>
        <time>2021-07-18T12:31:00Z</time>
      </trkpt>
      <trkpt lat="43.4971" lon="-1.48275">
        <ele>4.1</ele>
        <time>2021-07-18T12:31:02Z</time>
      </trkpt>
      <trkpt lat="43.49706" lon="-1.48274">
        <ele>4.2</ele>
        <time>2021-07-18T12:31:03Z</time>
      </trkpt>
      <trkpt lat="43.49703" lon="-1.48271">
        <ele>4.2</ele>
        <time>2021-07-18T12:31:04Z</time>
      </trkpt>
      <trkpt lat="43.49701" lon="-1.48267">
        <ele>4.3</ele>
        <time>2021-07-18T12:31:06Z</time>
      </trkpt>
      <trkpt lat="43.49698" lon="-1.48261">
        <ele>4.3</ele>
        <time>2021-07-18T12:31:07Z</time>
      </trkpt>
      <trkpt lat="43.49696" lon="-1.48255">
        <ele>4.3</ele>
        <time>2021-07-18T12:31:08Z</time>
      </trkpt>
      <trkpt lat="43.49692" lon="-1.48248">
        <ele>4.2</ele>
        <time>2021-07-18T12:31:09Z</time>
      </trkpt>
      <trkpt lat="43.49688" lon="-1.48238">
        <ele>4.2</ele>
        <time>2021-07-18T12:31:11Z</time>
      </trkpt>
      <trkpt lat="43.49685" lon="-1.48231">
        <ele>4.2</ele>
        <time>2021-07-18T12:31:12Z</time>
      </trkpt>
      <trkpt lat="43.49683" lon="-1.48225">
        <ele>4.2</ele>
        <time>2021-07-18T12:31:13Z</time>
      </trkpt>
      <trkpt lat="43.4968" lon="-1.48216">
        <ele>4.1</ele>
        <time>2021-07-18T12:31:14Z</time>
      </trkpt>
      <trkpt lat="43.49677" lon="-1.48203">
        <ele>4.1</ele>
        <time>2021-07-18T12:31:16Z</time>
      </trkpt>
      <trkpt lat="43.49673" lon="-1.4819">
        <ele>4.1</ele>
        <time>2021-07-18T12:31:18Z</time>
      </trkpt>
      <trkpt lat="43.49669" lon="-1.48178">
        <ele>4.1</ele>
        <time>2021-07-18T12:31:20Z</time>
      </trkpt>
      <trkpt lat="43.49665" lon="-1.48168">
        <ele>4.1</ele>
        <time>2021-07-18T12:31:22Z</time>
      </trkpt>
      <trkpt lat="43.49661" lon="-1.48155">
        <ele>4.1</ele>
        <time>2021-07-18T12:31:24Z</time>
      </trkpt>
      <trkpt lat="43.49656" lon="-1.48142">
        <ele>4.1</ele>
        <time>2021-07-18T12:31:26Z</time>
      </trkpt>
      <trkpt lat="43.49652" lon="-1.4813">
        <ele>4.1</ele>
        <time>2021-07-18T12:31:28Z</time>
      </trkpt>
      <trkpt lat="43.49648" lon="-1.48119">
        <ele>4</ele>
        <time>2021-07-18T12:31:30Z</time>
      </trkpt>
      <trkpt lat="43.49645" lon="-1.48108">
        <ele>4</ele>
        <time>2021-07-18T12:31:32Z</time>
      </trkpt>
      <trkpt lat="43.49643" lon="-1.48101">
        <ele>4</ele>
        <time>2021-07-18T12:31:33Z</time>
      </trkpt>
      <trkpt lat="43.4964" lon="-1.48092">
        <ele>4</ele>
        <time>2021-07-18T12:31:35Z</time>
      </trkpt>
      <trkpt lat="43.49637" lon="-1.48085">
        <ele>4</ele>
        <time>2021-07-18T12:31:36Z</time>
      </trkpt>
      <trkpt lat="43.49636" lon="-1.48079">
        <ele>4</ele>
        <time>2021-07-18T12:31:37Z</time>
      </trkpt>
      <trkpt lat="43.49634" lon="-1.48073">
        <ele>4</ele>
        <time>2021-07-18T12:31:38Z</time>
      </trkpt>
      <trkpt lat="43.49632" lon="-1.48061">
        <ele>4</ele>
        <time>2021-07-18T12:31:40Z</time>
      </trkpt>
      <trkpt lat="43.49631" lon="-1.48055">
        <ele>4</ele>
        <time>2021-07-18T12:31:41Z</time>
      </trkpt>
      <trkpt lat="43.4963" lon="-1.4805">
        <ele>4</ele>
        <time>2021-07-18T12:31:42Z</time>
      </trkpt>
      <trkpt lat="43.49627" lon="-1.48041">
        <ele>4</ele>
        <time>2021-07-18T12:31:44Z</time>
      </trkpt>
      <trkpt lat="43.49625" lon="-1.48031">
        <ele>4</ele>
        <time>2021-07-18T12:31:46Z</time>
      </trkpt>
      <trkpt lat="43.49624" lon="-1.48026">
        <ele>4</ele>
        <time>2021-07-18T12:31:47Z</time>
      </trkpt>
      <trkpt lat="43.49624" lon="-1.48022">
        <ele>4</ele>
        <time>2021-07-18T12:31:49Z</time>
      </trkpt>
      <trkpt lat="43.49623" lon="-1.48021">
        <ele>4</ele>
        <time>2021-07-18T12:31:50Z</time>
      </trkpt>
      <trkpt lat="43.49622" lon="-1.4802">
        <ele>4</ele>
        <time>2021-07-18T12:31:52Z</time>
      </trkpt>
      <trkpt lat="43.49622" lon="-1.4802">
        <ele>4</ele>
        <time>2021-07-18T12:31:54Z</time>
      </trkpt>
      <trkpt lat="43.49622" lon="-1.4802">
        <ele>4</ele>
        <time>2021-07-18T12:31:55Z</time>
      </trkpt>
      <trkpt lat="43.49622" lon="-1.4802">
        <ele>4</ele>
        <time>2021-07-18T12:31:57Z</time>
      </trkpt>
      <trkpt lat="43.49623" lon="-1.4802">
        <ele>4</ele>
        <time>2021-07-18T12:31:59Z</time>
      </trkpt>
      <trkpt lat="43.49623" lon="-1.4802">
        <ele>4</ele>
        <time>2021-07-18T12:32:00Z</time>
      </trkpt>
      <trkpt lat="43.49623" lon="-1.4802">
        <ele>4</ele>
        <time>2021-07-18T12:32:02Z</time>
      </trkpt>
      <trkpt lat="43.49623" lon="-1.48019">
        <ele>4</ele>
        <time>2021-07-18T12:32:04Z</time>
      </trkpt>
      <trkpt lat="43.49623" lon="-1.4802">
        <ele>4</ele>
        <time>2021-07-18T12:32:05Z</time>
      </trkpt>
      <trkpt lat="43.49623" lon="-1.4802">
        <ele>4</ele>
        <time>2021-07-18T12:32:06Z</time>
      </trkpt>
      <trkpt lat="43.49623" lon="-1.4802">
        <ele>4</ele>
        <time>2021-07-18T12:32:08Z</time>
      </trkpt>
      <trkpt lat="43.49623" lon="-1.4802">
        <ele>4</ele>
        <time>2021-07-18T12:32:10Z</time>
      </trkpt>
      <trkpt lat="43.49622" lon="-1.48015">
        <ele>4.1</ele>
        <time>2021-07-18T12:32:37Z</time>
      </trkpt>
      <trkpt lat="43.49621" lon="-1.48013">
        <ele>4.1</ele>
        <time>2021-07-18T12:32:38Z</time>
      </trkpt>
      <trkpt lat="43.4962" lon="-1.48011">
        <ele>4.1</ele>
        <time>2021-07-18T12:32:39Z</time>
      </trkpt>
      <trkpt lat="43.49619" lon="-1.48009">
        <ele>4.1</ele>
        <time>2021-07-18T12:32:40Z</time>
      </trkpt>
      <trkpt lat="43.49618" lon="-1.48003">
        <ele>4.1</ele>
        <time>2021-07-18T12:32:42Z</time>
      </trkpt>
      <trkpt lat="43.49616" lon="-1.47996">
        <ele>4.1</ele>
        <time>2021-07-18T12:32:44Z</time>
      </trkpt>
      <trkpt lat="43.49613" lon="-1.47989">
        <ele>4.2</ele>
        <time>2021-07-18T12:32:46Z</time>
      </trkpt>
      <trkpt lat="43.49609" lon="-1.47983">
        <ele>4.3</ele>
        <time>2021-07-18T12:32:48Z</time>
      </trkpt>
      <trkpt lat="43.49603" lon="-1.47981">
        <ele>4.3</ele>
        <time>2021-07-18T12:32:50Z</time>
      </trkpt>
      <trkpt lat="43.49599" lon="-1.47981">
        <ele>4.3</ele>
        <time>2021-07-18T12:32:51Z</time>
      </trkpt>
      <trkpt lat="43.49595" lon="-1.47981">
        <ele>4.2</ele>
        <time>2021-07-18T12:32:52Z</time>
      </trkpt>
      <trkpt lat="43.4959" lon="-1.47985">
        <ele>4.2</ele>
        <time>2021-07-18T12:32:54Z</time>
      </trkpt>
      <trkpt lat="43.49587" lon="-1.47988">
        <ele>4.2</ele>
        <time>2021-07-18T12:32:55Z</time>
      </trkpt>
      <trkpt lat="43.49582" lon="-1.4799">
        <ele>4.2</ele>
        <time>2021-07-18T12:32:57Z</time>
      </trkpt>
      <trkpt lat="43.49578" lon="-1.47986">
        <ele>4.2</ele>
        <time>2021-07-18T12:32:58Z</time>
      </trkpt>
      <trkpt lat="43.49577" lon="-1.4798">
        <ele>4.2</ele>
        <time>2021-07-18T12:32:59Z</time>
      </trkpt>
      <trkpt lat="43.49575" lon="-1.47975">
        <ele>4.2</ele>
        <time>2021-07-18T12:33:00Z</time>
      </trkpt>
      <trkpt lat="43.49571" lon="-1.47965">
        <ele>4.1</ele>
        <time>2021-07-18T12:33:02Z</time>
      </trkpt>
      <trkpt lat="43.49569" lon="-1.4796">
        <ele>4.1</ele>
        <time>2021-07-18T12:33:03Z</time>
      </trkpt>
      <trkpt lat="43.49567" lon="-1.47956">
        <ele>4.1</ele>
        <time>2021-07-18T12:33:04Z</time>
      </trkpt>
      <trkpt lat="43.49564" lon="-1.47949">
        <ele>4.2</ele>
        <time>2021-07-18T12:33:06Z</time>
      </trkpt>
      <trkpt lat="43.49562" lon="-1.47943">
        <ele>4.2</ele>
        <time>2021-07-18T12:33:07Z</time>
      </trkpt>
      <trkpt lat="43.4956" lon="-1.47937">
        <ele>4.2</ele>
        <time>2021-07-18T12:33:08Z</time>
      </trkpt>
      <trkpt lat="43.49558" lon="-1.47931">
        <ele>4.2</ele>
        <time>2021-07-18T12:33:09Z</time>
      </trkpt>
      <trkpt lat="43.49555" lon="-1.47925">
        <ele>4.2</ele>
        <time>2021-07-18T12:33:10Z</time>
      </trkpt>
      <trkpt lat="43.49552" lon="-1.47917">
        <ele>4.3</ele>
        <time>2021-07-18T12:33:12Z</time>
      </trkpt>
      <trkpt lat="43.4955" lon="-1.4791">
        <ele>4.3</ele>
        <time>2021-07-18T12:33:13Z</time>
      </trkpt>
      <trkpt lat="43.49547" lon="-1.47904">
        <ele>4.4</ele>
        <time>2021-07-18T12:33:15Z</time>
      </trkpt>
      <trkpt lat="43.49544" lon="-1.47896">
        <ele>4.4</ele>
        <time>2021-07-18T12:33:16Z</time>
      </trkpt>
      <trkpt lat="43.49542" lon="-1.47891">
        <ele>4.5</ele>
        <time>2021-07-18T12:33:17Z</time>
      </trkpt>
      <trkpt lat="43.4954" lon="-1.47883">
        <ele>4.6</ele>
        <time>2021-07-18T12:33:19Z</time>
      </trkpt>
      <trkpt lat="43.49538" lon="-1.47877">
        <ele>4.7</ele>
        <time>2021-07-18T12:33:20Z</time>
      </trkpt>
      <trkpt lat="43.49536" lon="-1.47871">
        <ele>4.7</ele>
        <time>2021-07-18T12:33:21Z</time>
      </trkpt>
      <trkpt lat="43.49534" lon="-1.47865">
        <ele>4.8</ele>
        <time>2021-07-18T12:33:22Z</time>
      </trkpt>
      <trkpt lat="43.49532" lon="-1.47858">
        <ele>4.9</ele>
        <time>2021-07-18T12:33:24Z</time>
      </trkpt>
      <trkpt lat="43.4953" lon="-1.47852">
        <ele>4.9</ele>
        <time>2021-07-18T12:33:25Z</time>
      </trkpt>
      <trkpt lat="43.49529" lon="-1.47846">
        <ele>5</ele>
        <time>2021-07-18T12:33:26Z</time>
      </trkpt>
      <trkpt lat="43.49528" lon="-1.47838">
        <ele>5</ele>
        <time>2021-07-18T12:33:28Z</time>
      </trkpt>
      <trkpt lat="43.49528" lon="-1.47833">
        <ele>5</ele>
        <time>2021-07-18T12:33:29Z</time>
      </trkpt>
      <trkpt lat="43.49528" lon="-1.47823">
        <ele>5.1</ele>
        <time>2021-07-18T12:33:31Z</time>
      </trkpt>
      <trkpt lat="43.49526" lon="-1.47819">
        <ele>5.1</ele>
        <time>2021-07-18T12:33:32Z</time>
      </trkpt>
      <trkpt lat="43.4952" lon="-1.47815">
        <ele>5.3</ele>
        <time>2021-07-18T12:33:34Z</time>
      </trkpt>
      <trkpt lat="43.49515" lon="-1.47809">
        <ele>5.3</ele>
        <time>2021-07-18T12:33:36Z</time>
      </trkpt>
      <trkpt lat="43.49517" lon="-1.47802">
        <ele>5.3</ele>
        <time>2021-07-18T12:33:38Z</time>
      </trkpt>
      <trkpt lat="43.49519" lon="-1.47798">
        <ele>5.3</ele>
        <time>2021-07-18T12:33:39Z</time>
      </trkpt>
      <trkpt lat="43.49522" lon="-1.47794">
        <ele>5.3</ele>
        <time>2021-07-18T12:33:40Z</time>
      </trkpt>
      <trkpt lat="43.49526" lon="-1.47787">
        <ele>5.2</ele>
        <time>2021-07-18T12:33:42Z</time>
      </trkpt>
      <trkpt lat="43.49528" lon="-1.47782">
        <ele>5.2</ele>
        <time>2021-07-18T12:33:43Z</time>
      </trkpt>
      <trkpt lat="43.49529" lon="-1.47777">
        <ele>5.2</ele>
        <time>2021-07-18T12:33:44Z</time>
      </trkpt>
      <trkpt lat="43.4953" lon="-1.4777">
        <ele>5.2</ele>
        <time>2021-07-18T12:33:46Z</time>
      </trkpt>
      <trkpt lat="43.49531" lon="-1.47762">
        <ele>5.1</ele>
        <time>2021-07-18T12:33:47Z</time>
      </trkpt>
      <trkpt lat="43.49531" lon="-1.47757">
        <ele>5.1</ele>
        <time>2021-07-18T12:33:48Z</time>
      </trkpt>
      <trkpt lat="43.49531" lon="-1.47751">
        <ele>5.1</ele>
        <time>2021-07-18T12:33:49Z</time>
      </trkpt>
      <trkpt lat="43.4953" lon="-1.47742">
        <ele>5</ele>
        <time>2021-07-18T12:33:51Z</time>
      </trkpt>
      <trkpt lat="43.4953" lon="-1.47737">
        <ele>5</ele>
        <time>2021-07-18T12:33:52Z</time>
      </trkpt>
      <trkpt lat="43.49528" lon="-1.4773">
        <ele>5</ele>
        <time>2021-07-18T12:33:53Z</time>
      </trkpt>
      <trkpt lat="43.49526" lon="-1.47723">
        <ele>5</ele>
        <time>2021-07-18T12:33:55Z</time>
      </trkpt>
      <trkpt lat="43.49523" lon="-1.47717">
        <ele>5</ele>
        <time>2021-07-18T12:33:56Z</time>
      </trkpt>
      <trkpt lat="43.49519" lon="-1.47709">
        <ele>5</ele>
        <time>2021-07-18T12:33:57Z</time>
      </trkpt>
      <trkpt lat="43.49518" lon="-1.47709">
        <ele>5</ele>
        <time>2021-07-18T12:33:58Z</time>
      </trkpt>
      <trkpt lat="43.49516" lon="-1.47704">
        <ele>5</ele>
        <time>2021-07-18T12:34:00Z</time>
      </trkpt>
      <trkpt lat="43.49514" lon="-1.47695">
        <ele>4.9</ele>
        <time>2021-07-18T12:34:01Z</time>
      </trkpt>
      <trkpt lat="43.49511" lon="-1.47686">
        <ele>4.9</ele>
        <time>2021-07-18T12:34:03Z</time>
      </trkpt>
      <trkpt lat="43.49508" lon="-1.47676">
        <ele>4.9</ele>
        <time>2021-07-18T12:34:04Z</time>
      </trkpt>
      <trkpt lat="43.49506" lon="-1.47671">
        <ele>4.9</ele>
        <time>2021-07-18T12:34:05Z</time>
      </trkpt>
      <trkpt lat="43.49505" lon="-1.47663">
        <ele>4.8</ele>
        <time>2021-07-18T12:34:07Z</time>
      </trkpt>
      <trkpt lat="43.49501" lon="-1.47655">
        <ele>4.8</ele>
        <time>2021-07-18T12:34:09Z</time>
      </trkpt>
      <trkpt lat="43.49497" lon="-1.4765">
        <ele>4.8</ele>
        <time>2021-07-18T12:34:10Z</time>
      </trkpt>
      <trkpt lat="43.49494" lon="-1.47645">
        <ele>4.8</ele>
        <time>2021-07-18T12:34:11Z</time>
      </trkpt>
      <trkpt lat="43.4949" lon="-1.47638">
        <ele>4.7</ele>
        <time>2021-07-18T12:34:13Z</time>
      </trkpt>
      <trkpt lat="43.49486" lon="-1.47632">
        <ele>4.7</ele>
        <time>2021-07-18T12:34:14Z</time>
      </trkpt>
      <trkpt lat="43.49484" lon="-1.47627">
        <ele>4.7</ele>
        <time>2021-07-18T12:34:15Z</time>
      </trkpt>
      <trkpt lat="43.49481" lon="-1.47622">
        <ele>4.7</ele>
        <time>2021-07-18T12:34:16Z</time>
      </trkpt>
      <trkpt lat="43.49478" lon="-1.47617">
        <ele>4.7</ele>
        <time>2021-07-18T12:34:18Z</time>
      </trkpt>
      <trkpt lat="43.49475" lon="-1.47613">
        <ele>4.7</ele>
        <time>2021-07-18T12:34:19Z</time>
      </trkpt>
      <trkpt lat="43.49473" lon="-1.47609">
        <ele>4.7</ele>
        <time>2021-07-18T12:34:20Z</time>
      </trkpt>
      <trkpt lat="43.49471" lon="-1.47604">
        <ele>4.7</ele>
        <time>2021-07-18T12:34:21Z</time>
      </trkpt>
      <trkpt lat="43.49468" lon="-1.47598">
        <ele>4.7</ele>
        <time>2021-07-18T12:34:23Z</time>
      </trkpt>
      <trkpt lat="43.49468" lon="-1.47593">
        <ele>4.8</ele>
        <time>2021-07-18T12:34:24Z</time>
      </trkpt>
      <trkpt lat="43.49471" lon="-1.4759">
        <ele>4.8</ele>
        <time>2021-07-18T12:34:25Z</time>
      </trkpt>
      <trkpt lat="43.49473" lon="-1.47588">
        <ele>4.7</ele>
        <time>2021-07-18T12:34:26Z</time>
      </trkpt>
      <trkpt lat="43.49477" lon="-1.47583">
        <ele>4.7</ele>
        <time>2021-07-18T12:34:28Z</time>
      </trkpt>
      <trkpt lat="43.49479" lon="-1.47582">
        <ele>4.7</ele>
        <time>2021-07-18T12:34:29Z</time>
      </trkpt>
      <trkpt lat="43.49481" lon="-1.47581">
        <ele>4.7</ele>
        <time>2021-07-18T12:34:31Z</time>
      </trkpt>
      <trkpt lat="43.49482" lon="-1.4758">
        <ele>4.7</ele>
        <time>2021-07-18T12:34:32Z</time>
      </trkpt>
      <trkpt lat="43.49481" lon="-1.47578">
        <ele>4.7</ele>
        <time>2021-07-18T12:34:34Z</time>
      </trkpt>
      <trkpt lat="43.49479" lon="-1.47577">
        <ele>4.7</ele>
        <time>2021-07-18T12:34:35Z</time>
      </trkpt>
      <trkpt lat="43.49478" lon="-1.47577">
        <ele>4.7</ele>
        <time>2021-07-18T12:34:36Z</time>
      </trkpt>
      <trkpt lat="43.49475" lon="-1.47574">
        <ele>4.7</ele>
        <time>2021-07-18T12:34:38Z</time>
      </trkpt>
      <trkpt lat="43.49475" lon="-1.47571">
        <ele>4.7</ele>
        <time>2021-07-18T12:34:39Z</time>
      </trkpt>
      <trkpt lat="43.49476" lon="-1.4757">
        <ele>4.7</ele>
        <time>2021-07-18T12:34:40Z</time>
      </trkpt>
      <trkpt lat="43.49479" lon="-1.47568">
        <ele>4.7</ele>
        <time>2021-07-18T12:34:42Z</time>
      </trkpt>
      <trkpt lat="43.49481" lon="-1.47573">
        <ele>4.7</ele>
        <time>2021-07-18T12:34:44Z</time>
      </trkpt>
      <trkpt lat="43.49481" lon="-1.47577">
        <ele>4.7</ele>
        <time>2021-07-18T12:34:45Z</time>
      </trkpt>
      <trkpt lat="43.49481" lon="-1.47579">
        <ele>4.7</ele>
        <time>2021-07-18T12:34:46Z</time>
      </trkpt>
      <trkpt lat="43.4948" lon="-1.47581">
        <ele>4.6</ele>
        <time>2021-07-18T12:34:47Z</time>
      </trkpt>
      <trkpt lat="43.49479" lon="-1.47583">
        <ele>4.6</ele>
        <time>2021-07-18T12:34:48Z</time>
      </trkpt>
      <trkpt lat="43.49476" lon="-1.47587">
        <ele>4.6</ele>
        <time>2021-07-18T12:34:50Z</time>
      </trkpt>
      <trkpt lat="43.49474" lon="-1.47589">
        <ele>4.6</ele>
        <time>2021-07-18T12:34:52Z</time>
      </trkpt>
      <trkpt lat="43.49473" lon="-1.4759">
        <ele>4.6</ele>
        <time>2021-07-18T12:34:53Z</time>
      </trkpt>
      <trkpt lat="43.49472" lon="-1.47592">
        <ele>4.6</ele>
        <time>2021-07-18T12:34:54Z</time>
      </trkpt>
      <trkpt lat="43.4947" lon="-1.47595">
        <ele>4.6</ele>
        <time>2021-07-18T12:34:56Z</time>
      </trkpt>
      <trkpt lat="43.49469" lon="-1.47596">
        <ele>4.6</ele>
        <time>2021-07-18T12:34:57Z</time>
      </trkpt>
      <trkpt lat="43.49467" lon="-1.47598">
        <ele>4.6</ele>
        <time>2021-07-18T12:34:58Z</time>
      </trkpt>
      <trkpt lat="43.49465" lon="-1.47596">
        <ele>4.6</ele>
        <time>2021-07-18T12:35:00Z</time>
      </trkpt>
      <trkpt lat="43.49464" lon="-1.47594">
        <ele>4.6</ele>
        <time>2021-07-18T12:35:01Z</time>
      </trkpt>
      <trkpt lat="43.49463" lon="-1.47591">
        <ele>4.6</ele>
        <time>2021-07-18T12:35:03Z</time>
      </trkpt>
      <trkpt lat="43.49463" lon="-1.47587">
        <ele>4.6</ele>
        <time>2021-07-18T12:35:05Z</time>
      </trkpt>
      <trkpt lat="43.49466" lon="-1.47583">
        <ele>4.6</ele>
        <time>2021-07-18T12:35:07Z</time>
      </trkpt>
      <trkpt lat="43.4947" lon="-1.47583">
        <ele>4.6</ele>
        <time>2021-07-18T12:35:09Z</time>
      </trkpt>
      <trkpt lat="43.49475" lon="-1.47582">
        <ele>4.5</ele>
        <time>2021-07-18T12:35:11Z</time>
      </trkpt>
      <trkpt lat="43.49479" lon="-1.47579">
        <ele>4.5</ele>
        <time>2021-07-18T12:35:12Z</time>
      </trkpt>
      <trkpt lat="43.4948" lon="-1.47577">
        <ele>4.5</ele>
        <time>2021-07-18T12:35:13Z</time>
      </trkpt>
      <trkpt lat="43.49482" lon="-1.4757">
        <ele>4.5</ele>
        <time>2021-07-18T12:35:15Z</time>
      </trkpt>
      <trkpt lat="43.49484" lon="-1.47562">
        <ele>4.4</ele>
        <time>2021-07-18T12:35:17Z</time>
      </trkpt>
      <trkpt lat="43.49485" lon="-1.47557">
        <ele>4.4</ele>
        <time>2021-07-18T12:35:18Z</time>
      </trkpt>
      <trkpt lat="43.49483" lon="-1.47552">
        <ele>4.4</ele>
        <time>2021-07-18T12:35:19Z</time>
      </trkpt>
      <trkpt lat="43.4948" lon="-1.47544">
        <ele>4.4</ele>
        <time>2021-07-18T12:35:21Z</time>
      </trkpt>
      <trkpt lat="43.49477" lon="-1.4754">
        <ele>4.3</ele>
        <time>2021-07-18T12:35:22Z</time>
      </trkpt>
      <trkpt lat="43.49471" lon="-1.47532">
        <ele>4.3</ele>
        <time>2021-07-18T12:35:24Z</time>
      </trkpt>
      <trkpt lat="43.49468" lon="-1.47527">
        <ele>4.3</ele>
        <time>2021-07-18T12:35:25Z</time>
      </trkpt>
      <trkpt lat="43.49462" lon="-1.4752">
        <ele>4.3</ele>
        <time>2021-07-18T12:35:27Z</time>
      </trkpt>
      <trkpt lat="43.49456" lon="-1.47514">
        <ele>4.3</ele>
        <time>2021-07-18T12:35:29Z</time>
      </trkpt>
      <trkpt lat="43.49449" lon="-1.47509">
        <ele>4.3</ele>
        <time>2021-07-18T12:35:31Z</time>
      </trkpt>
      <trkpt lat="43.49446" lon="-1.47506">
        <ele>4.4</ele>
        <time>2021-07-18T12:35:32Z</time>
      </trkpt>
      <trkpt lat="43.4944" lon="-1.475">
        <ele>4.4</ele>
        <time>2021-07-18T12:35:34Z</time>
      </trkpt>
      <trkpt lat="43.49434" lon="-1.47495">
        <ele>4.4</ele>
        <time>2021-07-18T12:35:36Z</time>
      </trkpt>
      <trkpt lat="43.49431" lon="-1.47494">
        <ele>4.5</ele>
        <time>2021-07-18T12:35:37Z</time>
      </trkpt>
      <trkpt lat="43.49425" lon="-1.47489">
        <ele>4.5</ele>
        <time>2021-07-18T12:35:39Z</time>
      </trkpt>
      <trkpt lat="43.49422" lon="-1.47487">
        <ele>4.5</ele>
        <time>2021-07-18T12:35:40Z</time>
      </trkpt>
      <trkpt lat="43.49416" lon="-1.47483">
        <ele>4.5</ele>
        <time>2021-07-18T12:35:42Z</time>
      </trkpt>
      <trkpt lat="43.4941" lon="-1.47479">
        <ele>4.6</ele>
        <time>2021-07-18T12:35:44Z</time>
      </trkpt>
      <trkpt lat="43.49407" lon="-1.47477">
        <ele>4.6</ele>
        <time>2021-07-18T12:35:45Z</time>
      </trkpt>
      <trkpt lat="43.49403" lon="-1.47476">
        <ele>4.6</ele>
        <time>2021-07-18T12:35:46Z</time>
      </trkpt>
      <trkpt lat="43.49397" lon="-1.47475">
        <ele>4.6</ele>
        <time>2021-07-18T12:35:48Z</time>
      </trkpt>
      <trkpt lat="43.49391" lon="-1.47473">
        <ele>4.6</ele>
        <time>2021-07-18T12:35:50Z</time>
      </trkpt>
      <trkpt lat="43.49388" lon="-1.47473">
        <ele>4.6</ele>
        <time>2021-07-18T12:35:51Z</time>
      </trkpt>
      <trkpt lat="43.49384" lon="-1.47472">
        <ele>4.6</ele>
        <time>2021-07-18T12:35:52Z</time>
      </trkpt>
      <trkpt lat="43.49383" lon="-1.47472">
        <ele>4.6</ele>
        <time>2021-07-18T12:35:53Z</time>
      </trkpt>
      <trkpt lat="43.49378" lon="-1.47469">
        <ele>4.6</ele>
        <time>2021-07-18T12:35:55Z</time>
      </trkpt>
      <trkpt lat="43.49375" lon="-1.47467">
        <ele>4.6</ele>
        <time>2021-07-18T12:35:56Z</time>
      </trkpt>
      <trkpt lat="43.49373" lon="-1.47466">
        <ele>4.6</ele>
        <time>2021-07-18T12:35:57Z</time>
      </trkpt>
      <trkpt lat="43.4937" lon="-1.47466">
        <ele>4.6</ele>
        <time>2021-07-18T12:35:59Z</time>
      </trkpt>
      <trkpt lat="43.49367" lon="-1.47465">
        <ele>4.6</ele>
        <time>2021-07-18T12:36:00Z</time>
      </trkpt>
      <trkpt lat="43.49366" lon="-1.47465">
        <ele>4.6</ele>
        <time>2021-07-18T12:36:01Z</time>
      </trkpt>
      <trkpt lat="43.4936" lon="-1.47465">
        <ele>4.6</ele>
        <time>2021-07-18T12:36:03Z</time>
      </trkpt>
      <trkpt lat="43.49358" lon="-1.47464">
        <ele>4.6</ele>
        <time>2021-07-18T12:36:04Z</time>
      </trkpt>
      <trkpt lat="43.49355" lon="-1.4746">
        <ele>4.6</ele>
        <time>2021-07-18T12:36:05Z</time>
      </trkpt>
      <trkpt lat="43.4935" lon="-1.47457">
        <ele>4.6</ele>
        <time>2021-07-18T12:36:07Z</time>
      </trkpt>
      <trkpt lat="43.49344" lon="-1.47457">
        <ele>4.6</ele>
        <time>2021-07-18T12:36:09Z</time>
      </trkpt>
      <trkpt lat="43.49338" lon="-1.47456">
        <ele>4.6</ele>
        <time>2021-07-18T12:36:11Z</time>
      </trkpt>
      <trkpt lat="43.49333" lon="-1.47455">
        <ele>4.6</ele>
        <time>2021-07-18T12:36:13Z</time>
      </trkpt>
      <trkpt lat="43.49329" lon="-1.47456">
        <ele>4.6</ele>
        <time>2021-07-18T12:36:14Z</time>
      </trkpt>
      <trkpt lat="43.49323" lon="-1.47456">
        <ele>4.6</ele>
        <time>2021-07-18T12:36:16Z</time>
      </trkpt>
      <trkpt lat="43.49316" lon="-1.47455">
        <ele>4.6</ele>
        <time>2021-07-18T12:36:18Z</time>
      </trkpt>
      <trkpt lat="43.49309" lon="-1.47454">
        <ele>4.6</ele>
        <time>2021-07-18T12:36:20Z</time>
      </trkpt>
      <trkpt lat="43.49306" lon="-1.47454">
        <ele>4.6</ele>
        <time>2021-07-18T12:36:21Z</time>
      </trkpt>
      <trkpt lat="43.493" lon="-1.47455">
        <ele>4.7</ele>
        <time>2021-07-18T12:36:23Z</time>
      </trkpt>
      <trkpt lat="43.49294" lon="-1.47457">
        <ele>4.7</ele>
        <time>2021-07-18T12:36:25Z</time>
      </trkpt>
      <trkpt lat="43.49291" lon="-1.47463">
        <ele>4.7</ele>
        <time>2021-07-18T12:36:27Z</time>
      </trkpt>
      <trkpt lat="43.4929" lon="-1.47466">
        <ele>5</ele>
        <time>2021-07-18T12:36:28Z</time>
      </trkpt>
      <trkpt lat="43.49289" lon="-1.47471">
        <ele>5.1</ele>
        <time>2021-07-18T12:36:30Z</time>
      </trkpt>
      <trkpt lat="43.49288" lon="-1.47474">
        <ele>5.2</ele>
        <time>2021-07-18T12:36:31Z</time>
      </trkpt>
      <trkpt lat="43.49287" lon="-1.47479">
        <ele>5.9</ele>
        <time>2021-07-18T12:36:33Z</time>
      </trkpt>
      <trkpt lat="43.49289" lon="-1.47483">
        <ele>5.6</ele>
        <time>2021-07-18T12:36:35Z</time>
      </trkpt>
      <trkpt lat="43.4929" lon="-1.47488">
        <ele>5.8</ele>
        <time>2021-07-18T12:36:37Z</time>
      </trkpt>
      <trkpt lat="43.49291" lon="-1.47492">
        <ele>5.4</ele>
        <time>2021-07-18T12:36:38Z</time>
      </trkpt>
      <trkpt lat="43.49291" lon="-1.47493">
        <ele>5.4</ele>
        <time>2021-07-18T12:36:39Z</time>
      </trkpt>
      <trkpt lat="43.49289" lon="-1.47497">
        <ele>5.4</ele>
        <time>2021-07-18T12:36:41Z</time>
      </trkpt>
      <trkpt lat="43.49288" lon="-1.47497">
        <ele>5.4</ele>
        <time>2021-07-18T12:36:43Z</time>
      </trkpt>
      <trkpt lat="43.49288" lon="-1.47498">
        <ele>5.4</ele>
        <time>2021-07-18T12:36:44Z</time>
      </trkpt>
      <trkpt lat="43.49287" lon="-1.47498">
        <ele>5.4</ele>
        <time>2021-07-18T12:36:45Z</time>
      </trkpt>
      <trkpt lat="43.49284" lon="-1.47502">
        <ele>5.4</ele>
        <time>2021-07-18T12:36:47Z</time>
      </trkpt>
      <trkpt lat="43.49282" lon="-1.47504">
        <ele>5.3</ele>
        <time>2021-07-18T12:36:48Z</time>
      </trkpt>
      <trkpt lat="43.49278" lon="-1.47507">
        <ele>5.3</ele>
        <time>2021-07-18T12:36:50Z</time>
      </trkpt>
      <trkpt lat="43.49276" lon="-1.47508">
        <ele>5.2</ele>
        <time>2021-07-18T12:36:51Z</time>
      </trkpt>
      <trkpt lat="43.49273" lon="-1.47512">
        <ele>5.1</ele>
        <time>2021-07-18T12:36:53Z</time>
      </trkpt>
      <trkpt lat="43.49271" lon="-1.47515">
        <ele>5.1</ele>
        <time>2021-07-18T12:36:54Z</time>
      </trkpt>
      <trkpt lat="43.49268" lon="-1.4752">
        <ele>5</ele>
        <time>2021-07-18T12:36:56Z</time>
      </trkpt>
      <trkpt lat="43.49265" lon="-1.47525">
        <ele>4.9</ele>
        <time>2021-07-18T12:36:58Z</time>
      </trkpt>
      <trkpt lat="43.49262" lon="-1.47527">
        <ele>4.8</ele>
        <time>2021-07-18T12:36:59Z</time>
      </trkpt>
      <trkpt lat="43.49261" lon="-1.47527">
        <ele>4.8</ele>
        <time>2021-07-18T12:37:00Z</time>
      </trkpt>
      <trkpt lat="43.49259" lon="-1.47529">
        <ele>4.7</ele>
        <time>2021-07-18T12:37:01Z</time>
      </trkpt>
      <trkpt lat="43.49255" lon="-1.4753">
        <ele>4.6</ele>
        <time>2021-07-18T12:37:03Z</time>
      </trkpt>
      <trkpt lat="43.49252" lon="-1.47533">
        <ele>4.6</ele>
        <time>2021-07-18T12:37:04Z</time>
      </trkpt>
      <trkpt lat="43.4925" lon="-1.47534">
        <ele>4.5</ele>
        <time>2021-07-18T12:37:05Z</time>
      </trkpt>
      <trkpt lat="43.49248" lon="-1.47536">
        <ele>4.5</ele>
        <time>2021-07-18T12:37:06Z</time>
      </trkpt>
      <trkpt lat="43.49247" lon="-1.47537">
        <ele>4.5</ele>
        <time>2021-07-18T12:37:07Z</time>
      </trkpt>
      <trkpt lat="43.49244" lon="-1.47542">
        <ele>4.5</ele>
        <time>2021-07-18T12:37:09Z</time>
      </trkpt>
      <trkpt lat="43.49243" lon="-1.47544">
        <ele>4.5</ele>
        <time>2021-07-18T12:37:10Z</time>
      </trkpt>
      <trkpt lat="43.4924" lon="-1.47549">
        <ele>4.5</ele>
        <time>2021-07-18T12:37:12Z</time>
      </trkpt>
      <trkpt lat="43.49239" lon="-1.47551">
        <ele>4.5</ele>
        <time>2021-07-18T12:37:13Z</time>
      </trkpt>
      <trkpt lat="43.49236" lon="-1.47554">
        <ele>4.5</ele>
        <time>2021-07-18T12:37:15Z</time>
      </trkpt>
      <trkpt lat="43.49235" lon="-1.47555">
        <ele>4.5</ele>
        <time>2021-07-18T12:37:16Z</time>
      </trkpt>
      <trkpt lat="43.49233" lon="-1.47556">
        <ele>4.5</ele>
        <time>2021-07-18T12:37:18Z</time>
      </trkpt>
      <trkpt lat="43.49231" lon="-1.47559">
        <ele>4.5</ele>
        <time>2021-07-18T12:37:20Z</time>
      </trkpt>
      <trkpt lat="43.4923" lon="-1.47562">
        <ele>4.4</ele>
        <time>2021-07-18T12:37:21Z</time>
      </trkpt>
      <trkpt lat="43.4923" lon="-1.47564">
        <ele>4.4</ele>
        <time>2021-07-18T12:37:22Z</time>
      </trkpt>
      <trkpt lat="43.4923" lon="-1.47566">
        <ele>4.4</ele>
        <time>2021-07-18T12:37:23Z</time>
      </trkpt>
      <trkpt lat="43.4923" lon="-1.47568">
        <ele>4.4</ele>
        <time>2021-07-18T12:37:24Z</time>
      </trkpt>
      <trkpt lat="43.49229" lon="-1.4757">
        <ele>4.5</ele>
        <time>2021-07-18T12:37:25Z</time>
      </trkpt>
      <trkpt lat="43.49225" lon="-1.47574">
        <ele>4.5</ele>
        <time>2021-07-18T12:37:27Z</time>
      </trkpt>
      <trkpt lat="43.49223" lon="-1.47576">
        <ele>4.5</ele>
        <time>2021-07-18T12:37:28Z</time>
      </trkpt>
      <trkpt lat="43.4922" lon="-1.4758">
        <ele>4.5</ele>
        <time>2021-07-18T12:37:30Z</time>
      </trkpt>
      <trkpt lat="43.49217" lon="-1.47584">
        <ele>4.6</ele>
        <time>2021-07-18T12:37:32Z</time>
      </trkpt>
      <trkpt lat="43.49214" lon="-1.47587">
        <ele>4.6</ele>
        <time>2021-07-18T12:37:34Z</time>
      </trkpt>
      <trkpt lat="43.49212" lon="-1.47592">
        <ele>4.6</ele>
        <time>2021-07-18T12:37:36Z</time>
      </trkpt>
      <trkpt lat="43.49208" lon="-1.47596">
        <ele>4.7</ele>
        <time>2021-07-18T12:37:38Z</time>
      </trkpt>
      <trkpt lat="43.49206" lon="-1.47598">
        <ele>4.7</ele>
        <time>2021-07-18T12:37:39Z</time>
      </trkpt>
      <trkpt lat="43.49202" lon="-1.47601">
        <ele>4.7</ele>
        <time>2021-07-18T12:37:41Z</time>
      </trkpt>
      <trkpt lat="43.492" lon="-1.47602">
        <ele>4.7</ele>
        <time>2021-07-18T12:37:42Z</time>
      </trkpt>
      <trkpt lat="43.49196" lon="-1.47605">
        <ele>4.8</ele>
        <time>2021-07-18T12:37:44Z</time>
      </trkpt>
      <trkpt lat="43.49195" lon="-1.47606">
        <ele>4.9</ele>
        <time>2021-07-18T12:37:45Z</time>
      </trkpt>
      <trkpt lat="43.49191" lon="-1.4761">
        <ele>5</ele>
        <time>2021-07-18T12:37:47Z</time>
      </trkpt>
      <trkpt lat="43.49189" lon="-1.47611">
        <ele>5.1</ele>
        <time>2021-07-18T12:37:48Z</time>
      </trkpt>
      <trkpt lat="43.49187" lon="-1.47615">
        <ele>5.2</ele>
        <time>2021-07-18T12:37:50Z</time>
      </trkpt>
      <trkpt lat="43.49185" lon="-1.47619">
        <ele>5.3</ele>
        <time>2021-07-18T12:37:52Z</time>
      </trkpt>
      <trkpt lat="43.49184" lon="-1.47621">
        <ele>5.4</ele>
        <time>2021-07-18T12:37:53Z</time>
      </trkpt>
      <trkpt lat="43.49182" lon="-1.47624">
        <ele>5.5</ele>
        <time>2021-07-18T12:37:55Z</time>
      </trkpt>
      <trkpt lat="43.4918" lon="-1.47626">
        <ele>5.6</ele>
        <time>2021-07-18T12:37:56Z</time>
      </trkpt>
      <trkpt lat="43.49178" lon="-1.4763">
        <ele>5.7</ele>
        <time>2021-07-18T12:37:58Z</time>
      </trkpt>
      <trkpt lat="43.49177" lon="-1.47632">
        <ele>5.8</ele>
        <time>2021-07-18T12:37:59Z</time>
      </trkpt>
      <trkpt lat="43.49175" lon="-1.47636">
        <ele>5.9</ele>
        <time>2021-07-18T12:38:01Z</time>
      </trkpt>
      <trkpt lat="43.49174" lon="-1.47638">
        <ele>6</ele>
        <time>2021-07-18T12:38:02Z</time>
      </trkpt>
      <trkpt lat="43.49171" lon="-1.47641">
        <ele>6.1</ele>
        <time>2021-07-18T12:38:04Z</time>
      </trkpt>
      <trkpt lat="43.49169" lon="-1.47641">
        <ele>6.2</ele>
        <time>2021-07-18T12:38:05Z</time>
      </trkpt>
      <trkpt lat="43.49166" lon="-1.47641">
        <ele>6.3</ele>
        <time>2021-07-18T12:38:07Z</time>
      </trkpt>
      <trkpt lat="43.49164" lon="-1.47644">
        <ele>6.5</ele>
        <time>2021-07-18T12:38:09Z</time>
      </trkpt>
      <trkpt lat="43.49163" lon="-1.47645">
        <ele>6.5</ele>
        <time>2021-07-18T12:38:10Z</time>
      </trkpt>
      <trkpt lat="43.4916" lon="-1.47647">
        <ele>6.7</ele>
        <time>2021-07-18T12:38:12Z</time>
      </trkpt>
      <trkpt lat="43.49159" lon="-1.47648">
        <ele>6.7</ele>
        <time>2021-07-18T12:38:13Z</time>
      </trkpt>
      <trkpt lat="43.49156" lon="-1.47651">
        <ele>6.9</ele>
        <time>2021-07-18T12:38:15Z</time>
      </trkpt>
      <trkpt lat="43.49153" lon="-1.47655">
        <ele>7.1</ele>
        <time>2021-07-18T12:38:17Z</time>
      </trkpt>
      <trkpt lat="43.49151" lon="-1.47657">
        <ele>7.1</ele>
        <time>2021-07-18T12:38:18Z</time>
      </trkpt>
      <trkpt lat="43.49149" lon="-1.47659">
        <ele>7.2</ele>
        <time>2021-07-18T12:38:20Z</time>
      </trkpt>
      <trkpt lat="43.49147" lon="-1.47661">
        <ele>7.2</ele>
        <time>2021-07-18T12:38:21Z</time>
      </trkpt>
      <trkpt lat="43.49146" lon="-1.47661">
        <ele>7.3</ele>
        <time>2021-07-18T12:38:22Z</time>
      </trkpt>
      <trkpt lat="43.49143" lon="-1.47664">
        <ele>7.4</ele>
        <time>2021-07-18T12:38:24Z</time>
      </trkpt>
      <trkpt lat="43.49142" lon="-1.47665">
        <ele>7.4</ele>
        <time>2021-07-18T12:38:25Z</time>
      </trkpt>
      <trkpt lat="43.4914" lon="-1.47666">
        <ele>7.5</ele>
        <time>2021-07-18T12:38:27Z</time>
      </trkpt>
      <trkpt lat="43.49139" lon="-1.47666">
        <ele>7.5</ele>
        <time>2021-07-18T12:38:28Z</time>
      </trkpt>
      <trkpt lat="43.49138" lon="-1.47667">
        <ele>7.7</ele>
        <time>2021-07-18T12:38:30Z</time>
      </trkpt>
      <trkpt lat="43.49134" lon="-1.47669">
        <ele>8</ele>
        <time>2021-07-18T12:38:32Z</time>
      </trkpt>
      <trkpt lat="43.49132" lon="-1.47672">
        <ele>8.2</ele>
        <time>2021-07-18T12:38:34Z</time>
      </trkpt>
      <trkpt lat="43.49129" lon="-1.47673">
        <ele>8.4</ele>
        <time>2021-07-18T12:38:36Z</time>
      </trkpt>
      <trkpt lat="43.49126" lon="-1.47674">
        <ele>8.6</ele>
        <time>2021-07-18T12:38:37Z</time>
      </trkpt>
      <trkpt lat="43.49125" lon="-1.47675">
        <ele>8.7</ele>
        <time>2021-07-18T12:38:38Z</time>
      </trkpt>
      <trkpt lat="43.49124" lon="-1.47678">
        <ele>8.9</ele>
        <time>2021-07-18T12:38:40Z</time>
      </trkpt>
      <trkpt lat="43.49122" lon="-1.4768">
        <ele>9.1</ele>
        <time>2021-07-18T12:38:41Z</time>
      </trkpt>
      <trkpt lat="43.4912" lon="-1.47681">
        <ele>9.2</ele>
        <time>2021-07-18T12:38:43Z</time>
      </trkpt>
      <trkpt lat="43.49118" lon="-1.47683">
        <ele>9.3</ele>
        <time>2021-07-18T12:38:44Z</time>
      </trkpt>
      <trkpt lat="43.49116" lon="-1.47684">
        <ele>9.5</ele>
        <time>2021-07-18T12:38:46Z</time>
      </trkpt>
      <trkpt lat="43.49113" lon="-1.47686">
        <ele>9.7</ele>
        <time>2021-07-18T12:38:47Z</time>
      </trkpt>
      <trkpt lat="43.49111" lon="-1.47687">
        <ele>9.7</ele>
        <time>2021-07-18T12:38:48Z</time>
      </trkpt>
      <trkpt lat="43.49109" lon="-1.47689">
        <ele>9.9</ele>
        <time>2021-07-18T12:38:49Z</time>
      </trkpt>
      <trkpt lat="43.49106" lon="-1.47693">
        <ele>10.1</ele>
        <time>2021-07-18T12:38:51Z</time>
      </trkpt>
      <trkpt lat="43.49103" lon="-1.47695">
        <ele>10.3</ele>
        <time>2021-07-18T12:38:53Z</time>
      </trkpt>
      <trkpt lat="43.49101" lon="-1.47697">
        <ele>10.4</ele>
        <time>2021-07-18T12:38:54Z</time>
      </trkpt>
      <trkpt lat="43.49097" lon="-1.47701">
        <ele>10.7</ele>
        <time>2021-07-18T12:38:56Z</time>
      </trkpt>
      <trkpt lat="43.49096" lon="-1.47702">
        <ele>10.8</ele>
        <time>2021-07-18T12:38:57Z</time>
      </trkpt>
      <trkpt lat="43.49094" lon="-1.47703">
        <ele>10.9</ele>
        <time>2021-07-18T12:38:58Z</time>
      </trkpt>
      <trkpt lat="43.4909" lon="-1.47705">
        <ele>11.2</ele>
        <time>2021-07-18T12:39:00Z</time>
      </trkpt>
      <trkpt lat="43.49089" lon="-1.47706">
        <ele>11.3</ele>
        <time>2021-07-18T12:39:01Z</time>
      </trkpt>
      <trkpt lat="43.49088" lon="-1.47706">
        <ele>11.4</ele>
        <time>2021-07-18T12:39:02Z</time>
      </trkpt>
      <trkpt lat="43.49087" lon="-1.47707">
        <ele>11.5</ele>
        <time>2021-07-18T12:39:03Z</time>
      </trkpt>
      <trkpt lat="43.49087" lon="-1.47708">
        <ele>11.5</ele>
        <time>2021-07-18T12:39:04Z</time>
      </trkpt>
      <trkpt lat="43.49085" lon="-1.4771">
        <ele>11.7</ele>
        <time>2021-07-18T12:39:06Z</time>
      </trkpt>
      <trkpt lat="43.49083" lon="-1.47712">
        <ele>12</ele>
        <time>2021-07-18T12:39:07Z</time>
      </trkpt>
      <trkpt lat="43.49082" lon="-1.47712">
        <ele>12</ele>
        <time>2021-07-18T12:39:08Z</time>
      </trkpt>
      <trkpt lat="43.49082" lon="-1.47713">
        <ele>12</ele>
        <time>2021-07-18T12:39:09Z</time>
      </trkpt>
      <trkpt lat="43.49081" lon="-1.47712">
        <ele>12.1</ele>
        <time>2021-07-18T12:39:11Z</time>
      </trkpt>
      <trkpt lat="43.49081" lon="-1.47712">
        <ele>12.1</ele>
        <time>2021-07-18T12:39:12Z</time>
      </trkpt>
      <trkpt lat="43.49081" lon="-1.47711">
        <ele>12.2</ele>
        <time>2021-07-18T12:39:14Z</time>
      </trkpt>
      <trkpt lat="43.49081" lon="-1.47711">
        <ele>12.2</ele>
        <time>2021-07-18T12:39:15Z</time>
      </trkpt>
      <trkpt lat="43.4908" lon="-1.47711">
        <ele>12.2</ele>
        <time>2021-07-18T12:39:17Z</time>
      </trkpt>
      <trkpt lat="43.4908" lon="-1.47711">
        <ele>12.2</ele>
        <time>2021-07-18T12:39:18Z</time>
      </trkpt>
      <trkpt lat="43.4908" lon="-1.47711">
        <ele>13</ele>
        <time>2021-07-18T12:39:19Z</time>
      </trkpt>
      <trkpt lat="43.49079" lon="-1.47707">
        <ele>13</ele>
        <time>2021-07-18T12:39:24Z</time>
      </trkpt>
      <trkpt lat="43.49079" lon="-1.47706">
        <ele>13</ele>
        <time>2021-07-18T12:39:26Z</time>
      </trkpt>
      <trkpt lat="43.49079" lon="-1.47705">
        <ele>12.9</ele>
        <time>2021-07-18T12:39:27Z</time>
      </trkpt>
      <trkpt lat="43.49079" lon="-1.47704">
        <ele>12.9</ele>
        <time>2021-07-18T12:39:29Z</time>
      </trkpt>
      <trkpt lat="43.49079" lon="-1.47703">
        <ele>12.9</ele>
        <time>2021-07-18T12:39:30Z</time>
      </trkpt>
      <trkpt lat="43.49079" lon="-1.47702">
        <ele>12.9</ele>
        <time>2021-07-18T12:39:32Z</time>
      </trkpt>
      <trkpt lat="43.49079" lon="-1.47701">
        <ele>12.9</ele>
        <time>2021-07-18T12:39:33Z</time>
      </trkpt>
      <trkpt lat="43.49078" lon="-1.477">
        <ele>12.9</ele>
        <time>2021-07-18T12:39:34Z</time>
      </trkpt>
      <trkpt lat="43.49078" lon="-1.47699">
        <ele>12.9</ele>
        <time>2021-07-18T12:39:36Z</time>
      </trkpt>
      <trkpt lat="43.49077" lon="-1.47697">
        <ele>12.9</ele>
        <time>2021-07-18T12:39:37Z</time>
      </trkpt>
      <trkpt lat="43.49077" lon="-1.47696">
        <ele>12.9</ele>
        <time>2021-07-18T12:39:38Z</time>
      </trkpt>
      <trkpt lat="43.49076" lon="-1.47694">
        <ele>12.9</ele>
        <time>2021-07-18T12:39:40Z</time>
      </trkpt>
      <trkpt lat="43.49074" lon="-1.4769">
        <ele>12.8</ele>
        <time>2021-07-18T12:39:42Z</time>
      </trkpt>
      <trkpt lat="43.49072" lon="-1.47688">
        <ele>12.8</ele>
        <time>2021-07-18T12:39:43Z</time>
      </trkpt>
      <trkpt lat="43.49068" lon="-1.47684">
        <ele>12.8</ele>
        <time>2021-07-18T12:39:44Z</time>
      </trkpt>
      <trkpt lat="43.49067" lon="-1.47683">
        <ele>12.7</ele>
        <time>2021-07-18T12:39:45Z</time>
      </trkpt>
      <trkpt lat="43.49062" lon="-1.47678">
        <ele>12.3</ele>
        <time>2021-07-18T12:39:47Z</time>
      </trkpt>
      <trkpt lat="43.49059" lon="-1.47674">
        <ele>12.3</ele>
        <time>2021-07-18T12:39:48Z</time>
      </trkpt>
      <trkpt lat="43.49056" lon="-1.47671">
        <ele>12.3</ele>
        <time>2021-07-18T12:39:50Z</time>
      </trkpt>
      <trkpt lat="43.49054" lon="-1.47669">
        <ele>12.3</ele>
        <time>2021-07-18T12:39:51Z</time>
      </trkpt>
      <trkpt lat="43.49052" lon="-1.47669">
        <ele>12.3</ele>
        <time>2021-07-18T12:39:52Z</time>
      </trkpt>
      <trkpt lat="43.4905" lon="-1.47667">
        <ele>12.4</ele>
        <time>2021-07-18T12:39:54Z</time>
      </trkpt>
      <trkpt lat="43.49047" lon="-1.47666">
        <ele>12.5</ele>
        <time>2021-07-18T12:39:55Z</time>
      </trkpt>
      <trkpt lat="43.49046" lon="-1.47665">
        <ele>12.5</ele>
        <time>2021-07-18T12:39:56Z</time>
      </trkpt>
      <trkpt lat="43.49046" lon="-1.47665">
        <ele>12.5</ele>
        <time>2021-07-18T12:39:57Z</time>
      </trkpt>
      <trkpt lat="43.49044" lon="-1.47665">
        <ele>12.6</ele>
        <time>2021-07-18T12:39:59Z</time>
      </trkpt>
      <trkpt lat="43.49042" lon="-1.47665">
        <ele>12.6</ele>
        <time>2021-07-18T12:40:00Z</time>
      </trkpt>
      <trkpt lat="43.49038" lon="-1.47666">
        <ele>12.7</ele>
        <time>2021-07-18T12:40:02Z</time>
      </trkpt>
      <trkpt lat="43.49037" lon="-1.47668">
        <ele>12.8</ele>
        <time>2021-07-18T12:40:03Z</time>
      </trkpt>
      <trkpt lat="43.49035" lon="-1.47669">
        <ele>12.8</ele>
        <time>2021-07-18T12:40:05Z</time>
      </trkpt>
      <trkpt lat="43.49034" lon="-1.47669">
        <ele>12.9</ele>
        <time>2021-07-18T12:40:06Z</time>
      </trkpt>
      <trkpt lat="43.49032" lon="-1.47669">
        <ele>12.9</ele>
        <time>2021-07-18T12:40:07Z</time>
      </trkpt>
      <trkpt lat="43.49031" lon="-1.4767">
        <ele>13</ele>
        <time>2021-07-18T12:40:08Z</time>
      </trkpt>
      <trkpt lat="43.49028" lon="-1.47671">
        <ele>13.1</ele>
        <time>2021-07-18T12:40:10Z</time>
      </trkpt>
      <trkpt lat="43.49024" lon="-1.47671">
        <ele>13.2</ele>
        <time>2021-07-18T12:40:12Z</time>
      </trkpt>
      <trkpt lat="43.49024" lon="-1.47672">
        <ele>13.2</ele>
        <time>2021-07-18T12:40:14Z</time>
      </trkpt>
      <trkpt lat="43.49024" lon="-1.47672">
        <ele>13.2</ele>
        <time>2021-07-18T12:40:15Z</time>
      </trkpt>
      <trkpt lat="43.49024" lon="-1.47672">
        <ele>13.2</ele>
        <time>2021-07-18T12:40:16Z</time>
      </trkpt>
      <trkpt lat="43.49023" lon="-1.47672">
        <ele>13.2</ele>
        <time>2021-07-18T12:40:17Z</time>
      </trkpt>
      <trkpt lat="43.49023" lon="-1.47673">
        <ele>13.2</ele>
        <time>2021-07-18T12:40:18Z</time>
      </trkpt>
      <trkpt lat="43.49023" lon="-1.47673">
        <ele>13.2</ele>
        <time>2021-07-18T12:40:19Z</time>
      </trkpt>
      <trkpt lat="43.49023" lon="-1.47673">
        <ele>13.2</ele>
        <time>2021-07-18T12:40:21Z</time>
      </trkpt>
      <trkpt lat="43.49022" lon="-1.47673">
        <ele>13.2</ele>
        <time>2021-07-18T12:40:22Z</time>
      </trkpt>
      <trkpt lat="43.49022" lon="-1.47674">
        <ele>13.2</ele>
        <time>2021-07-18T12:40:24Z</time>
      </trkpt>
      <trkpt lat="43.49022" lon="-1.47674">
        <ele>13.2</ele>
        <time>2021-07-18T12:40:25Z</time>
      </trkpt>
      <trkpt lat="43.49022" lon="-1.47674">
        <ele>13.2</ele>
        <time>2021-07-18T12:40:26Z</time>
      </trkpt>
      <trkpt lat="43.49021" lon="-1.47674">
        <ele>13.3</ele>
        <time>2021-07-18T12:40:37Z</time>
      </trkpt>
      <trkpt lat="43.49021" lon="-1.47675">
        <ele>13.3</ele>
        <time>2021-07-18T12:40:38Z</time>
      </trkpt>
      <trkpt lat="43.49021" lon="-1.47675">
        <ele>13.3</ele>
        <time>2021-07-18T12:40:39Z</time>
      </trkpt>
      <trkpt lat="43.49021" lon="-1.47675">
        <ele>13.3</ele>
        <time>2021-07-18T12:40:40Z</time>
      </trkpt>
      <trkpt lat="43.4902" lon="-1.47675">
        <ele>13.3</ele>
        <time>2021-07-18T12:40:42Z</time>
      </trkpt>
      <trkpt lat="43.4902" lon="-1.47676">
        <ele>13.3</ele>
        <time>2021-07-18T12:40:43Z</time>
      </trkpt>
      <trkpt lat="43.4902" lon="-1.47676">
        <ele>13.4</ele>
        <time>2021-07-18T12:40:44Z</time>
      </trkpt>
      <trkpt lat="43.49019" lon="-1.47676">
        <ele>13.4</ele>
        <time>2021-07-18T12:40:46Z</time>
      </trkpt>
      <trkpt lat="43.49019" lon="-1.47676">
        <ele>13.4</ele>
        <time>2021-07-18T12:40:47Z</time>
      </trkpt>
      <trkpt lat="43.49019" lon="-1.47677">
        <ele>13.4</ele>
        <time>2021-07-18T12:40:49Z</time>
      </trkpt>
      <trkpt lat="43.49019" lon="-1.47677">
        <ele>13.4</ele>
        <time>2021-07-18T12:40:50Z</time>
      </trkpt>
      <trkpt lat="43.49018" lon="-1.47677">
        <ele>13.4</ele>
        <time>2021-07-18T12:40:52Z</time>
      </trkpt>
      <trkpt lat="43.49018" lon="-1.47677">
        <ele>13.4</ele>
        <time>2021-07-18T12:40:53Z</time>
      </trkpt>
      <trkpt lat="43.49018" lon="-1.47678">
        <ele>13.4</ele>
        <time>2021-07-18T12:40:54Z</time>
      </trkpt>
      <trkpt lat="43.49018" lon="-1.47678">
        <ele>13.5</ele>
        <time>2021-07-18T12:40:55Z</time>
      </trkpt>
      <trkpt lat="43.49017" lon="-1.47678">
        <ele>13.5</ele>
        <time>2021-07-18T12:40:56Z</time>
      </trkpt>
      <trkpt lat="43.49017" lon="-1.47678">
        <ele>13.5</ele>
        <time>2021-07-18T12:40:57Z</time>
      </trkpt>
      <trkpt lat="43.49015" lon="-1.47679">
        <ele>13.5</ele>
        <time>2021-07-18T12:40:59Z</time>
      </trkpt>
      <trkpt lat="43.49014" lon="-1.4768">
        <ele>13.6</ele>
        <time>2021-07-18T12:41:00Z</time>
      </trkpt>
      <trkpt lat="43.49012" lon="-1.4768">
        <ele>13.6</ele>
        <time>2021-07-18T12:41:01Z</time>
      </trkpt>
      <trkpt lat="43.49011" lon="-1.4768">
        <ele>13.7</ele>
        <time>2021-07-18T12:41:02Z</time>
      </trkpt>
      <trkpt lat="43.4901" lon="-1.47681">
        <ele>13.7</ele>
        <time>2021-07-18T12:41:03Z</time>
      </trkpt>
      <trkpt lat="43.49008" lon="-1.47682">
        <ele>13.8</ele>
        <time>2021-07-18T12:41:04Z</time>
      </trkpt>
      <trkpt lat="43.49006" lon="-1.47683">
        <ele>13.9</ele>
        <time>2021-07-18T12:41:06Z</time>
      </trkpt>
      <trkpt lat="43.49004" lon="-1.47683">
        <ele>13.9</ele>
        <time>2021-07-18T12:41:07Z</time>
      </trkpt>
      <trkpt lat="43.49003" lon="-1.47683">
        <ele>14</ele>
        <time>2021-07-18T12:41:09Z</time>
      </trkpt>
      <trkpt lat="43.49" lon="-1.47683">
        <ele>14</ele>
        <time>2021-07-18T12:41:10Z</time>
      </trkpt>
      <trkpt lat="43.48997" lon="-1.47683">
        <ele>14.1</ele>
        <time>2021-07-18T12:41:11Z</time>
      </trkpt>
      <trkpt lat="43.48992" lon="-1.47682">
        <ele>14.2</ele>
        <time>2021-07-18T12:41:13Z</time>
      </trkpt>
      <trkpt lat="43.48991" lon="-1.47682">
        <ele>14.3</ele>
        <time>2021-07-18T12:41:14Z</time>
      </trkpt>
      <trkpt lat="43.48989" lon="-1.47682">
        <ele>14.3</ele>
        <time>2021-07-18T12:41:15Z</time>
      </trkpt>
      <trkpt lat="43.48987" lon="-1.47683">
        <ele>14.4</ele>
        <time>2021-07-18T12:41:16Z</time>
      </trkpt>
      <trkpt lat="43.48985" lon="-1.47684">
        <ele>14.4</ele>
        <time>2021-07-18T12:41:18Z</time>
      </trkpt>
      <trkpt lat="43.48982" lon="-1.47686">
        <ele>14.5</ele>
        <time>2021-07-18T12:41:19Z</time>
      </trkpt>
      <trkpt lat="43.4898" lon="-1.47688">
        <ele>14.6</ele>
        <time>2021-07-18T12:41:20Z</time>
      </trkpt>
      <trkpt lat="43.48978" lon="-1.4769">
        <ele>15</ele>
        <time>2021-07-18T12:41:22Z</time>
      </trkpt>
      <trkpt lat="43.48977" lon="-1.47691">
        <ele>15.1</ele>
        <time>2021-07-18T12:41:23Z</time>
      </trkpt>
      <trkpt lat="43.48975" lon="-1.47692">
        <ele>15.1</ele>
        <time>2021-07-18T12:41:24Z</time>
      </trkpt>
      <trkpt lat="43.48973" lon="-1.47691">
        <ele>15.2</ele>
        <time>2021-07-18T12:41:26Z</time>
      </trkpt>
      <trkpt lat="43.48971" lon="-1.47688">
        <ele>15.2</ele>
        <time>2021-07-18T12:41:27Z</time>
      </trkpt>
      <trkpt lat="43.48967" lon="-1.47687">
        <ele>15.3</ele>
        <time>2021-07-18T12:41:29Z</time>
      </trkpt>
      <trkpt lat="43.48965" lon="-1.47688">
        <ele>15.3</ele>
        <time>2021-07-18T12:41:30Z</time>
      </trkpt>
      <trkpt lat="43.48963" lon="-1.47689">
        <ele>15.3</ele>
        <time>2021-07-18T12:41:31Z</time>
      </trkpt>
      <trkpt lat="43.4896" lon="-1.47693">
        <ele>15.4</ele>
        <time>2021-07-18T12:41:33Z</time>
      </trkpt>
      <trkpt lat="43.48958" lon="-1.47696">
        <ele>15.4</ele>
        <time>2021-07-18T12:41:34Z</time>
      </trkpt>
      <trkpt lat="43.48955" lon="-1.47698">
        <ele>15.4</ele>
        <time>2021-07-18T12:41:35Z</time>
      </trkpt>
      <trkpt lat="43.48954" lon="-1.47701">
        <ele>15.5</ele>
        <time>2021-07-18T12:41:36Z</time>
      </trkpt>
      <trkpt lat="43.4895" lon="-1.47704">
        <ele>15.5</ele>
        <time>2021-07-18T12:41:38Z</time>
      </trkpt>
      <trkpt lat="43.48949" lon="-1.47706">
        <ele>15.5</ele>
        <time>2021-07-18T12:41:39Z</time>
      </trkpt>
      <trkpt lat="43.48947" lon="-1.47709">
        <ele>15.5</ele>
        <time>2021-07-18T12:41:41Z</time>
      </trkpt>
      <trkpt lat="43.48945" lon="-1.47713">
        <ele>15.5</ele>
        <time>2021-07-18T12:41:42Z</time>
      </trkpt>
      <trkpt lat="43.48942" lon="-1.47716">
        <ele>15.5</ele>
        <time>2021-07-18T12:41:44Z</time>
      </trkpt>
      <trkpt lat="43.48939" lon="-1.47718">
        <ele>15.5</ele>
        <time>2021-07-18T12:41:46Z</time>
      </trkpt>
      <trkpt lat="43.48938" lon="-1.47719">
        <ele>15.5</ele>
        <time>2021-07-18T12:41:47Z</time>
      </trkpt>
      <trkpt lat="43.48936" lon="-1.47719">
        <ele>15.5</ele>
        <time>2021-07-18T12:41:48Z</time>
      </trkpt>
      <trkpt lat="43.48935" lon="-1.4772">
        <ele>15.5</ele>
        <time>2021-07-18T12:41:49Z</time>
      </trkpt>
      <trkpt lat="43.48933" lon="-1.47721">
        <ele>15.5</ele>
        <time>2021-07-18T12:41:51Z</time>
      </trkpt>
      <trkpt lat="43.48931" lon="-1.47722">
        <ele>15.5</ele>
        <time>2021-07-18T12:41:53Z</time>
      </trkpt>
      <trkpt lat="43.4893" lon="-1.47723">
        <ele>15.5</ele>
        <time>2021-07-18T12:41:54Z</time>
      </trkpt>
      <trkpt lat="43.4893" lon="-1.47722">
        <ele>15.5</ele>
        <time>2021-07-18T12:41:56Z</time>
      </trkpt>
      <trkpt lat="43.48929" lon="-1.47722">
        <ele>15.5</ele>
        <time>2021-07-18T12:41:57Z</time>
      </trkpt>
      <trkpt lat="43.48929" lon="-1.47723">
        <ele>15.5</ele>
        <time>2021-07-18T12:41:58Z</time>
      </trkpt>
      <trkpt lat="43.48927" lon="-1.47724">
        <ele>15.5</ele>
        <time>2021-07-18T12:41:59Z</time>
      </trkpt>
      <trkpt lat="43.48926" lon="-1.47725">
        <ele>15.5</ele>
        <time>2021-07-18T12:42:01Z</time>
      </trkpt>
      <trkpt lat="43.48926" lon="-1.47725">
        <ele>15.5</ele>
        <time>2021-07-18T12:42:02Z</time>
      </trkpt>
      <trkpt lat="43.48925" lon="-1.47726">
        <ele>15.5</ele>
        <time>2021-07-18T12:42:04Z</time>
      </trkpt>
      <trkpt lat="43.48925" lon="-1.47727">
        <ele>15.5</ele>
        <time>2021-07-18T12:42:05Z</time>
      </trkpt>
      <trkpt lat="43.48923" lon="-1.47728">
        <ele>15.4</ele>
        <time>2021-07-18T12:42:07Z</time>
      </trkpt>
      <trkpt lat="43.48922" lon="-1.47729">
        <ele>15.4</ele>
        <time>2021-07-18T12:42:08Z</time>
      </trkpt>
      <trkpt lat="43.48921" lon="-1.4773">
        <ele>15.4</ele>
        <time>2021-07-18T12:42:09Z</time>
      </trkpt>
      <trkpt lat="43.4892" lon="-1.47732">
        <ele>15.4</ele>
        <time>2021-07-18T12:42:10Z</time>
      </trkpt>
      <trkpt lat="43.4892" lon="-1.47733">
        <ele>15.4</ele>
        <time>2021-07-18T12:42:11Z</time>
      </trkpt>
      <trkpt lat="43.48919" lon="-1.47734">
        <ele>15.4</ele>
        <time>2021-07-18T12:42:13Z</time>
      </trkpt>
      <trkpt lat="43.48918" lon="-1.47735">
        <ele>15.4</ele>
        <time>2021-07-18T12:42:14Z</time>
      </trkpt>
      <trkpt lat="43.48916" lon="-1.47736">
        <ele>15.4</ele>
        <time>2021-07-18T12:42:15Z</time>
      </trkpt>
      <trkpt lat="43.48915" lon="-1.47737">
        <ele>15.4</ele>
        <time>2021-07-18T12:42:16Z</time>
      </trkpt>
      <trkpt lat="43.48914" lon="-1.47738">
        <ele>15.4</ele>
        <time>2021-07-18T12:42:17Z</time>
      </trkpt>
      <trkpt lat="43.48913" lon="-1.47738">
        <ele>15.4</ele>
        <time>2021-07-18T12:42:19Z</time>
      </trkpt>
      <trkpt lat="43.48912" lon="-1.47739">
        <ele>15.4</ele>
        <time>2021-07-18T12:42:20Z</time>
      </trkpt>
      <trkpt lat="43.48909" lon="-1.4774">
        <ele>15.4</ele>
        <time>2021-07-18T12:42:21Z</time>
      </trkpt>
      <trkpt lat="43.48908" lon="-1.47741">
        <ele>15.4</ele>
        <time>2021-07-18T12:42:22Z</time>
      </trkpt>
      <trkpt lat="43.48907" lon="-1.47748">
        <ele>15.3</ele>
        <time>2021-07-18T12:42:24Z</time>
      </trkpt>
      <trkpt lat="43.48905" lon="-1.47751">
        <ele>15.2</ele>
        <time>2021-07-18T12:42:25Z</time>
      </trkpt>
      <trkpt lat="43.48903" lon="-1.47757">
        <ele>15.1</ele>
        <time>2021-07-18T12:42:27Z</time>
      </trkpt>
      <trkpt lat="43.48902" lon="-1.47758">
        <ele>15</ele>
        <time>2021-07-18T12:42:28Z</time>
      </trkpt>
      <trkpt lat="43.48902" lon="-1.47759">
        <ele>15</ele>
        <time>2021-07-18T12:42:29Z</time>
      </trkpt>
      <trkpt lat="43.48901" lon="-1.47761">
        <ele>15</ele>
        <time>2021-07-18T12:42:30Z</time>
      </trkpt>
      <trkpt lat="43.48899" lon="-1.47763">
        <ele>14.9</ele>
        <time>2021-07-18T12:42:31Z</time>
      </trkpt>
      <trkpt lat="43.48897" lon="-1.47766">
        <ele>14.8</ele>
        <time>2021-07-18T12:42:33Z</time>
      </trkpt>
      <trkpt lat="43.48896" lon="-1.47767">
        <ele>14.8</ele>
        <time>2021-07-18T12:42:34Z</time>
      </trkpt>
      <trkpt lat="43.48895" lon="-1.47769">
        <ele>14.7</ele>
        <time>2021-07-18T12:42:35Z</time>
      </trkpt>
      <trkpt lat="43.48893" lon="-1.47771">
        <ele>14.7</ele>
        <time>2021-07-18T12:42:36Z</time>
      </trkpt>
      <trkpt lat="43.4889" lon="-1.47772">
        <ele>14.6</ele>
        <time>2021-07-18T12:42:38Z</time>
      </trkpt>
      <trkpt lat="43.48887" lon="-1.47773">
        <ele>14.5</ele>
        <time>2021-07-18T12:42:39Z</time>
      </trkpt>
      <trkpt lat="43.48883" lon="-1.47775">
        <ele>14.4</ele>
        <time>2021-07-18T12:42:41Z</time>
      </trkpt>
      <trkpt lat="43.48881" lon="-1.47775">
        <ele>14.5</ele>
        <time>2021-07-18T12:42:42Z</time>
      </trkpt>
      <trkpt lat="43.48878" lon="-1.47777">
        <ele>14.5</ele>
        <time>2021-07-18T12:42:43Z</time>
      </trkpt>
      <trkpt lat="43.48877" lon="-1.47777">
        <ele>14.6</ele>
        <time>2021-07-18T12:42:44Z</time>
      </trkpt>
      <trkpt lat="43.48874" lon="-1.4778">
        <ele>14.6</ele>
        <time>2021-07-18T12:42:46Z</time>
      </trkpt>
      <trkpt lat="43.48874" lon="-1.4778">
        <ele>14.7</ele>
        <time>2021-07-18T12:42:47Z</time>
      </trkpt>
      <trkpt lat="43.48871" lon="-1.47783">
        <ele>14.7</ele>
        <time>2021-07-18T12:42:48Z</time>
      </trkpt>
      <trkpt lat="43.4887" lon="-1.47784">
        <ele>14.8</ele>
        <time>2021-07-18T12:42:49Z</time>
      </trkpt>
      <trkpt lat="43.48867" lon="-1.47788">
        <ele>14.9</ele>
        <time>2021-07-18T12:42:51Z</time>
      </trkpt>
      <trkpt lat="43.48866" lon="-1.47789">
        <ele>14.9</ele>
        <time>2021-07-18T12:42:52Z</time>
      </trkpt>
      <trkpt lat="43.48865" lon="-1.4779">
        <ele>15</ele>
        <time>2021-07-18T12:42:53Z</time>
      </trkpt>
      <trkpt lat="43.48863" lon="-1.47793">
        <ele>15</ele>
        <time>2021-07-18T12:42:55Z</time>
      </trkpt>
      <trkpt lat="43.48861" lon="-1.47794">
        <ele>15.1</ele>
        <time>2021-07-18T12:42:56Z</time>
      </trkpt>
      <trkpt lat="43.4886" lon="-1.47796">
        <ele>15.1</ele>
        <time>2021-07-18T12:42:57Z</time>
      </trkpt>
      <trkpt lat="43.48859" lon="-1.478">
        <ele>15.2</ele>
        <time>2021-07-18T12:42:59Z</time>
      </trkpt>
      <trkpt lat="43.48858" lon="-1.47801">
        <ele>15.3</ele>
        <time>2021-07-18T12:43:00Z</time>
      </trkpt>
      <trkpt lat="43.48856" lon="-1.47802">
        <ele>15.3</ele>
        <time>2021-07-18T12:43:01Z</time>
      </trkpt>
      <trkpt lat="43.48856" lon="-1.47801">
        <ele>15.3</ele>
        <time>2021-07-18T12:43:03Z</time>
      </trkpt>
      <trkpt lat="43.48855" lon="-1.478">
        <ele>15.3</ele>
        <time>2021-07-18T12:43:04Z</time>
      </trkpt>
      <trkpt lat="43.48855" lon="-1.47799">
        <ele>15.2</ele>
        <time>2021-07-18T12:43:05Z</time>
      </trkpt>
      <trkpt lat="43.48854" lon="-1.47798">
        <ele>15.2</ele>
        <time>2021-07-18T12:43:06Z</time>
      </trkpt>
      <trkpt lat="43.48854" lon="-1.47793">
        <ele>15.1</ele>
        <time>2021-07-18T12:43:08Z</time>
      </trkpt>
      <trkpt lat="43.48854" lon="-1.47791">
        <ele>15.1</ele>
        <time>2021-07-18T12:43:09Z</time>
      </trkpt>
      <trkpt lat="43.48854" lon="-1.47789">
        <ele>15.1</ele>
        <time>2021-07-18T12:43:10Z</time>
      </trkpt>
      <trkpt lat="43.48855" lon="-1.47787">
        <ele>15.1</ele>
        <time>2021-07-18T12:43:11Z</time>
      </trkpt>
      <trkpt lat="43.48857" lon="-1.47785">
        <ele>15</ele>
        <time>2021-07-18T12:43:13Z</time>
      </trkpt>
      <trkpt lat="43.4886" lon="-1.47784">
        <ele>14.9</ele>
        <time>2021-07-18T12:43:14Z</time>
      </trkpt>
      <trkpt lat="43.48863" lon="-1.47783">
        <ele>14.9</ele>
        <time>2021-07-18T12:43:15Z</time>
      </trkpt>
      <trkpt lat="43.48867" lon="-1.47782">
        <ele>14.8</ele>
        <time>2021-07-18T12:43:17Z</time>
      </trkpt>
      <trkpt lat="43.48869" lon="-1.47782">
        <ele>14.7</ele>
        <time>2021-07-18T12:43:18Z</time>
      </trkpt>
      <trkpt lat="43.48872" lon="-1.47781">
        <ele>14.7</ele>
        <time>2021-07-18T12:43:20Z</time>
      </trkpt>
      <trkpt lat="43.48874" lon="-1.47781">
        <ele>14.6</ele>
        <time>2021-07-18T12:43:21Z</time>
      </trkpt>
      <trkpt lat="43.48877" lon="-1.47782">
        <ele>14.6</ele>
        <time>2021-07-18T12:43:23Z</time>
      </trkpt>
      <trkpt lat="43.48881" lon="-1.47782">
        <ele>14.5</ele>
        <time>2021-07-18T12:43:24Z</time>
      </trkpt>
      <trkpt lat="43.48882" lon="-1.47781">
        <ele>14.5</ele>
        <time>2021-07-18T12:43:25Z</time>
      </trkpt>
      <trkpt lat="43.48886" lon="-1.47778">
        <ele>14.4</ele>
        <time>2021-07-18T12:43:27Z</time>
      </trkpt>
      <trkpt lat="43.48887" lon="-1.47777">
        <ele>14.3</ele>
        <time>2021-07-18T12:43:28Z</time>
      </trkpt>
      <trkpt lat="43.48887" lon="-1.47775">
        <ele>14.3</ele>
        <time>2021-07-18T12:43:29Z</time>
      </trkpt>
      <trkpt lat="43.48887" lon="-1.47768">
        <ele>14</ele>
        <time>2021-07-18T12:43:31Z</time>
      </trkpt>
      <trkpt lat="43.48885" lon="-1.47764">
        <ele>13.8</ele>
        <time>2021-07-18T12:43:32Z</time>
      </trkpt>
      <trkpt lat="43.48882" lon="-1.4776">
        <ele>13.6</ele>
        <time>2021-07-18T12:43:34Z</time>
      </trkpt>
      <trkpt lat="43.48882" lon="-1.47757">
        <ele>13.5</ele>
        <time>2021-07-18T12:43:35Z</time>
      </trkpt>
      <trkpt lat="43.48881" lon="-1.47756">
        <ele>13.5</ele>
        <time>2021-07-18T12:43:36Z</time>
      </trkpt>
      <trkpt lat="43.4888" lon="-1.47755">
        <ele>13.4</ele>
        <time>2021-07-18T12:43:37Z</time>
      </trkpt>
      <trkpt lat="43.48879" lon="-1.47754">
        <ele>13.4</ele>
        <time>2021-07-18T12:43:38Z</time>
      </trkpt>
      <trkpt lat="43.48879" lon="-1.47753">
        <ele>13.3</ele>
        <time>2021-07-18T12:43:39Z</time>
      </trkpt>
      <trkpt lat="43.48877" lon="-1.47747">
        <ele>13.1</ele>
        <time>2021-07-18T12:43:41Z</time>
      </trkpt>
      <trkpt lat="43.48876" lon="-1.47744">
        <ele>13</ele>
        <time>2021-07-18T12:43:42Z</time>
      </trkpt>
      <trkpt lat="43.48876" lon="-1.47742">
        <ele>12.9</ele>
        <time>2021-07-18T12:43:43Z</time>
      </trkpt>
      <trkpt lat="43.48875" lon="-1.47739">
        <ele>12.8</ele>
        <time>2021-07-18T12:43:44Z</time>
      </trkpt>
      <trkpt lat="43.48874" lon="-1.47734">
        <ele>12.6</ele>
        <time>2021-07-18T12:43:46Z</time>
      </trkpt>
      <trkpt lat="43.48873" lon="-1.4773">
        <ele>12.6</ele>
        <time>2021-07-18T12:43:47Z</time>
      </trkpt>
      <trkpt lat="43.48872" lon="-1.47726">
        <ele>12.5</ele>
        <time>2021-07-18T12:43:48Z</time>
      </trkpt>
      <trkpt lat="43.48871" lon="-1.47722">
        <ele>12.5</ele>
        <time>2021-07-18T12:43:49Z</time>
      </trkpt>
      <trkpt lat="43.48871" lon="-1.4772">
        <ele>12.4</ele>
        <time>2021-07-18T12:43:50Z</time>
      </trkpt>
      <trkpt lat="43.48869" lon="-1.47716">
        <ele>12.4</ele>
        <time>2021-07-18T12:43:52Z</time>
      </trkpt>
      <trkpt lat="43.48869" lon="-1.47712">
        <ele>12.3</ele>
        <time>2021-07-18T12:43:53Z</time>
      </trkpt>
      <trkpt lat="43.48869" lon="-1.47709">
        <ele>12.3</ele>
        <time>2021-07-18T12:43:54Z</time>
      </trkpt>
      <trkpt lat="43.48868" lon="-1.47703">
        <ele>12.2</ele>
        <time>2021-07-18T12:43:56Z</time>
      </trkpt>
      <trkpt lat="43.48868" lon="-1.47698">
        <ele>12.1</ele>
        <time>2021-07-18T12:43:57Z</time>
      </trkpt>
      <trkpt lat="43.48867" lon="-1.47692">
        <ele>12</ele>
        <time>2021-07-18T12:43:59Z</time>
      </trkpt>
      <trkpt lat="43.48866" lon="-1.47688">
        <ele>12</ele>
        <time>2021-07-18T12:44:00Z</time>
      </trkpt>
      <trkpt lat="43.48866" lon="-1.47684">
        <ele>11.9</ele>
        <time>2021-07-18T12:44:01Z</time>
      </trkpt>
      <trkpt lat="43.48866" lon="-1.47681">
        <ele>11.9</ele>
        <time>2021-07-18T12:44:02Z</time>
      </trkpt>
      <trkpt lat="43.48865" lon="-1.47677">
        <ele>11.8</ele>
        <time>2021-07-18T12:44:04Z</time>
      </trkpt>
      <trkpt lat="43.48866" lon="-1.47672">
        <ele>11.8</ele>
        <time>2021-07-18T12:44:05Z</time>
      </trkpt>
      <trkpt lat="43.48866" lon="-1.4767">
        <ele>11.7</ele>
        <time>2021-07-18T12:44:06Z</time>
      </trkpt>
      <trkpt lat="43.48866" lon="-1.4767">
        <ele>11.7</ele>
        <time>2021-07-18T12:44:07Z</time>
      </trkpt>
      <trkpt lat="43.48867" lon="-1.47671">
        <ele>11.7</ele>
        <time>2021-07-18T12:44:09Z</time>
      </trkpt>
      <trkpt lat="43.48867" lon="-1.47671">
        <ele>11.7</ele>
        <time>2021-07-18T12:44:10Z</time>
      </trkpt>
      <trkpt lat="43.48867" lon="-1.47671">
        <ele>11.7</ele>
        <time>2021-07-18T12:44:12Z</time>
      </trkpt>
      <trkpt lat="43.48867" lon="-1.47671">
        <ele>11.7</ele>
        <time>2021-07-18T12:44:13Z</time>
      </trkpt>
      <trkpt lat="43.48867" lon="-1.47671">
        <ele>11.7</ele>
        <time>2021-07-18T12:44:15Z</time>
      </trkpt>
      <trkpt lat="43.48867" lon="-1.47671">
        <ele>11.7</ele>
        <time>2021-07-18T12:44:17Z</time>
      </trkpt>
      <trkpt lat="43.48866" lon="-1.47668">
        <ele>11.6</ele>
        <time>2021-07-18T12:44:41Z</time>
      </trkpt>
      <trkpt lat="43.48866" lon="-1.47664">
        <ele>11.6</ele>
        <time>2021-07-18T12:44:43Z</time>
      </trkpt>
      <trkpt lat="43.48867" lon="-1.47659">
        <ele>11.5</ele>
        <time>2021-07-18T12:44:45Z</time>
      </trkpt>
      <trkpt lat="43.48867" lon="-1.47654">
        <ele>11.5</ele>
        <time>2021-07-18T12:44:47Z</time>
      </trkpt>
      <trkpt lat="43.48869" lon="-1.47648">
        <ele>11.4</ele>
        <time>2021-07-18T12:44:49Z</time>
      </trkpt>
      <trkpt lat="43.48869" lon="-1.47643">
        <ele>11.4</ele>
        <time>2021-07-18T12:44:50Z</time>
      </trkpt>
      <trkpt lat="43.48869" lon="-1.4764">
        <ele>11.3</ele>
        <time>2021-07-18T12:44:52Z</time>
      </trkpt>
      <trkpt lat="43.48869" lon="-1.4764">
        <ele>11.3</ele>
        <time>2021-07-18T12:44:53Z</time>
      </trkpt>
      <trkpt lat="43.48869" lon="-1.47639">
        <ele>11.3</ele>
        <time>2021-07-18T12:44:54Z</time>
      </trkpt>
      <trkpt lat="43.48869" lon="-1.47638">
        <ele>11.3</ele>
        <time>2021-07-18T12:44:56Z</time>
      </trkpt>
      <trkpt lat="43.48869" lon="-1.47637">
        <ele>11.3</ele>
        <time>2021-07-18T12:44:58Z</time>
      </trkpt>
      <trkpt lat="43.48869" lon="-1.47637">
        <ele>11.3</ele>
        <time>2021-07-18T12:44:59Z</time>
      </trkpt>
      <trkpt lat="43.48869" lon="-1.47632">
        <ele>11.3</ele>
        <time>2021-07-18T12:45:00Z</time>
      </trkpt>
      <trkpt lat="43.48869" lon="-1.4763">
        <ele>11.2</ele>
        <time>2021-07-18T12:45:01Z</time>
      </trkpt>
      <trkpt lat="43.48869" lon="-1.47624">
        <ele>11.2</ele>
        <time>2021-07-18T12:45:03Z</time>
      </trkpt>
      <trkpt lat="43.48868" lon="-1.47617">
        <ele>11.1</ele>
        <time>2021-07-18T12:45:05Z</time>
      </trkpt>
      <trkpt lat="43.48868" lon="-1.47615">
        <ele>11.1</ele>
        <time>2021-07-18T12:45:07Z</time>
      </trkpt>
      <trkpt lat="43.48868" lon="-1.47612">
        <ele>11.1</ele>
        <time>2021-07-18T12:45:08Z</time>
      </trkpt>
      <trkpt lat="43.48868" lon="-1.4761">
        <ele>11.1</ele>
        <time>2021-07-18T12:45:09Z</time>
      </trkpt>
      <trkpt lat="43.48868" lon="-1.47606">
        <ele>11.1</ele>
        <time>2021-07-18T12:45:11Z</time>
      </trkpt>
      <trkpt lat="43.48868" lon="-1.47601">
        <ele>10.5</ele>
        <time>2021-07-18T12:45:12Z</time>
      </trkpt>
      <trkpt lat="43.48866" lon="-1.47598">
        <ele>10.4</ele>
        <time>2021-07-18T12:45:14Z</time>
      </trkpt>
      <trkpt lat="43.48865" lon="-1.47598">
        <ele>10.3</ele>
        <time>2021-07-18T12:45:15Z</time>
      </trkpt>
      <trkpt lat="43.48864" lon="-1.47596">
        <ele>10.3</ele>
        <time>2021-07-18T12:45:16Z</time>
      </trkpt>
      <trkpt lat="43.48863" lon="-1.47593">
        <ele>10.2</ele>
        <time>2021-07-18T12:45:18Z</time>
      </trkpt>
      <trkpt lat="43.48864" lon="-1.47591">
        <ele>10.4</ele>
        <time>2021-07-18T12:45:19Z</time>
      </trkpt>
      <trkpt lat="43.48869" lon="-1.4759">
        <ele>11.1</ele>
        <time>2021-07-18T12:45:21Z</time>
      </trkpt>
      <trkpt lat="43.48872" lon="-1.4759">
        <ele>11.4</ele>
        <time>2021-07-18T12:45:22Z</time>
      </trkpt>
      <trkpt lat="43.48873" lon="-1.4759">
        <ele>11.5</ele>
        <time>2021-07-18T12:45:23Z</time>
      </trkpt>
      <trkpt lat="43.48878" lon="-1.47591">
        <ele>11.9</ele>
        <time>2021-07-18T12:45:25Z</time>
      </trkpt>
      <trkpt lat="43.48879" lon="-1.47591">
        <ele>12</ele>
        <time>2021-07-18T12:45:26Z</time>
      </trkpt>
      <trkpt lat="43.48879" lon="-1.47591">
        <ele>12</ele>
        <time>2021-07-18T12:45:28Z</time>
      </trkpt>
      <trkpt lat="43.4888" lon="-1.47592">
        <ele>12</ele>
        <time>2021-07-18T12:45:29Z</time>
      </trkpt>
      <trkpt lat="43.4888" lon="-1.47592">
        <ele>12.1</ele>
        <time>2021-07-18T12:45:30Z</time>
      </trkpt>
      <trkpt lat="43.4888" lon="-1.47592">
        <ele>12.1</ele>
        <time>2021-07-18T12:45:32Z</time>
      </trkpt>
      <trkpt lat="43.48881" lon="-1.47592">
        <ele>12.1</ele>
        <time>2021-07-18T12:45:34Z</time>
      </trkpt>
      <trkpt lat="43.48881" lon="-1.47592">
        <ele>12.2</ele>
        <time>2021-07-18T12:45:36Z</time>
      </trkpt>
      <trkpt lat="43.48881" lon="-1.47593">
        <ele>12.2</ele>
        <time>2021-07-18T12:45:37Z</time>
      </trkpt>
      <trkpt lat="43.48882" lon="-1.47593">
        <ele>12.2</ele>
        <time>2021-07-18T12:45:38Z</time>
      </trkpt>
      <trkpt lat="43.48882" lon="-1.47593">
        <ele>12.2</ele>
        <time>2021-07-18T12:45:40Z</time>
      </trkpt>
      <trkpt lat="43.48883" lon="-1.47593">
        <ele>12.2</ele>
        <time>2021-07-18T12:45:42Z</time>
      </trkpt>
      <trkpt lat="43.48883" lon="-1.47594">
        <ele>12.2</ele>
        <time>2021-07-18T12:45:43Z</time>
      </trkpt>
      <trkpt lat="43.48883" lon="-1.47594">
        <ele>12.2</ele>
        <time>2021-07-18T12:45:44Z</time>
      </trkpt>
      <trkpt lat="43.48884" lon="-1.47594">
        <ele>12.2</ele>
        <time>2021-07-18T12:46:13Z</time>
      </trkpt>
      <trkpt lat="43.48884" lon="-1.47594">
        <ele>12.2</ele>
        <time>2021-07-18T12:46:14Z</time>
      </trkpt>
      <trkpt lat="43.48884" lon="-1.47594">
        <ele>12.2</ele>
        <time>2021-07-18T12:46:15Z</time>
      </trkpt>
      <trkpt lat="43.48885" lon="-1.47595">
        <ele>12.2</ele>
        <time>2021-07-18T12:46:16Z</time>
      </trkpt>
      <trkpt lat="43.4889" lon="-1.47594">
        <ele>12.2</ele>
        <time>2021-07-18T12:46:18Z</time>
      </trkpt>
      <trkpt lat="43.48893" lon="-1.47594">
        <ele>12.1</ele>
        <time>2021-07-18T12:46:20Z</time>
      </trkpt>
      <trkpt lat="43.48895" lon="-1.47594">
        <ele>12.1</ele>
        <time>2021-07-18T12:46:21Z</time>
      </trkpt>
      <trkpt lat="43.48897" lon="-1.47594">
        <ele>12.1</ele>
        <time>2021-07-18T12:46:22Z</time>
      </trkpt>
      <trkpt lat="43.489" lon="-1.47594">
        <ele>12.1</ele>
        <time>2021-07-18T12:46:24Z</time>
      </trkpt>
      <trkpt lat="43.48903" lon="-1.47593">
        <ele>12</ele>
        <time>2021-07-18T12:46:25Z</time>
      </trkpt>
      <trkpt lat="43.48908" lon="-1.47593">
        <ele>11.9</ele>
        <time>2021-07-18T12:46:27Z</time>
      </trkpt>
      <trkpt lat="43.48912" lon="-1.47591">
        <ele>11.9</ele>
        <time>2021-07-18T12:46:28Z</time>
      </trkpt>
      <trkpt lat="43.48913" lon="-1.47591">
        <ele>11.8</ele>
        <time>2021-07-18T12:46:29Z</time>
      </trkpt>
      <trkpt lat="43.48915" lon="-1.4759">
        <ele>11.8</ele>
        <time>2021-07-18T12:46:31Z</time>
      </trkpt>
      <trkpt lat="43.48917" lon="-1.47589">
        <ele>11.7</ele>
        <time>2021-07-18T12:46:32Z</time>
      </trkpt>
      <trkpt lat="43.4892" lon="-1.47586">
        <ele>11.6</ele>
        <time>2021-07-18T12:46:34Z</time>
      </trkpt>
      <trkpt lat="43.48923" lon="-1.47585">
        <ele>11.5</ele>
        <time>2021-07-18T12:46:35Z</time>
      </trkpt>
      <trkpt lat="43.48928" lon="-1.47583">
        <ele>11.3</ele>
        <time>2021-07-18T12:46:37Z</time>
      </trkpt>
      <trkpt lat="43.48928" lon="-1.47583">
        <ele>11.3</ele>
        <time>2021-07-18T12:46:39Z</time>
      </trkpt>
      <trkpt lat="43.4893" lon="-1.47585">
        <ele>11.2</ele>
        <time>2021-07-18T12:46:40Z</time>
      </trkpt>
      <trkpt lat="43.48934" lon="-1.47587">
        <ele>11</ele>
        <time>2021-07-18T12:46:42Z</time>
      </trkpt>
      <trkpt lat="43.48935" lon="-1.47587">
        <ele>10.9</ele>
        <time>2021-07-18T12:46:43Z</time>
      </trkpt>
      <trkpt lat="43.48936" lon="-1.47586">
        <ele>10.9</ele>
        <time>2021-07-18T12:46:45Z</time>
      </trkpt>
      <trkpt lat="43.48937" lon="-1.47586">
        <ele>10.8</ele>
        <time>2021-07-18T12:46:46Z</time>
      </trkpt>
      <trkpt lat="43.48938" lon="-1.47586">
        <ele>10.7</ele>
        <time>2021-07-18T12:46:48Z</time>
      </trkpt>
      <trkpt lat="43.4894" lon="-1.47586">
        <ele>10.7</ele>
        <time>2021-07-18T12:46:49Z</time>
      </trkpt>
      <trkpt lat="43.48941" lon="-1.47586">
        <ele>10.6</ele>
        <time>2021-07-18T12:46:50Z</time>
      </trkpt>
      <trkpt lat="43.48942" lon="-1.47586">
        <ele>10.5</ele>
        <time>2021-07-18T12:46:51Z</time>
      </trkpt>
      <trkpt lat="43.48945" lon="-1.47586">
        <ele>10.4</ele>
        <time>2021-07-18T12:46:52Z</time>
      </trkpt>
      <trkpt lat="43.48947" lon="-1.47586">
        <ele>10.3</ele>
        <time>2021-07-18T12:46:53Z</time>
      </trkpt>
      <trkpt lat="43.48949" lon="-1.47585">
        <ele>10.2</ele>
        <time>2021-07-18T12:46:55Z</time>
      </trkpt>
      <trkpt lat="43.48958" lon="-1.47583">
        <ele>9.7</ele>
        <time>2021-07-18T12:46:57Z</time>
      </trkpt>
      <trkpt lat="43.48961" lon="-1.47582">
        <ele>9.6</ele>
        <time>2021-07-18T12:46:58Z</time>
      </trkpt>
      <trkpt lat="43.48962" lon="-1.47582">
        <ele>9.5</ele>
        <time>2021-07-18T12:46:59Z</time>
      </trkpt>
      <trkpt lat="43.48964" lon="-1.47582">
        <ele>9.4</ele>
        <time>2021-07-18T12:47:01Z</time>
      </trkpt>
      <trkpt lat="43.48966" lon="-1.47581">
        <ele>9.3</ele>
        <time>2021-07-18T12:47:03Z</time>
      </trkpt>
      <trkpt lat="43.48966" lon="-1.47581">
        <ele>9.3</ele>
        <time>2021-07-18T12:47:04Z</time>
      </trkpt>
      <trkpt lat="43.48966" lon="-1.47581">
        <ele>9.3</ele>
        <time>2021-07-18T12:47:06Z</time>
      </trkpt>
      <trkpt lat="43.48967" lon="-1.47579">
        <ele>7.8</ele>
        <time>2021-07-18T12:47:07Z</time>
      </trkpt>
      <trkpt lat="43.48967" lon="-1.47576">
        <ele>7.2</ele>
        <time>2021-07-18T12:47:08Z</time>
      </trkpt>
      <trkpt lat="43.48966" lon="-1.47574">
        <ele>7.1</ele>
        <time>2021-07-18T12:47:10Z</time>
      </trkpt>
      <trkpt lat="43.48966" lon="-1.47572">
        <ele>7</ele>
        <time>2021-07-18T12:47:11Z</time>
      </trkpt>
      <trkpt lat="43.48966" lon="-1.47567">
        <ele>6.7</ele>
        <time>2021-07-18T12:47:13Z</time>
      </trkpt>
      <trkpt lat="43.48966" lon="-1.47562">
        <ele>6.5</ele>
        <time>2021-07-18T12:47:14Z</time>
      </trkpt>
      <trkpt lat="43.48966" lon="-1.47561">
        <ele>6.4</ele>
        <time>2021-07-18T12:47:15Z</time>
      </trkpt>
      <trkpt lat="43.48967" lon="-1.47556">
        <ele>6.2</ele>
        <time>2021-07-18T12:47:17Z</time>
      </trkpt>
      <trkpt lat="43.48966" lon="-1.47553">
        <ele>6.1</ele>
        <time>2021-07-18T12:47:18Z</time>
      </trkpt>
      <trkpt lat="43.48967" lon="-1.47552">
        <ele>6.1</ele>
        <time>2021-07-18T12:47:19Z</time>
      </trkpt>
      <trkpt lat="43.48971" lon="-1.47551">
        <ele>6</ele>
        <time>2021-07-18T12:47:21Z</time>
      </trkpt>
      <trkpt lat="43.48974" lon="-1.47551">
        <ele>6</ele>
        <time>2021-07-18T12:47:22Z</time>
      </trkpt>
      <trkpt lat="43.48975" lon="-1.47548">
        <ele>5.9</ele>
        <time>2021-07-18T12:47:23Z</time>
      </trkpt>
      <trkpt lat="43.48977" lon="-1.47547">
        <ele>5.9</ele>
        <time>2021-07-18T12:47:25Z</time>
      </trkpt>
      <trkpt lat="43.48978" lon="-1.47547">
        <ele>5.8</ele>
        <time>2021-07-18T12:47:26Z</time>
      </trkpt>
      <trkpt lat="43.48979" lon="-1.47547">
        <ele>5.8</ele>
        <time>2021-07-18T12:47:27Z</time>
      </trkpt>
      <trkpt lat="43.48979" lon="-1.47544">
        <ele>5.8</ele>
        <time>2021-07-18T12:47:28Z</time>
      </trkpt>
      <trkpt lat="43.4898" lon="-1.47538">
        <ele>5.7</ele>
        <time>2021-07-18T12:47:30Z</time>
      </trkpt>
      <trkpt lat="43.48979" lon="-1.47533">
        <ele>5.6</ele>
        <time>2021-07-18T12:47:31Z</time>
      </trkpt>
      <trkpt lat="43.48978" lon="-1.47529">
        <ele>5.6</ele>
        <time>2021-07-18T12:47:32Z</time>
      </trkpt>
      <trkpt lat="43.48975" lon="-1.4752">
        <ele>5.5</ele>
        <time>2021-07-18T12:47:34Z</time>
      </trkpt>
      <trkpt lat="43.48973" lon="-1.47516">
        <ele>5.5</ele>
        <time>2021-07-18T12:47:35Z</time>
      </trkpt>
      <trkpt lat="43.48972" lon="-1.47505">
        <ele>5.4</ele>
        <time>2021-07-18T12:47:37Z</time>
      </trkpt>
      <trkpt lat="43.48971" lon="-1.47502">
        <ele>5.4</ele>
        <time>2021-07-18T12:47:38Z</time>
      </trkpt>
      <trkpt lat="43.48971" lon="-1.47498">
        <ele>5.4</ele>
        <time>2021-07-18T12:47:40Z</time>
      </trkpt>
      <trkpt lat="43.48971" lon="-1.47495">
        <ele>5.4</ele>
        <time>2021-07-18T12:47:41Z</time>
      </trkpt>
      <trkpt lat="43.48973" lon="-1.47493">
        <ele>5.4</ele>
        <time>2021-07-18T12:47:42Z</time>
      </trkpt>
      <trkpt lat="43.48975" lon="-1.47491">
        <ele>5.4</ele>
        <time>2021-07-18T12:47:44Z</time>
      </trkpt>
      <trkpt lat="43.48975" lon="-1.4749">
        <ele>5.4</ele>
        <time>2021-07-18T12:47:45Z</time>
      </trkpt>
      <trkpt lat="43.48976" lon="-1.47487">
        <ele>5.4</ele>
        <time>2021-07-18T12:47:46Z</time>
      </trkpt>
      <trkpt lat="43.48977" lon="-1.47485">
        <ele>5.4</ele>
        <time>2021-07-18T12:47:48Z</time>
      </trkpt>
      <trkpt lat="43.48979" lon="-1.47483">
        <ele>5.4</ele>
        <time>2021-07-18T12:47:49Z</time>
      </trkpt>
      <trkpt lat="43.4898" lon="-1.47483">
        <ele>5.4</ele>
        <time>2021-07-18T12:47:50Z</time>
      </trkpt>
      <trkpt lat="43.48981" lon="-1.47485">
        <ele>5.4</ele>
        <time>2021-07-18T12:47:52Z</time>
      </trkpt>
      <trkpt lat="43.48982" lon="-1.47486">
        <ele>5.4</ele>
        <time>2021-07-18T12:47:53Z</time>
      </trkpt>
      <trkpt lat="43.48983" lon="-1.47486">
        <ele>5.4</ele>
        <time>2021-07-18T12:47:55Z</time>
      </trkpt>
      <trkpt lat="43.48983" lon="-1.47485">
        <ele>5.5</ele>
        <time>2021-07-18T12:47:58Z</time>
      </trkpt>
      <trkpt lat="43.48983" lon="-1.47485">
        <ele>5.5</ele>
        <time>2021-07-18T12:48:00Z</time>
      </trkpt>
      <trkpt lat="43.48983" lon="-1.47485">
        <ele>5.5</ele>
        <time>2021-07-18T12:48:02Z</time>
      </trkpt>
      <trkpt lat="43.48983" lon="-1.47485">
        <ele>5.5</ele>
        <time>2021-07-18T12:48:03Z</time>
      </trkpt>
      <trkpt lat="43.48986" lon="-1.47484">
        <ele>5.5</ele>
        <time>2021-07-18T12:48:28Z</time>
      </trkpt>
      <trkpt lat="43.48987" lon="-1.47485">
        <ele>5.5</ele>
        <time>2021-07-18T12:48:29Z</time>
      </trkpt>
      <trkpt lat="43.48989" lon="-1.47485">
        <ele>5.5</ele>
        <time>2021-07-18T12:48:31Z</time>
      </trkpt>
      <trkpt lat="43.48992" lon="-1.47485">
        <ele>5.5</ele>
        <time>2021-07-18T12:48:33Z</time>
      </trkpt>
      <trkpt lat="43.48993" lon="-1.47486">
        <ele>5.5</ele>
        <time>2021-07-18T12:48:34Z</time>
      </trkpt>
      <trkpt lat="43.48995" lon="-1.47486">
        <ele>5.5</ele>
        <time>2021-07-18T12:48:35Z</time>
      </trkpt>
      <trkpt lat="43.48998" lon="-1.47486">
        <ele>5.5</ele>
        <time>2021-07-18T12:48:37Z</time>
      </trkpt>
      <trkpt lat="43.49002" lon="-1.47484">
        <ele>5.5</ele>
        <time>2021-07-18T12:48:38Z</time>
      </trkpt>
      <trkpt lat="43.49006" lon="-1.47483">
        <ele>5.6</ele>
        <time>2021-07-18T12:48:40Z</time>
      </trkpt>
      <trkpt lat="43.49008" lon="-1.47483">
        <ele>5.6</ele>
        <time>2021-07-18T12:48:41Z</time>
      </trkpt>
      <trkpt lat="43.49011" lon="-1.47482">
        <ele>5.6</ele>
        <time>2021-07-18T12:48:43Z</time>
      </trkpt>
      <trkpt lat="43.49013" lon="-1.47482">
        <ele>5.6</ele>
        <time>2021-07-18T12:48:44Z</time>
      </trkpt>
      <trkpt lat="43.49016" lon="-1.47481">
        <ele>5.6</ele>
        <time>2021-07-18T12:48:46Z</time>
      </trkpt>
      <trkpt lat="43.49019" lon="-1.47481">
        <ele>5.6</ele>
        <time>2021-07-18T12:48:47Z</time>
      </trkpt>
      <trkpt lat="43.4902" lon="-1.47481">
        <ele>5.6</ele>
        <time>2021-07-18T12:48:48Z</time>
      </trkpt>
      <trkpt lat="43.49022" lon="-1.47481">
        <ele>5.6</ele>
        <time>2021-07-18T12:48:49Z</time>
      </trkpt>
      <trkpt lat="43.49025" lon="-1.47481">
        <ele>5.6</ele>
        <time>2021-07-18T12:48:51Z</time>
      </trkpt>
      <trkpt lat="43.49026" lon="-1.47483">
        <ele>5.6</ele>
        <time>2021-07-18T12:48:52Z</time>
      </trkpt>
      <trkpt lat="43.49029" lon="-1.47485">
        <ele>5.6</ele>
        <time>2021-07-18T12:48:54Z</time>
      </trkpt>
      <trkpt lat="43.49031" lon="-1.47486">
        <ele>5.6</ele>
        <time>2021-07-18T12:48:55Z</time>
      </trkpt>
      <trkpt lat="43.49032" lon="-1.47487">
        <ele>5.6</ele>
        <time>2021-07-18T12:48:56Z</time>
      </trkpt>
      <trkpt lat="43.49032" lon="-1.47488">
        <ele>5.6</ele>
        <time>2021-07-18T12:48:57Z</time>
      </trkpt>
      <trkpt lat="43.49031" lon="-1.47489">
        <ele>5.6</ele>
        <time>2021-07-18T12:48:58Z</time>
      </trkpt>
      <trkpt lat="43.4903" lon="-1.4749">
        <ele>5.6</ele>
        <time>2021-07-18T12:49:00Z</time>
      </trkpt>
      <trkpt lat="43.49032" lon="-1.4749">
        <ele>5.6</ele>
        <time>2021-07-18T12:49:01Z</time>
      </trkpt>
      <trkpt lat="43.49034" lon="-1.47491">
        <ele>5.6</ele>
        <time>2021-07-18T12:49:03Z</time>
      </trkpt>
      <trkpt lat="43.49036" lon="-1.47488">
        <ele>5.6</ele>
        <time>2021-07-18T12:49:04Z</time>
      </trkpt>
      <trkpt lat="43.49037" lon="-1.4749">
        <ele>5.6</ele>
        <time>2021-07-18T12:49:06Z</time>
      </trkpt>
      <trkpt lat="43.49039" lon="-1.47491">
        <ele>5.6</ele>
        <time>2021-07-18T12:49:09Z</time>
      </trkpt>
      <trkpt lat="43.49041" lon="-1.47493">
        <ele>5.6</ele>
        <time>2021-07-18T12:49:10Z</time>
      </trkpt>
      <trkpt lat="43.4904" lon="-1.47496">
        <ele>5.6</ele>
        <time>2021-07-18T12:49:12Z</time>
      </trkpt>
      <trkpt lat="43.49038" lon="-1.47499">
        <ele>5.6</ele>
        <time>2021-07-18T12:49:13Z</time>
      </trkpt>
      <trkpt lat="43.49037" lon="-1.47501">
        <ele>5.6</ele>
        <time>2021-07-18T12:49:14Z</time>
      </trkpt>
      <trkpt lat="43.49034" lon="-1.47505">
        <ele>5.6</ele>
        <time>2021-07-18T12:49:16Z</time>
      </trkpt>
      <trkpt lat="43.49033" lon="-1.47506">
        <ele>5.6</ele>
        <time>2021-07-18T12:49:17Z</time>
      </trkpt>
      <trkpt lat="43.49032" lon="-1.47507">
        <ele>5.6</ele>
        <time>2021-07-18T12:49:18Z</time>
      </trkpt>
      <trkpt lat="43.49031" lon="-1.47507">
        <ele>5.6</ele>
        <time>2021-07-18T12:49:19Z</time>
      </trkpt>
      <trkpt lat="43.4903" lon="-1.47507">
        <ele>5.6</ele>
        <time>2021-07-18T12:49:21Z</time>
      </trkpt>
      <trkpt lat="43.49029" lon="-1.47508">
        <ele>5.6</ele>
        <time>2021-07-18T12:49:22Z</time>
      </trkpt>
      <trkpt lat="43.49029" lon="-1.47508">
        <ele>5.6</ele>
        <time>2021-07-18T12:49:23Z</time>
      </trkpt>
      <trkpt lat="43.49029" lon="-1.47508">
        <ele>5.6</ele>
        <time>2021-07-18T12:49:24Z</time>
      </trkpt>
      <trkpt lat="43.49029" lon="-1.47508">
        <ele>5.6</ele>
        <time>2021-07-18T12:49:25Z</time>
      </trkpt>
      <trkpt lat="43.49028" lon="-1.47508">
        <ele>5.6</ele>
        <time>2021-07-18T12:49:26Z</time>
      </trkpt>
      <trkpt lat="43.49028" lon="-1.47509">
        <ele>5.6</ele>
        <time>2021-07-18T12:49:27Z</time>
      </trkpt>
      <trkpt lat="43.49028" lon="-1.47509">
        <ele>5.6</ele>
        <time>2021-07-18T12:49:29Z</time>
      </trkpt>
      <trkpt lat="43.49029" lon="-1.47509">
        <ele>5.6</ele>
        <time>2021-07-18T12:49:31Z</time>
      </trkpt>
      <trkpt lat="43.49029" lon="-1.47509">
        <ele>5.6</ele>
        <time>2021-07-18T12:49:32Z</time>
      </trkpt>
      <trkpt lat="43.49029" lon="-1.47509">
        <ele>5.6</ele>
        <time>2021-07-18T12:49:34Z</time>
      </trkpt>
      <trkpt lat="43.49029" lon="-1.47509">
        <ele>5.6</ele>
        <time>2021-07-18T12:49:35Z</time>
      </trkpt>
      <trkpt lat="43.49029" lon="-1.4751">
        <ele>5.6</ele>
        <time>2021-07-18T12:49:37Z</time>
      </trkpt>
      <trkpt lat="43.4903" lon="-1.47493">
        <ele>5.6</ele>
        <time>2021-07-18T13:46:25Z</time>
      </trkpt>
      <trkpt lat="43.4903" lon="-1.47494">
        <ele>5.6</ele>
        <time>2021-07-18T13:46:26Z</time>
      </trkpt>
      <trkpt lat="43.4903" lon="-1.47495">
        <ele>5.6</ele>
        <time>2021-07-18T13:46:27Z</time>
      </trkpt>
      <trkpt lat="43.49029" lon="-1.47495">
        <ele>5.6</ele>
        <time>2021-07-18T13:46:28Z</time>
      </trkpt>
      <trkpt lat="43.49028" lon="-1.47496">
        <ele>5.6</ele>
        <time>2021-07-18T13:46:29Z</time>
      </trkpt>
      <trkpt lat="43.49027" lon="-1.47495">
        <ele>5.6</ele>
        <time>2021-07-18T13:46:30Z</time>
      </trkpt>
      <trkpt lat="43.49026" lon="-1.47494">
        <ele>5.6</ele>
        <time>2021-07-18T13:46:31Z</time>
      </trkpt>
      <trkpt lat="43.49025" lon="-1.47494">
        <ele>5.6</ele>
        <time>2021-07-18T13:46:33Z</time>
      </trkpt>
      <trkpt lat="43.49024" lon="-1.47493">
        <ele>5.6</ele>
        <time>2021-07-18T13:46:34Z</time>
      </trkpt>
      <trkpt lat="43.49022" lon="-1.47494">
        <ele>5.6</ele>
        <time>2021-07-18T13:46:35Z</time>
      </trkpt>
      <trkpt lat="43.4902" lon="-1.47495">
        <ele>5.6</ele>
        <time>2021-07-18T13:46:36Z</time>
      </trkpt>
      <trkpt lat="43.4902" lon="-1.47494">
        <ele>5.6</ele>
        <time>2021-07-18T13:46:37Z</time>
      </trkpt>
      <trkpt lat="43.4902" lon="-1.47494">
        <ele>5.6</ele>
        <time>2021-07-18T13:46:39Z</time>
      </trkpt>
      <trkpt lat="43.4902" lon="-1.47495">
        <ele>5.6</ele>
        <time>2021-07-18T13:46:40Z</time>
      </trkpt>
      <trkpt lat="43.49021" lon="-1.47496">
        <ele>5.6</ele>
        <time>2021-07-18T13:46:42Z</time>
      </trkpt>
      <trkpt lat="43.49021" lon="-1.47496">
        <ele>5.6</ele>
        <time>2021-07-18T13:46:43Z</time>
      </trkpt>
      <trkpt lat="43.49021" lon="-1.47497">
        <ele>5.6</ele>
        <time>2021-07-18T13:46:44Z</time>
      </trkpt>
      <trkpt lat="43.49021" lon="-1.47498">
        <ele>5.6</ele>
        <time>2021-07-18T13:46:46Z</time>
      </trkpt>
      <trkpt lat="43.49021" lon="-1.47498">
        <ele>5.6</ele>
        <time>2021-07-18T13:46:47Z</time>
      </trkpt>
      <trkpt lat="43.49022" lon="-1.47498">
        <ele>5.6</ele>
        <time>2021-07-18T13:46:48Z</time>
      </trkpt>
      <trkpt lat="43.49023" lon="-1.47497">
        <ele>5.6</ele>
        <time>2021-07-18T13:46:49Z</time>
      </trkpt>
      <trkpt lat="43.49022" lon="-1.47497">
        <ele>5.6</ele>
        <time>2021-07-18T13:46:51Z</time>
      </trkpt>
      <trkpt lat="43.49022" lon="-1.47496">
        <ele>5.6</ele>
        <time>2021-07-18T13:46:52Z</time>
      </trkpt>
      <trkpt lat="43.49022" lon="-1.47496">
        <ele>5.6</ele>
        <time>2021-07-18T13:46:53Z</time>
      </trkpt>
      <trkpt lat="43.49021" lon="-1.47495">
        <ele>5.6</ele>
        <time>2021-07-18T13:46:54Z</time>
      </trkpt>
      <trkpt lat="43.49021" lon="-1.47498">
        <ele>5.6</ele>
        <time>2021-07-18T13:47:36Z</time>
      </trkpt>
      <trkpt lat="43.49021" lon="-1.47498">
        <ele>5.6</ele>
        <time>2021-07-18T13:47:38Z</time>
      </trkpt>
      <trkpt lat="43.49021" lon="-1.47492">
        <ele>5.6</ele>
        <time>2021-07-18T13:47:40Z</time>
      </trkpt>
      <trkpt lat="43.49021" lon="-1.47488">
        <ele>5.6</ele>
        <time>2021-07-18T13:47:42Z</time>
      </trkpt>
      <trkpt lat="43.49021" lon="-1.47488">
        <ele>5.6</ele>
        <time>2021-07-18T13:47:44Z</time>
      </trkpt>
      <trkpt lat="43.49018" lon="-1.47498">
        <ele>5.6</ele>
        <time>2021-07-18T13:47:46Z</time>
      </trkpt>
      <trkpt lat="43.49018" lon="-1.47498">
        <ele>5.6</ele>
        <time>2021-07-18T13:47:47Z</time>
      </trkpt>
      <trkpt lat="43.49019" lon="-1.47498">
        <ele>5.6</ele>
        <time>2021-07-18T13:47:48Z</time>
      </trkpt>
      <trkpt lat="43.49019" lon="-1.47498">
        <ele>5.6</ele>
        <time>2021-07-18T13:47:51Z</time>
      </trkpt>
      <trkpt lat="43.49018" lon="-1.47498">
        <ele>5.6</ele>
        <time>2021-07-18T13:47:53Z</time>
      </trkpt>
      <trkpt lat="43.49018" lon="-1.47497">
        <ele>5.6</ele>
        <time>2021-07-18T13:47:55Z</time>
      </trkpt>
      <trkpt lat="43.49017" lon="-1.47497">
        <ele>5.6</ele>
        <time>2021-07-18T13:47:56Z</time>
      </trkpt>
      <trkpt lat="43.49017" lon="-1.47497">
        <ele>5.6</ele>
        <time>2021-07-18T13:47:58Z</time>
      </trkpt>
      <trkpt lat="43.49016" lon="-1.47496">
        <ele>5.6</ele>
        <time>2021-07-18T13:48:01Z</time>
      </trkpt>
      <trkpt lat="43.49016" lon="-1.47496">
        <ele>5.6</ele>
        <time>2021-07-18T13:48:03Z</time>
      </trkpt>
      <trkpt lat="43.49015" lon="-1.47495">
        <ele>5.6</ele>
        <time>2021-07-18T13:48:05Z</time>
      </trkpt>
      <trkpt lat="43.49015" lon="-1.47494">
        <ele>5.6</ele>
        <time>2021-07-18T13:48:06Z</time>
      </trkpt>
      <trkpt lat="43.49012" lon="-1.47488">
        <ele>5.6</ele>
        <time>2021-07-18T13:48:08Z</time>
      </trkpt>
      <trkpt lat="43.49012" lon="-1.47488">
        <ele>5.6</ele>
        <time>2021-07-18T13:48:10Z</time>
      </trkpt>
      <trkpt lat="43.49012" lon="-1.4749">
        <ele>5.6</ele>
        <time>2021-07-18T13:48:12Z</time>
      </trkpt>
      <trkpt lat="43.49012" lon="-1.4749">
        <ele>5.6</ele>
        <time>2021-07-18T13:48:13Z</time>
      </trkpt>
      <trkpt lat="43.49012" lon="-1.47491">
        <ele>5.6</ele>
        <time>2021-07-18T13:48:14Z</time>
      </trkpt>
      <trkpt lat="43.49011" lon="-1.47481">
        <ele>5.6</ele>
        <time>2021-07-18T13:48:16Z</time>
      </trkpt>
      <trkpt lat="43.49011" lon="-1.47482">
        <ele>5.6</ele>
        <time>2021-07-18T13:48:17Z</time>
      </trkpt>
      <trkpt lat="43.49012" lon="-1.47485">
        <ele>5.6</ele>
        <time>2021-07-18T13:48:19Z</time>
      </trkpt>
      <trkpt lat="43.49012" lon="-1.47488">
        <ele>5.6</ele>
        <time>2021-07-18T13:48:20Z</time>
      </trkpt>
      <trkpt lat="43.49013" lon="-1.47491">
        <ele>5.6</ele>
        <time>2021-07-18T13:48:22Z</time>
      </trkpt>
      <trkpt lat="43.49013" lon="-1.47491">
        <ele>5.6</ele>
        <time>2021-07-18T13:48:23Z</time>
      </trkpt>
      <trkpt lat="43.49014" lon="-1.47487">
        <ele>5.6</ele>
        <time>2021-07-18T13:48:25Z</time>
      </trkpt>
      <trkpt lat="43.49014" lon="-1.47486">
        <ele>5.6</ele>
        <time>2021-07-18T13:48:26Z</time>
      </trkpt>
      <trkpt lat="43.49014" lon="-1.47484">
        <ele>5.6</ele>
        <time>2021-07-18T13:48:28Z</time>
      </trkpt>
      <trkpt lat="43.49013" lon="-1.47486">
        <ele>5.6</ele>
        <time>2021-07-18T13:48:30Z</time>
      </trkpt>
      <trkpt lat="43.49013" lon="-1.47487">
        <ele>5.6</ele>
        <time>2021-07-18T13:48:32Z</time>
      </trkpt>
      <trkpt lat="43.49013" lon="-1.47487">
        <ele>5.6</ele>
        <time>2021-07-18T13:48:34Z</time>
      </trkpt>
      <trkpt lat="43.49012" lon="-1.47486">
        <ele>5.6</ele>
        <time>2021-07-18T13:48:36Z</time>
      </trkpt>
      <trkpt lat="43.49013" lon="-1.47485">
        <ele>5.6</ele>
        <time>2021-07-18T13:48:37Z</time>
      </trkpt>
      <trkpt lat="43.49013" lon="-1.47485">
        <ele>5.6</ele>
        <time>2021-07-18T13:48:39Z</time>
      </trkpt>
      <trkpt lat="43.49013" lon="-1.47484">
        <ele>5.6</ele>
        <time>2021-07-18T13:48:50Z</time>
      </trkpt>
      <trkpt lat="43.49013" lon="-1.47483">
        <ele>5.6</ele>
        <time>2021-07-18T13:48:51Z</time>
      </trkpt>
      <trkpt lat="43.49012" lon="-1.47481">
        <ele>5.6</ele>
        <time>2021-07-18T13:48:53Z</time>
      </trkpt>
      <trkpt lat="43.49012" lon="-1.47481">
        <ele>5.6</ele>
        <time>2021-07-18T13:48:54Z</time>
      </trkpt>
      <trkpt lat="43.49013" lon="-1.47483">
        <ele>5.6</ele>
        <time>2021-07-18T13:48:55Z</time>
      </trkpt>
      <trkpt lat="43.49013" lon="-1.47484">
        <ele>5.6</ele>
        <time>2021-07-18T13:48:56Z</time>
      </trkpt>
      <trkpt lat="43.49013" lon="-1.47485">
        <ele>5.6</ele>
        <time>2021-07-18T13:48:58Z</time>
      </trkpt>
      <trkpt lat="43.49015" lon="-1.47495">
        <ele>5.6</ele>
        <time>2021-07-18T13:49:00Z</time>
      </trkpt>
      <trkpt lat="43.49016" lon="-1.47499">
        <ele>5.6</ele>
        <time>2021-07-18T13:49:02Z</time>
      </trkpt>
      <trkpt lat="43.49016" lon="-1.47499">
        <ele>5.6</ele>
        <time>2021-07-18T13:49:03Z</time>
      </trkpt>
      <trkpt lat="43.4902" lon="-1.47494">
        <ele>5.6</ele>
        <time>2021-07-18T13:49:05Z</time>
      </trkpt>
      <trkpt lat="43.49022" lon="-1.47492">
        <ele>5.6</ele>
        <time>2021-07-18T13:49:06Z</time>
      </trkpt>
      <trkpt lat="43.49021" lon="-1.47494">
        <ele>5.6</ele>
        <time>2021-07-18T13:49:07Z</time>
      </trkpt>
      <trkpt lat="43.4902" lon="-1.47497">
        <ele>5.6</ele>
        <time>2021-07-18T13:49:08Z</time>
      </trkpt>
      <trkpt lat="43.4902" lon="-1.47498">
        <ele>5.6</ele>
        <time>2021-07-18T13:49:09Z</time>
      </trkpt>
      <trkpt lat="43.49019" lon="-1.47499">
        <ele>5.6</ele>
        <time>2021-07-18T13:49:10Z</time>
      </trkpt>
      <trkpt lat="43.49019" lon="-1.475">
        <ele>5.6</ele>
        <time>2021-07-18T13:49:12Z</time>
      </trkpt>
      <trkpt lat="43.49018" lon="-1.475">
        <ele>5.6</ele>
        <time>2021-07-18T13:49:13Z</time>
      </trkpt>
      <trkpt lat="43.49018" lon="-1.475">
        <ele>5.6</ele>
        <time>2021-07-18T13:49:15Z</time>
      </trkpt>
      <trkpt lat="43.49018" lon="-1.475">
        <ele>5.6</ele>
        <time>2021-07-18T13:49:16Z</time>
      </trkpt>
      <trkpt lat="43.49018" lon="-1.475">
        <ele>5.6</ele>
        <time>2021-07-18T13:49:18Z</time>
      </trkpt>
      <trkpt lat="43.49018" lon="-1.475">
        <ele>5.6</ele>
        <time>2021-07-18T13:49:19Z</time>
      </trkpt>
      <trkpt lat="43.49019" lon="-1.47499">
        <ele>5.6</ele>
        <time>2021-07-18T13:49:21Z</time>
      </trkpt>
      <trkpt lat="43.4902" lon="-1.47498">
        <ele>5.6</ele>
        <time>2021-07-18T13:49:22Z</time>
      </trkpt>
      <trkpt lat="43.4902" lon="-1.47499">
        <ele>5.6</ele>
        <time>2021-07-18T13:49:23Z</time>
      </trkpt>
      <trkpt lat="43.4902" lon="-1.475">
        <ele>5.6</ele>
        <time>2021-07-18T13:49:25Z</time>
      </trkpt>
      <trkpt lat="43.4902" lon="-1.475">
        <ele>5.6</ele>
        <time>2021-07-18T13:49:26Z</time>
      </trkpt>
      <trkpt lat="43.49022" lon="-1.47499">
        <ele>5.6</ele>
        <time>2021-07-18T13:49:27Z</time>
      </trkpt>
      <trkpt lat="43.49022" lon="-1.47499">
        <ele>5.6</ele>
        <time>2021-07-18T13:49:28Z</time>
      </trkpt>
      <trkpt lat="43.49023" lon="-1.47498">
        <ele>5.6</ele>
        <time>2021-07-18T13:49:30Z</time>
      </trkpt>
      <trkpt lat="43.49025" lon="-1.47498">
        <ele>5.6</ele>
        <time>2021-07-18T13:49:31Z</time>
      </trkpt>
      <trkpt lat="43.49026" lon="-1.47499">
        <ele>5.6</ele>
        <time>2021-07-18T13:49:32Z</time>
      </trkpt>
      <trkpt lat="43.49026" lon="-1.47499">
        <ele>5.6</ele>
        <time>2021-07-18T13:49:33Z</time>
      </trkpt>
      <trkpt lat="43.49026" lon="-1.47499">
        <ele>5.6</ele>
        <time>2021-07-18T13:49:35Z</time>
      </trkpt>
      <trkpt lat="43.49026" lon="-1.475">
        <ele>5.6</ele>
        <time>2021-07-18T13:49:36Z</time>
      </trkpt>
      <trkpt lat="43.49026" lon="-1.475">
        <ele>5.6</ele>
        <time>2021-07-18T13:49:37Z</time>
      </trkpt>
      <trkpt lat="43.49026" lon="-1.475">
        <ele>5.6</ele>
        <time>2021-07-18T13:49:38Z</time>
      </trkpt>
      <trkpt lat="43.49026" lon="-1.475">
        <ele>5.6</ele>
        <time>2021-07-18T13:49:40Z</time>
      </trkpt>
      <trkpt lat="43.49026" lon="-1.475">
        <ele>5.6</ele>
        <time>2021-07-18T13:49:41Z</time>
      </trkpt>
      <trkpt lat="43.49026" lon="-1.47499">
        <ele>5.6</ele>
        <time>2021-07-18T13:49:43Z</time>
      </trkpt>
      <trkpt lat="43.49026" lon="-1.47499">
        <ele>5.6</ele>
        <time>2021-07-18T13:49:44Z</time>
      </trkpt>
      <trkpt lat="43.49026" lon="-1.47499">
        <ele>5.6</ele>
        <time>2021-07-18T13:49:46Z</time>
      </trkpt>
      <trkpt lat="43.49027" lon="-1.47503">
        <ele>5.6</ele>
        <time>2021-07-18T13:50:01Z</time>
      </trkpt>
      <trkpt lat="43.49028" lon="-1.47505">
        <ele>5.6</ele>
        <time>2021-07-18T13:50:03Z</time>
      </trkpt>
      <trkpt lat="43.49027" lon="-1.47505">
        <ele>5.6</ele>
        <time>2021-07-18T13:50:04Z</time>
      </trkpt>
      <trkpt lat="43.49027" lon="-1.47504">
        <ele>5.6</ele>
        <time>2021-07-18T13:50:06Z</time>
      </trkpt>
      <trkpt lat="43.49027" lon="-1.47504">
        <ele>5.6</ele>
        <time>2021-07-18T13:50:08Z</time>
      </trkpt>
      <trkpt lat="43.49026" lon="-1.47502">
        <ele>5.6</ele>
        <time>2021-07-18T13:50:10Z</time>
      </trkpt>
      <trkpt lat="43.49026" lon="-1.47501">
        <ele>5.6</ele>
        <time>2021-07-18T13:50:12Z</time>
      </trkpt>
      <trkpt lat="43.49026" lon="-1.475">
        <ele>5.6</ele>
        <time>2021-07-18T13:50:14Z</time>
      </trkpt>
      <trkpt lat="43.49034" lon="-1.47485">
        <ele>5.6</ele>
        <time>2021-07-18T13:50:21Z</time>
      </trkpt>
      <trkpt lat="43.49036" lon="-1.47483">
        <ele>5.6</ele>
        <time>2021-07-18T13:50:22Z</time>
      </trkpt>
      <trkpt lat="43.49036" lon="-1.47483">
        <ele>5.6</ele>
        <time>2021-07-18T13:50:23Z</time>
      </trkpt>
      <trkpt lat="43.49036" lon="-1.47483">
        <ele>5.6</ele>
        <time>2021-07-18T13:50:25Z</time>
      </trkpt>
      <trkpt lat="43.49036" lon="-1.47483">
        <ele>5.6</ele>
        <time>2021-07-18T13:50:26Z</time>
      </trkpt>
      <trkpt lat="43.49037" lon="-1.47483">
        <ele>5.6</ele>
        <time>2021-07-18T13:50:28Z</time>
      </trkpt>
      <trkpt lat="43.49037" lon="-1.47482">
        <ele>5.6</ele>
        <time>2021-07-18T13:50:30Z</time>
      </trkpt>
      <trkpt lat="43.49037" lon="-1.47482">
        <ele>5.6</ele>
        <time>2021-07-18T13:50:32Z</time>
      </trkpt>
      <trkpt lat="43.49037" lon="-1.47482">
        <ele>5.6</ele>
        <time>2021-07-18T13:50:33Z</time>
      </trkpt>
      <trkpt lat="43.49037" lon="-1.47482">
        <ele>5.6</ele>
        <time>2021-07-18T13:50:34Z</time>
      </trkpt>
      <trkpt lat="43.49038" lon="-1.47482">
        <ele>5.6</ele>
        <time>2021-07-18T13:50:35Z</time>
      </trkpt>
      <trkpt lat="43.49042" lon="-1.47483">
        <ele>5.6</ele>
        <time>2021-07-18T13:51:27Z</time>
      </trkpt>
      <trkpt lat="43.49043" lon="-1.47485">
        <ele>5.6</ele>
        <time>2021-07-18T13:51:29Z</time>
      </trkpt>
      <trkpt lat="43.49043" lon="-1.47486">
        <ele>5.6</ele>
        <time>2021-07-18T13:51:31Z</time>
      </trkpt>
      <trkpt lat="43.49042" lon="-1.47488">
        <ele>5.6</ele>
        <time>2021-07-18T13:51:33Z</time>
      </trkpt>
      <trkpt lat="43.49041" lon="-1.47493">
        <ele>5.6</ele>
        <time>2021-07-18T13:51:35Z</time>
      </trkpt>
      <trkpt lat="43.49043" lon="-1.47493">
        <ele>5.6</ele>
        <time>2021-07-18T13:51:36Z</time>
      </trkpt>
      <trkpt lat="43.49045" lon="-1.47495">
        <ele>5.5</ele>
        <time>2021-07-18T13:51:38Z</time>
      </trkpt>
      <trkpt lat="43.49047" lon="-1.47493">
        <ele>5.5</ele>
        <time>2021-07-18T13:51:40Z</time>
      </trkpt>
      <trkpt lat="43.49047" lon="-1.47492">
        <ele>5.5</ele>
        <time>2021-07-18T13:51:41Z</time>
      </trkpt>
      <trkpt lat="43.49046" lon="-1.47488">
        <ele>5.5</ele>
        <time>2021-07-18T13:51:43Z</time>
      </trkpt>
      <trkpt lat="43.49045" lon="-1.47485">
        <ele>5.5</ele>
        <time>2021-07-18T13:51:44Z</time>
      </trkpt>
      <trkpt lat="43.49045" lon="-1.47484">
        <ele>5.5</ele>
        <time>2021-07-18T13:51:46Z</time>
      </trkpt>
      <trkpt lat="43.49044" lon="-1.47483">
        <ele>5.5</ele>
        <time>2021-07-18T13:51:47Z</time>
      </trkpt>
      <trkpt lat="43.49044" lon="-1.47482">
        <ele>5.5</ele>
        <time>2021-07-18T13:51:48Z</time>
      </trkpt>
      <trkpt lat="43.49044" lon="-1.47481">
        <ele>5.5</ele>
        <time>2021-07-18T13:51:50Z</time>
      </trkpt>
      <trkpt lat="43.49043" lon="-1.4748">
        <ele>5.5</ele>
        <time>2021-07-18T13:51:51Z</time>
      </trkpt>
      <trkpt lat="43.49042" lon="-1.47478">
        <ele>5.5</ele>
        <time>2021-07-18T13:51:53Z</time>
      </trkpt>
      <trkpt lat="43.49042" lon="-1.47477">
        <ele>5.5</ele>
        <time>2021-07-18T13:51:54Z</time>
      </trkpt>
      <trkpt lat="43.49039" lon="-1.47474">
        <ele>5.6</ele>
        <time>2021-07-18T13:51:56Z</time>
      </trkpt>
      <trkpt lat="43.49038" lon="-1.47474">
        <ele>5.6</ele>
        <time>2021-07-18T13:51:57Z</time>
      </trkpt>
      <trkpt lat="43.49036" lon="-1.47475">
        <ele>5.6</ele>
        <time>2021-07-18T13:51:58Z</time>
      </trkpt>
      <trkpt lat="43.49033" lon="-1.47477">
        <ele>5.6</ele>
        <time>2021-07-18T13:52:00Z</time>
      </trkpt>
      <trkpt lat="43.49031" lon="-1.47478">
        <ele>5.6</ele>
        <time>2021-07-18T13:52:01Z</time>
      </trkpt>
      <trkpt lat="43.49028" lon="-1.47479">
        <ele>5.6</ele>
        <time>2021-07-18T13:52:03Z</time>
      </trkpt>
      <trkpt lat="43.49024" lon="-1.4748">
        <ele>5.6</ele>
        <time>2021-07-18T13:52:04Z</time>
      </trkpt>
      <trkpt lat="43.49023" lon="-1.47481">
        <ele>5.6</ele>
        <time>2021-07-18T13:52:05Z</time>
      </trkpt>
      <trkpt lat="43.4902" lon="-1.47483">
        <ele>5.6</ele>
        <time>2021-07-18T13:52:07Z</time>
      </trkpt>
      <trkpt lat="43.49018" lon="-1.47485">
        <ele>5.6</ele>
        <time>2021-07-18T13:52:08Z</time>
      </trkpt>
      <trkpt lat="43.49016" lon="-1.47488">
        <ele>5.6</ele>
        <time>2021-07-18T13:52:09Z</time>
      </trkpt>
      <trkpt lat="43.49015" lon="-1.47491">
        <ele>5.6</ele>
        <time>2021-07-18T13:52:10Z</time>
      </trkpt>
      <trkpt lat="43.49012" lon="-1.47492">
        <ele>5.6</ele>
        <time>2021-07-18T13:52:12Z</time>
      </trkpt>
      <trkpt lat="43.49011" lon="-1.47492">
        <ele>5.6</ele>
        <time>2021-07-18T13:52:14Z</time>
      </trkpt>
      <trkpt lat="43.49008" lon="-1.47494">
        <ele>5.6</ele>
        <time>2021-07-18T13:52:16Z</time>
      </trkpt>
      <trkpt lat="43.49007" lon="-1.47494">
        <ele>5.6</ele>
        <time>2021-07-18T13:52:17Z</time>
      </trkpt>
      <trkpt lat="43.49003" lon="-1.47494">
        <ele>5.5</ele>
        <time>2021-07-18T13:52:19Z</time>
      </trkpt>
      <trkpt lat="43.49001" lon="-1.47495">
        <ele>5.5</ele>
        <time>2021-07-18T13:52:20Z</time>
      </trkpt>
      <trkpt lat="43.48997" lon="-1.47496">
        <ele>5.5</ele>
        <time>2021-07-18T13:52:22Z</time>
      </trkpt>
      <trkpt lat="43.48994" lon="-1.47496">
        <ele>5.5</ele>
        <time>2021-07-18T13:52:24Z</time>
      </trkpt>
      <trkpt lat="43.48991" lon="-1.47495">
        <ele>5.5</ele>
        <time>2021-07-18T13:52:25Z</time>
      </trkpt>
      <trkpt lat="43.4899" lon="-1.47495">
        <ele>5.5</ele>
        <time>2021-07-18T13:52:26Z</time>
      </trkpt>
      <trkpt lat="43.48986" lon="-1.47496">
        <ele>5.5</ele>
        <time>2021-07-18T13:52:28Z</time>
      </trkpt>
      <trkpt lat="43.48982" lon="-1.47495">
        <ele>5.5</ele>
        <time>2021-07-18T13:52:30Z</time>
      </trkpt>
      <trkpt lat="43.48981" lon="-1.47494">
        <ele>5.5</ele>
        <time>2021-07-18T13:52:31Z</time>
      </trkpt>
      <trkpt lat="43.48978" lon="-1.47491">
        <ele>5.5</ele>
        <time>2021-07-18T13:52:33Z</time>
      </trkpt>
      <trkpt lat="43.48977" lon="-1.47492">
        <ele>5.5</ele>
        <time>2021-07-18T13:52:34Z</time>
      </trkpt>
      <trkpt lat="43.48976" lon="-1.47494">
        <ele>5.4</ele>
        <time>2021-07-18T13:52:35Z</time>
      </trkpt>
      <trkpt lat="43.48977" lon="-1.47496">
        <ele>5.4</ele>
        <time>2021-07-18T13:52:36Z</time>
      </trkpt>
      <trkpt lat="43.48979" lon="-1.47497">
        <ele>5.4</ele>
        <time>2021-07-18T13:52:37Z</time>
      </trkpt>
      <trkpt lat="43.4898" lon="-1.47499">
        <ele>5.4</ele>
        <time>2021-07-18T13:52:38Z</time>
      </trkpt>
      <trkpt lat="43.48981" lon="-1.47502">
        <ele>5.4</ele>
        <time>2021-07-18T13:52:40Z</time>
      </trkpt>
      <trkpt lat="43.48981" lon="-1.47503">
        <ele>5.4</ele>
        <time>2021-07-18T13:52:41Z</time>
      </trkpt>
      <trkpt lat="43.4898" lon="-1.47504">
        <ele>5.4</ele>
        <time>2021-07-18T13:52:43Z</time>
      </trkpt>
      <trkpt lat="43.4898" lon="-1.47503">
        <ele>5.4</ele>
        <time>2021-07-18T13:52:45Z</time>
      </trkpt>
      <trkpt lat="43.4898" lon="-1.47503">
        <ele>5.4</ele>
        <time>2021-07-18T13:52:46Z</time>
      </trkpt>
      <trkpt lat="43.48979" lon="-1.47502">
        <ele>5.4</ele>
        <time>2021-07-18T13:52:47Z</time>
      </trkpt>
      <trkpt lat="43.48979" lon="-1.47502">
        <ele>5.4</ele>
        <time>2021-07-18T13:52:49Z</time>
      </trkpt>
      <trkpt lat="43.48979" lon="-1.47502">
        <ele>5.4</ele>
        <time>2021-07-18T13:52:50Z</time>
      </trkpt>
      <trkpt lat="43.48979" lon="-1.47502">
        <ele>5.4</ele>
        <time>2021-07-18T13:52:51Z</time>
      </trkpt>
      <trkpt lat="43.48971" lon="-1.47505">
        <ele>5.4</ele>
        <time>2021-07-18T13:53:31Z</time>
      </trkpt>
      <trkpt lat="43.48971" lon="-1.47505">
        <ele>5.4</ele>
        <time>2021-07-18T13:53:32Z</time>
      </trkpt>
      <trkpt lat="43.48971" lon="-1.47505">
        <ele>5.4</ele>
        <time>2021-07-18T13:53:33Z</time>
      </trkpt>
      <trkpt lat="43.4897" lon="-1.47505">
        <ele>5.4</ele>
        <time>2021-07-18T13:53:34Z</time>
      </trkpt>
      <trkpt lat="43.4897" lon="-1.47505">
        <ele>5.4</ele>
        <time>2021-07-18T13:53:36Z</time>
      </trkpt>
      <trkpt lat="43.4897" lon="-1.47504">
        <ele>5.4</ele>
        <time>2021-07-18T13:53:38Z</time>
      </trkpt>
      <trkpt lat="43.4897" lon="-1.47504">
        <ele>5.4</ele>
        <time>2021-07-18T13:53:39Z</time>
      </trkpt>
      <trkpt lat="43.4897" lon="-1.47504">
        <ele>5.4</ele>
        <time>2021-07-18T13:53:40Z</time>
      </trkpt>
      <trkpt lat="43.4897" lon="-1.47505">
        <ele>5.4</ele>
        <time>2021-07-18T13:53:42Z</time>
      </trkpt>
      <trkpt lat="43.48969" lon="-1.47505">
        <ele>5.4</ele>
        <time>2021-07-18T13:53:44Z</time>
      </trkpt>
      <trkpt lat="43.48969" lon="-1.47505">
        <ele>5.4</ele>
        <time>2021-07-18T13:53:45Z</time>
      </trkpt>
      <trkpt lat="43.48969" lon="-1.47504">
        <ele>5.3</ele>
        <time>2021-07-18T13:53:46Z</time>
      </trkpt>
      <trkpt lat="43.48965" lon="-1.47504">
        <ele>5.3</ele>
        <time>2021-07-18T13:53:55Z</time>
      </trkpt>
      <trkpt lat="43.48965" lon="-1.47502">
        <ele>5.3</ele>
        <time>2021-07-18T13:53:56Z</time>
      </trkpt>
      <trkpt lat="43.48964" lon="-1.475">
        <ele>5.3</ele>
        <time>2021-07-18T13:53:57Z</time>
      </trkpt>
      <trkpt lat="43.48962" lon="-1.47495">
        <ele>5.3</ele>
        <time>2021-07-18T13:53:59Z</time>
      </trkpt>
      <trkpt lat="43.48961" lon="-1.47494">
        <ele>5.3</ele>
        <time>2021-07-18T13:54:00Z</time>
      </trkpt>
      <trkpt lat="43.4896" lon="-1.47493">
        <ele>5.3</ele>
        <time>2021-07-18T13:54:01Z</time>
      </trkpt>
      <trkpt lat="43.4896" lon="-1.47491">
        <ele>5.2</ele>
        <time>2021-07-18T13:54:02Z</time>
      </trkpt>
      <trkpt lat="43.48956" lon="-1.47492">
        <ele>5.2</ele>
        <time>2021-07-18T13:54:04Z</time>
      </trkpt>
      <trkpt lat="43.48954" lon="-1.47492">
        <ele>5.2</ele>
        <time>2021-07-18T13:54:05Z</time>
      </trkpt>
      <trkpt lat="43.4895" lon="-1.47493">
        <ele>5.2</ele>
        <time>2021-07-18T13:54:07Z</time>
      </trkpt>
      <trkpt lat="43.48947" lon="-1.47494">
        <ele>5.1</ele>
        <time>2021-07-18T13:54:08Z</time>
      </trkpt>
      <trkpt lat="43.48944" lon="-1.47494">
        <ele>5.1</ele>
        <time>2021-07-18T13:54:09Z</time>
      </trkpt>
      <trkpt lat="43.48941" lon="-1.47495">
        <ele>5.1</ele>
        <time>2021-07-18T13:54:10Z</time>
      </trkpt>
      <trkpt lat="43.48936" lon="-1.47498">
        <ele>5.1</ele>
        <time>2021-07-18T13:54:12Z</time>
      </trkpt>
      <trkpt lat="43.48932" lon="-1.47499">
        <ele>5</ele>
        <time>2021-07-18T13:54:14Z</time>
      </trkpt>
      <trkpt lat="43.48928" lon="-1.47501">
        <ele>5</ele>
        <time>2021-07-18T13:54:15Z</time>
      </trkpt>
      <trkpt lat="43.48925" lon="-1.47501">
        <ele>5</ele>
        <time>2021-07-18T13:54:16Z</time>
      </trkpt>
      <trkpt lat="43.48919" lon="-1.47503">
        <ele>5</ele>
        <time>2021-07-18T13:54:18Z</time>
      </trkpt>
      <trkpt lat="43.48916" lon="-1.47503">
        <ele>5</ele>
        <time>2021-07-18T13:54:19Z</time>
      </trkpt>
      <trkpt lat="43.48913" lon="-1.47503">
        <ele>5</ele>
        <time>2021-07-18T13:54:20Z</time>
      </trkpt>
      <trkpt lat="43.4891" lon="-1.47505">
        <ele>5</ele>
        <time>2021-07-18T13:54:21Z</time>
      </trkpt>
      <trkpt lat="43.48907" lon="-1.47506">
        <ele>5</ele>
        <time>2021-07-18T13:54:22Z</time>
      </trkpt>
      <trkpt lat="43.48904" lon="-1.47507">
        <ele>5</ele>
        <time>2021-07-18T13:54:23Z</time>
      </trkpt>
      <trkpt lat="43.48899" lon="-1.47507">
        <ele>5</ele>
        <time>2021-07-18T13:54:25Z</time>
      </trkpt>
      <trkpt lat="43.48894" lon="-1.47507">
        <ele>5</ele>
        <time>2021-07-18T13:54:26Z</time>
      </trkpt>
      <trkpt lat="43.4889" lon="-1.47507">
        <ele>5</ele>
        <time>2021-07-18T13:54:28Z</time>
      </trkpt>
      <trkpt lat="43.48885" lon="-1.47508">
        <ele>5</ele>
        <time>2021-07-18T13:54:29Z</time>
      </trkpt>
      <trkpt lat="43.48881" lon="-1.4751">
        <ele>4.9</ele>
        <time>2021-07-18T13:54:30Z</time>
      </trkpt>
      <trkpt lat="43.48876" lon="-1.47511">
        <ele>4.9</ele>
        <time>2021-07-18T13:54:32Z</time>
      </trkpt>
      <trkpt lat="43.48872" lon="-1.47512">
        <ele>4.9</ele>
        <time>2021-07-18T13:54:33Z</time>
      </trkpt>
      <trkpt lat="43.48868" lon="-1.47513">
        <ele>4.9</ele>
        <time>2021-07-18T13:54:34Z</time>
      </trkpt>
      <trkpt lat="43.48862" lon="-1.47515">
        <ele>4.9</ele>
        <time>2021-07-18T13:54:36Z</time>
      </trkpt>
      <trkpt lat="43.48857" lon="-1.47517">
        <ele>4.9</ele>
        <time>2021-07-18T13:54:37Z</time>
      </trkpt>
      <trkpt lat="43.48853" lon="-1.47518">
        <ele>5</ele>
        <time>2021-07-18T13:54:39Z</time>
      </trkpt>
      <trkpt lat="43.4885" lon="-1.4752">
        <ele>5</ele>
        <time>2021-07-18T13:54:40Z</time>
      </trkpt>
      <trkpt lat="43.48845" lon="-1.47521">
        <ele>5</ele>
        <time>2021-07-18T13:54:41Z</time>
      </trkpt>
      <trkpt lat="43.48842" lon="-1.47521">
        <ele>5.1</ele>
        <time>2021-07-18T13:54:42Z</time>
      </trkpt>
      <trkpt lat="43.48838" lon="-1.47522">
        <ele>5.2</ele>
        <time>2021-07-18T13:54:43Z</time>
      </trkpt>
      <trkpt lat="43.48835" lon="-1.47523">
        <ele>5.2</ele>
        <time>2021-07-18T13:54:44Z</time>
      </trkpt>
      <trkpt lat="43.4883" lon="-1.47524">
        <ele>5.3</ele>
        <time>2021-07-18T13:54:46Z</time>
      </trkpt>
      <trkpt lat="43.48827" lon="-1.47525">
        <ele>5.5</ele>
        <time>2021-07-18T13:54:47Z</time>
      </trkpt>
      <trkpt lat="43.48824" lon="-1.47526">
        <ele>5.6</ele>
        <time>2021-07-18T13:54:48Z</time>
      </trkpt>
      <trkpt lat="43.48821" lon="-1.47527">
        <ele>5.6</ele>
        <time>2021-07-18T13:54:49Z</time>
      </trkpt>
      <trkpt lat="43.48818" lon="-1.47529">
        <ele>5.8</ele>
        <time>2021-07-18T13:54:51Z</time>
      </trkpt>
      <trkpt lat="43.48815" lon="-1.4753">
        <ele>5.9</ele>
        <time>2021-07-18T13:54:52Z</time>
      </trkpt>
      <trkpt lat="43.48814" lon="-1.47531">
        <ele>5.9</ele>
        <time>2021-07-18T13:54:53Z</time>
      </trkpt>
      <trkpt lat="43.48812" lon="-1.47534">
        <ele>6</ele>
        <time>2021-07-18T13:54:55Z</time>
      </trkpt>
      <trkpt lat="43.4881" lon="-1.47535">
        <ele>6.1</ele>
        <time>2021-07-18T13:54:56Z</time>
      </trkpt>
      <trkpt lat="43.48807" lon="-1.47533">
        <ele>6.2</ele>
        <time>2021-07-18T13:54:58Z</time>
      </trkpt>
      <trkpt lat="43.48806" lon="-1.47531">
        <ele>6.3</ele>
        <time>2021-07-18T13:54:59Z</time>
      </trkpt>
      <trkpt lat="43.48806" lon="-1.47529">
        <ele>6.3</ele>
        <time>2021-07-18T13:55:00Z</time>
      </trkpt>
      <trkpt lat="43.48806" lon="-1.47524">
        <ele>6.4</ele>
        <time>2021-07-18T13:55:02Z</time>
      </trkpt>
      <trkpt lat="43.48806" lon="-1.47523">
        <ele>6.4</ele>
        <time>2021-07-18T13:55:03Z</time>
      </trkpt>
      <trkpt lat="43.48803" lon="-1.47522">
        <ele>6.4</ele>
        <time>2021-07-18T13:55:05Z</time>
      </trkpt>
      <trkpt lat="43.488" lon="-1.4752">
        <ele>6.4</ele>
        <time>2021-07-18T13:55:07Z</time>
      </trkpt>
      <trkpt lat="43.488" lon="-1.47518">
        <ele>6.4</ele>
        <time>2021-07-18T13:55:08Z</time>
      </trkpt>
      <trkpt lat="43.48799" lon="-1.47517">
        <ele>6.4</ele>
        <time>2021-07-18T13:55:09Z</time>
      </trkpt>
      <trkpt lat="43.488" lon="-1.47517">
        <ele>6.4</ele>
        <time>2021-07-18T13:55:11Z</time>
      </trkpt>
      <trkpt lat="43.48801" lon="-1.47517">
        <ele>6.4</ele>
        <time>2021-07-18T13:55:13Z</time>
      </trkpt>
      <trkpt lat="43.48801" lon="-1.47517">
        <ele>6.4</ele>
        <time>2021-07-18T13:55:15Z</time>
      </trkpt>
      <trkpt lat="43.48802" lon="-1.47516">
        <ele>6.4</ele>
        <time>2021-07-18T13:55:17Z</time>
      </trkpt>
      <trkpt lat="43.48802" lon="-1.47516">
        <ele>6.4</ele>
        <time>2021-07-18T13:55:18Z</time>
      </trkpt>
      <trkpt lat="43.48802" lon="-1.47516">
        <ele>6.4</ele>
        <time>2021-07-18T13:55:20Z</time>
      </trkpt>
      <trkpt lat="43.48801" lon="-1.47522">
        <ele>6.4</ele>
        <time>2021-07-18T13:55:38Z</time>
      </trkpt>
      <trkpt lat="43.48798" lon="-1.47525">
        <ele>6.5</ele>
        <time>2021-07-18T13:55:39Z</time>
      </trkpt>
      <trkpt lat="43.48795" lon="-1.47529">
        <ele>6.5</ele>
        <time>2021-07-18T13:55:41Z</time>
      </trkpt>
      <trkpt lat="43.48792" lon="-1.47533">
        <ele>6.4</ele>
        <time>2021-07-18T13:55:42Z</time>
      </trkpt>
      <trkpt lat="43.48788" lon="-1.47536">
        <ele>6.3</ele>
        <time>2021-07-18T13:55:44Z</time>
      </trkpt>
      <trkpt lat="43.48783" lon="-1.47539">
        <ele>6.3</ele>
        <time>2021-07-18T13:55:46Z</time>
      </trkpt>
      <trkpt lat="43.48779" lon="-1.47541">
        <ele>6.2</ele>
        <time>2021-07-18T13:55:47Z</time>
      </trkpt>
      <trkpt lat="43.48775" lon="-1.47543">
        <ele>6.1</ele>
        <time>2021-07-18T13:55:48Z</time>
      </trkpt>
      <trkpt lat="43.48772" lon="-1.47543">
        <ele>6</ele>
        <time>2021-07-18T13:55:49Z</time>
      </trkpt>
      <trkpt lat="43.48766" lon="-1.47544">
        <ele>5.9</ele>
        <time>2021-07-18T13:55:51Z</time>
      </trkpt>
      <trkpt lat="43.48762" lon="-1.47545">
        <ele>5.9</ele>
        <time>2021-07-18T13:55:52Z</time>
      </trkpt>
      <trkpt lat="43.48755" lon="-1.47547">
        <ele>5.7</ele>
        <time>2021-07-18T13:55:54Z</time>
      </trkpt>
      <trkpt lat="43.48748" lon="-1.47548">
        <ele>5.6</ele>
        <time>2021-07-18T13:55:56Z</time>
      </trkpt>
      <trkpt lat="43.48742" lon="-1.47549">
        <ele>5.6</ele>
        <time>2021-07-18T13:55:57Z</time>
      </trkpt>
      <trkpt lat="43.48738" lon="-1.4755">
        <ele>5.5</ele>
        <time>2021-07-18T13:55:58Z</time>
      </trkpt>
      <trkpt lat="43.48731" lon="-1.47551">
        <ele>5.4</ele>
        <time>2021-07-18T13:56:00Z</time>
      </trkpt>
      <trkpt lat="43.48726" lon="-1.47552">
        <ele>5.4</ele>
        <time>2021-07-18T13:56:01Z</time>
      </trkpt>
      <trkpt lat="43.48721" lon="-1.47552">
        <ele>5.3</ele>
        <time>2021-07-18T13:56:02Z</time>
      </trkpt>
      <trkpt lat="43.48717" lon="-1.47552">
        <ele>5.2</ele>
        <time>2021-07-18T13:56:03Z</time>
      </trkpt>
      <trkpt lat="43.48713" lon="-1.4755">
        <ele>5.2</ele>
        <time>2021-07-18T13:56:04Z</time>
      </trkpt>
      <trkpt lat="43.48706" lon="-1.47548">
        <ele>5</ele>
        <time>2021-07-18T13:56:06Z</time>
      </trkpt>
      <trkpt lat="43.48698" lon="-1.47549">
        <ele>4.9</ele>
        <time>2021-07-18T13:56:08Z</time>
      </trkpt>
      <trkpt lat="43.48694" lon="-1.4755">
        <ele>4.9</ele>
        <time>2021-07-18T13:56:09Z</time>
      </trkpt>
      <trkpt lat="43.48687" lon="-1.47554">
        <ele>4.8</ele>
        <time>2021-07-18T13:56:10Z</time>
      </trkpt>
      <trkpt lat="43.48678" lon="-1.47555">
        <ele>4.7</ele>
        <time>2021-07-18T13:56:12Z</time>
      </trkpt>
      <trkpt lat="43.48669" lon="-1.47557">
        <ele>4.6</ele>
        <time>2021-07-18T13:56:14Z</time>
      </trkpt>
      <trkpt lat="43.48664" lon="-1.47559">
        <ele>4.6</ele>
        <time>2021-07-18T13:56:15Z</time>
      </trkpt>
      <trkpt lat="43.48657" lon="-1.47557">
        <ele>4.6</ele>
        <time>2021-07-18T13:56:17Z</time>
      </trkpt>
      <trkpt lat="43.48653" lon="-1.47555">
        <ele>4.6</ele>
        <time>2021-07-18T13:56:18Z</time>
      </trkpt>
      <trkpt lat="43.48647" lon="-1.47552">
        <ele>4.6</ele>
        <time>2021-07-18T13:56:20Z</time>
      </trkpt>
      <trkpt lat="43.48642" lon="-1.47549">
        <ele>4.6</ele>
        <time>2021-07-18T13:56:21Z</time>
      </trkpt>
      <trkpt lat="43.48637" lon="-1.47547">
        <ele>4.6</ele>
        <time>2021-07-18T13:56:22Z</time>
      </trkpt>
      <trkpt lat="43.48633" lon="-1.47543">
        <ele>4.5</ele>
        <time>2021-07-18T13:56:23Z</time>
      </trkpt>
      <trkpt lat="43.48626" lon="-1.4754">
        <ele>4.5</ele>
        <time>2021-07-18T13:56:25Z</time>
      </trkpt>
      <trkpt lat="43.48621" lon="-1.47537">
        <ele>4.5</ele>
        <time>2021-07-18T13:56:26Z</time>
      </trkpt>
      <trkpt lat="43.48617" lon="-1.47535">
        <ele>4.5</ele>
        <time>2021-07-18T13:56:27Z</time>
      </trkpt>
      <trkpt lat="43.4861" lon="-1.47532">
        <ele>4.5</ele>
        <time>2021-07-18T13:56:29Z</time>
      </trkpt>
      <trkpt lat="43.48606" lon="-1.47529">
        <ele>4.5</ele>
        <time>2021-07-18T13:56:30Z</time>
      </trkpt>
      <trkpt lat="43.486" lon="-1.47527">
        <ele>4.5</ele>
        <time>2021-07-18T13:56:31Z</time>
      </trkpt>
      <trkpt lat="43.48597" lon="-1.47525">
        <ele>4.5</ele>
        <time>2021-07-18T13:56:32Z</time>
      </trkpt>
      <trkpt lat="43.4859" lon="-1.47521">
        <ele>4.5</ele>
        <time>2021-07-18T13:56:34Z</time>
      </trkpt>
      <trkpt lat="43.48582" lon="-1.47517">
        <ele>4.5</ele>
        <time>2021-07-18T13:56:36Z</time>
      </trkpt>
      <trkpt lat="43.48577" lon="-1.47515">
        <ele>4.5</ele>
        <time>2021-07-18T13:56:37Z</time>
      </trkpt>
      <trkpt lat="43.48572" lon="-1.47513">
        <ele>4.5</ele>
        <time>2021-07-18T13:56:38Z</time>
      </trkpt>
      <trkpt lat="43.48564" lon="-1.47509">
        <ele>4.5</ele>
        <time>2021-07-18T13:56:40Z</time>
      </trkpt>
      <trkpt lat="43.48556" lon="-1.47506">
        <ele>4.5</ele>
        <time>2021-07-18T13:56:42Z</time>
      </trkpt>
      <trkpt lat="43.48551" lon="-1.47503">
        <ele>4.5</ele>
        <time>2021-07-18T13:56:44Z</time>
      </trkpt>
      <trkpt lat="43.48546" lon="-1.47499">
        <ele>4.5</ele>
        <time>2021-07-18T13:56:45Z</time>
      </trkpt>
      <trkpt lat="43.48542" lon="-1.47496">
        <ele>4.5</ele>
        <time>2021-07-18T13:56:46Z</time>
      </trkpt>
      <trkpt lat="43.48536" lon="-1.47494">
        <ele>4.5</ele>
        <time>2021-07-18T13:56:48Z</time>
      </trkpt>
      <trkpt lat="43.48531" lon="-1.47491">
        <ele>4.5</ele>
        <time>2021-07-18T13:56:49Z</time>
      </trkpt>
      <trkpt lat="43.48525" lon="-1.4749">
        <ele>4.4</ele>
        <time>2021-07-18T13:56:50Z</time>
      </trkpt>
      <trkpt lat="43.4852" lon="-1.47487">
        <ele>4.4</ele>
        <time>2021-07-18T13:56:51Z</time>
      </trkpt>
      <trkpt lat="43.48517" lon="-1.47485">
        <ele>4.4</ele>
        <time>2021-07-18T13:56:53Z</time>
      </trkpt>
      <trkpt lat="43.48512" lon="-1.47482">
        <ele>4.4</ele>
        <time>2021-07-18T13:56:54Z</time>
      </trkpt>
      <trkpt lat="43.48507" lon="-1.47479">
        <ele>4.4</ele>
        <time>2021-07-18T13:56:55Z</time>
      </trkpt>
      <trkpt lat="43.48501" lon="-1.47476">
        <ele>4.4</ele>
        <time>2021-07-18T13:56:57Z</time>
      </trkpt>
      <trkpt lat="43.48497" lon="-1.47473">
        <ele>4.4</ele>
        <time>2021-07-18T13:56:58Z</time>
      </trkpt>
      <trkpt lat="43.48493" lon="-1.47471">
        <ele>4.4</ele>
        <time>2021-07-18T13:56:59Z</time>
      </trkpt>
      <trkpt lat="43.48489" lon="-1.47469">
        <ele>4.4</ele>
        <time>2021-07-18T13:57:00Z</time>
      </trkpt>
      <trkpt lat="43.48483" lon="-1.47464">
        <ele>4.4</ele>
        <time>2021-07-18T13:57:02Z</time>
      </trkpt>
      <trkpt lat="43.48479" lon="-1.4746">
        <ele>4.4</ele>
        <time>2021-07-18T13:57:03Z</time>
      </trkpt>
      <trkpt lat="43.48472" lon="-1.47453">
        <ele>4.4</ele>
        <time>2021-07-18T13:57:05Z</time>
      </trkpt>
      <trkpt lat="43.48467" lon="-1.47447">
        <ele>4.4</ele>
        <time>2021-07-18T13:57:06Z</time>
      </trkpt>
      <trkpt lat="43.48463" lon="-1.47441">
        <ele>4.4</ele>
        <time>2021-07-18T13:57:08Z</time>
      </trkpt>
      <trkpt lat="43.48459" lon="-1.47435">
        <ele>4.4</ele>
        <time>2021-07-18T13:57:09Z</time>
      </trkpt>
      <trkpt lat="43.48453" lon="-1.47429">
        <ele>4.4</ele>
        <time>2021-07-18T13:57:11Z</time>
      </trkpt>
      <trkpt lat="43.48449" lon="-1.47424">
        <ele>4.4</ele>
        <time>2021-07-18T13:57:12Z</time>
      </trkpt>
      <trkpt lat="43.48442" lon="-1.47418">
        <ele>4.4</ele>
        <time>2021-07-18T13:57:14Z</time>
      </trkpt>
      <trkpt lat="43.48436" lon="-1.47411">
        <ele>4.4</ele>
        <time>2021-07-18T13:57:16Z</time>
      </trkpt>
      <trkpt lat="43.48431" lon="-1.47407">
        <ele>4.4</ele>
        <time>2021-07-18T13:57:17Z</time>
      </trkpt>
      <trkpt lat="43.48426" lon="-1.47402">
        <ele>4.5</ele>
        <time>2021-07-18T13:57:18Z</time>
      </trkpt>
      <trkpt lat="43.48421" lon="-1.47398">
        <ele>4.5</ele>
        <time>2021-07-18T13:57:19Z</time>
      </trkpt>
      <trkpt lat="43.48416" lon="-1.47392">
        <ele>4.5</ele>
        <time>2021-07-18T13:57:21Z</time>
      </trkpt>
      <trkpt lat="43.48412" lon="-1.47389">
        <ele>4.5</ele>
        <time>2021-07-18T13:57:22Z</time>
      </trkpt>
      <trkpt lat="43.48409" lon="-1.47386">
        <ele>4.5</ele>
        <time>2021-07-18T13:57:23Z</time>
      </trkpt>
      <trkpt lat="43.48404" lon="-1.47382">
        <ele>4.5</ele>
        <time>2021-07-18T13:57:24Z</time>
      </trkpt>
      <trkpt lat="43.484" lon="-1.47376">
        <ele>4.4</ele>
        <time>2021-07-18T13:57:26Z</time>
      </trkpt>
      <trkpt lat="43.48393" lon="-1.47369">
        <ele>4.4</ele>
        <time>2021-07-18T13:57:28Z</time>
      </trkpt>
      <trkpt lat="43.48389" lon="-1.47365">
        <ele>4.4</ele>
        <time>2021-07-18T13:57:29Z</time>
      </trkpt>
      <trkpt lat="43.48384" lon="-1.47361">
        <ele>4.4</ele>
        <time>2021-07-18T13:57:30Z</time>
      </trkpt>
      <trkpt lat="43.48379" lon="-1.47357">
        <ele>4.4</ele>
        <time>2021-07-18T13:57:31Z</time>
      </trkpt>
      <trkpt lat="43.48372" lon="-1.47351">
        <ele>4.3</ele>
        <time>2021-07-18T13:57:33Z</time>
      </trkpt>
      <trkpt lat="43.4837" lon="-1.47346">
        <ele>4.3</ele>
        <time>2021-07-18T13:57:34Z</time>
      </trkpt>
      <trkpt lat="43.4836" lon="-1.47338">
        <ele>4.3</ele>
        <time>2021-07-18T13:57:36Z</time>
      </trkpt>
      <trkpt lat="43.48351" lon="-1.4733">
        <ele>4.3</ele>
        <time>2021-07-18T13:57:38Z</time>
      </trkpt>
      <trkpt lat="43.4835" lon="-1.47326">
        <ele>4.3</ele>
        <time>2021-07-18T13:57:39Z</time>
      </trkpt>
      <trkpt lat="43.48344" lon="-1.47322">
        <ele>4.3</ele>
        <time>2021-07-18T13:57:40Z</time>
      </trkpt>
      <trkpt lat="43.48335" lon="-1.47316">
        <ele>4.3</ele>
        <time>2021-07-18T13:57:42Z</time>
      </trkpt>
      <trkpt lat="43.4833" lon="-1.4731">
        <ele>4.3</ele>
        <time>2021-07-18T13:57:44Z</time>
      </trkpt>
      <trkpt lat="43.48324" lon="-1.47302">
        <ele>4.3</ele>
        <time>2021-07-18T13:57:45Z</time>
      </trkpt>
      <trkpt lat="43.48318" lon="-1.47292">
        <ele>4.3</ele>
        <time>2021-07-18T13:57:47Z</time>
      </trkpt>
      <trkpt lat="43.48312" lon="-1.47283">
        <ele>4.2</ele>
        <time>2021-07-18T13:57:49Z</time>
      </trkpt>
      <trkpt lat="43.48304" lon="-1.47275">
        <ele>4.2</ele>
        <time>2021-07-18T13:57:51Z</time>
      </trkpt>
      <trkpt lat="43.48297" lon="-1.47267">
        <ele>4.2</ele>
        <time>2021-07-18T13:57:53Z</time>
      </trkpt>
      <trkpt lat="43.4829" lon="-1.47257">
        <ele>4.1</ele>
        <time>2021-07-18T13:57:55Z</time>
      </trkpt>
      <trkpt lat="43.48284" lon="-1.47247">
        <ele>4.1</ele>
        <time>2021-07-18T13:57:57Z</time>
      </trkpt>
      <trkpt lat="43.48281" lon="-1.47242">
        <ele>4.1</ele>
        <time>2021-07-18T13:57:58Z</time>
      </trkpt>
      <trkpt lat="43.48274" lon="-1.47232">
        <ele>4</ele>
        <time>2021-07-18T13:58:00Z</time>
      </trkpt>
      <trkpt lat="43.48267" lon="-1.47222">
        <ele>4</ele>
        <time>2021-07-18T13:58:02Z</time>
      </trkpt>
      <trkpt lat="43.48264" lon="-1.47216">
        <ele>4</ele>
        <time>2021-07-18T13:58:03Z</time>
      </trkpt>
      <trkpt lat="43.48261" lon="-1.4721">
        <ele>4</ele>
        <time>2021-07-18T13:58:04Z</time>
      </trkpt>
      <trkpt lat="43.48254" lon="-1.472">
        <ele>4</ele>
        <time>2021-07-18T13:58:06Z</time>
      </trkpt>
      <trkpt lat="43.48247" lon="-1.4719">
        <ele>4.1</ele>
        <time>2021-07-18T13:58:08Z</time>
      </trkpt>
      <trkpt lat="43.48244" lon="-1.47185">
        <ele>4.1</ele>
        <time>2021-07-18T13:58:09Z</time>
      </trkpt>
      <trkpt lat="43.48238" lon="-1.47175">
        <ele>4.1</ele>
        <time>2021-07-18T13:58:11Z</time>
      </trkpt>
      <trkpt lat="43.48234" lon="-1.4717">
        <ele>4.1</ele>
        <time>2021-07-18T13:58:12Z</time>
      </trkpt>
      <trkpt lat="43.48228" lon="-1.4716">
        <ele>4.1</ele>
        <time>2021-07-18T13:58:14Z</time>
      </trkpt>
      <trkpt lat="43.48225" lon="-1.47155">
        <ele>4.1</ele>
        <time>2021-07-18T13:58:15Z</time>
      </trkpt>
      <trkpt lat="43.48219" lon="-1.47145">
        <ele>4.2</ele>
        <time>2021-07-18T13:58:17Z</time>
      </trkpt>
      <trkpt lat="43.48212" lon="-1.47136">
        <ele>4.2</ele>
        <time>2021-07-18T13:58:19Z</time>
      </trkpt>
      <trkpt lat="43.48209" lon="-1.47131">
        <ele>4.2</ele>
        <time>2021-07-18T13:58:20Z</time>
      </trkpt>
      <trkpt lat="43.48206" lon="-1.47126">
        <ele>4.3</ele>
        <time>2021-07-18T13:58:21Z</time>
      </trkpt>
      <trkpt lat="43.482" lon="-1.47117">
        <ele>4.3</ele>
        <time>2021-07-18T13:58:23Z</time>
      </trkpt>
      <trkpt lat="43.48196" lon="-1.47111">
        <ele>4.3</ele>
        <time>2021-07-18T13:58:24Z</time>
      </trkpt>
      <trkpt lat="43.48188" lon="-1.47102">
        <ele>4.2</ele>
        <time>2021-07-18T13:58:26Z</time>
      </trkpt>
      <trkpt lat="43.48185" lon="-1.47097">
        <ele>4.2</ele>
        <time>2021-07-18T13:58:27Z</time>
      </trkpt>
      <trkpt lat="43.48177" lon="-1.47089">
        <ele>4.2</ele>
        <time>2021-07-18T13:58:29Z</time>
      </trkpt>
      <trkpt lat="43.48169" lon="-1.47082">
        <ele>4.2</ele>
        <time>2021-07-18T13:58:31Z</time>
      </trkpt>
      <trkpt lat="43.4816" lon="-1.47076">
        <ele>4.2</ele>
        <time>2021-07-18T13:58:33Z</time>
      </trkpt>
      <trkpt lat="43.48151" lon="-1.47071">
        <ele>4.2</ele>
        <time>2021-07-18T13:58:35Z</time>
      </trkpt>
      <trkpt lat="43.48142" lon="-1.47069">
        <ele>4.2</ele>
        <time>2021-07-18T13:58:37Z</time>
      </trkpt>
      <trkpt lat="43.48137" lon="-1.47068">
        <ele>4.2</ele>
        <time>2021-07-18T13:58:38Z</time>
      </trkpt>
      <trkpt lat="43.48133" lon="-1.47066">
        <ele>4.2</ele>
        <time>2021-07-18T13:58:39Z</time>
      </trkpt>
      <trkpt lat="43.48123" lon="-1.47064">
        <ele>4.2</ele>
        <time>2021-07-18T13:58:41Z</time>
      </trkpt>
      <trkpt lat="43.48113" lon="-1.47064">
        <ele>4.2</ele>
        <time>2021-07-18T13:58:43Z</time>
      </trkpt>
      <trkpt lat="43.48108" lon="-1.47065">
        <ele>4.2</ele>
        <time>2021-07-18T13:58:44Z</time>
      </trkpt>
      <trkpt lat="43.48098" lon="-1.47066">
        <ele>4.3</ele>
        <time>2021-07-18T13:58:46Z</time>
      </trkpt>
      <trkpt lat="43.48089" lon="-1.47068">
        <ele>4.3</ele>
        <time>2021-07-18T13:58:48Z</time>
      </trkpt>
      <trkpt lat="43.48084" lon="-1.47068">
        <ele>4.4</ele>
        <time>2021-07-18T13:58:49Z</time>
      </trkpt>
      <trkpt lat="43.48075" lon="-1.47071">
        <ele>4.4</ele>
        <time>2021-07-18T13:58:51Z</time>
      </trkpt>
      <trkpt lat="43.48065" lon="-1.47074">
        <ele>4.4</ele>
        <time>2021-07-18T13:58:53Z</time>
      </trkpt>
      <trkpt lat="43.48055" lon="-1.47077">
        <ele>4.4</ele>
        <time>2021-07-18T13:58:55Z</time>
      </trkpt>
      <trkpt lat="43.48051" lon="-1.47078">
        <ele>4.4</ele>
        <time>2021-07-18T13:58:56Z</time>
      </trkpt>
      <trkpt lat="43.48041" lon="-1.47082">
        <ele>4.4</ele>
        <time>2021-07-18T13:58:58Z</time>
      </trkpt>
      <trkpt lat="43.48032" lon="-1.47087">
        <ele>4.3</ele>
        <time>2021-07-18T13:59:00Z</time>
      </trkpt>
      <trkpt lat="43.48027" lon="-1.47089">
        <ele>4.3</ele>
        <time>2021-07-18T13:59:01Z</time>
      </trkpt>
      <trkpt lat="43.48019" lon="-1.47093">
        <ele>4.3</ele>
        <time>2021-07-18T13:59:03Z</time>
      </trkpt>
      <trkpt lat="43.48014" lon="-1.47096">
        <ele>4.3</ele>
        <time>2021-07-18T13:59:04Z</time>
      </trkpt>
      <trkpt lat="43.4801" lon="-1.47098">
        <ele>4.3</ele>
        <time>2021-07-18T13:59:05Z</time>
      </trkpt>
      <trkpt lat="43.48006" lon="-1.47102">
        <ele>4.4</ele>
        <time>2021-07-18T13:59:06Z</time>
      </trkpt>
      <trkpt lat="43.47997" lon="-1.47107">
        <ele>4.4</ele>
        <time>2021-07-18T13:59:08Z</time>
      </trkpt>
      <trkpt lat="43.47988" lon="-1.47112">
        <ele>4.4</ele>
        <time>2021-07-18T13:59:10Z</time>
      </trkpt>
      <trkpt lat="43.47984" lon="-1.47115">
        <ele>4.4</ele>
        <time>2021-07-18T13:59:11Z</time>
      </trkpt>
      <trkpt lat="43.47975" lon="-1.4712">
        <ele>4.4</ele>
        <time>2021-07-18T13:59:13Z</time>
      </trkpt>
      <trkpt lat="43.47966" lon="-1.47126">
        <ele>4.4</ele>
        <time>2021-07-18T13:59:15Z</time>
      </trkpt>
      <trkpt lat="43.47958" lon="-1.47132">
        <ele>4.4</ele>
        <time>2021-07-18T13:59:17Z</time>
      </trkpt>
      <trkpt lat="43.47949" lon="-1.47139">
        <ele>4.4</ele>
        <time>2021-07-18T13:59:19Z</time>
      </trkpt>
      <trkpt lat="43.47944" lon="-1.47142">
        <ele>4.3</ele>
        <time>2021-07-18T13:59:20Z</time>
      </trkpt>
      <trkpt lat="43.47936" lon="-1.47149">
        <ele>4.3</ele>
        <time>2021-07-18T13:59:22Z</time>
      </trkpt>
      <trkpt lat="43.47928" lon="-1.47156">
        <ele>4.3</ele>
        <time>2021-07-18T13:59:24Z</time>
      </trkpt>
      <trkpt lat="43.47924" lon="-1.4716">
        <ele>4.3</ele>
        <time>2021-07-18T13:59:25Z</time>
      </trkpt>
      <trkpt lat="43.4792" lon="-1.47164">
        <ele>4.3</ele>
        <time>2021-07-18T13:59:26Z</time>
      </trkpt>
      <trkpt lat="43.47913" lon="-1.47173">
        <ele>4.3</ele>
        <time>2021-07-18T13:59:28Z</time>
      </trkpt>
      <trkpt lat="43.47905" lon="-1.4718">
        <ele>4.3</ele>
        <time>2021-07-18T13:59:30Z</time>
      </trkpt>
      <trkpt lat="43.47901" lon="-1.47185">
        <ele>4.3</ele>
        <time>2021-07-18T13:59:31Z</time>
      </trkpt>
      <trkpt lat="43.47897" lon="-1.47188">
        <ele>4.3</ele>
        <time>2021-07-18T13:59:32Z</time>
      </trkpt>
      <trkpt lat="43.4789" lon="-1.47196">
        <ele>4.3</ele>
        <time>2021-07-18T13:59:34Z</time>
      </trkpt>
      <trkpt lat="43.47886" lon="-1.472">
        <ele>4.3</ele>
        <time>2021-07-18T13:59:35Z</time>
      </trkpt>
      <trkpt lat="43.47878" lon="-1.47208">
        <ele>4.3</ele>
        <time>2021-07-18T13:59:37Z</time>
      </trkpt>
      <trkpt lat="43.47874" lon="-1.47212">
        <ele>4.3</ele>
        <time>2021-07-18T13:59:38Z</time>
      </trkpt>
      <trkpt lat="43.47871" lon="-1.47217">
        <ele>4.3</ele>
        <time>2021-07-18T13:59:39Z</time>
      </trkpt>
      <trkpt lat="43.47863" lon="-1.47226">
        <ele>4.3</ele>
        <time>2021-07-18T13:59:41Z</time>
      </trkpt>
      <trkpt lat="43.47856" lon="-1.47235">
        <ele>4.3</ele>
        <time>2021-07-18T13:59:43Z</time>
      </trkpt>
      <trkpt lat="43.47849" lon="-1.47243">
        <ele>4.3</ele>
        <time>2021-07-18T13:59:45Z</time>
      </trkpt>
      <trkpt lat="43.47845" lon="-1.47247">
        <ele>4.4</ele>
        <time>2021-07-18T13:59:46Z</time>
      </trkpt>
      <trkpt lat="43.47837" lon="-1.47255">
        <ele>4.5</ele>
        <time>2021-07-18T13:59:48Z</time>
      </trkpt>
      <trkpt lat="43.47834" lon="-1.47259">
        <ele>4.5</ele>
        <time>2021-07-18T13:59:49Z</time>
      </trkpt>
      <trkpt lat="43.47826" lon="-1.47267">
        <ele>4.6</ele>
        <time>2021-07-18T13:59:51Z</time>
      </trkpt>
      <trkpt lat="43.47819" lon="-1.47276">
        <ele>4.7</ele>
        <time>2021-07-18T13:59:53Z</time>
      </trkpt>
      <trkpt lat="43.47815" lon="-1.47286">
        <ele>4.8</ele>
        <time>2021-07-18T13:59:55Z</time>
      </trkpt>
      <trkpt lat="43.4781" lon="-1.47296">
        <ele>4.8</ele>
        <time>2021-07-18T13:59:57Z</time>
      </trkpt>
      <trkpt lat="43.47804" lon="-1.47303">
        <ele>4.8</ele>
        <time>2021-07-18T13:59:59Z</time>
      </trkpt>
      <trkpt lat="43.47798" lon="-1.47312">
        <ele>4.8</ele>
        <time>2021-07-18T14:00:01Z</time>
      </trkpt>
      <trkpt lat="43.47795" lon="-1.47317">
        <ele>4.8</ele>
        <time>2021-07-18T14:00:02Z</time>
      </trkpt>
      <trkpt lat="43.47791" lon="-1.47322">
        <ele>4.8</ele>
        <time>2021-07-18T14:00:03Z</time>
      </trkpt>
      <trkpt lat="43.47785" lon="-1.4733">
        <ele>4.8</ele>
        <time>2021-07-18T14:00:05Z</time>
      </trkpt>
      <trkpt lat="43.47783" lon="-1.47337">
        <ele>4.8</ele>
        <time>2021-07-18T14:00:06Z</time>
      </trkpt>
      <trkpt lat="43.47779" lon="-1.47345">
        <ele>4.8</ele>
        <time>2021-07-18T14:00:08Z</time>
      </trkpt>
      <trkpt lat="43.47776" lon="-1.47351">
        <ele>4.8</ele>
        <time>2021-07-18T14:00:09Z</time>
      </trkpt>
      <trkpt lat="43.47772" lon="-1.47358">
        <ele>4.8</ele>
        <time>2021-07-18T14:00:11Z</time>
      </trkpt>
      <trkpt lat="43.47769" lon="-1.47364">
        <ele>4.8</ele>
        <time>2021-07-18T14:00:12Z</time>
      </trkpt>
      <trkpt lat="43.47766" lon="-1.4737">
        <ele>4.8</ele>
        <time>2021-07-18T14:00:13Z</time>
      </trkpt>
      <trkpt lat="43.47763" lon="-1.47375">
        <ele>4.8</ele>
        <time>2021-07-18T14:00:14Z</time>
      </trkpt>
      <trkpt lat="43.4776" lon="-1.4738">
        <ele>4.8</ele>
        <time>2021-07-18T14:00:15Z</time>
      </trkpt>
      <trkpt lat="43.47755" lon="-1.47392">
        <ele>4.8</ele>
        <time>2021-07-18T14:00:17Z</time>
      </trkpt>
      <trkpt lat="43.47751" lon="-1.47403">
        <ele>4.9</ele>
        <time>2021-07-18T14:00:19Z</time>
      </trkpt>
      <trkpt lat="43.47746" lon="-1.47414">
        <ele>4.9</ele>
        <time>2021-07-18T14:00:21Z</time>
      </trkpt>
      <trkpt lat="43.47743" lon="-1.47423">
        <ele>5</ele>
        <time>2021-07-18T14:00:23Z</time>
      </trkpt>
      <trkpt lat="43.47742" lon="-1.4743">
        <ele>5</ele>
        <time>2021-07-18T14:00:24Z</time>
      </trkpt>
      <trkpt lat="43.47739" lon="-1.47436">
        <ele>5</ele>
        <time>2021-07-18T14:00:25Z</time>
      </trkpt>
      <trkpt lat="43.47735" lon="-1.47445">
        <ele>5</ele>
        <time>2021-07-18T14:00:27Z</time>
      </trkpt>
      <trkpt lat="43.47731" lon="-1.47452">
        <ele>5</ele>
        <time>2021-07-18T14:00:29Z</time>
      </trkpt>
      <trkpt lat="43.47729" lon="-1.47458">
        <ele>5</ele>
        <time>2021-07-18T14:00:30Z</time>
      </trkpt>
      <trkpt lat="43.47726" lon="-1.47464">
        <ele>5</ele>
        <time>2021-07-18T14:00:31Z</time>
      </trkpt>
      <trkpt lat="43.47723" lon="-1.47476">
        <ele>5</ele>
        <time>2021-07-18T14:00:33Z</time>
      </trkpt>
      <trkpt lat="43.47719" lon="-1.47483">
        <ele>5</ele>
        <time>2021-07-18T14:00:34Z</time>
      </trkpt>
      <trkpt lat="43.47716" lon="-1.47489">
        <ele>4.9</ele>
        <time>2021-07-18T14:00:36Z</time>
      </trkpt>
      <trkpt lat="43.4772" lon="-1.47489">
        <ele>4.9</ele>
        <time>2021-07-18T14:00:37Z</time>
      </trkpt>
      <trkpt lat="43.47715" lon="-1.47503">
        <ele>4.9</ele>
        <time>2021-07-18T14:00:39Z</time>
      </trkpt>
      <trkpt lat="43.47709" lon="-1.47515">
        <ele>4.9</ele>
        <time>2021-07-18T14:00:41Z</time>
      </trkpt>
      <trkpt lat="43.47706" lon="-1.47523">
        <ele>4.9</ele>
        <time>2021-07-18T14:00:42Z</time>
      </trkpt>
      <trkpt lat="43.47702" lon="-1.47531">
        <ele>4.9</ele>
        <time>2021-07-18T14:00:43Z</time>
      </trkpt>
      <trkpt lat="43.47699" lon="-1.47539">
        <ele>4.9</ele>
        <time>2021-07-18T14:00:45Z</time>
      </trkpt>
      <trkpt lat="43.47696" lon="-1.47545">
        <ele>4.9</ele>
        <time>2021-07-18T14:00:46Z</time>
      </trkpt>
      <trkpt lat="43.47694" lon="-1.47551">
        <ele>4.9</ele>
        <time>2021-07-18T14:00:47Z</time>
      </trkpt>
      <trkpt lat="43.47689" lon="-1.47563">
        <ele>4.8</ele>
        <time>2021-07-18T14:00:49Z</time>
      </trkpt>
      <trkpt lat="43.47687" lon="-1.47569">
        <ele>4.8</ele>
        <time>2021-07-18T14:00:50Z</time>
      </trkpt>
      <trkpt lat="43.47685" lon="-1.47574">
        <ele>4.8</ele>
        <time>2021-07-18T14:00:51Z</time>
      </trkpt>
      <trkpt lat="43.47683" lon="-1.47578">
        <ele>4.8</ele>
        <time>2021-07-18T14:00:52Z</time>
      </trkpt>
      <trkpt lat="43.47679" lon="-1.47587">
        <ele>4.7</ele>
        <time>2021-07-18T14:00:54Z</time>
      </trkpt>
      <trkpt lat="43.47676" lon="-1.47593">
        <ele>4.7</ele>
        <time>2021-07-18T14:00:55Z</time>
      </trkpt>
      <trkpt lat="43.47671" lon="-1.47602">
        <ele>4.6</ele>
        <time>2021-07-18T14:00:57Z</time>
      </trkpt>
      <trkpt lat="43.47669" lon="-1.47608">
        <ele>4.6</ele>
        <time>2021-07-18T14:00:58Z</time>
      </trkpt>
      <trkpt lat="43.47664" lon="-1.4762">
        <ele>4.5</ele>
        <time>2021-07-18T14:01:00Z</time>
      </trkpt>
      <trkpt lat="43.47662" lon="-1.47625">
        <ele>4.5</ele>
        <time>2021-07-18T14:01:01Z</time>
      </trkpt>
      <trkpt lat="43.47656" lon="-1.47636">
        <ele>4.4</ele>
        <time>2021-07-18T14:01:03Z</time>
      </trkpt>
      <trkpt lat="43.47653" lon="-1.4764">
        <ele>4.4</ele>
        <time>2021-07-18T14:01:04Z</time>
      </trkpt>
      <trkpt lat="43.47651" lon="-1.47646">
        <ele>4.4</ele>
        <time>2021-07-18T14:01:05Z</time>
      </trkpt>
      <trkpt lat="43.47649" lon="-1.4765">
        <ele>4.4</ele>
        <time>2021-07-18T14:01:06Z</time>
      </trkpt>
      <trkpt lat="43.47646" lon="-1.47657">
        <ele>4.4</ele>
        <time>2021-07-18T14:01:07Z</time>
      </trkpt>
      <trkpt lat="43.47643" lon="-1.47662">
        <ele>4.4</ele>
        <time>2021-07-18T14:01:09Z</time>
      </trkpt>
      <trkpt lat="43.47639" lon="-1.47671">
        <ele>4.4</ele>
        <time>2021-07-18T14:01:10Z</time>
      </trkpt>
      <trkpt lat="43.47635" lon="-1.47675">
        <ele>4.4</ele>
        <time>2021-07-18T14:01:12Z</time>
      </trkpt>
      <trkpt lat="43.47631" lon="-1.47682">
        <ele>4.4</ele>
        <time>2021-07-18T14:01:13Z</time>
      </trkpt>
      <trkpt lat="43.47629" lon="-1.47688">
        <ele>4.3</ele>
        <time>2021-07-18T14:01:14Z</time>
      </trkpt>
      <trkpt lat="43.47626" lon="-1.47696">
        <ele>4.3</ele>
        <time>2021-07-18T14:01:16Z</time>
      </trkpt>
      <trkpt lat="43.47623" lon="-1.47704">
        <ele>4.3</ele>
        <time>2021-07-18T14:01:17Z</time>
      </trkpt>
      <trkpt lat="43.4762" lon="-1.47711">
        <ele>4.3</ele>
        <time>2021-07-18T14:01:19Z</time>
      </trkpt>
      <trkpt lat="43.47618" lon="-1.47716">
        <ele>4.3</ele>
        <time>2021-07-18T14:01:20Z</time>
      </trkpt>
      <trkpt lat="43.47614" lon="-1.47724">
        <ele>4.3</ele>
        <time>2021-07-18T14:01:21Z</time>
      </trkpt>
      <trkpt lat="43.47611" lon="-1.47731">
        <ele>4.3</ele>
        <time>2021-07-18T14:01:23Z</time>
      </trkpt>
      <trkpt lat="43.47608" lon="-1.47737">
        <ele>4.3</ele>
        <time>2021-07-18T14:01:24Z</time>
      </trkpt>
      <trkpt lat="43.47606" lon="-1.47743">
        <ele>4.3</ele>
        <time>2021-07-18T14:01:25Z</time>
      </trkpt>
      <trkpt lat="43.47604" lon="-1.47749">
        <ele>4.3</ele>
        <time>2021-07-18T14:01:26Z</time>
      </trkpt>
      <trkpt lat="43.476" lon="-1.47758">
        <ele>4.3</ele>
        <time>2021-07-18T14:01:28Z</time>
      </trkpt>
      <trkpt lat="43.47597" lon="-1.47764">
        <ele>4.3</ele>
        <time>2021-07-18T14:01:29Z</time>
      </trkpt>
      <trkpt lat="43.47593" lon="-1.47772">
        <ele>4.3</ele>
        <time>2021-07-18T14:01:31Z</time>
      </trkpt>
      <trkpt lat="43.4759" lon="-1.47778">
        <ele>4.3</ele>
        <time>2021-07-18T14:01:32Z</time>
      </trkpt>
      <trkpt lat="43.47585" lon="-1.47786">
        <ele>4.4</ele>
        <time>2021-07-18T14:01:34Z</time>
      </trkpt>
      <trkpt lat="43.47583" lon="-1.47792">
        <ele>4.4</ele>
        <time>2021-07-18T14:01:35Z</time>
      </trkpt>
      <trkpt lat="43.47581" lon="-1.47797">
        <ele>4.4</ele>
        <time>2021-07-18T14:01:36Z</time>
      </trkpt>
      <trkpt lat="43.47579" lon="-1.47802">
        <ele>4.4</ele>
        <time>2021-07-18T14:01:37Z</time>
      </trkpt>
      <trkpt lat="43.47574" lon="-1.4781">
        <ele>4.5</ele>
        <time>2021-07-18T14:01:39Z</time>
      </trkpt>
      <trkpt lat="43.47572" lon="-1.47815">
        <ele>4.5</ele>
        <time>2021-07-18T14:01:40Z</time>
      </trkpt>
      <trkpt lat="43.47569" lon="-1.47821">
        <ele>4.5</ele>
        <time>2021-07-18T14:01:41Z</time>
      </trkpt>
      <trkpt lat="43.47564" lon="-1.47831">
        <ele>4.6</ele>
        <time>2021-07-18T14:01:43Z</time>
      </trkpt>
      <trkpt lat="43.47562" lon="-1.47836">
        <ele>4.6</ele>
        <time>2021-07-18T14:01:44Z</time>
      </trkpt>
      <trkpt lat="43.4756" lon="-1.47841">
        <ele>4.6</ele>
        <time>2021-07-18T14:01:45Z</time>
      </trkpt>
      <trkpt lat="43.47554" lon="-1.47852">
        <ele>4.7</ele>
        <time>2021-07-18T14:01:47Z</time>
      </trkpt>
      <trkpt lat="43.47549" lon="-1.47863">
        <ele>4.8</ele>
        <time>2021-07-18T14:01:49Z</time>
      </trkpt>
      <trkpt lat="43.47547" lon="-1.47869">
        <ele>4.8</ele>
        <time>2021-07-18T14:01:50Z</time>
      </trkpt>
      <trkpt lat="43.47544" lon="-1.47874">
        <ele>4.8</ele>
        <time>2021-07-18T14:01:51Z</time>
      </trkpt>
      <trkpt lat="43.47539" lon="-1.47885">
        <ele>4.9</ele>
        <time>2021-07-18T14:01:53Z</time>
      </trkpt>
      <trkpt lat="43.47536" lon="-1.47891">
        <ele>4.9</ele>
        <time>2021-07-18T14:01:54Z</time>
      </trkpt>
      <trkpt lat="43.47534" lon="-1.47896">
        <ele>4.9</ele>
        <time>2021-07-18T14:01:55Z</time>
      </trkpt>
      <trkpt lat="43.47531" lon="-1.47901">
        <ele>5</ele>
        <time>2021-07-18T14:01:56Z</time>
      </trkpt>
      <trkpt lat="43.47526" lon="-1.47912">
        <ele>5</ele>
        <time>2021-07-18T14:01:58Z</time>
      </trkpt>
      <trkpt lat="43.47521" lon="-1.47922">
        <ele>5</ele>
        <time>2021-07-18T14:02:00Z</time>
      </trkpt>
      <trkpt lat="43.47516" lon="-1.47931">
        <ele>5</ele>
        <time>2021-07-18T14:02:02Z</time>
      </trkpt>
      <trkpt lat="43.47513" lon="-1.47936">
        <ele>5</ele>
        <time>2021-07-18T14:02:03Z</time>
      </trkpt>
      <trkpt lat="43.47507" lon="-1.47947">
        <ele>5</ele>
        <time>2021-07-18T14:02:05Z</time>
      </trkpt>
      <trkpt lat="43.47501" lon="-1.47957">
        <ele>5</ele>
        <time>2021-07-18T14:02:07Z</time>
      </trkpt>
      <trkpt lat="43.47498" lon="-1.47962">
        <ele>5</ele>
        <time>2021-07-18T14:02:08Z</time>
      </trkpt>
      <trkpt lat="43.47495" lon="-1.47966">
        <ele>5</ele>
        <time>2021-07-18T14:02:09Z</time>
      </trkpt>
      <trkpt lat="43.47492" lon="-1.47971">
        <ele>5</ele>
        <time>2021-07-18T14:02:10Z</time>
      </trkpt>
      <trkpt lat="43.4749" lon="-1.47977">
        <ele>5</ele>
        <time>2021-07-18T14:02:11Z</time>
      </trkpt>
      <trkpt lat="43.47484" lon="-1.47987">
        <ele>4.9</ele>
        <time>2021-07-18T14:02:13Z</time>
      </trkpt>
      <trkpt lat="43.47481" lon="-1.47992">
        <ele>4.9</ele>
        <time>2021-07-18T14:02:14Z</time>
      </trkpt>
      <trkpt lat="43.47474" lon="-1.48002">
        <ele>4.9</ele>
        <time>2021-07-18T14:02:16Z</time>
      </trkpt>
      <trkpt lat="43.47467" lon="-1.48013">
        <ele>4.9</ele>
        <time>2021-07-18T14:02:18Z</time>
      </trkpt>
      <trkpt lat="43.4746" lon="-1.48022">
        <ele>4.9</ele>
        <time>2021-07-18T14:02:20Z</time>
      </trkpt>
      <trkpt lat="43.47457" lon="-1.48027">
        <ele>4.9</ele>
        <time>2021-07-18T14:02:21Z</time>
      </trkpt>
      <trkpt lat="43.4745" lon="-1.48037">
        <ele>4.9</ele>
        <time>2021-07-18T14:02:23Z</time>
      </trkpt>
      <trkpt lat="43.47443" lon="-1.48048">
        <ele>4.9</ele>
        <time>2021-07-18T14:02:25Z</time>
      </trkpt>
      <trkpt lat="43.4744" lon="-1.48053">
        <ele>4.9</ele>
        <time>2021-07-18T14:02:26Z</time>
      </trkpt>
      <trkpt lat="43.47433" lon="-1.48063">
        <ele>4.9</ele>
        <time>2021-07-18T14:02:28Z</time>
      </trkpt>
      <trkpt lat="43.4743" lon="-1.48068">
        <ele>4.9</ele>
        <time>2021-07-18T14:02:29Z</time>
      </trkpt>
      <trkpt lat="43.47426" lon="-1.48073">
        <ele>4.8</ele>
        <time>2021-07-18T14:02:30Z</time>
      </trkpt>
      <trkpt lat="43.4742" lon="-1.48084">
        <ele>4.8</ele>
        <time>2021-07-18T14:02:32Z</time>
      </trkpt>
      <trkpt lat="43.47417" lon="-1.4809">
        <ele>4.8</ele>
        <time>2021-07-18T14:02:33Z</time>
      </trkpt>
      <trkpt lat="43.47414" lon="-1.48096">
        <ele>4.8</ele>
        <time>2021-07-18T14:02:34Z</time>
      </trkpt>
      <trkpt lat="43.47407" lon="-1.48107">
        <ele>4.9</ele>
        <time>2021-07-18T14:02:36Z</time>
      </trkpt>
      <trkpt lat="43.47404" lon="-1.48112">
        <ele>4.9</ele>
        <time>2021-07-18T14:02:37Z</time>
      </trkpt>
      <trkpt lat="43.47398" lon="-1.48122">
        <ele>4.9</ele>
        <time>2021-07-18T14:02:39Z</time>
      </trkpt>
      <trkpt lat="43.47395" lon="-1.48128">
        <ele>5</ele>
        <time>2021-07-18T14:02:40Z</time>
      </trkpt>
      <trkpt lat="43.47392" lon="-1.48133">
        <ele>5</ele>
        <time>2021-07-18T14:02:41Z</time>
      </trkpt>
      <trkpt lat="43.47389" lon="-1.48139">
        <ele>5.1</ele>
        <time>2021-07-18T14:02:42Z</time>
      </trkpt>
      <trkpt lat="43.47383" lon="-1.4815">
        <ele>5.1</ele>
        <time>2021-07-18T14:02:44Z</time>
      </trkpt>
      <trkpt lat="43.4738" lon="-1.48155">
        <ele>5.2</ele>
        <time>2021-07-18T14:02:45Z</time>
      </trkpt>
      <trkpt lat="43.47377" lon="-1.48159">
        <ele>5.2</ele>
        <time>2021-07-18T14:02:46Z</time>
      </trkpt>
      <trkpt lat="43.47371" lon="-1.48168">
        <ele>5.3</ele>
        <time>2021-07-18T14:02:48Z</time>
      </trkpt>
      <trkpt lat="43.47365" lon="-1.48177">
        <ele>5.3</ele>
        <time>2021-07-18T14:02:50Z</time>
      </trkpt>
      <trkpt lat="43.47358" lon="-1.48186">
        <ele>5.4</ele>
        <time>2021-07-18T14:02:52Z</time>
      </trkpt>
      <trkpt lat="43.47356" lon="-1.48189">
        <ele>5.4</ele>
        <time>2021-07-18T14:02:53Z</time>
      </trkpt>
      <trkpt lat="43.47353" lon="-1.48194">
        <ele>5.4</ele>
        <time>2021-07-18T14:02:54Z</time>
      </trkpt>
      <trkpt lat="43.4735" lon="-1.48199">
        <ele>5.4</ele>
        <time>2021-07-18T14:02:55Z</time>
      </trkpt>
      <trkpt lat="43.47347" lon="-1.48204">
        <ele>5.5</ele>
        <time>2021-07-18T14:02:56Z</time>
      </trkpt>
      <trkpt lat="43.47341" lon="-1.48212">
        <ele>5.5</ele>
        <time>2021-07-18T14:02:58Z</time>
      </trkpt>
      <trkpt lat="43.47339" lon="-1.48215">
        <ele>5.6</ele>
        <time>2021-07-18T14:02:59Z</time>
      </trkpt>
      <trkpt lat="43.47337" lon="-1.48223">
        <ele>5.5</ele>
        <time>2021-07-18T14:03:01Z</time>
      </trkpt>
      <trkpt lat="43.47334" lon="-1.48227">
        <ele>5.5</ele>
        <time>2021-07-18T14:03:02Z</time>
      </trkpt>
      <trkpt lat="43.47328" lon="-1.48236">
        <ele>5.5</ele>
        <time>2021-07-18T14:03:03Z</time>
      </trkpt>
      <trkpt lat="43.47325" lon="-1.48242">
        <ele>5.5</ele>
        <time>2021-07-18T14:03:04Z</time>
      </trkpt>
      <trkpt lat="43.47323" lon="-1.48248">
        <ele>5.5</ele>
        <time>2021-07-18T14:03:05Z</time>
      </trkpt>
      <trkpt lat="43.47318" lon="-1.4826">
        <ele>5.5</ele>
        <time>2021-07-18T14:03:07Z</time>
      </trkpt>
      <trkpt lat="43.47316" lon="-1.48266">
        <ele>5.5</ele>
        <time>2021-07-18T14:03:08Z</time>
      </trkpt>
      <trkpt lat="43.47313" lon="-1.48271">
        <ele>5.5</ele>
        <time>2021-07-18T14:03:09Z</time>
      </trkpt>
      <trkpt lat="43.47311" lon="-1.48277">
        <ele>5.5</ele>
        <time>2021-07-18T14:03:10Z</time>
      </trkpt>
      <trkpt lat="43.47307" lon="-1.48287">
        <ele>5.6</ele>
        <time>2021-07-18T14:03:12Z</time>
      </trkpt>
      <trkpt lat="43.47306" lon="-1.48292">
        <ele>5.6</ele>
        <time>2021-07-18T14:03:13Z</time>
      </trkpt>
      <trkpt lat="43.473" lon="-1.48304">
        <ele>5.5</ele>
        <time>2021-07-18T14:03:15Z</time>
      </trkpt>
      <trkpt lat="43.47295" lon="-1.48316">
        <ele>5.5</ele>
        <time>2021-07-18T14:03:17Z</time>
      </trkpt>
      <trkpt lat="43.47292" lon="-1.48323">
        <ele>5.4</ele>
        <time>2021-07-18T14:03:18Z</time>
      </trkpt>
      <trkpt lat="43.4729" lon="-1.48329">
        <ele>5.4</ele>
        <time>2021-07-18T14:03:19Z</time>
      </trkpt>
      <trkpt lat="43.47283" lon="-1.48341">
        <ele>5.3</ele>
        <time>2021-07-18T14:03:21Z</time>
      </trkpt>
      <trkpt lat="43.47277" lon="-1.48353">
        <ele>5.3</ele>
        <time>2021-07-18T14:03:23Z</time>
      </trkpt>
      <trkpt lat="43.47274" lon="-1.48359">
        <ele>5.3</ele>
        <time>2021-07-18T14:03:24Z</time>
      </trkpt>
      <trkpt lat="43.47271" lon="-1.48364">
        <ele>5.3</ele>
        <time>2021-07-18T14:03:25Z</time>
      </trkpt>
      <trkpt lat="43.47268" lon="-1.48369">
        <ele>5.3</ele>
        <time>2021-07-18T14:03:26Z</time>
      </trkpt>
      <trkpt lat="43.47261" lon="-1.48379">
        <ele>5.3</ele>
        <time>2021-07-18T14:03:28Z</time>
      </trkpt>
      <trkpt lat="43.47257" lon="-1.48383">
        <ele>5.3</ele>
        <time>2021-07-18T14:03:29Z</time>
      </trkpt>
      <trkpt lat="43.47253" lon="-1.48389">
        <ele>5.3</ele>
        <time>2021-07-18T14:03:30Z</time>
      </trkpt>
      <trkpt lat="43.47245" lon="-1.48399">
        <ele>5.3</ele>
        <time>2021-07-18T14:03:32Z</time>
      </trkpt>
      <trkpt lat="43.47241" lon="-1.48404">
        <ele>5.3</ele>
        <time>2021-07-18T14:03:33Z</time>
      </trkpt>
      <trkpt lat="43.47237" lon="-1.48409">
        <ele>5.2</ele>
        <time>2021-07-18T14:03:34Z</time>
      </trkpt>
      <trkpt lat="43.47227" lon="-1.48416">
        <ele>5.2</ele>
        <time>2021-07-18T14:03:36Z</time>
      </trkpt>
      <trkpt lat="43.47222" lon="-1.4842">
        <ele>5.2</ele>
        <time>2021-07-18T14:03:37Z</time>
      </trkpt>
      <trkpt lat="43.47217" lon="-1.48424">
        <ele>5.2</ele>
        <time>2021-07-18T14:03:38Z</time>
      </trkpt>
      <trkpt lat="43.47207" lon="-1.48431">
        <ele>5.1</ele>
        <time>2021-07-18T14:03:40Z</time>
      </trkpt>
      <trkpt lat="43.47197" lon="-1.48437">
        <ele>5.1</ele>
        <time>2021-07-18T14:03:42Z</time>
      </trkpt>
      <trkpt lat="43.47193" lon="-1.4844">
        <ele>5.1</ele>
        <time>2021-07-18T14:03:43Z</time>
      </trkpt>
      <trkpt lat="43.47188" lon="-1.48443">
        <ele>5.1</ele>
        <time>2021-07-18T14:03:44Z</time>
      </trkpt>
      <trkpt lat="43.47178" lon="-1.48448">
        <ele>5.1</ele>
        <time>2021-07-18T14:03:46Z</time>
      </trkpt>
      <trkpt lat="43.47167" lon="-1.48453">
        <ele>5.1</ele>
        <time>2021-07-18T14:03:48Z</time>
      </trkpt>
      <trkpt lat="43.47157" lon="-1.48457">
        <ele>5.2</ele>
        <time>2021-07-18T14:03:50Z</time>
      </trkpt>
      <trkpt lat="43.47152" lon="-1.48458">
        <ele>5.2</ele>
        <time>2021-07-18T14:03:51Z</time>
      </trkpt>
      <trkpt lat="43.47147" lon="-1.48459">
        <ele>5.2</ele>
        <time>2021-07-18T14:03:52Z</time>
      </trkpt>
      <trkpt lat="43.47142" lon="-1.4846">
        <ele>5.2</ele>
        <time>2021-07-18T14:03:53Z</time>
      </trkpt>
      <trkpt lat="43.47132" lon="-1.48461">
        <ele>5.2</ele>
        <time>2021-07-18T14:03:55Z</time>
      </trkpt>
      <trkpt lat="43.47123" lon="-1.48464">
        <ele>5.2</ele>
        <time>2021-07-18T14:03:57Z</time>
      </trkpt>
      <trkpt lat="43.47118" lon="-1.48465">
        <ele>5.2</ele>
        <time>2021-07-18T14:03:58Z</time>
      </trkpt>
      <trkpt lat="43.47113" lon="-1.48467">
        <ele>5.2</ele>
        <time>2021-07-18T14:03:59Z</time>
      </trkpt>
      <trkpt lat="43.47108" lon="-1.48468">
        <ele>5.2</ele>
        <time>2021-07-18T14:04:00Z</time>
      </trkpt>
      <trkpt lat="43.47099" lon="-1.4847">
        <ele>5.2</ele>
        <time>2021-07-18T14:04:02Z</time>
      </trkpt>
      <trkpt lat="43.47094" lon="-1.48472">
        <ele>5.2</ele>
        <time>2021-07-18T14:04:03Z</time>
      </trkpt>
      <trkpt lat="43.47089" lon="-1.48473">
        <ele>5.2</ele>
        <time>2021-07-18T14:04:04Z</time>
      </trkpt>
      <trkpt lat="43.47084" lon="-1.48474">
        <ele>5.2</ele>
        <time>2021-07-18T14:04:05Z</time>
      </trkpt>
      <trkpt lat="43.47074" lon="-1.48476">
        <ele>5.2</ele>
        <time>2021-07-18T14:04:07Z</time>
      </trkpt>
      <trkpt lat="43.47063" lon="-1.48477">
        <ele>5.2</ele>
        <time>2021-07-18T14:04:09Z</time>
      </trkpt>
      <trkpt lat="43.47052" lon="-1.48478">
        <ele>5.2</ele>
        <time>2021-07-18T14:04:11Z</time>
      </trkpt>
      <trkpt lat="43.47041" lon="-1.48478">
        <ele>5.2</ele>
        <time>2021-07-18T14:04:13Z</time>
      </trkpt>
      <trkpt lat="43.47036" lon="-1.48478">
        <ele>5.2</ele>
        <time>2021-07-18T14:04:14Z</time>
      </trkpt>
      <trkpt lat="43.47025" lon="-1.48479">
        <ele>5.1</ele>
        <time>2021-07-18T14:04:16Z</time>
      </trkpt>
      <trkpt lat="43.4702" lon="-1.48479">
        <ele>5.1</ele>
        <time>2021-07-18T14:04:17Z</time>
      </trkpt>
      <trkpt lat="43.47015" lon="-1.48479">
        <ele>5.1</ele>
        <time>2021-07-18T14:04:18Z</time>
      </trkpt>
      <trkpt lat="43.47009" lon="-1.48479">
        <ele>5.1</ele>
        <time>2021-07-18T14:04:19Z</time>
      </trkpt>
      <trkpt lat="43.46998" lon="-1.48481">
        <ele>5.1</ele>
        <time>2021-07-18T14:04:21Z</time>
      </trkpt>
      <trkpt lat="43.46993" lon="-1.48483">
        <ele>5.1</ele>
        <time>2021-07-18T14:04:22Z</time>
      </trkpt>
      <trkpt lat="43.46988" lon="-1.48485">
        <ele>5.1</ele>
        <time>2021-07-18T14:04:23Z</time>
      </trkpt>
      <trkpt lat="43.46979" lon="-1.48487">
        <ele>5.2</ele>
        <time>2021-07-18T14:04:25Z</time>
      </trkpt>
      <trkpt lat="43.46969" lon="-1.48489">
        <ele>5.2</ele>
        <time>2021-07-18T14:04:27Z</time>
      </trkpt>
      <trkpt lat="43.46964" lon="-1.4849">
        <ele>5.1</ele>
        <time>2021-07-18T14:04:28Z</time>
      </trkpt>
      <trkpt lat="43.46954" lon="-1.48492">
        <ele>5.1</ele>
        <time>2021-07-18T14:04:30Z</time>
      </trkpt>
      <trkpt lat="43.46949" lon="-1.48493">
        <ele>5.1</ele>
        <time>2021-07-18T14:04:31Z</time>
      </trkpt>
      <trkpt lat="43.46943" lon="-1.48494">
        <ele>5.1</ele>
        <time>2021-07-18T14:04:32Z</time>
      </trkpt>
      <trkpt lat="43.46938" lon="-1.48495">
        <ele>5</ele>
        <time>2021-07-18T14:04:33Z</time>
      </trkpt>
      <trkpt lat="43.46927" lon="-1.48495">
        <ele>5</ele>
        <time>2021-07-18T14:04:35Z</time>
      </trkpt>
      <trkpt lat="43.46917" lon="-1.48494">
        <ele>5</ele>
        <time>2021-07-18T14:04:37Z</time>
      </trkpt>
      <trkpt lat="43.46912" lon="-1.48494">
        <ele>5</ele>
        <time>2021-07-18T14:04:38Z</time>
      </trkpt>
      <trkpt lat="43.46901" lon="-1.48493">
        <ele>5</ele>
        <time>2021-07-18T14:04:40Z</time>
      </trkpt>
      <trkpt lat="43.4689" lon="-1.48493">
        <ele>5</ele>
        <time>2021-07-18T14:04:42Z</time>
      </trkpt>
      <trkpt lat="43.46885" lon="-1.48492">
        <ele>5</ele>
        <time>2021-07-18T14:04:43Z</time>
      </trkpt>
      <trkpt lat="43.46879" lon="-1.48492">
        <ele>5</ele>
        <time>2021-07-18T14:04:44Z</time>
      </trkpt>
      <trkpt lat="43.46869" lon="-1.48491">
        <ele>5</ele>
        <time>2021-07-18T14:04:46Z</time>
      </trkpt>
      <trkpt lat="43.46863" lon="-1.48491">
        <ele>5</ele>
        <time>2021-07-18T14:04:47Z</time>
      </trkpt>
      <trkpt lat="43.46853" lon="-1.4849">
        <ele>4.9</ele>
        <time>2021-07-18T14:04:49Z</time>
      </trkpt>
      <trkpt lat="43.46847" lon="-1.48489">
        <ele>4.9</ele>
        <time>2021-07-18T14:04:50Z</time>
      </trkpt>
      <trkpt lat="43.46836" lon="-1.48487">
        <ele>4.9</ele>
        <time>2021-07-18T14:04:52Z</time>
      </trkpt>
      <trkpt lat="43.46831" lon="-1.48486">
        <ele>4.9</ele>
        <time>2021-07-18T14:04:53Z</time>
      </trkpt>
      <trkpt lat="43.4682" lon="-1.48483">
        <ele>4.9</ele>
        <time>2021-07-18T14:04:55Z</time>
      </trkpt>
      <trkpt lat="43.4681" lon="-1.48481">
        <ele>4.9</ele>
        <time>2021-07-18T14:04:57Z</time>
      </trkpt>
      <trkpt lat="43.46805" lon="-1.4848">
        <ele>4.9</ele>
        <time>2021-07-18T14:04:58Z</time>
      </trkpt>
      <trkpt lat="43.46794" lon="-1.48477">
        <ele>4.9</ele>
        <time>2021-07-18T14:05:00Z</time>
      </trkpt>
      <trkpt lat="43.46788" lon="-1.48475">
        <ele>5</ele>
        <time>2021-07-18T14:05:01Z</time>
      </trkpt>
      <trkpt lat="43.46783" lon="-1.48473">
        <ele>5</ele>
        <time>2021-07-18T14:05:02Z</time>
      </trkpt>
      <trkpt lat="43.46773" lon="-1.48469">
        <ele>5</ele>
        <time>2021-07-18T14:05:04Z</time>
      </trkpt>
      <trkpt lat="43.46767" lon="-1.48467">
        <ele>4.9</ele>
        <time>2021-07-18T14:05:05Z</time>
      </trkpt>
      <trkpt lat="43.46757" lon="-1.48463">
        <ele>4.9</ele>
        <time>2021-07-18T14:05:07Z</time>
      </trkpt>
      <trkpt lat="43.46752" lon="-1.48461">
        <ele>4.9</ele>
        <time>2021-07-18T14:05:08Z</time>
      </trkpt>
      <trkpt lat="43.46747" lon="-1.48459">
        <ele>4.9</ele>
        <time>2021-07-18T14:05:09Z</time>
      </trkpt>
      <trkpt lat="43.46742" lon="-1.48456">
        <ele>4.9</ele>
        <time>2021-07-18T14:05:10Z</time>
      </trkpt>
      <trkpt lat="43.46737" lon="-1.48454">
        <ele>4.9</ele>
        <time>2021-07-18T14:05:11Z</time>
      </trkpt>
      <trkpt lat="43.46726" lon="-1.48449">
        <ele>4.9</ele>
        <time>2021-07-18T14:05:13Z</time>
      </trkpt>
      <trkpt lat="43.46715" lon="-1.48445">
        <ele>4.9</ele>
        <time>2021-07-18T14:05:15Z</time>
      </trkpt>
      <trkpt lat="43.4671" lon="-1.48443">
        <ele>4.9</ele>
        <time>2021-07-18T14:05:16Z</time>
      </trkpt>
      <trkpt lat="43.46699" lon="-1.48438">
        <ele>4.9</ele>
        <time>2021-07-18T14:05:18Z</time>
      </trkpt>
      <trkpt lat="43.46693" lon="-1.48435">
        <ele>4.9</ele>
        <time>2021-07-18T14:05:19Z</time>
      </trkpt>
      <trkpt lat="43.46688" lon="-1.48432">
        <ele>4.9</ele>
        <time>2021-07-18T14:05:20Z</time>
      </trkpt>
      <trkpt lat="43.46676" lon="-1.48426">
        <ele>4.9</ele>
        <time>2021-07-18T14:05:22Z</time>
      </trkpt>
      <trkpt lat="43.46671" lon="-1.48423">
        <ele>4.9</ele>
        <time>2021-07-18T14:05:23Z</time>
      </trkpt>
      <trkpt lat="43.46665" lon="-1.4842">
        <ele>4.9</ele>
        <time>2021-07-18T14:05:24Z</time>
      </trkpt>
      <trkpt lat="43.46654" lon="-1.48413">
        <ele>4.9</ele>
        <time>2021-07-18T14:05:26Z</time>
      </trkpt>
      <trkpt lat="43.46644" lon="-1.48407">
        <ele>4.9</ele>
        <time>2021-07-18T14:05:28Z</time>
      </trkpt>
      <trkpt lat="43.46638" lon="-1.48403">
        <ele>4.9</ele>
        <time>2021-07-18T14:05:29Z</time>
      </trkpt>
      <trkpt lat="43.46628" lon="-1.48396">
        <ele>4.9</ele>
        <time>2021-07-18T14:05:31Z</time>
      </trkpt>
      <trkpt lat="43.46618" lon="-1.48389">
        <ele>4.9</ele>
        <time>2021-07-18T14:05:33Z</time>
      </trkpt>
      <trkpt lat="43.46613" lon="-1.48385">
        <ele>4.9</ele>
        <time>2021-07-18T14:05:34Z</time>
      </trkpt>
      <trkpt lat="43.46608" lon="-1.48382">
        <ele>4.9</ele>
        <time>2021-07-18T14:05:35Z</time>
      </trkpt>
      <trkpt lat="43.46603" lon="-1.48378">
        <ele>4.9</ele>
        <time>2021-07-18T14:05:36Z</time>
      </trkpt>
      <trkpt lat="43.46593" lon="-1.48371">
        <ele>4.9</ele>
        <time>2021-07-18T14:05:38Z</time>
      </trkpt>
      <trkpt lat="43.46583" lon="-1.48364">
        <ele>4.9</ele>
        <time>2021-07-18T14:05:40Z</time>
      </trkpt>
      <trkpt lat="43.46578" lon="-1.48361">
        <ele>4.8</ele>
        <time>2021-07-18T14:05:41Z</time>
      </trkpt>
      <trkpt lat="43.46569" lon="-1.48354">
        <ele>4.8</ele>
        <time>2021-07-18T14:05:43Z</time>
      </trkpt>
      <trkpt lat="43.46564" lon="-1.4835">
        <ele>4.8</ele>
        <time>2021-07-18T14:05:44Z</time>
      </trkpt>
      <trkpt lat="43.46558" lon="-1.48346">
        <ele>4.7</ele>
        <time>2021-07-18T14:05:45Z</time>
      </trkpt>
      <trkpt lat="43.46549" lon="-1.4834">
        <ele>4.7</ele>
        <time>2021-07-18T14:05:47Z</time>
      </trkpt>
      <trkpt lat="43.46541" lon="-1.48333">
        <ele>4.7</ele>
        <time>2021-07-18T14:05:49Z</time>
      </trkpt>
      <trkpt lat="43.4653" lon="-1.48327">
        <ele>4.6</ele>
        <time>2021-07-18T14:05:51Z</time>
      </trkpt>
      <trkpt lat="43.46524" lon="-1.48324">
        <ele>4.6</ele>
        <time>2021-07-18T14:05:52Z</time>
      </trkpt>
      <trkpt lat="43.46519" lon="-1.48319">
        <ele>4.6</ele>
        <time>2021-07-18T14:05:53Z</time>
      </trkpt>
      <trkpt lat="43.46514" lon="-1.48315">
        <ele>4.6</ele>
        <time>2021-07-18T14:05:54Z</time>
      </trkpt>
      <trkpt lat="43.46503" lon="-1.48306">
        <ele>4.6</ele>
        <time>2021-07-18T14:05:56Z</time>
      </trkpt>
      <trkpt lat="43.46493" lon="-1.48297">
        <ele>4.7</ele>
        <time>2021-07-18T14:05:58Z</time>
      </trkpt>
      <trkpt lat="43.46488" lon="-1.48292">
        <ele>4.7</ele>
        <time>2021-07-18T14:05:59Z</time>
      </trkpt>
      <trkpt lat="43.46479" lon="-1.48284">
        <ele>4.7</ele>
        <time>2021-07-18T14:06:01Z</time>
      </trkpt>
      <trkpt lat="43.46474" lon="-1.4828">
        <ele>4.7</ele>
        <time>2021-07-18T14:06:02Z</time>
      </trkpt>
      <trkpt lat="43.46465" lon="-1.48272">
        <ele>4.7</ele>
        <time>2021-07-18T14:06:04Z</time>
      </trkpt>
      <trkpt lat="43.4646" lon="-1.48267">
        <ele>4.7</ele>
        <time>2021-07-18T14:06:05Z</time>
      </trkpt>
      <trkpt lat="43.46455" lon="-1.48263">
        <ele>4.7</ele>
        <time>2021-07-18T14:06:06Z</time>
      </trkpt>
      <trkpt lat="43.46446" lon="-1.48255">
        <ele>4.7</ele>
        <time>2021-07-18T14:06:08Z</time>
      </trkpt>
      <trkpt lat="43.46441" lon="-1.48251">
        <ele>4.7</ele>
        <time>2021-07-18T14:06:09Z</time>
      </trkpt>
      <trkpt lat="43.46432" lon="-1.48242">
        <ele>4.7</ele>
        <time>2021-07-18T14:06:11Z</time>
      </trkpt>
      <trkpt lat="43.46428" lon="-1.48238">
        <ele>4.7</ele>
        <time>2021-07-18T14:06:12Z</time>
      </trkpt>
      <trkpt lat="43.46423" lon="-1.48234">
        <ele>4.7</ele>
        <time>2021-07-18T14:06:13Z</time>
      </trkpt>
      <trkpt lat="43.46418" lon="-1.4823">
        <ele>4.7</ele>
        <time>2021-07-18T14:06:14Z</time>
      </trkpt>
      <trkpt lat="43.46414" lon="-1.48225">
        <ele>4.7</ele>
        <time>2021-07-18T14:06:15Z</time>
      </trkpt>
      <trkpt lat="43.46409" lon="-1.48221">
        <ele>4.7</ele>
        <time>2021-07-18T14:06:16Z</time>
      </trkpt>
      <trkpt lat="43.464" lon="-1.48212">
        <ele>4.7</ele>
        <time>2021-07-18T14:06:18Z</time>
      </trkpt>
      <trkpt lat="43.46391" lon="-1.48203">
        <ele>4.7</ele>
        <time>2021-07-18T14:06:20Z</time>
      </trkpt>
      <trkpt lat="43.46382" lon="-1.48194">
        <ele>4.7</ele>
        <time>2021-07-18T14:06:22Z</time>
      </trkpt>
      <trkpt lat="43.46373" lon="-1.48184">
        <ele>4.7</ele>
        <time>2021-07-18T14:06:24Z</time>
      </trkpt>
      <trkpt lat="43.46368" lon="-1.4818">
        <ele>4.6</ele>
        <time>2021-07-18T14:06:25Z</time>
      </trkpt>
      <trkpt lat="43.46358" lon="-1.48172">
        <ele>4.6</ele>
        <time>2021-07-18T14:06:27Z</time>
      </trkpt>
      <trkpt lat="43.46348" lon="-1.48164">
        <ele>4.6</ele>
        <time>2021-07-18T14:06:29Z</time>
      </trkpt>
      <trkpt lat="43.46343" lon="-1.4816">
        <ele>4.6</ele>
        <time>2021-07-18T14:06:30Z</time>
      </trkpt>
      <trkpt lat="43.46338" lon="-1.48156">
        <ele>4.6</ele>
        <time>2021-07-18T14:06:31Z</time>
      </trkpt>
      <trkpt lat="43.46328" lon="-1.4815">
        <ele>4.6</ele>
        <time>2021-07-18T14:06:33Z</time>
      </trkpt>
      <trkpt lat="43.46323" lon="-1.48147">
        <ele>4.6</ele>
        <time>2021-07-18T14:06:34Z</time>
      </trkpt>
      <trkpt lat="43.46318" lon="-1.48144">
        <ele>4.7</ele>
        <time>2021-07-18T14:06:35Z</time>
      </trkpt>
      <trkpt lat="43.46313" lon="-1.48141">
        <ele>4.7</ele>
        <time>2021-07-18T14:06:36Z</time>
      </trkpt>
      <trkpt lat="43.46302" lon="-1.48135">
        <ele>4.8</ele>
        <time>2021-07-18T14:06:38Z</time>
      </trkpt>
      <trkpt lat="43.46297" lon="-1.48133">
        <ele>4.8</ele>
        <time>2021-07-18T14:06:39Z</time>
      </trkpt>
      <trkpt lat="43.46292" lon="-1.48132">
        <ele>4.8</ele>
        <time>2021-07-18T14:06:40Z</time>
      </trkpt>
      <trkpt lat="43.46281" lon="-1.48128">
        <ele>4.8</ele>
        <time>2021-07-18T14:06:42Z</time>
      </trkpt>
      <trkpt lat="43.46271" lon="-1.48124">
        <ele>4.8</ele>
        <time>2021-07-18T14:06:44Z</time>
      </trkpt>
      <trkpt lat="43.46259" lon="-1.48122">
        <ele>4.8</ele>
        <time>2021-07-18T14:06:46Z</time>
      </trkpt>
      <trkpt lat="43.46254" lon="-1.48121">
        <ele>4.8</ele>
        <time>2021-07-18T14:06:47Z</time>
      </trkpt>
      <trkpt lat="43.46243" lon="-1.48118">
        <ele>4.8</ele>
        <time>2021-07-18T14:06:49Z</time>
      </trkpt>
      <trkpt lat="43.46233" lon="-1.48117">
        <ele>4.8</ele>
        <time>2021-07-18T14:06:51Z</time>
      </trkpt>
      <trkpt lat="43.46221" lon="-1.48116">
        <ele>4.8</ele>
        <time>2021-07-18T14:06:53Z</time>
      </trkpt>
      <trkpt lat="43.46216" lon="-1.48116">
        <ele>4.8</ele>
        <time>2021-07-18T14:06:54Z</time>
      </trkpt>
      <trkpt lat="43.46204" lon="-1.48115">
        <ele>4.9</ele>
        <time>2021-07-18T14:06:56Z</time>
      </trkpt>
      <trkpt lat="43.46193" lon="-1.48115">
        <ele>4.9</ele>
        <time>2021-07-18T14:06:58Z</time>
      </trkpt>
      <trkpt lat="43.46187" lon="-1.48116">
        <ele>4.9</ele>
        <time>2021-07-18T14:06:59Z</time>
      </trkpt>
      <trkpt lat="43.46181" lon="-1.48117">
        <ele>4.9</ele>
        <time>2021-07-18T14:07:00Z</time>
      </trkpt>
      <trkpt lat="43.46169" lon="-1.4812">
        <ele>4.9</ele>
        <time>2021-07-18T14:07:02Z</time>
      </trkpt>
      <trkpt lat="43.46163" lon="-1.48121">
        <ele>4.9</ele>
        <time>2021-07-18T14:07:03Z</time>
      </trkpt>
      <trkpt lat="43.46157" lon="-1.48123">
        <ele>4.9</ele>
        <time>2021-07-18T14:07:04Z</time>
      </trkpt>
      <trkpt lat="43.46145" lon="-1.48127">
        <ele>4.9</ele>
        <time>2021-07-18T14:07:06Z</time>
      </trkpt>
      <trkpt lat="43.46133" lon="-1.48131">
        <ele>4.9</ele>
        <time>2021-07-18T14:07:08Z</time>
      </trkpt>
      <trkpt lat="43.46121" lon="-1.48135">
        <ele>4.9</ele>
        <time>2021-07-18T14:07:10Z</time>
      </trkpt>
      <trkpt lat="43.4611" lon="-1.48141">
        <ele>4.9</ele>
        <time>2021-07-18T14:07:12Z</time>
      </trkpt>
      <trkpt lat="43.46104" lon="-1.48143">
        <ele>4.9</ele>
        <time>2021-07-18T14:07:13Z</time>
      </trkpt>
      <trkpt lat="43.46094" lon="-1.48149">
        <ele>4.9</ele>
        <time>2021-07-18T14:07:15Z</time>
      </trkpt>
      <trkpt lat="43.46088" lon="-1.48152">
        <ele>4.9</ele>
        <time>2021-07-18T14:07:16Z</time>
      </trkpt>
      <trkpt lat="43.46078" lon="-1.4816">
        <ele>4.9</ele>
        <time>2021-07-18T14:07:18Z</time>
      </trkpt>
      <trkpt lat="43.46073" lon="-1.48163">
        <ele>4.9</ele>
        <time>2021-07-18T14:07:19Z</time>
      </trkpt>
      <trkpt lat="43.46068" lon="-1.48167">
        <ele>4.8</ele>
        <time>2021-07-18T14:07:20Z</time>
      </trkpt>
      <trkpt lat="43.46062" lon="-1.4817">
        <ele>4.8</ele>
        <time>2021-07-18T14:07:21Z</time>
      </trkpt>
      <trkpt lat="43.46057" lon="-1.48174">
        <ele>4.8</ele>
        <time>2021-07-18T14:07:22Z</time>
      </trkpt>
      <trkpt lat="43.46048" lon="-1.48182">
        <ele>4.8</ele>
        <time>2021-07-18T14:07:24Z</time>
      </trkpt>
      <trkpt lat="43.46043" lon="-1.48187">
        <ele>4.8</ele>
        <time>2021-07-18T14:07:25Z</time>
      </trkpt>
      <trkpt lat="43.46034" lon="-1.48195">
        <ele>4.8</ele>
        <time>2021-07-18T14:07:27Z</time>
      </trkpt>
      <trkpt lat="43.46025" lon="-1.48204">
        <ele>4.8</ele>
        <time>2021-07-18T14:07:29Z</time>
      </trkpt>
      <trkpt lat="43.46021" lon="-1.48208">
        <ele>4.8</ele>
        <time>2021-07-18T14:07:30Z</time>
      </trkpt>
      <trkpt lat="43.46014" lon="-1.48218">
        <ele>4.8</ele>
        <time>2021-07-18T14:07:32Z</time>
      </trkpt>
      <trkpt lat="43.46006" lon="-1.48227">
        <ele>4.8</ele>
        <time>2021-07-18T14:07:34Z</time>
      </trkpt>
      <trkpt lat="43.46002" lon="-1.48232">
        <ele>4.8</ele>
        <time>2021-07-18T14:07:35Z</time>
      </trkpt>
      <trkpt lat="43.45995" lon="-1.48242">
        <ele>4.7</ele>
        <time>2021-07-18T14:07:37Z</time>
      </trkpt>
      <trkpt lat="43.45988" lon="-1.48252">
        <ele>4.7</ele>
        <time>2021-07-18T14:07:39Z</time>
      </trkpt>
      <trkpt lat="43.45984" lon="-1.48258">
        <ele>4.7</ele>
        <time>2021-07-18T14:07:40Z</time>
      </trkpt>
      <trkpt lat="43.4598" lon="-1.48263">
        <ele>4.7</ele>
        <time>2021-07-18T14:07:41Z</time>
      </trkpt>
      <trkpt lat="43.45977" lon="-1.48268">
        <ele>4.7</ele>
        <time>2021-07-18T14:07:42Z</time>
      </trkpt>
      <trkpt lat="43.4597" lon="-1.4828">
        <ele>4.6</ele>
        <time>2021-07-18T14:07:44Z</time>
      </trkpt>
      <trkpt lat="43.45963" lon="-1.48291">
        <ele>4.7</ele>
        <time>2021-07-18T14:07:46Z</time>
      </trkpt>
      <trkpt lat="43.4596" lon="-1.48297">
        <ele>4.7</ele>
        <time>2021-07-18T14:07:47Z</time>
      </trkpt>
      <trkpt lat="43.45953" lon="-1.48309">
        <ele>4.7</ele>
        <time>2021-07-18T14:07:49Z</time>
      </trkpt>
      <trkpt lat="43.4595" lon="-1.48315">
        <ele>4.7</ele>
        <time>2021-07-18T14:07:50Z</time>
      </trkpt>
      <trkpt lat="43.45944" lon="-1.48328">
        <ele>4.7</ele>
        <time>2021-07-18T14:07:52Z</time>
      </trkpt>
      <trkpt lat="43.45941" lon="-1.48334">
        <ele>4.7</ele>
        <time>2021-07-18T14:07:53Z</time>
      </trkpt>
      <trkpt lat="43.45935" lon="-1.48347">
        <ele>4.7</ele>
        <time>2021-07-18T14:07:55Z</time>
      </trkpt>
      <trkpt lat="43.45932" lon="-1.48353">
        <ele>4.7</ele>
        <time>2021-07-18T14:07:56Z</time>
      </trkpt>
      <trkpt lat="43.45929" lon="-1.4836">
        <ele>4.7</ele>
        <time>2021-07-18T14:07:57Z</time>
      </trkpt>
      <trkpt lat="43.45923" lon="-1.48373">
        <ele>4.7</ele>
        <time>2021-07-18T14:07:59Z</time>
      </trkpt>
      <trkpt lat="43.45917" lon="-1.48386">
        <ele>4.8</ele>
        <time>2021-07-18T14:08:01Z</time>
      </trkpt>
      <trkpt lat="43.45915" lon="-1.48393">
        <ele>4.8</ele>
        <time>2021-07-18T14:08:02Z</time>
      </trkpt>
      <trkpt lat="43.45912" lon="-1.48399">
        <ele>4.9</ele>
        <time>2021-07-18T14:08:03Z</time>
      </trkpt>
      <trkpt lat="43.45907" lon="-1.48412">
        <ele>5</ele>
        <time>2021-07-18T14:08:05Z</time>
      </trkpt>
      <trkpt lat="43.45904" lon="-1.48418">
        <ele>5.1</ele>
        <time>2021-07-18T14:08:06Z</time>
      </trkpt>
      <trkpt lat="43.45902" lon="-1.48424">
        <ele>5.1</ele>
        <time>2021-07-18T14:08:07Z</time>
      </trkpt>
      <trkpt lat="43.459" lon="-1.48431">
        <ele>5.3</ele>
        <time>2021-07-18T14:08:08Z</time>
      </trkpt>
      <trkpt lat="43.45897" lon="-1.48443">
        <ele>5.5</ele>
        <time>2021-07-18T14:08:10Z</time>
      </trkpt>
      <trkpt lat="43.45896" lon="-1.48449">
        <ele>5.6</ele>
        <time>2021-07-18T14:08:11Z</time>
      </trkpt>
      <trkpt lat="43.45893" lon="-1.48459">
        <ele>5.8</ele>
        <time>2021-07-18T14:08:13Z</time>
      </trkpt>
      <trkpt lat="43.45891" lon="-1.48466">
        <ele>5.9</ele>
        <time>2021-07-18T14:08:14Z</time>
      </trkpt>
      <trkpt lat="43.4589" lon="-1.48471">
        <ele>6</ele>
        <time>2021-07-18T14:08:15Z</time>
      </trkpt>
      <trkpt lat="43.45887" lon="-1.48483">
        <ele>6.1</ele>
        <time>2021-07-18T14:08:17Z</time>
      </trkpt>
      <trkpt lat="43.45884" lon="-1.48496">
        <ele>6.2</ele>
        <time>2021-07-18T14:08:19Z</time>
      </trkpt>
      <trkpt lat="43.45882" lon="-1.48503">
        <ele>6.3</ele>
        <time>2021-07-18T14:08:20Z</time>
      </trkpt>
      <trkpt lat="43.45879" lon="-1.48515">
        <ele>6.3</ele>
        <time>2021-07-18T14:08:22Z</time>
      </trkpt>
      <trkpt lat="43.45876" lon="-1.48528">
        <ele>6.3</ele>
        <time>2021-07-18T14:08:24Z</time>
      </trkpt>
      <trkpt lat="43.45874" lon="-1.48534">
        <ele>6.3</ele>
        <time>2021-07-18T14:08:25Z</time>
      </trkpt>
      <trkpt lat="43.45873" lon="-1.4854">
        <ele>6.3</ele>
        <time>2021-07-18T14:08:26Z</time>
      </trkpt>
      <trkpt lat="43.45871" lon="-1.48547">
        <ele>6.3</ele>
        <time>2021-07-18T14:08:27Z</time>
      </trkpt>
      <trkpt lat="43.4587" lon="-1.48553">
        <ele>6.3</ele>
        <time>2021-07-18T14:08:28Z</time>
      </trkpt>
      <trkpt lat="43.45865" lon="-1.48566">
        <ele>6.2</ele>
        <time>2021-07-18T14:08:30Z</time>
      </trkpt>
      <trkpt lat="43.45861" lon="-1.4858">
        <ele>6.1</ele>
        <time>2021-07-18T14:08:32Z</time>
      </trkpt>
      <trkpt lat="43.45856" lon="-1.48594">
        <ele>6</ele>
        <time>2021-07-18T14:08:34Z</time>
      </trkpt>
      <trkpt lat="43.45853" lon="-1.486">
        <ele>5.9</ele>
        <time>2021-07-18T14:08:35Z</time>
      </trkpt>
      <trkpt lat="43.45849" lon="-1.48607">
        <ele>5.9</ele>
        <time>2021-07-18T14:08:36Z</time>
      </trkpt>
      <trkpt lat="43.45842" lon="-1.48619">
        <ele>5.8</ele>
        <time>2021-07-18T14:08:38Z</time>
      </trkpt>
      <trkpt lat="43.45838" lon="-1.48625">
        <ele>5.7</ele>
        <time>2021-07-18T14:08:39Z</time>
      </trkpt>
      <trkpt lat="43.4583" lon="-1.48636">
        <ele>5.5</ele>
        <time>2021-07-18T14:08:41Z</time>
      </trkpt>
      <trkpt lat="43.4582" lon="-1.48645">
        <ele>5.4</ele>
        <time>2021-07-18T14:08:43Z</time>
      </trkpt>
      <trkpt lat="43.4581" lon="-1.48654">
        <ele>5.3</ele>
        <time>2021-07-18T14:08:45Z</time>
      </trkpt>
      <trkpt lat="43.45804" lon="-1.48657">
        <ele>5.3</ele>
        <time>2021-07-18T14:08:46Z</time>
      </trkpt>
      <trkpt lat="43.45792" lon="-1.4866">
        <ele>5.1</ele>
        <time>2021-07-18T14:08:48Z</time>
      </trkpt>
      <trkpt lat="43.45786" lon="-1.48659">
        <ele>5</ele>
        <time>2021-07-18T14:08:49Z</time>
      </trkpt>
      <trkpt lat="43.45773" lon="-1.48657">
        <ele>4.9</ele>
        <time>2021-07-18T14:08:51Z</time>
      </trkpt>
      <trkpt lat="43.45767" lon="-1.48656">
        <ele>4.9</ele>
        <time>2021-07-18T14:08:52Z</time>
      </trkpt>
      <trkpt lat="43.45756" lon="-1.48652">
        <ele>4.8</ele>
        <time>2021-07-18T14:08:54Z</time>
      </trkpt>
      <trkpt lat="43.4575" lon="-1.48649">
        <ele>4.8</ele>
        <time>2021-07-18T14:08:55Z</time>
      </trkpt>
      <trkpt lat="43.45744" lon="-1.48646">
        <ele>4.8</ele>
        <time>2021-07-18T14:08:56Z</time>
      </trkpt>
      <trkpt lat="43.45739" lon="-1.48643">
        <ele>4.8</ele>
        <time>2021-07-18T14:08:57Z</time>
      </trkpt>
      <trkpt lat="43.45728" lon="-1.48637">
        <ele>4.7</ele>
        <time>2021-07-18T14:08:59Z</time>
      </trkpt>
      <trkpt lat="43.45723" lon="-1.48633">
        <ele>4.7</ele>
        <time>2021-07-18T14:09:00Z</time>
      </trkpt>
      <trkpt lat="43.45718" lon="-1.4863">
        <ele>4.7</ele>
        <time>2021-07-18T14:09:01Z</time>
      </trkpt>
      <trkpt lat="43.45708" lon="-1.48621">
        <ele>4.7</ele>
        <time>2021-07-18T14:09:03Z</time>
      </trkpt>
      <trkpt lat="43.45698" lon="-1.48613">
        <ele>4.7</ele>
        <time>2021-07-18T14:09:05Z</time>
      </trkpt>
      <trkpt lat="43.45689" lon="-1.48604">
        <ele>4.7</ele>
        <time>2021-07-18T14:09:07Z</time>
      </trkpt>
      <trkpt lat="43.45684" lon="-1.486">
        <ele>4.7</ele>
        <time>2021-07-18T14:09:08Z</time>
      </trkpt>
      <trkpt lat="43.45676" lon="-1.4859">
        <ele>4.7</ele>
        <time>2021-07-18T14:09:10Z</time>
      </trkpt>
      <trkpt lat="43.45671" lon="-1.48586">
        <ele>4.7</ele>
        <time>2021-07-18T14:09:11Z</time>
      </trkpt>
      <trkpt lat="43.45663" lon="-1.48576">
        <ele>4.6</ele>
        <time>2021-07-18T14:09:13Z</time>
      </trkpt>
      <trkpt lat="43.45659" lon="-1.4857">
        <ele>4.6</ele>
        <time>2021-07-18T14:09:14Z</time>
      </trkpt>
      <trkpt lat="43.4565" lon="-1.48561">
        <ele>4.5</ele>
        <time>2021-07-18T14:09:16Z</time>
      </trkpt>
      <trkpt lat="43.45645" lon="-1.48556">
        <ele>4.5</ele>
        <time>2021-07-18T14:09:17Z</time>
      </trkpt>
      <trkpt lat="43.45641" lon="-1.48551">
        <ele>4.5</ele>
        <time>2021-07-18T14:09:18Z</time>
      </trkpt>
      <trkpt lat="43.45633" lon="-1.4854">
        <ele>4.5</ele>
        <time>2021-07-18T14:09:20Z</time>
      </trkpt>
      <trkpt lat="43.45626" lon="-1.4853">
        <ele>4.5</ele>
        <time>2021-07-18T14:09:22Z</time>
      </trkpt>
      <trkpt lat="43.45622" lon="-1.48524">
        <ele>4.5</ele>
        <time>2021-07-18T14:09:23Z</time>
      </trkpt>
      <trkpt lat="43.45614" lon="-1.48514">
        <ele>4.5</ele>
        <time>2021-07-18T14:09:25Z</time>
      </trkpt>
      <trkpt lat="43.4561" lon="-1.48508">
        <ele>4.5</ele>
        <time>2021-07-18T14:09:26Z</time>
      </trkpt>
      <trkpt lat="43.45602" lon="-1.48498">
        <ele>4.6</ele>
        <time>2021-07-18T14:09:28Z</time>
      </trkpt>
      <trkpt lat="43.45598" lon="-1.48493">
        <ele>4.7</ele>
        <time>2021-07-18T14:09:29Z</time>
      </trkpt>
      <trkpt lat="43.45591" lon="-1.48482">
        <ele>4.8</ele>
        <time>2021-07-18T14:09:31Z</time>
      </trkpt>
      <trkpt lat="43.45585" lon="-1.48472">
        <ele>4.9</ele>
        <time>2021-07-18T14:09:33Z</time>
      </trkpt>
      <trkpt lat="43.45583" lon="-1.48469">
        <ele>4.9</ele>
        <time>2021-07-18T14:09:34Z</time>
      </trkpt>
      <trkpt lat="43.45577" lon="-1.48459">
        <ele>4.9</ele>
        <time>2021-07-18T14:09:36Z</time>
      </trkpt>
      <trkpt lat="43.45574" lon="-1.48453">
        <ele>4.9</ele>
        <time>2021-07-18T14:09:37Z</time>
      </trkpt>
      <trkpt lat="43.45568" lon="-1.48439">
        <ele>4.8</ele>
        <time>2021-07-18T14:09:39Z</time>
      </trkpt>
      <trkpt lat="43.45565" lon="-1.48432">
        <ele>4.8</ele>
        <time>2021-07-18T14:09:40Z</time>
      </trkpt>
      <trkpt lat="43.45557" lon="-1.48421">
        <ele>4.8</ele>
        <time>2021-07-18T14:09:42Z</time>
      </trkpt>
      <trkpt lat="43.4555" lon="-1.48409">
        <ele>4.8</ele>
        <time>2021-07-18T14:09:44Z</time>
      </trkpt>
      <trkpt lat="43.45542" lon="-1.48398">
        <ele>4.8</ele>
        <time>2021-07-18T14:09:46Z</time>
      </trkpt>
      <trkpt lat="43.45535" lon="-1.48387">
        <ele>4.8</ele>
        <time>2021-07-18T14:09:48Z</time>
      </trkpt>
      <trkpt lat="43.45527" lon="-1.48376">
        <ele>4.8</ele>
        <time>2021-07-18T14:09:50Z</time>
      </trkpt>
      <trkpt lat="43.45519" lon="-1.48366">
        <ele>4.8</ele>
        <time>2021-07-18T14:09:52Z</time>
      </trkpt>
      <trkpt lat="43.45512" lon="-1.48356">
        <ele>4.9</ele>
        <time>2021-07-18T14:09:54Z</time>
      </trkpt>
      <trkpt lat="43.45507" lon="-1.48351">
        <ele>4.9</ele>
        <time>2021-07-18T14:09:55Z</time>
      </trkpt>
      <trkpt lat="43.45502" lon="-1.48347">
        <ele>4.9</ele>
        <time>2021-07-18T14:09:56Z</time>
      </trkpt>
      <trkpt lat="43.45498" lon="-1.48343">
        <ele>4.9</ele>
        <time>2021-07-18T14:09:57Z</time>
      </trkpt>
      <trkpt lat="43.4549" lon="-1.48333">
        <ele>4.9</ele>
        <time>2021-07-18T14:09:59Z</time>
      </trkpt>
      <trkpt lat="43.45486" lon="-1.48329">
        <ele>5</ele>
        <time>2021-07-18T14:10:00Z</time>
      </trkpt>
      <trkpt lat="43.45481" lon="-1.48324">
        <ele>5</ele>
        <time>2021-07-18T14:10:01Z</time>
      </trkpt>
      <trkpt lat="43.45472" lon="-1.48316">
        <ele>5</ele>
        <time>2021-07-18T14:10:03Z</time>
      </trkpt>
      <trkpt lat="43.45468" lon="-1.48312">
        <ele>5</ele>
        <time>2021-07-18T14:10:04Z</time>
      </trkpt>
      <trkpt lat="43.45458" lon="-1.48304">
        <ele>5</ele>
        <time>2021-07-18T14:10:06Z</time>
      </trkpt>
      <trkpt lat="43.45449" lon="-1.48296">
        <ele>5</ele>
        <time>2021-07-18T14:10:08Z</time>
      </trkpt>
      <trkpt lat="43.45444" lon="-1.48292">
        <ele>5</ele>
        <time>2021-07-18T14:10:09Z</time>
      </trkpt>
      <trkpt lat="43.45433" lon="-1.48285">
        <ele>5</ele>
        <time>2021-07-18T14:10:11Z</time>
      </trkpt>
      <trkpt lat="43.45428" lon="-1.4828">
        <ele>5.1</ele>
        <time>2021-07-18T14:10:12Z</time>
      </trkpt>
      <trkpt lat="43.45423" lon="-1.48276">
        <ele>5.1</ele>
        <time>2021-07-18T14:10:13Z</time>
      </trkpt>
      <trkpt lat="43.45418" lon="-1.48272">
        <ele>5.1</ele>
        <time>2021-07-18T14:10:14Z</time>
      </trkpt>
      <trkpt lat="43.45409" lon="-1.48263">
        <ele>5.1</ele>
        <time>2021-07-18T14:10:16Z</time>
      </trkpt>
      <trkpt lat="43.45404" lon="-1.48258">
        <ele>5.1</ele>
        <time>2021-07-18T14:10:17Z</time>
      </trkpt>
      <trkpt lat="43.45396" lon="-1.48248">
        <ele>5.1</ele>
        <time>2021-07-18T14:10:19Z</time>
      </trkpt>
      <trkpt lat="43.45388" lon="-1.48239">
        <ele>5.1</ele>
        <time>2021-07-18T14:10:21Z</time>
      </trkpt>
      <trkpt lat="43.45384" lon="-1.48233">
        <ele>5.1</ele>
        <time>2021-07-18T14:10:22Z</time>
      </trkpt>
      <trkpt lat="43.4538" lon="-1.48227">
        <ele>5.1</ele>
        <time>2021-07-18T14:10:23Z</time>
      </trkpt>
      <trkpt lat="43.45374" lon="-1.48214">
        <ele>5.1</ele>
        <time>2021-07-18T14:10:25Z</time>
      </trkpt>
      <trkpt lat="43.4537" lon="-1.48207">
        <ele>5.1</ele>
        <time>2021-07-18T14:10:26Z</time>
      </trkpt>
      <trkpt lat="43.45363" lon="-1.48195">
        <ele>5.1</ele>
        <time>2021-07-18T14:10:28Z</time>
      </trkpt>
      <trkpt lat="43.4536" lon="-1.48188">
        <ele>5.1</ele>
        <time>2021-07-18T14:10:29Z</time>
      </trkpt>
      <trkpt lat="43.45357" lon="-1.48181">
        <ele>5.1</ele>
        <time>2021-07-18T14:10:30Z</time>
      </trkpt>
      <trkpt lat="43.45354" lon="-1.48174">
        <ele>5.1</ele>
        <time>2021-07-18T14:10:31Z</time>
      </trkpt>
      <trkpt lat="43.45347" lon="-1.48162">
        <ele>5</ele>
        <time>2021-07-18T14:10:33Z</time>
      </trkpt>
      <trkpt lat="43.45343" lon="-1.48156">
        <ele>5</ele>
        <time>2021-07-18T14:10:34Z</time>
      </trkpt>
      <trkpt lat="43.45335" lon="-1.48144">
        <ele>5</ele>
        <time>2021-07-18T14:10:36Z</time>
      </trkpt>
      <trkpt lat="43.4533" lon="-1.48129">
        <ele>4.9</ele>
        <time>2021-07-18T14:10:38Z</time>
      </trkpt>
      <trkpt lat="43.45327" lon="-1.48122">
        <ele>4.9</ele>
        <time>2021-07-18T14:10:39Z</time>
      </trkpt>
      <trkpt lat="43.45322" lon="-1.48107">
        <ele>4.8</ele>
        <time>2021-07-18T14:10:41Z</time>
      </trkpt>
      <trkpt lat="43.45319" lon="-1.481">
        <ele>4.9</ele>
        <time>2021-07-18T14:10:42Z</time>
      </trkpt>
      <trkpt lat="43.45313" lon="-1.48087">
        <ele>5</ele>
        <time>2021-07-18T14:10:44Z</time>
      </trkpt>
      <trkpt lat="43.45307" lon="-1.48075">
        <ele>4.9</ele>
        <time>2021-07-18T14:10:46Z</time>
      </trkpt>
      <trkpt lat="43.45302" lon="-1.48062">
        <ele>4.9</ele>
        <time>2021-07-18T14:10:48Z</time>
      </trkpt>
      <trkpt lat="43.45299" lon="-1.48048">
        <ele>4.9</ele>
        <time>2021-07-18T14:10:50Z</time>
      </trkpt>
      <trkpt lat="43.45297" lon="-1.4804">
        <ele>4.9</ele>
        <time>2021-07-18T14:10:51Z</time>
      </trkpt>
      <trkpt lat="43.45295" lon="-1.48025">
        <ele>4.9</ele>
        <time>2021-07-18T14:10:53Z</time>
      </trkpt>
      <trkpt lat="43.45294" lon="-1.48017">
        <ele>4.9</ele>
        <time>2021-07-18T14:10:54Z</time>
      </trkpt>
      <trkpt lat="43.45293" lon="-1.4801">
        <ele>4.9</ele>
        <time>2021-07-18T14:10:55Z</time>
      </trkpt>
      <trkpt lat="43.45293" lon="-1.48002">
        <ele>4.9</ele>
        <time>2021-07-18T14:10:56Z</time>
      </trkpt>
      <trkpt lat="43.45292" lon="-1.47986">
        <ele>5</ele>
        <time>2021-07-18T14:10:58Z</time>
      </trkpt>
      <trkpt lat="43.45291" lon="-1.47979">
        <ele>5</ele>
        <time>2021-07-18T14:10:59Z</time>
      </trkpt>
      <trkpt lat="43.45291" lon="-1.47971">
        <ele>4.9</ele>
        <time>2021-07-18T14:11:00Z</time>
      </trkpt>
      <trkpt lat="43.45291" lon="-1.47955">
        <ele>4.9</ele>
        <time>2021-07-18T14:11:02Z</time>
      </trkpt>
      <trkpt lat="43.45291" lon="-1.47938">
        <ele>4.8</ele>
        <time>2021-07-18T14:11:04Z</time>
      </trkpt>
      <trkpt lat="43.45292" lon="-1.47921">
        <ele>4.7</ele>
        <time>2021-07-18T14:11:06Z</time>
      </trkpt>
      <trkpt lat="43.45293" lon="-1.47913">
        <ele>4.7</ele>
        <time>2021-07-18T14:11:07Z</time>
      </trkpt>
      <trkpt lat="43.45296" lon="-1.47897">
        <ele>4.7</ele>
        <time>2021-07-18T14:11:09Z</time>
      </trkpt>
      <trkpt lat="43.45301" lon="-1.47882">
        <ele>4.7</ele>
        <time>2021-07-18T14:11:11Z</time>
      </trkpt>
      <trkpt lat="43.45304" lon="-1.47866">
        <ele>4.7</ele>
        <time>2021-07-18T14:11:13Z</time>
      </trkpt>
      <trkpt lat="43.45308" lon="-1.47852">
        <ele>4.7</ele>
        <time>2021-07-18T14:11:15Z</time>
      </trkpt>
      <trkpt lat="43.4531" lon="-1.47845">
        <ele>4.7</ele>
        <time>2021-07-18T14:11:16Z</time>
      </trkpt>
      <trkpt lat="43.45314" lon="-1.4783">
        <ele>4.7</ele>
        <time>2021-07-18T14:11:18Z</time>
      </trkpt>
      <trkpt lat="43.45317" lon="-1.47815">
        <ele>4.8</ele>
        <time>2021-07-18T14:11:20Z</time>
      </trkpt>
      <trkpt lat="43.45321" lon="-1.47801">
        <ele>4.8</ele>
        <time>2021-07-18T14:11:22Z</time>
      </trkpt>
      <trkpt lat="43.45324" lon="-1.47786">
        <ele>4.8</ele>
        <time>2021-07-18T14:11:24Z</time>
      </trkpt>
      <trkpt lat="43.45325" lon="-1.47779">
        <ele>4.8</ele>
        <time>2021-07-18T14:11:25Z</time>
      </trkpt>
      <trkpt lat="43.45325" lon="-1.47763">
        <ele>4.8</ele>
        <time>2021-07-18T14:11:27Z</time>
      </trkpt>
      <trkpt lat="43.45324" lon="-1.47747">
        <ele>4.9</ele>
        <time>2021-07-18T14:11:29Z</time>
      </trkpt>
      <trkpt lat="43.4532" lon="-1.47734">
        <ele>5</ele>
        <time>2021-07-18T14:11:31Z</time>
      </trkpt>
      <trkpt lat="43.45317" lon="-1.47728">
        <ele>5</ele>
        <time>2021-07-18T14:11:32Z</time>
      </trkpt>
      <trkpt lat="43.4531" lon="-1.47716">
        <ele>5.1</ele>
        <time>2021-07-18T14:11:34Z</time>
      </trkpt>
      <trkpt lat="43.45303" lon="-1.47706">
        <ele>5.1</ele>
        <time>2021-07-18T14:11:36Z</time>
      </trkpt>
      <trkpt lat="43.45294" lon="-1.47696">
        <ele>5.1</ele>
        <time>2021-07-18T14:11:38Z</time>
      </trkpt>
      <trkpt lat="43.45289" lon="-1.47692">
        <ele>5.1</ele>
        <time>2021-07-18T14:11:39Z</time>
      </trkpt>
      <trkpt lat="43.4528" lon="-1.47684">
        <ele>5.1</ele>
        <time>2021-07-18T14:11:41Z</time>
      </trkpt>
      <trkpt lat="43.45275" lon="-1.4768">
        <ele>5.1</ele>
        <time>2021-07-18T14:11:42Z</time>
      </trkpt>
      <trkpt lat="43.45265" lon="-1.47674">
        <ele>5.1</ele>
        <time>2021-07-18T14:11:44Z</time>
      </trkpt>
      <trkpt lat="43.4526" lon="-1.47671">
        <ele>5.1</ele>
        <time>2021-07-18T14:11:45Z</time>
      </trkpt>
      <trkpt lat="43.4525" lon="-1.47664">
        <ele>5.1</ele>
        <time>2021-07-18T14:11:47Z</time>
      </trkpt>
      <trkpt lat="43.45246" lon="-1.47661">
        <ele>5.1</ele>
        <time>2021-07-18T14:11:48Z</time>
      </trkpt>
      <trkpt lat="43.45241" lon="-1.47658">
        <ele>5</ele>
        <time>2021-07-18T14:11:49Z</time>
      </trkpt>
      <trkpt lat="43.4523" lon="-1.47651">
        <ele>5</ele>
        <time>2021-07-18T14:11:51Z</time>
      </trkpt>
      <trkpt lat="43.45225" lon="-1.47648">
        <ele>5</ele>
        <time>2021-07-18T14:11:52Z</time>
      </trkpt>
      <trkpt lat="43.45215" lon="-1.47645">
        <ele>5</ele>
        <time>2021-07-18T14:11:54Z</time>
      </trkpt>
      <trkpt lat="43.45209" lon="-1.47643">
        <ele>5</ele>
        <time>2021-07-18T14:11:55Z</time>
      </trkpt>
      <trkpt lat="43.45204" lon="-1.47641">
        <ele>4.9</ele>
        <time>2021-07-18T14:11:56Z</time>
      </trkpt>
      <trkpt lat="43.45193" lon="-1.47639">
        <ele>4.9</ele>
        <time>2021-07-18T14:11:58Z</time>
      </trkpt>
      <trkpt lat="43.45183" lon="-1.47637">
        <ele>4.9</ele>
        <time>2021-07-18T14:12:00Z</time>
      </trkpt>
      <trkpt lat="43.45177" lon="-1.47635">
        <ele>4.9</ele>
        <time>2021-07-18T14:12:01Z</time>
      </trkpt>
      <trkpt lat="43.45172" lon="-1.47634">
        <ele>4.9</ele>
        <time>2021-07-18T14:12:02Z</time>
      </trkpt>
      <trkpt lat="43.45166" lon="-1.47631">
        <ele>4.9</ele>
        <time>2021-07-18T14:12:03Z</time>
      </trkpt>
      <trkpt lat="43.45161" lon="-1.47629">
        <ele>4.9</ele>
        <time>2021-07-18T14:12:04Z</time>
      </trkpt>
      <trkpt lat="43.45156" lon="-1.47626">
        <ele>4.9</ele>
        <time>2021-07-18T14:12:05Z</time>
      </trkpt>
      <trkpt lat="43.45146" lon="-1.4762">
        <ele>4.8</ele>
        <time>2021-07-18T14:12:07Z</time>
      </trkpt>
      <trkpt lat="43.45136" lon="-1.47615">
        <ele>4.8</ele>
        <time>2021-07-18T14:12:09Z</time>
      </trkpt>
      <trkpt lat="43.4513" lon="-1.47613">
        <ele>4.8</ele>
        <time>2021-07-18T14:12:10Z</time>
      </trkpt>
      <trkpt lat="43.45125" lon="-1.47612">
        <ele>4.8</ele>
        <time>2021-07-18T14:12:11Z</time>
      </trkpt>
      <trkpt lat="43.45115" lon="-1.4761">
        <ele>4.9</ele>
        <time>2021-07-18T14:12:13Z</time>
      </trkpt>
      <trkpt lat="43.45103" lon="-1.4761">
        <ele>4.9</ele>
        <time>2021-07-18T14:12:15Z</time>
      </trkpt>
      <trkpt lat="43.45098" lon="-1.47609">
        <ele>4.9</ele>
        <time>2021-07-18T14:12:16Z</time>
      </trkpt>
      <trkpt lat="43.45093" lon="-1.47608">
        <ele>4.8</ele>
        <time>2021-07-18T14:12:17Z</time>
      </trkpt>
      <trkpt lat="43.45083" lon="-1.47603">
        <ele>4.8</ele>
        <time>2021-07-18T14:12:19Z</time>
      </trkpt>
      <trkpt lat="43.45074" lon="-1.47599">
        <ele>4.8</ele>
        <time>2021-07-18T14:12:21Z</time>
      </trkpt>
      <trkpt lat="43.45064" lon="-1.47595">
        <ele>4.8</ele>
        <time>2021-07-18T14:12:23Z</time>
      </trkpt>
      <trkpt lat="43.4506" lon="-1.47593">
        <ele>4.8</ele>
        <time>2021-07-18T14:12:24Z</time>
      </trkpt>
      <trkpt lat="43.45055" lon="-1.4759">
        <ele>4.9</ele>
        <time>2021-07-18T14:12:25Z</time>
      </trkpt>
      <trkpt lat="43.4505" lon="-1.47587">
        <ele>4.9</ele>
        <time>2021-07-18T14:12:26Z</time>
      </trkpt>
      <trkpt lat="43.45041" lon="-1.47583">
        <ele>5</ele>
        <time>2021-07-18T14:12:28Z</time>
      </trkpt>
      <trkpt lat="43.45031" lon="-1.47578">
        <ele>5</ele>
        <time>2021-07-18T14:12:30Z</time>
      </trkpt>
      <trkpt lat="43.45022" lon="-1.47573">
        <ele>5</ele>
        <time>2021-07-18T14:12:32Z</time>
      </trkpt>
      <trkpt lat="43.45017" lon="-1.47571">
        <ele>5</ele>
        <time>2021-07-18T14:12:33Z</time>
      </trkpt>
      <trkpt lat="43.45013" lon="-1.47569">
        <ele>5.1</ele>
        <time>2021-07-18T14:12:34Z</time>
      </trkpt>
      <trkpt lat="43.45003" lon="-1.47564">
        <ele>5.1</ele>
        <time>2021-07-18T14:12:36Z</time>
      </trkpt>
      <trkpt lat="43.44994" lon="-1.47559">
        <ele>5.1</ele>
        <time>2021-07-18T14:12:38Z</time>
      </trkpt>
      <trkpt lat="43.44989" lon="-1.47556">
        <ele>5.1</ele>
        <time>2021-07-18T14:12:39Z</time>
      </trkpt>
      <trkpt lat="43.44979" lon="-1.4755">
        <ele>5.1</ele>
        <time>2021-07-18T14:12:41Z</time>
      </trkpt>
      <trkpt lat="43.44969" lon="-1.47545">
        <ele>5.1</ele>
        <time>2021-07-18T14:12:43Z</time>
      </trkpt>
      <trkpt lat="43.44959" lon="-1.47537">
        <ele>5.1</ele>
        <time>2021-07-18T14:12:45Z</time>
      </trkpt>
      <trkpt lat="43.44951" lon="-1.47528">
        <ele>5.1</ele>
        <time>2021-07-18T14:12:47Z</time>
      </trkpt>
      <trkpt lat="43.44942" lon="-1.47519">
        <ele>5.1</ele>
        <time>2021-07-18T14:12:49Z</time>
      </trkpt>
      <trkpt lat="43.44937" lon="-1.47515">
        <ele>5.1</ele>
        <time>2021-07-18T14:12:50Z</time>
      </trkpt>
      <trkpt lat="43.44928" lon="-1.47506">
        <ele>5.1</ele>
        <time>2021-07-18T14:12:52Z</time>
      </trkpt>
      <trkpt lat="43.44923" lon="-1.47501">
        <ele>5.2</ele>
        <time>2021-07-18T14:12:53Z</time>
      </trkpt>
      <trkpt lat="43.44919" lon="-1.47496">
        <ele>5.2</ele>
        <time>2021-07-18T14:12:54Z</time>
      </trkpt>
      <trkpt lat="43.4491" lon="-1.47485">
        <ele>5.2</ele>
        <time>2021-07-18T14:12:56Z</time>
      </trkpt>
      <trkpt lat="43.44902" lon="-1.47474">
        <ele>5.1</ele>
        <time>2021-07-18T14:12:58Z</time>
      </trkpt>
      <trkpt lat="43.44897" lon="-1.47469">
        <ele>5.1</ele>
        <time>2021-07-18T14:12:59Z</time>
      </trkpt>
      <trkpt lat="43.44889" lon="-1.47456">
        <ele>5.1</ele>
        <time>2021-07-18T14:13:01Z</time>
      </trkpt>
      <trkpt lat="43.44885" lon="-1.47451">
        <ele>5.1</ele>
        <time>2021-07-18T14:13:02Z</time>
      </trkpt>
      <trkpt lat="43.44881" lon="-1.47445">
        <ele>5.1</ele>
        <time>2021-07-18T14:13:03Z</time>
      </trkpt>
      <trkpt lat="43.44873" lon="-1.47432">
        <ele>5.1</ele>
        <time>2021-07-18T14:13:05Z</time>
      </trkpt>
      <trkpt lat="43.44869" lon="-1.47426">
        <ele>5</ele>
        <time>2021-07-18T14:13:06Z</time>
      </trkpt>
      <trkpt lat="43.44861" lon="-1.47414">
        <ele>5</ele>
        <time>2021-07-18T14:13:08Z</time>
      </trkpt>
      <trkpt lat="43.44854" lon="-1.47401">
        <ele>4.9</ele>
        <time>2021-07-18T14:13:10Z</time>
      </trkpt>
      <trkpt lat="43.44845" lon="-1.47389">
        <ele>4.9</ele>
        <time>2021-07-18T14:13:12Z</time>
      </trkpt>
      <trkpt lat="43.44841" lon="-1.47384">
        <ele>4.9</ele>
        <time>2021-07-18T14:13:13Z</time>
      </trkpt>
      <trkpt lat="43.44831" lon="-1.47375">
        <ele>4.9</ele>
        <time>2021-07-18T14:13:15Z</time>
      </trkpt>
      <trkpt lat="43.44819" lon="-1.47371">
        <ele>4.9</ele>
        <time>2021-07-18T14:13:17Z</time>
      </trkpt>
      <trkpt lat="43.44807" lon="-1.4737">
        <ele>4.9</ele>
        <time>2021-07-18T14:13:19Z</time>
      </trkpt>
      <trkpt lat="43.44801" lon="-1.47371">
        <ele>4.9</ele>
        <time>2021-07-18T14:13:20Z</time>
      </trkpt>
      <trkpt lat="43.4479" lon="-1.47373">
        <ele>4.9</ele>
        <time>2021-07-18T14:13:22Z</time>
      </trkpt>
      <trkpt lat="43.44779" lon="-1.47377">
        <ele>5</ele>
        <time>2021-07-18T14:13:24Z</time>
      </trkpt>
      <trkpt lat="43.44774" lon="-1.47379">
        <ele>5</ele>
        <time>2021-07-18T14:13:25Z</time>
      </trkpt>
      <trkpt lat="43.44768" lon="-1.47381">
        <ele>5</ele>
        <time>2021-07-18T14:13:26Z</time>
      </trkpt>
      <trkpt lat="43.44758" lon="-1.47387">
        <ele>5</ele>
        <time>2021-07-18T14:13:28Z</time>
      </trkpt>
      <trkpt lat="43.44753" lon="-1.4739">
        <ele>5</ele>
        <time>2021-07-18T14:13:29Z</time>
      </trkpt>
      <trkpt lat="43.44744" lon="-1.47398">
        <ele>5</ele>
        <time>2021-07-18T14:13:31Z</time>
      </trkpt>
      <trkpt lat="43.44739" lon="-1.47402">
        <ele>5</ele>
        <time>2021-07-18T14:13:32Z</time>
      </trkpt>
      <trkpt lat="43.4473" lon="-1.47409">
        <ele>5</ele>
        <time>2021-07-18T14:13:34Z</time>
      </trkpt>
      <trkpt lat="43.44721" lon="-1.47417">
        <ele>5</ele>
        <time>2021-07-18T14:13:36Z</time>
      </trkpt>
      <trkpt lat="43.44711" lon="-1.47424">
        <ele>4.9</ele>
        <time>2021-07-18T14:13:38Z</time>
      </trkpt>
      <trkpt lat="43.44706" lon="-1.47427">
        <ele>4.9</ele>
        <time>2021-07-18T14:13:39Z</time>
      </trkpt>
      <trkpt lat="43.44701" lon="-1.47431">
        <ele>4.9</ele>
        <time>2021-07-18T14:13:40Z</time>
      </trkpt>
      <trkpt lat="43.44692" lon="-1.47438">
        <ele>4.8</ele>
        <time>2021-07-18T14:13:42Z</time>
      </trkpt>
      <trkpt lat="43.44682" lon="-1.47446">
        <ele>4.8</ele>
        <time>2021-07-18T14:13:44Z</time>
      </trkpt>
      <trkpt lat="43.44677" lon="-1.47449">
        <ele>4.8</ele>
        <time>2021-07-18T14:13:45Z</time>
      </trkpt>
      <trkpt lat="43.44668" lon="-1.47456">
        <ele>4.8</ele>
        <time>2021-07-18T14:13:47Z</time>
      </trkpt>
      <trkpt lat="43.44658" lon="-1.47462">
        <ele>4.7</ele>
        <time>2021-07-18T14:13:49Z</time>
      </trkpt>
      <trkpt lat="43.44648" lon="-1.47468">
        <ele>4.7</ele>
        <time>2021-07-18T14:13:51Z</time>
      </trkpt>
      <trkpt lat="43.44643" lon="-1.47471">
        <ele>4.8</ele>
        <time>2021-07-18T14:13:52Z</time>
      </trkpt>
      <trkpt lat="43.44633" lon="-1.47476">
        <ele>4.8</ele>
        <time>2021-07-18T14:13:54Z</time>
      </trkpt>
      <trkpt lat="43.44622" lon="-1.47482">
        <ele>4.8</ele>
        <time>2021-07-18T14:13:56Z</time>
      </trkpt>
      <trkpt lat="43.44617" lon="-1.47485">
        <ele>4.7</ele>
        <time>2021-07-18T14:13:57Z</time>
      </trkpt>
      <trkpt lat="43.44607" lon="-1.47491">
        <ele>4.7</ele>
        <time>2021-07-18T14:13:59Z</time>
      </trkpt>
      <trkpt lat="43.44602" lon="-1.47495">
        <ele>4.7</ele>
        <time>2021-07-18T14:14:00Z</time>
      </trkpt>
      <trkpt lat="43.44592" lon="-1.47501">
        <ele>4.7</ele>
        <time>2021-07-18T14:14:02Z</time>
      </trkpt>
      <trkpt lat="43.44582" lon="-1.47507">
        <ele>4.8</ele>
        <time>2021-07-18T14:14:04Z</time>
      </trkpt>
      <trkpt lat="43.44577" lon="-1.4751">
        <ele>4.8</ele>
        <time>2021-07-18T14:14:05Z</time>
      </trkpt>
      <trkpt lat="43.44572" lon="-1.47513">
        <ele>4.8</ele>
        <time>2021-07-18T14:14:06Z</time>
      </trkpt>
      <trkpt lat="43.44567" lon="-1.47516">
        <ele>4.9</ele>
        <time>2021-07-18T14:14:07Z</time>
      </trkpt>
      <trkpt lat="43.44556" lon="-1.4752">
        <ele>4.9</ele>
        <time>2021-07-18T14:14:09Z</time>
      </trkpt>
      <trkpt lat="43.44551" lon="-1.47522">
        <ele>4.9</ele>
        <time>2021-07-18T14:14:10Z</time>
      </trkpt>
      <trkpt lat="43.44541" lon="-1.47527">
        <ele>4.9</ele>
        <time>2021-07-18T14:14:12Z</time>
      </trkpt>
      <trkpt lat="43.44531" lon="-1.4753">
        <ele>5</ele>
        <time>2021-07-18T14:14:14Z</time>
      </trkpt>
      <trkpt lat="43.44525" lon="-1.47532">
        <ele>5</ele>
        <time>2021-07-18T14:14:15Z</time>
      </trkpt>
      <trkpt lat="43.4452" lon="-1.47533">
        <ele>5</ele>
        <time>2021-07-18T14:14:16Z</time>
      </trkpt>
      <trkpt lat="43.44515" lon="-1.47535">
        <ele>5</ele>
        <time>2021-07-18T14:14:17Z</time>
      </trkpt>
      <trkpt lat="43.44509" lon="-1.47536">
        <ele>4.9</ele>
        <time>2021-07-18T14:14:18Z</time>
      </trkpt>
      <trkpt lat="43.44499" lon="-1.4754">
        <ele>4.9</ele>
        <time>2021-07-18T14:14:20Z</time>
      </trkpt>
      <trkpt lat="43.44493" lon="-1.47542">
        <ele>4.9</ele>
        <time>2021-07-18T14:14:21Z</time>
      </trkpt>
      <trkpt lat="43.44482" lon="-1.47544">
        <ele>4.9</ele>
        <time>2021-07-18T14:14:23Z</time>
      </trkpt>
      <trkpt lat="43.44477" lon="-1.47545">
        <ele>4.9</ele>
        <time>2021-07-18T14:14:24Z</time>
      </trkpt>
      <trkpt lat="43.44466" lon="-1.47548">
        <ele>4.8</ele>
        <time>2021-07-18T14:14:26Z</time>
      </trkpt>
      <trkpt lat="43.4446" lon="-1.47549">
        <ele>4.8</ele>
        <time>2021-07-18T14:14:27Z</time>
      </trkpt>
      <trkpt lat="43.44449" lon="-1.47551">
        <ele>4.8</ele>
        <time>2021-07-18T14:14:29Z</time>
      </trkpt>
      <trkpt lat="43.44444" lon="-1.47552">
        <ele>4.8</ele>
        <time>2021-07-18T14:14:30Z</time>
      </trkpt>
      <trkpt lat="43.44433" lon="-1.47553">
        <ele>4.8</ele>
        <time>2021-07-18T14:14:32Z</time>
      </trkpt>
      <trkpt lat="43.44428" lon="-1.47553">
        <ele>4.9</ele>
        <time>2021-07-18T14:14:33Z</time>
      </trkpt>
      <trkpt lat="43.44417" lon="-1.47554">
        <ele>4.9</ele>
        <time>2021-07-18T14:14:35Z</time>
      </trkpt>
      <trkpt lat="43.44407" lon="-1.47555">
        <ele>4.9</ele>
        <time>2021-07-18T14:14:37Z</time>
      </trkpt>
      <trkpt lat="43.44401" lon="-1.47556">
        <ele>4.8</ele>
        <time>2021-07-18T14:14:38Z</time>
      </trkpt>
      <trkpt lat="43.44396" lon="-1.47556">
        <ele>4.8</ele>
        <time>2021-07-18T14:14:39Z</time>
      </trkpt>
      <trkpt lat="43.4439" lon="-1.47557">
        <ele>4.8</ele>
        <time>2021-07-18T14:14:40Z</time>
      </trkpt>
      <trkpt lat="43.44385" lon="-1.47557">
        <ele>4.8</ele>
        <time>2021-07-18T14:14:41Z</time>
      </trkpt>
      <trkpt lat="43.44374" lon="-1.47558">
        <ele>4.9</ele>
        <time>2021-07-18T14:14:43Z</time>
      </trkpt>
      <trkpt lat="43.44368" lon="-1.47558">
        <ele>4.9</ele>
        <time>2021-07-18T14:14:44Z</time>
      </trkpt>
      <trkpt lat="43.44363" lon="-1.47558">
        <ele>4.9</ele>
        <time>2021-07-18T14:14:45Z</time>
      </trkpt>
      <trkpt lat="43.44352" lon="-1.47558">
        <ele>4.9</ele>
        <time>2021-07-18T14:14:47Z</time>
      </trkpt>
      <trkpt lat="43.44346" lon="-1.47558">
        <ele>4.9</ele>
        <time>2021-07-18T14:14:48Z</time>
      </trkpt>
      <trkpt lat="43.44335" lon="-1.47558">
        <ele>4.9</ele>
        <time>2021-07-18T14:14:50Z</time>
      </trkpt>
      <trkpt lat="43.44324" lon="-1.47558">
        <ele>4.9</ele>
        <time>2021-07-18T14:14:52Z</time>
      </trkpt>
      <trkpt lat="43.44314" lon="-1.47557">
        <ele>4.9</ele>
        <time>2021-07-18T14:14:54Z</time>
      </trkpt>
      <trkpt lat="43.44308" lon="-1.47557">
        <ele>4.9</ele>
        <time>2021-07-18T14:14:55Z</time>
      </trkpt>
      <trkpt lat="43.44297" lon="-1.47557">
        <ele>4.9</ele>
        <time>2021-07-18T14:14:57Z</time>
      </trkpt>
      <trkpt lat="43.44291" lon="-1.47556">
        <ele>4.9</ele>
        <time>2021-07-18T14:14:58Z</time>
      </trkpt>
      <trkpt lat="43.44281" lon="-1.47556">
        <ele>4.9</ele>
        <time>2021-07-18T14:15:00Z</time>
      </trkpt>
      <trkpt lat="43.44269" lon="-1.47556">
        <ele>4.9</ele>
        <time>2021-07-18T14:15:02Z</time>
      </trkpt>
      <trkpt lat="43.44264" lon="-1.47556">
        <ele>5</ele>
        <time>2021-07-18T14:15:03Z</time>
      </trkpt>
      <trkpt lat="43.44258" lon="-1.47556">
        <ele>5</ele>
        <time>2021-07-18T14:15:04Z</time>
      </trkpt>
      <trkpt lat="43.44253" lon="-1.47556">
        <ele>5</ele>
        <time>2021-07-18T14:15:05Z</time>
      </trkpt>
      <trkpt lat="43.44247" lon="-1.47555">
        <ele>5</ele>
        <time>2021-07-18T14:15:06Z</time>
      </trkpt>
      <trkpt lat="43.44242" lon="-1.47555">
        <ele>5.1</ele>
        <time>2021-07-18T14:15:07Z</time>
      </trkpt>
      <trkpt lat="43.44231" lon="-1.47553">
        <ele>5.1</ele>
        <time>2021-07-18T14:15:09Z</time>
      </trkpt>
      <trkpt lat="43.44225" lon="-1.47551">
        <ele>5.1</ele>
        <time>2021-07-18T14:15:10Z</time>
      </trkpt>
      <trkpt lat="43.4422" lon="-1.47549">
        <ele>5.1</ele>
        <time>2021-07-18T14:15:11Z</time>
      </trkpt>
      <trkpt lat="43.44214" lon="-1.47547">
        <ele>5.1</ele>
        <time>2021-07-18T14:15:12Z</time>
      </trkpt>
      <trkpt lat="43.44209" lon="-1.47545">
        <ele>5.1</ele>
        <time>2021-07-18T14:15:13Z</time>
      </trkpt>
      <trkpt lat="43.44198" lon="-1.47542">
        <ele>5.1</ele>
        <time>2021-07-18T14:15:15Z</time>
      </trkpt>
      <trkpt lat="43.44193" lon="-1.4754">
        <ele>5.1</ele>
        <time>2021-07-18T14:15:16Z</time>
      </trkpt>
      <trkpt lat="43.44182" lon="-1.47538">
        <ele>5.1</ele>
        <time>2021-07-18T14:15:18Z</time>
      </trkpt>
      <trkpt lat="43.44171" lon="-1.47536">
        <ele>5</ele>
        <time>2021-07-18T14:15:20Z</time>
      </trkpt>
      <trkpt lat="43.44166" lon="-1.47535">
        <ele>5</ele>
        <time>2021-07-18T14:15:21Z</time>
      </trkpt>
      <trkpt lat="43.44155" lon="-1.47533">
        <ele>5</ele>
        <time>2021-07-18T14:15:23Z</time>
      </trkpt>
      <trkpt lat="43.44149" lon="-1.47532">
        <ele>5</ele>
        <time>2021-07-18T14:15:24Z</time>
      </trkpt>
      <trkpt lat="43.44144" lon="-1.47531">
        <ele>5</ele>
        <time>2021-07-18T14:15:25Z</time>
      </trkpt>
      <trkpt lat="43.44133" lon="-1.47529">
        <ele>5</ele>
        <time>2021-07-18T14:15:27Z</time>
      </trkpt>
      <trkpt lat="43.44128" lon="-1.47529">
        <ele>5</ele>
        <time>2021-07-18T14:15:28Z</time>
      </trkpt>
      <trkpt lat="43.44117" lon="-1.47527">
        <ele>5</ele>
        <time>2021-07-18T14:15:30Z</time>
      </trkpt>
      <trkpt lat="43.44111" lon="-1.47526">
        <ele>5</ele>
        <time>2021-07-18T14:15:31Z</time>
      </trkpt>
      <trkpt lat="43.44106" lon="-1.47526">
        <ele>5</ele>
        <time>2021-07-18T14:15:32Z</time>
      </trkpt>
      <trkpt lat="43.44101" lon="-1.47525">
        <ele>5</ele>
        <time>2021-07-18T14:15:33Z</time>
      </trkpt>
      <trkpt lat="43.44091" lon="-1.47524">
        <ele>4.9</ele>
        <time>2021-07-18T14:15:35Z</time>
      </trkpt>
      <trkpt lat="43.4408" lon="-1.47522">
        <ele>4.9</ele>
        <time>2021-07-18T14:15:37Z</time>
      </trkpt>
      <trkpt lat="43.44069" lon="-1.4752">
        <ele>4.9</ele>
        <time>2021-07-18T14:15:39Z</time>
      </trkpt>
      <trkpt lat="43.44059" lon="-1.47518">
        <ele>4.9</ele>
        <time>2021-07-18T14:15:41Z</time>
      </trkpt>
      <trkpt lat="43.44048" lon="-1.47516">
        <ele>4.9</ele>
        <time>2021-07-18T14:15:43Z</time>
      </trkpt>
      <trkpt lat="43.44037" lon="-1.47513">
        <ele>4.9</ele>
        <time>2021-07-18T14:15:45Z</time>
      </trkpt>
      <trkpt lat="43.44032" lon="-1.47512">
        <ele>4.9</ele>
        <time>2021-07-18T14:15:46Z</time>
      </trkpt>
      <trkpt lat="43.44021" lon="-1.4751">
        <ele>4.9</ele>
        <time>2021-07-18T14:15:48Z</time>
      </trkpt>
      <trkpt lat="43.44016" lon="-1.47509">
        <ele>4.8</ele>
        <time>2021-07-18T14:15:49Z</time>
      </trkpt>
      <trkpt lat="43.44005" lon="-1.47507">
        <ele>4.8</ele>
        <time>2021-07-18T14:15:51Z</time>
      </trkpt>
      <trkpt lat="43.43999" lon="-1.47505">
        <ele>4.8</ele>
        <time>2021-07-18T14:15:52Z</time>
      </trkpt>
      <trkpt lat="43.43988" lon="-1.47503">
        <ele>4.8</ele>
        <time>2021-07-18T14:15:54Z</time>
      </trkpt>
      <trkpt lat="43.43977" lon="-1.47501">
        <ele>4.8</ele>
        <time>2021-07-18T14:15:56Z</time>
      </trkpt>
      <trkpt lat="43.43971" lon="-1.47499">
        <ele>4.8</ele>
        <time>2021-07-18T14:15:57Z</time>
      </trkpt>
      <trkpt lat="43.4396" lon="-1.47497">
        <ele>4.7</ele>
        <time>2021-07-18T14:15:59Z</time>
      </trkpt>
      <trkpt lat="43.43949" lon="-1.47494">
        <ele>4.7</ele>
        <time>2021-07-18T14:16:01Z</time>
      </trkpt>
      <trkpt lat="43.43943" lon="-1.47493">
        <ele>4.7</ele>
        <time>2021-07-18T14:16:02Z</time>
      </trkpt>
      <trkpt lat="43.43932" lon="-1.47491">
        <ele>4.7</ele>
        <time>2021-07-18T14:16:04Z</time>
      </trkpt>
      <trkpt lat="43.43926" lon="-1.4749">
        <ele>4.7</ele>
        <time>2021-07-18T14:16:05Z</time>
      </trkpt>
      <trkpt lat="43.43916" lon="-1.47489">
        <ele>4.7</ele>
        <time>2021-07-18T14:16:07Z</time>
      </trkpt>
      <trkpt lat="43.43911" lon="-1.47488">
        <ele>4.6</ele>
        <time>2021-07-18T14:16:08Z</time>
      </trkpt>
      <trkpt lat="43.43905" lon="-1.47486">
        <ele>4.6</ele>
        <time>2021-07-18T14:16:09Z</time>
      </trkpt>
      <trkpt lat="43.43894" lon="-1.47482">
        <ele>4.6</ele>
        <time>2021-07-18T14:16:11Z</time>
      </trkpt>
      <trkpt lat="43.43889" lon="-1.47479">
        <ele>4.6</ele>
        <time>2021-07-18T14:16:12Z</time>
      </trkpt>
      <trkpt lat="43.43884" lon="-1.47475">
        <ele>4.6</ele>
        <time>2021-07-18T14:16:13Z</time>
      </trkpt>
      <trkpt lat="43.43879" lon="-1.47472">
        <ele>4.6</ele>
        <time>2021-07-18T14:16:14Z</time>
      </trkpt>
      <trkpt lat="43.43874" lon="-1.47469">
        <ele>4.6</ele>
        <time>2021-07-18T14:16:15Z</time>
      </trkpt>
      <trkpt lat="43.43864" lon="-1.47463">
        <ele>4.6</ele>
        <time>2021-07-18T14:16:17Z</time>
      </trkpt>
      <trkpt lat="43.43859" lon="-1.4746">
        <ele>4.6</ele>
        <time>2021-07-18T14:16:18Z</time>
      </trkpt>
      <trkpt lat="43.43849" lon="-1.47454">
        <ele>4.6</ele>
        <time>2021-07-18T14:16:20Z</time>
      </trkpt>
      <trkpt lat="43.43845" lon="-1.47451">
        <ele>4.6</ele>
        <time>2021-07-18T14:16:21Z</time>
      </trkpt>
      <trkpt lat="43.43836" lon="-1.47444">
        <ele>4.6</ele>
        <time>2021-07-18T14:16:23Z</time>
      </trkpt>
      <trkpt lat="43.43827" lon="-1.47436">
        <ele>4.7</ele>
        <time>2021-07-18T14:16:25Z</time>
      </trkpt>
      <trkpt lat="43.43819" lon="-1.47428">
        <ele>4.7</ele>
        <time>2021-07-18T14:16:27Z</time>
      </trkpt>
      <trkpt lat="43.43811" lon="-1.47419">
        <ele>4.7</ele>
        <time>2021-07-18T14:16:29Z</time>
      </trkpt>
      <trkpt lat="43.43808" lon="-1.47414">
        <ele>4.7</ele>
        <time>2021-07-18T14:16:30Z</time>
      </trkpt>
      <trkpt lat="43.43801" lon="-1.47404">
        <ele>4.6</ele>
        <time>2021-07-18T14:16:32Z</time>
      </trkpt>
      <trkpt lat="43.43798" lon="-1.47399">
        <ele>4.6</ele>
        <time>2021-07-18T14:16:33Z</time>
      </trkpt>
      <trkpt lat="43.43795" lon="-1.47393">
        <ele>4.6</ele>
        <time>2021-07-18T14:16:34Z</time>
      </trkpt>
      <trkpt lat="43.43793" lon="-1.47387">
        <ele>4.6</ele>
        <time>2021-07-18T14:16:35Z</time>
      </trkpt>
      <trkpt lat="43.43787" lon="-1.47375">
        <ele>4.6</ele>
        <time>2021-07-18T14:16:37Z</time>
      </trkpt>
      <trkpt lat="43.43785" lon="-1.47369">
        <ele>4.6</ele>
        <time>2021-07-18T14:16:38Z</time>
      </trkpt>
      <trkpt lat="43.43783" lon="-1.47363">
        <ele>4.6</ele>
        <time>2021-07-18T14:16:39Z</time>
      </trkpt>
      <trkpt lat="43.43778" lon="-1.47352">
        <ele>4.6</ele>
        <time>2021-07-18T14:16:41Z</time>
      </trkpt>
      <trkpt lat="43.43776" lon="-1.47346">
        <ele>4.6</ele>
        <time>2021-07-18T14:16:42Z</time>
      </trkpt>
      <trkpt lat="43.43775" lon="-1.4734">
        <ele>4.6</ele>
        <time>2021-07-18T14:16:43Z</time>
      </trkpt>
      <trkpt lat="43.43772" lon="-1.47327">
        <ele>4.6</ele>
        <time>2021-07-18T14:16:45Z</time>
      </trkpt>
      <trkpt lat="43.43771" lon="-1.47321">
        <ele>4.6</ele>
        <time>2021-07-18T14:16:46Z</time>
      </trkpt>
      <trkpt lat="43.43769" lon="-1.47309">
        <ele>4.7</ele>
        <time>2021-07-18T14:16:48Z</time>
      </trkpt>
      <trkpt lat="43.43767" lon="-1.47303">
        <ele>4.7</ele>
        <time>2021-07-18T14:16:49Z</time>
      </trkpt>
      <trkpt lat="43.43766" lon="-1.47297">
        <ele>4.7</ele>
        <time>2021-07-18T14:16:50Z</time>
      </trkpt>
      <trkpt lat="43.43763" lon="-1.47285">
        <ele>4.7</ele>
        <time>2021-07-18T14:16:52Z</time>
      </trkpt>
      <trkpt lat="43.4376" lon="-1.47272">
        <ele>4.8</ele>
        <time>2021-07-18T14:16:54Z</time>
      </trkpt>
      <trkpt lat="43.43757" lon="-1.47259">
        <ele>4.8</ele>
        <time>2021-07-18T14:16:56Z</time>
      </trkpt>
      <trkpt lat="43.43755" lon="-1.47246">
        <ele>4.9</ele>
        <time>2021-07-18T14:16:58Z</time>
      </trkpt>
      <trkpt lat="43.43754" lon="-1.47233">
        <ele>4.9</ele>
        <time>2021-07-18T14:17:00Z</time>
      </trkpt>
      <trkpt lat="43.43754" lon="-1.47227">
        <ele>4.9</ele>
        <time>2021-07-18T14:17:01Z</time>
      </trkpt>
      <trkpt lat="43.43757" lon="-1.47218">
        <ele>4.9</ele>
        <time>2021-07-18T14:17:03Z</time>
      </trkpt>
      <trkpt lat="43.43758" lon="-1.47212">
        <ele>4.9</ele>
        <time>2021-07-18T14:17:04Z</time>
      </trkpt>
      <trkpt lat="43.4376" lon="-1.472">
        <ele>4.8</ele>
        <time>2021-07-18T14:17:06Z</time>
      </trkpt>
      <trkpt lat="43.4376" lon="-1.47193">
        <ele>4.7</ele>
        <time>2021-07-18T14:17:07Z</time>
      </trkpt>
      <trkpt lat="43.43762" lon="-1.4718">
        <ele>4.7</ele>
        <time>2021-07-18T14:17:09Z</time>
      </trkpt>
      <trkpt lat="43.43763" lon="-1.47166">
        <ele>4.6</ele>
        <time>2021-07-18T14:17:11Z</time>
      </trkpt>
      <trkpt lat="43.43763" lon="-1.47159">
        <ele>4.6</ele>
        <time>2021-07-18T14:17:12Z</time>
      </trkpt>
      <trkpt lat="43.43764" lon="-1.47145">
        <ele>4.6</ele>
        <time>2021-07-18T14:17:14Z</time>
      </trkpt>
      <trkpt lat="43.43765" lon="-1.47132">
        <ele>4.6</ele>
        <time>2021-07-18T14:17:16Z</time>
      </trkpt>
      <trkpt lat="43.43765" lon="-1.47119">
        <ele>4.6</ele>
        <time>2021-07-18T14:17:18Z</time>
      </trkpt>
      <trkpt lat="43.43765" lon="-1.47105">
        <ele>4.6</ele>
        <time>2021-07-18T14:17:20Z</time>
      </trkpt>
      <trkpt lat="43.43765" lon="-1.47091">
        <ele>4.6</ele>
        <time>2021-07-18T14:17:22Z</time>
      </trkpt>
      <trkpt lat="43.43765" lon="-1.47085">
        <ele>4.6</ele>
        <time>2021-07-18T14:17:23Z</time>
      </trkpt>
      <trkpt lat="43.43765" lon="-1.47071">
        <ele>4.7</ele>
        <time>2021-07-18T14:17:25Z</time>
      </trkpt>
      <trkpt lat="43.43764" lon="-1.47057">
        <ele>4.7</ele>
        <time>2021-07-18T14:17:27Z</time>
      </trkpt>
      <trkpt lat="43.43764" lon="-1.47043">
        <ele>4.7</ele>
        <time>2021-07-18T14:17:29Z</time>
      </trkpt>
      <trkpt lat="43.43764" lon="-1.47036">
        <ele>4.7</ele>
        <time>2021-07-18T14:17:30Z</time>
      </trkpt>
      <trkpt lat="43.43763" lon="-1.47022">
        <ele>4.7</ele>
        <time>2021-07-18T14:17:32Z</time>
      </trkpt>
      <trkpt lat="43.43763" lon="-1.47016">
        <ele>4.7</ele>
        <time>2021-07-18T14:17:33Z</time>
      </trkpt>
      <trkpt lat="43.43761" lon="-1.47002">
        <ele>4.7</ele>
        <time>2021-07-18T14:17:35Z</time>
      </trkpt>
      <trkpt lat="43.43758" lon="-1.46989">
        <ele>4.7</ele>
        <time>2021-07-18T14:17:37Z</time>
      </trkpt>
      <trkpt lat="43.43756" lon="-1.46976">
        <ele>4.7</ele>
        <time>2021-07-18T14:17:39Z</time>
      </trkpt>
      <trkpt lat="43.43753" lon="-1.46962">
        <ele>4.7</ele>
        <time>2021-07-18T14:17:41Z</time>
      </trkpt>
      <trkpt lat="43.43752" lon="-1.46955">
        <ele>4.7</ele>
        <time>2021-07-18T14:17:42Z</time>
      </trkpt>
      <trkpt lat="43.43749" lon="-1.46941">
        <ele>4.7</ele>
        <time>2021-07-18T14:17:44Z</time>
      </trkpt>
      <trkpt lat="43.43747" lon="-1.46927">
        <ele>4.7</ele>
        <time>2021-07-18T14:17:46Z</time>
      </trkpt>
      <trkpt lat="43.43746" lon="-1.46913">
        <ele>4.7</ele>
        <time>2021-07-18T14:17:48Z</time>
      </trkpt>
      <trkpt lat="43.43746" lon="-1.46906">
        <ele>4.7</ele>
        <time>2021-07-18T14:17:49Z</time>
      </trkpt>
      <trkpt lat="43.43745" lon="-1.46892">
        <ele>4.7</ele>
        <time>2021-07-18T14:17:51Z</time>
      </trkpt>
      <trkpt lat="43.43745" lon="-1.46878">
        <ele>4.8</ele>
        <time>2021-07-18T14:17:53Z</time>
      </trkpt>
      <trkpt lat="43.43745" lon="-1.4687">
        <ele>4.8</ele>
        <time>2021-07-18T14:17:54Z</time>
      </trkpt>
      <trkpt lat="43.43746" lon="-1.46856">
        <ele>4.8</ele>
        <time>2021-07-18T14:17:56Z</time>
      </trkpt>
      <trkpt lat="43.43747" lon="-1.46842">
        <ele>4.8</ele>
        <time>2021-07-18T14:17:58Z</time>
      </trkpt>
      <trkpt lat="43.43748" lon="-1.46835">
        <ele>4.8</ele>
        <time>2021-07-18T14:17:59Z</time>
      </trkpt>
      <trkpt lat="43.43749" lon="-1.46828">
        <ele>4.8</ele>
        <time>2021-07-18T14:18:00Z</time>
      </trkpt>
      <trkpt lat="43.4375" lon="-1.46814">
        <ele>4.8</ele>
        <time>2021-07-18T14:18:02Z</time>
      </trkpt>
      <trkpt lat="43.43752" lon="-1.46801">
        <ele>4.8</ele>
        <time>2021-07-18T14:18:04Z</time>
      </trkpt>
      <trkpt lat="43.43754" lon="-1.46787">
        <ele>4.8</ele>
        <time>2021-07-18T14:18:06Z</time>
      </trkpt>
      <trkpt lat="43.43755" lon="-1.46773">
        <ele>4.8</ele>
        <time>2021-07-18T14:18:08Z</time>
      </trkpt>
      <trkpt lat="43.43755" lon="-1.46766">
        <ele>4.8</ele>
        <time>2021-07-18T14:18:09Z</time>
      </trkpt>
      <trkpt lat="43.43756" lon="-1.46752">
        <ele>4.8</ele>
        <time>2021-07-18T14:18:11Z</time>
      </trkpt>
      <trkpt lat="43.43756" lon="-1.46738">
        <ele>4.8</ele>
        <time>2021-07-18T14:18:13Z</time>
      </trkpt>
      <trkpt lat="43.43756" lon="-1.46725">
        <ele>4.8</ele>
        <time>2021-07-18T14:18:15Z</time>
      </trkpt>
      <trkpt lat="43.43757" lon="-1.46718">
        <ele>4.8</ele>
        <time>2021-07-18T14:18:16Z</time>
      </trkpt>
      <trkpt lat="43.43757" lon="-1.46704">
        <ele>4.8</ele>
        <time>2021-07-18T14:18:18Z</time>
      </trkpt>
      <trkpt lat="43.43757" lon="-1.46689">
        <ele>4.8</ele>
        <time>2021-07-18T14:18:20Z</time>
      </trkpt>
      <trkpt lat="43.43757" lon="-1.46675">
        <ele>4.8</ele>
        <time>2021-07-18T14:18:22Z</time>
      </trkpt>
      <trkpt lat="43.43757" lon="-1.4666">
        <ele>4.8</ele>
        <time>2021-07-18T14:18:24Z</time>
      </trkpt>
      <trkpt lat="43.43757" lon="-1.46646">
        <ele>4.8</ele>
        <time>2021-07-18T14:18:26Z</time>
      </trkpt>
      <trkpt lat="43.43758" lon="-1.46638">
        <ele>4.8</ele>
        <time>2021-07-18T14:18:27Z</time>
      </trkpt>
      <trkpt lat="43.43759" lon="-1.46623">
        <ele>4.8</ele>
        <time>2021-07-18T14:18:29Z</time>
      </trkpt>
      <trkpt lat="43.43759" lon="-1.46615">
        <ele>4.8</ele>
        <time>2021-07-18T14:18:30Z</time>
      </trkpt>
      <trkpt lat="43.4376" lon="-1.46608">
        <ele>4.8</ele>
        <time>2021-07-18T14:18:31Z</time>
      </trkpt>
      <trkpt lat="43.43761" lon="-1.46593">
        <ele>4.9</ele>
        <time>2021-07-18T14:18:33Z</time>
      </trkpt>
      <trkpt lat="43.43762" lon="-1.46578">
        <ele>4.9</ele>
        <time>2021-07-18T14:18:35Z</time>
      </trkpt>
      <trkpt lat="43.43764" lon="-1.46563">
        <ele>5</ele>
        <time>2021-07-18T14:18:37Z</time>
      </trkpt>
      <trkpt lat="43.43765" lon="-1.46555">
        <ele>5</ele>
        <time>2021-07-18T14:18:38Z</time>
      </trkpt>
      <trkpt lat="43.43766" lon="-1.46547">
        <ele>5</ele>
        <time>2021-07-18T14:18:39Z</time>
      </trkpt>
      <trkpt lat="43.43767" lon="-1.46539">
        <ele>5</ele>
        <time>2021-07-18T14:18:40Z</time>
      </trkpt>
      <trkpt lat="43.43769" lon="-1.46524">
        <ele>5</ele>
        <time>2021-07-18T14:18:42Z</time>
      </trkpt>
      <trkpt lat="43.4377" lon="-1.46516">
        <ele>5</ele>
        <time>2021-07-18T14:18:43Z</time>
      </trkpt>
      <trkpt lat="43.43772" lon="-1.46501">
        <ele>4.9</ele>
        <time>2021-07-18T14:18:45Z</time>
      </trkpt>
      <trkpt lat="43.43773" lon="-1.46493">
        <ele>4.9</ele>
        <time>2021-07-18T14:18:46Z</time>
      </trkpt>
      <trkpt lat="43.43776" lon="-1.46478">
        <ele>4.9</ele>
        <time>2021-07-18T14:18:48Z</time>
      </trkpt>
      <trkpt lat="43.43779" lon="-1.46463">
        <ele>4.9</ele>
        <time>2021-07-18T14:18:50Z</time>
      </trkpt>
      <trkpt lat="43.43782" lon="-1.46448">
        <ele>4.8</ele>
        <time>2021-07-18T14:18:52Z</time>
      </trkpt>
      <trkpt lat="43.43784" lon="-1.46433">
        <ele>4.8</ele>
        <time>2021-07-18T14:18:54Z</time>
      </trkpt>
      <trkpt lat="43.43784" lon="-1.46418">
        <ele>4.9</ele>
        <time>2021-07-18T14:18:56Z</time>
      </trkpt>
      <trkpt lat="43.43783" lon="-1.46404">
        <ele>4.9</ele>
        <time>2021-07-18T14:18:58Z</time>
      </trkpt>
      <trkpt lat="43.43782" lon="-1.46389">
        <ele>4.9</ele>
        <time>2021-07-18T14:19:00Z</time>
      </trkpt>
      <trkpt lat="43.4378" lon="-1.46375">
        <ele>4.9</ele>
        <time>2021-07-18T14:19:02Z</time>
      </trkpt>
      <trkpt lat="43.43777" lon="-1.46361">
        <ele>4.9</ele>
        <time>2021-07-18T14:19:04Z</time>
      </trkpt>
      <trkpt lat="43.43775" lon="-1.46355">
        <ele>4.9</ele>
        <time>2021-07-18T14:19:05Z</time>
      </trkpt>
      <trkpt lat="43.43771" lon="-1.46342">
        <ele>4.8</ele>
        <time>2021-07-18T14:19:07Z</time>
      </trkpt>
      <trkpt lat="43.43766" lon="-1.46329">
        <ele>4.8</ele>
        <time>2021-07-18T14:19:09Z</time>
      </trkpt>
      <trkpt lat="43.4376" lon="-1.46317">
        <ele>4.8</ele>
        <time>2021-07-18T14:19:11Z</time>
      </trkpt>
      <trkpt lat="43.43757" lon="-1.46311">
        <ele>4.8</ele>
        <time>2021-07-18T14:19:12Z</time>
      </trkpt>
      <trkpt lat="43.43754" lon="-1.46305">
        <ele>4.8</ele>
        <time>2021-07-18T14:19:13Z</time>
      </trkpt>
      <trkpt lat="43.43747" lon="-1.46294">
        <ele>4.8</ele>
        <time>2021-07-18T14:19:15Z</time>
      </trkpt>
      <trkpt lat="43.43744" lon="-1.46288">
        <ele>4.8</ele>
        <time>2021-07-18T14:19:16Z</time>
      </trkpt>
      <trkpt lat="43.43738" lon="-1.46276">
        <ele>4.8</ele>
        <time>2021-07-18T14:19:18Z</time>
      </trkpt>
      <trkpt lat="43.43735" lon="-1.4627">
        <ele>4.7</ele>
        <time>2021-07-18T14:19:19Z</time>
      </trkpt>
      <trkpt lat="43.43731" lon="-1.46265">
        <ele>4.7</ele>
        <time>2021-07-18T14:19:20Z</time>
      </trkpt>
      <trkpt lat="43.43724" lon="-1.46254">
        <ele>4.7</ele>
        <time>2021-07-18T14:19:22Z</time>
      </trkpt>
      <trkpt lat="43.43717" lon="-1.46242">
        <ele>4.6</ele>
        <time>2021-07-18T14:19:24Z</time>
      </trkpt>
      <trkpt lat="43.43711" lon="-1.46231">
        <ele>4.7</ele>
        <time>2021-07-18T14:19:26Z</time>
      </trkpt>
      <trkpt lat="43.43707" lon="-1.46225">
        <ele>4.7</ele>
        <time>2021-07-18T14:19:27Z</time>
      </trkpt>
      <trkpt lat="43.437" lon="-1.46214">
        <ele>4.8</ele>
        <time>2021-07-18T14:19:29Z</time>
      </trkpt>
      <trkpt lat="43.43697" lon="-1.46208">
        <ele>4.8</ele>
        <time>2021-07-18T14:19:30Z</time>
      </trkpt>
      <trkpt lat="43.43694" lon="-1.46203">
        <ele>4.8</ele>
        <time>2021-07-18T14:19:31Z</time>
      </trkpt>
      <trkpt lat="43.43688" lon="-1.46191">
        <ele>4.8</ele>
        <time>2021-07-18T14:19:33Z</time>
      </trkpt>
      <trkpt lat="43.43682" lon="-1.46181">
        <ele>4.9</ele>
        <time>2021-07-18T14:19:35Z</time>
      </trkpt>
      <trkpt lat="43.43679" lon="-1.46176">
        <ele>4.9</ele>
        <time>2021-07-18T14:19:36Z</time>
      </trkpt>
      <trkpt lat="43.43672" lon="-1.46165">
        <ele>4.9</ele>
        <time>2021-07-18T14:19:38Z</time>
      </trkpt>
      <trkpt lat="43.43669" lon="-1.46159">
        <ele>4.9</ele>
        <time>2021-07-18T14:19:39Z</time>
      </trkpt>
      <trkpt lat="43.43666" lon="-1.46153">
        <ele>4.9</ele>
        <time>2021-07-18T14:19:40Z</time>
      </trkpt>
      <trkpt lat="43.43659" lon="-1.46143">
        <ele>5</ele>
        <time>2021-07-18T14:19:42Z</time>
      </trkpt>
      <trkpt lat="43.43656" lon="-1.46138">
        <ele>5</ele>
        <time>2021-07-18T14:19:43Z</time>
      </trkpt>
      <trkpt lat="43.43649" lon="-1.46126">
        <ele>5</ele>
        <time>2021-07-18T14:19:45Z</time>
      </trkpt>
      <trkpt lat="43.43646" lon="-1.4612">
        <ele>5</ele>
        <time>2021-07-18T14:19:46Z</time>
      </trkpt>
      <trkpt lat="43.43642" lon="-1.46115">
        <ele>5</ele>
        <time>2021-07-18T14:19:47Z</time>
      </trkpt>
      <trkpt lat="43.43639" lon="-1.46109">
        <ele>5</ele>
        <time>2021-07-18T14:19:48Z</time>
      </trkpt>
      <trkpt lat="43.43632" lon="-1.46097">
        <ele>5</ele>
        <time>2021-07-18T14:19:50Z</time>
      </trkpt>
      <trkpt lat="43.43628" lon="-1.46091">
        <ele>5</ele>
        <time>2021-07-18T14:19:51Z</time>
      </trkpt>
      <trkpt lat="43.43621" lon="-1.46079">
        <ele>5</ele>
        <time>2021-07-18T14:19:53Z</time>
      </trkpt>
      <trkpt lat="43.43614" lon="-1.46067">
        <ele>5</ele>
        <time>2021-07-18T14:19:55Z</time>
      </trkpt>
      <trkpt lat="43.43611" lon="-1.46062">
        <ele>5</ele>
        <time>2021-07-18T14:19:56Z</time>
      </trkpt>
      <trkpt lat="43.43607" lon="-1.46056">
        <ele>5</ele>
        <time>2021-07-18T14:19:57Z</time>
      </trkpt>
      <trkpt lat="43.436" lon="-1.46045">
        <ele>5</ele>
        <time>2021-07-18T14:19:59Z</time>
      </trkpt>
      <trkpt lat="43.43596" lon="-1.46039">
        <ele>5</ele>
        <time>2021-07-18T14:20:00Z</time>
      </trkpt>
      <trkpt lat="43.43589" lon="-1.46028">
        <ele>5</ele>
        <time>2021-07-18T14:20:02Z</time>
      </trkpt>
      <trkpt lat="43.43586" lon="-1.46023">
        <ele>5</ele>
        <time>2021-07-18T14:20:03Z</time>
      </trkpt>
      <trkpt lat="43.43582" lon="-1.46017">
        <ele>5</ele>
        <time>2021-07-18T14:20:04Z</time>
      </trkpt>
      <trkpt lat="43.43578" lon="-1.46012">
        <ele>4.9</ele>
        <time>2021-07-18T14:20:05Z</time>
      </trkpt>
      <trkpt lat="43.43571" lon="-1.46001">
        <ele>4.9</ele>
        <time>2021-07-18T14:20:07Z</time>
      </trkpt>
      <trkpt lat="43.43563" lon="-1.4599">
        <ele>4.9</ele>
        <time>2021-07-18T14:20:09Z</time>
      </trkpt>
      <trkpt lat="43.43555" lon="-1.45979">
        <ele>4.9</ele>
        <time>2021-07-18T14:20:11Z</time>
      </trkpt>
      <trkpt lat="43.43552" lon="-1.45974">
        <ele>4.9</ele>
        <time>2021-07-18T14:20:12Z</time>
      </trkpt>
      <trkpt lat="43.43548" lon="-1.45968">
        <ele>4.9</ele>
        <time>2021-07-18T14:20:13Z</time>
      </trkpt>
      <trkpt lat="43.4354" lon="-1.45958">
        <ele>4.9</ele>
        <time>2021-07-18T14:20:15Z</time>
      </trkpt>
      <trkpt lat="43.43536" lon="-1.45953">
        <ele>4.9</ele>
        <time>2021-07-18T14:20:16Z</time>
      </trkpt>
      <trkpt lat="43.43532" lon="-1.45948">
        <ele>4.9</ele>
        <time>2021-07-18T14:20:17Z</time>
      </trkpt>
      <trkpt lat="43.43524" lon="-1.45937">
        <ele>4.9</ele>
        <time>2021-07-18T14:20:19Z</time>
      </trkpt>
      <trkpt lat="43.43516" lon="-1.45927">
        <ele>4.9</ele>
        <time>2021-07-18T14:20:21Z</time>
      </trkpt>
      <trkpt lat="43.43512" lon="-1.45922">
        <ele>4.9</ele>
        <time>2021-07-18T14:20:22Z</time>
      </trkpt>
      <trkpt lat="43.43508" lon="-1.45917">
        <ele>4.9</ele>
        <time>2021-07-18T14:20:23Z</time>
      </trkpt>
      <trkpt lat="43.43504" lon="-1.45911">
        <ele>4.9</ele>
        <time>2021-07-18T14:20:24Z</time>
      </trkpt>
      <trkpt lat="43.435" lon="-1.45906">
        <ele>4.9</ele>
        <time>2021-07-18T14:20:25Z</time>
      </trkpt>
      <trkpt lat="43.43493" lon="-1.45896">
        <ele>5</ele>
        <time>2021-07-18T14:20:27Z</time>
      </trkpt>
      <trkpt lat="43.43485" lon="-1.45886">
        <ele>5</ele>
        <time>2021-07-18T14:20:29Z</time>
      </trkpt>
      <trkpt lat="43.43477" lon="-1.45876">
        <ele>5</ele>
        <time>2021-07-18T14:20:31Z</time>
      </trkpt>
      <trkpt lat="43.43469" lon="-1.45867">
        <ele>5</ele>
        <time>2021-07-18T14:20:33Z</time>
      </trkpt>
      <trkpt lat="43.43465" lon="-1.45862">
        <ele>5.1</ele>
        <time>2021-07-18T14:20:34Z</time>
      </trkpt>
      <trkpt lat="43.43456" lon="-1.45854">
        <ele>5.1</ele>
        <time>2021-07-18T14:20:36Z</time>
      </trkpt>
      <trkpt lat="43.43451" lon="-1.4585">
        <ele>5.1</ele>
        <time>2021-07-18T14:20:37Z</time>
      </trkpt>
      <trkpt lat="43.43446" lon="-1.45847">
        <ele>5.2</ele>
        <time>2021-07-18T14:20:38Z</time>
      </trkpt>
      <trkpt lat="43.43437" lon="-1.4584">
        <ele>5.2</ele>
        <time>2021-07-18T14:20:40Z</time>
      </trkpt>
      <trkpt lat="43.43427" lon="-1.45835">
        <ele>5.3</ele>
        <time>2021-07-18T14:20:42Z</time>
      </trkpt>
      <trkpt lat="43.43423" lon="-1.45833">
        <ele>5.3</ele>
        <time>2021-07-18T14:20:43Z</time>
      </trkpt>
      <trkpt lat="43.4342" lon="-1.45831">
        <ele>5.3</ele>
        <time>2021-07-18T14:20:44Z</time>
      </trkpt>
      <trkpt lat="43.4341" lon="-1.45824">
        <ele>5.3</ele>
        <time>2021-07-18T14:20:46Z</time>
      </trkpt>
      <trkpt lat="43.43405" lon="-1.4582">
        <ele>5.3</ele>
        <time>2021-07-18T14:20:47Z</time>
      </trkpt>
      <trkpt lat="43.434" lon="-1.45817">
        <ele>5.2</ele>
        <time>2021-07-18T14:20:48Z</time>
      </trkpt>
      <trkpt lat="43.43394" lon="-1.45814">
        <ele>5.2</ele>
        <time>2021-07-18T14:20:49Z</time>
      </trkpt>
      <trkpt lat="43.43385" lon="-1.45808">
        <ele>5.1</ele>
        <time>2021-07-18T14:20:51Z</time>
      </trkpt>
      <trkpt lat="43.43376" lon="-1.458">
        <ele>5.1</ele>
        <time>2021-07-18T14:20:53Z</time>
      </trkpt>
      <trkpt lat="43.4337" lon="-1.45797">
        <ele>5</ele>
        <time>2021-07-18T14:20:54Z</time>
      </trkpt>
      <trkpt lat="43.4336" lon="-1.45791">
        <ele>5</ele>
        <time>2021-07-18T14:20:56Z</time>
      </trkpt>
      <trkpt lat="43.43355" lon="-1.45788">
        <ele>5</ele>
        <time>2021-07-18T14:20:57Z</time>
      </trkpt>
      <trkpt lat="43.43345" lon="-1.45781">
        <ele>5</ele>
        <time>2021-07-18T14:20:59Z</time>
      </trkpt>
      <trkpt lat="43.4334" lon="-1.45779">
        <ele>5.1</ele>
        <time>2021-07-18T14:21:00Z</time>
      </trkpt>
      <trkpt lat="43.43335" lon="-1.45777">
        <ele>5.1</ele>
        <time>2021-07-18T14:21:01Z</time>
      </trkpt>
      <trkpt lat="43.43324" lon="-1.45774">
        <ele>5.3</ele>
        <time>2021-07-18T14:21:03Z</time>
      </trkpt>
      <trkpt lat="43.43314" lon="-1.45774">
        <ele>5.5</ele>
        <time>2021-07-18T14:21:05Z</time>
      </trkpt>
      <trkpt lat="43.43307" lon="-1.45772">
        <ele>5.7</ele>
        <time>2021-07-18T14:21:07Z</time>
      </trkpt>
      <trkpt lat="43.43303" lon="-1.45771">
        <ele>5.7</ele>
        <time>2021-07-18T14:21:08Z</time>
      </trkpt>
      <trkpt lat="43.43302" lon="-1.4577">
        <ele>5.7</ele>
        <time>2021-07-18T14:21:09Z</time>
      </trkpt>
      <trkpt lat="43.433" lon="-1.45772">
        <ele>5.7</ele>
        <time>2021-07-18T14:21:11Z</time>
      </trkpt>
      <trkpt lat="43.433" lon="-1.45772">
        <ele>5.7</ele>
        <time>2021-07-18T14:21:13Z</time>
      </trkpt>
      <trkpt lat="43.433" lon="-1.45772">
        <ele>5.7</ele>
        <time>2021-07-18T14:21:15Z</time>
      </trkpt>
      <trkpt lat="43.433" lon="-1.45772">
        <ele>5.7</ele>
        <time>2021-07-18T14:21:16Z</time>
      </trkpt>
      <trkpt lat="43.43301" lon="-1.45773">
        <ele>5.7</ele>
        <time>2021-07-18T14:21:18Z</time>
      </trkpt>
      <trkpt lat="43.43301" lon="-1.45773">
        <ele>5.7</ele>
        <time>2021-07-18T14:21:19Z</time>
      </trkpt>
      <trkpt lat="43.43301" lon="-1.45773">
        <ele>5.7</ele>
        <time>2021-07-18T14:21:21Z</time>
      </trkpt>
      <trkpt lat="43.43299" lon="-1.4577">
        <ele>5.7</ele>
        <time>2021-07-18T14:21:41Z</time>
      </trkpt>
      <trkpt lat="43.43297" lon="-1.45768">
        <ele>5.6</ele>
        <time>2021-07-18T14:21:43Z</time>
      </trkpt>
      <trkpt lat="43.43297" lon="-1.45768">
        <ele>5.6</ele>
        <time>2021-07-18T14:21:45Z</time>
      </trkpt>
      <trkpt lat="43.43297" lon="-1.45769">
        <ele>5.6</ele>
        <time>2021-07-18T14:21:46Z</time>
      </trkpt>
      <trkpt lat="43.43297" lon="-1.45769">
        <ele>5.6</ele>
        <time>2021-07-18T14:21:48Z</time>
      </trkpt>
      <trkpt lat="43.43297" lon="-1.45769">
        <ele>5.6</ele>
        <time>2021-07-18T14:21:49Z</time>
      </trkpt>
      <trkpt lat="43.43297" lon="-1.45769">
        <ele>5.6</ele>
        <time>2021-07-18T14:21:51Z</time>
      </trkpt>
      <trkpt lat="43.43297" lon="-1.45769">
        <ele>5.6</ele>
        <time>2021-07-18T14:21:52Z</time>
      </trkpt>
      <trkpt lat="43.43296" lon="-1.45769">
        <ele>5.6</ele>
        <time>2021-07-18T14:21:54Z</time>
      </trkpt>
      <trkpt lat="43.43291" lon="-1.45763">
        <ele>5.5</ele>
        <time>2021-07-18T14:21:57Z</time>
      </trkpt>
      <trkpt lat="43.43288" lon="-1.4576">
        <ele>5.4</ele>
        <time>2021-07-18T14:21:58Z</time>
      </trkpt>
      <trkpt lat="43.43284" lon="-1.45758">
        <ele>5.3</ele>
        <time>2021-07-18T14:22:00Z</time>
      </trkpt>
      <trkpt lat="43.4328" lon="-1.45755">
        <ele>5.3</ele>
        <time>2021-07-18T14:22:01Z</time>
      </trkpt>
      <trkpt lat="43.43275" lon="-1.45753">
        <ele>5.2</ele>
        <time>2021-07-18T14:22:02Z</time>
      </trkpt>
      <trkpt lat="43.43266" lon="-1.45749">
        <ele>5.1</ele>
        <time>2021-07-18T14:22:04Z</time>
      </trkpt>
      <trkpt lat="43.43261" lon="-1.45747">
        <ele>5.1</ele>
        <time>2021-07-18T14:22:05Z</time>
      </trkpt>
      <trkpt lat="43.43252" lon="-1.45744">
        <ele>5</ele>
        <time>2021-07-18T14:22:07Z</time>
      </trkpt>
      <trkpt lat="43.43247" lon="-1.45742">
        <ele>5</ele>
        <time>2021-07-18T14:22:08Z</time>
      </trkpt>
      <trkpt lat="43.43242" lon="-1.45741">
        <ele>5</ele>
        <time>2021-07-18T14:22:09Z</time>
      </trkpt>
      <trkpt lat="43.43232" lon="-1.45743">
        <ele>5.1</ele>
        <time>2021-07-18T14:22:11Z</time>
      </trkpt>
      <trkpt lat="43.43228" lon="-1.45746">
        <ele>5.1</ele>
        <time>2021-07-18T14:22:12Z</time>
      </trkpt>
      <trkpt lat="43.4322" lon="-1.45756">
        <ele>5.2</ele>
        <time>2021-07-18T14:22:14Z</time>
      </trkpt>
      <trkpt lat="43.43217" lon="-1.45763">
        <ele>5.2</ele>
        <time>2021-07-18T14:22:15Z</time>
      </trkpt>
      <trkpt lat="43.43213" lon="-1.45775">
        <ele>5.2</ele>
        <time>2021-07-18T14:22:17Z</time>
      </trkpt>
      <trkpt lat="43.43212" lon="-1.45781">
        <ele>5.2</ele>
        <time>2021-07-18T14:22:18Z</time>
      </trkpt>
      <trkpt lat="43.4321" lon="-1.45793">
        <ele>5.3</ele>
        <time>2021-07-18T14:22:20Z</time>
      </trkpt>
      <trkpt lat="43.43209" lon="-1.45805">
        <ele>5.3</ele>
        <time>2021-07-18T14:22:22Z</time>
      </trkpt>
      <trkpt lat="43.43209" lon="-1.45815">
        <ele>5.3</ele>
        <time>2021-07-18T14:22:24Z</time>
      </trkpt>
      <trkpt lat="43.43209" lon="-1.4582">
        <ele>5.3</ele>
        <time>2021-07-18T14:22:25Z</time>
      </trkpt>
      <trkpt lat="43.43208" lon="-1.45826">
        <ele>5.4</ele>
        <time>2021-07-18T14:22:26Z</time>
      </trkpt>
      <trkpt lat="43.43206" lon="-1.45835">
        <ele>5.4</ele>
        <time>2021-07-18T14:22:28Z</time>
      </trkpt>
      <trkpt lat="43.43204" lon="-1.45843">
        <ele>5.4</ele>
        <time>2021-07-18T14:22:29Z</time>
      </trkpt>
      <trkpt lat="43.43202" lon="-1.45857">
        <ele>5.5</ele>
        <time>2021-07-18T14:22:31Z</time>
      </trkpt>
      <trkpt lat="43.43201" lon="-1.45863">
        <ele>5.5</ele>
        <time>2021-07-18T14:22:32Z</time>
      </trkpt>
      <trkpt lat="43.43199" lon="-1.45876">
        <ele>5.5</ele>
        <time>2021-07-18T14:22:34Z</time>
      </trkpt>
      <trkpt lat="43.43197" lon="-1.45888">
        <ele>5.5</ele>
        <time>2021-07-18T14:22:36Z</time>
      </trkpt>
      <trkpt lat="43.43195" lon="-1.45901">
        <ele>5.5</ele>
        <time>2021-07-18T14:22:38Z</time>
      </trkpt>
      <trkpt lat="43.43194" lon="-1.45907">
        <ele>5.5</ele>
        <time>2021-07-18T14:22:39Z</time>
      </trkpt>
      <trkpt lat="43.43193" lon="-1.45913">
        <ele>5.5</ele>
        <time>2021-07-18T14:22:40Z</time>
      </trkpt>
      <trkpt lat="43.43191" lon="-1.45926">
        <ele>5.4</ele>
        <time>2021-07-18T14:22:42Z</time>
      </trkpt>
      <trkpt lat="43.43189" lon="-1.4594">
        <ele>5.4</ele>
        <time>2021-07-18T14:22:44Z</time>
      </trkpt>
      <trkpt lat="43.43187" lon="-1.45946">
        <ele>5.4</ele>
        <time>2021-07-18T14:22:45Z</time>
      </trkpt>
      <trkpt lat="43.43185" lon="-1.45959">
        <ele>5.4</ele>
        <time>2021-07-18T14:22:47Z</time>
      </trkpt>
      <trkpt lat="43.43182" lon="-1.45972">
        <ele>5.4</ele>
        <time>2021-07-18T14:22:49Z</time>
      </trkpt>
      <trkpt lat="43.43179" lon="-1.45984">
        <ele>5.4</ele>
        <time>2021-07-18T14:22:51Z</time>
      </trkpt>
      <trkpt lat="43.43177" lon="-1.45991">
        <ele>5.4</ele>
        <time>2021-07-18T14:22:52Z</time>
      </trkpt>
      <trkpt lat="43.43175" lon="-1.45997">
        <ele>5.4</ele>
        <time>2021-07-18T14:22:53Z</time>
      </trkpt>
      <trkpt lat="43.43171" lon="-1.4601">
        <ele>5.4</ele>
        <time>2021-07-18T14:22:55Z</time>
      </trkpt>
      <trkpt lat="43.43168" lon="-1.46022">
        <ele>5.3</ele>
        <time>2021-07-18T14:22:57Z</time>
      </trkpt>
      <trkpt lat="43.43166" lon="-1.46028">
        <ele>5.3</ele>
        <time>2021-07-18T14:22:58Z</time>
      </trkpt>
      <trkpt lat="43.43164" lon="-1.46034">
        <ele>5.3</ele>
        <time>2021-07-18T14:22:59Z</time>
      </trkpt>
      <trkpt lat="43.43162" lon="-1.4604">
        <ele>5.2</ele>
        <time>2021-07-18T14:23:00Z</time>
      </trkpt>
      <trkpt lat="43.43158" lon="-1.46051">
        <ele>5.2</ele>
        <time>2021-07-18T14:23:02Z</time>
      </trkpt>
      <trkpt lat="43.43156" lon="-1.46057">
        <ele>5.2</ele>
        <time>2021-07-18T14:23:03Z</time>
      </trkpt>
      <trkpt lat="43.4315" lon="-1.46068">
        <ele>5.3</ele>
        <time>2021-07-18T14:23:05Z</time>
      </trkpt>
      <trkpt lat="43.43148" lon="-1.46074">
        <ele>5.3</ele>
        <time>2021-07-18T14:23:06Z</time>
      </trkpt>
      <trkpt lat="43.43142" lon="-1.46084">
        <ele>5.3</ele>
        <time>2021-07-18T14:23:08Z</time>
      </trkpt>
      <trkpt lat="43.43139" lon="-1.46088">
        <ele>5.3</ele>
        <time>2021-07-18T14:23:09Z</time>
      </trkpt>
      <trkpt lat="43.43133" lon="-1.46097">
        <ele>5.4</ele>
        <time>2021-07-18T14:23:11Z</time>
      </trkpt>
      <trkpt lat="43.43128" lon="-1.46104">
        <ele>5.4</ele>
        <time>2021-07-18T14:23:13Z</time>
      </trkpt>
      <trkpt lat="43.43124" lon="-1.46109">
        <ele>5.5</ele>
        <time>2021-07-18T14:23:14Z</time>
      </trkpt>
      <trkpt lat="43.43117" lon="-1.46116">
        <ele>5.5</ele>
        <time>2021-07-18T14:23:16Z</time>
      </trkpt>
      <trkpt lat="43.43113" lon="-1.46119">
        <ele>5.6</ele>
        <time>2021-07-18T14:23:17Z</time>
      </trkpt>
      <trkpt lat="43.43109" lon="-1.46121">
        <ele>5.6</ele>
        <time>2021-07-18T14:23:18Z</time>
      </trkpt>
      <trkpt lat="43.43104" lon="-1.46124">
        <ele>5.6</ele>
        <time>2021-07-18T14:23:19Z</time>
      </trkpt>
      <trkpt lat="43.43097" lon="-1.46126">
        <ele>5.6</ele>
        <time>2021-07-18T14:23:21Z</time>
      </trkpt>
      <trkpt lat="43.43093" lon="-1.46128">
        <ele>5.6</ele>
        <time>2021-07-18T14:23:22Z</time>
      </trkpt>
      <trkpt lat="43.43085" lon="-1.4613">
        <ele>5.7</ele>
        <time>2021-07-18T14:23:24Z</time>
      </trkpt>
      <trkpt lat="43.4308" lon="-1.46132">
        <ele>5.7</ele>
        <time>2021-07-18T14:23:25Z</time>
      </trkpt>
      <trkpt lat="43.43072" lon="-1.46134">
        <ele>5.7</ele>
        <time>2021-07-18T14:23:27Z</time>
      </trkpt>
      <trkpt lat="43.43064" lon="-1.46136">
        <ele>5.6</ele>
        <time>2021-07-18T14:23:29Z</time>
      </trkpt>
      <trkpt lat="43.43057" lon="-1.46138">
        <ele>5.6</ele>
        <time>2021-07-18T14:23:30Z</time>
      </trkpt>
      <trkpt lat="43.43052" lon="-1.46138">
        <ele>5.6</ele>
        <time>2021-07-18T14:23:31Z</time>
      </trkpt>
      <trkpt lat="43.43042" lon="-1.46136">
        <ele>5.5</ele>
        <time>2021-07-18T14:23:33Z</time>
      </trkpt>
      <trkpt lat="43.43037" lon="-1.46134">
        <ele>5.4</ele>
        <time>2021-07-18T14:23:34Z</time>
      </trkpt>
      <trkpt lat="43.43033" lon="-1.46132">
        <ele>5.4</ele>
        <time>2021-07-18T14:23:35Z</time>
      </trkpt>
      <trkpt lat="43.43028" lon="-1.4613">
        <ele>5.4</ele>
        <time>2021-07-18T14:23:36Z</time>
      </trkpt>
      <trkpt lat="43.43019" lon="-1.46127">
        <ele>5.4</ele>
        <time>2021-07-18T14:23:38Z</time>
      </trkpt>
      <trkpt lat="43.4301" lon="-1.46124">
        <ele>5.3</ele>
        <time>2021-07-18T14:23:40Z</time>
      </trkpt>
      <trkpt lat="43.43" lon="-1.4612">
        <ele>5.3</ele>
        <time>2021-07-18T14:23:42Z</time>
      </trkpt>
      <trkpt lat="43.42995" lon="-1.46118">
        <ele>5.3</ele>
        <time>2021-07-18T14:23:43Z</time>
      </trkpt>
      <trkpt lat="43.42986" lon="-1.46116">
        <ele>5.3</ele>
        <time>2021-07-18T14:23:45Z</time>
      </trkpt>
      <trkpt lat="43.42976" lon="-1.46113">
        <ele>5.3</ele>
        <time>2021-07-18T14:23:47Z</time>
      </trkpt>
      <trkpt lat="43.42966" lon="-1.4611">
        <ele>5.3</ele>
        <time>2021-07-18T14:23:49Z</time>
      </trkpt>
      <trkpt lat="43.42957" lon="-1.46107">
        <ele>5.3</ele>
        <time>2021-07-18T14:23:51Z</time>
      </trkpt>
      <trkpt lat="43.42952" lon="-1.46105">
        <ele>5.3</ele>
        <time>2021-07-18T14:23:52Z</time>
      </trkpt>
      <trkpt lat="43.42942" lon="-1.46101">
        <ele>5.3</ele>
        <time>2021-07-18T14:23:54Z</time>
      </trkpt>
      <trkpt lat="43.42932" lon="-1.46096">
        <ele>5.3</ele>
        <time>2021-07-18T14:23:56Z</time>
      </trkpt>
      <trkpt lat="43.42928" lon="-1.46094">
        <ele>5.3</ele>
        <time>2021-07-18T14:23:57Z</time>
      </trkpt>
      <trkpt lat="43.42923" lon="-1.46092">
        <ele>5.3</ele>
        <time>2021-07-18T14:23:58Z</time>
      </trkpt>
      <trkpt lat="43.42914" lon="-1.46087">
        <ele>5.4</ele>
        <time>2021-07-18T14:24:00Z</time>
      </trkpt>
      <trkpt lat="43.4291" lon="-1.46084">
        <ele>5.4</ele>
        <time>2021-07-18T14:24:01Z</time>
      </trkpt>
      <trkpt lat="43.42901" lon="-1.46079">
        <ele>5.4</ele>
        <time>2021-07-18T14:24:03Z</time>
      </trkpt>
      <trkpt lat="43.42896" lon="-1.46078">
        <ele>5.4</ele>
        <time>2021-07-18T14:24:04Z</time>
      </trkpt>
      <trkpt lat="43.42892" lon="-1.46076">
        <ele>5.4</ele>
        <time>2021-07-18T14:24:05Z</time>
      </trkpt>
      <trkpt lat="43.42887" lon="-1.46074">
        <ele>5.4</ele>
        <time>2021-07-18T14:24:06Z</time>
      </trkpt>
      <trkpt lat="43.42878" lon="-1.4607">
        <ele>5.4</ele>
        <time>2021-07-18T14:24:08Z</time>
      </trkpt>
      <trkpt lat="43.42873" lon="-1.46069">
        <ele>5.4</ele>
        <time>2021-07-18T14:24:09Z</time>
      </trkpt>
      <trkpt lat="43.42864" lon="-1.46065">
        <ele>5.4</ele>
        <time>2021-07-18T14:24:11Z</time>
      </trkpt>
      <trkpt lat="43.42855" lon="-1.46061">
        <ele>5.4</ele>
        <time>2021-07-18T14:24:13Z</time>
      </trkpt>
      <trkpt lat="43.4285" lon="-1.4606">
        <ele>5.4</ele>
        <time>2021-07-18T14:24:14Z</time>
      </trkpt>
      <trkpt lat="43.42845" lon="-1.46058">
        <ele>5.4</ele>
        <time>2021-07-18T14:24:15Z</time>
      </trkpt>
      <trkpt lat="43.4284" lon="-1.46057">
        <ele>5.3</ele>
        <time>2021-07-18T14:24:16Z</time>
      </trkpt>
      <trkpt lat="43.42831" lon="-1.46054">
        <ele>5.3</ele>
        <time>2021-07-18T14:24:18Z</time>
      </trkpt>
      <trkpt lat="43.42826" lon="-1.46053">
        <ele>5.3</ele>
        <time>2021-07-18T14:24:19Z</time>
      </trkpt>
      <trkpt lat="43.42821" lon="-1.46051">
        <ele>5.3</ele>
        <time>2021-07-18T14:24:20Z</time>
      </trkpt>
      <trkpt lat="43.42816" lon="-1.46049">
        <ele>5.4</ele>
        <time>2021-07-18T14:24:21Z</time>
      </trkpt>
      <trkpt lat="43.42806" lon="-1.46045">
        <ele>5.4</ele>
        <time>2021-07-18T14:24:23Z</time>
      </trkpt>
      <trkpt lat="43.42801" lon="-1.46043">
        <ele>5.4</ele>
        <time>2021-07-18T14:24:24Z</time>
      </trkpt>
      <trkpt lat="43.42792" lon="-1.4604">
        <ele>5.4</ele>
        <time>2021-07-18T14:24:26Z</time>
      </trkpt>
      <trkpt lat="43.42787" lon="-1.46039">
        <ele>5.4</ele>
        <time>2021-07-18T14:24:27Z</time>
      </trkpt>
      <trkpt lat="43.42782" lon="-1.46037">
        <ele>5.4</ele>
        <time>2021-07-18T14:24:28Z</time>
      </trkpt>
      <trkpt lat="43.42777" lon="-1.46036">
        <ele>5.4</ele>
        <time>2021-07-18T14:24:29Z</time>
      </trkpt>
      <trkpt lat="43.42768" lon="-1.46032">
        <ele>5.4</ele>
        <time>2021-07-18T14:24:31Z</time>
      </trkpt>
      <trkpt lat="43.42763" lon="-1.46031">
        <ele>5.4</ele>
        <time>2021-07-18T14:24:32Z</time>
      </trkpt>
      <trkpt lat="43.42757" lon="-1.46029">
        <ele>5.4</ele>
        <time>2021-07-18T14:24:33Z</time>
      </trkpt>
      <trkpt lat="43.42747" lon="-1.46026">
        <ele>5.4</ele>
        <time>2021-07-18T14:24:35Z</time>
      </trkpt>
      <trkpt lat="43.42737" lon="-1.46024">
        <ele>5.4</ele>
        <time>2021-07-18T14:24:37Z</time>
      </trkpt>
      <trkpt lat="43.42726" lon="-1.46021">
        <ele>5.4</ele>
        <time>2021-07-18T14:24:39Z</time>
      </trkpt>
      <trkpt lat="43.42716" lon="-1.46018">
        <ele>5.4</ele>
        <time>2021-07-18T14:24:41Z</time>
      </trkpt>
      <trkpt lat="43.42706" lon="-1.46015">
        <ele>5.4</ele>
        <time>2021-07-18T14:24:43Z</time>
      </trkpt>
      <trkpt lat="43.42696" lon="-1.46014">
        <ele>5.5</ele>
        <time>2021-07-18T14:24:45Z</time>
      </trkpt>
      <trkpt lat="43.42686" lon="-1.4602">
        <ele>5.5</ele>
        <time>2021-07-18T14:24:47Z</time>
      </trkpt>
      <trkpt lat="43.42683" lon="-1.46025">
        <ele>5.5</ele>
        <time>2021-07-18T14:24:48Z</time>
      </trkpt>
      <trkpt lat="43.42678" lon="-1.46039">
        <ele>5.6</ele>
        <time>2021-07-18T14:24:50Z</time>
      </trkpt>
      <trkpt lat="43.42673" lon="-1.46048">
        <ele>5.6</ele>
        <time>2021-07-18T14:24:52Z</time>
      </trkpt>
      <trkpt lat="43.42663" lon="-1.46049">
        <ele>5.7</ele>
        <time>2021-07-18T14:24:54Z</time>
      </trkpt>
      <trkpt lat="43.42658" lon="-1.46046">
        <ele>5.7</ele>
        <time>2021-07-18T14:24:55Z</time>
      </trkpt>
      <trkpt lat="43.42649" lon="-1.46041">
        <ele>5.6</ele>
        <time>2021-07-18T14:24:57Z</time>
      </trkpt>
      <trkpt lat="43.42645" lon="-1.46038">
        <ele>5.6</ele>
        <time>2021-07-18T14:24:58Z</time>
      </trkpt>
      <trkpt lat="43.42636" lon="-1.46033">
        <ele>5.7</ele>
        <time>2021-07-18T14:25:00Z</time>
      </trkpt>
      <trkpt lat="43.42627" lon="-1.46026">
        <ele>5.7</ele>
        <time>2021-07-18T14:25:02Z</time>
      </trkpt>
      <trkpt lat="43.42618" lon="-1.4602">
        <ele>5.8</ele>
        <time>2021-07-18T14:25:04Z</time>
      </trkpt>
      <trkpt lat="43.42609" lon="-1.46015">
        <ele>5.7</ele>
        <time>2021-07-18T14:25:06Z</time>
      </trkpt>
      <trkpt lat="43.42599" lon="-1.46011">
        <ele>5.6</ele>
        <time>2021-07-18T14:25:08Z</time>
      </trkpt>
      <trkpt lat="43.42595" lon="-1.4601">
        <ele>5.6</ele>
        <time>2021-07-18T14:25:10Z</time>
      </trkpt>
      <trkpt lat="43.42596" lon="-1.4601">
        <ele>5.6</ele>
        <time>2021-07-18T14:25:12Z</time>
      </trkpt>
      <trkpt lat="43.42597" lon="-1.4601">
        <ele>5.7</ele>
        <time>2021-07-18T14:25:14Z</time>
      </trkpt>
      <trkpt lat="43.42597" lon="-1.4601">
        <ele>5.7</ele>
        <time>2021-07-18T14:25:16Z</time>
      </trkpt>
      <trkpt lat="43.42597" lon="-1.46009">
        <ele>5.7</ele>
        <time>2021-07-18T14:25:17Z</time>
      </trkpt>
      <trkpt lat="43.42597" lon="-1.46009">
        <ele>5.7</ele>
        <time>2021-07-18T14:25:18Z</time>
      </trkpt>
      <trkpt lat="43.42597" lon="-1.46009">
        <ele>5.7</ele>
        <time>2021-07-18T14:25:20Z</time>
      </trkpt>
      <trkpt lat="43.42598" lon="-1.46008">
        <ele>5.7</ele>
        <time>2021-07-18T14:25:27Z</time>
      </trkpt>
      <trkpt lat="43.42598" lon="-1.46006">
        <ele>5.7</ele>
        <time>2021-07-18T14:25:28Z</time>
      </trkpt>
      <trkpt lat="43.42599" lon="-1.46007">
        <ele>5.7</ele>
        <time>2021-07-18T14:25:29Z</time>
      </trkpt>
      <trkpt lat="43.42602" lon="-1.46008">
        <ele>5.7</ele>
        <time>2021-07-18T14:25:31Z</time>
      </trkpt>
      <trkpt lat="43.42605" lon="-1.4601">
        <ele>5.7</ele>
        <time>2021-07-18T14:25:32Z</time>
      </trkpt>
      <trkpt lat="43.42606" lon="-1.4601">
        <ele>5.7</ele>
        <time>2021-07-18T14:25:33Z</time>
      </trkpt>
      <trkpt lat="43.42611" lon="-1.46012">
        <ele>5.8</ele>
        <time>2021-07-18T14:25:35Z</time>
      </trkpt>
      <trkpt lat="43.42613" lon="-1.46012">
        <ele>5.8</ele>
        <time>2021-07-18T14:25:36Z</time>
      </trkpt>
      <trkpt lat="43.42616" lon="-1.46012">
        <ele>5.8</ele>
        <time>2021-07-18T14:25:38Z</time>
      </trkpt>
      <trkpt lat="43.42619" lon="-1.46008">
        <ele>5.8</ele>
        <time>2021-07-18T14:25:39Z</time>
      </trkpt>
      <trkpt lat="43.42621" lon="-1.46005">
        <ele>5.8</ele>
        <time>2021-07-18T14:25:40Z</time>
      </trkpt>
      <trkpt lat="43.42621" lon="-1.46001">
        <ele>5.8</ele>
        <time>2021-07-18T14:25:41Z</time>
      </trkpt>
      <trkpt lat="43.4262" lon="-1.45992">
        <ele>5.8</ele>
        <time>2021-07-18T14:25:43Z</time>
      </trkpt>
      <trkpt lat="43.42619" lon="-1.45987">
        <ele>5.8</ele>
        <time>2021-07-18T14:25:44Z</time>
      </trkpt>
      <trkpt lat="43.42615" lon="-1.4598">
        <ele>5.8</ele>
        <time>2021-07-18T14:25:46Z</time>
      </trkpt>
      <trkpt lat="43.42611" lon="-1.45975">
        <ele>5.8</ele>
        <time>2021-07-18T14:25:47Z</time>
      </trkpt>
      <trkpt lat="43.42605" lon="-1.45968">
        <ele>5.8</ele>
        <time>2021-07-18T14:25:49Z</time>
      </trkpt>
      <trkpt lat="43.42603" lon="-1.45965">
        <ele>5.8</ele>
        <time>2021-07-18T14:25:50Z</time>
      </trkpt>
      <trkpt lat="43.42601" lon="-1.45962">
        <ele>5.8</ele>
        <time>2021-07-18T14:25:51Z</time>
      </trkpt>
      <trkpt lat="43.42596" lon="-1.45956">
        <ele>5.8</ele>
        <time>2021-07-18T14:25:53Z</time>
      </trkpt>
      <trkpt lat="43.42592" lon="-1.45952">
        <ele>5.8</ele>
        <time>2021-07-18T14:25:54Z</time>
      </trkpt>
      <trkpt lat="43.42584" lon="-1.45943">
        <ele>5.7</ele>
        <time>2021-07-18T14:25:56Z</time>
      </trkpt>
      <trkpt lat="43.4258" lon="-1.45939">
        <ele>5.7</ele>
        <time>2021-07-18T14:25:57Z</time>
      </trkpt>
      <trkpt lat="43.42576" lon="-1.45934">
        <ele>5.6</ele>
        <time>2021-07-18T14:25:58Z</time>
      </trkpt>
      <trkpt lat="43.42568" lon="-1.45925">
        <ele>5.6</ele>
        <time>2021-07-18T14:26:00Z</time>
      </trkpt>
      <trkpt lat="43.42565" lon="-1.45921">
        <ele>5.6</ele>
        <time>2021-07-18T14:26:01Z</time>
      </trkpt>
      <trkpt lat="43.42557" lon="-1.45913">
        <ele>5.6</ele>
        <time>2021-07-18T14:26:03Z</time>
      </trkpt>
      <trkpt lat="43.42553" lon="-1.45911">
        <ele>5.6</ele>
        <time>2021-07-18T14:26:04Z</time>
      </trkpt>
      <trkpt lat="43.42545" lon="-1.45905">
        <ele>5.6</ele>
        <time>2021-07-18T14:26:06Z</time>
      </trkpt>
      <trkpt lat="43.4254" lon="-1.45899">
        <ele>5.6</ele>
        <time>2021-07-18T14:26:08Z</time>
      </trkpt>
      <trkpt lat="43.42528" lon="-1.45893">
        <ele>5.5</ele>
        <time>2021-07-18T14:26:10Z</time>
      </trkpt>
      <trkpt lat="43.42517" lon="-1.45889">
        <ele>5.4</ele>
        <time>2021-07-18T14:26:12Z</time>
      </trkpt>
      <trkpt lat="43.42507" lon="-1.45884">
        <ele>5.3</ele>
        <time>2021-07-18T14:26:14Z</time>
      </trkpt>
      <trkpt lat="43.42497" lon="-1.4588">
        <ele>5.3</ele>
        <time>2021-07-18T14:26:16Z</time>
      </trkpt>
      <trkpt lat="43.42488" lon="-1.45875">
        <ele>5.2</ele>
        <time>2021-07-18T14:26:18Z</time>
      </trkpt>
      <trkpt lat="43.4248" lon="-1.45868">
        <ele>5.2</ele>
        <time>2021-07-18T14:26:20Z</time>
      </trkpt>
      <trkpt lat="43.42476" lon="-1.45863">
        <ele>5.2</ele>
        <time>2021-07-18T14:26:21Z</time>
      </trkpt>
      <trkpt lat="43.42467" lon="-1.45855">
        <ele>5.1</ele>
        <time>2021-07-18T14:26:23Z</time>
      </trkpt>
      <trkpt lat="43.42463" lon="-1.45851">
        <ele>5.1</ele>
        <time>2021-07-18T14:26:24Z</time>
      </trkpt>
      <trkpt lat="43.42455" lon="-1.45843">
        <ele>5.1</ele>
        <time>2021-07-18T14:26:26Z</time>
      </trkpt>
      <trkpt lat="43.42446" lon="-1.45835">
        <ele>5.1</ele>
        <time>2021-07-18T14:26:28Z</time>
      </trkpt>
      <trkpt lat="43.42442" lon="-1.45831">
        <ele>5.1</ele>
        <time>2021-07-18T14:26:29Z</time>
      </trkpt>
      <trkpt lat="43.42435" lon="-1.4582">
        <ele>5.1</ele>
        <time>2021-07-18T14:26:31Z</time>
      </trkpt>
      <trkpt lat="43.42431" lon="-1.45814">
        <ele>5.1</ele>
        <time>2021-07-18T14:26:32Z</time>
      </trkpt>
      <trkpt lat="43.42427" lon="-1.45809">
        <ele>5.1</ele>
        <time>2021-07-18T14:26:33Z</time>
      </trkpt>
      <trkpt lat="43.42419" lon="-1.458">
        <ele>5.1</ele>
        <time>2021-07-18T14:26:35Z</time>
      </trkpt>
      <trkpt lat="43.42415" lon="-1.45797">
        <ele>5</ele>
        <time>2021-07-18T14:26:36Z</time>
      </trkpt>
      <trkpt lat="43.42406" lon="-1.45788">
        <ele>5</ele>
        <time>2021-07-18T14:26:38Z</time>
      </trkpt>
      <trkpt lat="43.42397" lon="-1.45779">
        <ele>5.1</ele>
        <time>2021-07-18T14:26:40Z</time>
      </trkpt>
      <trkpt lat="43.42389" lon="-1.45771">
        <ele>5.1</ele>
        <time>2021-07-18T14:26:42Z</time>
      </trkpt>
      <trkpt lat="43.42384" lon="-1.45768">
        <ele>5.1</ele>
        <time>2021-07-18T14:26:43Z</time>
      </trkpt>
      <trkpt lat="43.42374" lon="-1.45763">
        <ele>5.2</ele>
        <time>2021-07-18T14:26:45Z</time>
      </trkpt>
      <trkpt lat="43.42365" lon="-1.45759">
        <ele>5.3</ele>
        <time>2021-07-18T14:26:47Z</time>
      </trkpt>
      <trkpt lat="43.42356" lon="-1.45756">
        <ele>5.4</ele>
        <time>2021-07-18T14:26:49Z</time>
      </trkpt>
      <trkpt lat="43.42351" lon="-1.45753">
        <ele>5.4</ele>
        <time>2021-07-18T14:26:50Z</time>
      </trkpt>
      <trkpt lat="43.42345" lon="-1.45751">
        <ele>5.5</ele>
        <time>2021-07-18T14:26:51Z</time>
      </trkpt>
      <trkpt lat="43.42341" lon="-1.45749">
        <ele>5.5</ele>
        <time>2021-07-18T14:26:52Z</time>
      </trkpt>
      <trkpt lat="43.4233" lon="-1.45746">
        <ele>5.5</ele>
        <time>2021-07-18T14:26:54Z</time>
      </trkpt>
      <trkpt lat="43.4232" lon="-1.45744">
        <ele>5.5</ele>
        <time>2021-07-18T14:26:56Z</time>
      </trkpt>
      <trkpt lat="43.42309" lon="-1.45741">
        <ele>5.5</ele>
        <time>2021-07-18T14:26:58Z</time>
      </trkpt>
      <trkpt lat="43.42299" lon="-1.4574">
        <ele>5.5</ele>
        <time>2021-07-18T14:27:00Z</time>
      </trkpt>
      <trkpt lat="43.42289" lon="-1.45739">
        <ele>5.5</ele>
        <time>2021-07-18T14:27:02Z</time>
      </trkpt>
      <trkpt lat="43.42284" lon="-1.45739">
        <ele>5.5</ele>
        <time>2021-07-18T14:27:03Z</time>
      </trkpt>
      <trkpt lat="43.42279" lon="-1.45739">
        <ele>5.5</ele>
        <time>2021-07-18T14:27:04Z</time>
      </trkpt>
      <trkpt lat="43.4227" lon="-1.4574">
        <ele>5.5</ele>
        <time>2021-07-18T14:27:06Z</time>
      </trkpt>
      <trkpt lat="43.42265" lon="-1.45739">
        <ele>5.5</ele>
        <time>2021-07-18T14:27:07Z</time>
      </trkpt>
      <trkpt lat="43.4226" lon="-1.45739">
        <ele>5.5</ele>
        <time>2021-07-18T14:27:08Z</time>
      </trkpt>
      <trkpt lat="43.42251" lon="-1.4574">
        <ele>5.5</ele>
        <time>2021-07-18T14:27:10Z</time>
      </trkpt>
      <trkpt lat="43.42241" lon="-1.45739">
        <ele>5.5</ele>
        <time>2021-07-18T14:27:12Z</time>
      </trkpt>
      <trkpt lat="43.42231" lon="-1.45739">
        <ele>5.5</ele>
        <time>2021-07-18T14:27:14Z</time>
      </trkpt>
      <trkpt lat="43.42221" lon="-1.45738">
        <ele>5.5</ele>
        <time>2021-07-18T14:27:16Z</time>
      </trkpt>
      <trkpt lat="43.42216" lon="-1.45738">
        <ele>5.4</ele>
        <time>2021-07-18T14:27:17Z</time>
      </trkpt>
      <trkpt lat="43.42211" lon="-1.45737">
        <ele>5.4</ele>
        <time>2021-07-18T14:27:18Z</time>
      </trkpt>
      <trkpt lat="43.42201" lon="-1.45736">
        <ele>5.4</ele>
        <time>2021-07-18T14:27:20Z</time>
      </trkpt>
      <trkpt lat="43.42191" lon="-1.45734">
        <ele>5.4</ele>
        <time>2021-07-18T14:27:22Z</time>
      </trkpt>
      <trkpt lat="43.42186" lon="-1.45732">
        <ele>5.4</ele>
        <time>2021-07-18T14:27:23Z</time>
      </trkpt>
      <trkpt lat="43.42176" lon="-1.4573">
        <ele>5.4</ele>
        <time>2021-07-18T14:27:25Z</time>
      </trkpt>
      <trkpt lat="43.42166" lon="-1.45725">
        <ele>5.5</ele>
        <time>2021-07-18T14:27:27Z</time>
      </trkpt>
      <trkpt lat="43.42157" lon="-1.45721">
        <ele>5.5</ele>
        <time>2021-07-18T14:27:29Z</time>
      </trkpt>
      <trkpt lat="43.42153" lon="-1.45719">
        <ele>5.5</ele>
        <time>2021-07-18T14:27:30Z</time>
      </trkpt>
      <trkpt lat="43.42149" lon="-1.45717">
        <ele>5.6</ele>
        <time>2021-07-18T14:27:31Z</time>
      </trkpt>
      <trkpt lat="43.4214" lon="-1.45713">
        <ele>5.6</ele>
        <time>2021-07-18T14:27:33Z</time>
      </trkpt>
      <trkpt lat="43.42136" lon="-1.45711">
        <ele>5.7</ele>
        <time>2021-07-18T14:27:34Z</time>
      </trkpt>
      <trkpt lat="43.42127" lon="-1.45706">
        <ele>5.7</ele>
        <time>2021-07-18T14:27:36Z</time>
      </trkpt>
      <trkpt lat="43.42123" lon="-1.45703">
        <ele>5.7</ele>
        <time>2021-07-18T14:27:37Z</time>
      </trkpt>
      <trkpt lat="43.42114" lon="-1.45698">
        <ele>5.7</ele>
        <time>2021-07-18T14:27:39Z</time>
      </trkpt>
      <trkpt lat="43.42109" lon="-1.45695">
        <ele>5.8</ele>
        <time>2021-07-18T14:27:40Z</time>
      </trkpt>
      <trkpt lat="43.42101" lon="-1.45689">
        <ele>5.8</ele>
        <time>2021-07-18T14:27:42Z</time>
      </trkpt>
      <trkpt lat="43.42095" lon="-1.45681">
        <ele>5.9</ele>
        <time>2021-07-18T14:27:44Z</time>
      </trkpt>
      <trkpt lat="43.4209" lon="-1.45673">
        <ele>5.8</ele>
        <time>2021-07-18T14:27:46Z</time>
      </trkpt>
      <trkpt lat="43.42084" lon="-1.45664">
        <ele>5.7</ele>
        <time>2021-07-18T14:27:48Z</time>
      </trkpt>
      <trkpt lat="43.42077" lon="-1.45653">
        <ele>5.6</ele>
        <time>2021-07-18T14:27:50Z</time>
      </trkpt>
      <trkpt lat="43.42069" lon="-1.45641">
        <ele>5.5</ele>
        <time>2021-07-18T14:27:52Z</time>
      </trkpt>
      <trkpt lat="43.42062" lon="-1.45629">
        <ele>5.5</ele>
        <time>2021-07-18T14:27:54Z</time>
      </trkpt>
      <trkpt lat="43.42055" lon="-1.45618">
        <ele>5.5</ele>
        <time>2021-07-18T14:27:56Z</time>
      </trkpt>
      <trkpt lat="43.42049" lon="-1.45608">
        <ele>5.5</ele>
        <time>2021-07-18T14:27:58Z</time>
      </trkpt>
      <trkpt lat="43.42043" lon="-1.45597">
        <ele>5.6</ele>
        <time>2021-07-18T14:28:00Z</time>
      </trkpt>
      <trkpt lat="43.4204" lon="-1.45592">
        <ele>5.6</ele>
        <time>2021-07-18T14:28:01Z</time>
      </trkpt>
      <trkpt lat="43.42037" lon="-1.45587">
        <ele>5.6</ele>
        <time>2021-07-18T14:28:02Z</time>
      </trkpt>
      <trkpt lat="43.4203" lon="-1.45578">
        <ele>5.7</ele>
        <time>2021-07-18T14:28:04Z</time>
      </trkpt>
      <trkpt lat="43.42026" lon="-1.45573">
        <ele>5.7</ele>
        <time>2021-07-18T14:28:05Z</time>
      </trkpt>
      <trkpt lat="43.42018" lon="-1.45567">
        <ele>5.8</ele>
        <time>2021-07-18T14:28:07Z</time>
      </trkpt>
      <trkpt lat="43.42013" lon="-1.45565">
        <ele>5.8</ele>
        <time>2021-07-18T14:28:08Z</time>
      </trkpt>
      <trkpt lat="43.42008" lon="-1.45564">
        <ele>5.8</ele>
        <time>2021-07-18T14:28:09Z</time>
      </trkpt>
      <trkpt lat="43.42003" lon="-1.45564">
        <ele>5.9</ele>
        <time>2021-07-18T14:28:10Z</time>
      </trkpt>
      <trkpt lat="43.41993" lon="-1.45565">
        <ele>5.9</ele>
        <time>2021-07-18T14:28:12Z</time>
      </trkpt>
      <trkpt lat="43.41984" lon="-1.45568">
        <ele>6</ele>
        <time>2021-07-18T14:28:14Z</time>
      </trkpt>
      <trkpt lat="43.41974" lon="-1.45571">
        <ele>6</ele>
        <time>2021-07-18T14:28:16Z</time>
      </trkpt>
      <trkpt lat="43.41965" lon="-1.45577">
        <ele>6</ele>
        <time>2021-07-18T14:28:18Z</time>
      </trkpt>
      <trkpt lat="43.41961" lon="-1.4558">
        <ele>6</ele>
        <time>2021-07-18T14:28:19Z</time>
      </trkpt>
      <trkpt lat="43.41954" lon="-1.45585">
        <ele>6</ele>
        <time>2021-07-18T14:28:21Z</time>
      </trkpt>
      <trkpt lat="43.41949" lon="-1.45587">
        <ele>6</ele>
        <time>2021-07-18T14:28:22Z</time>
      </trkpt>
      <trkpt lat="43.41945" lon="-1.4559">
        <ele>6</ele>
        <time>2021-07-18T14:28:23Z</time>
      </trkpt>
      <trkpt lat="43.41936" lon="-1.45597">
        <ele>6</ele>
        <time>2021-07-18T14:28:25Z</time>
      </trkpt>
      <trkpt lat="43.41928" lon="-1.45604">
        <ele>5.9</ele>
        <time>2021-07-18T14:28:27Z</time>
      </trkpt>
      <trkpt lat="43.41924" lon="-1.45607">
        <ele>5.9</ele>
        <time>2021-07-18T14:28:28Z</time>
      </trkpt>
      <trkpt lat="43.41916" lon="-1.45614">
        <ele>5.9</ele>
        <time>2021-07-18T14:28:30Z</time>
      </trkpt>
      <trkpt lat="43.41912" lon="-1.45618">
        <ele>6</ele>
        <time>2021-07-18T14:28:31Z</time>
      </trkpt>
      <trkpt lat="43.41903" lon="-1.45625">
        <ele>6</ele>
        <time>2021-07-18T14:28:33Z</time>
      </trkpt>
      <trkpt lat="43.41899" lon="-1.45629">
        <ele>6</ele>
        <time>2021-07-18T14:28:34Z</time>
      </trkpt>
      <trkpt lat="43.41895" lon="-1.45632">
        <ele>6</ele>
        <time>2021-07-18T14:28:35Z</time>
      </trkpt>
      <trkpt lat="43.41888" lon="-1.45639">
        <ele>6</ele>
        <time>2021-07-18T14:28:37Z</time>
      </trkpt>
      <trkpt lat="43.41884" lon="-1.45642">
        <ele>6</ele>
        <time>2021-07-18T14:28:38Z</time>
      </trkpt>
      <trkpt lat="43.4188" lon="-1.45645">
        <ele>6</ele>
        <time>2021-07-18T14:28:39Z</time>
      </trkpt>
      <trkpt lat="43.41877" lon="-1.45646">
        <ele>6</ele>
        <time>2021-07-18T14:28:40Z</time>
      </trkpt>
      <trkpt lat="43.41873" lon="-1.45649">
        <ele>6</ele>
        <time>2021-07-18T14:28:41Z</time>
      </trkpt>
      <trkpt lat="43.41865" lon="-1.45655">
        <ele>6</ele>
        <time>2021-07-18T14:28:43Z</time>
      </trkpt>
      <trkpt lat="43.41859" lon="-1.45661">
        <ele>6.1</ele>
        <time>2021-07-18T14:28:45Z</time>
      </trkpt>
      <trkpt lat="43.41855" lon="-1.45664">
        <ele>6</ele>
        <time>2021-07-18T14:28:46Z</time>
      </trkpt>
      <trkpt lat="43.41849" lon="-1.45669">
        <ele>6</ele>
        <time>2021-07-18T14:28:47Z</time>
      </trkpt>
      <trkpt lat="43.41845" lon="-1.45672">
        <ele>6</ele>
        <time>2021-07-18T14:28:49Z</time>
      </trkpt>
      <trkpt lat="43.4184" lon="-1.45676">
        <ele>6</ele>
        <time>2021-07-18T14:28:50Z</time>
      </trkpt>
      <trkpt lat="43.41837" lon="-1.45679">
        <ele>6</ele>
        <time>2021-07-18T14:28:51Z</time>
      </trkpt>
      <trkpt lat="43.41833" lon="-1.45682">
        <ele>6</ele>
        <time>2021-07-18T14:28:52Z</time>
      </trkpt>
      <trkpt lat="43.41825" lon="-1.45689">
        <ele>5.9</ele>
        <time>2021-07-18T14:28:54Z</time>
      </trkpt>
      <trkpt lat="43.41817" lon="-1.45694">
        <ele>5.9</ele>
        <time>2021-07-18T14:28:56Z</time>
      </trkpt>
      <trkpt lat="43.41813" lon="-1.45697">
        <ele>5.9</ele>
        <time>2021-07-18T14:28:57Z</time>
      </trkpt>
      <trkpt lat="43.41807" lon="-1.45702">
        <ele>5.9</ele>
        <time>2021-07-18T14:28:59Z</time>
      </trkpt>
      <trkpt lat="43.41803" lon="-1.45706">
        <ele>5.9</ele>
        <time>2021-07-18T14:29:00Z</time>
      </trkpt>
      <trkpt lat="43.41799" lon="-1.45709">
        <ele>5.9</ele>
        <time>2021-07-18T14:29:01Z</time>
      </trkpt>
      <trkpt lat="43.41793" lon="-1.45712">
        <ele>5.9</ele>
        <time>2021-07-18T14:29:03Z</time>
      </trkpt>
      <trkpt lat="43.41787" lon="-1.45717">
        <ele>5.9</ele>
        <time>2021-07-18T14:29:04Z</time>
      </trkpt>
      <trkpt lat="43.41782" lon="-1.45721">
        <ele>5.9</ele>
        <time>2021-07-18T14:29:06Z</time>
      </trkpt>
      <trkpt lat="43.41778" lon="-1.45724">
        <ele>5.9</ele>
        <time>2021-07-18T14:29:07Z</time>
      </trkpt>
      <trkpt lat="43.41773" lon="-1.45727">
        <ele>6</ele>
        <time>2021-07-18T14:29:08Z</time>
      </trkpt>
      <trkpt lat="43.41767" lon="-1.45731">
        <ele>6</ele>
        <time>2021-07-18T14:29:09Z</time>
      </trkpt>
      <trkpt lat="43.41761" lon="-1.45735">
        <ele>6</ele>
        <time>2021-07-18T14:29:11Z</time>
      </trkpt>
      <trkpt lat="43.41756" lon="-1.45738">
        <ele>6</ele>
        <time>2021-07-18T14:29:13Z</time>
      </trkpt>
      <trkpt lat="43.41751" lon="-1.45741">
        <ele>6</ele>
        <time>2021-07-18T14:29:14Z</time>
      </trkpt>
      <trkpt lat="43.41746" lon="-1.45744">
        <ele>6.1</ele>
        <time>2021-07-18T14:29:15Z</time>
      </trkpt>
      <trkpt lat="43.41741" lon="-1.45746">
        <ele>6.1</ele>
        <time>2021-07-18T14:29:17Z</time>
      </trkpt>
      <trkpt lat="43.41737" lon="-1.45748">
        <ele>6.1</ele>
        <time>2021-07-18T14:29:18Z</time>
      </trkpt>
      <trkpt lat="43.41733" lon="-1.45749">
        <ele>6</ele>
        <time>2021-07-18T14:29:19Z</time>
      </trkpt>
      <trkpt lat="43.41726" lon="-1.45752">
        <ele>6</ele>
        <time>2021-07-18T14:29:21Z</time>
      </trkpt>
      <trkpt lat="43.41721" lon="-1.45754">
        <ele>6</ele>
        <time>2021-07-18T14:29:22Z</time>
      </trkpt>
      <trkpt lat="43.41713" lon="-1.45758">
        <ele>5.9</ele>
        <time>2021-07-18T14:29:24Z</time>
      </trkpt>
      <trkpt lat="43.41709" lon="-1.4576">
        <ele>5.9</ele>
        <time>2021-07-18T14:29:25Z</time>
      </trkpt>
      <trkpt lat="43.41705" lon="-1.45761">
        <ele>5.9</ele>
        <time>2021-07-18T14:29:26Z</time>
      </trkpt>
      <trkpt lat="43.41696" lon="-1.45764">
        <ele>5.9</ele>
        <time>2021-07-18T14:29:28Z</time>
      </trkpt>
      <trkpt lat="43.41687" lon="-1.45769">
        <ele>5.8</ele>
        <time>2021-07-18T14:29:30Z</time>
      </trkpt>
      <trkpt lat="43.41678" lon="-1.45772">
        <ele>5.8</ele>
        <time>2021-07-18T14:29:32Z</time>
      </trkpt>
      <trkpt lat="43.41669" lon="-1.45777">
        <ele>5.8</ele>
        <time>2021-07-18T14:29:34Z</time>
      </trkpt>
      <trkpt lat="43.4166" lon="-1.45781">
        <ele>5.7</ele>
        <time>2021-07-18T14:29:36Z</time>
      </trkpt>
      <trkpt lat="43.41652" lon="-1.45785">
        <ele>5.7</ele>
        <time>2021-07-18T14:29:38Z</time>
      </trkpt>
      <trkpt lat="43.41643" lon="-1.45789">
        <ele>5.7</ele>
        <time>2021-07-18T14:29:40Z</time>
      </trkpt>
      <trkpt lat="43.41635" lon="-1.45793">
        <ele>5.8</ele>
        <time>2021-07-18T14:29:42Z</time>
      </trkpt>
      <trkpt lat="43.41631" lon="-1.45796">
        <ele>5.8</ele>
        <time>2021-07-18T14:29:43Z</time>
      </trkpt>
      <trkpt lat="43.41626" lon="-1.45798">
        <ele>5.8</ele>
        <time>2021-07-18T14:29:44Z</time>
      </trkpt>
      <trkpt lat="43.41618" lon="-1.45804">
        <ele>5.8</ele>
        <time>2021-07-18T14:29:46Z</time>
      </trkpt>
      <trkpt lat="43.41613" lon="-1.45807">
        <ele>5.9</ele>
        <time>2021-07-18T14:29:47Z</time>
      </trkpt>
      <trkpt lat="43.41605" lon="-1.45813">
        <ele>5.9</ele>
        <time>2021-07-18T14:29:49Z</time>
      </trkpt>
      <trkpt lat="43.416" lon="-1.45816">
        <ele>5.9</ele>
        <time>2021-07-18T14:29:50Z</time>
      </trkpt>
      <trkpt lat="43.41596" lon="-1.45819">
        <ele>6</ele>
        <time>2021-07-18T14:29:51Z</time>
      </trkpt>
      <trkpt lat="43.41587" lon="-1.45826">
        <ele>6</ele>
        <time>2021-07-18T14:29:53Z</time>
      </trkpt>
      <trkpt lat="43.41578" lon="-1.45832">
        <ele>6.1</ele>
        <time>2021-07-18T14:29:55Z</time>
      </trkpt>
      <trkpt lat="43.41571" lon="-1.45839">
        <ele>6.1</ele>
        <time>2021-07-18T14:29:57Z</time>
      </trkpt>
      <trkpt lat="43.41567" lon="-1.45843">
        <ele>6.2</ele>
        <time>2021-07-18T14:29:58Z</time>
      </trkpt>
      <trkpt lat="43.41559" lon="-1.4585">
        <ele>6.2</ele>
        <time>2021-07-18T14:30:00Z</time>
      </trkpt>
      <trkpt lat="43.41552" lon="-1.45858">
        <ele>6.2</ele>
        <time>2021-07-18T14:30:02Z</time>
      </trkpt>
      <trkpt lat="43.41548" lon="-1.45862">
        <ele>6.2</ele>
        <time>2021-07-18T14:30:03Z</time>
      </trkpt>
      <trkpt lat="43.41541" lon="-1.4587">
        <ele>6.2</ele>
        <time>2021-07-18T14:30:05Z</time>
      </trkpt>
      <trkpt lat="43.41537" lon="-1.45875">
        <ele>6.2</ele>
        <time>2021-07-18T14:30:06Z</time>
      </trkpt>
      <trkpt lat="43.41533" lon="-1.45878">
        <ele>6.2</ele>
        <time>2021-07-18T14:30:07Z</time>
      </trkpt>
      <trkpt lat="43.41526" lon="-1.45887">
        <ele>6.1</ele>
        <time>2021-07-18T14:30:09Z</time>
      </trkpt>
      <trkpt lat="43.41519" lon="-1.45895">
        <ele>6.1</ele>
        <time>2021-07-18T14:30:11Z</time>
      </trkpt>
      <trkpt lat="43.41515" lon="-1.45899">
        <ele>6.1</ele>
        <time>2021-07-18T14:30:12Z</time>
      </trkpt>
      <trkpt lat="43.41507" lon="-1.45906">
        <ele>6.1</ele>
        <time>2021-07-18T14:30:14Z</time>
      </trkpt>
      <trkpt lat="43.41504" lon="-1.4591">
        <ele>6.1</ele>
        <time>2021-07-18T14:30:15Z</time>
      </trkpt>
      <trkpt lat="43.41496" lon="-1.45917">
        <ele>6.1</ele>
        <time>2021-07-18T14:30:17Z</time>
      </trkpt>
      <trkpt lat="43.41494" lon="-1.4592">
        <ele>6.1</ele>
        <time>2021-07-18T14:30:18Z</time>
      </trkpt>
      <trkpt lat="43.41487" lon="-1.45925">
        <ele>6.1</ele>
        <time>2021-07-18T14:30:20Z</time>
      </trkpt>
      <trkpt lat="43.41482" lon="-1.45929">
        <ele>6.1</ele>
        <time>2021-07-18T14:30:21Z</time>
      </trkpt>
      <trkpt lat="43.41478" lon="-1.45933">
        <ele>6.1</ele>
        <time>2021-07-18T14:30:22Z</time>
      </trkpt>
      <trkpt lat="43.4147" lon="-1.45939">
        <ele>6.1</ele>
        <time>2021-07-18T14:30:24Z</time>
      </trkpt>
      <trkpt lat="43.41462" lon="-1.45946">
        <ele>6.1</ele>
        <time>2021-07-18T14:30:26Z</time>
      </trkpt>
      <trkpt lat="43.41458" lon="-1.45949">
        <ele>6.1</ele>
        <time>2021-07-18T14:30:27Z</time>
      </trkpt>
      <trkpt lat="43.41454" lon="-1.45952">
        <ele>6.1</ele>
        <time>2021-07-18T14:30:28Z</time>
      </trkpt>
      <trkpt lat="43.41446" lon="-1.45959">
        <ele>6.1</ele>
        <time>2021-07-18T14:30:30Z</time>
      </trkpt>
      <trkpt lat="43.41438" lon="-1.45967">
        <ele>6.2</ele>
        <time>2021-07-18T14:30:32Z</time>
      </trkpt>
      <trkpt lat="43.41434" lon="-1.4597">
        <ele>6.2</ele>
        <time>2021-07-18T14:30:33Z</time>
      </trkpt>
      <trkpt lat="43.4143" lon="-1.45974">
        <ele>6.2</ele>
        <time>2021-07-18T14:30:34Z</time>
      </trkpt>
      <trkpt lat="43.41422" lon="-1.45981">
        <ele>6.2</ele>
        <time>2021-07-18T14:30:36Z</time>
      </trkpt>
      <trkpt lat="43.41414" lon="-1.45988">
        <ele>6.3</ele>
        <time>2021-07-18T14:30:38Z</time>
      </trkpt>
      <trkpt lat="43.4141" lon="-1.45991">
        <ele>6.3</ele>
        <time>2021-07-18T14:30:39Z</time>
      </trkpt>
      <trkpt lat="43.41402" lon="-1.45998">
        <ele>6.3</ele>
        <time>2021-07-18T14:30:41Z</time>
      </trkpt>
      <trkpt lat="43.41398" lon="-1.46002">
        <ele>6.3</ele>
        <time>2021-07-18T14:30:42Z</time>
      </trkpt>
      <trkpt lat="43.41394" lon="-1.46005">
        <ele>6.3</ele>
        <time>2021-07-18T14:30:43Z</time>
      </trkpt>
      <trkpt lat="43.41386" lon="-1.46012">
        <ele>6.4</ele>
        <time>2021-07-18T14:30:45Z</time>
      </trkpt>
      <trkpt lat="43.41378" lon="-1.4602">
        <ele>6.4</ele>
        <time>2021-07-18T14:30:47Z</time>
      </trkpt>
      <trkpt lat="43.41372" lon="-1.4603">
        <ele>6.4</ele>
        <time>2021-07-18T14:30:49Z</time>
      </trkpt>
      <trkpt lat="43.41369" lon="-1.46036">
        <ele>6.4</ele>
        <time>2021-07-18T14:30:51Z</time>
      </trkpt>
      <trkpt lat="43.41368" lon="-1.46037">
        <ele>6.4</ele>
        <time>2021-07-18T14:30:53Z</time>
      </trkpt>
      <trkpt lat="43.41368" lon="-1.46037">
        <ele>6.4</ele>
        <time>2021-07-18T14:30:54Z</time>
      </trkpt>
      <trkpt lat="43.41367" lon="-1.46036">
        <ele>6.4</ele>
        <time>2021-07-18T14:30:56Z</time>
      </trkpt>
      <trkpt lat="43.41366" lon="-1.46036">
        <ele>6.4</ele>
        <time>2021-07-18T14:30:57Z</time>
      </trkpt>
      <trkpt lat="43.41365" lon="-1.46035">
        <ele>6.4</ele>
        <time>2021-07-18T14:30:58Z</time>
      </trkpt>
      <trkpt lat="43.41364" lon="-1.46034">
        <ele>6.4</ele>
        <time>2021-07-18T14:31:00Z</time>
      </trkpt>
      <trkpt lat="43.41364" lon="-1.46033">
        <ele>6.4</ele>
        <time>2021-07-18T14:31:02Z</time>
      </trkpt>
      <trkpt lat="43.41364" lon="-1.46033">
        <ele>6.4</ele>
        <time>2021-07-18T14:31:03Z</time>
      </trkpt>
      <trkpt lat="43.41364" lon="-1.46033">
        <ele>6.4</ele>
        <time>2021-07-18T14:31:05Z</time>
      </trkpt>
      <trkpt lat="43.41364" lon="-1.46033">
        <ele>6.4</ele>
        <time>2021-07-18T14:31:07Z</time>
      </trkpt>
      <trkpt lat="43.41364" lon="-1.46034">
        <ele>6.4</ele>
        <time>2021-07-18T14:31:09Z</time>
      </trkpt>
      <trkpt lat="43.41364" lon="-1.46034">
        <ele>6.4</ele>
        <time>2021-07-18T14:31:11Z</time>
      </trkpt>
      <trkpt lat="43.41364" lon="-1.46034">
        <ele>6.4</ele>
        <time>2021-07-18T14:31:12Z</time>
      </trkpt>
      <trkpt lat="43.41364" lon="-1.46034">
        <ele>6.4</ele>
        <time>2021-07-18T14:31:13Z</time>
      </trkpt>
      <trkpt lat="43.41364" lon="-1.46034">
        <ele>6.4</ele>
        <time>2021-07-18T14:31:15Z</time>
      </trkpt>
      <trkpt lat="43.41364" lon="-1.46034">
        <ele>6.4</ele>
        <time>2021-07-18T14:31:17Z</time>
      </trkpt>
      <trkpt lat="43.41364" lon="-1.46034">
        <ele>6.4</ele>
        <time>2021-07-18T14:31:18Z</time>
      </trkpt>
      <trkpt lat="43.41364" lon="-1.46034">
        <ele>6.4</ele>
        <time>2021-07-18T14:31:20Z</time>
      </trkpt>
      <trkpt lat="43.41367" lon="-1.46038">
        <ele>6.5</ele>
        <time>2021-07-18T14:32:25Z</time>
      </trkpt>
      <trkpt lat="43.41369" lon="-1.4604">
        <ele>6.5</ele>
        <time>2021-07-18T14:32:27Z</time>
      </trkpt>
      <trkpt lat="43.4137" lon="-1.46043">
        <ele>6.5</ele>
        <time>2021-07-18T14:32:29Z</time>
      </trkpt>
      <trkpt lat="43.41369" lon="-1.46046">
        <ele>6.5</ele>
        <time>2021-07-18T14:32:31Z</time>
      </trkpt>
      <trkpt lat="43.41369" lon="-1.46047">
        <ele>6.5</ele>
        <time>2021-07-18T14:32:32Z</time>
      </trkpt>
      <trkpt lat="43.4137" lon="-1.46047">
        <ele>6.5</ele>
        <time>2021-07-18T14:32:34Z</time>
      </trkpt>
      <trkpt lat="43.41369" lon="-1.46048">
        <ele>6.5</ele>
        <time>2021-07-18T14:32:36Z</time>
      </trkpt>
      <trkpt lat="43.41368" lon="-1.46052">
        <ele>6.5</ele>
        <time>2021-07-18T14:32:38Z</time>
      </trkpt>
      <trkpt lat="43.41367" lon="-1.46054">
        <ele>6.5</ele>
        <time>2021-07-18T14:32:39Z</time>
      </trkpt>
      <trkpt lat="43.41366" lon="-1.4606">
        <ele>6.6</ele>
        <time>2021-07-18T14:32:41Z</time>
      </trkpt>
      <trkpt lat="43.41365" lon="-1.46067">
        <ele>6.6</ele>
        <time>2021-07-18T14:32:43Z</time>
      </trkpt>
      <trkpt lat="43.41364" lon="-1.4607">
        <ele>6.6</ele>
        <time>2021-07-18T14:32:44Z</time>
      </trkpt>
      <trkpt lat="43.41363" lon="-1.46079">
        <ele>6.6</ele>
        <time>2021-07-18T14:32:46Z</time>
      </trkpt>
      <trkpt lat="43.4136" lon="-1.46088">
        <ele>6.6</ele>
        <time>2021-07-18T14:32:48Z</time>
      </trkpt>
      <trkpt lat="43.41359" lon="-1.46094">
        <ele>6.7</ele>
        <time>2021-07-18T14:32:49Z</time>
      </trkpt>
      <trkpt lat="43.41358" lon="-1.46101">
        <ele>6.7</ele>
        <time>2021-07-18T14:32:51Z</time>
      </trkpt>
      <trkpt lat="43.41357" lon="-1.46107">
        <ele>6.7</ele>
        <time>2021-07-18T14:32:52Z</time>
      </trkpt>
      <trkpt lat="43.41355" lon="-1.46114">
        <ele>6.7</ele>
        <time>2021-07-18T14:32:54Z</time>
      </trkpt>
      <trkpt lat="43.41354" lon="-1.4612">
        <ele>6.7</ele>
        <time>2021-07-18T14:32:55Z</time>
      </trkpt>
      <trkpt lat="43.41353" lon="-1.46125">
        <ele>6.7</ele>
        <time>2021-07-18T14:32:56Z</time>
      </trkpt>
      <trkpt lat="43.41352" lon="-1.46132">
        <ele>6.7</ele>
        <time>2021-07-18T14:32:58Z</time>
      </trkpt>
      <trkpt lat="43.41352" lon="-1.46141">
        <ele>6.7</ele>
        <time>2021-07-18T14:32:59Z</time>
      </trkpt>
      <trkpt lat="43.41351" lon="-1.46152">
        <ele>6.7</ele>
        <time>2021-07-18T14:33:01Z</time>
      </trkpt>
      <trkpt lat="43.4135" lon="-1.46159">
        <ele>6.7</ele>
        <time>2021-07-18T14:33:02Z</time>
      </trkpt>
      <trkpt lat="43.41348" lon="-1.4617">
        <ele>6.7</ele>
        <time>2021-07-18T14:33:04Z</time>
      </trkpt>
      <trkpt lat="43.41347" lon="-1.46176">
        <ele>6.7</ele>
        <time>2021-07-18T14:33:05Z</time>
      </trkpt>
      <trkpt lat="43.41343" lon="-1.46186">
        <ele>6.6</ele>
        <time>2021-07-18T14:33:07Z</time>
      </trkpt>
      <trkpt lat="43.41339" lon="-1.46197">
        <ele>6.6</ele>
        <time>2021-07-18T14:33:09Z</time>
      </trkpt>
      <trkpt lat="43.41335" lon="-1.46207">
        <ele>6.6</ele>
        <time>2021-07-18T14:33:11Z</time>
      </trkpt>
      <trkpt lat="43.41333" lon="-1.46212">
        <ele>6.5</ele>
        <time>2021-07-18T14:33:12Z</time>
      </trkpt>
      <trkpt lat="43.41329" lon="-1.46222">
        <ele>6.5</ele>
        <time>2021-07-18T14:33:14Z</time>
      </trkpt>
      <trkpt lat="43.41327" lon="-1.46227">
        <ele>6.4</ele>
        <time>2021-07-18T14:33:15Z</time>
      </trkpt>
      <trkpt lat="43.41325" lon="-1.46233">
        <ele>6.4</ele>
        <time>2021-07-18T14:33:16Z</time>
      </trkpt>
      <trkpt lat="43.4132" lon="-1.46243">
        <ele>6.4</ele>
        <time>2021-07-18T14:33:18Z</time>
      </trkpt>
      <trkpt lat="43.41319" lon="-1.46248">
        <ele>6.5</ele>
        <time>2021-07-18T14:33:19Z</time>
      </trkpt>
      <trkpt lat="43.41318" lon="-1.46257">
        <ele>6.6</ele>
        <time>2021-07-18T14:33:21Z</time>
      </trkpt>
      <trkpt lat="43.41317" lon="-1.46264">
        <ele>6.6</ele>
        <time>2021-07-18T14:33:22Z</time>
      </trkpt>
      <trkpt lat="43.41313" lon="-1.46268">
        <ele>6.6</ele>
        <time>2021-07-18T14:33:23Z</time>
      </trkpt>
      <trkpt lat="43.4131" lon="-1.46272">
        <ele>6.6</ele>
        <time>2021-07-18T14:33:24Z</time>
      </trkpt>
      <trkpt lat="43.41306" lon="-1.46275">
        <ele>6.6</ele>
        <time>2021-07-18T14:33:25Z</time>
      </trkpt>
      <trkpt lat="43.413" lon="-1.46279">
        <ele>6.5</ele>
        <time>2021-07-18T14:33:27Z</time>
      </trkpt>
      <trkpt lat="43.41289" lon="-1.46282">
        <ele>6.5</ele>
        <time>2021-07-18T14:33:29Z</time>
      </trkpt>
      <trkpt lat="43.41285" lon="-1.46284">
        <ele>6.4</ele>
        <time>2021-07-18T14:33:30Z</time>
      </trkpt>
      <trkpt lat="43.41275" lon="-1.46288">
        <ele>6.4</ele>
        <time>2021-07-18T14:33:32Z</time>
      </trkpt>
      <trkpt lat="43.41266" lon="-1.46293">
        <ele>6.4</ele>
        <time>2021-07-18T14:33:34Z</time>
      </trkpt>
      <trkpt lat="43.41257" lon="-1.46299">
        <ele>6.4</ele>
        <time>2021-07-18T14:33:36Z</time>
      </trkpt>
      <trkpt lat="43.41252" lon="-1.46302">
        <ele>6.4</ele>
        <time>2021-07-18T14:33:37Z</time>
      </trkpt>
      <trkpt lat="43.41243" lon="-1.46307">
        <ele>6.5</ele>
        <time>2021-07-18T14:33:39Z</time>
      </trkpt>
      <trkpt lat="43.41233" lon="-1.46311">
        <ele>6.5</ele>
        <time>2021-07-18T14:33:41Z</time>
      </trkpt>
      <trkpt lat="43.41229" lon="-1.46314">
        <ele>6.5</ele>
        <time>2021-07-18T14:33:42Z</time>
      </trkpt>
      <trkpt lat="43.41224" lon="-1.46316">
        <ele>6.5</ele>
        <time>2021-07-18T14:33:43Z</time>
      </trkpt>
      <trkpt lat="43.41216" lon="-1.46321">
        <ele>6.5</ele>
        <time>2021-07-18T14:33:45Z</time>
      </trkpt>
      <trkpt lat="43.41208" lon="-1.46325">
        <ele>6.5</ele>
        <time>2021-07-18T14:33:47Z</time>
      </trkpt>
      <trkpt lat="43.412" lon="-1.46329">
        <ele>6.5</ele>
        <time>2021-07-18T14:33:49Z</time>
      </trkpt>
      <trkpt lat="43.41193" lon="-1.46334">
        <ele>6.6</ele>
        <time>2021-07-18T14:33:51Z</time>
      </trkpt>
      <trkpt lat="43.41192" lon="-1.46339">
        <ele>6.6</ele>
        <time>2021-07-18T14:33:52Z</time>
      </trkpt>
      <trkpt lat="43.41186" lon="-1.46341">
        <ele>6.6</ele>
        <time>2021-07-18T14:33:53Z</time>
      </trkpt>
      <trkpt lat="43.41181" lon="-1.46342">
        <ele>6.7</ele>
        <time>2021-07-18T14:33:54Z</time>
      </trkpt>
      <trkpt lat="43.41177" lon="-1.46342">
        <ele>6.8</ele>
        <time>2021-07-18T14:33:56Z</time>
      </trkpt>
      <trkpt lat="43.41173" lon="-1.4634">
        <ele>6.8</ele>
        <time>2021-07-18T14:33:57Z</time>
      </trkpt>
      <trkpt lat="43.41171" lon="-1.46335">
        <ele>6.9</ele>
        <time>2021-07-18T14:33:58Z</time>
      </trkpt>
      <trkpt lat="43.41169" lon="-1.46329">
        <ele>6.9</ele>
        <time>2021-07-18T14:34:00Z</time>
      </trkpt>
      <trkpt lat="43.41166" lon="-1.46323">
        <ele>6.7</ele>
        <time>2021-07-18T14:34:02Z</time>
      </trkpt>
      <trkpt lat="43.41164" lon="-1.46314">
        <ele>6.5</ele>
        <time>2021-07-18T14:34:03Z</time>
      </trkpt>
      <trkpt lat="43.4116" lon="-1.46301">
        <ele>6.3</ele>
        <time>2021-07-18T14:34:05Z</time>
      </trkpt>
      <trkpt lat="43.4116" lon="-1.46296">
        <ele>6.2</ele>
        <time>2021-07-18T14:34:06Z</time>
      </trkpt>
      <trkpt lat="43.41157" lon="-1.46291">
        <ele>6.2</ele>
        <time>2021-07-18T14:34:08Z</time>
      </trkpt>
      <trkpt lat="43.41158" lon="-1.46288">
        <ele>6.2</ele>
        <time>2021-07-18T14:34:10Z</time>
      </trkpt>
      <trkpt lat="43.41159" lon="-1.4629">
        <ele>6.1</ele>
        <time>2021-07-18T14:34:12Z</time>
      </trkpt>
      <trkpt lat="43.41159" lon="-1.46291">
        <ele>6.1</ele>
        <time>2021-07-18T14:34:13Z</time>
      </trkpt>
      <trkpt lat="43.41159" lon="-1.46292">
        <ele>6.1</ele>
        <time>2021-07-18T14:34:15Z</time>
      </trkpt>
      <trkpt lat="43.41159" lon="-1.46292">
        <ele>6.1</ele>
        <time>2021-07-18T14:34:17Z</time>
      </trkpt>
      <trkpt lat="43.41159" lon="-1.46292">
        <ele>6.1</ele>
        <time>2021-07-18T14:34:19Z</time>
      </trkpt>
      <trkpt lat="43.41159" lon="-1.46291">
        <ele>6.1</ele>
        <time>2021-07-18T14:34:21Z</time>
      </trkpt>
      <trkpt lat="43.41155" lon="-1.46287">
        <ele>6.1</ele>
        <time>2021-07-18T14:35:49Z</time>
      </trkpt>
      <trkpt lat="43.41154" lon="-1.46285">
        <ele>6.1</ele>
        <time>2021-07-18T14:35:50Z</time>
      </trkpt>
      <trkpt lat="43.41151" lon="-1.46279">
        <ele>6.1</ele>
        <time>2021-07-18T14:35:52Z</time>
      </trkpt>
      <trkpt lat="43.41147" lon="-1.46274">
        <ele>6.1</ele>
        <time>2021-07-18T14:35:54Z</time>
      </trkpt>
      <trkpt lat="43.41142" lon="-1.46269">
        <ele>6.1</ele>
        <time>2021-07-18T14:35:56Z</time>
      </trkpt>
      <trkpt lat="43.41137" lon="-1.46265">
        <ele>6.1</ele>
        <time>2021-07-18T14:35:58Z</time>
      </trkpt>
      <trkpt lat="43.4113" lon="-1.46261">
        <ele>6.1</ele>
        <time>2021-07-18T14:36:00Z</time>
      </trkpt>
      <trkpt lat="43.41127" lon="-1.46259">
        <ele>6.2</ele>
        <time>2021-07-18T14:36:01Z</time>
      </trkpt>
      <trkpt lat="43.4112" lon="-1.46255">
        <ele>6.2</ele>
        <time>2021-07-18T14:36:03Z</time>
      </trkpt>
      <trkpt lat="43.41115" lon="-1.46252">
        <ele>6.2</ele>
        <time>2021-07-18T14:36:05Z</time>
      </trkpt>
      <trkpt lat="43.4111" lon="-1.4625">
        <ele>6.2</ele>
        <time>2021-07-18T14:36:06Z</time>
      </trkpt>
      <trkpt lat="43.41106" lon="-1.46249">
        <ele>6.2</ele>
        <time>2021-07-18T14:36:07Z</time>
      </trkpt>
      <trkpt lat="43.41101" lon="-1.46247">
        <ele>6.2</ele>
        <time>2021-07-18T14:36:09Z</time>
      </trkpt>
      <trkpt lat="43.41096" lon="-1.46245">
        <ele>6.1</ele>
        <time>2021-07-18T14:36:10Z</time>
      </trkpt>
      <trkpt lat="43.4109" lon="-1.46243">
        <ele>6.1</ele>
        <time>2021-07-18T14:36:12Z</time>
      </trkpt>
      <trkpt lat="43.41085" lon="-1.46239">
        <ele>6.2</ele>
        <time>2021-07-18T14:36:13Z</time>
      </trkpt>
      <trkpt lat="43.41083" lon="-1.46235">
        <ele>6.2</ele>
        <time>2021-07-18T14:36:14Z</time>
      </trkpt>
      <trkpt lat="43.41077" lon="-1.46229">
        <ele>6.2</ele>
        <time>2021-07-18T14:36:16Z</time>
      </trkpt>
      <trkpt lat="43.41073" lon="-1.46225">
        <ele>6.3</ele>
        <time>2021-07-18T14:36:17Z</time>
      </trkpt>
      <trkpt lat="43.41068" lon="-1.46221">
        <ele>6.3</ele>
        <time>2021-07-18T14:36:19Z</time>
      </trkpt>
      <trkpt lat="43.41064" lon="-1.46219">
        <ele>6.3</ele>
        <time>2021-07-18T14:36:20Z</time>
      </trkpt>
      <trkpt lat="43.41058" lon="-1.46217">
        <ele>6.4</ele>
        <time>2021-07-18T14:36:21Z</time>
      </trkpt>
      <trkpt lat="43.41053" lon="-1.46216">
        <ele>6.4</ele>
        <time>2021-07-18T14:36:22Z</time>
      </trkpt>
      <trkpt lat="43.41045" lon="-1.46214">
        <ele>6.4</ele>
        <time>2021-07-18T14:36:24Z</time>
      </trkpt>
      <trkpt lat="43.41041" lon="-1.46213">
        <ele>6.4</ele>
        <time>2021-07-18T14:36:25Z</time>
      </trkpt>
      <trkpt lat="43.41037" lon="-1.46208">
        <ele>6.5</ele>
        <time>2021-07-18T14:36:27Z</time>
      </trkpt>
      <trkpt lat="43.41032" lon="-1.46202">
        <ele>6.4</ele>
        <time>2021-07-18T14:36:28Z</time>
      </trkpt>
      <trkpt lat="43.41025" lon="-1.46196">
        <ele>6.4</ele>
        <time>2021-07-18T14:36:30Z</time>
      </trkpt>
      <trkpt lat="43.41018" lon="-1.4619">
        <ele>6.4</ele>
        <time>2021-07-18T14:36:32Z</time>
      </trkpt>
      <trkpt lat="43.41012" lon="-1.46186">
        <ele>6.4</ele>
        <time>2021-07-18T14:36:33Z</time>
      </trkpt>
      <trkpt lat="43.41007" lon="-1.46183">
        <ele>6.4</ele>
        <time>2021-07-18T14:36:35Z</time>
      </trkpt>
      <trkpt lat="43.41002" lon="-1.4618">
        <ele>6.4</ele>
        <time>2021-07-18T14:36:36Z</time>
      </trkpt>
      <trkpt lat="43.40997" lon="-1.46177">
        <ele>6.4</ele>
        <time>2021-07-18T14:36:37Z</time>
      </trkpt>
      <trkpt lat="43.40993" lon="-1.46174">
        <ele>6.4</ele>
        <time>2021-07-18T14:36:38Z</time>
      </trkpt>
      <trkpt lat="43.40987" lon="-1.46171">
        <ele>6.4</ele>
        <time>2021-07-18T14:36:40Z</time>
      </trkpt>
      <trkpt lat="43.40983" lon="-1.46168">
        <ele>6.4</ele>
        <time>2021-07-18T14:36:41Z</time>
      </trkpt>
      <trkpt lat="43.40977" lon="-1.46164">
        <ele>6.4</ele>
        <time>2021-07-18T14:36:42Z</time>
      </trkpt>
      <trkpt lat="43.40972" lon="-1.46161">
        <ele>6.4</ele>
        <time>2021-07-18T14:36:43Z</time>
      </trkpt>
      <trkpt lat="43.40964" lon="-1.46155">
        <ele>6.3</ele>
        <time>2021-07-18T14:36:45Z</time>
      </trkpt>
      <trkpt lat="43.4096" lon="-1.46151">
        <ele>6.3</ele>
        <time>2021-07-18T14:36:46Z</time>
      </trkpt>
      <trkpt lat="43.40955" lon="-1.46148">
        <ele>6.3</ele>
        <time>2021-07-18T14:36:47Z</time>
      </trkpt>
      <trkpt lat="43.40946" lon="-1.46143">
        <ele>6.3</ele>
        <time>2021-07-18T14:36:49Z</time>
      </trkpt>
      <trkpt lat="43.40942" lon="-1.4614">
        <ele>6.3</ele>
        <time>2021-07-18T14:36:50Z</time>
      </trkpt>
      <trkpt lat="43.40933" lon="-1.46135">
        <ele>6.3</ele>
        <time>2021-07-18T14:36:52Z</time>
      </trkpt>
      <trkpt lat="43.40928" lon="-1.46132">
        <ele>6.3</ele>
        <time>2021-07-18T14:36:53Z</time>
      </trkpt>
      <trkpt lat="43.40923" lon="-1.46131">
        <ele>6.3</ele>
        <time>2021-07-18T14:36:54Z</time>
      </trkpt>
      <trkpt lat="43.40918" lon="-1.46131">
        <ele>6.4</ele>
        <time>2021-07-18T14:36:55Z</time>
      </trkpt>
      <trkpt lat="43.40909" lon="-1.46131">
        <ele>6.4</ele>
        <time>2021-07-18T14:36:57Z</time>
      </trkpt>
      <trkpt lat="43.40904" lon="-1.46131">
        <ele>6.4</ele>
        <time>2021-07-18T14:36:58Z</time>
      </trkpt>
      <trkpt lat="43.40895" lon="-1.46131">
        <ele>6.4</ele>
        <time>2021-07-18T14:37:00Z</time>
      </trkpt>
      <trkpt lat="43.40885" lon="-1.4613">
        <ele>6.5</ele>
        <time>2021-07-18T14:37:02Z</time>
      </trkpt>
      <trkpt lat="43.40876" lon="-1.46129">
        <ele>6.5</ele>
        <time>2021-07-18T14:37:04Z</time>
      </trkpt>
      <trkpt lat="43.40866" lon="-1.46126">
        <ele>6.5</ele>
        <time>2021-07-18T14:37:06Z</time>
      </trkpt>
      <trkpt lat="43.40862" lon="-1.46125">
        <ele>6.5</ele>
        <time>2021-07-18T14:37:07Z</time>
      </trkpt>
      <trkpt lat="43.40857" lon="-1.46123">
        <ele>6.5</ele>
        <time>2021-07-18T14:37:08Z</time>
      </trkpt>
      <trkpt lat="43.40848" lon="-1.46121">
        <ele>6.5</ele>
        <time>2021-07-18T14:37:10Z</time>
      </trkpt>
      <trkpt lat="43.40843" lon="-1.46119">
        <ele>6.5</ele>
        <time>2021-07-18T14:37:11Z</time>
      </trkpt>
      <trkpt lat="43.40839" lon="-1.46117">
        <ele>6.5</ele>
        <time>2021-07-18T14:37:12Z</time>
      </trkpt>
      <trkpt lat="43.4083" lon="-1.46114">
        <ele>6.5</ele>
        <time>2021-07-18T14:37:14Z</time>
      </trkpt>
      <trkpt lat="43.40825" lon="-1.46113">
        <ele>6.5</ele>
        <time>2021-07-18T14:37:15Z</time>
      </trkpt>
      <trkpt lat="43.40816" lon="-1.46111">
        <ele>6.5</ele>
        <time>2021-07-18T14:37:17Z</time>
      </trkpt>
      <trkpt lat="43.40812" lon="-1.46109">
        <ele>6.5</ele>
        <time>2021-07-18T14:37:18Z</time>
      </trkpt>
      <trkpt lat="43.40807" lon="-1.46108">
        <ele>6.5</ele>
        <time>2021-07-18T14:37:19Z</time>
      </trkpt>
      <trkpt lat="43.40803" lon="-1.46106">
        <ele>6.4</ele>
        <time>2021-07-18T14:37:20Z</time>
      </trkpt>
      <trkpt lat="43.40794" lon="-1.46103">
        <ele>6.4</ele>
        <time>2021-07-18T14:37:22Z</time>
      </trkpt>
      <trkpt lat="43.40784" lon="-1.461">
        <ele>6.4</ele>
        <time>2021-07-18T14:37:24Z</time>
      </trkpt>
      <trkpt lat="43.40773" lon="-1.46097">
        <ele>6.4</ele>
        <time>2021-07-18T14:37:26Z</time>
      </trkpt>
      <trkpt lat="43.40768" lon="-1.46096">
        <ele>6.4</ele>
        <time>2021-07-18T14:37:27Z</time>
      </trkpt>
      <trkpt lat="43.40759" lon="-1.46093">
        <ele>6.5</ele>
        <time>2021-07-18T14:37:29Z</time>
      </trkpt>
      <trkpt lat="43.40754" lon="-1.46093">
        <ele>6.5</ele>
        <time>2021-07-18T14:37:30Z</time>
      </trkpt>
      <trkpt lat="43.40745" lon="-1.46092">
        <ele>6.6</ele>
        <time>2021-07-18T14:37:32Z</time>
      </trkpt>
      <trkpt lat="43.40736" lon="-1.46091">
        <ele>6.7</ele>
        <time>2021-07-18T14:37:34Z</time>
      </trkpt>
      <trkpt lat="43.40732" lon="-1.4609">
        <ele>6.7</ele>
        <time>2021-07-18T14:37:35Z</time>
      </trkpt>
      <trkpt lat="43.40722" lon="-1.46088">
        <ele>6.8</ele>
        <time>2021-07-18T14:37:37Z</time>
      </trkpt>
      <trkpt lat="43.40714" lon="-1.46086">
        <ele>6.8</ele>
        <time>2021-07-18T14:37:39Z</time>
      </trkpt>
      <trkpt lat="43.40709" lon="-1.46085">
        <ele>6.8</ele>
        <time>2021-07-18T14:37:40Z</time>
      </trkpt>
      <trkpt lat="43.40705" lon="-1.46084">
        <ele>6.8</ele>
        <time>2021-07-18T14:37:41Z</time>
      </trkpt>
      <trkpt lat="43.40695" lon="-1.46081">
        <ele>6.8</ele>
        <time>2021-07-18T14:37:43Z</time>
      </trkpt>
      <trkpt lat="43.4069" lon="-1.46079">
        <ele>6.7</ele>
        <time>2021-07-18T14:37:44Z</time>
      </trkpt>
      <trkpt lat="43.40681" lon="-1.46075">
        <ele>6.7</ele>
        <time>2021-07-18T14:37:46Z</time>
      </trkpt>
      <trkpt lat="43.40677" lon="-1.46073">
        <ele>6.7</ele>
        <time>2021-07-18T14:37:47Z</time>
      </trkpt>
      <trkpt lat="43.40668" lon="-1.46069">
        <ele>6.6</ele>
        <time>2021-07-18T14:37:49Z</time>
      </trkpt>
      <trkpt lat="43.40658" lon="-1.46065">
        <ele>6.6</ele>
        <time>2021-07-18T14:37:51Z</time>
      </trkpt>
      <trkpt lat="43.40648" lon="-1.4606">
        <ele>6.6</ele>
        <time>2021-07-18T14:37:53Z</time>
      </trkpt>
      <trkpt lat="43.40644" lon="-1.46057">
        <ele>6.5</ele>
        <time>2021-07-18T14:37:54Z</time>
      </trkpt>
      <trkpt lat="43.40639" lon="-1.46055">
        <ele>6.5</ele>
        <time>2021-07-18T14:37:55Z</time>
      </trkpt>
      <trkpt lat="43.4063" lon="-1.46051">
        <ele>6.4</ele>
        <time>2021-07-18T14:37:57Z</time>
      </trkpt>
      <trkpt lat="43.40625" lon="-1.46048">
        <ele>6.3</ele>
        <time>2021-07-18T14:37:58Z</time>
      </trkpt>
      <trkpt lat="43.4062" lon="-1.46045">
        <ele>6.3</ele>
        <time>2021-07-18T14:37:59Z</time>
      </trkpt>
      <trkpt lat="43.4061" lon="-1.46041">
        <ele>6.2</ele>
        <time>2021-07-18T14:38:01Z</time>
      </trkpt>
      <trkpt lat="43.406" lon="-1.46036">
        <ele>6.2</ele>
        <time>2021-07-18T14:38:03Z</time>
      </trkpt>
      <trkpt lat="43.40595" lon="-1.46035">
        <ele>6.2</ele>
        <time>2021-07-18T14:38:04Z</time>
      </trkpt>
      <trkpt lat="43.40589" lon="-1.46034">
        <ele>6.3</ele>
        <time>2021-07-18T14:38:05Z</time>
      </trkpt>
      <trkpt lat="43.4058" lon="-1.46034">
        <ele>6.5</ele>
        <time>2021-07-18T14:38:07Z</time>
      </trkpt>
      <trkpt lat="43.40578" lon="-1.46033">
        <ele>6.6</ele>
        <time>2021-07-18T14:38:08Z</time>
      </trkpt>
      <trkpt lat="43.4057" lon="-1.46027">
        <ele>6.7</ele>
        <time>2021-07-18T14:38:10Z</time>
      </trkpt>
      <trkpt lat="43.40563" lon="-1.46024">
        <ele>6.8</ele>
        <time>2021-07-18T14:38:12Z</time>
      </trkpt>
      <trkpt lat="43.40559" lon="-1.46023">
        <ele>6.9</ele>
        <time>2021-07-18T14:38:13Z</time>
      </trkpt>
      <trkpt lat="43.40554" lon="-1.46022">
        <ele>7</ele>
        <time>2021-07-18T14:38:14Z</time>
      </trkpt>
      <trkpt lat="43.40556" lon="-1.46019">
        <ele>7.1</ele>
        <time>2021-07-18T14:38:16Z</time>
      </trkpt>
      <trkpt lat="43.40548" lon="-1.46017">
        <ele>7.3</ele>
        <time>2021-07-18T14:38:18Z</time>
      </trkpt>
      <trkpt lat="43.40539" lon="-1.46015">
        <ele>7.6</ele>
        <time>2021-07-18T14:38:20Z</time>
      </trkpt>
      <trkpt lat="43.40532" lon="-1.46014">
        <ele>7.9</ele>
        <time>2021-07-18T14:38:22Z</time>
      </trkpt>
      <trkpt lat="43.40527" lon="-1.46012">
        <ele>8.2</ele>
        <time>2021-07-18T14:38:24Z</time>
      </trkpt>
      <trkpt lat="43.40523" lon="-1.46011">
        <ele>8.4</ele>
        <time>2021-07-18T14:38:25Z</time>
      </trkpt>
      <trkpt lat="43.40518" lon="-1.4601">
        <ele>8.7</ele>
        <time>2021-07-18T14:38:27Z</time>
      </trkpt>
      <trkpt lat="43.40514" lon="-1.4601">
        <ele>9</ele>
        <time>2021-07-18T14:38:29Z</time>
      </trkpt>
      <trkpt lat="43.4051" lon="-1.46009">
        <ele>9.3</ele>
        <time>2021-07-18T14:38:31Z</time>
      </trkpt>
      <trkpt lat="43.40508" lon="-1.46009">
        <ele>9.4</ele>
        <time>2021-07-18T14:38:32Z</time>
      </trkpt>
      <trkpt lat="43.40505" lon="-1.46008">
        <ele>9.6</ele>
        <time>2021-07-18T14:38:34Z</time>
      </trkpt>
      <trkpt lat="43.40501" lon="-1.46007">
        <ele>9.9</ele>
        <time>2021-07-18T14:38:35Z</time>
      </trkpt>
      <trkpt lat="43.405" lon="-1.46007">
        <ele>10</ele>
        <time>2021-07-18T14:38:36Z</time>
      </trkpt>
      <trkpt lat="43.40496" lon="-1.46005">
        <ele>10.4</ele>
        <time>2021-07-18T14:38:38Z</time>
      </trkpt>
      <trkpt lat="43.40492" lon="-1.46005">
        <ele>10.7</ele>
        <time>2021-07-18T14:38:39Z</time>
      </trkpt>
      <trkpt lat="43.40491" lon="-1.46005">
        <ele>10.8</ele>
        <time>2021-07-18T14:38:40Z</time>
      </trkpt>
      <trkpt lat="43.40487" lon="-1.46004">
        <ele>11.1</ele>
        <time>2021-07-18T14:38:42Z</time>
      </trkpt>
      <trkpt lat="43.40485" lon="-1.46003">
        <ele>11.3</ele>
        <time>2021-07-18T14:38:43Z</time>
      </trkpt>
      <trkpt lat="43.40482" lon="-1.46003">
        <ele>11.5</ele>
        <time>2021-07-18T14:38:45Z</time>
      </trkpt>
      <trkpt lat="43.40481" lon="-1.46003">
        <ele>11.7</ele>
        <time>2021-07-18T14:38:46Z</time>
      </trkpt>
      <trkpt lat="43.40478" lon="-1.46002">
        <ele>11.9</ele>
        <time>2021-07-18T14:38:48Z</time>
      </trkpt>
      <trkpt lat="43.40476" lon="-1.46002">
        <ele>12</ele>
        <time>2021-07-18T14:38:49Z</time>
      </trkpt>
      <trkpt lat="43.40474" lon="-1.46002">
        <ele>12.2</ele>
        <time>2021-07-18T14:38:50Z</time>
      </trkpt>
      <trkpt lat="43.4047" lon="-1.46001">
        <ele>12.4</ele>
        <time>2021-07-18T14:38:52Z</time>
      </trkpt>
      <trkpt lat="43.40467" lon="-1.46">
        <ele>12.7</ele>
        <time>2021-07-18T14:38:54Z</time>
      </trkpt>
      <trkpt lat="43.40463" lon="-1.45999">
        <ele>12.9</ele>
        <time>2021-07-18T14:38:56Z</time>
      </trkpt>
      <trkpt lat="43.4046" lon="-1.45998">
        <ele>13</ele>
        <time>2021-07-18T14:38:57Z</time>
      </trkpt>
      <trkpt lat="43.40459" lon="-1.45998">
        <ele>13.1</ele>
        <time>2021-07-18T14:38:58Z</time>
      </trkpt>
      <trkpt lat="43.40457" lon="-1.45997">
        <ele>13.2</ele>
        <time>2021-07-18T14:38:59Z</time>
      </trkpt>
      <trkpt lat="43.40454" lon="-1.45996">
        <ele>13.3</ele>
        <time>2021-07-18T14:39:01Z</time>
      </trkpt>
      <trkpt lat="43.4045" lon="-1.45996">
        <ele>13.4</ele>
        <time>2021-07-18T14:39:03Z</time>
      </trkpt>
      <trkpt lat="43.40449" lon="-1.45997">
        <ele>13.5</ele>
        <time>2021-07-18T14:39:04Z</time>
      </trkpt>
      <trkpt lat="43.40447" lon="-1.45997">
        <ele>13.5</ele>
        <time>2021-07-18T14:39:05Z</time>
      </trkpt>
      <trkpt lat="43.40444" lon="-1.45996">
        <ele>13.6</ele>
        <time>2021-07-18T14:39:07Z</time>
      </trkpt>
      <trkpt lat="43.40443" lon="-1.45995">
        <ele>13.7</ele>
        <time>2021-07-18T14:39:08Z</time>
      </trkpt>
      <trkpt lat="43.40441" lon="-1.45994">
        <ele>13.7</ele>
        <time>2021-07-18T14:39:09Z</time>
      </trkpt>
      <trkpt lat="43.4044" lon="-1.45994">
        <ele>13.7</ele>
        <time>2021-07-18T14:39:10Z</time>
      </trkpt>
      <trkpt lat="43.40439" lon="-1.45994">
        <ele>13.8</ele>
        <time>2021-07-18T14:39:12Z</time>
      </trkpt>
      <trkpt lat="43.40438" lon="-1.45993">
        <ele>13.8</ele>
        <time>2021-07-18T14:39:13Z</time>
      </trkpt>
      <trkpt lat="43.40438" lon="-1.45993">
        <ele>13.8</ele>
        <time>2021-07-18T14:39:15Z</time>
      </trkpt>
      <trkpt lat="43.40438" lon="-1.45993">
        <ele>13.8</ele>
        <time>2021-07-18T14:39:16Z</time>
      </trkpt>
      <trkpt lat="43.40438" lon="-1.45994">
        <ele>13.8</ele>
        <time>2021-07-18T14:39:18Z</time>
      </trkpt>
      <trkpt lat="43.40438" lon="-1.45994">
        <ele>13.8</ele>
        <time>2021-07-18T14:39:20Z</time>
      </trkpt>
      <trkpt lat="43.40438" lon="-1.45994">
        <ele>13.8</ele>
        <time>2021-07-18T14:39:21Z</time>
      </trkpt>
      <trkpt lat="43.40438" lon="-1.45993">
        <ele>13.8</ele>
        <time>2021-07-18T14:39:23Z</time>
      </trkpt>
      <trkpt lat="43.40435" lon="-1.45993">
        <ele>13.9</ele>
        <time>2021-07-18T14:40:40Z</time>
      </trkpt>
      <trkpt lat="43.40433" lon="-1.45992">
        <ele>13.9</ele>
        <time>2021-07-18T14:40:41Z</time>
      </trkpt>
      <trkpt lat="43.4043" lon="-1.45989">
        <ele>14</ele>
        <time>2021-07-18T14:40:43Z</time>
      </trkpt>
      <trkpt lat="43.40427" lon="-1.45988">
        <ele>14</ele>
        <time>2021-07-18T14:40:45Z</time>
      </trkpt>
      <trkpt lat="43.40428" lon="-1.45987">
        <ele>14.1</ele>
        <time>2021-07-18T14:40:46Z</time>
      </trkpt>
      <trkpt lat="43.40425" lon="-1.45986">
        <ele>14.1</ele>
        <time>2021-07-18T14:40:47Z</time>
      </trkpt>
      <trkpt lat="43.40421" lon="-1.45985">
        <ele>14.2</ele>
        <time>2021-07-18T14:40:49Z</time>
      </trkpt>
      <trkpt lat="43.40418" lon="-1.45985">
        <ele>14.3</ele>
        <time>2021-07-18T14:40:50Z</time>
      </trkpt>
      <trkpt lat="43.40415" lon="-1.45984">
        <ele>14.4</ele>
        <time>2021-07-18T14:40:51Z</time>
      </trkpt>
      <trkpt lat="43.40412" lon="-1.45983">
        <ele>14.5</ele>
        <time>2021-07-18T14:40:52Z</time>
      </trkpt>
      <trkpt lat="43.4041" lon="-1.45983">
        <ele>14.5</ele>
        <time>2021-07-18T14:40:53Z</time>
      </trkpt>
      <trkpt lat="43.40406" lon="-1.45984">
        <ele>14.6</ele>
        <time>2021-07-18T14:40:55Z</time>
      </trkpt>
      <trkpt lat="43.40402" lon="-1.45984">
        <ele>14.7</ele>
        <time>2021-07-18T14:40:56Z</time>
      </trkpt>
      <trkpt lat="43.40401" lon="-1.45984">
        <ele>14.8</ele>
        <time>2021-07-18T14:40:57Z</time>
      </trkpt>
      <trkpt lat="43.40398" lon="-1.45983">
        <ele>14.8</ele>
        <time>2021-07-18T14:40:58Z</time>
      </trkpt>
      <trkpt lat="43.40394" lon="-1.45983">
        <ele>14.9</ele>
        <time>2021-07-18T14:41:00Z</time>
      </trkpt>
      <trkpt lat="43.40391" lon="-1.45983">
        <ele>15</ele>
        <time>2021-07-18T14:41:01Z</time>
      </trkpt>
      <trkpt lat="43.40388" lon="-1.45982">
        <ele>15.1</ele>
        <time>2021-07-18T14:41:02Z</time>
      </trkpt>
      <trkpt lat="43.40385" lon="-1.45981">
        <ele>15.2</ele>
        <time>2021-07-18T14:41:03Z</time>
      </trkpt>
      <trkpt lat="43.40383" lon="-1.45982">
        <ele>15.3</ele>
        <time>2021-07-18T14:41:04Z</time>
      </trkpt>
      <trkpt lat="43.40379" lon="-1.45983">
        <ele>15.3</ele>
        <time>2021-07-18T14:41:05Z</time>
      </trkpt>
      <trkpt lat="43.40374" lon="-1.45982">
        <ele>15.4</ele>
        <time>2021-07-18T14:41:07Z</time>
      </trkpt>
      <trkpt lat="43.4037" lon="-1.45982">
        <ele>15.5</ele>
        <time>2021-07-18T14:41:09Z</time>
      </trkpt>
      <trkpt lat="43.40367" lon="-1.45982">
        <ele>15.6</ele>
        <time>2021-07-18T14:41:10Z</time>
      </trkpt>
      <trkpt lat="43.40362" lon="-1.45983">
        <ele>15.7</ele>
        <time>2021-07-18T14:41:12Z</time>
      </trkpt>
      <trkpt lat="43.40358" lon="-1.45984">
        <ele>15.7</ele>
        <time>2021-07-18T14:41:13Z</time>
      </trkpt>
      <trkpt lat="43.40355" lon="-1.45985">
        <ele>15.8</ele>
        <time>2021-07-18T14:41:14Z</time>
      </trkpt>
      <trkpt lat="43.40351" lon="-1.45985">
        <ele>15.8</ele>
        <time>2021-07-18T14:41:16Z</time>
      </trkpt>
      <trkpt lat="43.40348" lon="-1.45985">
        <ele>15.8</ele>
        <time>2021-07-18T14:41:17Z</time>
      </trkpt>
      <trkpt lat="43.40344" lon="-1.45985">
        <ele>15.9</ele>
        <time>2021-07-18T14:41:18Z</time>
      </trkpt>
      <trkpt lat="43.40341" lon="-1.45986">
        <ele>15.9</ele>
        <time>2021-07-18T14:41:19Z</time>
      </trkpt>
      <trkpt lat="43.40335" lon="-1.45988">
        <ele>15.9</ele>
        <time>2021-07-18T14:41:21Z</time>
      </trkpt>
      <trkpt lat="43.40332" lon="-1.45988">
        <ele>15.9</ele>
        <time>2021-07-18T14:41:22Z</time>
      </trkpt>
      <trkpt lat="43.40327" lon="-1.45991">
        <ele>15.9</ele>
        <time>2021-07-18T14:41:24Z</time>
      </trkpt>
      <trkpt lat="43.40322" lon="-1.45992">
        <ele>15.9</ele>
        <time>2021-07-18T14:41:25Z</time>
      </trkpt>
      <trkpt lat="43.40318" lon="-1.45992">
        <ele>15.9</ele>
        <time>2021-07-18T14:41:26Z</time>
      </trkpt>
      <trkpt lat="43.40312" lon="-1.45987">
        <ele>15.9</ele>
        <time>2021-07-18T14:41:28Z</time>
      </trkpt>
      <trkpt lat="43.40307" lon="-1.45979">
        <ele>15.9</ele>
        <time>2021-07-18T14:41:30Z</time>
      </trkpt>
      <trkpt lat="43.40302" lon="-1.45972">
        <ele>15.9</ele>
        <time>2021-07-18T14:41:32Z</time>
      </trkpt>
      <trkpt lat="43.40298" lon="-1.45968">
        <ele>15.9</ele>
        <time>2021-07-18T14:41:33Z</time>
      </trkpt>
      <trkpt lat="43.40294" lon="-1.45966">
        <ele>15.9</ele>
        <time>2021-07-18T14:41:34Z</time>
      </trkpt>
      <trkpt lat="43.40291" lon="-1.45963">
        <ele>15.9</ele>
        <time>2021-07-18T14:41:35Z</time>
      </trkpt>
      <trkpt lat="43.40288" lon="-1.4596">
        <ele>15.9</ele>
        <time>2021-07-18T14:41:36Z</time>
      </trkpt>
      <trkpt lat="43.40284" lon="-1.45958">
        <ele>15.9</ele>
        <time>2021-07-18T14:41:37Z</time>
      </trkpt>
      <trkpt lat="43.40277" lon="-1.45952">
        <ele>15.9</ele>
        <time>2021-07-18T14:41:39Z</time>
      </trkpt>
      <trkpt lat="43.40271" lon="-1.45946">
        <ele>15.9</ele>
        <time>2021-07-18T14:41:41Z</time>
      </trkpt>
      <trkpt lat="43.40268" lon="-1.45942">
        <ele>15.9</ele>
        <time>2021-07-18T14:41:42Z</time>
      </trkpt>
      <trkpt lat="43.40262" lon="-1.45935">
        <ele>15.8</ele>
        <time>2021-07-18T14:41:44Z</time>
      </trkpt>
      <trkpt lat="43.40259" lon="-1.45931">
        <ele>15.8</ele>
        <time>2021-07-18T14:41:45Z</time>
      </trkpt>
      <trkpt lat="43.40255" lon="-1.45925">
        <ele>15.8</ele>
        <time>2021-07-18T14:41:47Z</time>
      </trkpt>
      <trkpt lat="43.4025" lon="-1.4592">
        <ele>15.8</ele>
        <time>2021-07-18T14:41:48Z</time>
      </trkpt>
      <trkpt lat="43.40246" lon="-1.45915">
        <ele>15.7</ele>
        <time>2021-07-18T14:41:49Z</time>
      </trkpt>
      <trkpt lat="43.40242" lon="-1.45911">
        <ele>15.7</ele>
        <time>2021-07-18T14:41:50Z</time>
      </trkpt>
      <trkpt lat="43.40235" lon="-1.45902">
        <ele>15.6</ele>
        <time>2021-07-18T14:41:52Z</time>
      </trkpt>
      <trkpt lat="43.40228" lon="-1.45894">
        <ele>15.5</ele>
        <time>2021-07-18T14:41:54Z</time>
      </trkpt>
      <trkpt lat="43.40222" lon="-1.45885">
        <ele>15.5</ele>
        <time>2021-07-18T14:41:56Z</time>
      </trkpt>
      <trkpt lat="43.40216" lon="-1.45875">
        <ele>15.4</ele>
        <time>2021-07-18T14:41:58Z</time>
      </trkpt>
      <trkpt lat="43.4021" lon="-1.45863">
        <ele>15.3</ele>
        <time>2021-07-18T14:42:00Z</time>
      </trkpt>
      <trkpt lat="43.40204" lon="-1.45851">
        <ele>15.2</ele>
        <time>2021-07-18T14:42:02Z</time>
      </trkpt>
      <trkpt lat="43.40197" lon="-1.45838">
        <ele>15.1</ele>
        <time>2021-07-18T14:42:04Z</time>
      </trkpt>
      <trkpt lat="43.40194" lon="-1.45831">
        <ele>15.1</ele>
        <time>2021-07-18T14:42:05Z</time>
      </trkpt>
      <trkpt lat="43.40187" lon="-1.45819">
        <ele>15</ele>
        <time>2021-07-18T14:42:07Z</time>
      </trkpt>
      <trkpt lat="43.40182" lon="-1.45815">
        <ele>15</ele>
        <time>2021-07-18T14:42:08Z</time>
      </trkpt>
      <trkpt lat="43.40174" lon="-1.45807">
        <ele>15</ele>
        <time>2021-07-18T14:42:10Z</time>
      </trkpt>
      <trkpt lat="43.40166" lon="-1.45799">
        <ele>15.1</ele>
        <time>2021-07-18T14:42:12Z</time>
      </trkpt>
      <trkpt lat="43.40163" lon="-1.45795">
        <ele>15.1</ele>
        <time>2021-07-18T14:42:13Z</time>
      </trkpt>
      <trkpt lat="43.40158" lon="-1.45789">
        <ele>15.1</ele>
        <time>2021-07-18T14:42:15Z</time>
      </trkpt>
      <trkpt lat="43.40151" lon="-1.45784">
        <ele>15.2</ele>
        <time>2021-07-18T14:42:17Z</time>
      </trkpt>
      <trkpt lat="43.40145" lon="-1.45789">
        <ele>15.1</ele>
        <time>2021-07-18T14:42:19Z</time>
      </trkpt>
      <trkpt lat="43.40144" lon="-1.45793">
        <ele>15.1</ele>
        <time>2021-07-18T14:42:20Z</time>
      </trkpt>
      <trkpt lat="43.4014" lon="-1.458">
        <ele>15.1</ele>
        <time>2021-07-18T14:42:22Z</time>
      </trkpt>
      <trkpt lat="43.40137" lon="-1.45803">
        <ele>15.1</ele>
        <time>2021-07-18T14:42:23Z</time>
      </trkpt>
      <trkpt lat="43.40135" lon="-1.45806">
        <ele>15.1</ele>
        <time>2021-07-18T14:42:24Z</time>
      </trkpt>
      <trkpt lat="43.40133" lon="-1.4581">
        <ele>15.2</ele>
        <time>2021-07-18T14:42:25Z</time>
      </trkpt>
      <trkpt lat="43.40131" lon="-1.45818">
        <ele>15.2</ele>
        <time>2021-07-18T14:42:27Z</time>
      </trkpt>
      <trkpt lat="43.40129" lon="-1.45821">
        <ele>15.2</ele>
        <time>2021-07-18T14:42:28Z</time>
      </trkpt>
      <trkpt lat="43.40127" lon="-1.45828">
        <ele>15.3</ele>
        <time>2021-07-18T14:42:30Z</time>
      </trkpt>
      <trkpt lat="43.40124" lon="-1.45834">
        <ele>15.3</ele>
        <time>2021-07-18T14:42:32Z</time>
      </trkpt>
      <trkpt lat="43.40121" lon="-1.45838">
        <ele>15.3</ele>
        <time>2021-07-18T14:42:33Z</time>
      </trkpt>
      <trkpt lat="43.40119" lon="-1.45843">
        <ele>15.3</ele>
        <time>2021-07-18T14:42:34Z</time>
      </trkpt>
      <trkpt lat="43.40116" lon="-1.45849">
        <ele>15.4</ele>
        <time>2021-07-18T14:42:36Z</time>
      </trkpt>
      <trkpt lat="43.40114" lon="-1.45852">
        <ele>15.4</ele>
        <time>2021-07-18T14:42:37Z</time>
      </trkpt>
      <trkpt lat="43.40112" lon="-1.45856">
        <ele>15.4</ele>
        <time>2021-07-18T14:42:38Z</time>
      </trkpt>
      <trkpt lat="43.40107" lon="-1.45863">
        <ele>15.4</ele>
        <time>2021-07-18T14:42:40Z</time>
      </trkpt>
      <trkpt lat="43.40104" lon="-1.45869">
        <ele>15.4</ele>
        <time>2021-07-18T14:42:41Z</time>
      </trkpt>
      <trkpt lat="43.40102" lon="-1.45874">
        <ele>15.5</ele>
        <time>2021-07-18T14:42:43Z</time>
      </trkpt>
      <trkpt lat="43.401" lon="-1.45879">
        <ele>15.5</ele>
        <time>2021-07-18T14:42:44Z</time>
      </trkpt>
      <trkpt lat="43.40098" lon="-1.45885">
        <ele>15.5</ele>
        <time>2021-07-18T14:42:45Z</time>
      </trkpt>
      <trkpt lat="43.40096" lon="-1.45889">
        <ele>15.5</ele>
        <time>2021-07-18T14:42:46Z</time>
      </trkpt>
      <trkpt lat="43.40093" lon="-1.45899">
        <ele>15.6</ele>
        <time>2021-07-18T14:42:48Z</time>
      </trkpt>
      <trkpt lat="43.40091" lon="-1.45904">
        <ele>15.6</ele>
        <time>2021-07-18T14:42:49Z</time>
      </trkpt>
      <trkpt lat="43.4009" lon="-1.45909">
        <ele>15.6</ele>
        <time>2021-07-18T14:42:50Z</time>
      </trkpt>
      <trkpt lat="43.40089" lon="-1.45914">
        <ele>15.7</ele>
        <time>2021-07-18T14:42:51Z</time>
      </trkpt>
      <trkpt lat="43.40086" lon="-1.45922">
        <ele>15.7</ele>
        <time>2021-07-18T14:42:53Z</time>
      </trkpt>
      <trkpt lat="43.40084" lon="-1.45929">
        <ele>15.8</ele>
        <time>2021-07-18T14:42:54Z</time>
      </trkpt>
      <trkpt lat="43.40081" lon="-1.45933">
        <ele>15.8</ele>
        <time>2021-07-18T14:42:55Z</time>
      </trkpt>
      <trkpt lat="43.40078" lon="-1.45936">
        <ele>15.9</ele>
        <time>2021-07-18T14:42:56Z</time>
      </trkpt>
      <trkpt lat="43.40073" lon="-1.45937">
        <ele>15.9</ele>
        <time>2021-07-18T14:42:57Z</time>
      </trkpt>
      <trkpt lat="43.40069" lon="-1.45936">
        <ele>15.9</ele>
        <time>2021-07-18T14:42:58Z</time>
      </trkpt>
      <trkpt lat="43.40062" lon="-1.45933">
        <ele>15.9</ele>
        <time>2021-07-18T14:43:00Z</time>
      </trkpt>
      <trkpt lat="43.40058" lon="-1.4593">
        <ele>15.9</ele>
        <time>2021-07-18T14:43:01Z</time>
      </trkpt>
      <trkpt lat="43.40053" lon="-1.45927">
        <ele>15.9</ele>
        <time>2021-07-18T14:43:02Z</time>
      </trkpt>
      <trkpt lat="43.40049" lon="-1.45924">
        <ele>15.9</ele>
        <time>2021-07-18T14:43:04Z</time>
      </trkpt>
      <trkpt lat="43.40045" lon="-1.45921">
        <ele>15.9</ele>
        <time>2021-07-18T14:43:05Z</time>
      </trkpt>
      <trkpt lat="43.40041" lon="-1.45918">
        <ele>15.9</ele>
        <time>2021-07-18T14:43:06Z</time>
      </trkpt>
      <trkpt lat="43.40036" lon="-1.45915">
        <ele>16</ele>
        <time>2021-07-18T14:43:07Z</time>
      </trkpt>
      <trkpt lat="43.40033" lon="-1.45912">
        <ele>16</ele>
        <time>2021-07-18T14:43:08Z</time>
      </trkpt>
      <trkpt lat="43.40027" lon="-1.45908">
        <ele>16</ele>
        <time>2021-07-18T14:43:10Z</time>
      </trkpt>
      <trkpt lat="43.40021" lon="-1.45905">
        <ele>16</ele>
        <time>2021-07-18T14:43:11Z</time>
      </trkpt>
      <trkpt lat="43.40015" lon="-1.45901">
        <ele>16.1</ele>
        <time>2021-07-18T14:43:12Z</time>
      </trkpt>
      <trkpt lat="43.40011" lon="-1.45898">
        <ele>16.1</ele>
        <time>2021-07-18T14:43:14Z</time>
      </trkpt>
      <trkpt lat="43.40006" lon="-1.45894">
        <ele>16.2</ele>
        <time>2021-07-18T14:43:15Z</time>
      </trkpt>
      <trkpt lat="43.40001" lon="-1.45888">
        <ele>16.2</ele>
        <time>2021-07-18T14:43:17Z</time>
      </trkpt>
      <trkpt lat="43.39997" lon="-1.45884">
        <ele>16.2</ele>
        <time>2021-07-18T14:43:18Z</time>
      </trkpt>
      <trkpt lat="43.39993" lon="-1.45879">
        <ele>16.3</ele>
        <time>2021-07-18T14:43:19Z</time>
      </trkpt>
      <trkpt lat="43.39988" lon="-1.45874">
        <ele>16.4</ele>
        <time>2021-07-18T14:43:20Z</time>
      </trkpt>
      <trkpt lat="43.39982" lon="-1.45869">
        <ele>16.5</ele>
        <time>2021-07-18T14:43:22Z</time>
      </trkpt>
      <trkpt lat="43.39976" lon="-1.45863">
        <ele>16.6</ele>
        <time>2021-07-18T14:43:24Z</time>
      </trkpt>
      <trkpt lat="43.39972" lon="-1.4586">
        <ele>16.6</ele>
        <time>2021-07-18T14:43:25Z</time>
      </trkpt>
      <trkpt lat="43.39965" lon="-1.45854">
        <ele>16.7</ele>
        <time>2021-07-18T14:43:27Z</time>
      </trkpt>
      <trkpt lat="43.39961" lon="-1.4585">
        <ele>16.7</ele>
        <time>2021-07-18T14:43:28Z</time>
      </trkpt>
      <trkpt lat="43.39958" lon="-1.45847">
        <ele>16.8</ele>
        <time>2021-07-18T14:43:29Z</time>
      </trkpt>
      <trkpt lat="43.39951" lon="-1.45841">
        <ele>16.8</ele>
        <time>2021-07-18T14:43:31Z</time>
      </trkpt>
      <trkpt lat="43.39948" lon="-1.45838">
        <ele>16.8</ele>
        <time>2021-07-18T14:43:32Z</time>
      </trkpt>
      <trkpt lat="43.39943" lon="-1.45833">
        <ele>16.8</ele>
        <time>2021-07-18T14:43:34Z</time>
      </trkpt>
      <trkpt lat="43.39938" lon="-1.4583">
        <ele>16.8</ele>
        <time>2021-07-18T14:43:35Z</time>
      </trkpt>
      <trkpt lat="43.39934" lon="-1.45826">
        <ele>16.8</ele>
        <time>2021-07-18T14:43:36Z</time>
      </trkpt>
      <trkpt lat="43.39931" lon="-1.45822">
        <ele>16.8</ele>
        <time>2021-07-18T14:43:37Z</time>
      </trkpt>
      <trkpt lat="43.39925" lon="-1.45817">
        <ele>16.8</ele>
        <time>2021-07-18T14:43:39Z</time>
      </trkpt>
      <trkpt lat="43.3992" lon="-1.45814">
        <ele>16.8</ele>
        <time>2021-07-18T14:43:40Z</time>
      </trkpt>
      <trkpt lat="43.39914" lon="-1.45815">
        <ele>16.7</ele>
        <time>2021-07-18T14:43:42Z</time>
      </trkpt>
      <trkpt lat="43.3991" lon="-1.45819">
        <ele>16.6</ele>
        <time>2021-07-18T14:43:43Z</time>
      </trkpt>
      <trkpt lat="43.39907" lon="-1.45824">
        <ele>16.5</ele>
        <time>2021-07-18T14:43:44Z</time>
      </trkpt>
      <trkpt lat="43.399" lon="-1.45831">
        <ele>16.4</ele>
        <time>2021-07-18T14:43:46Z</time>
      </trkpt>
      <trkpt lat="43.39896" lon="-1.45834">
        <ele>16.3</ele>
        <time>2021-07-18T14:43:47Z</time>
      </trkpt>
      <trkpt lat="43.39892" lon="-1.45837">
        <ele>16.2</ele>
        <time>2021-07-18T14:43:48Z</time>
      </trkpt>
      <trkpt lat="43.39888" lon="-1.45841">
        <ele>16.1</ele>
        <time>2021-07-18T14:43:49Z</time>
      </trkpt>
      <trkpt lat="43.39883" lon="-1.45845">
        <ele>16.1</ele>
        <time>2021-07-18T14:43:50Z</time>
      </trkpt>
      <trkpt lat="43.39878" lon="-1.4585">
        <ele>16</ele>
        <time>2021-07-18T14:43:52Z</time>
      </trkpt>
      <trkpt lat="43.39874" lon="-1.45853">
        <ele>16</ele>
        <time>2021-07-18T14:43:53Z</time>
      </trkpt>
      <trkpt lat="43.3987" lon="-1.45856">
        <ele>15.9</ele>
        <time>2021-07-18T14:43:54Z</time>
      </trkpt>
      <trkpt lat="43.39865" lon="-1.4586">
        <ele>15.9</ele>
        <time>2021-07-18T14:43:55Z</time>
      </trkpt>
      <trkpt lat="43.3986" lon="-1.45863">
        <ele>16</ele>
        <time>2021-07-18T14:43:57Z</time>
      </trkpt>
      <trkpt lat="43.39855" lon="-1.45866">
        <ele>16</ele>
        <time>2021-07-18T14:43:58Z</time>
      </trkpt>
      <trkpt lat="43.39848" lon="-1.45871">
        <ele>16.2</ele>
        <time>2021-07-18T14:44:00Z</time>
      </trkpt>
      <trkpt lat="43.39843" lon="-1.45873">
        <ele>16.3</ele>
        <time>2021-07-18T14:44:02Z</time>
      </trkpt>
      <trkpt lat="43.39837" lon="-1.45875">
        <ele>16.5</ele>
        <time>2021-07-18T14:44:03Z</time>
      </trkpt>
      <trkpt lat="43.39831" lon="-1.45879">
        <ele>16.8</ele>
        <time>2021-07-18T14:44:05Z</time>
      </trkpt>
      <trkpt lat="43.39827" lon="-1.45882">
        <ele>17</ele>
        <time>2021-07-18T14:44:06Z</time>
      </trkpt>
      <trkpt lat="43.39823" lon="-1.45884">
        <ele>17.2</ele>
        <time>2021-07-18T14:44:08Z</time>
      </trkpt>
      <trkpt lat="43.3982" lon="-1.45887">
        <ele>17.4</ele>
        <time>2021-07-18T14:44:09Z</time>
      </trkpt>
      <trkpt lat="43.39818" lon="-1.4589">
        <ele>17.5</ele>
        <time>2021-07-18T14:44:10Z</time>
      </trkpt>
      <trkpt lat="43.39815" lon="-1.45895">
        <ele>17.8</ele>
        <time>2021-07-18T14:44:12Z</time>
      </trkpt>
      <trkpt lat="43.39813" lon="-1.45899">
        <ele>18</ele>
        <time>2021-07-18T14:44:13Z</time>
      </trkpt>
      <trkpt lat="43.39811" lon="-1.45903">
        <ele>18.1</ele>
        <time>2021-07-18T14:44:15Z</time>
      </trkpt>
      <trkpt lat="43.39809" lon="-1.45906">
        <ele>18.3</ele>
        <time>2021-07-18T14:44:16Z</time>
      </trkpt>
      <trkpt lat="43.39807" lon="-1.45911">
        <ele>18.6</ele>
        <time>2021-07-18T14:44:17Z</time>
      </trkpt>
      <trkpt lat="43.39806" lon="-1.45913">
        <ele>18.6</ele>
        <time>2021-07-18T14:44:18Z</time>
      </trkpt>
      <trkpt lat="43.39804" lon="-1.45918">
        <ele>18.8</ele>
        <time>2021-07-18T14:44:20Z</time>
      </trkpt>
      <trkpt lat="43.39802" lon="-1.45921">
        <ele>18.8</ele>
        <time>2021-07-18T14:44:21Z</time>
      </trkpt>
      <trkpt lat="43.39799" lon="-1.45926">
        <ele>19</ele>
        <time>2021-07-18T14:44:23Z</time>
      </trkpt>
      <trkpt lat="43.39795" lon="-1.45928">
        <ele>19</ele>
        <time>2021-07-18T14:44:24Z</time>
      </trkpt>
      <trkpt lat="43.39794" lon="-1.45929">
        <ele>19</ele>
        <time>2021-07-18T14:44:25Z</time>
      </trkpt>
      <trkpt lat="43.3979" lon="-1.45928">
        <ele>19.2</ele>
        <time>2021-07-18T14:44:27Z</time>
      </trkpt>
      <trkpt lat="43.39786" lon="-1.45927">
        <ele>19.3</ele>
        <time>2021-07-18T14:44:28Z</time>
      </trkpt>
      <trkpt lat="43.39783" lon="-1.45925">
        <ele>19.3</ele>
        <time>2021-07-18T14:44:29Z</time>
      </trkpt>
      <trkpt lat="43.39781" lon="-1.45923">
        <ele>19.4</ele>
        <time>2021-07-18T14:44:30Z</time>
      </trkpt>
      <trkpt lat="43.39778" lon="-1.4592">
        <ele>19.5</ele>
        <time>2021-07-18T14:44:31Z</time>
      </trkpt>
      <trkpt lat="43.39774" lon="-1.45915">
        <ele>19.6</ele>
        <time>2021-07-18T14:44:33Z</time>
      </trkpt>
      <trkpt lat="43.3977" lon="-1.45912">
        <ele>19.7</ele>
        <time>2021-07-18T14:44:34Z</time>
      </trkpt>
      <trkpt lat="43.39765" lon="-1.45907">
        <ele>19.8</ele>
        <time>2021-07-18T14:44:36Z</time>
      </trkpt>
      <trkpt lat="43.39762" lon="-1.45902">
        <ele>19.9</ele>
        <time>2021-07-18T14:44:37Z</time>
      </trkpt>
      <trkpt lat="43.39759" lon="-1.45899">
        <ele>20</ele>
        <time>2021-07-18T14:44:38Z</time>
      </trkpt>
      <trkpt lat="43.39756" lon="-1.45896">
        <ele>20</ele>
        <time>2021-07-18T14:44:39Z</time>
      </trkpt>
      <trkpt lat="43.39751" lon="-1.45891">
        <ele>20.2</ele>
        <time>2021-07-18T14:44:41Z</time>
      </trkpt>
      <trkpt lat="43.39747" lon="-1.45887">
        <ele>20.3</ele>
        <time>2021-07-18T14:44:42Z</time>
      </trkpt>
      <trkpt lat="43.39744" lon="-1.45884">
        <ele>20.3</ele>
        <time>2021-07-18T14:44:43Z</time>
      </trkpt>
      <trkpt lat="43.39742" lon="-1.45881">
        <ele>20.4</ele>
        <time>2021-07-18T14:44:44Z</time>
      </trkpt>
      <trkpt lat="43.39738" lon="-1.45876">
        <ele>20.5</ele>
        <time>2021-07-18T14:44:46Z</time>
      </trkpt>
      <trkpt lat="43.39733" lon="-1.45872">
        <ele>20.6</ele>
        <time>2021-07-18T14:44:47Z</time>
      </trkpt>
      <trkpt lat="43.39729" lon="-1.45867">
        <ele>20.7</ele>
        <time>2021-07-18T14:44:49Z</time>
      </trkpt>
      <trkpt lat="43.39725" lon="-1.45862">
        <ele>20.7</ele>
        <time>2021-07-18T14:44:50Z</time>
      </trkpt>
      <trkpt lat="43.39721" lon="-1.45856">
        <ele>20.8</ele>
        <time>2021-07-18T14:44:52Z</time>
      </trkpt>
      <trkpt lat="43.39718" lon="-1.4585">
        <ele>20.8</ele>
        <time>2021-07-18T14:44:53Z</time>
      </trkpt>
      <trkpt lat="43.39714" lon="-1.45843">
        <ele>20.9</ele>
        <time>2021-07-18T14:44:55Z</time>
      </trkpt>
      <trkpt lat="43.39711" lon="-1.45838">
        <ele>20.9</ele>
        <time>2021-07-18T14:44:56Z</time>
      </trkpt>
      <trkpt lat="43.39706" lon="-1.4583">
        <ele>21</ele>
        <time>2021-07-18T14:44:58Z</time>
      </trkpt>
      <trkpt lat="43.39701" lon="-1.45821">
        <ele>21</ele>
        <time>2021-07-18T14:45:00Z</time>
      </trkpt>
      <trkpt lat="43.39696" lon="-1.45812">
        <ele>21</ele>
        <time>2021-07-18T14:45:02Z</time>
      </trkpt>
      <trkpt lat="43.39694" lon="-1.45808">
        <ele>20.9</ele>
        <time>2021-07-18T14:45:03Z</time>
      </trkpt>
      <trkpt lat="43.39689" lon="-1.45798">
        <ele>20.9</ele>
        <time>2021-07-18T14:45:05Z</time>
      </trkpt>
      <trkpt lat="43.39686" lon="-1.45793">
        <ele>20.9</ele>
        <time>2021-07-18T14:45:06Z</time>
      </trkpt>
      <trkpt lat="43.39683" lon="-1.45788">
        <ele>20.9</ele>
        <time>2021-07-18T14:45:07Z</time>
      </trkpt>
      <trkpt lat="43.39679" lon="-1.45781">
        <ele>20.9</ele>
        <time>2021-07-18T14:45:09Z</time>
      </trkpt>
      <trkpt lat="43.39675" lon="-1.45774">
        <ele>20.9</ele>
        <time>2021-07-18T14:45:10Z</time>
      </trkpt>
      <trkpt lat="43.39673" lon="-1.4577">
        <ele>20.9</ele>
        <time>2021-07-18T14:45:11Z</time>
      </trkpt>
      <trkpt lat="43.3967" lon="-1.45765">
        <ele>20.9</ele>
        <time>2021-07-18T14:45:12Z</time>
      </trkpt>
      <trkpt lat="43.39666" lon="-1.45758">
        <ele>21</ele>
        <time>2021-07-18T14:45:14Z</time>
      </trkpt>
      <trkpt lat="43.39663" lon="-1.45752">
        <ele>21</ele>
        <time>2021-07-18T14:45:15Z</time>
      </trkpt>
      <trkpt lat="43.39657" lon="-1.45744">
        <ele>21.1</ele>
        <time>2021-07-18T14:45:17Z</time>
      </trkpt>
      <trkpt lat="43.39652" lon="-1.45736">
        <ele>21.1</ele>
        <time>2021-07-18T14:45:19Z</time>
      </trkpt>
      <trkpt lat="43.39649" lon="-1.45731">
        <ele>21.1</ele>
        <time>2021-07-18T14:45:20Z</time>
      </trkpt>
      <trkpt lat="43.39646" lon="-1.45727">
        <ele>21.1</ele>
        <time>2021-07-18T14:45:21Z</time>
      </trkpt>
      <trkpt lat="43.39643" lon="-1.4572">
        <ele>21.1</ele>
        <time>2021-07-18T14:45:22Z</time>
      </trkpt>
      <trkpt lat="43.3964" lon="-1.45713">
        <ele>21.1</ele>
        <time>2021-07-18T14:45:24Z</time>
      </trkpt>
      <trkpt lat="43.39637" lon="-1.45708">
        <ele>21.1</ele>
        <time>2021-07-18T14:45:25Z</time>
      </trkpt>
      <trkpt lat="43.39632" lon="-1.45699">
        <ele>21.1</ele>
        <time>2021-07-18T14:45:27Z</time>
      </trkpt>
      <trkpt lat="43.3963" lon="-1.45694">
        <ele>21.1</ele>
        <time>2021-07-18T14:45:28Z</time>
      </trkpt>
      <trkpt lat="43.39627" lon="-1.45689">
        <ele>21.1</ele>
        <time>2021-07-18T14:45:29Z</time>
      </trkpt>
      <trkpt lat="43.39624" lon="-1.45683">
        <ele>21.2</ele>
        <time>2021-07-18T14:45:31Z</time>
      </trkpt>
      <trkpt lat="43.39621" lon="-1.45677">
        <ele>21.2</ele>
        <time>2021-07-18T14:45:32Z</time>
      </trkpt>
      <trkpt lat="43.39618" lon="-1.45671">
        <ele>21.2</ele>
        <time>2021-07-18T14:45:33Z</time>
      </trkpt>
      <trkpt lat="43.39616" lon="-1.45666">
        <ele>21.2</ele>
        <time>2021-07-18T14:45:34Z</time>
      </trkpt>
      <trkpt lat="43.39613" lon="-1.45656">
        <ele>21.1</ele>
        <time>2021-07-18T14:45:36Z</time>
      </trkpt>
      <trkpt lat="43.39612" lon="-1.4565">
        <ele>21.1</ele>
        <time>2021-07-18T14:45:37Z</time>
      </trkpt>
      <trkpt lat="43.3961" lon="-1.4564">
        <ele>21</ele>
        <time>2021-07-18T14:45:39Z</time>
      </trkpt>
      <trkpt lat="43.39608" lon="-1.45633">
        <ele>21</ele>
        <time>2021-07-18T14:45:40Z</time>
      </trkpt>
      <trkpt lat="43.39607" lon="-1.45627">
        <ele>21</ele>
        <time>2021-07-18T14:45:41Z</time>
      </trkpt>
      <trkpt lat="43.39607" lon="-1.45619">
        <ele>20.9</ele>
        <time>2021-07-18T14:45:42Z</time>
      </trkpt>
      <trkpt lat="43.39606" lon="-1.45613">
        <ele>20.9</ele>
        <time>2021-07-18T14:45:43Z</time>
      </trkpt>
      <trkpt lat="43.39603" lon="-1.456">
        <ele>20.9</ele>
        <time>2021-07-18T14:45:45Z</time>
      </trkpt>
      <trkpt lat="43.39602" lon="-1.45593">
        <ele>20.9</ele>
        <time>2021-07-18T14:45:46Z</time>
      </trkpt>
      <trkpt lat="43.396" lon="-1.45585">
        <ele>20.9</ele>
        <time>2021-07-18T14:45:48Z</time>
      </trkpt>
      <trkpt lat="43.39598" lon="-1.45579">
        <ele>21</ele>
        <time>2021-07-18T14:45:49Z</time>
      </trkpt>
      <trkpt lat="43.39597" lon="-1.45575">
        <ele>21</ele>
        <time>2021-07-18T14:45:50Z</time>
      </trkpt>
      <trkpt lat="43.39593" lon="-1.45574">
        <ele>21.1</ele>
        <time>2021-07-18T14:45:51Z</time>
      </trkpt>
      <trkpt lat="43.39587" lon="-1.45575">
        <ele>21.2</ele>
        <time>2021-07-18T14:45:53Z</time>
      </trkpt>
      <trkpt lat="43.39583" lon="-1.45576">
        <ele>21.3</ele>
        <time>2021-07-18T14:45:54Z</time>
      </trkpt>
      <trkpt lat="43.39576" lon="-1.45579">
        <ele>21.4</ele>
        <time>2021-07-18T14:45:56Z</time>
      </trkpt>
      <trkpt lat="43.3957" lon="-1.45582">
        <ele>21.6</ele>
        <time>2021-07-18T14:45:58Z</time>
      </trkpt>
      <trkpt lat="43.39566" lon="-1.45584">
        <ele>21.7</ele>
        <time>2021-07-18T14:45:59Z</time>
      </trkpt>
      <trkpt lat="43.3956" lon="-1.45587">
        <ele>21.7</ele>
        <time>2021-07-18T14:46:01Z</time>
      </trkpt>
      <trkpt lat="43.39555" lon="-1.45588">
        <ele>21.8</ele>
        <time>2021-07-18T14:46:02Z</time>
      </trkpt>
      <trkpt lat="43.39552" lon="-1.45589">
        <ele>21.9</ele>
        <time>2021-07-18T14:46:03Z</time>
      </trkpt>
      <trkpt lat="43.39548" lon="-1.45591">
        <ele>22</ele>
        <time>2021-07-18T14:46:04Z</time>
      </trkpt>
      <trkpt lat="43.39542" lon="-1.45593">
        <ele>22.1</ele>
        <time>2021-07-18T14:46:06Z</time>
      </trkpt>
      <trkpt lat="43.39538" lon="-1.45595">
        <ele>22.1</ele>
        <time>2021-07-18T14:46:07Z</time>
      </trkpt>
      <trkpt lat="43.39531" lon="-1.45598">
        <ele>22.3</ele>
        <time>2021-07-18T14:46:09Z</time>
      </trkpt>
      <trkpt lat="43.39524" lon="-1.45601">
        <ele>22.4</ele>
        <time>2021-07-18T14:46:11Z</time>
      </trkpt>
      <trkpt lat="43.39521" lon="-1.45603">
        <ele>22.5</ele>
        <time>2021-07-18T14:46:12Z</time>
      </trkpt>
      <trkpt lat="43.39514" lon="-1.45608">
        <ele>22.6</ele>
        <time>2021-07-18T14:46:14Z</time>
      </trkpt>
      <trkpt lat="43.39511" lon="-1.45611">
        <ele>22.6</ele>
        <time>2021-07-18T14:46:15Z</time>
      </trkpt>
      <trkpt lat="43.39507" lon="-1.45614">
        <ele>22.7</ele>
        <time>2021-07-18T14:46:16Z</time>
      </trkpt>
      <trkpt lat="43.39504" lon="-1.45617">
        <ele>22.7</ele>
        <time>2021-07-18T14:46:17Z</time>
      </trkpt>
      <trkpt lat="43.39501" lon="-1.4562">
        <ele>22.8</ele>
        <time>2021-07-18T14:46:18Z</time>
      </trkpt>
      <trkpt lat="43.39498" lon="-1.45624">
        <ele>22.8</ele>
        <time>2021-07-18T14:46:20Z</time>
      </trkpt>
      <trkpt lat="43.39495" lon="-1.45629">
        <ele>22.9</ele>
        <time>2021-07-18T14:46:21Z</time>
      </trkpt>
      <trkpt lat="43.39493" lon="-1.45633">
        <ele>22.9</ele>
        <time>2021-07-18T14:46:22Z</time>
      </trkpt>
      <trkpt lat="43.39491" lon="-1.45639">
        <ele>23</ele>
        <time>2021-07-18T14:46:23Z</time>
      </trkpt>
      <trkpt lat="43.39487" lon="-1.45646">
        <ele>23</ele>
        <time>2021-07-18T14:46:25Z</time>
      </trkpt>
      <trkpt lat="43.39484" lon="-1.45654">
        <ele>23.2</ele>
        <time>2021-07-18T14:46:27Z</time>
      </trkpt>
      <trkpt lat="43.39482" lon="-1.45658">
        <ele>23.2</ele>
        <time>2021-07-18T14:46:28Z</time>
      </trkpt>
      <trkpt lat="43.39479" lon="-1.45665">
        <ele>23.3</ele>
        <time>2021-07-18T14:46:30Z</time>
      </trkpt>
      <trkpt lat="43.39477" lon="-1.4567">
        <ele>23.4</ele>
        <time>2021-07-18T14:46:31Z</time>
      </trkpt>
      <trkpt lat="43.39475" lon="-1.45675">
        <ele>23.5</ele>
        <time>2021-07-18T14:46:32Z</time>
      </trkpt>
      <trkpt lat="43.39472" lon="-1.45683">
        <ele>23.6</ele>
        <time>2021-07-18T14:46:34Z</time>
      </trkpt>
      <trkpt lat="43.3947" lon="-1.45687">
        <ele>23.7</ele>
        <time>2021-07-18T14:46:35Z</time>
      </trkpt>
      <trkpt lat="43.39469" lon="-1.45691">
        <ele>23.7</ele>
        <time>2021-07-18T14:46:36Z</time>
      </trkpt>
      <trkpt lat="43.39465" lon="-1.45698">
        <ele>23.9</ele>
        <time>2021-07-18T14:46:38Z</time>
      </trkpt>
      <trkpt lat="43.39462" lon="-1.45704">
        <ele>24</ele>
        <time>2021-07-18T14:46:40Z</time>
      </trkpt>
      <trkpt lat="43.39461" lon="-1.45709">
        <ele>24.1</ele>
        <time>2021-07-18T14:46:41Z</time>
      </trkpt>
      <trkpt lat="43.39457" lon="-1.45717">
        <ele>24.3</ele>
        <time>2021-07-18T14:46:43Z</time>
      </trkpt>
      <trkpt lat="43.39454" lon="-1.45724">
        <ele>24.5</ele>
        <time>2021-07-18T14:46:45Z</time>
      </trkpt>
      <trkpt lat="43.39453" lon="-1.45727">
        <ele>24.6</ele>
        <time>2021-07-18T14:46:46Z</time>
      </trkpt>
      <trkpt lat="43.39451" lon="-1.45733">
        <ele>24.7</ele>
        <time>2021-07-18T14:46:48Z</time>
      </trkpt>
      <trkpt lat="43.39449" lon="-1.4574">
        <ele>24.9</ele>
        <time>2021-07-18T14:46:50Z</time>
      </trkpt>
      <trkpt lat="43.39447" lon="-1.45743">
        <ele>25</ele>
        <time>2021-07-18T14:46:51Z</time>
      </trkpt>
      <trkpt lat="43.39445" lon="-1.45749">
        <ele>25.2</ele>
        <time>2021-07-18T14:46:53Z</time>
      </trkpt>
      <trkpt lat="43.39444" lon="-1.45756">
        <ele>25.4</ele>
        <time>2021-07-18T14:46:55Z</time>
      </trkpt>
      <trkpt lat="43.39443" lon="-1.45758">
        <ele>25.5</ele>
        <time>2021-07-18T14:46:56Z</time>
      </trkpt>
      <trkpt lat="43.39443" lon="-1.4576">
        <ele>25.6</ele>
        <time>2021-07-18T14:46:57Z</time>
      </trkpt>
      <trkpt lat="43.39442" lon="-1.45763">
        <ele>25.7</ele>
        <time>2021-07-18T14:46:58Z</time>
      </trkpt>
      <trkpt lat="43.3944" lon="-1.45767">
        <ele>25.9</ele>
        <time>2021-07-18T14:46:59Z</time>
      </trkpt>
      <trkpt lat="43.3944" lon="-1.45769">
        <ele>25.9</ele>
        <time>2021-07-18T14:47:00Z</time>
      </trkpt>
      <trkpt lat="43.39438" lon="-1.45773">
        <ele>26</ele>
        <time>2021-07-18T14:47:02Z</time>
      </trkpt>
      <trkpt lat="43.39437" lon="-1.45776">
        <ele>26.2</ele>
        <time>2021-07-18T14:47:03Z</time>
      </trkpt>
      <trkpt lat="43.39436" lon="-1.45781">
        <ele>26.4</ele>
        <time>2021-07-18T14:47:04Z</time>
      </trkpt>
      <trkpt lat="43.39436" lon="-1.45783">
        <ele>26.5</ele>
        <time>2021-07-18T14:47:05Z</time>
      </trkpt>
      <trkpt lat="43.39434" lon="-1.45787">
        <ele>26.6</ele>
        <time>2021-07-18T14:47:07Z</time>
      </trkpt>
      <trkpt lat="43.39433" lon="-1.45792">
        <ele>26.8</ele>
        <time>2021-07-18T14:47:09Z</time>
      </trkpt>
      <trkpt lat="43.39433" lon="-1.45797">
        <ele>27</ele>
        <time>2021-07-18T14:47:10Z</time>
      </trkpt>
      <trkpt lat="43.39433" lon="-1.45799">
        <ele>27.1</ele>
        <time>2021-07-18T14:47:11Z</time>
      </trkpt>
      <trkpt lat="43.39432" lon="-1.45802">
        <ele>27.2</ele>
        <time>2021-07-18T14:47:12Z</time>
      </trkpt>
      <trkpt lat="43.39431" lon="-1.45806">
        <ele>27.4</ele>
        <time>2021-07-18T14:47:14Z</time>
      </trkpt>
      <trkpt lat="43.39429" lon="-1.4581">
        <ele>27.5</ele>
        <time>2021-07-18T14:47:16Z</time>
      </trkpt>
      <trkpt lat="43.39428" lon="-1.45814">
        <ele>27.6</ele>
        <time>2021-07-18T14:47:17Z</time>
      </trkpt>
      <trkpt lat="43.39428" lon="-1.45816">
        <ele>27.6</ele>
        <time>2021-07-18T14:47:18Z</time>
      </trkpt>
      <trkpt lat="43.39427" lon="-1.45819">
        <ele>27.7</ele>
        <time>2021-07-18T14:47:19Z</time>
      </trkpt>
      <trkpt lat="43.39426" lon="-1.45824">
        <ele>27.8</ele>
        <time>2021-07-18T14:47:21Z</time>
      </trkpt>
      <trkpt lat="43.39426" lon="-1.45828">
        <ele>27.8</ele>
        <time>2021-07-18T14:47:22Z</time>
      </trkpt>
      <trkpt lat="43.39423" lon="-1.45834">
        <ele>28</ele>
        <time>2021-07-18T14:47:24Z</time>
      </trkpt>
      <trkpt lat="43.39422" lon="-1.45839">
        <ele>28</ele>
        <time>2021-07-18T14:47:25Z</time>
      </trkpt>
      <trkpt lat="43.39421" lon="-1.45841">
        <ele>28.1</ele>
        <time>2021-07-18T14:47:26Z</time>
      </trkpt>
      <trkpt lat="43.3942" lon="-1.45849">
        <ele>28.1</ele>
        <time>2021-07-18T14:47:28Z</time>
      </trkpt>
      <trkpt lat="43.39418" lon="-1.45856">
        <ele>28.2</ele>
        <time>2021-07-18T14:47:29Z</time>
      </trkpt>
      <trkpt lat="43.39416" lon="-1.45867">
        <ele>28.2</ele>
        <time>2021-07-18T14:47:31Z</time>
      </trkpt>
      <trkpt lat="43.39415" lon="-1.45873">
        <ele>28.2</ele>
        <time>2021-07-18T14:47:32Z</time>
      </trkpt>
      <trkpt lat="43.39415" lon="-1.45879">
        <ele>28.2</ele>
        <time>2021-07-18T14:47:33Z</time>
      </trkpt>
      <trkpt lat="43.39415" lon="-1.45884">
        <ele>28.3</ele>
        <time>2021-07-18T14:47:34Z</time>
      </trkpt>
      <trkpt lat="43.39415" lon="-1.45893">
        <ele>28.5</ele>
        <time>2021-07-18T14:47:36Z</time>
      </trkpt>
      <trkpt lat="43.39415" lon="-1.459">
        <ele>28.7</ele>
        <time>2021-07-18T14:47:38Z</time>
      </trkpt>
      <trkpt lat="43.39416" lon="-1.45903">
        <ele>28.8</ele>
        <time>2021-07-18T14:47:39Z</time>
      </trkpt>
      <trkpt lat="43.39416" lon="-1.45906">
        <ele>29</ele>
        <time>2021-07-18T14:47:41Z</time>
      </trkpt>
      <trkpt lat="43.39417" lon="-1.45908">
        <ele>29.1</ele>
        <time>2021-07-18T14:47:42Z</time>
      </trkpt>
      <trkpt lat="43.39419" lon="-1.45912">
        <ele>29.2</ele>
        <time>2021-07-18T14:47:44Z</time>
      </trkpt>
      <trkpt lat="43.3942" lon="-1.45916">
        <ele>29.5</ele>
        <time>2021-07-18T14:47:46Z</time>
      </trkpt>
      <trkpt lat="43.39422" lon="-1.45919">
        <ele>29.7</ele>
        <time>2021-07-18T14:47:48Z</time>
      </trkpt>
      <trkpt lat="43.39423" lon="-1.4592">
        <ele>29.8</ele>
        <time>2021-07-18T14:47:49Z</time>
      </trkpt>
      <trkpt lat="43.39426" lon="-1.45924">
        <ele>30.1</ele>
        <time>2021-07-18T14:47:51Z</time>
      </trkpt>
      <trkpt lat="43.39428" lon="-1.45927">
        <ele>30.3</ele>
        <time>2021-07-18T14:47:53Z</time>
      </trkpt>
      <trkpt lat="43.3943" lon="-1.45931">
        <ele>30.6</ele>
        <time>2021-07-18T14:47:55Z</time>
      </trkpt>
      <trkpt lat="43.39432" lon="-1.45933">
        <ele>30.8</ele>
        <time>2021-07-18T14:47:57Z</time>
      </trkpt>
      <trkpt lat="43.39434" lon="-1.45934">
        <ele>30.9</ele>
        <time>2021-07-18T14:47:58Z</time>
      </trkpt>
      <trkpt lat="43.39437" lon="-1.45937">
        <ele>31.2</ele>
        <time>2021-07-18T14:48:00Z</time>
      </trkpt>
      <trkpt lat="43.3944" lon="-1.4594">
        <ele>31.5</ele>
        <time>2021-07-18T14:48:02Z</time>
      </trkpt>
      <trkpt lat="43.39441" lon="-1.45941">
        <ele>31.8</ele>
        <time>2021-07-18T14:48:03Z</time>
      </trkpt>
      <trkpt lat="43.39445" lon="-1.45942">
        <ele>31.9</ele>
        <time>2021-07-18T14:48:05Z</time>
      </trkpt>
      <trkpt lat="43.39448" lon="-1.4594">
        <ele>32.1</ele>
        <time>2021-07-18T14:48:07Z</time>
      </trkpt>
      <trkpt lat="43.39449" lon="-1.45939">
        <ele>32.1</ele>
        <time>2021-07-18T14:48:08Z</time>
      </trkpt>
      <trkpt lat="43.39449" lon="-1.45937">
        <ele>32.2</ele>
        <time>2021-07-18T14:48:09Z</time>
      </trkpt>
      <trkpt lat="43.3945" lon="-1.45932">
        <ele>32.3</ele>
        <time>2021-07-18T14:48:11Z</time>
      </trkpt>
      <trkpt lat="43.3945" lon="-1.45931">
        <ele>32.4</ele>
        <time>2021-07-18T14:48:12Z</time>
      </trkpt>
      <trkpt lat="43.39449" lon="-1.45928">
        <ele>32.4</ele>
        <time>2021-07-18T14:48:14Z</time>
      </trkpt>
      <trkpt lat="43.39449" lon="-1.45928">
        <ele>32.4</ele>
        <time>2021-07-18T14:48:15Z</time>
      </trkpt>
      <trkpt lat="43.39449" lon="-1.45926">
        <ele>32.5</ele>
        <time>2021-07-18T14:48:17Z</time>
      </trkpt>
      <trkpt lat="43.39446" lon="-1.45921">
        <ele>32.6</ele>
        <time>2021-07-18T14:48:19Z</time>
      </trkpt>
      <trkpt lat="43.39443" lon="-1.45915">
        <ele>32.6</ele>
        <time>2021-07-18T14:48:21Z</time>
      </trkpt>
      <trkpt lat="43.39442" lon="-1.4591">
        <ele>32.7</ele>
        <time>2021-07-18T14:48:22Z</time>
      </trkpt>
      <trkpt lat="43.39439" lon="-1.45904">
        <ele>32.8</ele>
        <time>2021-07-18T14:48:24Z</time>
      </trkpt>
      <trkpt lat="43.39437" lon="-1.45901">
        <ele>32.8</ele>
        <time>2021-07-18T14:48:25Z</time>
      </trkpt>
      <trkpt lat="43.39435" lon="-1.45897">
        <ele>32.8</ele>
        <time>2021-07-18T14:48:26Z</time>
      </trkpt>
      <trkpt lat="43.39433" lon="-1.45893">
        <ele>32.8</ele>
        <time>2021-07-18T14:48:27Z</time>
      </trkpt>
      <trkpt lat="43.39428" lon="-1.45886">
        <ele>32.9</ele>
        <time>2021-07-18T14:48:29Z</time>
      </trkpt>
      <trkpt lat="43.39425" lon="-1.45881">
        <ele>32.9</ele>
        <time>2021-07-18T14:48:30Z</time>
      </trkpt>
      <trkpt lat="43.39421" lon="-1.45877">
        <ele>32.9</ele>
        <time>2021-07-18T14:48:31Z</time>
      </trkpt>
      <trkpt lat="43.39415" lon="-1.4587">
        <ele>32.9</ele>
        <time>2021-07-18T14:48:33Z</time>
      </trkpt>
      <trkpt lat="43.39408" lon="-1.45864">
        <ele>32.9</ele>
        <time>2021-07-18T14:48:34Z</time>
      </trkpt>
      <trkpt lat="43.39401" lon="-1.45854">
        <ele>32.9</ele>
        <time>2021-07-18T14:48:36Z</time>
      </trkpt>
      <trkpt lat="43.39397" lon="-1.45849">
        <ele>32.9</ele>
        <time>2021-07-18T14:48:37Z</time>
      </trkpt>
      <trkpt lat="43.3939" lon="-1.45838">
        <ele>32.8</ele>
        <time>2021-07-18T14:48:39Z</time>
      </trkpt>
      <trkpt lat="43.39387" lon="-1.45833">
        <ele>32.7</ele>
        <time>2021-07-18T14:48:40Z</time>
      </trkpt>
      <trkpt lat="43.39379" lon="-1.45824">
        <ele>32.6</ele>
        <time>2021-07-18T14:48:42Z</time>
      </trkpt>
      <trkpt lat="43.39372" lon="-1.45812">
        <ele>32.5</ele>
        <time>2021-07-18T14:48:44Z</time>
      </trkpt>
      <trkpt lat="43.39369" lon="-1.45807">
        <ele>32.5</ele>
        <time>2021-07-18T14:48:45Z</time>
      </trkpt>
      <trkpt lat="43.39365" lon="-1.45802">
        <ele>32.4</ele>
        <time>2021-07-18T14:48:46Z</time>
      </trkpt>
      <trkpt lat="43.39358" lon="-1.45792">
        <ele>32.4</ele>
        <time>2021-07-18T14:48:48Z</time>
      </trkpt>
      <trkpt lat="43.39351" lon="-1.45781">
        <ele>32.3</ele>
        <time>2021-07-18T14:48:50Z</time>
      </trkpt>
      <trkpt lat="43.39345" lon="-1.4577">
        <ele>32.3</ele>
        <time>2021-07-18T14:48:52Z</time>
      </trkpt>
      <trkpt lat="43.39338" lon="-1.4576">
        <ele>32.2</ele>
        <time>2021-07-18T14:48:54Z</time>
      </trkpt>
      <trkpt lat="43.39334" lon="-1.45754">
        <ele>32.2</ele>
        <time>2021-07-18T14:48:55Z</time>
      </trkpt>
      <trkpt lat="43.3933" lon="-1.45749">
        <ele>32.1</ele>
        <time>2021-07-18T14:48:56Z</time>
      </trkpt>
      <trkpt lat="43.39323" lon="-1.45738">
        <ele>32.1</ele>
        <time>2021-07-18T14:48:58Z</time>
      </trkpt>
      <trkpt lat="43.39316" lon="-1.45726">
        <ele>32</ele>
        <time>2021-07-18T14:49:00Z</time>
      </trkpt>
      <trkpt lat="43.39309" lon="-1.45716">
        <ele>32</ele>
        <time>2021-07-18T14:49:02Z</time>
      </trkpt>
      <trkpt lat="43.39305" lon="-1.4571">
        <ele>32</ele>
        <time>2021-07-18T14:49:03Z</time>
      </trkpt>
      <trkpt lat="43.39301" lon="-1.45704">
        <ele>32</ele>
        <time>2021-07-18T14:49:04Z</time>
      </trkpt>
      <trkpt lat="43.39294" lon="-1.45694">
        <ele>32</ele>
        <time>2021-07-18T14:49:06Z</time>
      </trkpt>
      <trkpt lat="43.39291" lon="-1.45688">
        <ele>32</ele>
        <time>2021-07-18T14:49:07Z</time>
      </trkpt>
      <trkpt lat="43.39287" lon="-1.45683">
        <ele>32</ele>
        <time>2021-07-18T14:49:08Z</time>
      </trkpt>
      <trkpt lat="43.3928" lon="-1.45673">
        <ele>32</ele>
        <time>2021-07-18T14:49:10Z</time>
      </trkpt>
      <trkpt lat="43.39277" lon="-1.45667">
        <ele>32</ele>
        <time>2021-07-18T14:49:11Z</time>
      </trkpt>
      <trkpt lat="43.3927" lon="-1.45657">
        <ele>32</ele>
        <time>2021-07-18T14:49:13Z</time>
      </trkpt>
      <trkpt lat="43.39266" lon="-1.45651">
        <ele>32.1</ele>
        <time>2021-07-18T14:49:14Z</time>
      </trkpt>
      <trkpt lat="43.39259" lon="-1.45642">
        <ele>32.1</ele>
        <time>2021-07-18T14:49:16Z</time>
      </trkpt>
      <trkpt lat="43.39252" lon="-1.45631">
        <ele>32.2</ele>
        <time>2021-07-18T14:49:18Z</time>
      </trkpt>
      <trkpt lat="43.39248" lon="-1.45627">
        <ele>32.2</ele>
        <time>2021-07-18T14:49:19Z</time>
      </trkpt>
      <trkpt lat="43.39241" lon="-1.45618">
        <ele>32.2</ele>
        <time>2021-07-18T14:49:21Z</time>
      </trkpt>
      <trkpt lat="43.39234" lon="-1.45609">
        <ele>32.3</ele>
        <time>2021-07-18T14:49:23Z</time>
      </trkpt>
      <trkpt lat="43.39231" lon="-1.45604">
        <ele>32.3</ele>
        <time>2021-07-18T14:49:24Z</time>
      </trkpt>
      <trkpt lat="43.39223" lon="-1.45597">
        <ele>32.4</ele>
        <time>2021-07-18T14:49:26Z</time>
      </trkpt>
      <trkpt lat="43.3922" lon="-1.45593">
        <ele>32.5</ele>
        <time>2021-07-18T14:49:27Z</time>
      </trkpt>
      <trkpt lat="43.39213" lon="-1.45587">
        <ele>32.6</ele>
        <time>2021-07-18T14:49:29Z</time>
      </trkpt>
      <trkpt lat="43.3921" lon="-1.45584">
        <ele>32.7</ele>
        <time>2021-07-18T14:49:30Z</time>
      </trkpt>
      <trkpt lat="43.39207" lon="-1.45581">
        <ele>32.7</ele>
        <time>2021-07-18T14:49:31Z</time>
      </trkpt>
      <trkpt lat="43.39201" lon="-1.45574">
        <ele>32.9</ele>
        <time>2021-07-18T14:49:33Z</time>
      </trkpt>
      <trkpt lat="43.39198" lon="-1.45571">
        <ele>33</ele>
        <time>2021-07-18T14:49:34Z</time>
      </trkpt>
      <trkpt lat="43.39192" lon="-1.45566">
        <ele>33.1</ele>
        <time>2021-07-18T14:49:36Z</time>
      </trkpt>
      <trkpt lat="43.3919" lon="-1.45568">
        <ele>33.1</ele>
        <time>2021-07-18T14:49:37Z</time>
      </trkpt>
      <trkpt lat="43.39187" lon="-1.45565">
        <ele>33.2</ele>
        <time>2021-07-18T14:49:38Z</time>
      </trkpt>
      <trkpt lat="43.39183" lon="-1.45561">
        <ele>33.3</ele>
        <time>2021-07-18T14:49:39Z</time>
      </trkpt>
      <trkpt lat="43.39177" lon="-1.45553">
        <ele>33.4</ele>
        <time>2021-07-18T14:49:41Z</time>
      </trkpt>
      <trkpt lat="43.39171" lon="-1.45546">
        <ele>33.6</ele>
        <time>2021-07-18T14:49:43Z</time>
      </trkpt>
      <trkpt lat="43.39168" lon="-1.45542">
        <ele>33.6</ele>
        <time>2021-07-18T14:49:44Z</time>
      </trkpt>
      <trkpt lat="43.39162" lon="-1.45535">
        <ele>33.8</ele>
        <time>2021-07-18T14:49:46Z</time>
      </trkpt>
      <trkpt lat="43.39157" lon="-1.45529">
        <ele>33.9</ele>
        <time>2021-07-18T14:49:48Z</time>
      </trkpt>
      <trkpt lat="43.39154" lon="-1.45525">
        <ele>34</ele>
        <time>2021-07-18T14:49:49Z</time>
      </trkpt>
      <trkpt lat="43.39152" lon="-1.45521">
        <ele>34</ele>
        <time>2021-07-18T14:49:50Z</time>
      </trkpt>
      <trkpt lat="43.39149" lon="-1.45516">
        <ele>34.1</ele>
        <time>2021-07-18T14:49:51Z</time>
      </trkpt>
      <trkpt lat="43.39145" lon="-1.45511">
        <ele>34.1</ele>
        <time>2021-07-18T14:49:53Z</time>
      </trkpt>
      <trkpt lat="43.39142" lon="-1.45507">
        <ele>34.2</ele>
        <time>2021-07-18T14:49:54Z</time>
      </trkpt>
      <trkpt lat="43.39138" lon="-1.45501">
        <ele>34.2</ele>
        <time>2021-07-18T14:49:55Z</time>
      </trkpt>
      <trkpt lat="43.39135" lon="-1.45495">
        <ele>34.3</ele>
        <time>2021-07-18T14:49:57Z</time>
      </trkpt>
      <trkpt lat="43.39133" lon="-1.4549">
        <ele>34.3</ele>
        <time>2021-07-18T14:49:58Z</time>
      </trkpt>
      <trkpt lat="43.3913" lon="-1.45485">
        <ele>34.3</ele>
        <time>2021-07-18T14:49:59Z</time>
      </trkpt>
      <trkpt lat="43.39128" lon="-1.45481">
        <ele>34.3</ele>
        <time>2021-07-18T14:50:00Z</time>
      </trkpt>
      <trkpt lat="43.39125" lon="-1.45475">
        <ele>34.4</ele>
        <time>2021-07-18T14:50:02Z</time>
      </trkpt>
      <trkpt lat="43.39122" lon="-1.4547">
        <ele>34.3</ele>
        <time>2021-07-18T14:50:03Z</time>
      </trkpt>
      <trkpt lat="43.3912" lon="-1.45464">
        <ele>34.3</ele>
        <time>2021-07-18T14:50:04Z</time>
      </trkpt>
      <trkpt lat="43.39116" lon="-1.45455">
        <ele>34.2</ele>
        <time>2021-07-18T14:50:06Z</time>
      </trkpt>
      <trkpt lat="43.39114" lon="-1.4545">
        <ele>34.1</ele>
        <time>2021-07-18T14:50:07Z</time>
      </trkpt>
      <trkpt lat="43.39111" lon="-1.4544">
        <ele>34</ele>
        <time>2021-07-18T14:50:08Z</time>
      </trkpt>
      <trkpt lat="43.39107" lon="-1.45428">
        <ele>33.7</ele>
        <time>2021-07-18T14:50:10Z</time>
      </trkpt>
      <trkpt lat="43.39102" lon="-1.45414">
        <ele>33.3</ele>
        <time>2021-07-18T14:50:12Z</time>
      </trkpt>
      <trkpt lat="43.391" lon="-1.45407">
        <ele>33.1</ele>
        <time>2021-07-18T14:50:13Z</time>
      </trkpt>
      <trkpt lat="43.39097" lon="-1.454">
        <ele>32.9</ele>
        <time>2021-07-18T14:50:14Z</time>
      </trkpt>
      <trkpt lat="43.39094" lon="-1.45392">
        <ele>32.7</ele>
        <time>2021-07-18T14:50:15Z</time>
      </trkpt>
      <trkpt lat="43.39088" lon="-1.45377">
        <ele>32.1</ele>
        <time>2021-07-18T14:50:17Z</time>
      </trkpt>
      <trkpt lat="43.39085" lon="-1.45369">
        <ele>31.8</ele>
        <time>2021-07-18T14:50:18Z</time>
      </trkpt>
      <trkpt lat="43.39078" lon="-1.45353">
        <ele>31</ele>
        <time>2021-07-18T14:50:20Z</time>
      </trkpt>
      <trkpt lat="43.39075" lon="-1.45344">
        <ele>30.6</ele>
        <time>2021-07-18T14:50:21Z</time>
      </trkpt>
      <trkpt lat="43.39071" lon="-1.45335">
        <ele>30.1</ele>
        <time>2021-07-18T14:50:22Z</time>
      </trkpt>
      <trkpt lat="43.39062" lon="-1.45317">
        <ele>29.2</ele>
        <time>2021-07-18T14:50:24Z</time>
      </trkpt>
      <trkpt lat="43.39052" lon="-1.45298">
        <ele>28.1</ele>
        <time>2021-07-18T14:50:26Z</time>
      </trkpt>
      <trkpt lat="43.39047" lon="-1.45289">
        <ele>27.6</ele>
        <time>2021-07-18T14:50:27Z</time>
      </trkpt>
      <trkpt lat="43.39041" lon="-1.4528">
        <ele>27.1</ele>
        <time>2021-07-18T14:50:28Z</time>
      </trkpt>
      <trkpt lat="43.39035" lon="-1.4527">
        <ele>26.7</ele>
        <time>2021-07-18T14:50:29Z</time>
      </trkpt>
      <trkpt lat="43.39023" lon="-1.45254">
        <ele>25.9</ele>
        <time>2021-07-18T14:50:31Z</time>
      </trkpt>
      <trkpt lat="43.39017" lon="-1.45252">
        <ele>25.6</ele>
        <time>2021-07-18T14:50:33Z</time>
      </trkpt>
      <trkpt lat="43.39012" lon="-1.45249">
        <ele>25.4</ele>
        <time>2021-07-18T14:50:35Z</time>
      </trkpt>
      <trkpt lat="43.39009" lon="-1.45249">
        <ele>25.3</ele>
        <time>2021-07-18T14:50:36Z</time>
      </trkpt>
      <trkpt lat="43.39002" lon="-1.45248">
        <ele>25.4</ele>
        <time>2021-07-18T14:50:38Z</time>
      </trkpt>
      <trkpt lat="43.38998" lon="-1.45246">
        <ele>25.4</ele>
        <time>2021-07-18T14:50:39Z</time>
      </trkpt>
      <trkpt lat="43.38994" lon="-1.45242">
        <ele>25.4</ele>
        <time>2021-07-18T14:50:40Z</time>
      </trkpt>
      <trkpt lat="43.38988" lon="-1.45227">
        <ele>24.6</ele>
        <time>2021-07-18T14:50:42Z</time>
      </trkpt>
      <trkpt lat="43.38984" lon="-1.45211">
        <ele>23.1</ele>
        <time>2021-07-18T14:50:44Z</time>
      </trkpt>
      <trkpt lat="43.38972" lon="-1.45199">
        <ele>21.9</ele>
        <time>2021-07-18T14:50:46Z</time>
      </trkpt>
      <trkpt lat="43.38964" lon="-1.45193">
        <ele>21.3</ele>
        <time>2021-07-18T14:50:47Z</time>
      </trkpt>
      <trkpt lat="43.38948" lon="-1.45181">
        <ele>19.8</ele>
        <time>2021-07-18T14:50:49Z</time>
      </trkpt>
      <trkpt lat="43.38931" lon="-1.45171">
        <ele>18.4</ele>
        <time>2021-07-18T14:50:51Z</time>
      </trkpt>
      <trkpt lat="43.38921" lon="-1.45167">
        <ele>17.6</ele>
        <time>2021-07-18T14:50:52Z</time>
      </trkpt>
      <trkpt lat="43.38911" lon="-1.45163">
        <ele>16.9</ele>
        <time>2021-07-18T14:50:53Z</time>
      </trkpt>
      <trkpt lat="43.38901" lon="-1.4516">
        <ele>16.3</ele>
        <time>2021-07-18T14:50:54Z</time>
      </trkpt>
      <trkpt lat="43.38882" lon="-1.45153">
        <ele>15.2</ele>
        <time>2021-07-18T14:50:56Z</time>
      </trkpt>
      <trkpt lat="43.38862" lon="-1.45145">
        <ele>14.4</ele>
        <time>2021-07-18T14:50:58Z</time>
      </trkpt>
      <trkpt lat="43.38853" lon="-1.45142">
        <ele>14.1</ele>
        <time>2021-07-18T14:50:59Z</time>
      </trkpt>
      <trkpt lat="43.38844" lon="-1.45137">
        <ele>13.8</ele>
        <time>2021-07-18T14:51:00Z</time>
      </trkpt>
      <trkpt lat="43.38826" lon="-1.45128">
        <ele>13.4</ele>
        <time>2021-07-18T14:51:02Z</time>
      </trkpt>
      <trkpt lat="43.38809" lon="-1.45117">
        <ele>13.2</ele>
        <time>2021-07-18T14:51:04Z</time>
      </trkpt>
      <trkpt lat="43.38793" lon="-1.45107">
        <ele>13</ele>
        <time>2021-07-18T14:51:06Z</time>
      </trkpt>
      <trkpt lat="43.38786" lon="-1.45101">
        <ele>13</ele>
        <time>2021-07-18T14:51:07Z</time>
      </trkpt>
      <trkpt lat="43.38772" lon="-1.4509">
        <ele>13.1</ele>
        <time>2021-07-18T14:51:09Z</time>
      </trkpt>
      <trkpt lat="43.38766" lon="-1.45084">
        <ele>13.1</ele>
        <time>2021-07-18T14:51:10Z</time>
      </trkpt>
      <trkpt lat="43.38755" lon="-1.45074">
        <ele>13.1</ele>
        <time>2021-07-18T14:51:12Z</time>
      </trkpt>
      <trkpt lat="43.3875" lon="-1.45071">
        <ele>13.1</ele>
        <time>2021-07-18T14:51:14Z</time>
      </trkpt>
      <trkpt lat="43.38746" lon="-1.45069">
        <ele>13.1</ele>
        <time>2021-07-18T14:51:15Z</time>
      </trkpt>
      <trkpt lat="43.38745" lon="-1.45068">
        <ele>13.1</ele>
        <time>2021-07-18T14:51:16Z</time>
      </trkpt>
      <trkpt lat="43.38743" lon="-1.45065">
        <ele>12.9</ele>
        <time>2021-07-18T14:51:18Z</time>
      </trkpt>
      <trkpt lat="43.38741" lon="-1.45062">
        <ele>12.8</ele>
        <time>2021-07-18T14:51:20Z</time>
      </trkpt>
      <trkpt lat="43.38741" lon="-1.45061">
        <ele>12.8</ele>
        <time>2021-07-18T14:51:21Z</time>
      </trkpt>
      <trkpt lat="43.38741" lon="-1.45061">
        <ele>12.8</ele>
        <time>2021-07-18T14:51:23Z</time>
      </trkpt>
      <trkpt lat="43.38741" lon="-1.45061">
        <ele>12.8</ele>
        <time>2021-07-18T14:51:25Z</time>
      </trkpt>
      <trkpt lat="43.38741" lon="-1.4506">
        <ele>12.8</ele>
        <time>2021-07-18T14:51:26Z</time>
      </trkpt>
      <trkpt lat="43.38741" lon="-1.4506">
        <ele>12.7</ele>
        <time>2021-07-18T14:51:28Z</time>
      </trkpt>
      <trkpt lat="43.38741" lon="-1.45059">
        <ele>12.7</ele>
        <time>2021-07-18T14:51:29Z</time>
      </trkpt>
      <trkpt lat="43.38741" lon="-1.45059">
        <ele>12.7</ele>
        <time>2021-07-18T14:51:30Z</time>
      </trkpt>
      <trkpt lat="43.38744" lon="-1.45055">
        <ele>12.5</ele>
        <time>2021-07-18T14:51:32Z</time>
      </trkpt>
      <trkpt lat="43.38747" lon="-1.45056">
        <ele>12.4</ele>
        <time>2021-07-18T14:51:33Z</time>
      </trkpt>
      <trkpt lat="43.38751" lon="-1.45058">
        <ele>12.2</ele>
        <time>2021-07-18T14:51:34Z</time>
      </trkpt>
      <trkpt lat="43.38755" lon="-1.4506">
        <ele>12</ele>
        <time>2021-07-18T14:51:36Z</time>
      </trkpt>
      <trkpt lat="43.38758" lon="-1.45057">
        <ele>11.9</ele>
        <time>2021-07-18T14:51:37Z</time>
      </trkpt>
      <trkpt lat="43.3876" lon="-1.45055">
        <ele>11.8</ele>
        <time>2021-07-18T14:51:38Z</time>
      </trkpt>
      <trkpt lat="43.38762" lon="-1.45052">
        <ele>11.6</ele>
        <time>2021-07-18T14:51:39Z</time>
      </trkpt>
      <trkpt lat="43.38763" lon="-1.45047">
        <ele>11.5</ele>
        <time>2021-07-18T14:51:40Z</time>
      </trkpt>
      <trkpt lat="43.38769" lon="-1.45028">
        <ele>10.8</ele>
        <time>2021-07-18T14:51:42Z</time>
      </trkpt>
      <trkpt lat="43.38771" lon="-1.4502">
        <ele>10.5</ele>
        <time>2021-07-18T14:51:43Z</time>
      </trkpt>
      <trkpt lat="43.38774" lon="-1.45004">
        <ele>10</ele>
        <time>2021-07-18T14:51:45Z</time>
      </trkpt>
      <trkpt lat="43.38776" lon="-1.44997">
        <ele>9.7</ele>
        <time>2021-07-18T14:51:46Z</time>
      </trkpt>
      <trkpt lat="43.38778" lon="-1.44989">
        <ele>9.5</ele>
        <time>2021-07-18T14:51:47Z</time>
      </trkpt>
      <trkpt lat="43.38781" lon="-1.44974">
        <ele>9</ele>
        <time>2021-07-18T14:51:49Z</time>
      </trkpt>
      <trkpt lat="43.38782" lon="-1.44968">
        <ele>8.8</ele>
        <time>2021-07-18T14:51:50Z</time>
      </trkpt>
      <trkpt lat="43.38784" lon="-1.44962">
        <ele>8.6</ele>
        <time>2021-07-18T14:51:51Z</time>
      </trkpt>
      <trkpt lat="43.38786" lon="-1.44949">
        <ele>8.2</ele>
        <time>2021-07-18T14:51:53Z</time>
      </trkpt>
      <trkpt lat="43.38785" lon="-1.44943">
        <ele>8</ele>
        <time>2021-07-18T14:51:54Z</time>
      </trkpt>
      <trkpt lat="43.38784" lon="-1.4493">
        <ele>7.6</ele>
        <time>2021-07-18T14:51:56Z</time>
      </trkpt>
      <trkpt lat="43.38784" lon="-1.44924">
        <ele>7.3</ele>
        <time>2021-07-18T14:51:57Z</time>
      </trkpt>
      <trkpt lat="43.38784" lon="-1.4491">
        <ele>6.9</ele>
        <time>2021-07-18T14:51:59Z</time>
      </trkpt>
      <trkpt lat="43.38784" lon="-1.44904">
        <ele>6.7</ele>
        <time>2021-07-18T14:52:00Z</time>
      </trkpt>
      <trkpt lat="43.38787" lon="-1.44895">
        <ele>6.4</ele>
        <time>2021-07-18T14:52:02Z</time>
      </trkpt>
      <trkpt lat="43.38787" lon="-1.44892">
        <ele>6.4</ele>
        <time>2021-07-18T14:52:03Z</time>
      </trkpt>
      <trkpt lat="43.38787" lon="-1.44884">
        <ele>6.4</ele>
        <time>2021-07-18T14:52:05Z</time>
      </trkpt>
      <trkpt lat="43.38786" lon="-1.44874">
        <ele>6.4</ele>
        <time>2021-07-18T14:52:07Z</time>
      </trkpt>
      <trkpt lat="43.38782" lon="-1.44868">
        <ele>6.4</ele>
        <time>2021-07-18T14:52:09Z</time>
      </trkpt>
      <trkpt lat="43.38781" lon="-1.44857">
        <ele>6.3</ele>
        <time>2021-07-18T14:52:10Z</time>
      </trkpt>
      <trkpt lat="43.38779" lon="-1.4485">
        <ele>6.3</ele>
        <time>2021-07-18T14:52:11Z</time>
      </trkpt>
      <trkpt lat="43.38776" lon="-1.44838">
        <ele>6.3</ele>
        <time>2021-07-18T14:52:13Z</time>
      </trkpt>
      <trkpt lat="43.38775" lon="-1.44831">
        <ele>6.3</ele>
        <time>2021-07-18T14:52:14Z</time>
      </trkpt>
      <trkpt lat="43.38773" lon="-1.44825">
        <ele>6.3</ele>
        <time>2021-07-18T14:52:15Z</time>
      </trkpt>
      <trkpt lat="43.38775" lon="-1.44819">
        <ele>6.3</ele>
        <time>2021-07-18T14:52:17Z</time>
      </trkpt>
      <trkpt lat="43.38773" lon="-1.44816">
        <ele>6.3</ele>
        <time>2021-07-18T14:52:18Z</time>
      </trkpt>
      <trkpt lat="43.38768" lon="-1.44807">
        <ele>6.3</ele>
        <time>2021-07-18T14:52:20Z</time>
      </trkpt>
      <trkpt lat="43.38763" lon="-1.44799">
        <ele>6.3</ele>
        <time>2021-07-18T14:52:21Z</time>
      </trkpt>
      <trkpt lat="43.3876" lon="-1.44793">
        <ele>6.3</ele>
        <time>2021-07-18T14:52:23Z</time>
      </trkpt>
      <trkpt lat="43.38759" lon="-1.44787">
        <ele>6.3</ele>
        <time>2021-07-18T14:52:24Z</time>
      </trkpt>
      <trkpt lat="43.38757" lon="-1.4478">
        <ele>6.2</ele>
        <time>2021-07-18T14:52:25Z</time>
      </trkpt>
      <trkpt lat="43.38755" lon="-1.44772">
        <ele>6.2</ele>
        <time>2021-07-18T14:52:26Z</time>
      </trkpt>
      <trkpt lat="43.38754" lon="-1.44762">
        <ele>6.2</ele>
        <time>2021-07-18T14:52:28Z</time>
      </trkpt>
      <trkpt lat="43.38752" lon="-1.44757">
        <ele>6.2</ele>
        <time>2021-07-18T14:52:29Z</time>
      </trkpt>
      <trkpt lat="43.38749" lon="-1.44743">
        <ele>6.2</ele>
        <time>2021-07-18T14:52:31Z</time>
      </trkpt>
      <trkpt lat="43.38747" lon="-1.44737">
        <ele>6.2</ele>
        <time>2021-07-18T14:52:32Z</time>
      </trkpt>
      <trkpt lat="43.38743" lon="-1.44729">
        <ele>6.2</ele>
        <time>2021-07-18T14:52:34Z</time>
      </trkpt>
      <trkpt lat="43.38744" lon="-1.44722">
        <ele>6.2</ele>
        <time>2021-07-18T14:52:36Z</time>
      </trkpt>
      <trkpt lat="43.38741" lon="-1.44717">
        <ele>6.2</ele>
        <time>2021-07-18T14:52:37Z</time>
      </trkpt>
      <trkpt lat="43.38735" lon="-1.44709">
        <ele>6.2</ele>
        <time>2021-07-18T14:52:38Z</time>
      </trkpt>
      <trkpt lat="43.38731" lon="-1.44703">
        <ele>6.1</ele>
        <time>2021-07-18T14:52:39Z</time>
      </trkpt>
      <trkpt lat="43.38725" lon="-1.44695">
        <ele>6.1</ele>
        <time>2021-07-18T14:52:41Z</time>
      </trkpt>
      <trkpt lat="43.38722" lon="-1.44689">
        <ele>6.1</ele>
        <time>2021-07-18T14:52:42Z</time>
      </trkpt>
      <trkpt lat="43.38719" lon="-1.44683">
        <ele>6.1</ele>
        <time>2021-07-18T14:52:44Z</time>
      </trkpt>
      <trkpt lat="43.38716" lon="-1.44678">
        <ele>6.1</ele>
        <time>2021-07-18T14:52:45Z</time>
      </trkpt>
      <trkpt lat="43.38714" lon="-1.44671">
        <ele>6.1</ele>
        <time>2021-07-18T14:52:46Z</time>
      </trkpt>
      <trkpt lat="43.38709" lon="-1.44663">
        <ele>6.1</ele>
        <time>2021-07-18T14:52:48Z</time>
      </trkpt>
      <trkpt lat="43.38706" lon="-1.44658">
        <ele>6.1</ele>
        <time>2021-07-18T14:52:49Z</time>
      </trkpt>
      <trkpt lat="43.38702" lon="-1.44654">
        <ele>6.1</ele>
        <time>2021-07-18T14:52:51Z</time>
      </trkpt>
      <trkpt lat="43.38699" lon="-1.44648">
        <ele>6.1</ele>
        <time>2021-07-18T14:52:52Z</time>
      </trkpt>
      <trkpt lat="43.38697" lon="-1.44644">
        <ele>6.1</ele>
        <time>2021-07-18T14:52:53Z</time>
      </trkpt>
      <trkpt lat="43.38695" lon="-1.44638">
        <ele>6</ele>
        <time>2021-07-18T14:52:54Z</time>
      </trkpt>
      <trkpt lat="43.38693" lon="-1.44634">
        <ele>6</ele>
        <time>2021-07-18T14:52:56Z</time>
      </trkpt>
      <trkpt lat="43.38691" lon="-1.44628">
        <ele>6</ele>
        <time>2021-07-18T14:52:57Z</time>
      </trkpt>
      <trkpt lat="43.38689" lon="-1.44624">
        <ele>6</ele>
        <time>2021-07-18T14:52:58Z</time>
      </trkpt>
      <trkpt lat="43.38687" lon="-1.44621">
        <ele>6</ele>
        <time>2021-07-18T14:52:59Z</time>
      </trkpt>
      <trkpt lat="43.38686" lon="-1.44617">
        <ele>6</ele>
        <time>2021-07-18T14:53:00Z</time>
      </trkpt>
      <trkpt lat="43.38683" lon="-1.44612">
        <ele>6</ele>
        <time>2021-07-18T14:53:02Z</time>
      </trkpt>
      <trkpt lat="43.38682" lon="-1.44608">
        <ele>6</ele>
        <time>2021-07-18T14:53:03Z</time>
      </trkpt>
      <trkpt lat="43.3868" lon="-1.44603">
        <ele>6</ele>
        <time>2021-07-18T14:53:04Z</time>
      </trkpt>
      <trkpt lat="43.38677" lon="-1.44595">
        <ele>6</ele>
        <time>2021-07-18T14:53:06Z</time>
      </trkpt>
      <trkpt lat="43.38675" lon="-1.4459">
        <ele>6</ele>
        <time>2021-07-18T14:53:08Z</time>
      </trkpt>
      <trkpt lat="43.38673" lon="-1.44585">
        <ele>6</ele>
        <time>2021-07-18T14:53:09Z</time>
      </trkpt>
      <trkpt lat="43.38671" lon="-1.4458">
        <ele>6</ele>
        <time>2021-07-18T14:53:10Z</time>
      </trkpt>
      <trkpt lat="43.38669" lon="-1.44574">
        <ele>6</ele>
        <time>2021-07-18T14:53:11Z</time>
      </trkpt>
      <trkpt lat="43.38668" lon="-1.44569">
        <ele>6</ele>
        <time>2021-07-18T14:53:12Z</time>
      </trkpt>
      <trkpt lat="43.38666" lon="-1.44562">
        <ele>5.9</ele>
        <time>2021-07-18T14:53:14Z</time>
      </trkpt>
      <trkpt lat="43.38665" lon="-1.44556">
        <ele>5.9</ele>
        <time>2021-07-18T14:53:15Z</time>
      </trkpt>
      <trkpt lat="43.38664" lon="-1.44549">
        <ele>5.9</ele>
        <time>2021-07-18T14:53:16Z</time>
      </trkpt>
      <trkpt lat="43.38664" lon="-1.44542">
        <ele>5.9</ele>
        <time>2021-07-18T14:53:18Z</time>
      </trkpt>
      <trkpt lat="43.38665" lon="-1.44536">
        <ele>5.9</ele>
        <time>2021-07-18T14:53:19Z</time>
      </trkpt>
      <trkpt lat="43.38665" lon="-1.4453">
        <ele>5.9</ele>
        <time>2021-07-18T14:53:20Z</time>
      </trkpt>
      <trkpt lat="43.38666" lon="-1.44526">
        <ele>5.9</ele>
        <time>2021-07-18T14:53:21Z</time>
      </trkpt>
      <trkpt lat="43.38667" lon="-1.44518">
        <ele>5.9</ele>
        <time>2021-07-18T14:53:23Z</time>
      </trkpt>
      <trkpt lat="43.38665" lon="-1.4451">
        <ele>5.9</ele>
        <time>2021-07-18T14:53:25Z</time>
      </trkpt>
      <trkpt lat="43.38666" lon="-1.44503">
        <ele>5.9</ele>
        <time>2021-07-18T14:53:26Z</time>
      </trkpt>
      <trkpt lat="43.38665" lon="-1.44498">
        <ele>5.9</ele>
        <time>2021-07-18T14:53:27Z</time>
      </trkpt>
      <trkpt lat="43.38665" lon="-1.44493">
        <ele>5.9</ele>
        <time>2021-07-18T14:53:28Z</time>
      </trkpt>
      <trkpt lat="43.38664" lon="-1.44487">
        <ele>5.9</ele>
        <time>2021-07-18T14:53:29Z</time>
      </trkpt>
      <trkpt lat="43.38662" lon="-1.44478">
        <ele>5.8</ele>
        <time>2021-07-18T14:53:31Z</time>
      </trkpt>
      <trkpt lat="43.38661" lon="-1.44472">
        <ele>5.8</ele>
        <time>2021-07-18T14:53:32Z</time>
      </trkpt>
      <trkpt lat="43.3866" lon="-1.44461">
        <ele>5.8</ele>
        <time>2021-07-18T14:53:34Z</time>
      </trkpt>
      <trkpt lat="43.38658" lon="-1.44457">
        <ele>5.8</ele>
        <time>2021-07-18T14:53:35Z</time>
      </trkpt>
      <trkpt lat="43.38657" lon="-1.44452">
        <ele>5.8</ele>
        <time>2021-07-18T14:53:36Z</time>
      </trkpt>
      <trkpt lat="43.38655" lon="-1.44445">
        <ele>5.8</ele>
        <time>2021-07-18T14:53:37Z</time>
      </trkpt>
      <trkpt lat="43.38653" lon="-1.44438">
        <ele>5.8</ele>
        <time>2021-07-18T14:53:39Z</time>
      </trkpt>
      <trkpt lat="43.38652" lon="-1.44431">
        <ele>5.8</ele>
        <time>2021-07-18T14:53:40Z</time>
      </trkpt>
      <trkpt lat="43.3865" lon="-1.44425">
        <ele>5.8</ele>
        <time>2021-07-18T14:53:41Z</time>
      </trkpt>
      <trkpt lat="43.38647" lon="-1.44416">
        <ele>5.8</ele>
        <time>2021-07-18T14:53:43Z</time>
      </trkpt>
      <trkpt lat="43.38645" lon="-1.4441">
        <ele>5.8</ele>
        <time>2021-07-18T14:53:44Z</time>
      </trkpt>
      <trkpt lat="43.38642" lon="-1.44402">
        <ele>5.7</ele>
        <time>2021-07-18T14:53:46Z</time>
      </trkpt>
      <trkpt lat="43.3864" lon="-1.44396">
        <ele>5.7</ele>
        <time>2021-07-18T14:53:47Z</time>
      </trkpt>
      <trkpt lat="43.38638" lon="-1.44391">
        <ele>5.7</ele>
        <time>2021-07-18T14:53:48Z</time>
      </trkpt>
      <trkpt lat="43.38636" lon="-1.44384">
        <ele>5.7</ele>
        <time>2021-07-18T14:53:49Z</time>
      </trkpt>
      <trkpt lat="43.38634" lon="-1.44379">
        <ele>5.7</ele>
        <time>2021-07-18T14:53:50Z</time>
      </trkpt>
      <trkpt lat="43.38631" lon="-1.44371">
        <ele>5.7</ele>
        <time>2021-07-18T14:53:52Z</time>
      </trkpt>
      <trkpt lat="43.38628" lon="-1.44366">
        <ele>5.7</ele>
        <time>2021-07-18T14:53:53Z</time>
      </trkpt>
      <trkpt lat="43.38626" lon="-1.4436">
        <ele>5.7</ele>
        <time>2021-07-18T14:53:54Z</time>
      </trkpt>
      <trkpt lat="43.38624" lon="-1.44354">
        <ele>5.7</ele>
        <time>2021-07-18T14:53:55Z</time>
      </trkpt>
      <trkpt lat="43.38621" lon="-1.44347">
        <ele>5.7</ele>
        <time>2021-07-18T14:53:57Z</time>
      </trkpt>
      <trkpt lat="43.38619" lon="-1.44342">
        <ele>5.7</ele>
        <time>2021-07-18T14:53:58Z</time>
      </trkpt>
      <trkpt lat="43.38616" lon="-1.44335">
        <ele>5.7</ele>
        <time>2021-07-18T14:53:59Z</time>
      </trkpt>
      <trkpt lat="43.38614" lon="-1.4433">
        <ele>5.7</ele>
        <time>2021-07-18T14:54:00Z</time>
      </trkpt>
      <trkpt lat="43.38609" lon="-1.44321">
        <ele>5.6</ele>
        <time>2021-07-18T14:54:02Z</time>
      </trkpt>
      <trkpt lat="43.38605" lon="-1.44313">
        <ele>5.6</ele>
        <time>2021-07-18T14:54:04Z</time>
      </trkpt>
      <trkpt lat="43.38602" lon="-1.44309">
        <ele>5.6</ele>
        <time>2021-07-18T14:54:05Z</time>
      </trkpt>
      <trkpt lat="43.38599" lon="-1.44304">
        <ele>5.6</ele>
        <time>2021-07-18T14:54:06Z</time>
      </trkpt>
      <trkpt lat="43.38596" lon="-1.44299">
        <ele>5.6</ele>
        <time>2021-07-18T14:54:07Z</time>
      </trkpt>
      <trkpt lat="43.38591" lon="-1.4429">
        <ele>5.6</ele>
        <time>2021-07-18T14:54:09Z</time>
      </trkpt>
      <trkpt lat="43.38585" lon="-1.44281">
        <ele>5.6</ele>
        <time>2021-07-18T14:54:11Z</time>
      </trkpt>
      <trkpt lat="43.38583" lon="-1.44277">
        <ele>5.6</ele>
        <time>2021-07-18T14:54:12Z</time>
      </trkpt>
      <trkpt lat="43.38578" lon="-1.4427">
        <ele>5.6</ele>
        <time>2021-07-18T14:54:14Z</time>
      </trkpt>
      <trkpt lat="43.38574" lon="-1.44264">
        <ele>5.7</ele>
        <time>2021-07-18T14:54:15Z</time>
      </trkpt>
      <trkpt lat="43.38569" lon="-1.44255">
        <ele>5.8</ele>
        <time>2021-07-18T14:54:17Z</time>
      </trkpt>
      <trkpt lat="43.38566" lon="-1.44251">
        <ele>5.9</ele>
        <time>2021-07-18T14:54:18Z</time>
      </trkpt>
      <trkpt lat="43.38563" lon="-1.44246">
        <ele>5.9</ele>
        <time>2021-07-18T14:54:19Z</time>
      </trkpt>
      <trkpt lat="43.38559" lon="-1.44239">
        <ele>6</ele>
        <time>2021-07-18T14:54:21Z</time>
      </trkpt>
      <trkpt lat="43.38555" lon="-1.44233">
        <ele>6.1</ele>
        <time>2021-07-18T14:54:22Z</time>
      </trkpt>
      <trkpt lat="43.38552" lon="-1.44227">
        <ele>6.1</ele>
        <time>2021-07-18T14:54:23Z</time>
      </trkpt>
      <trkpt lat="43.38549" lon="-1.44222">
        <ele>6.2</ele>
        <time>2021-07-18T14:54:24Z</time>
      </trkpt>
      <trkpt lat="43.38545" lon="-1.44214">
        <ele>6.3</ele>
        <time>2021-07-18T14:54:26Z</time>
      </trkpt>
      <trkpt lat="43.3854" lon="-1.44204">
        <ele>6.4</ele>
        <time>2021-07-18T14:54:28Z</time>
      </trkpt>
      <trkpt lat="43.38534" lon="-1.44192">
        <ele>6.5</ele>
        <time>2021-07-18T14:54:30Z</time>
      </trkpt>
      <trkpt lat="43.38529" lon="-1.44182">
        <ele>6.6</ele>
        <time>2021-07-18T14:54:32Z</time>
      </trkpt>
      <trkpt lat="43.38527" lon="-1.44176">
        <ele>6.6</ele>
        <time>2021-07-18T14:54:33Z</time>
      </trkpt>
      <trkpt lat="43.38521" lon="-1.44165">
        <ele>6.8</ele>
        <time>2021-07-18T14:54:35Z</time>
      </trkpt>
      <trkpt lat="43.38517" lon="-1.44161">
        <ele>6.8</ele>
        <time>2021-07-18T14:54:37Z</time>
      </trkpt>
      <trkpt lat="43.38513" lon="-1.44151">
        <ele>6.9</ele>
        <time>2021-07-18T14:54:38Z</time>
      </trkpt>
      <trkpt lat="43.38509" lon="-1.44139">
        <ele>7</ele>
        <time>2021-07-18T14:54:40Z</time>
      </trkpt>
      <trkpt lat="43.38507" lon="-1.44134">
        <ele>7.1</ele>
        <time>2021-07-18T14:54:41Z</time>
      </trkpt>
      <trkpt lat="43.38504" lon="-1.44128">
        <ele>7.1</ele>
        <time>2021-07-18T14:54:42Z</time>
      </trkpt>
      <trkpt lat="43.385" lon="-1.44116">
        <ele>7.2</ele>
        <time>2021-07-18T14:54:44Z</time>
      </trkpt>
      <trkpt lat="43.38498" lon="-1.44111">
        <ele>7.3</ele>
        <time>2021-07-18T14:54:45Z</time>
      </trkpt>
      <trkpt lat="43.38493" lon="-1.44099">
        <ele>7.4</ele>
        <time>2021-07-18T14:54:47Z</time>
      </trkpt>
      <trkpt lat="43.38492" lon="-1.44093">
        <ele>7.5</ele>
        <time>2021-07-18T14:54:48Z</time>
      </trkpt>
      <trkpt lat="43.38489" lon="-1.44083">
        <ele>7.6</ele>
        <time>2021-07-18T14:54:50Z</time>
      </trkpt>
      <trkpt lat="43.38487" lon="-1.44079">
        <ele>7.6</ele>
        <time>2021-07-18T14:54:51Z</time>
      </trkpt>
      <trkpt lat="43.38483" lon="-1.44068">
        <ele>7.7</ele>
        <time>2021-07-18T14:54:53Z</time>
      </trkpt>
      <trkpt lat="43.38481" lon="-1.44062">
        <ele>7.8</ele>
        <time>2021-07-18T14:54:54Z</time>
      </trkpt>
      <trkpt lat="43.38476" lon="-1.4405">
        <ele>7.9</ele>
        <time>2021-07-18T14:54:56Z</time>
      </trkpt>
      <trkpt lat="43.38473" lon="-1.44045">
        <ele>7.9</ele>
        <time>2021-07-18T14:54:57Z</time>
      </trkpt>
      <trkpt lat="43.3847" lon="-1.44039">
        <ele>8</ele>
        <time>2021-07-18T14:54:58Z</time>
      </trkpt>
      <trkpt lat="43.38467" lon="-1.4403">
        <ele>8.1</ele>
        <time>2021-07-18T14:55:00Z</time>
      </trkpt>
      <trkpt lat="43.38466" lon="-1.44031">
        <ele>8.1</ele>
        <time>2021-07-18T14:55:01Z</time>
      </trkpt>
      <trkpt lat="43.3846" lon="-1.44021">
        <ele>8.2</ele>
        <time>2021-07-18T14:55:03Z</time>
      </trkpt>
      <trkpt lat="43.38457" lon="-1.44015">
        <ele>8.3</ele>
        <time>2021-07-18T14:55:04Z</time>
      </trkpt>
      <trkpt lat="43.38453" lon="-1.44008">
        <ele>8.3</ele>
        <time>2021-07-18T14:55:05Z</time>
      </trkpt>
      <trkpt lat="43.38449" lon="-1.44001">
        <ele>8.4</ele>
        <time>2021-07-18T14:55:07Z</time>
      </trkpt>
      <trkpt lat="43.38445" lon="-1.43996">
        <ele>8.5</ele>
        <time>2021-07-18T14:55:08Z</time>
      </trkpt>
      <trkpt lat="43.3844" lon="-1.4399">
        <ele>8.5</ele>
        <time>2021-07-18T14:55:09Z</time>
      </trkpt>
      <trkpt lat="43.38433" lon="-1.43983">
        <ele>8.6</ele>
        <time>2021-07-18T14:55:11Z</time>
      </trkpt>
      <trkpt lat="43.3843" lon="-1.43979">
        <ele>8.7</ele>
        <time>2021-07-18T14:55:12Z</time>
      </trkpt>
      <trkpt lat="43.38425" lon="-1.43975">
        <ele>8.8</ele>
        <time>2021-07-18T14:55:13Z</time>
      </trkpt>
      <trkpt lat="43.38418" lon="-1.43969">
        <ele>8.9</ele>
        <time>2021-07-18T14:55:15Z</time>
      </trkpt>
      <trkpt lat="43.38413" lon="-1.43962">
        <ele>8.9</ele>
        <time>2021-07-18T14:55:17Z</time>
      </trkpt>
      <trkpt lat="43.3841" lon="-1.43957">
        <ele>9</ele>
        <time>2021-07-18T14:55:18Z</time>
      </trkpt>
      <trkpt lat="43.38406" lon="-1.4395">
        <ele>9.1</ele>
        <time>2021-07-18T14:55:19Z</time>
      </trkpt>
      <trkpt lat="43.38404" lon="-1.43945">
        <ele>9.1</ele>
        <time>2021-07-18T14:55:20Z</time>
      </trkpt>
      <trkpt lat="43.384" lon="-1.43939">
        <ele>9.2</ele>
        <time>2021-07-18T14:55:22Z</time>
      </trkpt>
      <trkpt lat="43.38396" lon="-1.43932">
        <ele>9.3</ele>
        <time>2021-07-18T14:55:23Z</time>
      </trkpt>
      <trkpt lat="43.38392" lon="-1.43927">
        <ele>9.3</ele>
        <time>2021-07-18T14:55:24Z</time>
      </trkpt>
      <trkpt lat="43.38386" lon="-1.43918">
        <ele>9.4</ele>
        <time>2021-07-18T14:55:26Z</time>
      </trkpt>
      <trkpt lat="43.38383" lon="-1.43914">
        <ele>9.5</ele>
        <time>2021-07-18T14:55:27Z</time>
      </trkpt>
      <trkpt lat="43.38376" lon="-1.43905">
        <ele>9.6</ele>
        <time>2021-07-18T14:55:29Z</time>
      </trkpt>
      <trkpt lat="43.38373" lon="-1.439">
        <ele>9.6</ele>
        <time>2021-07-18T14:55:30Z</time>
      </trkpt>
      <trkpt lat="43.38366" lon="-1.43891">
        <ele>9.8</ele>
        <time>2021-07-18T14:55:32Z</time>
      </trkpt>
      <trkpt lat="43.38359" lon="-1.43883">
        <ele>9.9</ele>
        <time>2021-07-18T14:55:34Z</time>
      </trkpt>
      <trkpt lat="43.38354" lon="-1.43876">
        <ele>10</ele>
        <time>2021-07-18T14:55:36Z</time>
      </trkpt>
      <trkpt lat="43.38349" lon="-1.43868">
        <ele>10</ele>
        <time>2021-07-18T14:55:38Z</time>
      </trkpt>
      <trkpt lat="43.38346" lon="-1.43862">
        <ele>10.1</ele>
        <time>2021-07-18T14:55:39Z</time>
      </trkpt>
      <trkpt lat="43.38344" lon="-1.43857">
        <ele>10.2</ele>
        <time>2021-07-18T14:55:40Z</time>
      </trkpt>
      <trkpt lat="43.38344" lon="-1.43848">
        <ele>10.2</ele>
        <time>2021-07-18T14:55:42Z</time>
      </trkpt>
      <trkpt lat="43.38339" lon="-1.43839">
        <ele>10.3</ele>
        <time>2021-07-18T14:55:43Z</time>
      </trkpt>
      <trkpt lat="43.38337" lon="-1.43832">
        <ele>10.4</ele>
        <time>2021-07-18T14:55:44Z</time>
      </trkpt>
      <trkpt lat="43.38335" lon="-1.43826">
        <ele>10.4</ele>
        <time>2021-07-18T14:55:45Z</time>
      </trkpt>
      <trkpt lat="43.38334" lon="-1.4382">
        <ele>10.5</ele>
        <time>2021-07-18T14:55:46Z</time>
      </trkpt>
      <trkpt lat="43.38329" lon="-1.43809">
        <ele>10.6</ele>
        <time>2021-07-18T14:55:48Z</time>
      </trkpt>
      <trkpt lat="43.38326" lon="-1.43803">
        <ele>10.7</ele>
        <time>2021-07-18T14:55:49Z</time>
      </trkpt>
      <trkpt lat="43.38322" lon="-1.43798">
        <ele>10.7</ele>
        <time>2021-07-18T14:55:50Z</time>
      </trkpt>
      <trkpt lat="43.38318" lon="-1.43793">
        <ele>10.8</ele>
        <time>2021-07-18T14:55:52Z</time>
      </trkpt>
      <trkpt lat="43.38314" lon="-1.43787">
        <ele>10.9</ele>
        <time>2021-07-18T14:55:53Z</time>
      </trkpt>
      <trkpt lat="43.3831" lon="-1.43783">
        <ele>10.9</ele>
        <time>2021-07-18T14:55:54Z</time>
      </trkpt>
      <trkpt lat="43.38306" lon="-1.43778">
        <ele>11</ele>
        <time>2021-07-18T14:55:56Z</time>
      </trkpt>
      <trkpt lat="43.38303" lon="-1.43775">
        <ele>11</ele>
        <time>2021-07-18T14:55:57Z</time>
      </trkpt>
      <trkpt lat="43.38301" lon="-1.43771">
        <ele>11.1</ele>
        <time>2021-07-18T14:55:58Z</time>
      </trkpt>
      <trkpt lat="43.38298" lon="-1.43768">
        <ele>11.1</ele>
        <time>2021-07-18T14:55:59Z</time>
      </trkpt>
      <trkpt lat="43.38294" lon="-1.43763">
        <ele>11.2</ele>
        <time>2021-07-18T14:56:01Z</time>
      </trkpt>
      <trkpt lat="43.38289" lon="-1.43757">
        <ele>11.3</ele>
        <time>2021-07-18T14:56:02Z</time>
      </trkpt>
      <trkpt lat="43.38285" lon="-1.43752">
        <ele>11.3</ele>
        <time>2021-07-18T14:56:03Z</time>
      </trkpt>
      <trkpt lat="43.38281" lon="-1.43748">
        <ele>11.4</ele>
        <time>2021-07-18T14:56:05Z</time>
      </trkpt>
      <trkpt lat="43.38276" lon="-1.43742">
        <ele>11.4</ele>
        <time>2021-07-18T14:56:06Z</time>
      </trkpt>
      <trkpt lat="43.38272" lon="-1.43735">
        <ele>11.5</ele>
        <time>2021-07-18T14:56:08Z</time>
      </trkpt>
      <trkpt lat="43.38268" lon="-1.43731">
        <ele>11.6</ele>
        <time>2021-07-18T14:56:09Z</time>
      </trkpt>
      <trkpt lat="43.38265" lon="-1.43727">
        <ele>11.6</ele>
        <time>2021-07-18T14:56:10Z</time>
      </trkpt>
      <trkpt lat="43.3826" lon="-1.43721">
        <ele>11.7</ele>
        <time>2021-07-18T14:56:11Z</time>
      </trkpt>
      <trkpt lat="43.38255" lon="-1.43714">
        <ele>11.8</ele>
        <time>2021-07-18T14:56:13Z</time>
      </trkpt>
      <trkpt lat="43.38252" lon="-1.43712">
        <ele>11.8</ele>
        <time>2021-07-18T14:56:14Z</time>
      </trkpt>
      <trkpt lat="43.38246" lon="-1.43706">
        <ele>11.9</ele>
        <time>2021-07-18T14:56:16Z</time>
      </trkpt>
      <trkpt lat="43.38241" lon="-1.43701">
        <ele>12</ele>
        <time>2021-07-18T14:56:17Z</time>
      </trkpt>
      <trkpt lat="43.38238" lon="-1.43698">
        <ele>12</ele>
        <time>2021-07-18T14:56:18Z</time>
      </trkpt>
      <trkpt lat="43.38234" lon="-1.43694">
        <ele>12.1</ele>
        <time>2021-07-18T14:56:19Z</time>
      </trkpt>
      <trkpt lat="43.38229" lon="-1.43689">
        <ele>12.2</ele>
        <time>2021-07-18T14:56:21Z</time>
      </trkpt>
      <trkpt lat="43.38225" lon="-1.43685">
        <ele>12.2</ele>
        <time>2021-07-18T14:56:22Z</time>
      </trkpt>
      <trkpt lat="43.38222" lon="-1.43682">
        <ele>12.3</ele>
        <time>2021-07-18T14:56:23Z</time>
      </trkpt>
      <trkpt lat="43.38217" lon="-1.43676">
        <ele>12.3</ele>
        <time>2021-07-18T14:56:25Z</time>
      </trkpt>
      <trkpt lat="43.38212" lon="-1.43671">
        <ele>12.4</ele>
        <time>2021-07-18T14:56:26Z</time>
      </trkpt>
      <trkpt lat="43.38208" lon="-1.43665">
        <ele>12.5</ele>
        <time>2021-07-18T14:56:28Z</time>
      </trkpt>
      <trkpt lat="43.38204" lon="-1.4366">
        <ele>12.5</ele>
        <time>2021-07-18T14:56:29Z</time>
      </trkpt>
      <trkpt lat="43.38199" lon="-1.43654">
        <ele>12.6</ele>
        <time>2021-07-18T14:56:31Z</time>
      </trkpt>
      <trkpt lat="43.38195" lon="-1.43649">
        <ele>12.7</ele>
        <time>2021-07-18T14:56:32Z</time>
      </trkpt>
      <trkpt lat="43.38192" lon="-1.43645">
        <ele>12.7</ele>
        <time>2021-07-18T14:56:33Z</time>
      </trkpt>
      <trkpt lat="43.38188" lon="-1.43639">
        <ele>12.8</ele>
        <time>2021-07-18T14:56:35Z</time>
      </trkpt>
      <trkpt lat="43.38184" lon="-1.43635">
        <ele>12.9</ele>
        <time>2021-07-18T14:56:36Z</time>
      </trkpt>
      <trkpt lat="43.3818" lon="-1.4363">
        <ele>12.9</ele>
        <time>2021-07-18T14:56:37Z</time>
      </trkpt>
      <trkpt lat="43.38177" lon="-1.43626">
        <ele>13</ele>
        <time>2021-07-18T14:56:38Z</time>
      </trkpt>
      <trkpt lat="43.38174" lon="-1.43622">
        <ele>13</ele>
        <time>2021-07-18T14:56:39Z</time>
      </trkpt>
      <trkpt lat="43.38171" lon="-1.43619">
        <ele>13.1</ele>
        <time>2021-07-18T14:56:40Z</time>
      </trkpt>
      <trkpt lat="43.38166" lon="-1.43614">
        <ele>13.1</ele>
        <time>2021-07-18T14:56:42Z</time>
      </trkpt>
      <trkpt lat="43.38162" lon="-1.43608">
        <ele>13.2</ele>
        <time>2021-07-18T14:56:43Z</time>
      </trkpt>
      <trkpt lat="43.38159" lon="-1.43605">
        <ele>13.3</ele>
        <time>2021-07-18T14:56:44Z</time>
      </trkpt>
      <trkpt lat="43.38154" lon="-1.436">
        <ele>13.3</ele>
        <time>2021-07-18T14:56:46Z</time>
      </trkpt>
      <trkpt lat="43.3815" lon="-1.43596">
        <ele>13.4</ele>
        <time>2021-07-18T14:56:47Z</time>
      </trkpt>
      <trkpt lat="43.38146" lon="-1.43592">
        <ele>13.4</ele>
        <time>2021-07-18T14:56:48Z</time>
      </trkpt>
      <trkpt lat="43.3814" lon="-1.43587">
        <ele>13.5</ele>
        <time>2021-07-18T14:56:50Z</time>
      </trkpt>
      <trkpt lat="43.38136" lon="-1.43584">
        <ele>13.6</ele>
        <time>2021-07-18T14:56:51Z</time>
      </trkpt>
      <trkpt lat="43.38131" lon="-1.4358">
        <ele>13.6</ele>
        <time>2021-07-18T14:56:53Z</time>
      </trkpt>
      <trkpt lat="43.38127" lon="-1.43577">
        <ele>13.7</ele>
        <time>2021-07-18T14:56:54Z</time>
      </trkpt>
      <trkpt lat="43.38122" lon="-1.43573">
        <ele>13.8</ele>
        <time>2021-07-18T14:56:55Z</time>
      </trkpt>
      <trkpt lat="43.38119" lon="-1.4357">
        <ele>13.8</ele>
        <time>2021-07-18T14:56:56Z</time>
      </trkpt>
      <trkpt lat="43.38115" lon="-1.43567">
        <ele>13.9</ele>
        <time>2021-07-18T14:56:57Z</time>
      </trkpt>
      <trkpt lat="43.38112" lon="-1.43565">
        <ele>13.9</ele>
        <time>2021-07-18T14:56:58Z</time>
      </trkpt>
      <trkpt lat="43.38107" lon="-1.43562">
        <ele>14</ele>
        <time>2021-07-18T14:56:59Z</time>
      </trkpt>
      <trkpt lat="43.38102" lon="-1.4356">
        <ele>14</ele>
        <time>2021-07-18T14:57:00Z</time>
      </trkpt>
      <trkpt lat="43.38098" lon="-1.43558">
        <ele>14.1</ele>
        <time>2021-07-18T14:57:02Z</time>
      </trkpt>
      <trkpt lat="43.38093" lon="-1.43556">
        <ele>14.1</ele>
        <time>2021-07-18T14:57:03Z</time>
      </trkpt>
      <trkpt lat="43.38088" lon="-1.43556">
        <ele>14.2</ele>
        <time>2021-07-18T14:57:05Z</time>
      </trkpt>
      <trkpt lat="43.38084" lon="-1.43555">
        <ele>14.2</ele>
        <time>2021-07-18T14:57:06Z</time>
      </trkpt>
      <trkpt lat="43.38079" lon="-1.43555">
        <ele>14.3</ele>
        <time>2021-07-18T14:57:07Z</time>
      </trkpt>
      <trkpt lat="43.38075" lon="-1.43553">
        <ele>14.3</ele>
        <time>2021-07-18T14:57:08Z</time>
      </trkpt>
      <trkpt lat="43.38067" lon="-1.43551">
        <ele>14.4</ele>
        <time>2021-07-18T14:57:10Z</time>
      </trkpt>
      <trkpt lat="43.3806" lon="-1.43549">
        <ele>14.5</ele>
        <time>2021-07-18T14:57:12Z</time>
      </trkpt>
      <trkpt lat="43.38056" lon="-1.43547">
        <ele>14.6</ele>
        <time>2021-07-18T14:57:13Z</time>
      </trkpt>
      <trkpt lat="43.38053" lon="-1.43546">
        <ele>14.6</ele>
        <time>2021-07-18T14:57:14Z</time>
      </trkpt>
      <trkpt lat="43.38047" lon="-1.43544">
        <ele>14.7</ele>
        <time>2021-07-18T14:57:16Z</time>
      </trkpt>
      <trkpt lat="43.38044" lon="-1.43543">
        <ele>14.7</ele>
        <time>2021-07-18T14:57:17Z</time>
      </trkpt>
      <trkpt lat="43.38039" lon="-1.43541">
        <ele>14.8</ele>
        <time>2021-07-18T14:57:18Z</time>
      </trkpt>
      <trkpt lat="43.38032" lon="-1.43539">
        <ele>14.9</ele>
        <time>2021-07-18T14:57:20Z</time>
      </trkpt>
      <trkpt lat="43.38028" lon="-1.43538">
        <ele>14.9</ele>
        <time>2021-07-18T14:57:21Z</time>
      </trkpt>
      <trkpt lat="43.38022" lon="-1.43534">
        <ele>15</ele>
        <time>2021-07-18T14:57:23Z</time>
      </trkpt>
      <trkpt lat="43.38018" lon="-1.43532">
        <ele>15</ele>
        <time>2021-07-18T14:57:24Z</time>
      </trkpt>
      <trkpt lat="43.38015" lon="-1.4353">
        <ele>15.1</ele>
        <time>2021-07-18T14:57:25Z</time>
      </trkpt>
      <trkpt lat="43.38011" lon="-1.43528">
        <ele>15.1</ele>
        <time>2021-07-18T14:57:26Z</time>
      </trkpt>
      <trkpt lat="43.38007" lon="-1.43525">
        <ele>15.2</ele>
        <time>2021-07-18T14:57:28Z</time>
      </trkpt>
      <trkpt lat="43.38004" lon="-1.43524">
        <ele>15.2</ele>
        <time>2021-07-18T14:57:29Z</time>
      </trkpt>
      <trkpt lat="43.38002" lon="-1.43523">
        <ele>15.2</ele>
        <time>2021-07-18T14:57:30Z</time>
      </trkpt>
      <trkpt lat="43.38001" lon="-1.43522">
        <ele>15.2</ele>
        <time>2021-07-18T14:57:31Z</time>
      </trkpt>
      <trkpt lat="43.37997" lon="-1.4352">
        <ele>15.3</ele>
        <time>2021-07-18T14:57:33Z</time>
      </trkpt>
      <trkpt lat="43.37995" lon="-1.4352">
        <ele>15.3</ele>
        <time>2021-07-18T14:57:35Z</time>
      </trkpt>
      <trkpt lat="43.37994" lon="-1.43519">
        <ele>15.3</ele>
        <time>2021-07-18T14:57:36Z</time>
      </trkpt>
      <trkpt lat="43.37992" lon="-1.43519">
        <ele>15.4</ele>
        <time>2021-07-18T14:57:37Z</time>
      </trkpt>
      <trkpt lat="43.37989" lon="-1.43519">
        <ele>15.4</ele>
        <time>2021-07-18T14:57:39Z</time>
      </trkpt>
      <trkpt lat="43.37986" lon="-1.4352">
        <ele>15.4</ele>
        <time>2021-07-18T14:57:40Z</time>
      </trkpt>
      <trkpt lat="43.37981" lon="-1.43522">
        <ele>15.5</ele>
        <time>2021-07-18T14:57:42Z</time>
      </trkpt>
      <trkpt lat="43.37979" lon="-1.43523">
        <ele>15.5</ele>
        <time>2021-07-18T14:57:43Z</time>
      </trkpt>
      <trkpt lat="43.37977" lon="-1.43524">
        <ele>15.5</ele>
        <time>2021-07-18T14:57:44Z</time>
      </trkpt>
      <trkpt lat="43.37973" lon="-1.43526">
        <ele>15.6</ele>
        <time>2021-07-18T14:57:46Z</time>
      </trkpt>
      <trkpt lat="43.3797" lon="-1.43528">
        <ele>15.7</ele>
        <time>2021-07-18T14:57:47Z</time>
      </trkpt>
      <trkpt lat="43.37966" lon="-1.43528">
        <ele>15.7</ele>
        <time>2021-07-18T14:57:48Z</time>
      </trkpt>
      <trkpt lat="43.37965" lon="-1.43528">
        <ele>15.7</ele>
        <time>2021-07-18T14:57:49Z</time>
      </trkpt>
      <trkpt lat="43.37961" lon="-1.43524">
        <ele>15.7</ele>
        <time>2021-07-18T14:57:51Z</time>
      </trkpt>
      <trkpt lat="43.3796" lon="-1.43523">
        <ele>15.7</ele>
        <time>2021-07-18T14:57:52Z</time>
      </trkpt>
      <trkpt lat="43.37959" lon="-1.43522">
        <ele>15.7</ele>
        <time>2021-07-18T14:57:53Z</time>
      </trkpt>
      <trkpt lat="43.37956" lon="-1.4352">
        <ele>15.7</ele>
        <time>2021-07-18T14:57:54Z</time>
      </trkpt>
      <trkpt lat="43.37953" lon="-1.43517">
        <ele>15.7</ele>
        <time>2021-07-18T14:57:56Z</time>
      </trkpt>
      <trkpt lat="43.3795" lon="-1.43514">
        <ele>15.7</ele>
        <time>2021-07-18T14:57:57Z</time>
      </trkpt>
      <trkpt lat="43.37948" lon="-1.43513">
        <ele>15.7</ele>
        <time>2021-07-18T14:57:58Z</time>
      </trkpt>
      <trkpt lat="43.37946" lon="-1.43512">
        <ele>15.7</ele>
        <time>2021-07-18T14:58:00Z</time>
      </trkpt>
      <trkpt lat="43.37947" lon="-1.43513">
        <ele>15.7</ele>
        <time>2021-07-18T14:58:02Z</time>
      </trkpt>
      <trkpt lat="43.37947" lon="-1.43513">
        <ele>15.7</ele>
        <time>2021-07-18T14:58:03Z</time>
      </trkpt>
      <trkpt lat="43.37947" lon="-1.43513">
        <ele>15.7</ele>
        <time>2021-07-18T14:58:04Z</time>
      </trkpt>
      <trkpt lat="43.37947" lon="-1.43514">
        <ele>15.7</ele>
        <time>2021-07-18T14:58:06Z</time>
      </trkpt>
      <trkpt lat="43.37948" lon="-1.43514">
        <ele>15.7</ele>
        <time>2021-07-18T14:58:08Z</time>
      </trkpt>
      <trkpt lat="43.37948" lon="-1.43514">
        <ele>15.7</ele>
        <time>2021-07-18T14:58:09Z</time>
      </trkpt>
      <trkpt lat="43.37948" lon="-1.43514">
        <ele>15.7</ele>
        <time>2021-07-18T14:58:10Z</time>
      </trkpt>
      <trkpt lat="43.37946" lon="-1.43517">
        <ele>15.7</ele>
        <time>2021-07-18T14:59:14Z</time>
      </trkpt>
      <trkpt lat="43.37942" lon="-1.43522">
        <ele>15.7</ele>
        <time>2021-07-18T14:59:16Z</time>
      </trkpt>
      <trkpt lat="43.3794" lon="-1.43525">
        <ele>15.7</ele>
        <time>2021-07-18T14:59:17Z</time>
      </trkpt>
      <trkpt lat="43.37936" lon="-1.43526">
        <ele>15.7</ele>
        <time>2021-07-18T14:59:18Z</time>
      </trkpt>
      <trkpt lat="43.37932" lon="-1.43521">
        <ele>15.7</ele>
        <time>2021-07-18T14:59:20Z</time>
      </trkpt>
      <trkpt lat="43.3793" lon="-1.43517">
        <ele>15.7</ele>
        <time>2021-07-18T14:59:21Z</time>
      </trkpt>
      <trkpt lat="43.37925" lon="-1.4351">
        <ele>15.7</ele>
        <time>2021-07-18T14:59:23Z</time>
      </trkpt>
      <trkpt lat="43.37922" lon="-1.43507">
        <ele>15.7</ele>
        <time>2021-07-18T14:59:24Z</time>
      </trkpt>
      <trkpt lat="43.3792" lon="-1.43506">
        <ele>15.7</ele>
        <time>2021-07-18T14:59:25Z</time>
      </trkpt>
      <trkpt lat="43.37914" lon="-1.43501">
        <ele>15.7</ele>
        <time>2021-07-18T14:59:27Z</time>
      </trkpt>
      <trkpt lat="43.37907" lon="-1.43497">
        <ele>15.7</ele>
        <time>2021-07-18T14:59:29Z</time>
      </trkpt>
      <trkpt lat="43.379" lon="-1.43492">
        <ele>15.7</ele>
        <time>2021-07-18T14:59:31Z</time>
      </trkpt>
      <trkpt lat="43.37893" lon="-1.43488">
        <ele>15.7</ele>
        <time>2021-07-18T14:59:33Z</time>
      </trkpt>
      <trkpt lat="43.37888" lon="-1.43486">
        <ele>15.7</ele>
        <time>2021-07-18T14:59:34Z</time>
      </trkpt>
      <trkpt lat="43.37882" lon="-1.43482">
        <ele>15.7</ele>
        <time>2021-07-18T14:59:36Z</time>
      </trkpt>
      <trkpt lat="43.37878" lon="-1.4348">
        <ele>15.7</ele>
        <time>2021-07-18T14:59:37Z</time>
      </trkpt>
      <trkpt lat="43.37872" lon="-1.43476">
        <ele>15.7</ele>
        <time>2021-07-18T14:59:39Z</time>
      </trkpt>
      <trkpt lat="43.37864" lon="-1.43472">
        <ele>15.6</ele>
        <time>2021-07-18T14:59:40Z</time>
      </trkpt>
      <trkpt lat="43.37859" lon="-1.43469">
        <ele>15.6</ele>
        <time>2021-07-18T14:59:41Z</time>
      </trkpt>
      <trkpt lat="43.3785" lon="-1.43463">
        <ele>15.5</ele>
        <time>2021-07-18T14:59:43Z</time>
      </trkpt>
      <trkpt lat="43.37841" lon="-1.43458">
        <ele>15.4</ele>
        <time>2021-07-18T14:59:45Z</time>
      </trkpt>
      <trkpt lat="43.37831" lon="-1.43453">
        <ele>15.4</ele>
        <time>2021-07-18T14:59:47Z</time>
      </trkpt>
      <trkpt lat="43.37827" lon="-1.4345">
        <ele>15.4</ele>
        <time>2021-07-18T14:59:48Z</time>
      </trkpt>
      <trkpt lat="43.37817" lon="-1.43445">
        <ele>15.4</ele>
        <time>2021-07-18T14:59:50Z</time>
      </trkpt>
      <trkpt lat="43.37808" lon="-1.4344">
        <ele>15.4</ele>
        <time>2021-07-18T14:59:52Z</time>
      </trkpt>
      <trkpt lat="43.37798" lon="-1.43435">
        <ele>15.4</ele>
        <time>2021-07-18T14:59:54Z</time>
      </trkpt>
      <trkpt lat="43.37789" lon="-1.43429">
        <ele>15.3</ele>
        <time>2021-07-18T14:59:56Z</time>
      </trkpt>
      <trkpt lat="43.37779" lon="-1.43424">
        <ele>15.3</ele>
        <time>2021-07-18T14:59:58Z</time>
      </trkpt>
      <trkpt lat="43.37774" lon="-1.43421">
        <ele>15.2</ele>
        <time>2021-07-18T14:59:59Z</time>
      </trkpt>
      <trkpt lat="43.37768" lon="-1.43418">
        <ele>15.2</ele>
        <time>2021-07-18T15:00:00Z</time>
      </trkpt>
      <trkpt lat="43.37758" lon="-1.43412">
        <ele>15.3</ele>
        <time>2021-07-18T15:00:02Z</time>
      </trkpt>
      <trkpt lat="43.37753" lon="-1.43409">
        <ele>15.3</ele>
        <time>2021-07-18T15:00:03Z</time>
      </trkpt>
      <trkpt lat="43.37747" lon="-1.43406">
        <ele>15.3</ele>
        <time>2021-07-18T15:00:04Z</time>
      </trkpt>
      <trkpt lat="43.37742" lon="-1.43403">
        <ele>15.3</ele>
        <time>2021-07-18T15:00:05Z</time>
      </trkpt>
      <trkpt lat="43.37732" lon="-1.43398">
        <ele>15.3</ele>
        <time>2021-07-18T15:00:07Z</time>
      </trkpt>
      <trkpt lat="43.37721" lon="-1.43393">
        <ele>15.3</ele>
        <time>2021-07-18T15:00:09Z</time>
      </trkpt>
      <trkpt lat="43.37716" lon="-1.4339">
        <ele>15.3</ele>
        <time>2021-07-18T15:00:10Z</time>
      </trkpt>
      <trkpt lat="43.37705" lon="-1.43384">
        <ele>15.3</ele>
        <time>2021-07-18T15:00:12Z</time>
      </trkpt>
      <trkpt lat="43.37695" lon="-1.43378">
        <ele>15.3</ele>
        <time>2021-07-18T15:00:14Z</time>
      </trkpt>
      <trkpt lat="43.37684" lon="-1.43373">
        <ele>15.3</ele>
        <time>2021-07-18T15:00:16Z</time>
      </trkpt>
      <trkpt lat="43.37673" lon="-1.43368">
        <ele>15.3</ele>
        <time>2021-07-18T15:00:18Z</time>
      </trkpt>
      <trkpt lat="43.37667" lon="-1.43366">
        <ele>15.3</ele>
        <time>2021-07-18T15:00:19Z</time>
      </trkpt>
      <trkpt lat="43.37656" lon="-1.43362">
        <ele>15.3</ele>
        <time>2021-07-18T15:00:21Z</time>
      </trkpt>
      <trkpt lat="43.37651" lon="-1.43359">
        <ele>15.3</ele>
        <time>2021-07-18T15:00:22Z</time>
      </trkpt>
      <trkpt lat="43.37641" lon="-1.43355">
        <ele>15.4</ele>
        <time>2021-07-18T15:00:24Z</time>
      </trkpt>
      <trkpt lat="43.37631" lon="-1.43352">
        <ele>15.4</ele>
        <time>2021-07-18T15:00:26Z</time>
      </trkpt>
      <trkpt lat="43.37626" lon="-1.4335">
        <ele>15.4</ele>
        <time>2021-07-18T15:00:27Z</time>
      </trkpt>
      <trkpt lat="43.37616" lon="-1.43348">
        <ele>15.5</ele>
        <time>2021-07-18T15:00:29Z</time>
      </trkpt>
      <trkpt lat="43.3761" lon="-1.43347">
        <ele>15.5</ele>
        <time>2021-07-18T15:00:30Z</time>
      </trkpt>
      <trkpt lat="43.37605" lon="-1.43346">
        <ele>15.5</ele>
        <time>2021-07-18T15:00:31Z</time>
      </trkpt>
      <trkpt lat="43.37595" lon="-1.43344">
        <ele>15.5</ele>
        <time>2021-07-18T15:00:33Z</time>
      </trkpt>
      <trkpt lat="43.37585" lon="-1.43342">
        <ele>15.4</ele>
        <time>2021-07-18T15:00:35Z</time>
      </trkpt>
      <trkpt lat="43.37581" lon="-1.4334">
        <ele>15.4</ele>
        <time>2021-07-18T15:00:36Z</time>
      </trkpt>
      <trkpt lat="43.37571" lon="-1.43337">
        <ele>15.3</ele>
        <time>2021-07-18T15:00:38Z</time>
      </trkpt>
      <trkpt lat="43.37566" lon="-1.43335">
        <ele>15.3</ele>
        <time>2021-07-18T15:00:39Z</time>
      </trkpt>
      <trkpt lat="43.37556" lon="-1.43332">
        <ele>15.3</ele>
        <time>2021-07-18T15:00:41Z</time>
      </trkpt>
      <trkpt lat="43.37551" lon="-1.4333">
        <ele>15.3</ele>
        <time>2021-07-18T15:00:42Z</time>
      </trkpt>
      <trkpt lat="43.37541" lon="-1.43327">
        <ele>15.2</ele>
        <time>2021-07-18T15:00:44Z</time>
      </trkpt>
      <trkpt lat="43.37531" lon="-1.43323">
        <ele>15.1</ele>
        <time>2021-07-18T15:00:46Z</time>
      </trkpt>
      <trkpt lat="43.37526" lon="-1.43321">
        <ele>15</ele>
        <time>2021-07-18T15:00:47Z</time>
      </trkpt>
      <trkpt lat="43.37515" lon="-1.43317">
        <ele>14.9</ele>
        <time>2021-07-18T15:00:49Z</time>
      </trkpt>
      <trkpt lat="43.37504" lon="-1.43313">
        <ele>14.9</ele>
        <time>2021-07-18T15:00:51Z</time>
      </trkpt>
      <trkpt lat="43.37499" lon="-1.43311">
        <ele>14.9</ele>
        <time>2021-07-18T15:00:52Z</time>
      </trkpt>
      <trkpt lat="43.37493" lon="-1.43309">
        <ele>14.8</ele>
        <time>2021-07-18T15:00:53Z</time>
      </trkpt>
      <trkpt lat="43.37482" lon="-1.43305">
        <ele>14.8</ele>
        <time>2021-07-18T15:00:55Z</time>
      </trkpt>
      <trkpt lat="43.37472" lon="-1.43301">
        <ele>14.8</ele>
        <time>2021-07-18T15:00:57Z</time>
      </trkpt>
      <trkpt lat="43.37466" lon="-1.43299">
        <ele>14.8</ele>
        <time>2021-07-18T15:00:58Z</time>
      </trkpt>
      <trkpt lat="43.37456" lon="-1.43294">
        <ele>14.9</ele>
        <time>2021-07-18T15:01:00Z</time>
      </trkpt>
      <trkpt lat="43.37446" lon="-1.43291">
        <ele>14.9</ele>
        <time>2021-07-18T15:01:02Z</time>
      </trkpt>
      <trkpt lat="43.37441" lon="-1.43289">
        <ele>14.9</ele>
        <time>2021-07-18T15:01:03Z</time>
      </trkpt>
      <trkpt lat="43.37431" lon="-1.43285">
        <ele>14.9</ele>
        <time>2021-07-18T15:01:05Z</time>
      </trkpt>
      <trkpt lat="43.37427" lon="-1.43283">
        <ele>15</ele>
        <time>2021-07-18T15:01:06Z</time>
      </trkpt>
      <trkpt lat="43.37417" lon="-1.4328">
        <ele>15.1</ele>
        <time>2021-07-18T15:01:08Z</time>
      </trkpt>
      <trkpt lat="43.37412" lon="-1.43278">
        <ele>15.1</ele>
        <time>2021-07-18T15:01:09Z</time>
      </trkpt>
      <trkpt lat="43.37403" lon="-1.43275">
        <ele>15.2</ele>
        <time>2021-07-18T15:01:11Z</time>
      </trkpt>
      <trkpt lat="43.37394" lon="-1.43272">
        <ele>15.4</ele>
        <time>2021-07-18T15:01:13Z</time>
      </trkpt>
      <trkpt lat="43.37385" lon="-1.43269">
        <ele>15.5</ele>
        <time>2021-07-18T15:01:15Z</time>
      </trkpt>
      <trkpt lat="43.3738" lon="-1.43267">
        <ele>15.5</ele>
        <time>2021-07-18T15:01:16Z</time>
      </trkpt>
      <trkpt lat="43.37376" lon="-1.43266">
        <ele>15.6</ele>
        <time>2021-07-18T15:01:17Z</time>
      </trkpt>
      <trkpt lat="43.37367" lon="-1.43263">
        <ele>15.7</ele>
        <time>2021-07-18T15:01:19Z</time>
      </trkpt>
      <trkpt lat="43.37363" lon="-1.43261">
        <ele>15.8</ele>
        <time>2021-07-18T15:01:20Z</time>
      </trkpt>
      <trkpt lat="43.37354" lon="-1.43258">
        <ele>15.9</ele>
        <time>2021-07-18T15:01:22Z</time>
      </trkpt>
      <trkpt lat="43.37347" lon="-1.43255">
        <ele>16.1</ele>
        <time>2021-07-18T15:01:24Z</time>
      </trkpt>
      <trkpt lat="43.37343" lon="-1.43254">
        <ele>16.2</ele>
        <time>2021-07-18T15:01:25Z</time>
      </trkpt>
      <trkpt lat="43.37339" lon="-1.43252">
        <ele>16.3</ele>
        <time>2021-07-18T15:01:26Z</time>
      </trkpt>
      <trkpt lat="43.37334" lon="-1.4325">
        <ele>16.4</ele>
        <time>2021-07-18T15:01:27Z</time>
      </trkpt>
      <trkpt lat="43.3733" lon="-1.43248">
        <ele>16.6</ele>
        <time>2021-07-18T15:01:28Z</time>
      </trkpt>
      <trkpt lat="43.37326" lon="-1.43247">
        <ele>16.7</ele>
        <time>2021-07-18T15:01:29Z</time>
      </trkpt>
      <trkpt lat="43.37326" lon="-1.43242">
        <ele>16.8</ele>
        <time>2021-07-18T15:01:31Z</time>
      </trkpt>
      <trkpt lat="43.37323" lon="-1.43239">
        <ele>16.9</ele>
        <time>2021-07-18T15:01:32Z</time>
      </trkpt>
      <trkpt lat="43.37314" lon="-1.43236">
        <ele>17.2</ele>
        <time>2021-07-18T15:01:34Z</time>
      </trkpt>
      <trkpt lat="43.37309" lon="-1.43235">
        <ele>17.4</ele>
        <time>2021-07-18T15:01:35Z</time>
      </trkpt>
      <trkpt lat="43.37302" lon="-1.43231">
        <ele>17.6</ele>
        <time>2021-07-18T15:01:37Z</time>
      </trkpt>
      <trkpt lat="43.37295" lon="-1.43228">
        <ele>17.9</ele>
        <time>2021-07-18T15:01:39Z</time>
      </trkpt>
      <trkpt lat="43.37288" lon="-1.43224">
        <ele>18.1</ele>
        <time>2021-07-18T15:01:41Z</time>
      </trkpt>
      <trkpt lat="43.37284" lon="-1.43222">
        <ele>18.2</ele>
        <time>2021-07-18T15:01:42Z</time>
      </trkpt>
      <trkpt lat="43.37281" lon="-1.4322">
        <ele>18.3</ele>
        <time>2021-07-18T15:01:43Z</time>
      </trkpt>
      <trkpt lat="43.37275" lon="-1.43217">
        <ele>18.5</ele>
        <time>2021-07-18T15:01:45Z</time>
      </trkpt>
      <trkpt lat="43.37272" lon="-1.43215">
        <ele>18.6</ele>
        <time>2021-07-18T15:01:46Z</time>
      </trkpt>
      <trkpt lat="43.37267" lon="-1.43212">
        <ele>18.7</ele>
        <time>2021-07-18T15:01:48Z</time>
      </trkpt>
      <trkpt lat="43.37263" lon="-1.43209">
        <ele>18.7</ele>
        <time>2021-07-18T15:01:49Z</time>
      </trkpt>
      <trkpt lat="43.3726" lon="-1.43206">
        <ele>18.8</ele>
        <time>2021-07-18T15:01:50Z</time>
      </trkpt>
      <trkpt lat="43.37256" lon="-1.43203">
        <ele>18.9</ele>
        <time>2021-07-18T15:01:52Z</time>
      </trkpt>
      <trkpt lat="43.37252" lon="-1.432">
        <ele>18.9</ele>
        <time>2021-07-18T15:01:53Z</time>
      </trkpt>
      <trkpt lat="43.37249" lon="-1.43197">
        <ele>19</ele>
        <time>2021-07-18T15:01:54Z</time>
      </trkpt>
      <trkpt lat="43.37243" lon="-1.43192">
        <ele>19</ele>
        <time>2021-07-18T15:01:56Z</time>
      </trkpt>
      <trkpt lat="43.3724" lon="-1.4319">
        <ele>19.1</ele>
        <time>2021-07-18T15:01:57Z</time>
      </trkpt>
      <trkpt lat="43.37236" lon="-1.43188">
        <ele>19.1</ele>
        <time>2021-07-18T15:01:58Z</time>
      </trkpt>
      <trkpt lat="43.37232" lon="-1.43185">
        <ele>19.2</ele>
        <time>2021-07-18T15:01:59Z</time>
      </trkpt>
      <trkpt lat="43.37226" lon="-1.43181">
        <ele>19.3</ele>
        <time>2021-07-18T15:02:01Z</time>
      </trkpt>
      <trkpt lat="43.3722" lon="-1.43176">
        <ele>19.4</ele>
        <time>2021-07-18T15:02:03Z</time>
      </trkpt>
      <trkpt lat="43.37217" lon="-1.43175">
        <ele>19.4</ele>
        <time>2021-07-18T15:02:04Z</time>
      </trkpt>
      <trkpt lat="43.37214" lon="-1.43176">
        <ele>19.4</ele>
        <time>2021-07-18T15:02:05Z</time>
      </trkpt>
      <trkpt lat="43.37207" lon="-1.43179">
        <ele>19.6</ele>
        <time>2021-07-18T15:02:07Z</time>
      </trkpt>
      <trkpt lat="43.372" lon="-1.4318">
        <ele>19.7</ele>
        <time>2021-07-18T15:02:09Z</time>
      </trkpt>
      <trkpt lat="43.37197" lon="-1.43178">
        <ele>19.9</ele>
        <time>2021-07-18T15:02:10Z</time>
      </trkpt>
      <trkpt lat="43.37191" lon="-1.43173">
        <ele>20</ele>
        <time>2021-07-18T15:02:12Z</time>
      </trkpt>
      <trkpt lat="43.37187" lon="-1.43167">
        <ele>20.2</ele>
        <time>2021-07-18T15:02:14Z</time>
      </trkpt>
      <trkpt lat="43.37184" lon="-1.43162">
        <ele>20.3</ele>
        <time>2021-07-18T15:02:15Z</time>
      </trkpt>
      <trkpt lat="43.37182" lon="-1.43157">
        <ele>20.3</ele>
        <time>2021-07-18T15:02:16Z</time>
      </trkpt>
      <trkpt lat="43.3718" lon="-1.43146">
        <ele>20.4</ele>
        <time>2021-07-18T15:02:18Z</time>
      </trkpt>
      <trkpt lat="43.37178" lon="-1.4313">
        <ele>20.5</ele>
        <time>2021-07-18T15:02:20Z</time>
      </trkpt>
      <trkpt lat="43.37172" lon="-1.4312">
        <ele>20.5</ele>
        <time>2021-07-18T15:02:22Z</time>
      </trkpt>
      <trkpt lat="43.37165" lon="-1.4311">
        <ele>20.6</ele>
        <time>2021-07-18T15:02:24Z</time>
      </trkpt>
      <trkpt lat="43.37162" lon="-1.43105">
        <ele>20.6</ele>
        <time>2021-07-18T15:02:25Z</time>
      </trkpt>
      <trkpt lat="43.37156" lon="-1.43096">
        <ele>20.7</ele>
        <time>2021-07-18T15:02:27Z</time>
      </trkpt>
      <trkpt lat="43.37149" lon="-1.43088">
        <ele>20.7</ele>
        <time>2021-07-18T15:02:29Z</time>
      </trkpt>
      <trkpt lat="43.37143" lon="-1.43079">
        <ele>20.7</ele>
        <time>2021-07-18T15:02:31Z</time>
      </trkpt>
      <trkpt lat="43.37139" lon="-1.43074">
        <ele>20.6</ele>
        <time>2021-07-18T15:02:32Z</time>
      </trkpt>
      <trkpt lat="43.37136" lon="-1.43069">
        <ele>20.6</ele>
        <time>2021-07-18T15:02:33Z</time>
      </trkpt>
      <trkpt lat="43.37129" lon="-1.43059">
        <ele>20.5</ele>
        <time>2021-07-18T15:02:35Z</time>
      </trkpt>
      <trkpt lat="43.37125" lon="-1.43055">
        <ele>20.4</ele>
        <time>2021-07-18T15:02:36Z</time>
      </trkpt>
      <trkpt lat="43.37118" lon="-1.43045">
        <ele>20.3</ele>
        <time>2021-07-18T15:02:38Z</time>
      </trkpt>
      <trkpt lat="43.3711" lon="-1.43036">
        <ele>20.1</ele>
        <time>2021-07-18T15:02:40Z</time>
      </trkpt>
      <trkpt lat="43.37106" lon="-1.43031">
        <ele>20</ele>
        <time>2021-07-18T15:02:41Z</time>
      </trkpt>
      <trkpt lat="43.37102" lon="-1.43026">
        <ele>19.9</ele>
        <time>2021-07-18T15:02:42Z</time>
      </trkpt>
      <trkpt lat="43.37093" lon="-1.43015">
        <ele>19.6</ele>
        <time>2021-07-18T15:02:44Z</time>
      </trkpt>
      <trkpt lat="43.37085" lon="-1.43004">
        <ele>19.4</ele>
        <time>2021-07-18T15:02:46Z</time>
      </trkpt>
      <trkpt lat="43.37075" lon="-1.42992">
        <ele>19.1</ele>
        <time>2021-07-18T15:02:48Z</time>
      </trkpt>
      <trkpt lat="43.37071" lon="-1.42986">
        <ele>19</ele>
        <time>2021-07-18T15:02:49Z</time>
      </trkpt>
      <trkpt lat="43.37061" lon="-1.42974">
        <ele>18.8</ele>
        <time>2021-07-18T15:02:51Z</time>
      </trkpt>
      <trkpt lat="43.37052" lon="-1.42961">
        <ele>18.7</ele>
        <time>2021-07-18T15:02:53Z</time>
      </trkpt>
      <trkpt lat="43.37044" lon="-1.42946">
        <ele>18.6</ele>
        <time>2021-07-18T15:02:55Z</time>
      </trkpt>
      <trkpt lat="43.37036" lon="-1.42931">
        <ele>18.6</ele>
        <time>2021-07-18T15:02:57Z</time>
      </trkpt>
      <trkpt lat="43.37032" lon="-1.42924">
        <ele>18.6</ele>
        <time>2021-07-18T15:02:58Z</time>
      </trkpt>
      <trkpt lat="43.37025" lon="-1.4291">
        <ele>18.6</ele>
        <time>2021-07-18T15:03:00Z</time>
      </trkpt>
      <trkpt lat="43.37019" lon="-1.42895">
        <ele>18.7</ele>
        <time>2021-07-18T15:03:02Z</time>
      </trkpt>
      <trkpt lat="43.37013" lon="-1.4288">
        <ele>18.7</ele>
        <time>2021-07-18T15:03:04Z</time>
      </trkpt>
      <trkpt lat="43.3701" lon="-1.42873">
        <ele>18.8</ele>
        <time>2021-07-18T15:03:05Z</time>
      </trkpt>
      <trkpt lat="43.37004" lon="-1.42859">
        <ele>18.8</ele>
        <time>2021-07-18T15:03:07Z</time>
      </trkpt>
      <trkpt lat="43.37001" lon="-1.42852">
        <ele>18.9</ele>
        <time>2021-07-18T15:03:08Z</time>
      </trkpt>
      <trkpt lat="43.36995" lon="-1.42838">
        <ele>18.9</ele>
        <time>2021-07-18T15:03:10Z</time>
      </trkpt>
      <trkpt lat="43.36989" lon="-1.42825">
        <ele>19</ele>
        <time>2021-07-18T15:03:12Z</time>
      </trkpt>
      <trkpt lat="43.36983" lon="-1.42812">
        <ele>19.1</ele>
        <time>2021-07-18T15:03:14Z</time>
      </trkpt>
      <trkpt lat="43.3698" lon="-1.42805">
        <ele>19.2</ele>
        <time>2021-07-18T15:03:15Z</time>
      </trkpt>
      <trkpt lat="43.36974" lon="-1.42793">
        <ele>19.3</ele>
        <time>2021-07-18T15:03:17Z</time>
      </trkpt>
      <trkpt lat="43.36971" lon="-1.42788">
        <ele>19.4</ele>
        <time>2021-07-18T15:03:18Z</time>
      </trkpt>
      <trkpt lat="43.36966" lon="-1.42776">
        <ele>19.5</ele>
        <time>2021-07-18T15:03:20Z</time>
      </trkpt>
      <trkpt lat="43.36959" lon="-1.42765">
        <ele>19.6</ele>
        <time>2021-07-18T15:03:22Z</time>
      </trkpt>
      <trkpt lat="43.36956" lon="-1.4276">
        <ele>19.6</ele>
        <time>2021-07-18T15:03:23Z</time>
      </trkpt>
      <trkpt lat="43.36949" lon="-1.4275">
        <ele>19.7</ele>
        <time>2021-07-18T15:03:25Z</time>
      </trkpt>
      <trkpt lat="43.36946" lon="-1.42745">
        <ele>19.7</ele>
        <time>2021-07-18T15:03:26Z</time>
      </trkpt>
      <trkpt lat="43.36939" lon="-1.42735">
        <ele>19.8</ele>
        <time>2021-07-18T15:03:28Z</time>
      </trkpt>
      <trkpt lat="43.36931" lon="-1.42726">
        <ele>19.8</ele>
        <time>2021-07-18T15:03:30Z</time>
      </trkpt>
      <trkpt lat="43.36927" lon="-1.42722">
        <ele>19.8</ele>
        <time>2021-07-18T15:03:31Z</time>
      </trkpt>
      <trkpt lat="43.36924" lon="-1.42718">
        <ele>19.8</ele>
        <time>2021-07-18T15:03:32Z</time>
      </trkpt>
      <trkpt lat="43.36916" lon="-1.4271">
        <ele>19.8</ele>
        <time>2021-07-18T15:03:34Z</time>
      </trkpt>
      <trkpt lat="43.36912" lon="-1.42706">
        <ele>19.8</ele>
        <time>2021-07-18T15:03:35Z</time>
      </trkpt>
      <trkpt lat="43.36905" lon="-1.42699">
        <ele>19.9</ele>
        <time>2021-07-18T15:03:37Z</time>
      </trkpt>
      <trkpt lat="43.36896" lon="-1.42693">
        <ele>19.9</ele>
        <time>2021-07-18T15:03:39Z</time>
      </trkpt>
      <trkpt lat="43.36887" lon="-1.42687">
        <ele>19.9</ele>
        <time>2021-07-18T15:03:41Z</time>
      </trkpt>
      <trkpt lat="43.36878" lon="-1.42681">
        <ele>20</ele>
        <time>2021-07-18T15:03:43Z</time>
      </trkpt>
      <trkpt lat="43.36873" lon="-1.42678">
        <ele>20</ele>
        <time>2021-07-18T15:03:44Z</time>
      </trkpt>
      <trkpt lat="43.36863" lon="-1.42671">
        <ele>20</ele>
        <time>2021-07-18T15:03:46Z</time>
      </trkpt>
      <trkpt lat="43.36854" lon="-1.42665">
        <ele>20</ele>
        <time>2021-07-18T15:03:48Z</time>
      </trkpt>
      <trkpt lat="43.36849" lon="-1.42662">
        <ele>20.1</ele>
        <time>2021-07-18T15:03:49Z</time>
      </trkpt>
      <trkpt lat="43.3684" lon="-1.42656">
        <ele>20.2</ele>
        <time>2021-07-18T15:03:51Z</time>
      </trkpt>
      <trkpt lat="43.36835" lon="-1.42653">
        <ele>20.2</ele>
        <time>2021-07-18T15:03:52Z</time>
      </trkpt>
      <trkpt lat="43.3683" lon="-1.4265">
        <ele>20.2</ele>
        <time>2021-07-18T15:03:53Z</time>
      </trkpt>
      <trkpt lat="43.36822" lon="-1.42645">
        <ele>20.4</ele>
        <time>2021-07-18T15:03:55Z</time>
      </trkpt>
      <trkpt lat="43.36818" lon="-1.42642">
        <ele>20.4</ele>
        <time>2021-07-18T15:03:56Z</time>
      </trkpt>
      <trkpt lat="43.36816" lon="-1.42639">
        <ele>20.5</ele>
        <time>2021-07-18T15:03:57Z</time>
      </trkpt>
      <trkpt lat="43.36808" lon="-1.42632">
        <ele>20.7</ele>
        <time>2021-07-18T15:03:59Z</time>
      </trkpt>
      <trkpt lat="43.36805" lon="-1.42629">
        <ele>20.8</ele>
        <time>2021-07-18T15:04:00Z</time>
      </trkpt>
      <trkpt lat="43.36798" lon="-1.42623">
        <ele>21</ele>
        <time>2021-07-18T15:04:02Z</time>
      </trkpt>
      <trkpt lat="43.36795" lon="-1.4262">
        <ele>21.1</ele>
        <time>2021-07-18T15:04:03Z</time>
      </trkpt>
      <trkpt lat="43.36792" lon="-1.42617">
        <ele>21.1</ele>
        <time>2021-07-18T15:04:04Z</time>
      </trkpt>
      <trkpt lat="43.36785" lon="-1.4261">
        <ele>21.3</ele>
        <time>2021-07-18T15:04:06Z</time>
      </trkpt>
      <trkpt lat="43.36779" lon="-1.42603">
        <ele>21.5</ele>
        <time>2021-07-18T15:04:08Z</time>
      </trkpt>
      <trkpt lat="43.36776" lon="-1.426">
        <ele>21.5</ele>
        <time>2021-07-18T15:04:09Z</time>
      </trkpt>
      <trkpt lat="43.3677" lon="-1.42594">
        <ele>21.7</ele>
        <time>2021-07-18T15:04:11Z</time>
      </trkpt>
      <trkpt lat="43.36767" lon="-1.42591">
        <ele>21.8</ele>
        <time>2021-07-18T15:04:12Z</time>
      </trkpt>
      <trkpt lat="43.36764" lon="-1.42588">
        <ele>21.9</ele>
        <time>2021-07-18T15:04:13Z</time>
      </trkpt>
      <trkpt lat="43.36758" lon="-1.42583">
        <ele>22.1</ele>
        <time>2021-07-18T15:04:15Z</time>
      </trkpt>
      <trkpt lat="43.36754" lon="-1.42579">
        <ele>22.3</ele>
        <time>2021-07-18T15:04:16Z</time>
      </trkpt>
      <trkpt lat="43.36749" lon="-1.42575">
        <ele>22.4</ele>
        <time>2021-07-18T15:04:18Z</time>
      </trkpt>
      <trkpt lat="43.36746" lon="-1.42572">
        <ele>22.5</ele>
        <time>2021-07-18T15:04:19Z</time>
      </trkpt>
      <trkpt lat="43.3674" lon="-1.42567">
        <ele>22.7</ele>
        <time>2021-07-18T15:04:21Z</time>
      </trkpt>
      <trkpt lat="43.36736" lon="-1.42563">
        <ele>22.8</ele>
        <time>2021-07-18T15:04:23Z</time>
      </trkpt>
      <trkpt lat="43.36732" lon="-1.42559">
        <ele>22.9</ele>
        <time>2021-07-18T15:04:24Z</time>
      </trkpt>
      <trkpt lat="43.36726" lon="-1.42552">
        <ele>23.1</ele>
        <time>2021-07-18T15:04:26Z</time>
      </trkpt>
      <trkpt lat="43.3672" lon="-1.42547">
        <ele>23.3</ele>
        <time>2021-07-18T15:04:28Z</time>
      </trkpt>
      <trkpt lat="43.36715" lon="-1.4254">
        <ele>23.4</ele>
        <time>2021-07-18T15:04:30Z</time>
      </trkpt>
      <trkpt lat="43.36712" lon="-1.42537">
        <ele>23.5</ele>
        <time>2021-07-18T15:04:31Z</time>
      </trkpt>
      <trkpt lat="43.36706" lon="-1.42532">
        <ele>23.6</ele>
        <time>2021-07-18T15:04:33Z</time>
      </trkpt>
      <trkpt lat="43.367" lon="-1.42526">
        <ele>23.8</ele>
        <time>2021-07-18T15:04:35Z</time>
      </trkpt>
      <trkpt lat="43.36694" lon="-1.4252">
        <ele>24</ele>
        <time>2021-07-18T15:04:37Z</time>
      </trkpt>
      <trkpt lat="43.36691" lon="-1.42517">
        <ele>24.1</ele>
        <time>2021-07-18T15:04:38Z</time>
      </trkpt>
      <trkpt lat="43.36686" lon="-1.42511">
        <ele>24.3</ele>
        <time>2021-07-18T15:04:40Z</time>
      </trkpt>
      <trkpt lat="43.36683" lon="-1.42508">
        <ele>24.4</ele>
        <time>2021-07-18T15:04:41Z</time>
      </trkpt>
      <trkpt lat="43.36678" lon="-1.42504">
        <ele>24.5</ele>
        <time>2021-07-18T15:04:43Z</time>
      </trkpt>
      <trkpt lat="43.36674" lon="-1.425">
        <ele>24.6</ele>
        <time>2021-07-18T15:04:44Z</time>
      </trkpt>
      <trkpt lat="43.36671" lon="-1.42497">
        <ele>24.7</ele>
        <time>2021-07-18T15:04:45Z</time>
      </trkpt>
      <trkpt lat="43.36666" lon="-1.42492">
        <ele>24.9</ele>
        <time>2021-07-18T15:04:47Z</time>
      </trkpt>
      <trkpt lat="43.36661" lon="-1.42487">
        <ele>25</ele>
        <time>2021-07-18T15:04:49Z</time>
      </trkpt>
      <trkpt lat="43.36657" lon="-1.42482">
        <ele>25.1</ele>
        <time>2021-07-18T15:04:50Z</time>
      </trkpt>
      <trkpt lat="43.36654" lon="-1.4248">
        <ele>25.2</ele>
        <time>2021-07-18T15:04:51Z</time>
      </trkpt>
      <trkpt lat="43.36648" lon="-1.42474">
        <ele>25.4</ele>
        <time>2021-07-18T15:04:53Z</time>
      </trkpt>
      <trkpt lat="43.36645" lon="-1.42472">
        <ele>25.5</ele>
        <time>2021-07-18T15:04:54Z</time>
      </trkpt>
      <trkpt lat="43.36641" lon="-1.42468">
        <ele>25.6</ele>
        <time>2021-07-18T15:04:56Z</time>
      </trkpt>
      <trkpt lat="43.36636" lon="-1.42463">
        <ele>25.7</ele>
        <time>2021-07-18T15:04:57Z</time>
      </trkpt>
      <trkpt lat="43.36633" lon="-1.4246">
        <ele>25.7</ele>
        <time>2021-07-18T15:04:58Z</time>
      </trkpt>
      <trkpt lat="43.36626" lon="-1.42454">
        <ele>25.9</ele>
        <time>2021-07-18T15:05:00Z</time>
      </trkpt>
      <trkpt lat="43.36623" lon="-1.42452">
        <ele>26</ele>
        <time>2021-07-18T15:05:01Z</time>
      </trkpt>
      <trkpt lat="43.36617" lon="-1.42446">
        <ele>26.1</ele>
        <time>2021-07-18T15:05:03Z</time>
      </trkpt>
      <trkpt lat="43.36614" lon="-1.42443">
        <ele>26.2</ele>
        <time>2021-07-18T15:05:04Z</time>
      </trkpt>
      <trkpt lat="43.3661" lon="-1.42439">
        <ele>26.3</ele>
        <time>2021-07-18T15:05:06Z</time>
      </trkpt>
      <trkpt lat="43.36606" lon="-1.42435">
        <ele>26.4</ele>
        <time>2021-07-18T15:05:07Z</time>
      </trkpt>
      <trkpt lat="43.36601" lon="-1.42429">
        <ele>26.5</ele>
        <time>2021-07-18T15:05:09Z</time>
      </trkpt>
      <trkpt lat="43.36596" lon="-1.42424">
        <ele>26.6</ele>
        <time>2021-07-18T15:05:10Z</time>
      </trkpt>
      <trkpt lat="43.3659" lon="-1.42416">
        <ele>26.7</ele>
        <time>2021-07-18T15:05:12Z</time>
      </trkpt>
      <trkpt lat="43.36587" lon="-1.42413">
        <ele>26.8</ele>
        <time>2021-07-18T15:05:13Z</time>
      </trkpt>
      <trkpt lat="43.36581" lon="-1.42406">
        <ele>26.9</ele>
        <time>2021-07-18T15:05:15Z</time>
      </trkpt>
      <trkpt lat="43.36574" lon="-1.42399">
        <ele>27</ele>
        <time>2021-07-18T15:05:17Z</time>
      </trkpt>
      <trkpt lat="43.36571" lon="-1.42395">
        <ele>27.1</ele>
        <time>2021-07-18T15:05:18Z</time>
      </trkpt>
      <trkpt lat="43.36566" lon="-1.42388">
        <ele>27.2</ele>
        <time>2021-07-18T15:05:20Z</time>
      </trkpt>
      <trkpt lat="43.36562" lon="-1.42383">
        <ele>27.2</ele>
        <time>2021-07-18T15:05:21Z</time>
      </trkpt>
      <trkpt lat="43.36557" lon="-1.42377">
        <ele>27.3</ele>
        <time>2021-07-18T15:05:23Z</time>
      </trkpt>
      <trkpt lat="43.36552" lon="-1.42371">
        <ele>27.4</ele>
        <time>2021-07-18T15:05:24Z</time>
      </trkpt>
      <trkpt lat="43.36546" lon="-1.42363">
        <ele>27.5</ele>
        <time>2021-07-18T15:05:26Z</time>
      </trkpt>
      <trkpt lat="43.36542" lon="-1.42358">
        <ele>27.6</ele>
        <time>2021-07-18T15:05:27Z</time>
      </trkpt>
      <trkpt lat="43.36537" lon="-1.4235">
        <ele>27.6</ele>
        <time>2021-07-18T15:05:29Z</time>
      </trkpt>
      <trkpt lat="43.36532" lon="-1.42342">
        <ele>27.7</ele>
        <time>2021-07-18T15:05:31Z</time>
      </trkpt>
      <trkpt lat="43.36527" lon="-1.42335">
        <ele>27.7</ele>
        <time>2021-07-18T15:05:33Z</time>
      </trkpt>
      <trkpt lat="43.36525" lon="-1.4233">
        <ele>27.7</ele>
        <time>2021-07-18T15:05:34Z</time>
      </trkpt>
      <trkpt lat="43.3652" lon="-1.42321">
        <ele>27.7</ele>
        <time>2021-07-18T15:05:35Z</time>
      </trkpt>
      <trkpt lat="43.36515" lon="-1.4231">
        <ele>27.8</ele>
        <time>2021-07-18T15:05:37Z</time>
      </trkpt>
      <trkpt lat="43.36512" lon="-1.42305">
        <ele>27.8</ele>
        <time>2021-07-18T15:05:38Z</time>
      </trkpt>
      <trkpt lat="43.36508" lon="-1.42294">
        <ele>27.8</ele>
        <time>2021-07-18T15:05:40Z</time>
      </trkpt>
      <trkpt lat="43.36505" lon="-1.42288">
        <ele>27.8</ele>
        <time>2021-07-18T15:05:41Z</time>
      </trkpt>
      <trkpt lat="43.36501" lon="-1.42276">
        <ele>27.8</ele>
        <time>2021-07-18T15:05:43Z</time>
      </trkpt>
      <trkpt lat="43.36499" lon="-1.4227">
        <ele>27.9</ele>
        <time>2021-07-18T15:05:44Z</time>
      </trkpt>
      <trkpt lat="43.36496" lon="-1.42262">
        <ele>27.9</ele>
        <time>2021-07-18T15:05:46Z</time>
      </trkpt>
      <trkpt lat="43.36494" lon="-1.42253">
        <ele>28</ele>
        <time>2021-07-18T15:05:47Z</time>
      </trkpt>
      <trkpt lat="43.36492" lon="-1.42241">
        <ele>28</ele>
        <time>2021-07-18T15:05:49Z</time>
      </trkpt>
      <trkpt lat="43.3649" lon="-1.42235">
        <ele>28.1</ele>
        <time>2021-07-18T15:05:50Z</time>
      </trkpt>
      <trkpt lat="43.36487" lon="-1.42223">
        <ele>28.1</ele>
        <time>2021-07-18T15:05:52Z</time>
      </trkpt>
      <trkpt lat="43.36485" lon="-1.4221">
        <ele>28.2</ele>
        <time>2021-07-18T15:05:54Z</time>
      </trkpt>
      <trkpt lat="43.36483" lon="-1.42204">
        <ele>28.2</ele>
        <time>2021-07-18T15:05:55Z</time>
      </trkpt>
      <trkpt lat="43.36481" lon="-1.4219">
        <ele>28.3</ele>
        <time>2021-07-18T15:05:57Z</time>
      </trkpt>
      <trkpt lat="43.36479" lon="-1.42177">
        <ele>28.4</ele>
        <time>2021-07-18T15:05:59Z</time>
      </trkpt>
      <trkpt lat="43.36476" lon="-1.42164">
        <ele>28.4</ele>
        <time>2021-07-18T15:06:01Z</time>
      </trkpt>
      <trkpt lat="43.36474" lon="-1.42151">
        <ele>28.5</ele>
        <time>2021-07-18T15:06:03Z</time>
      </trkpt>
      <trkpt lat="43.36472" lon="-1.42144">
        <ele>28.5</ele>
        <time>2021-07-18T15:06:04Z</time>
      </trkpt>
      <trkpt lat="43.3647" lon="-1.42131">
        <ele>28.5</ele>
        <time>2021-07-18T15:06:06Z</time>
      </trkpt>
      <trkpt lat="43.36468" lon="-1.42124">
        <ele>28.6</ele>
        <time>2021-07-18T15:06:07Z</time>
      </trkpt>
      <trkpt lat="43.36465" lon="-1.42111">
        <ele>28.6</ele>
        <time>2021-07-18T15:06:09Z</time>
      </trkpt>
      <trkpt lat="43.36463" lon="-1.42105">
        <ele>28.6</ele>
        <time>2021-07-18T15:06:10Z</time>
      </trkpt>
      <trkpt lat="43.36459" lon="-1.42093">
        <ele>28.7</ele>
        <time>2021-07-18T15:06:12Z</time>
      </trkpt>
      <trkpt lat="43.36457" lon="-1.42086">
        <ele>28.7</ele>
        <time>2021-07-18T15:06:13Z</time>
      </trkpt>
      <trkpt lat="43.36455" lon="-1.4208">
        <ele>28.8</ele>
        <time>2021-07-18T15:06:14Z</time>
      </trkpt>
      <trkpt lat="43.3645" lon="-1.42068">
        <ele>28.8</ele>
        <time>2021-07-18T15:06:16Z</time>
      </trkpt>
      <trkpt lat="43.36445" lon="-1.42056">
        <ele>28.9</ele>
        <time>2021-07-18T15:06:18Z</time>
      </trkpt>
      <trkpt lat="43.36443" lon="-1.4205">
        <ele>28.9</ele>
        <time>2021-07-18T15:06:19Z</time>
      </trkpt>
      <trkpt lat="43.36437" lon="-1.4204">
        <ele>29</ele>
        <time>2021-07-18T15:06:21Z</time>
      </trkpt>
      <trkpt lat="43.36434" lon="-1.42034">
        <ele>29.1</ele>
        <time>2021-07-18T15:06:22Z</time>
      </trkpt>
      <trkpt lat="43.36431" lon="-1.42029">
        <ele>29.1</ele>
        <time>2021-07-18T15:06:23Z</time>
      </trkpt>
      <trkpt lat="43.36426" lon="-1.42018">
        <ele>29.2</ele>
        <time>2021-07-18T15:06:25Z</time>
      </trkpt>
      <trkpt lat="43.3642" lon="-1.42007">
        <ele>29.3</ele>
        <time>2021-07-18T15:06:27Z</time>
      </trkpt>
      <trkpt lat="43.36414" lon="-1.41998">
        <ele>29.4</ele>
        <time>2021-07-18T15:06:29Z</time>
      </trkpt>
      <trkpt lat="43.36411" lon="-1.41993">
        <ele>29.5</ele>
        <time>2021-07-18T15:06:30Z</time>
      </trkpt>
      <trkpt lat="43.36407" lon="-1.41988">
        <ele>29.5</ele>
        <time>2021-07-18T15:06:31Z</time>
      </trkpt>
      <trkpt lat="43.364" lon="-1.41979">
        <ele>29.7</ele>
        <time>2021-07-18T15:06:33Z</time>
      </trkpt>
      <trkpt lat="43.36394" lon="-1.41971">
        <ele>29.8</ele>
        <time>2021-07-18T15:06:35Z</time>
      </trkpt>
      <trkpt lat="43.3639" lon="-1.41967">
        <ele>29.9</ele>
        <time>2021-07-18T15:06:36Z</time>
      </trkpt>
      <trkpt lat="43.36387" lon="-1.41963">
        <ele>29.9</ele>
        <time>2021-07-18T15:06:37Z</time>
      </trkpt>
      <trkpt lat="43.3638" lon="-1.41956">
        <ele>30</ele>
        <time>2021-07-18T15:06:39Z</time>
      </trkpt>
      <trkpt lat="43.36377" lon="-1.41953">
        <ele>30.1</ele>
        <time>2021-07-18T15:06:40Z</time>
      </trkpt>
      <trkpt lat="43.3637" lon="-1.41947">
        <ele>30.2</ele>
        <time>2021-07-18T15:06:42Z</time>
      </trkpt>
      <trkpt lat="43.36363" lon="-1.41941">
        <ele>30.4</ele>
        <time>2021-07-18T15:06:44Z</time>
      </trkpt>
      <trkpt lat="43.36361" lon="-1.41948">
        <ele>30.5</ele>
        <time>2021-07-18T15:06:46Z</time>
      </trkpt>
      <trkpt lat="43.36357" lon="-1.41945">
        <ele>30.6</ele>
        <time>2021-07-18T15:06:47Z</time>
      </trkpt>
      <trkpt lat="43.3635" lon="-1.41935">
        <ele>30.8</ele>
        <time>2021-07-18T15:06:49Z</time>
      </trkpt>
      <trkpt lat="43.36344" lon="-1.4193">
        <ele>30.9</ele>
        <time>2021-07-18T15:06:50Z</time>
      </trkpt>
      <trkpt lat="43.3634" lon="-1.41926">
        <ele>31</ele>
        <time>2021-07-18T15:06:51Z</time>
      </trkpt>
      <trkpt lat="43.36332" lon="-1.41919">
        <ele>31.1</ele>
        <time>2021-07-18T15:06:53Z</time>
      </trkpt>
      <trkpt lat="43.36328" lon="-1.41916">
        <ele>31.2</ele>
        <time>2021-07-18T15:06:54Z</time>
      </trkpt>
      <trkpt lat="43.36325" lon="-1.41913">
        <ele>31.2</ele>
        <time>2021-07-18T15:06:55Z</time>
      </trkpt>
      <trkpt lat="43.36317" lon="-1.41908">
        <ele>31.4</ele>
        <time>2021-07-18T15:06:57Z</time>
      </trkpt>
      <trkpt lat="43.36313" lon="-1.41906">
        <ele>31.4</ele>
        <time>2021-07-18T15:06:58Z</time>
      </trkpt>
      <trkpt lat="43.36305" lon="-1.41902">
        <ele>31.5</ele>
        <time>2021-07-18T15:07:00Z</time>
      </trkpt>
      <trkpt lat="43.36298" lon="-1.41898">
        <ele>31.6</ele>
        <time>2021-07-18T15:07:02Z</time>
      </trkpt>
      <trkpt lat="43.36293" lon="-1.41896">
        <ele>31.7</ele>
        <time>2021-07-18T15:07:03Z</time>
      </trkpt>
      <trkpt lat="43.36289" lon="-1.41894">
        <ele>31.8</ele>
        <time>2021-07-18T15:07:04Z</time>
      </trkpt>
      <trkpt lat="43.36281" lon="-1.4189">
        <ele>31.9</ele>
        <time>2021-07-18T15:07:06Z</time>
      </trkpt>
      <trkpt lat="43.36277" lon="-1.41888">
        <ele>32</ele>
        <time>2021-07-18T15:07:07Z</time>
      </trkpt>
      <trkpt lat="43.36273" lon="-1.41887">
        <ele>32</ele>
        <time>2021-07-18T15:07:08Z</time>
      </trkpt>
      <trkpt lat="43.36266" lon="-1.41883">
        <ele>32.2</ele>
        <time>2021-07-18T15:07:10Z</time>
      </trkpt>
      <trkpt lat="43.36258" lon="-1.4188">
        <ele>32.4</ele>
        <time>2021-07-18T15:07:12Z</time>
      </trkpt>
      <trkpt lat="43.36251" lon="-1.41878">
        <ele>32.6</ele>
        <time>2021-07-18T15:07:14Z</time>
      </trkpt>
      <trkpt lat="43.36247" lon="-1.41877">
        <ele>32.7</ele>
        <time>2021-07-18T15:07:15Z</time>
      </trkpt>
      <trkpt lat="43.3624" lon="-1.41875">
        <ele>32.8</ele>
        <time>2021-07-18T15:07:17Z</time>
      </trkpt>
      <trkpt lat="43.36232" lon="-1.41872">
        <ele>32.9</ele>
        <time>2021-07-18T15:07:19Z</time>
      </trkpt>
      <trkpt lat="43.36225" lon="-1.41869">
        <ele>33</ele>
        <time>2021-07-18T15:07:21Z</time>
      </trkpt>
      <trkpt lat="43.36217" lon="-1.41867">
        <ele>33.1</ele>
        <time>2021-07-18T15:07:23Z</time>
      </trkpt>
      <trkpt lat="43.3621" lon="-1.41863">
        <ele>33.2</ele>
        <time>2021-07-18T15:07:25Z</time>
      </trkpt>
      <trkpt lat="43.36202" lon="-1.4186">
        <ele>33.4</ele>
        <time>2021-07-18T15:07:27Z</time>
      </trkpt>
      <trkpt lat="43.36196" lon="-1.41858">
        <ele>33.5</ele>
        <time>2021-07-18T15:07:29Z</time>
      </trkpt>
      <trkpt lat="43.36191" lon="-1.41857">
        <ele>33.6</ele>
        <time>2021-07-18T15:07:30Z</time>
      </trkpt>
      <trkpt lat="43.36185" lon="-1.41855">
        <ele>33.7</ele>
        <time>2021-07-18T15:07:32Z</time>
      </trkpt>
      <trkpt lat="43.36181" lon="-1.41854">
        <ele>33.7</ele>
        <time>2021-07-18T15:07:33Z</time>
      </trkpt>
      <trkpt lat="43.36176" lon="-1.41852">
        <ele>33.8</ele>
        <time>2021-07-18T15:07:34Z</time>
      </trkpt>
      <trkpt lat="43.3617" lon="-1.41849">
        <ele>33.9</ele>
        <time>2021-07-18T15:07:36Z</time>
      </trkpt>
      <trkpt lat="43.36166" lon="-1.41848">
        <ele>33.9</ele>
        <time>2021-07-18T15:07:37Z</time>
      </trkpt>
      <trkpt lat="43.36163" lon="-1.41847">
        <ele>34</ele>
        <time>2021-07-18T15:07:38Z</time>
      </trkpt>
      <trkpt lat="43.36156" lon="-1.41845">
        <ele>34.1</ele>
        <time>2021-07-18T15:07:40Z</time>
      </trkpt>
      <trkpt lat="43.36153" lon="-1.41843">
        <ele>34.1</ele>
        <time>2021-07-18T15:07:41Z</time>
      </trkpt>
      <trkpt lat="43.36146" lon="-1.41842">
        <ele>34.2</ele>
        <time>2021-07-18T15:07:43Z</time>
      </trkpt>
      <trkpt lat="43.36138" lon="-1.41839">
        <ele>34.3</ele>
        <time>2021-07-18T15:07:45Z</time>
      </trkpt>
      <trkpt lat="43.36131" lon="-1.41836">
        <ele>34.4</ele>
        <time>2021-07-18T15:07:47Z</time>
      </trkpt>
      <trkpt lat="43.36126" lon="-1.41835">
        <ele>34.5</ele>
        <time>2021-07-18T15:07:49Z</time>
      </trkpt>
      <trkpt lat="43.36121" lon="-1.41833">
        <ele>34.5</ele>
        <time>2021-07-18T15:07:50Z</time>
      </trkpt>
      <trkpt lat="43.36117" lon="-1.41832">
        <ele>34.6</ele>
        <time>2021-07-18T15:07:51Z</time>
      </trkpt>
      <trkpt lat="43.36114" lon="-1.4183">
        <ele>34.6</ele>
        <time>2021-07-18T15:07:52Z</time>
      </trkpt>
      <trkpt lat="43.36109" lon="-1.41829">
        <ele>34.7</ele>
        <time>2021-07-18T15:07:54Z</time>
      </trkpt>
      <trkpt lat="43.36104" lon="-1.41828">
        <ele>34.7</ele>
        <time>2021-07-18T15:07:55Z</time>
      </trkpt>
      <trkpt lat="43.36097" lon="-1.41825">
        <ele>34.8</ele>
        <time>2021-07-18T15:07:57Z</time>
      </trkpt>
      <trkpt lat="43.36093" lon="-1.41824">
        <ele>34.9</ele>
        <time>2021-07-18T15:07:58Z</time>
      </trkpt>
      <trkpt lat="43.36086" lon="-1.41821">
        <ele>35</ele>
        <time>2021-07-18T15:08:00Z</time>
      </trkpt>
      <trkpt lat="43.36082" lon="-1.4182">
        <ele>35.1</ele>
        <time>2021-07-18T15:08:01Z</time>
      </trkpt>
      <trkpt lat="43.36079" lon="-1.41819">
        <ele>35.1</ele>
        <time>2021-07-18T15:08:02Z</time>
      </trkpt>
      <trkpt lat="43.36072" lon="-1.41816">
        <ele>35.3</ele>
        <time>2021-07-18T15:08:04Z</time>
      </trkpt>
      <trkpt lat="43.36068" lon="-1.41815">
        <ele>35.3</ele>
        <time>2021-07-18T15:08:05Z</time>
      </trkpt>
      <trkpt lat="43.36064" lon="-1.41814">
        <ele>35.4</ele>
        <time>2021-07-18T15:08:06Z</time>
      </trkpt>
      <trkpt lat="43.36061" lon="-1.41813">
        <ele>35.4</ele>
        <time>2021-07-18T15:08:07Z</time>
      </trkpt>
      <trkpt lat="43.36057" lon="-1.41812">
        <ele>35.5</ele>
        <time>2021-07-18T15:08:08Z</time>
      </trkpt>
      <trkpt lat="43.36051" lon="-1.41809">
        <ele>35.5</ele>
        <time>2021-07-18T15:08:10Z</time>
      </trkpt>
      <trkpt lat="43.36044" lon="-1.41807">
        <ele>35.6</ele>
        <time>2021-07-18T15:08:12Z</time>
      </trkpt>
      <trkpt lat="43.36037" lon="-1.41805">
        <ele>35.7</ele>
        <time>2021-07-18T15:08:14Z</time>
      </trkpt>
      <trkpt lat="43.36034" lon="-1.41804">
        <ele>35.7</ele>
        <time>2021-07-18T15:08:15Z</time>
      </trkpt>
      <trkpt lat="43.3603" lon="-1.41803">
        <ele>35.7</ele>
        <time>2021-07-18T15:08:16Z</time>
      </trkpt>
      <trkpt lat="43.36024" lon="-1.418">
        <ele>35.8</ele>
        <time>2021-07-18T15:08:18Z</time>
      </trkpt>
      <trkpt lat="43.36016" lon="-1.41798">
        <ele>36</ele>
        <time>2021-07-18T15:08:20Z</time>
      </trkpt>
      <trkpt lat="43.36009" lon="-1.41796">
        <ele>36.1</ele>
        <time>2021-07-18T15:08:22Z</time>
      </trkpt>
      <trkpt lat="43.36006" lon="-1.41795">
        <ele>36.2</ele>
        <time>2021-07-18T15:08:23Z</time>
      </trkpt>
      <trkpt lat="43.35999" lon="-1.41793">
        <ele>36.3</ele>
        <time>2021-07-18T15:08:25Z</time>
      </trkpt>
      <trkpt lat="43.35992" lon="-1.41791">
        <ele>36.5</ele>
        <time>2021-07-18T15:08:27Z</time>
      </trkpt>
      <trkpt lat="43.35988" lon="-1.41789">
        <ele>36.6</ele>
        <time>2021-07-18T15:08:28Z</time>
      </trkpt>
      <trkpt lat="43.35981" lon="-1.41787">
        <ele>36.7</ele>
        <time>2021-07-18T15:08:30Z</time>
      </trkpt>
      <trkpt lat="43.35977" lon="-1.41786">
        <ele>36.8</ele>
        <time>2021-07-18T15:08:31Z</time>
      </trkpt>
      <trkpt lat="43.3597" lon="-1.41784">
        <ele>36.9</ele>
        <time>2021-07-18T15:08:33Z</time>
      </trkpt>
      <trkpt lat="43.35967" lon="-1.41782">
        <ele>36.9</ele>
        <time>2021-07-18T15:08:34Z</time>
      </trkpt>
      <trkpt lat="43.3596" lon="-1.4178">
        <ele>37</ele>
        <time>2021-07-18T15:08:36Z</time>
      </trkpt>
      <trkpt lat="43.35956" lon="-1.41779">
        <ele>37.1</ele>
        <time>2021-07-18T15:08:37Z</time>
      </trkpt>
      <trkpt lat="43.35952" lon="-1.41777">
        <ele>37.1</ele>
        <time>2021-07-18T15:08:38Z</time>
      </trkpt>
      <trkpt lat="43.35945" lon="-1.41775">
        <ele>37.3</ele>
        <time>2021-07-18T15:08:40Z</time>
      </trkpt>
      <trkpt lat="43.35938" lon="-1.41773">
        <ele>37.4</ele>
        <time>2021-07-18T15:08:42Z</time>
      </trkpt>
      <trkpt lat="43.35931" lon="-1.41771">
        <ele>37.5</ele>
        <time>2021-07-18T15:08:44Z</time>
      </trkpt>
      <trkpt lat="43.35927" lon="-1.41769">
        <ele>37.6</ele>
        <time>2021-07-18T15:08:45Z</time>
      </trkpt>
      <trkpt lat="43.35923" lon="-1.41768">
        <ele>37.6</ele>
        <time>2021-07-18T15:08:46Z</time>
      </trkpt>
      <trkpt lat="43.35916" lon="-1.41765">
        <ele>37.7</ele>
        <time>2021-07-18T15:08:48Z</time>
      </trkpt>
      <trkpt lat="43.35912" lon="-1.41763">
        <ele>37.8</ele>
        <time>2021-07-18T15:08:49Z</time>
      </trkpt>
      <trkpt lat="43.35904" lon="-1.41761">
        <ele>38</ele>
        <time>2021-07-18T15:08:51Z</time>
      </trkpt>
      <trkpt lat="43.359" lon="-1.4176">
        <ele>38.1</ele>
        <time>2021-07-18T15:08:52Z</time>
      </trkpt>
      <trkpt lat="43.35897" lon="-1.41758">
        <ele>38.1</ele>
        <time>2021-07-18T15:08:53Z</time>
      </trkpt>
      <trkpt lat="43.3589" lon="-1.41755">
        <ele>38.3</ele>
        <time>2021-07-18T15:08:55Z</time>
      </trkpt>
      <trkpt lat="43.35883" lon="-1.41753">
        <ele>38.4</ele>
        <time>2021-07-18T15:08:57Z</time>
      </trkpt>
      <trkpt lat="43.35878" lon="-1.41752">
        <ele>38.6</ele>
        <time>2021-07-18T15:08:59Z</time>
      </trkpt>
      <trkpt lat="43.35872" lon="-1.41751">
        <ele>38.7</ele>
        <time>2021-07-18T15:09:00Z</time>
      </trkpt>
      <trkpt lat="43.35865" lon="-1.41749">
        <ele>38.9</ele>
        <time>2021-07-18T15:09:02Z</time>
      </trkpt>
      <trkpt lat="43.35858" lon="-1.41747">
        <ele>39.1</ele>
        <time>2021-07-18T15:09:04Z</time>
      </trkpt>
      <trkpt lat="43.35851" lon="-1.41746">
        <ele>39.3</ele>
        <time>2021-07-18T15:09:06Z</time>
      </trkpt>
      <trkpt lat="43.35843" lon="-1.41744">
        <ele>39.5</ele>
        <time>2021-07-18T15:09:08Z</time>
      </trkpt>
      <trkpt lat="43.35839" lon="-1.41743">
        <ele>39.6</ele>
        <time>2021-07-18T15:09:09Z</time>
      </trkpt>
      <trkpt lat="43.35832" lon="-1.41741">
        <ele>39.7</ele>
        <time>2021-07-18T15:09:11Z</time>
      </trkpt>
      <trkpt lat="43.35825" lon="-1.41739">
        <ele>39.9</ele>
        <time>2021-07-18T15:09:13Z</time>
      </trkpt>
      <trkpt lat="43.35821" lon="-1.41739">
        <ele>40</ele>
        <time>2021-07-18T15:09:14Z</time>
      </trkpt>
      <trkpt lat="43.35814" lon="-1.41738">
        <ele>40.1</ele>
        <time>2021-07-18T15:09:16Z</time>
      </trkpt>
      <trkpt lat="43.35807" lon="-1.41737">
        <ele>40.3</ele>
        <time>2021-07-18T15:09:18Z</time>
      </trkpt>
      <trkpt lat="43.35803" lon="-1.41736">
        <ele>40.4</ele>
        <time>2021-07-18T15:09:19Z</time>
      </trkpt>
      <trkpt lat="43.35796" lon="-1.41735">
        <ele>40.6</ele>
        <time>2021-07-18T15:09:21Z</time>
      </trkpt>
      <trkpt lat="43.35793" lon="-1.41734">
        <ele>40.7</ele>
        <time>2021-07-18T15:09:22Z</time>
      </trkpt>
      <trkpt lat="43.35787" lon="-1.41734">
        <ele>40.9</ele>
        <time>2021-07-18T15:09:24Z</time>
      </trkpt>
      <trkpt lat="43.35783" lon="-1.41734">
        <ele>41</ele>
        <time>2021-07-18T15:09:25Z</time>
      </trkpt>
      <trkpt lat="43.3578" lon="-1.41734">
        <ele>41</ele>
        <time>2021-07-18T15:09:26Z</time>
      </trkpt>
      <trkpt lat="43.35774" lon="-1.41733">
        <ele>41.2</ele>
        <time>2021-07-18T15:09:28Z</time>
      </trkpt>
      <trkpt lat="43.3577" lon="-1.41733">
        <ele>41.3</ele>
        <time>2021-07-18T15:09:29Z</time>
      </trkpt>
      <trkpt lat="43.35764" lon="-1.41733">
        <ele>41.5</ele>
        <time>2021-07-18T15:09:31Z</time>
      </trkpt>
      <trkpt lat="43.3576" lon="-1.41733">
        <ele>41.5</ele>
        <time>2021-07-18T15:09:32Z</time>
      </trkpt>
      <trkpt lat="43.35754" lon="-1.41733">
        <ele>41.7</ele>
        <time>2021-07-18T15:09:34Z</time>
      </trkpt>
      <trkpt lat="43.3575" lon="-1.41733">
        <ele>41.8</ele>
        <time>2021-07-18T15:09:35Z</time>
      </trkpt>
      <trkpt lat="43.35747" lon="-1.41733">
        <ele>41.9</ele>
        <time>2021-07-18T15:09:36Z</time>
      </trkpt>
      <trkpt lat="43.35741" lon="-1.41733">
        <ele>42.1</ele>
        <time>2021-07-18T15:09:38Z</time>
      </trkpt>
      <trkpt lat="43.35735" lon="-1.41732">
        <ele>42.3</ele>
        <time>2021-07-18T15:09:40Z</time>
      </trkpt>
      <trkpt lat="43.35729" lon="-1.41733">
        <ele>42.5</ele>
        <time>2021-07-18T15:09:42Z</time>
      </trkpt>
      <trkpt lat="43.35725" lon="-1.41733">
        <ele>42.6</ele>
        <time>2021-07-18T15:09:43Z</time>
      </trkpt>
      <trkpt lat="43.35719" lon="-1.41733">
        <ele>42.8</ele>
        <time>2021-07-18T15:09:45Z</time>
      </trkpt>
      <trkpt lat="43.35716" lon="-1.41733">
        <ele>42.8</ele>
        <time>2021-07-18T15:09:46Z</time>
      </trkpt>
      <trkpt lat="43.3571" lon="-1.41733">
        <ele>43</ele>
        <time>2021-07-18T15:09:48Z</time>
      </trkpt>
      <trkpt lat="43.35706" lon="-1.41734">
        <ele>43.1</ele>
        <time>2021-07-18T15:09:49Z</time>
      </trkpt>
      <trkpt lat="43.35703" lon="-1.41734">
        <ele>43.2</ele>
        <time>2021-07-18T15:09:50Z</time>
      </trkpt>
      <trkpt lat="43.35696" lon="-1.41735">
        <ele>43.4</ele>
        <time>2021-07-18T15:09:52Z</time>
      </trkpt>
      <trkpt lat="43.35693" lon="-1.41735">
        <ele>43.5</ele>
        <time>2021-07-18T15:09:53Z</time>
      </trkpt>
      <trkpt lat="43.35689" lon="-1.41736">
        <ele>43.6</ele>
        <time>2021-07-18T15:09:54Z</time>
      </trkpt>
      <trkpt lat="43.35683" lon="-1.41737">
        <ele>43.8</ele>
        <time>2021-07-18T15:09:56Z</time>
      </trkpt>
      <trkpt lat="43.35676" lon="-1.41739">
        <ele>44</ele>
        <time>2021-07-18T15:09:58Z</time>
      </trkpt>
      <trkpt lat="43.3567" lon="-1.4174">
        <ele>44.2</ele>
        <time>2021-07-18T15:10:00Z</time>
      </trkpt>
      <trkpt lat="43.35663" lon="-1.41741">
        <ele>44.4</ele>
        <time>2021-07-18T15:10:02Z</time>
      </trkpt>
      <trkpt lat="43.35657" lon="-1.41742">
        <ele>44.6</ele>
        <time>2021-07-18T15:10:04Z</time>
      </trkpt>
      <trkpt lat="43.35654" lon="-1.41743">
        <ele>44.7</ele>
        <time>2021-07-18T15:10:05Z</time>
      </trkpt>
      <trkpt lat="43.35651" lon="-1.41744">
        <ele>44.7</ele>
        <time>2021-07-18T15:10:06Z</time>
      </trkpt>
      <trkpt lat="43.35648" lon="-1.41745">
        <ele>44.8</ele>
        <time>2021-07-18T15:10:07Z</time>
      </trkpt>
      <trkpt lat="43.35644" lon="-1.41745">
        <ele>44.9</ele>
        <time>2021-07-18T15:10:08Z</time>
      </trkpt>
      <trkpt lat="43.35638" lon="-1.41747">
        <ele>45</ele>
        <time>2021-07-18T15:10:10Z</time>
      </trkpt>
      <trkpt lat="43.35634" lon="-1.41749">
        <ele>45.1</ele>
        <time>2021-07-18T15:10:11Z</time>
      </trkpt>
      <trkpt lat="43.35629" lon="-1.41751">
        <ele>45.2</ele>
        <time>2021-07-18T15:10:13Z</time>
      </trkpt>
      <trkpt lat="43.35625" lon="-1.41752">
        <ele>45.3</ele>
        <time>2021-07-18T15:10:14Z</time>
      </trkpt>
      <trkpt lat="43.35621" lon="-1.41754">
        <ele>45.4</ele>
        <time>2021-07-18T15:10:15Z</time>
      </trkpt>
      <trkpt lat="43.35615" lon="-1.41756">
        <ele>45.5</ele>
        <time>2021-07-18T15:10:17Z</time>
      </trkpt>
      <trkpt lat="43.35608" lon="-1.41758">
        <ele>45.6</ele>
        <time>2021-07-18T15:10:19Z</time>
      </trkpt>
      <trkpt lat="43.35602" lon="-1.41761">
        <ele>45.7</ele>
        <time>2021-07-18T15:10:21Z</time>
      </trkpt>
      <trkpt lat="43.35599" lon="-1.41762">
        <ele>45.8</ele>
        <time>2021-07-18T15:10:22Z</time>
      </trkpt>
      <trkpt lat="43.35596" lon="-1.41763">
        <ele>45.9</ele>
        <time>2021-07-18T15:10:23Z</time>
      </trkpt>
      <trkpt lat="43.35589" lon="-1.41766">
        <ele>45.9</ele>
        <time>2021-07-18T15:10:25Z</time>
      </trkpt>
      <trkpt lat="43.35582" lon="-1.41769">
        <ele>46</ele>
        <time>2021-07-18T15:10:27Z</time>
      </trkpt>
      <trkpt lat="43.35575" lon="-1.41771">
        <ele>46.1</ele>
        <time>2021-07-18T15:10:29Z</time>
      </trkpt>
      <trkpt lat="43.35572" lon="-1.41773">
        <ele>46.2</ele>
        <time>2021-07-18T15:10:30Z</time>
      </trkpt>
      <trkpt lat="43.35568" lon="-1.41775">
        <ele>46.2</ele>
        <time>2021-07-18T15:10:32Z</time>
      </trkpt>
      <trkpt lat="43.35563" lon="-1.41778">
        <ele>46.3</ele>
        <time>2021-07-18T15:10:33Z</time>
      </trkpt>
      <trkpt lat="43.3556" lon="-1.41779">
        <ele>46.4</ele>
        <time>2021-07-18T15:10:34Z</time>
      </trkpt>
      <trkpt lat="43.35554" lon="-1.41783">
        <ele>46.4</ele>
        <time>2021-07-18T15:10:36Z</time>
      </trkpt>
      <trkpt lat="43.35551" lon="-1.41784">
        <ele>46.5</ele>
        <time>2021-07-18T15:10:37Z</time>
      </trkpt>
      <trkpt lat="43.35545" lon="-1.41788">
        <ele>46.5</ele>
        <time>2021-07-18T15:10:39Z</time>
      </trkpt>
      <trkpt lat="43.35541" lon="-1.4179">
        <ele>46.6</ele>
        <time>2021-07-18T15:10:40Z</time>
      </trkpt>
      <trkpt lat="43.35535" lon="-1.41793">
        <ele>46.6</ele>
        <time>2021-07-18T15:10:42Z</time>
      </trkpt>
      <trkpt lat="43.35528" lon="-1.41798">
        <ele>46.7</ele>
        <time>2021-07-18T15:10:44Z</time>
      </trkpt>
      <trkpt lat="43.35521" lon="-1.41802">
        <ele>46.7</ele>
        <time>2021-07-18T15:10:46Z</time>
      </trkpt>
      <trkpt lat="43.35514" lon="-1.41806">
        <ele>46.8</ele>
        <time>2021-07-18T15:10:48Z</time>
      </trkpt>
      <trkpt lat="43.3551" lon="-1.41808">
        <ele>46.9</ele>
        <time>2021-07-18T15:10:49Z</time>
      </trkpt>
      <trkpt lat="43.35504" lon="-1.41812">
        <ele>47</ele>
        <time>2021-07-18T15:10:51Z</time>
      </trkpt>
      <trkpt lat="43.355" lon="-1.41814">
        <ele>47.1</ele>
        <time>2021-07-18T15:10:52Z</time>
      </trkpt>
      <trkpt lat="43.35493" lon="-1.41818">
        <ele>47.2</ele>
        <time>2021-07-18T15:10:54Z</time>
      </trkpt>
      <trkpt lat="43.3549" lon="-1.4182">
        <ele>47.3</ele>
        <time>2021-07-18T15:10:55Z</time>
      </trkpt>
      <trkpt lat="43.35487" lon="-1.41822">
        <ele>47.4</ele>
        <time>2021-07-18T15:10:56Z</time>
      </trkpt>
      <trkpt lat="43.3548" lon="-1.41825">
        <ele>47.5</ele>
        <time>2021-07-18T15:10:58Z</time>
      </trkpt>
      <trkpt lat="43.35474" lon="-1.41828">
        <ele>47.7</ele>
        <time>2021-07-18T15:11:00Z</time>
      </trkpt>
      <trkpt lat="43.35469" lon="-1.41831">
        <ele>47.9</ele>
        <time>2021-07-18T15:11:01Z</time>
      </trkpt>
      <trkpt lat="43.35466" lon="-1.41833">
        <ele>48</ele>
        <time>2021-07-18T15:11:02Z</time>
      </trkpt>
      <trkpt lat="43.35462" lon="-1.41835">
        <ele>48.1</ele>
        <time>2021-07-18T15:11:03Z</time>
      </trkpt>
      <trkpt lat="43.35457" lon="-1.41838">
        <ele>48.3</ele>
        <time>2021-07-18T15:11:05Z</time>
      </trkpt>
      <trkpt lat="43.35453" lon="-1.41841">
        <ele>48.5</ele>
        <time>2021-07-18T15:11:06Z</time>
      </trkpt>
      <trkpt lat="43.35448" lon="-1.41843">
        <ele>48.7</ele>
        <time>2021-07-18T15:11:08Z</time>
      </trkpt>
      <trkpt lat="43.35444" lon="-1.41847">
        <ele>48.9</ele>
        <time>2021-07-18T15:11:10Z</time>
      </trkpt>
      <trkpt lat="43.35439" lon="-1.4185">
        <ele>49.1</ele>
        <time>2021-07-18T15:11:12Z</time>
      </trkpt>
      <trkpt lat="43.35437" lon="-1.41851">
        <ele>49.2</ele>
        <time>2021-07-18T15:11:13Z</time>
      </trkpt>
      <trkpt lat="43.35434" lon="-1.41853">
        <ele>49.3</ele>
        <time>2021-07-18T15:11:15Z</time>
      </trkpt>
      <trkpt lat="43.35431" lon="-1.41855">
        <ele>49.5</ele>
        <time>2021-07-18T15:11:16Z</time>
      </trkpt>
      <trkpt lat="43.35427" lon="-1.41858">
        <ele>49.7</ele>
        <time>2021-07-18T15:11:17Z</time>
      </trkpt>
      <trkpt lat="43.35426" lon="-1.41859">
        <ele>49.7</ele>
        <time>2021-07-18T15:11:18Z</time>
      </trkpt>
      <trkpt lat="43.35422" lon="-1.41862">
        <ele>50</ele>
        <time>2021-07-18T15:11:20Z</time>
      </trkpt>
      <trkpt lat="43.35418" lon="-1.41865">
        <ele>50.2</ele>
        <time>2021-07-18T15:11:22Z</time>
      </trkpt>
      <trkpt lat="43.35413" lon="-1.41868">
        <ele>50.5</ele>
        <time>2021-07-18T15:11:24Z</time>
      </trkpt>
      <trkpt lat="43.3541" lon="-1.4187">
        <ele>50.6</ele>
        <time>2021-07-18T15:11:25Z</time>
      </trkpt>
      <trkpt lat="43.35409" lon="-1.41871">
        <ele>50.7</ele>
        <time>2021-07-18T15:11:26Z</time>
      </trkpt>
      <trkpt lat="43.35406" lon="-1.41872">
        <ele>50.9</ele>
        <time>2021-07-18T15:11:28Z</time>
      </trkpt>
      <trkpt lat="43.35403" lon="-1.41874">
        <ele>51.1</ele>
        <time>2021-07-18T15:11:29Z</time>
      </trkpt>
      <trkpt lat="43.35402" lon="-1.41875">
        <ele>51.1</ele>
        <time>2021-07-18T15:11:30Z</time>
      </trkpt>
      <trkpt lat="43.35399" lon="-1.41876">
        <ele>51.2</ele>
        <time>2021-07-18T15:11:31Z</time>
      </trkpt>
      <trkpt lat="43.35396" lon="-1.41878">
        <ele>51.5</ele>
        <time>2021-07-18T15:11:33Z</time>
      </trkpt>
      <trkpt lat="43.35393" lon="-1.4188">
        <ele>51.6</ele>
        <time>2021-07-18T15:11:34Z</time>
      </trkpt>
      <trkpt lat="43.35391" lon="-1.4188">
        <ele>51.7</ele>
        <time>2021-07-18T15:11:35Z</time>
      </trkpt>
      <trkpt lat="43.35387" lon="-1.41882">
        <ele>52</ele>
        <time>2021-07-18T15:11:37Z</time>
      </trkpt>
      <trkpt lat="43.35383" lon="-1.41884">
        <ele>52.2</ele>
        <time>2021-07-18T15:11:39Z</time>
      </trkpt>
      <trkpt lat="43.35381" lon="-1.41885">
        <ele>52.3</ele>
        <time>2021-07-18T15:11:40Z</time>
      </trkpt>
      <trkpt lat="43.35377" lon="-1.41885">
        <ele>52.6</ele>
        <time>2021-07-18T15:11:42Z</time>
      </trkpt>
      <trkpt lat="43.35375" lon="-1.41886">
        <ele>52.7</ele>
        <time>2021-07-18T15:11:43Z</time>
      </trkpt>
      <trkpt lat="43.3537" lon="-1.41887">
        <ele>52.9</ele>
        <time>2021-07-18T15:11:45Z</time>
      </trkpt>
      <trkpt lat="43.35366" lon="-1.41888">
        <ele>53.2</ele>
        <time>2021-07-18T15:11:47Z</time>
      </trkpt>
      <trkpt lat="43.35362" lon="-1.41888">
        <ele>53.4</ele>
        <time>2021-07-18T15:11:49Z</time>
      </trkpt>
      <trkpt lat="43.35358" lon="-1.4189">
        <ele>53.6</ele>
        <time>2021-07-18T15:11:51Z</time>
      </trkpt>
      <trkpt lat="43.35354" lon="-1.41892">
        <ele>53.7</ele>
        <time>2021-07-18T15:11:52Z</time>
      </trkpt>
      <trkpt lat="43.35351" lon="-1.41896">
        <ele>53.7</ele>
        <time>2021-07-18T15:11:54Z</time>
      </trkpt>
      <trkpt lat="43.35345" lon="-1.419">
        <ele>53.1</ele>
        <time>2021-07-18T15:11:56Z</time>
      </trkpt>
      <trkpt lat="43.35341" lon="-1.419">
        <ele>52.8</ele>
        <time>2021-07-18T15:11:57Z</time>
      </trkpt>
      <trkpt lat="43.35334" lon="-1.41897">
        <ele>52.1</ele>
        <time>2021-07-18T15:11:59Z</time>
      </trkpt>
      <trkpt lat="43.35329" lon="-1.41891">
        <ele>52.3</ele>
        <time>2021-07-18T15:12:01Z</time>
      </trkpt>
      <trkpt lat="43.35326" lon="-1.41885">
        <ele>52.3</ele>
        <time>2021-07-18T15:12:03Z</time>
      </trkpt>
      <trkpt lat="43.35325" lon="-1.41879">
        <ele>52.4</ele>
        <time>2021-07-18T15:12:04Z</time>
      </trkpt>
      <trkpt lat="43.35325" lon="-1.41874">
        <ele>52.4</ele>
        <time>2021-07-18T15:12:05Z</time>
      </trkpt>
      <trkpt lat="43.35326" lon="-1.41866">
        <ele>52.5</ele>
        <time>2021-07-18T15:12:07Z</time>
      </trkpt>
      <trkpt lat="43.35326" lon="-1.41861">
        <ele>52.7</ele>
        <time>2021-07-18T15:12:08Z</time>
      </trkpt>
      <trkpt lat="43.35326" lon="-1.41859">
        <ele>52.7</ele>
        <time>2021-07-18T15:12:09Z</time>
      </trkpt>
      <trkpt lat="43.35327" lon="-1.41852">
        <ele>52.7</ele>
        <time>2021-07-18T15:12:11Z</time>
      </trkpt>
      <trkpt lat="43.35324" lon="-1.41845">
        <ele>52.7</ele>
        <time>2021-07-18T15:12:13Z</time>
      </trkpt>
      <trkpt lat="43.3532" lon="-1.41839">
        <ele>52.6</ele>
        <time>2021-07-18T15:12:15Z</time>
      </trkpt>
      <trkpt lat="43.35318" lon="-1.41834">
        <ele>52.6</ele>
        <time>2021-07-18T15:12:17Z</time>
      </trkpt>
      <trkpt lat="43.35319" lon="-1.41836">
        <ele>52.5</ele>
        <time>2021-07-18T15:12:19Z</time>
      </trkpt>
      <trkpt lat="43.3532" lon="-1.41837">
        <ele>52.5</ele>
        <time>2021-07-18T15:12:20Z</time>
      </trkpt>
      <trkpt lat="43.3532" lon="-1.41837">
        <ele>52.5</ele>
        <time>2021-07-18T15:12:22Z</time>
      </trkpt>
      <trkpt lat="43.35319" lon="-1.41836">
        <ele>52.5</ele>
        <time>2021-07-18T15:12:24Z</time>
      </trkpt>
      <trkpt lat="43.35319" lon="-1.41836">
        <ele>52.5</ele>
        <time>2021-07-18T15:12:25Z</time>
      </trkpt>
      <trkpt lat="43.35318" lon="-1.41835">
        <ele>52.4</ele>
        <time>2021-07-18T15:12:26Z</time>
      </trkpt>
      <trkpt lat="43.35318" lon="-1.41834">
        <ele>52.4</ele>
        <time>2021-07-18T15:12:27Z</time>
      </trkpt>
      <trkpt lat="43.35318" lon="-1.41834">
        <ele>52.4</ele>
        <time>2021-07-18T15:12:28Z</time>
      </trkpt>
      <trkpt lat="43.35317" lon="-1.41833">
        <ele>52.4</ele>
        <time>2021-07-18T15:12:30Z</time>
      </trkpt>
      <trkpt lat="43.35317" lon="-1.41832">
        <ele>52.4</ele>
        <time>2021-07-18T15:12:31Z</time>
      </trkpt>
      <trkpt lat="43.35316" lon="-1.41831">
        <ele>52.4</ele>
        <time>2021-07-18T15:12:33Z</time>
      </trkpt>
      <trkpt lat="43.35316" lon="-1.41831">
        <ele>52.3</ele>
        <time>2021-07-18T15:12:35Z</time>
      </trkpt>
      <trkpt lat="43.35315" lon="-1.4183">
        <ele>52.3</ele>
        <time>2021-07-18T15:12:36Z</time>
      </trkpt>
      <trkpt lat="43.35315" lon="-1.41829">
        <ele>52.3</ele>
        <time>2021-07-18T15:12:38Z</time>
      </trkpt>
      <trkpt lat="43.35314" lon="-1.41829">
        <ele>52.3</ele>
        <time>2021-07-18T15:14:02Z</time>
      </trkpt>
      <trkpt lat="43.35314" lon="-1.41828">
        <ele>52.3</ele>
        <time>2021-07-18T15:14:03Z</time>
      </trkpt>
      <trkpt lat="43.35314" lon="-1.41827">
        <ele>52.3</ele>
        <time>2021-07-18T15:14:04Z</time>
      </trkpt>
      <trkpt lat="43.35309" lon="-1.41822">
        <ele>52.1</ele>
        <time>2021-07-18T15:14:06Z</time>
      </trkpt>
      <trkpt lat="43.35306" lon="-1.41819">
        <ele>52</ele>
        <time>2021-07-18T15:14:07Z</time>
      </trkpt>
      <trkpt lat="43.35302" lon="-1.41815">
        <ele>51.9</ele>
        <time>2021-07-18T15:14:08Z</time>
      </trkpt>
      <trkpt lat="43.35298" lon="-1.41812">
        <ele>51.9</ele>
        <time>2021-07-18T15:14:10Z</time>
      </trkpt>
      <trkpt lat="43.35292" lon="-1.41807">
        <ele>51.8</ele>
        <time>2021-07-18T15:14:11Z</time>
      </trkpt>
      <trkpt lat="43.35289" lon="-1.41804">
        <ele>51.7</ele>
        <time>2021-07-18T15:14:12Z</time>
      </trkpt>
      <trkpt lat="43.35282" lon="-1.41798">
        <ele>51.7</ele>
        <time>2021-07-18T15:14:14Z</time>
      </trkpt>
      <trkpt lat="43.35275" lon="-1.41793">
        <ele>51.7</ele>
        <time>2021-07-18T15:14:16Z</time>
      </trkpt>
      <trkpt lat="43.35272" lon="-1.41791">
        <ele>51.7</ele>
        <time>2021-07-18T15:14:17Z</time>
      </trkpt>
      <trkpt lat="43.35267" lon="-1.41787">
        <ele>51.7</ele>
        <time>2021-07-18T15:14:18Z</time>
      </trkpt>
      <trkpt lat="43.35262" lon="-1.41781">
        <ele>51.8</ele>
        <time>2021-07-18T15:14:20Z</time>
      </trkpt>
      <trkpt lat="43.35257" lon="-1.41777">
        <ele>51.9</ele>
        <time>2021-07-18T15:14:21Z</time>
      </trkpt>
      <trkpt lat="43.35254" lon="-1.41774">
        <ele>51.9</ele>
        <time>2021-07-18T15:14:22Z</time>
      </trkpt>
      <trkpt lat="43.35248" lon="-1.41768">
        <ele>52.1</ele>
        <time>2021-07-18T15:14:24Z</time>
      </trkpt>
      <trkpt lat="43.35245" lon="-1.41765">
        <ele>52.1</ele>
        <time>2021-07-18T15:14:25Z</time>
      </trkpt>
      <trkpt lat="43.35242" lon="-1.41762">
        <ele>52.2</ele>
        <time>2021-07-18T15:14:26Z</time>
      </trkpt>
      <trkpt lat="43.35239" lon="-1.41759">
        <ele>52.3</ele>
        <time>2021-07-18T15:14:27Z</time>
      </trkpt>
      <trkpt lat="43.35236" lon="-1.41755">
        <ele>52.4</ele>
        <time>2021-07-18T15:14:29Z</time>
      </trkpt>
      <trkpt lat="43.35233" lon="-1.41752">
        <ele>52.6</ele>
        <time>2021-07-18T15:14:30Z</time>
      </trkpt>
      <trkpt lat="43.35228" lon="-1.41748">
        <ele>52.7</ele>
        <time>2021-07-18T15:14:32Z</time>
      </trkpt>
      <trkpt lat="43.35225" lon="-1.41745">
        <ele>52.9</ele>
        <time>2021-07-18T15:14:33Z</time>
      </trkpt>
      <trkpt lat="43.3522" lon="-1.4174">
        <ele>53.1</ele>
        <time>2021-07-18T15:14:35Z</time>
      </trkpt>
      <trkpt lat="43.35217" lon="-1.41737">
        <ele>53.2</ele>
        <time>2021-07-18T15:14:36Z</time>
      </trkpt>
      <trkpt lat="43.35213" lon="-1.41734">
        <ele>53.5</ele>
        <time>2021-07-18T15:14:38Z</time>
      </trkpt>
      <trkpt lat="43.35209" lon="-1.41731">
        <ele>53.7</ele>
        <time>2021-07-18T15:14:40Z</time>
      </trkpt>
      <trkpt lat="43.35206" lon="-1.41729">
        <ele>53.8</ele>
        <time>2021-07-18T15:14:41Z</time>
      </trkpt>
      <trkpt lat="43.35203" lon="-1.41728">
        <ele>54</ele>
        <time>2021-07-18T15:14:42Z</time>
      </trkpt>
      <trkpt lat="43.35201" lon="-1.41726">
        <ele>54.1</ele>
        <time>2021-07-18T15:14:43Z</time>
      </trkpt>
      <trkpt lat="43.35197" lon="-1.41723">
        <ele>54.3</ele>
        <time>2021-07-18T15:14:45Z</time>
      </trkpt>
      <trkpt lat="43.35194" lon="-1.41721">
        <ele>54.5</ele>
        <time>2021-07-18T15:14:46Z</time>
      </trkpt>
      <trkpt lat="43.35193" lon="-1.41721">
        <ele>54.5</ele>
        <time>2021-07-18T15:14:47Z</time>
      </trkpt>
      <trkpt lat="43.35189" lon="-1.4172">
        <ele>55</ele>
        <time>2021-07-18T15:14:49Z</time>
      </trkpt>
      <trkpt lat="43.35184" lon="-1.41719">
        <ele>55.1</ele>
        <time>2021-07-18T15:14:51Z</time>
      </trkpt>
      <trkpt lat="43.35179" lon="-1.41719">
        <ele>55.4</ele>
        <time>2021-07-18T15:14:53Z</time>
      </trkpt>
      <trkpt lat="43.35175" lon="-1.41719">
        <ele>55.8</ele>
        <time>2021-07-18T15:14:54Z</time>
      </trkpt>
      <trkpt lat="43.35174" lon="-1.4172">
        <ele>55.8</ele>
        <time>2021-07-18T15:14:55Z</time>
      </trkpt>
      <trkpt lat="43.3517" lon="-1.41721">
        <ele>56.1</ele>
        <time>2021-07-18T15:14:57Z</time>
      </trkpt>
      <trkpt lat="43.35167" lon="-1.41722">
        <ele>56.2</ele>
        <time>2021-07-18T15:14:58Z</time>
      </trkpt>
      <trkpt lat="43.35163" lon="-1.41721">
        <ele>56.2</ele>
        <time>2021-07-18T15:14:59Z</time>
      </trkpt>
      <trkpt lat="43.35161" lon="-1.41721">
        <ele>56.3</ele>
        <time>2021-07-18T15:15:00Z</time>
      </trkpt>
      <trkpt lat="43.35157" lon="-1.4172">
        <ele>56.6</ele>
        <time>2021-07-18T15:15:02Z</time>
      </trkpt>
      <trkpt lat="43.35152" lon="-1.41718">
        <ele>56.8</ele>
        <time>2021-07-18T15:15:04Z</time>
      </trkpt>
      <trkpt lat="43.35151" lon="-1.41718">
        <ele>56.9</ele>
        <time>2021-07-18T15:15:05Z</time>
      </trkpt>
      <trkpt lat="43.3515" lon="-1.41717">
        <ele>57</ele>
        <time>2021-07-18T15:15:06Z</time>
      </trkpt>
      <trkpt lat="43.35146" lon="-1.41716">
        <ele>57.2</ele>
        <time>2021-07-18T15:15:08Z</time>
      </trkpt>
      <trkpt lat="43.35145" lon="-1.41715">
        <ele>57.4</ele>
        <time>2021-07-18T15:15:09Z</time>
      </trkpt>
      <trkpt lat="43.35143" lon="-1.41713">
        <ele>57.5</ele>
        <time>2021-07-18T15:15:11Z</time>
      </trkpt>
      <trkpt lat="43.35141" lon="-1.41712">
        <ele>57.7</ele>
        <time>2021-07-18T15:15:12Z</time>
      </trkpt>
      <trkpt lat="43.3514" lon="-1.41711">
        <ele>57.8</ele>
        <time>2021-07-18T15:15:13Z</time>
      </trkpt>
      <trkpt lat="43.35139" lon="-1.41709">
        <ele>57.9</ele>
        <time>2021-07-18T15:15:14Z</time>
      </trkpt>
      <trkpt lat="43.35137" lon="-1.41705">
        <ele>58.1</ele>
        <time>2021-07-18T15:15:16Z</time>
      </trkpt>
      <trkpt lat="43.35134" lon="-1.41701">
        <ele>58.4</ele>
        <time>2021-07-18T15:15:18Z</time>
      </trkpt>
      <trkpt lat="43.35132" lon="-1.41698">
        <ele>58.6</ele>
        <time>2021-07-18T15:15:20Z</time>
      </trkpt>
      <trkpt lat="43.35131" lon="-1.41697">
        <ele>58.7</ele>
        <time>2021-07-18T15:15:21Z</time>
      </trkpt>
      <trkpt lat="43.3513" lon="-1.41695">
        <ele>58.9</ele>
        <time>2021-07-18T15:15:22Z</time>
      </trkpt>
      <trkpt lat="43.35128" lon="-1.41691">
        <ele>59.2</ele>
        <time>2021-07-18T15:15:24Z</time>
      </trkpt>
      <trkpt lat="43.35126" lon="-1.41687">
        <ele>59.4</ele>
        <time>2021-07-18T15:15:26Z</time>
      </trkpt>
      <trkpt lat="43.35123" lon="-1.41684">
        <ele>59.7</ele>
        <time>2021-07-18T15:15:28Z</time>
      </trkpt>
      <trkpt lat="43.35121" lon="-1.4168">
        <ele>60</ele>
        <time>2021-07-18T15:15:30Z</time>
      </trkpt>
      <trkpt lat="43.35119" lon="-1.41676">
        <ele>60.3</ele>
        <time>2021-07-18T15:15:32Z</time>
      </trkpt>
      <trkpt lat="43.35118" lon="-1.41675">
        <ele>60.4</ele>
        <time>2021-07-18T15:15:33Z</time>
      </trkpt>
      <trkpt lat="43.35116" lon="-1.41672">
        <ele>60.7</ele>
        <time>2021-07-18T15:15:35Z</time>
      </trkpt>
      <trkpt lat="43.35114" lon="-1.41671">
        <ele>60.8</ele>
        <time>2021-07-18T15:15:36Z</time>
      </trkpt>
      <trkpt lat="43.35113" lon="-1.41669">
        <ele>60.9</ele>
        <time>2021-07-18T15:15:37Z</time>
      </trkpt>
      <trkpt lat="43.35109" lon="-1.41666">
        <ele>61.4</ele>
        <time>2021-07-18T15:15:39Z</time>
      </trkpt>
      <trkpt lat="43.35107" lon="-1.41664">
        <ele>61.5</ele>
        <time>2021-07-18T15:15:41Z</time>
      </trkpt>
      <trkpt lat="43.35105" lon="-1.41663">
        <ele>61.7</ele>
        <time>2021-07-18T15:15:43Z</time>
      </trkpt>
      <trkpt lat="43.35104" lon="-1.41662">
        <ele>61.9</ele>
        <time>2021-07-18T15:15:45Z</time>
      </trkpt>
      <trkpt lat="43.35102" lon="-1.4166">
        <ele>62.1</ele>
        <time>2021-07-18T15:15:46Z</time>
      </trkpt>
      <trkpt lat="43.35098" lon="-1.41656">
        <ele>62.5</ele>
        <time>2021-07-18T15:15:48Z</time>
      </trkpt>
      <trkpt lat="43.35096" lon="-1.41656">
        <ele>62.7</ele>
        <time>2021-07-18T15:15:50Z</time>
      </trkpt>
      <trkpt lat="43.35094" lon="-1.41656">
        <ele>62.9</ele>
        <time>2021-07-18T15:15:52Z</time>
      </trkpt>
      <trkpt lat="43.35091" lon="-1.41655">
        <ele>63.1</ele>
        <time>2021-07-18T15:15:54Z</time>
      </trkpt>
      <trkpt lat="43.35089" lon="-1.41655">
        <ele>63.3</ele>
        <time>2021-07-18T15:15:56Z</time>
      </trkpt>
      <trkpt lat="43.35087" lon="-1.41654">
        <ele>63.5</ele>
        <time>2021-07-18T15:15:57Z</time>
      </trkpt>
      <trkpt lat="43.35084" lon="-1.41654">
        <ele>63.5</ele>
        <time>2021-07-18T15:15:58Z</time>
      </trkpt>
      <trkpt lat="43.35083" lon="-1.41654">
        <ele>63.5</ele>
        <time>2021-07-18T15:15:59Z</time>
      </trkpt>
      <trkpt lat="43.35079" lon="-1.41655">
        <ele>63.4</ele>
        <time>2021-07-18T15:16:01Z</time>
      </trkpt>
      <trkpt lat="43.35078" lon="-1.41657">
        <ele>63.6</ele>
        <time>2021-07-18T15:16:02Z</time>
      </trkpt>
      <trkpt lat="43.35074" lon="-1.41659">
        <ele>63.9</ele>
        <time>2021-07-18T15:16:04Z</time>
      </trkpt>
      <trkpt lat="43.35073" lon="-1.4166">
        <ele>64.1</ele>
        <time>2021-07-18T15:16:05Z</time>
      </trkpt>
      <trkpt lat="43.3507" lon="-1.41662">
        <ele>64.4</ele>
        <time>2021-07-18T15:16:07Z</time>
      </trkpt>
      <trkpt lat="43.35067" lon="-1.41665">
        <ele>64.7</ele>
        <time>2021-07-18T15:16:09Z</time>
      </trkpt>
      <trkpt lat="43.35065" lon="-1.41667">
        <ele>64.9</ele>
        <time>2021-07-18T15:16:10Z</time>
      </trkpt>
      <trkpt lat="43.35063" lon="-1.4167">
        <ele>65.2</ele>
        <time>2021-07-18T15:16:12Z</time>
      </trkpt>
      <trkpt lat="43.35061" lon="-1.41674">
        <ele>65.5</ele>
        <time>2021-07-18T15:16:14Z</time>
      </trkpt>
      <trkpt lat="43.3506" lon="-1.41677">
        <ele>65.6</ele>
        <time>2021-07-18T15:16:15Z</time>
      </trkpt>
      <trkpt lat="43.35058" lon="-1.41681">
        <ele>65.7</ele>
        <time>2021-07-18T15:16:17Z</time>
      </trkpt>
      <trkpt lat="43.35056" lon="-1.41685">
        <ele>65.8</ele>
        <time>2021-07-18T15:16:19Z</time>
      </trkpt>
      <trkpt lat="43.35055" lon="-1.41687">
        <ele>65.9</ele>
        <time>2021-07-18T15:16:20Z</time>
      </trkpt>
      <trkpt lat="43.35053" lon="-1.41692">
        <ele>66</ele>
        <time>2021-07-18T15:16:22Z</time>
      </trkpt>
      <trkpt lat="43.35052" lon="-1.41697">
        <ele>66.1</ele>
        <time>2021-07-18T15:16:23Z</time>
      </trkpt>
      <trkpt lat="43.35052" lon="-1.41698">
        <ele>66.1</ele>
        <time>2021-07-18T15:16:24Z</time>
      </trkpt>
      <trkpt lat="43.3505" lon="-1.41704">
        <ele>66.2</ele>
        <time>2021-07-18T15:16:26Z</time>
      </trkpt>
      <trkpt lat="43.35049" lon="-1.41706">
        <ele>66.3</ele>
        <time>2021-07-18T15:16:27Z</time>
      </trkpt>
      <trkpt lat="43.35048" lon="-1.41712">
        <ele>66.4</ele>
        <time>2021-07-18T15:16:29Z</time>
      </trkpt>
      <trkpt lat="43.35046" lon="-1.41718">
        <ele>66.5</ele>
        <time>2021-07-18T15:16:31Z</time>
      </trkpt>
      <trkpt lat="43.35044" lon="-1.41725">
        <ele>66.6</ele>
        <time>2021-07-18T15:16:33Z</time>
      </trkpt>
      <trkpt lat="43.35043" lon="-1.41729">
        <ele>66.6</ele>
        <time>2021-07-18T15:16:34Z</time>
      </trkpt>
      <trkpt lat="43.35041" lon="-1.41736">
        <ele>66.7</ele>
        <time>2021-07-18T15:16:36Z</time>
      </trkpt>
      <trkpt lat="43.35041" lon="-1.41739">
        <ele>66.8</ele>
        <time>2021-07-18T15:16:37Z</time>
      </trkpt>
      <trkpt lat="43.35039" lon="-1.41746">
        <ele>66.9</ele>
        <time>2021-07-18T15:16:39Z</time>
      </trkpt>
      <trkpt lat="43.35037" lon="-1.41754">
        <ele>67</ele>
        <time>2021-07-18T15:16:41Z</time>
      </trkpt>
      <trkpt lat="43.35035" lon="-1.41761">
        <ele>67.1</ele>
        <time>2021-07-18T15:16:43Z</time>
      </trkpt>
      <trkpt lat="43.35034" lon="-1.41768">
        <ele>67.2</ele>
        <time>2021-07-18T15:16:45Z</time>
      </trkpt>
      <trkpt lat="43.35032" lon="-1.41775">
        <ele>67.3</ele>
        <time>2021-07-18T15:16:47Z</time>
      </trkpt>
      <trkpt lat="43.35031" lon="-1.41779">
        <ele>67.4</ele>
        <time>2021-07-18T15:16:48Z</time>
      </trkpt>
      <trkpt lat="43.35029" lon="-1.41787">
        <ele>67.5</ele>
        <time>2021-07-18T15:16:50Z</time>
      </trkpt>
      <trkpt lat="43.35027" lon="-1.41794">
        <ele>67.6</ele>
        <time>2021-07-18T15:16:52Z</time>
      </trkpt>
      <trkpt lat="43.35026" lon="-1.41798">
        <ele>67.6</ele>
        <time>2021-07-18T15:16:53Z</time>
      </trkpt>
      <trkpt lat="43.35025" lon="-1.41802">
        <ele>67.7</ele>
        <time>2021-07-18T15:16:54Z</time>
      </trkpt>
      <trkpt lat="43.35023" lon="-1.41811">
        <ele>67.8</ele>
        <time>2021-07-18T15:16:56Z</time>
      </trkpt>
      <trkpt lat="43.3502" lon="-1.41819">
        <ele>67.8</ele>
        <time>2021-07-18T15:16:58Z</time>
      </trkpt>
      <trkpt lat="43.35019" lon="-1.41823">
        <ele>67.9</ele>
        <time>2021-07-18T15:16:59Z</time>
      </trkpt>
      <trkpt lat="43.35017" lon="-1.41832">
        <ele>68</ele>
        <time>2021-07-18T15:17:01Z</time>
      </trkpt>
      <trkpt lat="43.35016" lon="-1.41836">
        <ele>68</ele>
        <time>2021-07-18T15:17:02Z</time>
      </trkpt>
      <trkpt lat="43.35014" lon="-1.41845">
        <ele>68.1</ele>
        <time>2021-07-18T15:17:04Z</time>
      </trkpt>
      <trkpt lat="43.35014" lon="-1.41849">
        <ele>68.2</ele>
        <time>2021-07-18T15:17:05Z</time>
      </trkpt>
      <trkpt lat="43.35012" lon="-1.41854">
        <ele>68.2</ele>
        <time>2021-07-18T15:17:06Z</time>
      </trkpt>
      <trkpt lat="43.35011" lon="-1.4186">
        <ele>68.3</ele>
        <time>2021-07-18T15:17:07Z</time>
      </trkpt>
      <trkpt lat="43.3501" lon="-1.41862">
        <ele>68.3</ele>
        <time>2021-07-18T15:17:08Z</time>
      </trkpt>
      <trkpt lat="43.35007" lon="-1.41871">
        <ele>68.5</ele>
        <time>2021-07-18T15:17:10Z</time>
      </trkpt>
      <trkpt lat="43.35005" lon="-1.4188">
        <ele>68.6</ele>
        <time>2021-07-18T15:17:12Z</time>
      </trkpt>
      <trkpt lat="43.35004" lon="-1.41885">
        <ele>68.7</ele>
        <time>2021-07-18T15:17:13Z</time>
      </trkpt>
      <trkpt lat="43.35001" lon="-1.41894">
        <ele>68.8</ele>
        <time>2021-07-18T15:17:15Z</time>
      </trkpt>
      <trkpt lat="43.34999" lon="-1.41903">
        <ele>68.9</ele>
        <time>2021-07-18T15:17:17Z</time>
      </trkpt>
      <trkpt lat="43.34998" lon="-1.41908">
        <ele>69</ele>
        <time>2021-07-18T15:17:18Z</time>
      </trkpt>
      <trkpt lat="43.34997" lon="-1.41912">
        <ele>69</ele>
        <time>2021-07-18T15:17:19Z</time>
      </trkpt>
      <trkpt lat="43.34996" lon="-1.41917">
        <ele>69.1</ele>
        <time>2021-07-18T15:17:20Z</time>
      </trkpt>
      <trkpt lat="43.34993" lon="-1.41926">
        <ele>69.1</ele>
        <time>2021-07-18T15:17:22Z</time>
      </trkpt>
      <trkpt lat="43.34992" lon="-1.4193">
        <ele>69.2</ele>
        <time>2021-07-18T15:17:23Z</time>
      </trkpt>
      <trkpt lat="43.3499" lon="-1.4194">
        <ele>69.2</ele>
        <time>2021-07-18T15:17:25Z</time>
      </trkpt>
      <trkpt lat="43.34987" lon="-1.4195">
        <ele>69.2</ele>
        <time>2021-07-18T15:17:27Z</time>
      </trkpt>
      <trkpt lat="43.34984" lon="-1.41959">
        <ele>69.1</ele>
        <time>2021-07-18T15:17:29Z</time>
      </trkpt>
      <trkpt lat="43.34982" lon="-1.41969">
        <ele>68.8</ele>
        <time>2021-07-18T15:17:31Z</time>
      </trkpt>
      <trkpt lat="43.34979" lon="-1.41979">
        <ele>68.5</ele>
        <time>2021-07-18T15:17:33Z</time>
      </trkpt>
      <trkpt lat="43.34976" lon="-1.41989">
        <ele>68.2</ele>
        <time>2021-07-18T15:17:35Z</time>
      </trkpt>
      <trkpt lat="43.34972" lon="-1.41998">
        <ele>67.8</ele>
        <time>2021-07-18T15:17:36Z</time>
      </trkpt>
      <trkpt lat="43.3497" lon="-1.42005">
        <ele>67.5</ele>
        <time>2021-07-18T15:17:37Z</time>
      </trkpt>
      <trkpt lat="43.34967" lon="-1.42018">
        <ele>67</ele>
        <time>2021-07-18T15:17:39Z</time>
      </trkpt>
      <trkpt lat="43.34965" lon="-1.42026">
        <ele>66.7</ele>
        <time>2021-07-18T15:17:40Z</time>
      </trkpt>
      <trkpt lat="43.34961" lon="-1.42041">
        <ele>66</ele>
        <time>2021-07-18T15:17:42Z</time>
      </trkpt>
      <trkpt lat="43.34956" lon="-1.42056">
        <ele>65.2</ele>
        <time>2021-07-18T15:17:44Z</time>
      </trkpt>
      <trkpt lat="43.34949" lon="-1.42071">
        <ele>64.3</ele>
        <time>2021-07-18T15:17:46Z</time>
      </trkpt>
      <trkpt lat="43.34944" lon="-1.42079">
        <ele>63.9</ele>
        <time>2021-07-18T15:17:47Z</time>
      </trkpt>
      <trkpt lat="43.34938" lon="-1.42085">
        <ele>63.4</ele>
        <time>2021-07-18T15:17:48Z</time>
      </trkpt>
      <trkpt lat="43.34924" lon="-1.42093">
        <ele>62.6</ele>
        <time>2021-07-18T15:17:50Z</time>
      </trkpt>
      <trkpt lat="43.34917" lon="-1.42096">
        <ele>62.3</ele>
        <time>2021-07-18T15:17:51Z</time>
      </trkpt>
      <trkpt lat="43.34901" lon="-1.42096">
        <ele>61.8</ele>
        <time>2021-07-18T15:17:53Z</time>
      </trkpt>
      <trkpt lat="43.34894" lon="-1.42094">
        <ele>61.6</ele>
        <time>2021-07-18T15:17:54Z</time>
      </trkpt>
      <trkpt lat="43.3488" lon="-1.42088">
        <ele>61.3</ele>
        <time>2021-07-18T15:17:56Z</time>
      </trkpt>
      <trkpt lat="43.34868" lon="-1.42078">
        <ele>60.9</ele>
        <time>2021-07-18T15:17:58Z</time>
      </trkpt>
      <trkpt lat="43.34862" lon="-1.42072">
        <ele>60.7</ele>
        <time>2021-07-18T15:17:59Z</time>
      </trkpt>
      <trkpt lat="43.34851" lon="-1.42061">
        <ele>60.5</ele>
        <time>2021-07-18T15:18:01Z</time>
      </trkpt>
      <trkpt lat="43.34845" lon="-1.42054">
        <ele>60.4</ele>
        <time>2021-07-18T15:18:02Z</time>
      </trkpt>
      <trkpt lat="43.34836" lon="-1.42041">
        <ele>60.4</ele>
        <time>2021-07-18T15:18:04Z</time>
      </trkpt>
      <trkpt lat="43.34828" lon="-1.42029">
        <ele>60.4</ele>
        <time>2021-07-18T15:18:06Z</time>
      </trkpt>
      <trkpt lat="43.3482" lon="-1.42017">
        <ele>60.5</ele>
        <time>2021-07-18T15:18:08Z</time>
      </trkpt>
      <trkpt lat="43.34812" lon="-1.42005">
        <ele>60.5</ele>
        <time>2021-07-18T15:18:10Z</time>
      </trkpt>
      <trkpt lat="43.34804" lon="-1.41993">
        <ele>60.7</ele>
        <time>2021-07-18T15:18:12Z</time>
      </trkpt>
      <trkpt lat="43.348" lon="-1.41987">
        <ele>60.9</ele>
        <time>2021-07-18T15:18:13Z</time>
      </trkpt>
      <trkpt lat="43.34792" lon="-1.41976">
        <ele>61.1</ele>
        <time>2021-07-18T15:18:15Z</time>
      </trkpt>
      <trkpt lat="43.34786" lon="-1.41965">
        <ele>61.4</ele>
        <time>2021-07-18T15:18:17Z</time>
      </trkpt>
      <trkpt lat="43.34782" lon="-1.41959">
        <ele>61.6</ele>
        <time>2021-07-18T15:18:18Z</time>
      </trkpt>
      <trkpt lat="43.34776" lon="-1.41949">
        <ele>62</ele>
        <time>2021-07-18T15:18:20Z</time>
      </trkpt>
      <trkpt lat="43.3477" lon="-1.4194">
        <ele>62.1</ele>
        <time>2021-07-18T15:18:22Z</time>
      </trkpt>
      <trkpt lat="43.34767" lon="-1.41936">
        <ele>62.2</ele>
        <time>2021-07-18T15:18:23Z</time>
      </trkpt>
      <trkpt lat="43.34762" lon="-1.4193">
        <ele>62.4</ele>
        <time>2021-07-18T15:18:25Z</time>
      </trkpt>
      <trkpt lat="43.34759" lon="-1.41926">
        <ele>62.5</ele>
        <time>2021-07-18T15:18:26Z</time>
      </trkpt>
      <trkpt lat="43.34754" lon="-1.41919">
        <ele>62.7</ele>
        <time>2021-07-18T15:18:28Z</time>
      </trkpt>
      <trkpt lat="43.34751" lon="-1.41915">
        <ele>62.8</ele>
        <time>2021-07-18T15:18:29Z</time>
      </trkpt>
      <trkpt lat="43.34748" lon="-1.41911">
        <ele>62.9</ele>
        <time>2021-07-18T15:18:30Z</time>
      </trkpt>
      <trkpt lat="43.34743" lon="-1.41903">
        <ele>63.1</ele>
        <time>2021-07-18T15:18:32Z</time>
      </trkpt>
      <trkpt lat="43.34739" lon="-1.41896">
        <ele>63.4</ele>
        <time>2021-07-18T15:18:34Z</time>
      </trkpt>
      <trkpt lat="43.34735" lon="-1.41891">
        <ele>63.6</ele>
        <time>2021-07-18T15:18:35Z</time>
      </trkpt>
      <trkpt lat="43.34732" lon="-1.41885">
        <ele>63.7</ele>
        <time>2021-07-18T15:18:37Z</time>
      </trkpt>
      <trkpt lat="43.34728" lon="-1.41879">
        <ele>64</ele>
        <time>2021-07-18T15:18:39Z</time>
      </trkpt>
      <trkpt lat="43.34726" lon="-1.41876">
        <ele>64.1</ele>
        <time>2021-07-18T15:18:40Z</time>
      </trkpt>
      <trkpt lat="43.34724" lon="-1.41872">
        <ele>64.1</ele>
        <time>2021-07-18T15:18:41Z</time>
      </trkpt>
      <trkpt lat="43.34721" lon="-1.41867">
        <ele>64.3</ele>
        <time>2021-07-18T15:18:43Z</time>
      </trkpt>
      <trkpt lat="43.34718" lon="-1.41863">
        <ele>64.4</ele>
        <time>2021-07-18T15:18:44Z</time>
      </trkpt>
      <trkpt lat="43.34716" lon="-1.41859">
        <ele>64.5</ele>
        <time>2021-07-18T15:18:45Z</time>
      </trkpt>
      <trkpt lat="43.34711" lon="-1.41854">
        <ele>64.6</ele>
        <time>2021-07-18T15:18:47Z</time>
      </trkpt>
      <trkpt lat="43.34709" lon="-1.41851">
        <ele>64.7</ele>
        <time>2021-07-18T15:18:48Z</time>
      </trkpt>
      <trkpt lat="43.34706" lon="-1.41849">
        <ele>64.8</ele>
        <time>2021-07-18T15:18:49Z</time>
      </trkpt>
      <trkpt lat="43.34701" lon="-1.41844">
        <ele>65</ele>
        <time>2021-07-18T15:18:51Z</time>
      </trkpt>
      <trkpt lat="43.34698" lon="-1.41842">
        <ele>65.2</ele>
        <time>2021-07-18T15:18:52Z</time>
      </trkpt>
      <trkpt lat="43.34695" lon="-1.41839">
        <ele>65.3</ele>
        <time>2021-07-18T15:18:53Z</time>
      </trkpt>
      <trkpt lat="43.34689" lon="-1.41835">
        <ele>65.6</ele>
        <time>2021-07-18T15:18:55Z</time>
      </trkpt>
      <trkpt lat="43.34684" lon="-1.41833">
        <ele>65.8</ele>
        <time>2021-07-18T15:18:57Z</time>
      </trkpt>
      <trkpt lat="43.34681" lon="-1.4183">
        <ele>66</ele>
        <time>2021-07-18T15:18:58Z</time>
      </trkpt>
      <trkpt lat="43.34677" lon="-1.41828">
        <ele>66.2</ele>
        <time>2021-07-18T15:18:59Z</time>
      </trkpt>
      <trkpt lat="43.34671" lon="-1.41826">
        <ele>66.5</ele>
        <time>2021-07-18T15:19:01Z</time>
      </trkpt>
      <trkpt lat="43.34669" lon="-1.41825">
        <ele>66.7</ele>
        <time>2021-07-18T15:19:02Z</time>
      </trkpt>
      <trkpt lat="43.34666" lon="-1.41823">
        <ele>66.8</ele>
        <time>2021-07-18T15:19:03Z</time>
      </trkpt>
      <trkpt lat="43.34662" lon="-1.41822">
        <ele>67.1</ele>
        <time>2021-07-18T15:19:05Z</time>
      </trkpt>
      <trkpt lat="43.34658" lon="-1.41821">
        <ele>67.4</ele>
        <time>2021-07-18T15:19:07Z</time>
      </trkpt>
      <trkpt lat="43.34657" lon="-1.41821">
        <ele>67.5</ele>
        <time>2021-07-18T15:19:08Z</time>
      </trkpt>
      <trkpt lat="43.34653" lon="-1.41821">
        <ele>67.7</ele>
        <time>2021-07-18T15:19:10Z</time>
      </trkpt>
      <trkpt lat="43.34652" lon="-1.4182">
        <ele>67.8</ele>
        <time>2021-07-18T15:19:11Z</time>
      </trkpt>
      <trkpt lat="43.34649" lon="-1.4182">
        <ele>68.1</ele>
        <time>2021-07-18T15:19:13Z</time>
      </trkpt>
      <trkpt lat="43.34645" lon="-1.41821">
        <ele>68.3</ele>
        <time>2021-07-18T15:19:15Z</time>
      </trkpt>
      <trkpt lat="43.34644" lon="-1.4182">
        <ele>68.4</ele>
        <time>2021-07-18T15:19:16Z</time>
      </trkpt>
      <trkpt lat="43.34641" lon="-1.4182">
        <ele>68.6</ele>
        <time>2021-07-18T15:19:18Z</time>
      </trkpt>
      <trkpt lat="43.34639" lon="-1.41821">
        <ele>68.7</ele>
        <time>2021-07-18T15:19:19Z</time>
      </trkpt>
      <trkpt lat="43.34636" lon="-1.41822">
        <ele>68.9</ele>
        <time>2021-07-18T15:19:21Z</time>
      </trkpt>
      <trkpt lat="43.34632" lon="-1.41822">
        <ele>69.2</ele>
        <time>2021-07-18T15:19:23Z</time>
      </trkpt>
      <trkpt lat="43.34629" lon="-1.41824">
        <ele>69.4</ele>
        <time>2021-07-18T15:19:25Z</time>
      </trkpt>
      <trkpt lat="43.34625" lon="-1.41824">
        <ele>69.6</ele>
        <time>2021-07-18T15:19:27Z</time>
      </trkpt>
      <trkpt lat="43.34623" lon="-1.41825">
        <ele>69.7</ele>
        <time>2021-07-18T15:19:28Z</time>
      </trkpt>
      <trkpt lat="43.34618" lon="-1.41827">
        <ele>69.9</ele>
        <time>2021-07-18T15:19:30Z</time>
      </trkpt>
      <trkpt lat="43.34614" lon="-1.41828">
        <ele>70</ele>
        <time>2021-07-18T15:19:32Z</time>
      </trkpt>
      <trkpt lat="43.34609" lon="-1.4183">
        <ele>70.1</ele>
        <time>2021-07-18T15:19:34Z</time>
      </trkpt>
      <trkpt lat="43.34604" lon="-1.41832">
        <ele>70.3</ele>
        <time>2021-07-18T15:19:36Z</time>
      </trkpt>
      <trkpt lat="43.34602" lon="-1.41833">
        <ele>70.3</ele>
        <time>2021-07-18T15:19:38Z</time>
      </trkpt>
      <trkpt lat="43.34603" lon="-1.41833">
        <ele>70.3</ele>
        <time>2021-07-18T15:19:40Z</time>
      </trkpt>
      <trkpt lat="43.34603" lon="-1.41833">
        <ele>70.3</ele>
        <time>2021-07-18T15:19:41Z</time>
      </trkpt>
      <trkpt lat="43.34604" lon="-1.41833">
        <ele>70.3</ele>
        <time>2021-07-18T15:19:42Z</time>
      </trkpt>
      <trkpt lat="43.34604" lon="-1.41833">
        <ele>70.3</ele>
        <time>2021-07-18T15:19:44Z</time>
      </trkpt>
      <trkpt lat="43.34604" lon="-1.41833">
        <ele>70.4</ele>
        <time>2021-07-18T15:19:45Z</time>
      </trkpt>
      <trkpt lat="43.34604" lon="-1.41833">
        <ele>70.4</ele>
        <time>2021-07-18T15:19:46Z</time>
      </trkpt>
      <trkpt lat="43.346" lon="-1.41832">
        <ele>70.4</ele>
        <time>2021-07-18T15:20:19Z</time>
      </trkpt>
      <trkpt lat="43.34599" lon="-1.41833">
        <ele>70.5</ele>
        <time>2021-07-18T15:20:20Z</time>
      </trkpt>
      <trkpt lat="43.34594" lon="-1.41835">
        <ele>70.5</ele>
        <time>2021-07-18T15:20:22Z</time>
      </trkpt>
      <trkpt lat="43.34592" lon="-1.41836">
        <ele>70.6</ele>
        <time>2021-07-18T15:20:23Z</time>
      </trkpt>
      <trkpt lat="43.34587" lon="-1.41837">
        <ele>70.6</ele>
        <time>2021-07-18T15:20:25Z</time>
      </trkpt>
      <trkpt lat="43.34585" lon="-1.41838">
        <ele>70.7</ele>
        <time>2021-07-18T15:20:26Z</time>
      </trkpt>
      <trkpt lat="43.34579" lon="-1.41839">
        <ele>70.8</ele>
        <time>2021-07-18T15:20:28Z</time>
      </trkpt>
      <trkpt lat="43.34575" lon="-1.4184">
        <ele>70.9</ele>
        <time>2021-07-18T15:20:30Z</time>
      </trkpt>
      <trkpt lat="43.34573" lon="-1.4184">
        <ele>70.9</ele>
        <time>2021-07-18T15:20:31Z</time>
      </trkpt>
      <trkpt lat="43.34569" lon="-1.4184">
        <ele>71</ele>
        <time>2021-07-18T15:20:33Z</time>
      </trkpt>
      <trkpt lat="43.34567" lon="-1.41841">
        <ele>71.1</ele>
        <time>2021-07-18T15:20:34Z</time>
      </trkpt>
      <trkpt lat="43.34564" lon="-1.41842">
        <ele>71.2</ele>
        <time>2021-07-18T15:20:36Z</time>
      </trkpt>
      <trkpt lat="43.34561" lon="-1.41842">
        <ele>71.3</ele>
        <time>2021-07-18T15:20:38Z</time>
      </trkpt>
      <trkpt lat="43.3456" lon="-1.41841">
        <ele>71.3</ele>
        <time>2021-07-18T15:20:39Z</time>
      </trkpt>
      <trkpt lat="43.34558" lon="-1.4184">
        <ele>71.3</ele>
        <time>2021-07-18T15:20:40Z</time>
      </trkpt>
      <trkpt lat="43.34557" lon="-1.41839">
        <ele>71.4</ele>
        <time>2021-07-18T15:20:42Z</time>
      </trkpt>
      <trkpt lat="43.34556" lon="-1.41842">
        <ele>71.5</ele>
        <time>2021-07-18T15:20:44Z</time>
      </trkpt>
      <trkpt lat="43.34556" lon="-1.41842">
        <ele>71.5</ele>
        <time>2021-07-18T15:20:45Z</time>
      </trkpt>
      <trkpt lat="43.34556" lon="-1.41843">
        <ele>71.5</ele>
        <time>2021-07-18T15:20:46Z</time>
      </trkpt>
      <trkpt lat="43.34556" lon="-1.41842">
        <ele>71.5</ele>
        <time>2021-07-18T15:20:48Z</time>
      </trkpt>
      <trkpt lat="43.34556" lon="-1.41842">
        <ele>71.5</ele>
        <time>2021-07-18T15:20:50Z</time>
      </trkpt>
      <trkpt lat="43.34555" lon="-1.41842">
        <ele>71.5</ele>
        <time>2021-07-18T15:20:52Z</time>
      </trkpt>
      <trkpt lat="43.34554" lon="-1.41842">
        <ele>71.6</ele>
        <time>2021-07-18T15:20:54Z</time>
      </trkpt>
      <trkpt lat="43.34554" lon="-1.41841">
        <ele>71.6</ele>
        <time>2021-07-18T15:20:55Z</time>
      </trkpt>
      <trkpt lat="43.34554" lon="-1.41841">
        <ele>71.6</ele>
        <time>2021-07-18T15:20:57Z</time>
      </trkpt>
      <trkpt lat="43.34553" lon="-1.41841">
        <ele>71.6</ele>
        <time>2021-07-18T15:20:58Z</time>
      </trkpt>
      <trkpt lat="43.34553" lon="-1.41841">
        <ele>71.6</ele>
        <time>2021-07-18T15:20:59Z</time>
      </trkpt>
      <trkpt lat="43.34553" lon="-1.41841">
        <ele>71.6</ele>
        <time>2021-07-18T15:21:01Z</time>
      </trkpt>
      <trkpt lat="43.34553" lon="-1.4184">
        <ele>71.6</ele>
        <time>2021-07-18T15:21:03Z</time>
      </trkpt>
      <trkpt lat="43.34549" lon="-1.41838">
        <ele>71.7</ele>
        <time>2021-07-18T15:21:13Z</time>
      </trkpt>
      <trkpt lat="43.34545" lon="-1.41836">
        <ele>71.8</ele>
        <time>2021-07-18T15:21:15Z</time>
      </trkpt>
      <trkpt lat="43.34543" lon="-1.41835">
        <ele>71.8</ele>
        <time>2021-07-18T15:21:16Z</time>
      </trkpt>
      <trkpt lat="43.34538" lon="-1.41832">
        <ele>71.9</ele>
        <time>2021-07-18T15:21:18Z</time>
      </trkpt>
      <trkpt lat="43.34535" lon="-1.4183">
        <ele>72</ele>
        <time>2021-07-18T15:21:20Z</time>
      </trkpt>
      <trkpt lat="43.34533" lon="-1.4183">
        <ele>72</ele>
        <time>2021-07-18T15:21:21Z</time>
      </trkpt>
      <trkpt lat="43.34531" lon="-1.41827">
        <ele>72.1</ele>
        <time>2021-07-18T15:21:22Z</time>
      </trkpt>
      <trkpt lat="43.3453" lon="-1.41826">
        <ele>72.1</ele>
        <time>2021-07-18T15:21:23Z</time>
      </trkpt>
      <trkpt lat="43.34526" lon="-1.41822">
        <ele>72.2</ele>
        <time>2021-07-18T15:21:25Z</time>
      </trkpt>
      <trkpt lat="43.34524" lon="-1.41819">
        <ele>72.3</ele>
        <time>2021-07-18T15:21:26Z</time>
      </trkpt>
      <trkpt lat="43.34523" lon="-1.41818">
        <ele>72.3</ele>
        <time>2021-07-18T15:21:27Z</time>
      </trkpt>
      <trkpt lat="43.3452" lon="-1.41817">
        <ele>72.4</ele>
        <time>2021-07-18T15:21:29Z</time>
      </trkpt>
      <trkpt lat="43.34518" lon="-1.41818">
        <ele>72.4</ele>
        <time>2021-07-18T15:21:30Z</time>
      </trkpt>
      <trkpt lat="43.34516" lon="-1.4182">
        <ele>72.5</ele>
        <time>2021-07-18T15:21:32Z</time>
      </trkpt>
      <trkpt lat="43.34516" lon="-1.41821">
        <ele>72.5</ele>
        <time>2021-07-18T15:21:34Z</time>
      </trkpt>
      <trkpt lat="43.34516" lon="-1.41821">
        <ele>72.5</ele>
        <time>2021-07-18T15:21:36Z</time>
      </trkpt>
      <trkpt lat="43.34516" lon="-1.41821">
        <ele>72.5</ele>
        <time>2021-07-18T15:21:37Z</time>
      </trkpt>
      <trkpt lat="43.34516" lon="-1.41821">
        <ele>72.5</ele>
        <time>2021-07-18T15:21:39Z</time>
      </trkpt>
      <trkpt lat="43.34517" lon="-1.41821">
        <ele>72.6</ele>
        <time>2021-07-18T15:21:41Z</time>
      </trkpt>
      <trkpt lat="43.34517" lon="-1.41821">
        <ele>72.6</ele>
        <time>2021-07-18T15:21:42Z</time>
      </trkpt>
      <trkpt lat="43.34517" lon="-1.41817">
        <ele>72.6</ele>
        <time>2021-07-18T15:26:42Z</time>
      </trkpt>
      <trkpt lat="43.34516" lon="-1.41814">
        <ele>72.7</ele>
        <time>2021-07-18T15:26:44Z</time>
      </trkpt>
      <trkpt lat="43.34515" lon="-1.41813">
        <ele>72.8</ele>
        <time>2021-07-18T15:26:45Z</time>
      </trkpt>
      <trkpt lat="43.34513" lon="-1.41812">
        <ele>72.8</ele>
        <time>2021-07-18T15:26:46Z</time>
      </trkpt>
      <trkpt lat="43.34511" lon="-1.41808">
        <ele>73</ele>
        <time>2021-07-18T15:26:48Z</time>
      </trkpt>
      <trkpt lat="43.34509" lon="-1.41806">
        <ele>73</ele>
        <time>2021-07-18T15:26:49Z</time>
      </trkpt>
      <trkpt lat="43.34507" lon="-1.41802">
        <ele>73.2</ele>
        <time>2021-07-18T15:26:51Z</time>
      </trkpt>
      <trkpt lat="43.34505" lon="-1.418">
        <ele>73.3</ele>
        <time>2021-07-18T15:26:52Z</time>
      </trkpt>
      <trkpt lat="43.34503" lon="-1.41796">
        <ele>73.4</ele>
        <time>2021-07-18T15:26:54Z</time>
      </trkpt>
      <trkpt lat="43.34501" lon="-1.41795">
        <ele>73.5</ele>
        <time>2021-07-18T15:26:55Z</time>
      </trkpt>
      <trkpt lat="43.34498" lon="-1.41791">
        <ele>73.6</ele>
        <time>2021-07-18T15:26:57Z</time>
      </trkpt>
      <trkpt lat="43.34497" lon="-1.41789">
        <ele>73.7</ele>
        <time>2021-07-18T15:26:58Z</time>
      </trkpt>
      <trkpt lat="43.34494" lon="-1.41785">
        <ele>73.8</ele>
        <time>2021-07-18T15:27:00Z</time>
      </trkpt>
      <trkpt lat="43.34491" lon="-1.41781">
        <ele>74</ele>
        <time>2021-07-18T15:27:02Z</time>
      </trkpt>
      <trkpt lat="43.34488" lon="-1.41778">
        <ele>74.1</ele>
        <time>2021-07-18T15:27:04Z</time>
      </trkpt>
      <trkpt lat="43.34485" lon="-1.41775">
        <ele>74.2</ele>
        <time>2021-07-18T15:27:06Z</time>
      </trkpt>
      <trkpt lat="43.34482" lon="-1.41772">
        <ele>74.4</ele>
        <time>2021-07-18T15:27:08Z</time>
      </trkpt>
      <trkpt lat="43.34479" lon="-1.41769">
        <ele>74.5</ele>
        <time>2021-07-18T15:27:09Z</time>
      </trkpt>
      <trkpt lat="43.34478" lon="-1.41769">
        <ele>74.5</ele>
        <time>2021-07-18T15:27:10Z</time>
      </trkpt>
      <trkpt lat="43.34475" lon="-1.41765">
        <ele>74.7</ele>
        <time>2021-07-18T15:27:12Z</time>
      </trkpt>
      <trkpt lat="43.34472" lon="-1.41761">
        <ele>74.8</ele>
        <time>2021-07-18T15:27:14Z</time>
      </trkpt>
      <trkpt lat="43.3447" lon="-1.41759">
        <ele>74.9</ele>
        <time>2021-07-18T15:27:15Z</time>
      </trkpt>
      <trkpt lat="43.34468" lon="-1.41755">
        <ele>75</ele>
        <time>2021-07-18T15:27:17Z</time>
      </trkpt>
      <trkpt lat="43.34467" lon="-1.41752">
        <ele>75.1</ele>
        <time>2021-07-18T15:27:18Z</time>
      </trkpt>
      <trkpt lat="43.34464" lon="-1.41748">
        <ele>75.3</ele>
        <time>2021-07-18T15:27:20Z</time>
      </trkpt>
      <trkpt lat="43.34463" lon="-1.41745">
        <ele>75.3</ele>
        <time>2021-07-18T15:27:21Z</time>
      </trkpt>
      <trkpt lat="43.3446" lon="-1.41741">
        <ele>75.5</ele>
        <time>2021-07-18T15:27:23Z</time>
      </trkpt>
      <trkpt lat="43.34458" lon="-1.41737">
        <ele>75.6</ele>
        <time>2021-07-18T15:27:24Z</time>
      </trkpt>
      <trkpt lat="43.34457" lon="-1.41736">
        <ele>75.6</ele>
        <time>2021-07-18T15:27:25Z</time>
      </trkpt>
      <trkpt lat="43.34455" lon="-1.4173">
        <ele>75.8</ele>
        <time>2021-07-18T15:27:27Z</time>
      </trkpt>
      <trkpt lat="43.34454" lon="-1.41726">
        <ele>75.9</ele>
        <time>2021-07-18T15:27:28Z</time>
      </trkpt>
      <trkpt lat="43.34454" lon="-1.41724">
        <ele>76</ele>
        <time>2021-07-18T15:27:29Z</time>
      </trkpt>
      <trkpt lat="43.34452" lon="-1.4172">
        <ele>76.1</ele>
        <time>2021-07-18T15:27:30Z</time>
      </trkpt>
      <trkpt lat="43.34452" lon="-1.41719">
        <ele>76.1</ele>
        <time>2021-07-18T15:27:31Z</time>
      </trkpt>
      <trkpt lat="43.34451" lon="-1.41716">
        <ele>76.2</ele>
        <time>2021-07-18T15:27:32Z</time>
      </trkpt>
      <trkpt lat="43.34449" lon="-1.4171">
        <ele>76.3</ele>
        <time>2021-07-18T15:27:34Z</time>
      </trkpt>
      <trkpt lat="43.34448" lon="-1.41707">
        <ele>76.4</ele>
        <time>2021-07-18T15:27:35Z</time>
      </trkpt>
      <trkpt lat="43.34447" lon="-1.417">
        <ele>76.6</ele>
        <time>2021-07-18T15:27:37Z</time>
      </trkpt>
      <trkpt lat="43.34446" lon="-1.41697">
        <ele>76.6</ele>
        <time>2021-07-18T15:27:38Z</time>
      </trkpt>
      <trkpt lat="43.34444" lon="-1.41691">
        <ele>76.8</ele>
        <time>2021-07-18T15:27:40Z</time>
      </trkpt>
      <trkpt lat="43.34442" lon="-1.41686">
        <ele>76.9</ele>
        <time>2021-07-18T15:27:42Z</time>
      </trkpt>
      <trkpt lat="43.3444" lon="-1.41681">
        <ele>77</ele>
        <time>2021-07-18T15:27:43Z</time>
      </trkpt>
      <trkpt lat="43.34439" lon="-1.4168">
        <ele>77</ele>
        <time>2021-07-18T15:27:44Z</time>
      </trkpt>
      <trkpt lat="43.34437" lon="-1.41674">
        <ele>77</ele>
        <time>2021-07-18T15:27:46Z</time>
      </trkpt>
      <trkpt lat="43.34436" lon="-1.41669">
        <ele>77.1</ele>
        <time>2021-07-18T15:27:47Z</time>
      </trkpt>
      <trkpt lat="43.34436" lon="-1.41668">
        <ele>77.1</ele>
        <time>2021-07-18T15:27:48Z</time>
      </trkpt>
      <trkpt lat="43.34434" lon="-1.41664">
        <ele>77.2</ele>
        <time>2021-07-18T15:27:49Z</time>
      </trkpt>
      <trkpt lat="43.34432" lon="-1.41658">
        <ele>77.3</ele>
        <time>2021-07-18T15:27:51Z</time>
      </trkpt>
      <trkpt lat="43.34431" lon="-1.41654">
        <ele>77.3</ele>
        <time>2021-07-18T15:27:52Z</time>
      </trkpt>
      <trkpt lat="43.34428" lon="-1.41647">
        <ele>77.4</ele>
        <time>2021-07-18T15:27:54Z</time>
      </trkpt>
      <trkpt lat="43.34426" lon="-1.41641">
        <ele>77.5</ele>
        <time>2021-07-18T15:27:56Z</time>
      </trkpt>
      <trkpt lat="43.34425" lon="-1.41637">
        <ele>77.6</ele>
        <time>2021-07-18T15:27:57Z</time>
      </trkpt>
      <trkpt lat="43.34423" lon="-1.41631">
        <ele>77.7</ele>
        <time>2021-07-18T15:27:59Z</time>
      </trkpt>
      <trkpt lat="43.3442" lon="-1.41624">
        <ele>77.8</ele>
        <time>2021-07-18T15:28:01Z</time>
      </trkpt>
      <trkpt lat="43.34418" lon="-1.4162">
        <ele>77.9</ele>
        <time>2021-07-18T15:28:02Z</time>
      </trkpt>
      <trkpt lat="43.34417" lon="-1.41618">
        <ele>77.9</ele>
        <time>2021-07-18T15:28:03Z</time>
      </trkpt>
      <trkpt lat="43.34415" lon="-1.41613">
        <ele>78.1</ele>
        <time>2021-07-18T15:28:05Z</time>
      </trkpt>
      <trkpt lat="43.34413" lon="-1.41606">
        <ele>78.2</ele>
        <time>2021-07-18T15:28:07Z</time>
      </trkpt>
      <trkpt lat="43.34411" lon="-1.416">
        <ele>78.4</ele>
        <time>2021-07-18T15:28:09Z</time>
      </trkpt>
      <trkpt lat="43.3441" lon="-1.41597">
        <ele>78.4</ele>
        <time>2021-07-18T15:28:10Z</time>
      </trkpt>
      <trkpt lat="43.34408" lon="-1.41593">
        <ele>78.5</ele>
        <time>2021-07-18T15:28:12Z</time>
      </trkpt>
      <trkpt lat="43.34406" lon="-1.41589">
        <ele>78.7</ele>
        <time>2021-07-18T15:28:13Z</time>
      </trkpt>
      <trkpt lat="43.34406" lon="-1.41587">
        <ele>78.7</ele>
        <time>2021-07-18T15:28:14Z</time>
      </trkpt>
      <trkpt lat="43.34404" lon="-1.41581">
        <ele>78.8</ele>
        <time>2021-07-18T15:28:16Z</time>
      </trkpt>
      <trkpt lat="43.34402" lon="-1.41576">
        <ele>79</ele>
        <time>2021-07-18T15:28:18Z</time>
      </trkpt>
      <trkpt lat="43.34401" lon="-1.4157">
        <ele>79.1</ele>
        <time>2021-07-18T15:28:20Z</time>
      </trkpt>
      <trkpt lat="43.34399" lon="-1.41565">
        <ele>79.3</ele>
        <time>2021-07-18T15:28:22Z</time>
      </trkpt>
      <trkpt lat="43.34398" lon="-1.41561">
        <ele>79.3</ele>
        <time>2021-07-18T15:28:23Z</time>
      </trkpt>
      <trkpt lat="43.34396" lon="-1.41555">
        <ele>79.5</ele>
        <time>2021-07-18T15:28:25Z</time>
      </trkpt>
      <trkpt lat="43.34394" lon="-1.41549">
        <ele>79.6</ele>
        <time>2021-07-18T15:28:26Z</time>
      </trkpt>
      <trkpt lat="43.34394" lon="-1.41547">
        <ele>79.7</ele>
        <time>2021-07-18T15:28:27Z</time>
      </trkpt>
      <trkpt lat="43.34392" lon="-1.41541">
        <ele>79.8</ele>
        <time>2021-07-18T15:28:29Z</time>
      </trkpt>
      <trkpt lat="43.3439" lon="-1.41537">
        <ele>79.8</ele>
        <time>2021-07-18T15:28:30Z</time>
      </trkpt>
      <trkpt lat="43.34388" lon="-1.4153">
        <ele>79.9</ele>
        <time>2021-07-18T15:28:32Z</time>
      </trkpt>
      <trkpt lat="43.34387" lon="-1.41526">
        <ele>80</ele>
        <time>2021-07-18T15:28:33Z</time>
      </trkpt>
      <trkpt lat="43.34384" lon="-1.41518">
        <ele>80.1</ele>
        <time>2021-07-18T15:28:35Z</time>
      </trkpt>
      <trkpt lat="43.34382" lon="-1.4151">
        <ele>80.3</ele>
        <time>2021-07-18T15:28:37Z</time>
      </trkpt>
      <trkpt lat="43.3438" lon="-1.41503">
        <ele>80.4</ele>
        <time>2021-07-18T15:28:39Z</time>
      </trkpt>
      <trkpt lat="43.34379" lon="-1.41498">
        <ele>80.5</ele>
        <time>2021-07-18T15:28:40Z</time>
      </trkpt>
      <trkpt lat="43.34378" lon="-1.41492">
        <ele>80.6</ele>
        <time>2021-07-18T15:28:42Z</time>
      </trkpt>
      <trkpt lat="43.34377" lon="-1.41487">
        <ele>80.7</ele>
        <time>2021-07-18T15:28:43Z</time>
      </trkpt>
      <trkpt lat="43.34375" lon="-1.4148">
        <ele>80.8</ele>
        <time>2021-07-18T15:28:45Z</time>
      </trkpt>
      <trkpt lat="43.34373" lon="-1.41472">
        <ele>80.9</ele>
        <time>2021-07-18T15:28:47Z</time>
      </trkpt>
      <trkpt lat="43.34373" lon="-1.41469">
        <ele>81</ele>
        <time>2021-07-18T15:28:48Z</time>
      </trkpt>
      <trkpt lat="43.34372" lon="-1.41461">
        <ele>81.1</ele>
        <time>2021-07-18T15:28:50Z</time>
      </trkpt>
      <trkpt lat="43.3437" lon="-1.41453">
        <ele>81.3</ele>
        <time>2021-07-18T15:28:52Z</time>
      </trkpt>
      <trkpt lat="43.3437" lon="-1.41449">
        <ele>81.4</ele>
        <time>2021-07-18T15:28:53Z</time>
      </trkpt>
      <trkpt lat="43.34369" lon="-1.41445">
        <ele>81.4</ele>
        <time>2021-07-18T15:28:54Z</time>
      </trkpt>
      <trkpt lat="43.34368" lon="-1.41439">
        <ele>81.6</ele>
        <time>2021-07-18T15:28:56Z</time>
      </trkpt>
      <trkpt lat="43.34367" lon="-1.41434">
        <ele>81.7</ele>
        <time>2021-07-18T15:28:57Z</time>
      </trkpt>
      <trkpt lat="43.34367" lon="-1.41426">
        <ele>82</ele>
        <time>2021-07-18T15:28:59Z</time>
      </trkpt>
      <trkpt lat="43.34366" lon="-1.41423">
        <ele>82.1</ele>
        <time>2021-07-18T15:29:00Z</time>
      </trkpt>
      <trkpt lat="43.34365" lon="-1.41417">
        <ele>82.3</ele>
        <time>2021-07-18T15:29:02Z</time>
      </trkpt>
      <trkpt lat="43.34365" lon="-1.41414">
        <ele>82.5</ele>
        <time>2021-07-18T15:29:03Z</time>
      </trkpt>
      <trkpt lat="43.34365" lon="-1.41409">
        <ele>82.7</ele>
        <time>2021-07-18T15:29:05Z</time>
      </trkpt>
      <trkpt lat="43.34363" lon="-1.41405">
        <ele>82.9</ele>
        <time>2021-07-18T15:29:07Z</time>
      </trkpt>
      <trkpt lat="43.34363" lon="-1.41403">
        <ele>83.1</ele>
        <time>2021-07-18T15:29:08Z</time>
      </trkpt>
      <trkpt lat="43.34363" lon="-1.41401">
        <ele>83.2</ele>
        <time>2021-07-18T15:29:09Z</time>
      </trkpt>
      <trkpt lat="43.34362" lon="-1.41399">
        <ele>83.3</ele>
        <time>2021-07-18T15:29:10Z</time>
      </trkpt>
      <trkpt lat="43.34361" lon="-1.41394">
        <ele>83.7</ele>
        <time>2021-07-18T15:29:12Z</time>
      </trkpt>
      <trkpt lat="43.34362" lon="-1.4139">
        <ele>84</ele>
        <time>2021-07-18T15:29:14Z</time>
      </trkpt>
      <trkpt lat="43.34362" lon="-1.41387">
        <ele>84.3</ele>
        <time>2021-07-18T15:29:16Z</time>
      </trkpt>
      <trkpt lat="43.34361" lon="-1.41383">
        <ele>84.6</ele>
        <time>2021-07-18T15:29:18Z</time>
      </trkpt>
      <trkpt lat="43.3436" lon="-1.41381">
        <ele>84.7</ele>
        <time>2021-07-18T15:29:19Z</time>
      </trkpt>
      <trkpt lat="43.34359" lon="-1.41377">
        <ele>85</ele>
        <time>2021-07-18T15:29:21Z</time>
      </trkpt>
      <trkpt lat="43.34357" lon="-1.41373">
        <ele>85.4</ele>
        <time>2021-07-18T15:29:22Z</time>
      </trkpt>
      <trkpt lat="43.34357" lon="-1.41372">
        <ele>85.5</ele>
        <time>2021-07-18T15:29:23Z</time>
      </trkpt>
      <trkpt lat="43.34356" lon="-1.4137">
        <ele>85.7</ele>
        <time>2021-07-18T15:29:24Z</time>
      </trkpt>
      <trkpt lat="43.34354" lon="-1.41367">
        <ele>86.1</ele>
        <time>2021-07-18T15:29:26Z</time>
      </trkpt>
      <trkpt lat="43.34352" lon="-1.41363">
        <ele>86.4</ele>
        <time>2021-07-18T15:29:28Z</time>
      </trkpt>
      <trkpt lat="43.34352" lon="-1.41361">
        <ele>86.6</ele>
        <time>2021-07-18T15:29:29Z</time>
      </trkpt>
      <trkpt lat="43.34351" lon="-1.41359">
        <ele>86.8</ele>
        <time>2021-07-18T15:29:30Z</time>
      </trkpt>
      <trkpt lat="43.34349" lon="-1.41355">
        <ele>87.1</ele>
        <time>2021-07-18T15:29:32Z</time>
      </trkpt>
      <trkpt lat="43.34348" lon="-1.41353">
        <ele>87.3</ele>
        <time>2021-07-18T15:29:33Z</time>
      </trkpt>
      <trkpt lat="43.34348" lon="-1.41351">
        <ele>87.5</ele>
        <time>2021-07-18T15:29:34Z</time>
      </trkpt>
      <trkpt lat="43.34347" lon="-1.41349">
        <ele>87.7</ele>
        <time>2021-07-18T15:29:35Z</time>
      </trkpt>
      <trkpt lat="43.34345" lon="-1.41346">
        <ele>88</ele>
        <time>2021-07-18T15:29:37Z</time>
      </trkpt>
      <trkpt lat="43.34344" lon="-1.41342">
        <ele>88.4</ele>
        <time>2021-07-18T15:29:39Z</time>
      </trkpt>
      <trkpt lat="43.34343" lon="-1.41338">
        <ele>88.7</ele>
        <time>2021-07-18T15:29:41Z</time>
      </trkpt>
      <trkpt lat="43.34342" lon="-1.41336">
        <ele>88.9</ele>
        <time>2021-07-18T15:29:42Z</time>
      </trkpt>
      <trkpt lat="43.34341" lon="-1.41333">
        <ele>89.2</ele>
        <time>2021-07-18T15:29:44Z</time>
      </trkpt>
      <trkpt lat="43.34339" lon="-1.41331">
        <ele>89.5</ele>
        <time>2021-07-18T15:29:46Z</time>
      </trkpt>
      <trkpt lat="43.34337" lon="-1.41328">
        <ele>89.8</ele>
        <time>2021-07-18T15:29:48Z</time>
      </trkpt>
      <trkpt lat="43.34336" lon="-1.41326">
        <ele>90</ele>
        <time>2021-07-18T15:29:49Z</time>
      </trkpt>
      <trkpt lat="43.34335" lon="-1.41323">
        <ele>90.3</ele>
        <time>2021-07-18T15:29:51Z</time>
      </trkpt>
      <trkpt lat="43.34334" lon="-1.41322">
        <ele>90.5</ele>
        <time>2021-07-18T15:29:52Z</time>
      </trkpt>
      <trkpt lat="43.34332" lon="-1.41318">
        <ele>90.9</ele>
        <time>2021-07-18T15:29:54Z</time>
      </trkpt>
      <trkpt lat="43.34331" lon="-1.41314">
        <ele>91.2</ele>
        <time>2021-07-18T15:29:56Z</time>
      </trkpt>
      <trkpt lat="43.3433" lon="-1.41312">
        <ele>91.4</ele>
        <time>2021-07-18T15:29:57Z</time>
      </trkpt>
      <trkpt lat="43.34329" lon="-1.41309">
        <ele>91.8</ele>
        <time>2021-07-18T15:29:59Z</time>
      </trkpt>
      <trkpt lat="43.34327" lon="-1.41305">
        <ele>92.2</ele>
        <time>2021-07-18T15:30:01Z</time>
      </trkpt>
      <trkpt lat="43.34327" lon="-1.41305">
        <ele>92.3</ele>
        <time>2021-07-18T15:30:02Z</time>
      </trkpt>
      <trkpt lat="43.34326" lon="-1.41301">
        <ele>92.7</ele>
        <time>2021-07-18T15:30:04Z</time>
      </trkpt>
      <trkpt lat="43.34325" lon="-1.41297">
        <ele>93</ele>
        <time>2021-07-18T15:30:06Z</time>
      </trkpt>
      <trkpt lat="43.34323" lon="-1.41294">
        <ele>93.4</ele>
        <time>2021-07-18T15:30:08Z</time>
      </trkpt>
      <trkpt lat="43.34322" lon="-1.41293">
        <ele>93.6</ele>
        <time>2021-07-18T15:30:09Z</time>
      </trkpt>
      <trkpt lat="43.3432" lon="-1.4129">
        <ele>93.9</ele>
        <time>2021-07-18T15:30:11Z</time>
      </trkpt>
      <trkpt lat="43.34318" lon="-1.41287">
        <ele>94.3</ele>
        <time>2021-07-18T15:30:13Z</time>
      </trkpt>
      <trkpt lat="43.34316" lon="-1.41283">
        <ele>94.7</ele>
        <time>2021-07-18T15:30:15Z</time>
      </trkpt>
      <trkpt lat="43.34315" lon="-1.41282">
        <ele>94.8</ele>
        <time>2021-07-18T15:30:16Z</time>
      </trkpt>
      <trkpt lat="43.34314" lon="-1.4128">
        <ele>95</ele>
        <time>2021-07-18T15:30:17Z</time>
      </trkpt>
      <trkpt lat="43.34312" lon="-1.41277">
        <ele>95.3</ele>
        <time>2021-07-18T15:30:19Z</time>
      </trkpt>
      <trkpt lat="43.34311" lon="-1.41275">
        <ele>95.5</ele>
        <time>2021-07-18T15:30:20Z</time>
      </trkpt>
      <trkpt lat="43.34309" lon="-1.41271">
        <ele>95.8</ele>
        <time>2021-07-18T15:30:22Z</time>
      </trkpt>
      <trkpt lat="43.34306" lon="-1.41268">
        <ele>96.1</ele>
        <time>2021-07-18T15:30:24Z</time>
      </trkpt>
      <trkpt lat="43.34303" lon="-1.41264">
        <ele>96.3</ele>
        <time>2021-07-18T15:30:26Z</time>
      </trkpt>
      <trkpt lat="43.34301" lon="-1.41261">
        <ele>96.5</ele>
        <time>2021-07-18T15:30:27Z</time>
      </trkpt>
      <trkpt lat="43.34301" lon="-1.41261">
        <ele>96.5</ele>
        <time>2021-07-18T15:30:28Z</time>
      </trkpt>
      <trkpt lat="43.34298" lon="-1.41257">
        <ele>96.7</ele>
        <time>2021-07-18T15:30:30Z</time>
      </trkpt>
      <trkpt lat="43.34296" lon="-1.41254">
        <ele>96.9</ele>
        <time>2021-07-18T15:30:31Z</time>
      </trkpt>
      <trkpt lat="43.34295" lon="-1.41253">
        <ele>96.9</ele>
        <time>2021-07-18T15:30:32Z</time>
      </trkpt>
      <trkpt lat="43.34291" lon="-1.41249">
        <ele>97.1</ele>
        <time>2021-07-18T15:30:34Z</time>
      </trkpt>
      <trkpt lat="43.34288" lon="-1.41243">
        <ele>97.3</ele>
        <time>2021-07-18T15:30:36Z</time>
      </trkpt>
      <trkpt lat="43.34286" lon="-1.4124">
        <ele>97.3</ele>
        <time>2021-07-18T15:30:37Z</time>
      </trkpt>
      <trkpt lat="43.34283" lon="-1.41236">
        <ele>97.5</ele>
        <time>2021-07-18T15:30:39Z</time>
      </trkpt>
      <trkpt lat="43.34281" lon="-1.41233">
        <ele>97.5</ele>
        <time>2021-07-18T15:30:40Z</time>
      </trkpt>
      <trkpt lat="43.34278" lon="-1.4123">
        <ele>97.6</ele>
        <time>2021-07-18T15:30:41Z</time>
      </trkpt>
      <trkpt lat="43.34277" lon="-1.41229">
        <ele>97.7</ele>
        <time>2021-07-18T15:30:42Z</time>
      </trkpt>
      <trkpt lat="43.34275" lon="-1.41227">
        <ele>97.7</ele>
        <time>2021-07-18T15:30:43Z</time>
      </trkpt>
      <trkpt lat="43.34271" lon="-1.41222">
        <ele>97.8</ele>
        <time>2021-07-18T15:30:45Z</time>
      </trkpt>
      <trkpt lat="43.34267" lon="-1.41217">
        <ele>98</ele>
        <time>2021-07-18T15:30:47Z</time>
      </trkpt>
      <trkpt lat="43.34262" lon="-1.41212">
        <ele>98.1</ele>
        <time>2021-07-18T15:30:49Z</time>
      </trkpt>
      <trkpt lat="43.34259" lon="-1.41208">
        <ele>98.2</ele>
        <time>2021-07-18T15:30:51Z</time>
      </trkpt>
      <trkpt lat="43.34257" lon="-1.41206">
        <ele>98.3</ele>
        <time>2021-07-18T15:30:52Z</time>
      </trkpt>
      <trkpt lat="43.34254" lon="-1.41203">
        <ele>98.4</ele>
        <time>2021-07-18T15:30:53Z</time>
      </trkpt>
      <trkpt lat="43.34252" lon="-1.41201">
        <ele>98.5</ele>
        <time>2021-07-18T15:30:54Z</time>
      </trkpt>
      <trkpt lat="43.34248" lon="-1.41197">
        <ele>98.6</ele>
        <time>2021-07-18T15:30:56Z</time>
      </trkpt>
      <trkpt lat="43.34244" lon="-1.41194">
        <ele>98.8</ele>
        <time>2021-07-18T15:30:58Z</time>
      </trkpt>
      <trkpt lat="43.3424" lon="-1.4119">
        <ele>99</ele>
        <time>2021-07-18T15:31:00Z</time>
      </trkpt>
      <trkpt lat="43.34236" lon="-1.41186">
        <ele>99.2</ele>
        <time>2021-07-18T15:31:02Z</time>
      </trkpt>
      <trkpt lat="43.34234" lon="-1.41185">
        <ele>99.3</ele>
        <time>2021-07-18T15:31:03Z</time>
      </trkpt>
      <trkpt lat="43.34231" lon="-1.41182">
        <ele>99.5</ele>
        <time>2021-07-18T15:31:05Z</time>
      </trkpt>
      <trkpt lat="43.34229" lon="-1.4118">
        <ele>99.6</ele>
        <time>2021-07-18T15:31:06Z</time>
      </trkpt>
      <trkpt lat="43.34225" lon="-1.41177">
        <ele>99.8</ele>
        <time>2021-07-18T15:31:08Z</time>
      </trkpt>
      <trkpt lat="43.34222" lon="-1.41174">
        <ele>100</ele>
        <time>2021-07-18T15:31:10Z</time>
      </trkpt>
      <trkpt lat="43.34221" lon="-1.41173">
        <ele>100.1</ele>
        <time>2021-07-18T15:31:11Z</time>
      </trkpt>
      <trkpt lat="43.34218" lon="-1.41171">
        <ele>100.3</ele>
        <time>2021-07-18T15:31:13Z</time>
      </trkpt>
      <trkpt lat="43.34215" lon="-1.4117">
        <ele>100.5</ele>
        <time>2021-07-18T15:31:14Z</time>
      </trkpt>
      <trkpt lat="43.34214" lon="-1.41169">
        <ele>100.5</ele>
        <time>2021-07-18T15:31:15Z</time>
      </trkpt>
      <trkpt lat="43.34211" lon="-1.41167">
        <ele>100.7</ele>
        <time>2021-07-18T15:31:17Z</time>
      </trkpt>
      <trkpt lat="43.34208" lon="-1.41164">
        <ele>100.9</ele>
        <time>2021-07-18T15:31:19Z</time>
      </trkpt>
      <trkpt lat="43.34205" lon="-1.41162">
        <ele>101.1</ele>
        <time>2021-07-18T15:31:20Z</time>
      </trkpt>
      <trkpt lat="43.34204" lon="-1.41161">
        <ele>101.1</ele>
        <time>2021-07-18T15:31:21Z</time>
      </trkpt>
      <trkpt lat="43.34203" lon="-1.4116">
        <ele>101.2</ele>
        <time>2021-07-18T15:31:22Z</time>
      </trkpt>
      <trkpt lat="43.34199" lon="-1.41157">
        <ele>101.4</ele>
        <time>2021-07-18T15:31:24Z</time>
      </trkpt>
      <trkpt lat="43.34197" lon="-1.41154">
        <ele>101.6</ele>
        <time>2021-07-18T15:31:25Z</time>
      </trkpt>
      <trkpt lat="43.34196" lon="-1.41154">
        <ele>101.6</ele>
        <time>2021-07-18T15:31:26Z</time>
      </trkpt>
      <trkpt lat="43.34192" lon="-1.41151">
        <ele>101.8</ele>
        <time>2021-07-18T15:31:28Z</time>
      </trkpt>
      <trkpt lat="43.34188" lon="-1.41148">
        <ele>102</ele>
        <time>2021-07-18T15:31:30Z</time>
      </trkpt>
      <trkpt lat="43.34184" lon="-1.41145">
        <ele>102.2</ele>
        <time>2021-07-18T15:31:32Z</time>
      </trkpt>
      <trkpt lat="43.3418" lon="-1.41142">
        <ele>102.4</ele>
        <time>2021-07-18T15:31:34Z</time>
      </trkpt>
      <trkpt lat="43.34178" lon="-1.41141">
        <ele>102.5</ele>
        <time>2021-07-18T15:31:35Z</time>
      </trkpt>
      <trkpt lat="43.34174" lon="-1.41138">
        <ele>102.6</ele>
        <time>2021-07-18T15:31:37Z</time>
      </trkpt>
      <trkpt lat="43.34172" lon="-1.41137">
        <ele>102.7</ele>
        <time>2021-07-18T15:31:38Z</time>
      </trkpt>
      <trkpt lat="43.3417" lon="-1.41135">
        <ele>102.9</ele>
        <time>2021-07-18T15:31:40Z</time>
      </trkpt>
      <trkpt lat="43.34167" lon="-1.41133">
        <ele>103</ele>
        <time>2021-07-18T15:31:41Z</time>
      </trkpt>
      <trkpt lat="43.34164" lon="-1.4113">
        <ele>103.2</ele>
        <time>2021-07-18T15:31:43Z</time>
      </trkpt>
      <trkpt lat="43.34161" lon="-1.41128">
        <ele>103.3</ele>
        <time>2021-07-18T15:31:44Z</time>
      </trkpt>
      <trkpt lat="43.3416" lon="-1.41128">
        <ele>103.3</ele>
        <time>2021-07-18T15:31:45Z</time>
      </trkpt>
      <trkpt lat="43.34157" lon="-1.41126">
        <ele>103.4</ele>
        <time>2021-07-18T15:31:46Z</time>
      </trkpt>
      <trkpt lat="43.34156" lon="-1.41125">
        <ele>103.4</ele>
        <time>2021-07-18T15:31:47Z</time>
      </trkpt>
      <trkpt lat="43.34152" lon="-1.41123">
        <ele>103.6</ele>
        <time>2021-07-18T15:31:49Z</time>
      </trkpt>
      <trkpt lat="43.34151" lon="-1.41121">
        <ele>103.7</ele>
        <time>2021-07-18T15:31:50Z</time>
      </trkpt>
      <trkpt lat="43.34147" lon="-1.41119">
        <ele>103.8</ele>
        <time>2021-07-18T15:31:52Z</time>
      </trkpt>
      <trkpt lat="43.34145" lon="-1.41117">
        <ele>103.9</ele>
        <time>2021-07-18T15:31:53Z</time>
      </trkpt>
      <trkpt lat="43.3414" lon="-1.41115">
        <ele>104</ele>
        <time>2021-07-18T15:31:55Z</time>
      </trkpt>
      <trkpt lat="43.34138" lon="-1.41114">
        <ele>104</ele>
        <time>2021-07-18T15:31:56Z</time>
      </trkpt>
      <trkpt lat="43.34135" lon="-1.41112">
        <ele>104.1</ele>
        <time>2021-07-18T15:31:58Z</time>
      </trkpt>
      <trkpt lat="43.34132" lon="-1.41111">
        <ele>104.2</ele>
        <time>2021-07-18T15:31:59Z</time>
      </trkpt>
      <trkpt lat="43.3413" lon="-1.4111">
        <ele>104.3</ele>
        <time>2021-07-18T15:32:00Z</time>
      </trkpt>
      <trkpt lat="43.34127" lon="-1.41109">
        <ele>104.3</ele>
        <time>2021-07-18T15:32:02Z</time>
      </trkpt>
      <trkpt lat="43.34124" lon="-1.41107">
        <ele>104.4</ele>
        <time>2021-07-18T15:32:03Z</time>
      </trkpt>
      <trkpt lat="43.3412" lon="-1.41103">
        <ele>104.5</ele>
        <time>2021-07-18T15:32:05Z</time>
      </trkpt>
      <trkpt lat="43.34117" lon="-1.41102">
        <ele>104.6</ele>
        <time>2021-07-18T15:32:06Z</time>
      </trkpt>
      <trkpt lat="43.34113" lon="-1.41098">
        <ele>104.7</ele>
        <time>2021-07-18T15:32:08Z</time>
      </trkpt>
      <trkpt lat="43.34111" lon="-1.41096">
        <ele>104.7</ele>
        <time>2021-07-18T15:32:09Z</time>
      </trkpt>
      <trkpt lat="43.34107" lon="-1.41093">
        <ele>104.9</ele>
        <time>2021-07-18T15:32:11Z</time>
      </trkpt>
      <trkpt lat="43.34104" lon="-1.4109">
        <ele>105</ele>
        <time>2021-07-18T15:32:12Z</time>
      </trkpt>
      <trkpt lat="43.34103" lon="-1.4109">
        <ele>105</ele>
        <time>2021-07-18T15:32:13Z</time>
      </trkpt>
      <trkpt lat="43.34099" lon="-1.41085">
        <ele>105.2</ele>
        <time>2021-07-18T15:32:15Z</time>
      </trkpt>
      <trkpt lat="43.34095" lon="-1.41081">
        <ele>105.3</ele>
        <time>2021-07-18T15:32:17Z</time>
      </trkpt>
      <trkpt lat="43.34094" lon="-1.41079">
        <ele>105.4</ele>
        <time>2021-07-18T15:32:18Z</time>
      </trkpt>
      <trkpt lat="43.3409" lon="-1.41075">
        <ele>105.5</ele>
        <time>2021-07-18T15:32:20Z</time>
      </trkpt>
      <trkpt lat="43.34086" lon="-1.41071">
        <ele>105.7</ele>
        <time>2021-07-18T15:32:22Z</time>
      </trkpt>
      <trkpt lat="43.34084" lon="-1.41067">
        <ele>105.8</ele>
        <time>2021-07-18T15:32:23Z</time>
      </trkpt>
      <trkpt lat="43.34083" lon="-1.41066">
        <ele>105.8</ele>
        <time>2021-07-18T15:32:24Z</time>
      </trkpt>
      <trkpt lat="43.3408" lon="-1.41063">
        <ele>105.9</ele>
        <time>2021-07-18T15:32:25Z</time>
      </trkpt>
      <trkpt lat="43.34079" lon="-1.41062">
        <ele>105.9</ele>
        <time>2021-07-18T15:32:26Z</time>
      </trkpt>
      <trkpt lat="43.34075" lon="-1.41057">
        <ele>106</ele>
        <time>2021-07-18T15:32:28Z</time>
      </trkpt>
      <trkpt lat="43.3407" lon="-1.41052">
        <ele>106.1</ele>
        <time>2021-07-18T15:32:30Z</time>
      </trkpt>
      <trkpt lat="43.34068" lon="-1.41049">
        <ele>106.2</ele>
        <time>2021-07-18T15:32:31Z</time>
      </trkpt>
      <trkpt lat="43.34062" lon="-1.41044">
        <ele>106.2</ele>
        <time>2021-07-18T15:32:33Z</time>
      </trkpt>
      <trkpt lat="43.34057" lon="-1.41039">
        <ele>106.3</ele>
        <time>2021-07-18T15:32:35Z</time>
      </trkpt>
      <trkpt lat="43.34055" lon="-1.41036">
        <ele>106.4</ele>
        <time>2021-07-18T15:32:36Z</time>
      </trkpt>
      <trkpt lat="43.34052" lon="-1.41034">
        <ele>106.4</ele>
        <time>2021-07-18T15:32:37Z</time>
      </trkpt>
      <trkpt lat="43.3405" lon="-1.41031">
        <ele>106.5</ele>
        <time>2021-07-18T15:32:38Z</time>
      </trkpt>
      <trkpt lat="43.34045" lon="-1.41026">
        <ele>106.6</ele>
        <time>2021-07-18T15:32:40Z</time>
      </trkpt>
      <trkpt lat="43.34042" lon="-1.41022">
        <ele>106.7</ele>
        <time>2021-07-18T15:32:41Z</time>
      </trkpt>
      <trkpt lat="43.34038" lon="-1.41018">
        <ele>106.9</ele>
        <time>2021-07-18T15:32:43Z</time>
      </trkpt>
      <trkpt lat="43.34034" lon="-1.41013">
        <ele>107.1</ele>
        <time>2021-07-18T15:32:45Z</time>
      </trkpt>
      <trkpt lat="43.34032" lon="-1.4101">
        <ele>107.2</ele>
        <time>2021-07-18T15:32:46Z</time>
      </trkpt>
      <trkpt lat="43.34028" lon="-1.41005">
        <ele>107.4</ele>
        <time>2021-07-18T15:32:48Z</time>
      </trkpt>
      <trkpt lat="43.34025" lon="-1.41001">
        <ele>107.6</ele>
        <time>2021-07-18T15:32:49Z</time>
      </trkpt>
      <trkpt lat="43.34024" lon="-1.41">
        <ele>107.7</ele>
        <time>2021-07-18T15:32:50Z</time>
      </trkpt>
      <trkpt lat="43.3402" lon="-1.40995">
        <ele>107.9</ele>
        <time>2021-07-18T15:32:52Z</time>
      </trkpt>
      <trkpt lat="43.34018" lon="-1.40993">
        <ele>108.1</ele>
        <time>2021-07-18T15:32:53Z</time>
      </trkpt>
      <trkpt lat="43.34014" lon="-1.40988">
        <ele>108.4</ele>
        <time>2021-07-18T15:32:55Z</time>
      </trkpt>
      <trkpt lat="43.34012" lon="-1.40985">
        <ele>108.5</ele>
        <time>2021-07-18T15:32:56Z</time>
      </trkpt>
      <trkpt lat="43.3401" lon="-1.40983">
        <ele>108.7</ele>
        <time>2021-07-18T15:32:57Z</time>
      </trkpt>
      <trkpt lat="43.34007" lon="-1.40977">
        <ele>109</ele>
        <time>2021-07-18T15:32:59Z</time>
      </trkpt>
      <trkpt lat="43.34005" lon="-1.40974">
        <ele>109.1</ele>
        <time>2021-07-18T15:33:00Z</time>
      </trkpt>
      <trkpt lat="43.34002" lon="-1.4097">
        <ele>109.4</ele>
        <time>2021-07-18T15:33:02Z</time>
      </trkpt>
      <trkpt lat="43.34001" lon="-1.40968">
        <ele>109.5</ele>
        <time>2021-07-18T15:33:03Z</time>
      </trkpt>
      <trkpt lat="43.34" lon="-1.40967">
        <ele>109.6</ele>
        <time>2021-07-18T15:33:04Z</time>
      </trkpt>
      <trkpt lat="43.33999" lon="-1.40965">
        <ele>109.7</ele>
        <time>2021-07-18T15:33:05Z</time>
      </trkpt>
      <trkpt lat="43.33998" lon="-1.40962">
        <ele>109.8</ele>
        <time>2021-07-18T15:33:06Z</time>
      </trkpt>
      <trkpt lat="43.33996" lon="-1.40958">
        <ele>110</ele>
        <time>2021-07-18T15:33:08Z</time>
      </trkpt>
      <trkpt lat="43.33994" lon="-1.40955">
        <ele>110.2</ele>
        <time>2021-07-18T15:33:09Z</time>
      </trkpt>
      <trkpt lat="43.33994" lon="-1.40954">
        <ele>110.2</ele>
        <time>2021-07-18T15:33:10Z</time>
      </trkpt>
      <trkpt lat="43.33992" lon="-1.40952">
        <ele>110.3</ele>
        <time>2021-07-18T15:33:11Z</time>
      </trkpt>
      <trkpt lat="43.33989" lon="-1.40948">
        <ele>110.5</ele>
        <time>2021-07-18T15:33:13Z</time>
      </trkpt>
      <trkpt lat="43.33987" lon="-1.40946">
        <ele>110.6</ele>
        <time>2021-07-18T15:33:14Z</time>
      </trkpt>
      <trkpt lat="43.33986" lon="-1.40945">
        <ele>110.7</ele>
        <time>2021-07-18T15:33:15Z</time>
      </trkpt>
      <trkpt lat="43.33984" lon="-1.40941">
        <ele>110.8</ele>
        <time>2021-07-18T15:33:17Z</time>
      </trkpt>
      <trkpt lat="43.33981" lon="-1.40936">
        <ele>110.9</ele>
        <time>2021-07-18T15:33:19Z</time>
      </trkpt>
      <trkpt lat="43.33979" lon="-1.40934">
        <ele>111</ele>
        <time>2021-07-18T15:33:20Z</time>
      </trkpt>
      <trkpt lat="43.33976" lon="-1.40928">
        <ele>111</ele>
        <time>2021-07-18T15:33:22Z</time>
      </trkpt>
      <trkpt lat="43.33975" lon="-1.40926">
        <ele>111</ele>
        <time>2021-07-18T15:33:23Z</time>
      </trkpt>
      <trkpt lat="43.33975" lon="-1.40924">
        <ele>111</ele>
        <time>2021-07-18T15:33:25Z</time>
      </trkpt>
      <trkpt lat="43.33976" lon="-1.40924">
        <ele>111</ele>
        <time>2021-07-18T15:33:26Z</time>
      </trkpt>
      <trkpt lat="43.33977" lon="-1.40924">
        <ele>111</ele>
        <time>2021-07-18T15:33:27Z</time>
      </trkpt>
      <trkpt lat="43.33977" lon="-1.40924">
        <ele>111</ele>
        <time>2021-07-18T15:33:28Z</time>
      </trkpt>
      <trkpt lat="43.33977" lon="-1.40925">
        <ele>111</ele>
        <time>2021-07-18T15:33:30Z</time>
      </trkpt>
      <trkpt lat="43.33977" lon="-1.40925">
        <ele>111</ele>
        <time>2021-07-18T15:33:31Z</time>
      </trkpt>
      <trkpt lat="43.33977" lon="-1.40924">
        <ele>111</ele>
        <time>2021-07-18T15:33:32Z</time>
      </trkpt>
      <trkpt lat="43.33977" lon="-1.40924">
        <ele>111</ele>
        <time>2021-07-18T15:33:34Z</time>
      </trkpt>
      <trkpt lat="43.33977" lon="-1.40923">
        <ele>111</ele>
        <time>2021-07-18T15:33:36Z</time>
      </trkpt>
      <trkpt lat="43.33977" lon="-1.40923">
        <ele>111</ele>
        <time>2021-07-18T15:33:38Z</time>
      </trkpt>
      <trkpt lat="43.33973" lon="-1.40918">
        <ele>110.9</ele>
        <time>2021-07-18T15:34:12Z</time>
      </trkpt>
      <trkpt lat="43.3397" lon="-1.40914">
        <ele>110.7</ele>
        <time>2021-07-18T15:34:14Z</time>
      </trkpt>
      <trkpt lat="43.33968" lon="-1.40912">
        <ele>110.6</ele>
        <time>2021-07-18T15:34:15Z</time>
      </trkpt>
      <trkpt lat="43.33966" lon="-1.40909">
        <ele>110.5</ele>
        <time>2021-07-18T15:34:16Z</time>
      </trkpt>
      <trkpt lat="43.33961" lon="-1.40904">
        <ele>110.1</ele>
        <time>2021-07-18T15:34:18Z</time>
      </trkpt>
      <trkpt lat="43.33951" lon="-1.40898">
        <ele>109.2</ele>
        <time>2021-07-18T15:34:20Z</time>
      </trkpt>
      <trkpt lat="43.33939" lon="-1.40892">
        <ele>108.2</ele>
        <time>2021-07-18T15:34:22Z</time>
      </trkpt>
      <trkpt lat="43.33932" lon="-1.40889">
        <ele>107.7</ele>
        <time>2021-07-18T15:34:23Z</time>
      </trkpt>
      <trkpt lat="43.33924" lon="-1.40886">
        <ele>106.6</ele>
        <time>2021-07-18T15:34:24Z</time>
      </trkpt>
      <trkpt lat="43.33908" lon="-1.40877">
        <ele>104.2</ele>
        <time>2021-07-18T15:34:26Z</time>
      </trkpt>
      <trkpt lat="43.3389" lon="-1.40864">
        <ele>101.4</ele>
        <time>2021-07-18T15:34:28Z</time>
      </trkpt>
      <trkpt lat="43.33881" lon="-1.40857">
        <ele>100.1</ele>
        <time>2021-07-18T15:34:29Z</time>
      </trkpt>
      <trkpt lat="43.33862" lon="-1.40847">
        <ele>97.8</ele>
        <time>2021-07-18T15:34:31Z</time>
      </trkpt>
      <trkpt lat="43.33851" lon="-1.40845">
        <ele>96.9</ele>
        <time>2021-07-18T15:34:32Z</time>
      </trkpt>
      <trkpt lat="43.33841" lon="-1.40844">
        <ele>96.2</ele>
        <time>2021-07-18T15:34:33Z</time>
      </trkpt>
      <trkpt lat="43.3382" lon="-1.40845">
        <ele>95</ele>
        <time>2021-07-18T15:34:35Z</time>
      </trkpt>
      <trkpt lat="43.33799" lon="-1.40848">
        <ele>94.3</ele>
        <time>2021-07-18T15:34:37Z</time>
      </trkpt>
      <trkpt lat="43.33789" lon="-1.4085">
        <ele>94.1</ele>
        <time>2021-07-18T15:34:38Z</time>
      </trkpt>
      <trkpt lat="43.3377" lon="-1.40853">
        <ele>93.6</ele>
        <time>2021-07-18T15:34:40Z</time>
      </trkpt>
      <trkpt lat="43.33752" lon="-1.4085">
        <ele>93.1</ele>
        <time>2021-07-18T15:34:42Z</time>
      </trkpt>
      <trkpt lat="43.33744" lon="-1.40849">
        <ele>92.8</ele>
        <time>2021-07-18T15:34:43Z</time>
      </trkpt>
      <trkpt lat="43.33726" lon="-1.40844">
        <ele>92.1</ele>
        <time>2021-07-18T15:34:45Z</time>
      </trkpt>
      <trkpt lat="43.33717" lon="-1.40842">
        <ele>91.7</ele>
        <time>2021-07-18T15:34:46Z</time>
      </trkpt>
      <trkpt lat="43.337" lon="-1.40836">
        <ele>91</ele>
        <time>2021-07-18T15:34:48Z</time>
      </trkpt>
      <trkpt lat="43.33683" lon="-1.40828">
        <ele>89.9</ele>
        <time>2021-07-18T15:34:50Z</time>
      </trkpt>
      <trkpt lat="43.33675" lon="-1.40823">
        <ele>89.1</ele>
        <time>2021-07-18T15:34:51Z</time>
      </trkpt>
      <trkpt lat="43.33656" lon="-1.40814">
        <ele>87.1</ele>
        <time>2021-07-18T15:34:53Z</time>
      </trkpt>
      <trkpt lat="43.33636" lon="-1.40815">
        <ele>85.3</ele>
        <time>2021-07-18T15:34:55Z</time>
      </trkpt>
      <trkpt lat="43.33626" lon="-1.40817">
        <ele>84.5</ele>
        <time>2021-07-18T15:34:56Z</time>
      </trkpt>
      <trkpt lat="43.33606" lon="-1.40813">
        <ele>83.2</ele>
        <time>2021-07-18T15:34:58Z</time>
      </trkpt>
      <trkpt lat="43.33588" lon="-1.40802">
        <ele>82.2</ele>
        <time>2021-07-18T15:35:00Z</time>
      </trkpt>
      <trkpt lat="43.33578" lon="-1.40796">
        <ele>81.9</ele>
        <time>2021-07-18T15:35:01Z</time>
      </trkpt>
      <trkpt lat="43.33562" lon="-1.40783">
        <ele>81.3</ele>
        <time>2021-07-18T15:35:03Z</time>
      </trkpt>
      <trkpt lat="43.33554" lon="-1.40776">
        <ele>81</ele>
        <time>2021-07-18T15:35:04Z</time>
      </trkpt>
      <trkpt lat="43.3354" lon="-1.40761">
        <ele>80.4</ele>
        <time>2021-07-18T15:35:06Z</time>
      </trkpt>
      <trkpt lat="43.33532" lon="-1.40753">
        <ele>80.2</ele>
        <time>2021-07-18T15:35:07Z</time>
      </trkpt>
      <trkpt lat="43.33518" lon="-1.4074">
        <ele>80</ele>
        <time>2021-07-18T15:35:09Z</time>
      </trkpt>
      <trkpt lat="43.3351" lon="-1.40734">
        <ele>79.9</ele>
        <time>2021-07-18T15:35:10Z</time>
      </trkpt>
      <trkpt lat="43.33503" lon="-1.40728">
        <ele>79.9</ele>
        <time>2021-07-18T15:35:11Z</time>
      </trkpt>
      <trkpt lat="43.33492" lon="-1.40713">
        <ele>79.8</ele>
        <time>2021-07-18T15:35:13Z</time>
      </trkpt>
      <trkpt lat="43.33482" lon="-1.40698">
        <ele>79.7</ele>
        <time>2021-07-18T15:35:15Z</time>
      </trkpt>
      <trkpt lat="43.33478" lon="-1.40692">
        <ele>79.7</ele>
        <time>2021-07-18T15:35:16Z</time>
      </trkpt>
      <trkpt lat="43.33474" lon="-1.40688">
        <ele>79.6</ele>
        <time>2021-07-18T15:35:18Z</time>
      </trkpt>
      <trkpt lat="43.33474" lon="-1.40688">
        <ele>79.6</ele>
        <time>2021-07-18T15:35:20Z</time>
      </trkpt>
      <trkpt lat="43.33476" lon="-1.40689">
        <ele>79.6</ele>
        <time>2021-07-18T15:35:22Z</time>
      </trkpt>
      <trkpt lat="43.33475" lon="-1.40689">
        <ele>79.6</ele>
        <time>2021-07-18T15:35:23Z</time>
      </trkpt>
      <trkpt lat="43.33474" lon="-1.40687">
        <ele>79.6</ele>
        <time>2021-07-18T15:35:25Z</time>
      </trkpt>
      <trkpt lat="43.33471" lon="-1.40684">
        <ele>79.6</ele>
        <time>2021-07-18T15:35:27Z</time>
      </trkpt>
      <trkpt lat="43.33467" lon="-1.40683">
        <ele>79.5</ele>
        <time>2021-07-18T15:35:28Z</time>
      </trkpt>
      <trkpt lat="43.33466" lon="-1.40682">
        <ele>79.5</ele>
        <time>2021-07-18T15:35:29Z</time>
      </trkpt>
      <trkpt lat="43.33461" lon="-1.40682">
        <ele>79.5</ele>
        <time>2021-07-18T15:35:30Z</time>
      </trkpt>
      <trkpt lat="43.33458" lon="-1.40682">
        <ele>79.5</ele>
        <time>2021-07-18T15:35:32Z</time>
      </trkpt>
      <trkpt lat="43.33453" lon="-1.40682">
        <ele>79.4</ele>
        <time>2021-07-18T15:35:33Z</time>
      </trkpt>
      <trkpt lat="43.33449" lon="-1.40684">
        <ele>79.4</ele>
        <time>2021-07-18T15:35:34Z</time>
      </trkpt>
      <trkpt lat="43.33442" lon="-1.40686">
        <ele>79.3</ele>
        <time>2021-07-18T15:35:36Z</time>
      </trkpt>
      <trkpt lat="43.33436" lon="-1.40688">
        <ele>79.3</ele>
        <time>2021-07-18T15:35:37Z</time>
      </trkpt>
      <trkpt lat="43.33432" lon="-1.40689">
        <ele>79.3</ele>
        <time>2021-07-18T15:35:38Z</time>
      </trkpt>
      <trkpt lat="43.33426" lon="-1.40692">
        <ele>79.3</ele>
        <time>2021-07-18T15:35:40Z</time>
      </trkpt>
      <trkpt lat="43.33422" lon="-1.40693">
        <ele>79.3</ele>
        <time>2021-07-18T15:35:41Z</time>
      </trkpt>
      <trkpt lat="43.33418" lon="-1.40695">
        <ele>79.3</ele>
        <time>2021-07-18T15:35:42Z</time>
      </trkpt>
      <trkpt lat="43.33413" lon="-1.40698">
        <ele>79.3</ele>
        <time>2021-07-18T15:35:43Z</time>
      </trkpt>
      <trkpt lat="43.33409" lon="-1.40701">
        <ele>79.3</ele>
        <time>2021-07-18T15:35:44Z</time>
      </trkpt>
      <trkpt lat="43.33403" lon="-1.40705">
        <ele>79.3</ele>
        <time>2021-07-18T15:35:46Z</time>
      </trkpt>
      <trkpt lat="43.33399" lon="-1.40708">
        <ele>79.3</ele>
        <time>2021-07-18T15:35:47Z</time>
      </trkpt>
      <trkpt lat="43.33391" lon="-1.40714">
        <ele>79.3</ele>
        <time>2021-07-18T15:35:49Z</time>
      </trkpt>
      <trkpt lat="43.33385" lon="-1.4072">
        <ele>79.4</ele>
        <time>2021-07-18T15:35:51Z</time>
      </trkpt>
      <trkpt lat="43.33381" lon="-1.40724">
        <ele>79.4</ele>
        <time>2021-07-18T15:35:52Z</time>
      </trkpt>
      <trkpt lat="43.33377" lon="-1.40728">
        <ele>79.4</ele>
        <time>2021-07-18T15:35:53Z</time>
      </trkpt>
      <trkpt lat="43.33372" lon="-1.40735">
        <ele>79.5</ele>
        <time>2021-07-18T15:35:55Z</time>
      </trkpt>
      <trkpt lat="43.33368" lon="-1.4074">
        <ele>79.6</ele>
        <time>2021-07-18T15:35:56Z</time>
      </trkpt>
      <trkpt lat="43.33362" lon="-1.40747">
        <ele>79.7</ele>
        <time>2021-07-18T15:35:58Z</time>
      </trkpt>
      <trkpt lat="43.33359" lon="-1.40752">
        <ele>79.8</ele>
        <time>2021-07-18T15:35:59Z</time>
      </trkpt>
      <trkpt lat="43.33354" lon="-1.4076">
        <ele>80.1</ele>
        <time>2021-07-18T15:36:01Z</time>
      </trkpt>
      <trkpt lat="43.33349" lon="-1.40766">
        <ele>80.4</ele>
        <time>2021-07-18T15:36:03Z</time>
      </trkpt>
      <trkpt lat="43.33346" lon="-1.4077">
        <ele>80.6</ele>
        <time>2021-07-18T15:36:04Z</time>
      </trkpt>
      <trkpt lat="43.33346" lon="-1.40771">
        <ele>80.6</ele>
        <time>2021-07-18T15:36:05Z</time>
      </trkpt>
      <trkpt lat="43.33342" lon="-1.40776">
        <ele>80.9</ele>
        <time>2021-07-18T15:36:07Z</time>
      </trkpt>
      <trkpt lat="43.33341" lon="-1.40778">
        <ele>81</ele>
        <time>2021-07-18T15:36:08Z</time>
      </trkpt>
      <trkpt lat="43.33337" lon="-1.40782">
        <ele>81.3</ele>
        <time>2021-07-18T15:36:10Z</time>
      </trkpt>
      <trkpt lat="43.33336" lon="-1.40784">
        <ele>81.4</ele>
        <time>2021-07-18T15:36:11Z</time>
      </trkpt>
      <trkpt lat="43.33333" lon="-1.40789">
        <ele>81.6</ele>
        <time>2021-07-18T15:36:13Z</time>
      </trkpt>
      <trkpt lat="43.33332" lon="-1.40791">
        <ele>81.7</ele>
        <time>2021-07-18T15:36:14Z</time>
      </trkpt>
      <trkpt lat="43.33331" lon="-1.40796">
        <ele>81.9</ele>
        <time>2021-07-18T15:36:16Z</time>
      </trkpt>
      <trkpt lat="43.33328" lon="-1.40801">
        <ele>82.2</ele>
        <time>2021-07-18T15:36:18Z</time>
      </trkpt>
      <trkpt lat="43.33327" lon="-1.40803">
        <ele>82.3</ele>
        <time>2021-07-18T15:36:19Z</time>
      </trkpt>
      <trkpt lat="43.33324" lon="-1.40808">
        <ele>82.5</ele>
        <time>2021-07-18T15:36:21Z</time>
      </trkpt>
      <trkpt lat="43.33321" lon="-1.40813">
        <ele>82.7</ele>
        <time>2021-07-18T15:36:23Z</time>
      </trkpt>
      <trkpt lat="43.33317" lon="-1.40818">
        <ele>82.9</ele>
        <time>2021-07-18T15:36:25Z</time>
      </trkpt>
      <trkpt lat="43.33314" lon="-1.40823">
        <ele>83.1</ele>
        <time>2021-07-18T15:36:27Z</time>
      </trkpt>
      <trkpt lat="43.33312" lon="-1.40826">
        <ele>83.2</ele>
        <time>2021-07-18T15:36:28Z</time>
      </trkpt>
      <trkpt lat="43.33309" lon="-1.40832">
        <ele>83.4</ele>
        <time>2021-07-18T15:36:30Z</time>
      </trkpt>
      <trkpt lat="43.33307" lon="-1.40835">
        <ele>83.5</ele>
        <time>2021-07-18T15:36:31Z</time>
      </trkpt>
      <trkpt lat="43.33306" lon="-1.40837">
        <ele>83.6</ele>
        <time>2021-07-18T15:36:32Z</time>
      </trkpt>
      <trkpt lat="43.33304" lon="-1.40839">
        <ele>83.7</ele>
        <time>2021-07-18T15:36:33Z</time>
      </trkpt>
      <trkpt lat="43.333" lon="-1.40845">
        <ele>83.9</ele>
        <time>2021-07-18T15:36:35Z</time>
      </trkpt>
      <trkpt lat="43.33296" lon="-1.40851">
        <ele>84.1</ele>
        <time>2021-07-18T15:36:37Z</time>
      </trkpt>
      <trkpt lat="43.33292" lon="-1.40855">
        <ele>84.3</ele>
        <time>2021-07-18T15:36:39Z</time>
      </trkpt>
      <trkpt lat="43.3329" lon="-1.40858">
        <ele>84.3</ele>
        <time>2021-07-18T15:36:40Z</time>
      </trkpt>
      <trkpt lat="43.33287" lon="-1.40861">
        <ele>84.5</ele>
        <time>2021-07-18T15:36:42Z</time>
      </trkpt>
      <trkpt lat="43.33284" lon="-1.40862">
        <ele>84.6</ele>
        <time>2021-07-18T15:36:43Z</time>
      </trkpt>
      <trkpt lat="43.3328" lon="-1.40864">
        <ele>84.7</ele>
        <time>2021-07-18T15:36:45Z</time>
      </trkpt>
      <trkpt lat="43.33276" lon="-1.40862">
        <ele>84.7</ele>
        <time>2021-07-18T15:36:46Z</time>
      </trkpt>
      <trkpt lat="43.33275" lon="-1.40861">
        <ele>84.8</ele>
        <time>2021-07-18T15:36:47Z</time>
      </trkpt>
      <trkpt lat="43.33275" lon="-1.40853">
        <ele>84.9</ele>
        <time>2021-07-18T15:36:49Z</time>
      </trkpt>
      <trkpt lat="43.33273" lon="-1.40837">
        <ele>83.6</ele>
        <time>2021-07-18T15:36:51Z</time>
      </trkpt>
      <trkpt lat="43.33271" lon="-1.4083">
        <ele>83.3</ele>
        <time>2021-07-18T15:36:52Z</time>
      </trkpt>
      <trkpt lat="43.33267" lon="-1.40815">
        <ele>82.9</ele>
        <time>2021-07-18T15:36:54Z</time>
      </trkpt>
      <trkpt lat="43.33262" lon="-1.40801">
        <ele>82.6</ele>
        <time>2021-07-18T15:36:56Z</time>
      </trkpt>
      <trkpt lat="43.3326" lon="-1.40793">
        <ele>82.4</ele>
        <time>2021-07-18T15:36:57Z</time>
      </trkpt>
      <trkpt lat="43.33259" lon="-1.40778">
        <ele>82.2</ele>
        <time>2021-07-18T15:36:59Z</time>
      </trkpt>
      <trkpt lat="43.33257" lon="-1.40769">
        <ele>82.1</ele>
        <time>2021-07-18T15:37:01Z</time>
      </trkpt>
      <trkpt lat="43.33256" lon="-1.40766">
        <ele>82</ele>
        <time>2021-07-18T15:37:02Z</time>
      </trkpt>
      <trkpt lat="43.33256" lon="-1.40765">
        <ele>82</ele>
        <time>2021-07-18T15:37:03Z</time>
      </trkpt>
      <trkpt lat="43.33257" lon="-1.40767">
        <ele>81.9</ele>
        <time>2021-07-18T15:37:05Z</time>
      </trkpt>
      <trkpt lat="43.33258" lon="-1.40768">
        <ele>81.9</ele>
        <time>2021-07-18T15:37:06Z</time>
      </trkpt>
      <trkpt lat="43.33257" lon="-1.40767">
        <ele>81.9</ele>
        <time>2021-07-18T15:37:08Z</time>
      </trkpt>
      <trkpt lat="43.33258" lon="-1.40767">
        <ele>81.9</ele>
        <time>2021-07-18T15:37:09Z</time>
      </trkpt>
      <trkpt lat="43.33261" lon="-1.40773">
        <ele>81.8</ele>
        <time>2021-07-18T15:37:11Z</time>
      </trkpt>
      <trkpt lat="43.33263" lon="-1.40782">
        <ele>82</ele>
        <time>2021-07-18T15:37:13Z</time>
      </trkpt>
      <trkpt lat="43.33263" lon="-1.40786">
        <ele>82.1</ele>
        <time>2021-07-18T15:37:14Z</time>
      </trkpt>
      <trkpt lat="43.33265" lon="-1.4079">
        <ele>82.2</ele>
        <time>2021-07-18T15:37:15Z</time>
      </trkpt>
      <trkpt lat="43.33267" lon="-1.40797">
        <ele>82.4</ele>
        <time>2021-07-18T15:37:17Z</time>
      </trkpt>
      <trkpt lat="43.33269" lon="-1.40803">
        <ele>82.6</ele>
        <time>2021-07-18T15:37:18Z</time>
      </trkpt>
      <trkpt lat="43.3327" lon="-1.40809">
        <ele>82.9</ele>
        <time>2021-07-18T15:37:19Z</time>
      </trkpt>
      <trkpt lat="43.33268" lon="-1.40815">
        <ele>82.9</ele>
        <time>2021-07-18T15:37:21Z</time>
      </trkpt>
      <trkpt lat="43.33266" lon="-1.40817">
        <ele>82.9</ele>
        <time>2021-07-18T15:37:22Z</time>
      </trkpt>
      <trkpt lat="43.33263" lon="-1.40819">
        <ele>82.9</ele>
        <time>2021-07-18T15:37:23Z</time>
      </trkpt>
      <trkpt lat="43.33256" lon="-1.40817">
        <ele>82.8</ele>
        <time>2021-07-18T15:37:25Z</time>
      </trkpt>
      <trkpt lat="43.33253" lon="-1.40816">
        <ele>82.8</ele>
        <time>2021-07-18T15:37:26Z</time>
      </trkpt>
      <trkpt lat="43.33248" lon="-1.40814">
        <ele>82.8</ele>
        <time>2021-07-18T15:37:28Z</time>
      </trkpt>
      <trkpt lat="43.33243" lon="-1.40813">
        <ele>82.7</ele>
        <time>2021-07-18T15:37:29Z</time>
      </trkpt>
      <trkpt lat="43.33238" lon="-1.40811">
        <ele>82.6</ele>
        <time>2021-07-18T15:37:31Z</time>
      </trkpt>
      <trkpt lat="43.33233" lon="-1.40809">
        <ele>82.6</ele>
        <time>2021-07-18T15:37:32Z</time>
      </trkpt>
      <trkpt lat="43.33227" lon="-1.40806">
        <ele>82.5</ele>
        <time>2021-07-18T15:37:34Z</time>
      </trkpt>
      <trkpt lat="43.33223" lon="-1.40804">
        <ele>82.5</ele>
        <time>2021-07-18T15:37:35Z</time>
      </trkpt>
      <trkpt lat="43.33216" lon="-1.40801">
        <ele>82.4</ele>
        <time>2021-07-18T15:37:37Z</time>
      </trkpt>
      <trkpt lat="43.33209" lon="-1.40797">
        <ele>82.3</ele>
        <time>2021-07-18T15:37:39Z</time>
      </trkpt>
      <trkpt lat="43.33202" lon="-1.40794">
        <ele>82.1</ele>
        <time>2021-07-18T15:37:41Z</time>
      </trkpt>
      <trkpt lat="43.33197" lon="-1.4079">
        <ele>82</ele>
        <time>2021-07-18T15:37:42Z</time>
      </trkpt>
      <trkpt lat="43.33193" lon="-1.40789">
        <ele>81.9</ele>
        <time>2021-07-18T15:37:43Z</time>
      </trkpt>
      <trkpt lat="43.33186" lon="-1.40786">
        <ele>81.6</ele>
        <time>2021-07-18T15:37:45Z</time>
      </trkpt>
      <trkpt lat="43.3318" lon="-1.40784">
        <ele>81.3</ele>
        <time>2021-07-18T15:37:46Z</time>
      </trkpt>
      <trkpt lat="43.33176" lon="-1.40783">
        <ele>81</ele>
        <time>2021-07-18T15:37:47Z</time>
      </trkpt>
      <trkpt lat="43.33172" lon="-1.40782">
        <ele>80.8</ele>
        <time>2021-07-18T15:37:48Z</time>
      </trkpt>
      <trkpt lat="43.33169" lon="-1.4078">
        <ele>80.5</ele>
        <time>2021-07-18T15:37:49Z</time>
      </trkpt>
      <trkpt lat="43.33159" lon="-1.40778">
        <ele>79.8</ele>
        <time>2021-07-18T15:37:51Z</time>
      </trkpt>
      <trkpt lat="43.33153" lon="-1.40777">
        <ele>79.3</ele>
        <time>2021-07-18T15:37:52Z</time>
      </trkpt>
      <trkpt lat="43.33147" lon="-1.40775">
        <ele>78.8</ele>
        <time>2021-07-18T15:37:53Z</time>
      </trkpt>
      <trkpt lat="43.33141" lon="-1.40772">
        <ele>78.2</ele>
        <time>2021-07-18T15:37:54Z</time>
      </trkpt>
      <trkpt lat="43.33127" lon="-1.40768">
        <ele>76.7</ele>
        <time>2021-07-18T15:37:56Z</time>
      </trkpt>
      <trkpt lat="43.33111" lon="-1.40761">
        <ele>74.6</ele>
        <time>2021-07-18T15:37:58Z</time>
      </trkpt>
      <trkpt lat="43.33095" lon="-1.40755">
        <ele>72.3</ele>
        <time>2021-07-18T15:38:00Z</time>
      </trkpt>
      <trkpt lat="43.33081" lon="-1.40752">
        <ele>70.3</ele>
        <time>2021-07-18T15:38:02Z</time>
      </trkpt>
      <trkpt lat="43.33074" lon="-1.40751">
        <ele>69.2</ele>
        <time>2021-07-18T15:38:03Z</time>
      </trkpt>
      <trkpt lat="43.33067" lon="-1.4075">
        <ele>68.1</ele>
        <time>2021-07-18T15:38:04Z</time>
      </trkpt>
      <trkpt lat="43.33056" lon="-1.40749">
        <ele>66.2</ele>
        <time>2021-07-18T15:38:06Z</time>
      </trkpt>
      <trkpt lat="43.33051" lon="-1.40748">
        <ele>65.4</ele>
        <time>2021-07-18T15:38:07Z</time>
      </trkpt>
      <trkpt lat="43.33045" lon="-1.40744">
        <ele>64.5</ele>
        <time>2021-07-18T15:38:08Z</time>
      </trkpt>
      <trkpt lat="43.3304" lon="-1.40738">
        <ele>63.4</ele>
        <time>2021-07-18T15:38:09Z</time>
      </trkpt>
      <trkpt lat="43.33032" lon="-1.40717">
        <ele>61.8</ele>
        <time>2021-07-18T15:38:11Z</time>
      </trkpt>
      <trkpt lat="43.33028" lon="-1.40705">
        <ele>61.2</ele>
        <time>2021-07-18T15:38:12Z</time>
      </trkpt>
      <trkpt lat="43.33021" lon="-1.40681">
        <ele>60.5</ele>
        <time>2021-07-18T15:38:14Z</time>
      </trkpt>
      <trkpt lat="43.33013" lon="-1.40658">
        <ele>60.1</ele>
        <time>2021-07-18T15:38:16Z</time>
      </trkpt>
      <trkpt lat="43.33009" lon="-1.40647">
        <ele>60.1</ele>
        <time>2021-07-18T15:38:17Z</time>
      </trkpt>
      <trkpt lat="43.32999" lon="-1.40625">
        <ele>60.4</ele>
        <time>2021-07-18T15:38:19Z</time>
      </trkpt>
      <trkpt lat="43.3299" lon="-1.40608">
        <ele>60.5</ele>
        <time>2021-07-18T15:38:21Z</time>
      </trkpt>
      <trkpt lat="43.32982" lon="-1.40596">
        <ele>61.9</ele>
        <time>2021-07-18T15:38:23Z</time>
      </trkpt>
      <trkpt lat="43.32978" lon="-1.40592">
        <ele>62.3</ele>
        <time>2021-07-18T15:38:25Z</time>
      </trkpt>
      <trkpt lat="43.32977" lon="-1.4059">
        <ele>62.5</ele>
        <time>2021-07-18T15:38:26Z</time>
      </trkpt>
      <trkpt lat="43.32976" lon="-1.40588">
        <ele>62.7</ele>
        <time>2021-07-18T15:38:27Z</time>
      </trkpt>
      <trkpt lat="43.32972" lon="-1.40583">
        <ele>63.2</ele>
        <time>2021-07-18T15:38:29Z</time>
      </trkpt>
      <trkpt lat="43.32971" lon="-1.40582">
        <ele>63.4</ele>
        <time>2021-07-18T15:38:31Z</time>
      </trkpt>
      <trkpt lat="43.32969" lon="-1.4058">
        <ele>63.6</ele>
        <time>2021-07-18T15:38:33Z</time>
      </trkpt>
      <trkpt lat="43.32968" lon="-1.40578">
        <ele>63.8</ele>
        <time>2021-07-18T15:38:34Z</time>
      </trkpt>
      <trkpt lat="43.32967" lon="-1.40576">
        <ele>64.1</ele>
        <time>2021-07-18T15:38:35Z</time>
      </trkpt>
      <trkpt lat="43.32965" lon="-1.40573">
        <ele>64.4</ele>
        <time>2021-07-18T15:38:37Z</time>
      </trkpt>
      <trkpt lat="43.32964" lon="-1.40572">
        <ele>64.5</ele>
        <time>2021-07-18T15:38:38Z</time>
      </trkpt>
      <trkpt lat="43.32962" lon="-1.40569">
        <ele>64.9</ele>
        <time>2021-07-18T15:38:40Z</time>
      </trkpt>
      <trkpt lat="43.32959" lon="-1.40565">
        <ele>65.3</ele>
        <time>2021-07-18T15:38:42Z</time>
      </trkpt>
      <trkpt lat="43.32958" lon="-1.40564">
        <ele>65.4</ele>
        <time>2021-07-18T15:38:44Z</time>
      </trkpt>
      <trkpt lat="43.32957" lon="-1.40563">
        <ele>65.6</ele>
        <time>2021-07-18T15:38:45Z</time>
      </trkpt>
      <trkpt lat="43.32957" lon="-1.40561">
        <ele>65.7</ele>
        <time>2021-07-18T15:38:46Z</time>
      </trkpt>
      <trkpt lat="43.32957" lon="-1.4056">
        <ele>65.8</ele>
        <time>2021-07-18T15:38:47Z</time>
      </trkpt>
      <trkpt lat="43.32957" lon="-1.40559">
        <ele>65.9</ele>
        <time>2021-07-18T15:38:48Z</time>
      </trkpt>
      <trkpt lat="43.3296" lon="-1.40562">
        <ele>66.3</ele>
        <time>2021-07-18T15:38:50Z</time>
      </trkpt>
      <trkpt lat="43.32963" lon="-1.40565">
        <ele>66.7</ele>
        <time>2021-07-18T15:38:51Z</time>
      </trkpt>
      <trkpt lat="43.32967" lon="-1.4057">
        <ele>65.7</ele>
        <time>2021-07-18T15:38:52Z</time>
      </trkpt>
      <trkpt lat="43.32973" lon="-1.4058">
        <ele>64.1</ele>
        <time>2021-07-18T15:38:54Z</time>
      </trkpt>
      <trkpt lat="43.3298" lon="-1.40591">
        <ele>62.5</ele>
        <time>2021-07-18T15:38:56Z</time>
      </trkpt>
      <trkpt lat="43.32981" lon="-1.40597">
        <ele>61.8</ele>
        <time>2021-07-18T15:38:57Z</time>
      </trkpt>
      <trkpt lat="43.32984" lon="-1.40602">
        <ele>61.2</ele>
        <time>2021-07-18T15:38:59Z</time>
      </trkpt>
      <trkpt lat="43.32988" lon="-1.40604">
        <ele>60.6</ele>
        <time>2021-07-18T15:39:00Z</time>
      </trkpt>
      <trkpt lat="43.32991" lon="-1.40599">
        <ele>60.5</ele>
        <time>2021-07-18T15:39:01Z</time>
      </trkpt>
      <trkpt lat="43.32991" lon="-1.40591">
        <ele>60.4</ele>
        <time>2021-07-18T15:39:03Z</time>
      </trkpt>
      <trkpt lat="43.32991" lon="-1.40586">
        <ele>60.3</ele>
        <time>2021-07-18T15:39:04Z</time>
      </trkpt>
      <trkpt lat="43.32991" lon="-1.4058">
        <ele>60.1</ele>
        <time>2021-07-18T15:39:05Z</time>
      </trkpt>
      <trkpt lat="43.32991" lon="-1.40566">
        <ele>59.7</ele>
        <time>2021-07-18T15:39:07Z</time>
      </trkpt>
      <trkpt lat="43.3299" lon="-1.40559">
        <ele>59.6</ele>
        <time>2021-07-18T15:39:08Z</time>
      </trkpt>
      <trkpt lat="43.32989" lon="-1.40549">
        <ele>59.4</ele>
        <time>2021-07-18T15:39:10Z</time>
      </trkpt>
      <trkpt lat="43.32989" lon="-1.40543">
        <ele>59.3</ele>
        <time>2021-07-18T15:39:11Z</time>
      </trkpt>
      <trkpt lat="43.32989" lon="-1.40535">
        <ele>59.2</ele>
        <time>2021-07-18T15:39:13Z</time>
      </trkpt>
      <trkpt lat="43.32989" lon="-1.40527">
        <ele>59.1</ele>
        <time>2021-07-18T15:39:14Z</time>
      </trkpt>
      <trkpt lat="43.3299" lon="-1.4052">
        <ele>59</ele>
        <time>2021-07-18T15:39:15Z</time>
      </trkpt>
      <trkpt lat="43.32991" lon="-1.40512">
        <ele>58.8</ele>
        <time>2021-07-18T15:39:17Z</time>
      </trkpt>
      <trkpt lat="43.32994" lon="-1.40504">
        <ele>58.6</ele>
        <time>2021-07-18T15:39:18Z</time>
      </trkpt>
      <trkpt lat="43.32995" lon="-1.40498">
        <ele>58.5</ele>
        <time>2021-07-18T15:39:19Z</time>
      </trkpt>
      <trkpt lat="43.32998" lon="-1.40485">
        <ele>58.2</ele>
        <time>2021-07-18T15:39:21Z</time>
      </trkpt>
      <trkpt lat="43.33" lon="-1.40478">
        <ele>58.1</ele>
        <time>2021-07-18T15:39:22Z</time>
      </trkpt>
      <trkpt lat="43.33001" lon="-1.40472">
        <ele>58</ele>
        <time>2021-07-18T15:39:23Z</time>
      </trkpt>
      <trkpt lat="43.33002" lon="-1.40467">
        <ele>57.9</ele>
        <time>2021-07-18T15:39:24Z</time>
      </trkpt>
      <trkpt lat="43.33003" lon="-1.40461">
        <ele>57.8</ele>
        <time>2021-07-18T15:39:25Z</time>
      </trkpt>
      <trkpt lat="43.33005" lon="-1.40453">
        <ele>57.6</ele>
        <time>2021-07-18T15:39:27Z</time>
      </trkpt>
      <trkpt lat="43.33007" lon="-1.40446">
        <ele>57.4</ele>
        <time>2021-07-18T15:39:28Z</time>
      </trkpt>
      <trkpt lat="43.33009" lon="-1.40431">
        <ele>56.8</ele>
        <time>2021-07-18T15:39:30Z</time>
      </trkpt>
      <trkpt lat="43.33011" lon="-1.40416">
        <ele>56.1</ele>
        <time>2021-07-18T15:39:32Z</time>
      </trkpt>
      <trkpt lat="43.33013" lon="-1.40408">
        <ele>55.9</ele>
        <time>2021-07-18T15:39:33Z</time>
      </trkpt>
      <trkpt lat="43.33017" lon="-1.40393">
        <ele>55.6</ele>
        <time>2021-07-18T15:39:35Z</time>
      </trkpt>
      <trkpt lat="43.33018" lon="-1.40379">
        <ele>55.5</ele>
        <time>2021-07-18T15:39:37Z</time>
      </trkpt>
      <trkpt lat="43.33017" lon="-1.40364">
        <ele>55.5</ele>
        <time>2021-07-18T15:39:39Z</time>
      </trkpt>
      <trkpt lat="43.33015" lon="-1.40354">
        <ele>55.5</ele>
        <time>2021-07-18T15:39:41Z</time>
      </trkpt>
      <trkpt lat="43.33014" lon="-1.40349">
        <ele>55.6</ele>
        <time>2021-07-18T15:39:42Z</time>
      </trkpt>
      <trkpt lat="43.33013" lon="-1.40345">
        <ele>55.6</ele>
        <time>2021-07-18T15:39:43Z</time>
      </trkpt>
      <trkpt lat="43.33013" lon="-1.40337">
        <ele>55.7</ele>
        <time>2021-07-18T15:39:45Z</time>
      </trkpt>
      <trkpt lat="43.3301" lon="-1.40327">
        <ele>55.8</ele>
        <time>2021-07-18T15:39:47Z</time>
      </trkpt>
      <trkpt lat="43.33009" lon="-1.4032">
        <ele>56</ele>
        <time>2021-07-18T15:39:49Z</time>
      </trkpt>
      <trkpt lat="43.33008" lon="-1.40316">
        <ele>56</ele>
        <time>2021-07-18T15:39:50Z</time>
      </trkpt>
      <trkpt lat="43.33006" lon="-1.40308">
        <ele>56.1</ele>
        <time>2021-07-18T15:39:52Z</time>
      </trkpt>
      <trkpt lat="43.33005" lon="-1.40303">
        <ele>56.2</ele>
        <time>2021-07-18T15:39:53Z</time>
      </trkpt>
      <trkpt lat="43.33003" lon="-1.40298">
        <ele>56.3</ele>
        <time>2021-07-18T15:39:54Z</time>
      </trkpt>
      <trkpt lat="43.33002" lon="-1.40293">
        <ele>56.4</ele>
        <time>2021-07-18T15:39:55Z</time>
      </trkpt>
      <trkpt lat="43.33001" lon="-1.40286">
        <ele>56.5</ele>
        <time>2021-07-18T15:39:57Z</time>
      </trkpt>
      <trkpt lat="43.32998" lon="-1.40278">
        <ele>56.6</ele>
        <time>2021-07-18T15:39:59Z</time>
      </trkpt>
      <trkpt lat="43.32997" lon="-1.40274">
        <ele>56.6</ele>
        <time>2021-07-18T15:40:00Z</time>
      </trkpt>
      <trkpt lat="43.32996" lon="-1.40271">
        <ele>56.7</ele>
        <time>2021-07-18T15:40:01Z</time>
      </trkpt>
      <trkpt lat="43.32995" lon="-1.40267">
        <ele>56.8</ele>
        <time>2021-07-18T15:40:02Z</time>
      </trkpt>
      <trkpt lat="43.32994" lon="-1.40263">
        <ele>56.8</ele>
        <time>2021-07-18T15:40:03Z</time>
      </trkpt>
      <trkpt lat="43.32992" lon="-1.4026">
        <ele>56.9</ele>
        <time>2021-07-18T15:40:05Z</time>
      </trkpt>
      <trkpt lat="43.32991" lon="-1.40255">
        <ele>56.9</ele>
        <time>2021-07-18T15:40:06Z</time>
      </trkpt>
      <trkpt lat="43.32989" lon="-1.4025">
        <ele>57</ele>
        <time>2021-07-18T15:40:07Z</time>
      </trkpt>
      <trkpt lat="43.32989" lon="-1.40249">
        <ele>57</ele>
        <time>2021-07-18T15:40:08Z</time>
      </trkpt>
      <trkpt lat="43.32987" lon="-1.40242">
        <ele>57.1</ele>
        <time>2021-07-18T15:40:10Z</time>
      </trkpt>
      <trkpt lat="43.32985" lon="-1.40236">
        <ele>57.2</ele>
        <time>2021-07-18T15:40:11Z</time>
      </trkpt>
      <trkpt lat="43.32985" lon="-1.40231">
        <ele>57.4</ele>
        <time>2021-07-18T15:40:12Z</time>
      </trkpt>
      <trkpt lat="43.32984" lon="-1.40222">
        <ele>57.6</ele>
        <time>2021-07-18T15:40:14Z</time>
      </trkpt>
      <trkpt lat="43.32984" lon="-1.40218">
        <ele>57.8</ele>
        <time>2021-07-18T15:40:15Z</time>
      </trkpt>
      <trkpt lat="43.32983" lon="-1.40211">
        <ele>58.2</ele>
        <time>2021-07-18T15:40:17Z</time>
      </trkpt>
      <trkpt lat="43.32982" lon="-1.40205">
        <ele>58.5</ele>
        <time>2021-07-18T15:40:19Z</time>
      </trkpt>
      <trkpt lat="43.32983" lon="-1.40202">
        <ele>58.7</ele>
        <time>2021-07-18T15:40:20Z</time>
      </trkpt>
      <trkpt lat="43.32983" lon="-1.40197">
        <ele>59.1</ele>
        <time>2021-07-18T15:40:22Z</time>
      </trkpt>
      <trkpt lat="43.32983" lon="-1.40195">
        <ele>59.2</ele>
        <time>2021-07-18T15:40:23Z</time>
      </trkpt>
      <trkpt lat="43.32982" lon="-1.40192">
        <ele>59.4</ele>
        <time>2021-07-18T15:40:25Z</time>
      </trkpt>
      <trkpt lat="43.32981" lon="-1.40189">
        <ele>59.6</ele>
        <time>2021-07-18T15:40:26Z</time>
      </trkpt>
      <trkpt lat="43.32982" lon="-1.40188">
        <ele>59.7</ele>
        <time>2021-07-18T15:40:27Z</time>
      </trkpt>
      <trkpt lat="43.32982" lon="-1.40184">
        <ele>60</ele>
        <time>2021-07-18T15:40:29Z</time>
      </trkpt>
      <trkpt lat="43.32982" lon="-1.40181">
        <ele>60.3</ele>
        <time>2021-07-18T15:40:31Z</time>
      </trkpt>
      <trkpt lat="43.32982" lon="-1.40178">
        <ele>60.4</ele>
        <time>2021-07-18T15:40:33Z</time>
      </trkpt>
      <trkpt lat="43.32981" lon="-1.40176">
        <ele>60.6</ele>
        <time>2021-07-18T15:40:34Z</time>
      </trkpt>
      <trkpt lat="43.3298" lon="-1.40174">
        <ele>60.8</ele>
        <time>2021-07-18T15:40:36Z</time>
      </trkpt>
      <trkpt lat="43.3298" lon="-1.40172">
        <ele>61</ele>
        <time>2021-07-18T15:40:37Z</time>
      </trkpt>
      <trkpt lat="43.32979" lon="-1.40169">
        <ele>61.3</ele>
        <time>2021-07-18T15:40:39Z</time>
      </trkpt>
      <trkpt lat="43.32979" lon="-1.40167">
        <ele>61.4</ele>
        <time>2021-07-18T15:40:40Z</time>
      </trkpt>
      <trkpt lat="43.32978" lon="-1.40166">
        <ele>61.6</ele>
        <time>2021-07-18T15:40:42Z</time>
      </trkpt>
      <trkpt lat="43.32977" lon="-1.40163">
        <ele>61.9</ele>
        <time>2021-07-18T15:40:44Z</time>
      </trkpt>
      <trkpt lat="43.32977" lon="-1.40159">
        <ele>62</ele>
        <time>2021-07-18T15:40:45Z</time>
      </trkpt>
      <trkpt lat="43.32977" lon="-1.40158">
        <ele>62.1</ele>
        <time>2021-07-18T15:40:47Z</time>
      </trkpt>
      <trkpt lat="43.32977" lon="-1.40157">
        <ele>62.1</ele>
        <time>2021-07-18T15:40:49Z</time>
      </trkpt>
      <trkpt lat="43.32977" lon="-1.40156">
        <ele>62.2</ele>
        <time>2021-07-18T15:40:50Z</time>
      </trkpt>
      <trkpt lat="43.32977" lon="-1.40155">
        <ele>62.2</ele>
        <time>2021-07-18T15:40:52Z</time>
      </trkpt>
      <trkpt lat="43.32977" lon="-1.40154">
        <ele>62.3</ele>
        <time>2021-07-18T15:40:53Z</time>
      </trkpt>
      <trkpt lat="43.32977" lon="-1.40153">
        <ele>62.3</ele>
        <time>2021-07-18T15:40:55Z</time>
      </trkpt>
      <trkpt lat="43.32977" lon="-1.40152">
        <ele>62.4</ele>
        <time>2021-07-18T15:40:56Z</time>
      </trkpt>
      <trkpt lat="43.32977" lon="-1.40151">
        <ele>62.4</ele>
        <time>2021-07-18T15:40:58Z</time>
      </trkpt>
      <trkpt lat="43.32977" lon="-1.4015">
        <ele>62.5</ele>
        <time>2021-07-18T15:41:30Z</time>
      </trkpt>
      <trkpt lat="43.32977" lon="-1.40148">
        <ele>62.5</ele>
        <time>2021-07-18T15:41:31Z</time>
      </trkpt>
      <trkpt lat="43.32977" lon="-1.40147">
        <ele>62.6</ele>
        <time>2021-07-18T15:41:32Z</time>
      </trkpt>
      <trkpt lat="43.32976" lon="-1.40144">
        <ele>62.7</ele>
        <time>2021-07-18T15:41:33Z</time>
      </trkpt>
      <trkpt lat="43.32976" lon="-1.40141">
        <ele>62.8</ele>
        <time>2021-07-18T15:41:35Z</time>
      </trkpt>
      <trkpt lat="43.32975" lon="-1.40137">
        <ele>63</ele>
        <time>2021-07-18T15:41:36Z</time>
      </trkpt>
      <trkpt lat="43.32975" lon="-1.40131">
        <ele>63.2</ele>
        <time>2021-07-18T15:41:38Z</time>
      </trkpt>
      <trkpt lat="43.32974" lon="-1.40128">
        <ele>63.3</ele>
        <time>2021-07-18T15:41:39Z</time>
      </trkpt>
      <trkpt lat="43.32974" lon="-1.40122">
        <ele>63.4</ele>
        <time>2021-07-18T15:41:41Z</time>
      </trkpt>
      <trkpt lat="43.32974" lon="-1.40118">
        <ele>63.6</ele>
        <time>2021-07-18T15:41:43Z</time>
      </trkpt>
      <trkpt lat="43.32973" lon="-1.40114">
        <ele>63.7</ele>
        <time>2021-07-18T15:41:44Z</time>
      </trkpt>
      <trkpt lat="43.32972" lon="-1.40108">
        <ele>63.8</ele>
        <time>2021-07-18T15:41:46Z</time>
      </trkpt>
      <trkpt lat="43.32971" lon="-1.40102">
        <ele>64</ele>
        <time>2021-07-18T15:41:48Z</time>
      </trkpt>
      <trkpt lat="43.3297" lon="-1.40099">
        <ele>64</ele>
        <time>2021-07-18T15:41:49Z</time>
      </trkpt>
      <trkpt lat="43.32969" lon="-1.40092">
        <ele>64.1</ele>
        <time>2021-07-18T15:41:51Z</time>
      </trkpt>
      <trkpt lat="43.32968" lon="-1.40088">
        <ele>64.1</ele>
        <time>2021-07-18T15:41:52Z</time>
      </trkpt>
      <trkpt lat="43.32967" lon="-1.40084">
        <ele>64.1</ele>
        <time>2021-07-18T15:41:53Z</time>
      </trkpt>
      <trkpt lat="43.32966" lon="-1.40076">
        <ele>64.1</ele>
        <time>2021-07-18T15:41:55Z</time>
      </trkpt>
      <trkpt lat="43.32965" lon="-1.40069">
        <ele>64</ele>
        <time>2021-07-18T15:41:56Z</time>
      </trkpt>
      <trkpt lat="43.32965" lon="-1.40058">
        <ele>63.8</ele>
        <time>2021-07-18T15:41:58Z</time>
      </trkpt>
      <trkpt lat="43.32966" lon="-1.40049">
        <ele>63.6</ele>
        <time>2021-07-18T15:42:00Z</time>
      </trkpt>
      <trkpt lat="43.32966" lon="-1.40041">
        <ele>63.5</ele>
        <time>2021-07-18T15:42:01Z</time>
      </trkpt>
      <trkpt lat="43.32967" lon="-1.40033">
        <ele>63.4</ele>
        <time>2021-07-18T15:42:02Z</time>
      </trkpt>
      <trkpt lat="43.32966" lon="-1.40022">
        <ele>63.3</ele>
        <time>2021-07-18T15:42:04Z</time>
      </trkpt>
      <trkpt lat="43.32966" lon="-1.40015">
        <ele>63.2</ele>
        <time>2021-07-18T15:42:05Z</time>
      </trkpt>
      <trkpt lat="43.32966" lon="-1.4001">
        <ele>63.2</ele>
        <time>2021-07-18T15:42:07Z</time>
      </trkpt>
      <trkpt lat="43.32967" lon="-1.40006">
        <ele>63.2</ele>
        <time>2021-07-18T15:42:08Z</time>
      </trkpt>
      <trkpt lat="43.32968" lon="-1.40002">
        <ele>63.1</ele>
        <time>2021-07-18T15:42:09Z</time>
      </trkpt>
      <trkpt lat="43.32969" lon="-1.39997">
        <ele>63</ele>
        <time>2021-07-18T15:42:11Z</time>
      </trkpt>
      <trkpt lat="43.3297" lon="-1.3999">
        <ele>62.8</ele>
        <time>2021-07-18T15:42:12Z</time>
      </trkpt>
      <trkpt lat="43.32968" lon="-1.3998">
        <ele>62.3</ele>
        <time>2021-07-18T15:42:13Z</time>
      </trkpt>
      <trkpt lat="43.32967" lon="-1.39973">
        <ele>61.9</ele>
        <time>2021-07-18T15:42:14Z</time>
      </trkpt>
      <trkpt lat="43.32964" lon="-1.39958">
        <ele>61.1</ele>
        <time>2021-07-18T15:42:16Z</time>
      </trkpt>
      <trkpt lat="43.32962" lon="-1.3994">
        <ele>60.1</ele>
        <time>2021-07-18T15:42:18Z</time>
      </trkpt>
      <trkpt lat="43.32959" lon="-1.39924">
        <ele>59.3</ele>
        <time>2021-07-18T15:42:20Z</time>
      </trkpt>
      <trkpt lat="43.32959" lon="-1.3992">
        <ele>59.1</ele>
        <time>2021-07-18T15:42:21Z</time>
      </trkpt>
      <trkpt lat="43.32954" lon="-1.39909">
        <ele>58.6</ele>
        <time>2021-07-18T15:42:23Z</time>
      </trkpt>
      <trkpt lat="43.32951" lon="-1.39903">
        <ele>58.3</ele>
        <time>2021-07-18T15:42:24Z</time>
      </trkpt>
      <trkpt lat="43.32944" lon="-1.39895">
        <ele>58</ele>
        <time>2021-07-18T15:42:26Z</time>
      </trkpt>
      <trkpt lat="43.32939" lon="-1.39892">
        <ele>57.8</ele>
        <time>2021-07-18T15:42:28Z</time>
      </trkpt>
      <trkpt lat="43.32937" lon="-1.39889">
        <ele>57.7</ele>
        <time>2021-07-18T15:42:29Z</time>
      </trkpt>
      <trkpt lat="43.32934" lon="-1.39884">
        <ele>57.5</ele>
        <time>2021-07-18T15:42:31Z</time>
      </trkpt>
      <trkpt lat="43.32933" lon="-1.39882">
        <ele>57.5</ele>
        <time>2021-07-18T15:42:32Z</time>
      </trkpt>
      <trkpt lat="43.32932" lon="-1.39881">
        <ele>57.4</ele>
        <time>2021-07-18T15:42:34Z</time>
      </trkpt>
      <trkpt lat="43.32933" lon="-1.39882">
        <ele>57.4</ele>
        <time>2021-07-18T15:42:35Z</time>
      </trkpt>
      <trkpt lat="43.32933" lon="-1.39883">
        <ele>57.4</ele>
        <time>2021-07-18T15:42:37Z</time>
      </trkpt>
      <trkpt lat="43.32933" lon="-1.39883">
        <ele>57.3</ele>
        <time>2021-07-18T15:42:38Z</time>
      </trkpt>
      <trkpt lat="43.32933" lon="-1.39883">
        <ele>57.3</ele>
        <time>2021-07-18T15:42:39Z</time>
      </trkpt>
      <trkpt lat="43.32933" lon="-1.39883">
        <ele>57.3</ele>
        <time>2021-07-18T15:42:40Z</time>
      </trkpt>
      <trkpt lat="43.32933" lon="-1.39884">
        <ele>57.3</ele>
        <time>2021-07-18T15:42:42Z</time>
      </trkpt>
      <trkpt lat="43.3293" lon="-1.39877">
        <ele>57.1</ele>
        <time>2021-07-18T15:42:57Z</time>
      </trkpt>
      <trkpt lat="43.32929" lon="-1.39875">
        <ele>57.1</ele>
        <time>2021-07-18T15:42:58Z</time>
      </trkpt>
      <trkpt lat="43.32927" lon="-1.39871">
        <ele>57</ele>
        <time>2021-07-18T15:43:00Z</time>
      </trkpt>
      <trkpt lat="43.32926" lon="-1.39865">
        <ele>56.9</ele>
        <time>2021-07-18T15:43:01Z</time>
      </trkpt>
      <trkpt lat="43.32924" lon="-1.39857">
        <ele>56.7</ele>
        <time>2021-07-18T15:43:03Z</time>
      </trkpt>
      <trkpt lat="43.32924" lon="-1.39847">
        <ele>56.5</ele>
        <time>2021-07-18T15:43:05Z</time>
      </trkpt>
      <trkpt lat="43.32923" lon="-1.39837">
        <ele>56.3</ele>
        <time>2021-07-18T15:43:07Z</time>
      </trkpt>
      <trkpt lat="43.32922" lon="-1.39826">
        <ele>56.1</ele>
        <time>2021-07-18T15:43:09Z</time>
      </trkpt>
      <trkpt lat="43.3292" lon="-1.39816">
        <ele>55.9</ele>
        <time>2021-07-18T15:43:11Z</time>
      </trkpt>
      <trkpt lat="43.32919" lon="-1.39807">
        <ele>55.8</ele>
        <time>2021-07-18T15:43:13Z</time>
      </trkpt>
      <trkpt lat="43.32918" lon="-1.39801">
        <ele>55.7</ele>
        <time>2021-07-18T15:43:14Z</time>
      </trkpt>
      <trkpt lat="43.32917" lon="-1.39792">
        <ele>55.5</ele>
        <time>2021-07-18T15:43:16Z</time>
      </trkpt>
      <trkpt lat="43.32915" lon="-1.39788">
        <ele>55.4</ele>
        <time>2021-07-18T15:43:17Z</time>
      </trkpt>
      <trkpt lat="43.32913" lon="-1.39785">
        <ele>55.3</ele>
        <time>2021-07-18T15:43:18Z</time>
      </trkpt>
      <trkpt lat="43.32912" lon="-1.3978">
        <ele>55.2</ele>
        <time>2021-07-18T15:43:19Z</time>
      </trkpt>
      <trkpt lat="43.32911" lon="-1.39777">
        <ele>55.2</ele>
        <time>2021-07-18T15:43:21Z</time>
      </trkpt>
      <trkpt lat="43.3291" lon="-1.39772">
        <ele>55.1</ele>
        <time>2021-07-18T15:43:22Z</time>
      </trkpt>
      <trkpt lat="43.32911" lon="-1.39764">
        <ele>54.9</ele>
        <time>2021-07-18T15:43:24Z</time>
      </trkpt>
      <trkpt lat="43.32914" lon="-1.39752">
        <ele>54.7</ele>
        <time>2021-07-18T15:43:25Z</time>
      </trkpt>
      <trkpt lat="43.32916" lon="-1.39745">
        <ele>54.6</ele>
        <time>2021-07-18T15:43:26Z</time>
      </trkpt>
      <trkpt lat="43.32922" lon="-1.39735">
        <ele>54.3</ele>
        <time>2021-07-18T15:43:28Z</time>
      </trkpt>
      <trkpt lat="43.32931" lon="-1.39728">
        <ele>54.1</ele>
        <time>2021-07-18T15:43:30Z</time>
      </trkpt>
      <trkpt lat="43.32939" lon="-1.39721">
        <ele>53.8</ele>
        <time>2021-07-18T15:43:32Z</time>
      </trkpt>
      <trkpt lat="43.32941" lon="-1.39717">
        <ele>53.7</ele>
        <time>2021-07-18T15:43:33Z</time>
      </trkpt>
      <trkpt lat="43.32944" lon="-1.39711">
        <ele>53.6</ele>
        <time>2021-07-18T15:43:35Z</time>
      </trkpt>
      <trkpt lat="43.32946" lon="-1.39703">
        <ele>53.4</ele>
        <time>2021-07-18T15:43:36Z</time>
      </trkpt>
      <trkpt lat="43.32946" lon="-1.39696">
        <ele>53.3</ele>
        <time>2021-07-18T15:43:37Z</time>
      </trkpt>
      <trkpt lat="43.32943" lon="-1.39691">
        <ele>53.5</ele>
        <time>2021-07-18T15:43:39Z</time>
      </trkpt>
      <trkpt lat="43.32935" lon="-1.39688">
        <ele>53.7</ele>
        <time>2021-07-18T15:43:41Z</time>
      </trkpt>
      <trkpt lat="43.32931" lon="-1.39686">
        <ele>53.8</ele>
        <time>2021-07-18T15:43:42Z</time>
      </trkpt>
      <trkpt lat="43.32928" lon="-1.39684">
        <ele>53.9</ele>
        <time>2021-07-18T15:43:43Z</time>
      </trkpt>
      <trkpt lat="43.32921" lon="-1.3968">
        <ele>54</ele>
        <time>2021-07-18T15:43:45Z</time>
      </trkpt>
      <trkpt lat="43.32917" lon="-1.39678">
        <ele>54.1</ele>
        <time>2021-07-18T15:43:46Z</time>
      </trkpt>
      <trkpt lat="43.32908" lon="-1.39673">
        <ele>54</ele>
        <time>2021-07-18T15:43:48Z</time>
      </trkpt>
      <trkpt lat="43.32903" lon="-1.3967">
        <ele>54</ele>
        <time>2021-07-18T15:43:49Z</time>
      </trkpt>
      <trkpt lat="43.32894" lon="-1.39665">
        <ele>53.8</ele>
        <time>2021-07-18T15:43:51Z</time>
      </trkpt>
      <trkpt lat="43.32889" lon="-1.39662">
        <ele>53.7</ele>
        <time>2021-07-18T15:43:52Z</time>
      </trkpt>
      <trkpt lat="43.32884" lon="-1.39659">
        <ele>53.5</ele>
        <time>2021-07-18T15:43:53Z</time>
      </trkpt>
      <trkpt lat="43.32875" lon="-1.39652">
        <ele>53</ele>
        <time>2021-07-18T15:43:55Z</time>
      </trkpt>
      <trkpt lat="43.32864" lon="-1.39643">
        <ele>52.3</ele>
        <time>2021-07-18T15:43:57Z</time>
      </trkpt>
      <trkpt lat="43.32859" lon="-1.39639">
        <ele>52</ele>
        <time>2021-07-18T15:43:58Z</time>
      </trkpt>
      <trkpt lat="43.32848" lon="-1.39627">
        <ele>51.2</ele>
        <time>2021-07-18T15:44:00Z</time>
      </trkpt>
      <trkpt lat="43.32843" lon="-1.39619">
        <ele>50.8</ele>
        <time>2021-07-18T15:44:01Z</time>
      </trkpt>
      <trkpt lat="43.32837" lon="-1.39601">
        <ele>50.2</ele>
        <time>2021-07-18T15:44:03Z</time>
      </trkpt>
      <trkpt lat="43.32835" lon="-1.39591">
        <ele>49.9</ele>
        <time>2021-07-18T15:44:04Z</time>
      </trkpt>
      <trkpt lat="43.32833" lon="-1.39581">
        <ele>49.6</ele>
        <time>2021-07-18T15:44:05Z</time>
      </trkpt>
      <trkpt lat="43.32828" lon="-1.3956">
        <ele>48.9</ele>
        <time>2021-07-18T15:44:07Z</time>
      </trkpt>
      <trkpt lat="43.32817" lon="-1.39544">
        <ele>48.2</ele>
        <time>2021-07-18T15:44:09Z</time>
      </trkpt>
      <trkpt lat="43.32803" lon="-1.3953">
        <ele>47.6</ele>
        <time>2021-07-18T15:44:11Z</time>
      </trkpt>
      <trkpt lat="43.3279" lon="-1.39517">
        <ele>47.3</ele>
        <time>2021-07-18T15:44:13Z</time>
      </trkpt>
      <trkpt lat="43.32776" lon="-1.39504">
        <ele>47.1</ele>
        <time>2021-07-18T15:44:15Z</time>
      </trkpt>
      <trkpt lat="43.32769" lon="-1.39498">
        <ele>47</ele>
        <time>2021-07-18T15:44:16Z</time>
      </trkpt>
      <trkpt lat="43.32757" lon="-1.39486">
        <ele>46.8</ele>
        <time>2021-07-18T15:44:18Z</time>
      </trkpt>
      <trkpt lat="43.32751" lon="-1.39481">
        <ele>46.8</ele>
        <time>2021-07-18T15:44:19Z</time>
      </trkpt>
      <trkpt lat="43.32738" lon="-1.3947">
        <ele>46.6</ele>
        <time>2021-07-18T15:44:21Z</time>
      </trkpt>
      <trkpt lat="43.32732" lon="-1.39464">
        <ele>46.6</ele>
        <time>2021-07-18T15:44:22Z</time>
      </trkpt>
      <trkpt lat="43.32726" lon="-1.39459">
        <ele>46.5</ele>
        <time>2021-07-18T15:44:23Z</time>
      </trkpt>
      <trkpt lat="43.32715" lon="-1.39448">
        <ele>46.4</ele>
        <time>2021-07-18T15:44:25Z</time>
      </trkpt>
      <trkpt lat="43.32707" lon="-1.39436">
        <ele>46.2</ele>
        <time>2021-07-18T15:44:27Z</time>
      </trkpt>
      <trkpt lat="43.32703" lon="-1.39429">
        <ele>45.9</ele>
        <time>2021-07-18T15:44:28Z</time>
      </trkpt>
      <trkpt lat="43.327" lon="-1.39421">
        <ele>45.6</ele>
        <time>2021-07-18T15:44:29Z</time>
      </trkpt>
      <trkpt lat="43.32697" lon="-1.39412">
        <ele>45.3</ele>
        <time>2021-07-18T15:44:30Z</time>
      </trkpt>
      <trkpt lat="43.32694" lon="-1.39391">
        <ele>44.3</ele>
        <time>2021-07-18T15:44:32Z</time>
      </trkpt>
      <trkpt lat="43.32693" lon="-1.39369">
        <ele>43.3</ele>
        <time>2021-07-18T15:44:34Z</time>
      </trkpt>
      <trkpt lat="43.32693" lon="-1.39358">
        <ele>42.8</ele>
        <time>2021-07-18T15:44:35Z</time>
      </trkpt>
      <trkpt lat="43.32695" lon="-1.39334">
        <ele>41.9</ele>
        <time>2021-07-18T15:44:37Z</time>
      </trkpt>
      <trkpt lat="43.32696" lon="-1.3931">
        <ele>41</ele>
        <time>2021-07-18T15:44:39Z</time>
      </trkpt>
      <trkpt lat="43.32696" lon="-1.39297">
        <ele>40.6</ele>
        <time>2021-07-18T15:44:40Z</time>
      </trkpt>
      <trkpt lat="43.32697" lon="-1.39273">
        <ele>39.9</ele>
        <time>2021-07-18T15:44:42Z</time>
      </trkpt>
      <trkpt lat="43.32698" lon="-1.3925">
        <ele>39.3</ele>
        <time>2021-07-18T15:44:44Z</time>
      </trkpt>
      <trkpt lat="43.32698" lon="-1.39239">
        <ele>39</ele>
        <time>2021-07-18T15:44:45Z</time>
      </trkpt>
      <trkpt lat="43.32698" lon="-1.39227">
        <ele>38.7</ele>
        <time>2021-07-18T15:44:46Z</time>
      </trkpt>
      <trkpt lat="43.32699" lon="-1.39205">
        <ele>38.2</ele>
        <time>2021-07-18T15:44:48Z</time>
      </trkpt>
      <trkpt lat="43.327" lon="-1.39183">
        <ele>37.8</ele>
        <time>2021-07-18T15:44:50Z</time>
      </trkpt>
      <trkpt lat="43.32701" lon="-1.39173">
        <ele>37.6</ele>
        <time>2021-07-18T15:44:51Z</time>
      </trkpt>
      <trkpt lat="43.32705" lon="-1.39153">
        <ele>37.3</ele>
        <time>2021-07-18T15:44:53Z</time>
      </trkpt>
      <trkpt lat="43.32709" lon="-1.39134">
        <ele>37.1</ele>
        <time>2021-07-18T15:44:55Z</time>
      </trkpt>
      <trkpt lat="43.32714" lon="-1.39116">
        <ele>37.1</ele>
        <time>2021-07-18T15:44:57Z</time>
      </trkpt>
      <trkpt lat="43.32717" lon="-1.39108">
        <ele>37.1</ele>
        <time>2021-07-18T15:44:58Z</time>
      </trkpt>
      <trkpt lat="43.32722" lon="-1.39093">
        <ele>37.3</ele>
        <time>2021-07-18T15:45:00Z</time>
      </trkpt>
      <trkpt lat="43.32725" lon="-1.39086">
        <ele>37.4</ele>
        <time>2021-07-18T15:45:01Z</time>
      </trkpt>
      <trkpt lat="43.3273" lon="-1.39074">
        <ele>37.8</ele>
        <time>2021-07-18T15:45:03Z</time>
      </trkpt>
      <trkpt lat="43.32732" lon="-1.39068">
        <ele>38</ele>
        <time>2021-07-18T15:45:04Z</time>
      </trkpt>
      <trkpt lat="43.32734" lon="-1.39063">
        <ele>38.2</ele>
        <time>2021-07-18T15:45:05Z</time>
      </trkpt>
      <trkpt lat="43.32737" lon="-1.39055">
        <ele>38.5</ele>
        <time>2021-07-18T15:45:07Z</time>
      </trkpt>
      <trkpt lat="43.32739" lon="-1.39051">
        <ele>38.6</ele>
        <time>2021-07-18T15:45:08Z</time>
      </trkpt>
      <trkpt lat="43.32741" lon="-1.39047">
        <ele>38.7</ele>
        <time>2021-07-18T15:45:09Z</time>
      </trkpt>
      <trkpt lat="43.32742" lon="-1.39043">
        <ele>38.7</ele>
        <time>2021-07-18T15:45:10Z</time>
      </trkpt>
      <trkpt lat="43.32745" lon="-1.39036">
        <ele>38.9</ele>
        <time>2021-07-18T15:45:12Z</time>
      </trkpt>
      <trkpt lat="43.32747" lon="-1.39036">
        <ele>39</ele>
        <time>2021-07-18T15:45:13Z</time>
      </trkpt>
      <trkpt lat="43.32749" lon="-1.3903">
        <ele>39.1</ele>
        <time>2021-07-18T15:45:15Z</time>
      </trkpt>
      <trkpt lat="43.32752" lon="-1.39022">
        <ele>39.2</ele>
        <time>2021-07-18T15:45:17Z</time>
      </trkpt>
      <trkpt lat="43.32754" lon="-1.39015">
        <ele>39.3</ele>
        <time>2021-07-18T15:45:19Z</time>
      </trkpt>
      <trkpt lat="43.32757" lon="-1.39011">
        <ele>39.3</ele>
        <time>2021-07-18T15:45:20Z</time>
      </trkpt>
      <trkpt lat="43.32758" lon="-1.39009">
        <ele>39.4</ele>
        <time>2021-07-18T15:45:21Z</time>
      </trkpt>
      <trkpt lat="43.32759" lon="-1.39006">
        <ele>39.4</ele>
        <time>2021-07-18T15:45:22Z</time>
      </trkpt>
      <trkpt lat="43.32762" lon="-1.38998">
        <ele>39.4</ele>
        <time>2021-07-18T15:45:24Z</time>
      </trkpt>
      <trkpt lat="43.32765" lon="-1.38992">
        <ele>39.4</ele>
        <time>2021-07-18T15:45:25Z</time>
      </trkpt>
      <trkpt lat="43.32767" lon="-1.38986">
        <ele>39.4</ele>
        <time>2021-07-18T15:45:26Z</time>
      </trkpt>
      <trkpt lat="43.3277" lon="-1.38978">
        <ele>39.4</ele>
        <time>2021-07-18T15:45:28Z</time>
      </trkpt>
      <trkpt lat="43.32774" lon="-1.38967">
        <ele>39.6</ele>
        <time>2021-07-18T15:45:30Z</time>
      </trkpt>
      <trkpt lat="43.32777" lon="-1.3896">
        <ele>39.7</ele>
        <time>2021-07-18T15:45:31Z</time>
      </trkpt>
      <trkpt lat="43.3278" lon="-1.38949">
        <ele>39.8</ele>
        <time>2021-07-18T15:45:33Z</time>
      </trkpt>
      <trkpt lat="43.32781" lon="-1.38939">
        <ele>39.9</ele>
        <time>2021-07-18T15:45:35Z</time>
      </trkpt>
      <trkpt lat="43.32781" lon="-1.38934">
        <ele>40</ele>
        <time>2021-07-18T15:45:36Z</time>
      </trkpt>
      <trkpt lat="43.32782" lon="-1.38931">
        <ele>40</ele>
        <time>2021-07-18T15:45:37Z</time>
      </trkpt>
      <trkpt lat="43.32782" lon="-1.38925">
        <ele>40.1</ele>
        <time>2021-07-18T15:45:38Z</time>
      </trkpt>
      <trkpt lat="43.32782" lon="-1.38924">
        <ele>40.1</ele>
        <time>2021-07-18T15:45:39Z</time>
      </trkpt>
      <trkpt lat="43.32783" lon="-1.38918">
        <ele>40.3</ele>
        <time>2021-07-18T15:45:41Z</time>
      </trkpt>
      <trkpt lat="43.32783" lon="-1.38911">
        <ele>40.6</ele>
        <time>2021-07-18T15:45:43Z</time>
      </trkpt>
      <trkpt lat="43.32783" lon="-1.38906">
        <ele>40.8</ele>
        <time>2021-07-18T15:45:45Z</time>
      </trkpt>
      <trkpt lat="43.32782" lon="-1.38903">
        <ele>40.9</ele>
        <time>2021-07-18T15:45:46Z</time>
      </trkpt>
      <trkpt lat="43.32783" lon="-1.38898">
        <ele>41.1</ele>
        <time>2021-07-18T15:45:48Z</time>
      </trkpt>
      <trkpt lat="43.32782" lon="-1.38892">
        <ele>41.4</ele>
        <time>2021-07-18T15:45:50Z</time>
      </trkpt>
      <trkpt lat="43.32782" lon="-1.3889">
        <ele>41.5</ele>
        <time>2021-07-18T15:45:51Z</time>
      </trkpt>
      <trkpt lat="43.32782" lon="-1.38888">
        <ele>41.6</ele>
        <time>2021-07-18T15:45:52Z</time>
      </trkpt>
      <trkpt lat="43.32781" lon="-1.38884">
        <ele>41.8</ele>
        <time>2021-07-18T15:45:54Z</time>
      </trkpt>
      <trkpt lat="43.32781" lon="-1.38883">
        <ele>41.9</ele>
        <time>2021-07-18T15:45:55Z</time>
      </trkpt>
      <trkpt lat="43.32782" lon="-1.3888">
        <ele>42.1</ele>
        <time>2021-07-18T15:45:57Z</time>
      </trkpt>
      <trkpt lat="43.32782" lon="-1.38878">
        <ele>42.2</ele>
        <time>2021-07-18T15:45:58Z</time>
      </trkpt>
      <trkpt lat="43.32782" lon="-1.38876">
        <ele>42.3</ele>
        <time>2021-07-18T15:45:59Z</time>
      </trkpt>
      <trkpt lat="43.32781" lon="-1.38871">
        <ele>42.6</ele>
        <time>2021-07-18T15:46:01Z</time>
      </trkpt>
      <trkpt lat="43.32781" lon="-1.38866">
        <ele>42.8</ele>
        <time>2021-07-18T15:46:03Z</time>
      </trkpt>
      <trkpt lat="43.32782" lon="-1.38862">
        <ele>43.1</ele>
        <time>2021-07-18T15:46:05Z</time>
      </trkpt>
      <trkpt lat="43.32781" lon="-1.38857">
        <ele>43.4</ele>
        <time>2021-07-18T15:46:07Z</time>
      </trkpt>
      <trkpt lat="43.32781" lon="-1.38852">
        <ele>43.7</ele>
        <time>2021-07-18T15:46:09Z</time>
      </trkpt>
      <trkpt lat="43.32781" lon="-1.38849">
        <ele>43.9</ele>
        <time>2021-07-18T15:46:10Z</time>
      </trkpt>
      <trkpt lat="43.32781" lon="-1.38844">
        <ele>44.1</ele>
        <time>2021-07-18T15:46:12Z</time>
      </trkpt>
      <trkpt lat="43.32781" lon="-1.38842">
        <ele>44.3</ele>
        <time>2021-07-18T15:46:13Z</time>
      </trkpt>
      <trkpt lat="43.32781" lon="-1.3884">
        <ele>44.4</ele>
        <time>2021-07-18T15:46:14Z</time>
      </trkpt>
      <trkpt lat="43.32781" lon="-1.38838">
        <ele>44.5</ele>
        <time>2021-07-18T15:46:15Z</time>
      </trkpt>
      <trkpt lat="43.32782" lon="-1.38834">
        <ele>44.8</ele>
        <time>2021-07-18T15:46:17Z</time>
      </trkpt>
      <trkpt lat="43.32782" lon="-1.3883">
        <ele>45</ele>
        <time>2021-07-18T15:46:19Z</time>
      </trkpt>
      <trkpt lat="43.32783" lon="-1.38828">
        <ele>45.1</ele>
        <time>2021-07-18T15:46:20Z</time>
      </trkpt>
      <trkpt lat="43.32783" lon="-1.38824">
        <ele>45.4</ele>
        <time>2021-07-18T15:46:22Z</time>
      </trkpt>
      <trkpt lat="43.32783" lon="-1.38821">
        <ele>45.5</ele>
        <time>2021-07-18T15:46:23Z</time>
      </trkpt>
      <trkpt lat="43.32783" lon="-1.38819">
        <ele>45.6</ele>
        <time>2021-07-18T15:46:24Z</time>
      </trkpt>
      <trkpt lat="43.32782" lon="-1.38815">
        <ele>45.9</ele>
        <time>2021-07-18T15:46:26Z</time>
      </trkpt>
      <trkpt lat="43.32781" lon="-1.38813">
        <ele>46</ele>
        <time>2021-07-18T15:46:27Z</time>
      </trkpt>
      <trkpt lat="43.32781" lon="-1.38812">
        <ele>46.1</ele>
        <time>2021-07-18T15:46:28Z</time>
      </trkpt>
      <trkpt lat="43.3278" lon="-1.38807">
        <ele>46.3</ele>
        <time>2021-07-18T15:46:30Z</time>
      </trkpt>
      <trkpt lat="43.3278" lon="-1.38802">
        <ele>46.6</ele>
        <time>2021-07-18T15:46:32Z</time>
      </trkpt>
      <trkpt lat="43.32779" lon="-1.388">
        <ele>46.7</ele>
        <time>2021-07-18T15:46:33Z</time>
      </trkpt>
      <trkpt lat="43.32779" lon="-1.38794">
        <ele>47</ele>
        <time>2021-07-18T15:46:35Z</time>
      </trkpt>
      <trkpt lat="43.32778" lon="-1.38788">
        <ele>47.3</ele>
        <time>2021-07-18T15:46:37Z</time>
      </trkpt>
      <trkpt lat="43.32777" lon="-1.38783">
        <ele>47.5</ele>
        <time>2021-07-18T15:46:39Z</time>
      </trkpt>
      <trkpt lat="43.32776" lon="-1.38779">
        <ele>47.7</ele>
        <time>2021-07-18T15:46:41Z</time>
      </trkpt>
      <trkpt lat="43.32773" lon="-1.38774">
        <ele>48</ele>
        <time>2021-07-18T15:46:43Z</time>
      </trkpt>
      <trkpt lat="43.32772" lon="-1.38769">
        <ele>48.2</ele>
        <time>2021-07-18T15:46:45Z</time>
      </trkpt>
      <trkpt lat="43.32771" lon="-1.38766">
        <ele>48.3</ele>
        <time>2021-07-18T15:46:46Z</time>
      </trkpt>
      <trkpt lat="43.32768" lon="-1.3876">
        <ele>48.6</ele>
        <time>2021-07-18T15:46:48Z</time>
      </trkpt>
      <trkpt lat="43.32766" lon="-1.38757">
        <ele>48.8</ele>
        <time>2021-07-18T15:46:49Z</time>
      </trkpt>
      <trkpt lat="43.32766" lon="-1.38756">
        <ele>48.8</ele>
        <time>2021-07-18T15:46:50Z</time>
      </trkpt>
      <trkpt lat="43.32763" lon="-1.38751">
        <ele>49</ele>
        <time>2021-07-18T15:46:52Z</time>
      </trkpt>
      <trkpt lat="43.32762" lon="-1.38747">
        <ele>49.2</ele>
        <time>2021-07-18T15:46:54Z</time>
      </trkpt>
      <trkpt lat="43.32759" lon="-1.38742">
        <ele>49.4</ele>
        <time>2021-07-18T15:46:56Z</time>
      </trkpt>
      <trkpt lat="43.32757" lon="-1.38736">
        <ele>49.5</ele>
        <time>2021-07-18T15:46:58Z</time>
      </trkpt>
      <trkpt lat="43.32756" lon="-1.38734">
        <ele>49.5</ele>
        <time>2021-07-18T15:46:59Z</time>
      </trkpt>
      <trkpt lat="43.32755" lon="-1.38727">
        <ele>49.7</ele>
        <time>2021-07-18T15:47:01Z</time>
      </trkpt>
      <trkpt lat="43.32755" lon="-1.38718">
        <ele>49.7</ele>
        <time>2021-07-18T15:47:03Z</time>
      </trkpt>
      <trkpt lat="43.32755" lon="-1.38713">
        <ele>49.8</ele>
        <time>2021-07-18T15:47:04Z</time>
      </trkpt>
      <trkpt lat="43.32754" lon="-1.38704">
        <ele>49.8</ele>
        <time>2021-07-18T15:47:06Z</time>
      </trkpt>
      <trkpt lat="43.32757" lon="-1.38699">
        <ele>49.9</ele>
        <time>2021-07-18T15:47:07Z</time>
      </trkpt>
      <trkpt lat="43.32756" lon="-1.38687">
        <ele>49.9</ele>
        <time>2021-07-18T15:47:09Z</time>
      </trkpt>
      <trkpt lat="43.32756" lon="-1.38681">
        <ele>49.9</ele>
        <time>2021-07-18T15:47:10Z</time>
      </trkpt>
      <trkpt lat="43.32755" lon="-1.38675">
        <ele>49.9</ele>
        <time>2021-07-18T15:47:11Z</time>
      </trkpt>
      <trkpt lat="43.32753" lon="-1.38665">
        <ele>49.9</ele>
        <time>2021-07-18T15:47:13Z</time>
      </trkpt>
      <trkpt lat="43.3275" lon="-1.38657">
        <ele>49.9</ele>
        <time>2021-07-18T15:47:15Z</time>
      </trkpt>
      <trkpt lat="43.32748" lon="-1.38653">
        <ele>50</ele>
        <time>2021-07-18T15:47:16Z</time>
      </trkpt>
      <trkpt lat="43.32746" lon="-1.38649">
        <ele>50.1</ele>
        <time>2021-07-18T15:47:17Z</time>
      </trkpt>
      <trkpt lat="43.32743" lon="-1.38645">
        <ele>50.2</ele>
        <time>2021-07-18T15:47:19Z</time>
      </trkpt>
      <trkpt lat="43.32739" lon="-1.38638">
        <ele>50.3</ele>
        <time>2021-07-18T15:47:21Z</time>
      </trkpt>
      <trkpt lat="43.32737" lon="-1.38635">
        <ele>50.3</ele>
        <time>2021-07-18T15:47:22Z</time>
      </trkpt>
      <trkpt lat="43.32734" lon="-1.38631">
        <ele>50.4</ele>
        <time>2021-07-18T15:47:23Z</time>
      </trkpt>
      <trkpt lat="43.3273" lon="-1.38623">
        <ele>50.5</ele>
        <time>2021-07-18T15:47:25Z</time>
      </trkpt>
      <trkpt lat="43.32728" lon="-1.3862">
        <ele>50.6</ele>
        <time>2021-07-18T15:47:26Z</time>
      </trkpt>
      <trkpt lat="43.32723" lon="-1.38613">
        <ele>50.7</ele>
        <time>2021-07-18T15:47:28Z</time>
      </trkpt>
      <trkpt lat="43.32718" lon="-1.38606">
        <ele>50.9</ele>
        <time>2021-07-18T15:47:30Z</time>
      </trkpt>
      <trkpt lat="43.32716" lon="-1.38602">
        <ele>51</ele>
        <time>2021-07-18T15:47:31Z</time>
      </trkpt>
      <trkpt lat="43.32711" lon="-1.38596">
        <ele>51.1</ele>
        <time>2021-07-18T15:47:33Z</time>
      </trkpt>
      <trkpt lat="43.32706" lon="-1.38588">
        <ele>51.3</ele>
        <time>2021-07-18T15:47:35Z</time>
      </trkpt>
      <trkpt lat="43.32704" lon="-1.38585">
        <ele>51.3</ele>
        <time>2021-07-18T15:47:36Z</time>
      </trkpt>
      <trkpt lat="43.32702" lon="-1.38581">
        <ele>51.4</ele>
        <time>2021-07-18T15:47:37Z</time>
      </trkpt>
      <trkpt lat="43.32699" lon="-1.38578">
        <ele>51.5</ele>
        <time>2021-07-18T15:47:38Z</time>
      </trkpt>
      <trkpt lat="43.32695" lon="-1.38571">
        <ele>51.7</ele>
        <time>2021-07-18T15:47:40Z</time>
      </trkpt>
      <trkpt lat="43.32693" lon="-1.38568">
        <ele>51.7</ele>
        <time>2021-07-18T15:47:41Z</time>
      </trkpt>
      <trkpt lat="43.3269" lon="-1.38565">
        <ele>51.8</ele>
        <time>2021-07-18T15:47:42Z</time>
      </trkpt>
      <trkpt lat="43.32685" lon="-1.38558">
        <ele>52</ele>
        <time>2021-07-18T15:47:44Z</time>
      </trkpt>
      <trkpt lat="43.32681" lon="-1.38551">
        <ele>52.1</ele>
        <time>2021-07-18T15:47:46Z</time>
      </trkpt>
      <trkpt lat="43.32679" lon="-1.38548">
        <ele>52.2</ele>
        <time>2021-07-18T15:47:47Z</time>
      </trkpt>
      <trkpt lat="43.32677" lon="-1.38544">
        <ele>52.3</ele>
        <time>2021-07-18T15:47:48Z</time>
      </trkpt>
      <trkpt lat="43.32674" lon="-1.3854">
        <ele>52.3</ele>
        <time>2021-07-18T15:47:49Z</time>
      </trkpt>
      <trkpt lat="43.32669" lon="-1.38532">
        <ele>52.4</ele>
        <time>2021-07-18T15:47:51Z</time>
      </trkpt>
      <trkpt lat="43.32667" lon="-1.38529">
        <ele>52.5</ele>
        <time>2021-07-18T15:47:52Z</time>
      </trkpt>
      <trkpt lat="43.32665" lon="-1.38525">
        <ele>52.5</ele>
        <time>2021-07-18T15:47:53Z</time>
      </trkpt>
      <trkpt lat="43.3266" lon="-1.38517">
        <ele>52.6</ele>
        <time>2021-07-18T15:47:55Z</time>
      </trkpt>
      <trkpt lat="43.32658" lon="-1.38514">
        <ele>52.7</ele>
        <time>2021-07-18T15:47:56Z</time>
      </trkpt>
      <trkpt lat="43.32654" lon="-1.38507">
        <ele>52.8</ele>
        <time>2021-07-18T15:47:58Z</time>
      </trkpt>
      <trkpt lat="43.32649" lon="-1.38498">
        <ele>52.9</ele>
        <time>2021-07-18T15:48:00Z</time>
      </trkpt>
      <trkpt lat="43.32645" lon="-1.38492">
        <ele>53</ele>
        <time>2021-07-18T15:48:02Z</time>
      </trkpt>
      <trkpt lat="43.32641" lon="-1.38485">
        <ele>53.1</ele>
        <time>2021-07-18T15:48:04Z</time>
      </trkpt>
      <trkpt lat="43.32637" lon="-1.38476">
        <ele>53.2</ele>
        <time>2021-07-18T15:48:06Z</time>
      </trkpt>
      <trkpt lat="43.32633" lon="-1.38469">
        <ele>53.3</ele>
        <time>2021-07-18T15:48:08Z</time>
      </trkpt>
      <trkpt lat="43.32629" lon="-1.38462">
        <ele>53.3</ele>
        <time>2021-07-18T15:48:09Z</time>
      </trkpt>
      <trkpt lat="43.32625" lon="-1.38454">
        <ele>53.3</ele>
        <time>2021-07-18T15:48:11Z</time>
      </trkpt>
      <trkpt lat="43.32623" lon="-1.3845">
        <ele>53.4</ele>
        <time>2021-07-18T15:48:12Z</time>
      </trkpt>
      <trkpt lat="43.32618" lon="-1.38442">
        <ele>53.4</ele>
        <time>2021-07-18T15:48:14Z</time>
      </trkpt>
      <trkpt lat="43.32615" lon="-1.38437">
        <ele>53.5</ele>
        <time>2021-07-18T15:48:15Z</time>
      </trkpt>
      <trkpt lat="43.3261" lon="-1.38428">
        <ele>53.6</ele>
        <time>2021-07-18T15:48:17Z</time>
      </trkpt>
      <trkpt lat="43.32606" lon="-1.38419">
        <ele>53.7</ele>
        <time>2021-07-18T15:48:19Z</time>
      </trkpt>
      <trkpt lat="43.32604" lon="-1.38414">
        <ele>53.7</ele>
        <time>2021-07-18T15:48:20Z</time>
      </trkpt>
      <trkpt lat="43.32599" lon="-1.38407">
        <ele>53.8</ele>
        <time>2021-07-18T15:48:22Z</time>
      </trkpt>
      <trkpt lat="43.32597" lon="-1.38402">
        <ele>53.9</ele>
        <time>2021-07-18T15:48:23Z</time>
      </trkpt>
      <trkpt lat="43.32593" lon="-1.38394">
        <ele>54</ele>
        <time>2021-07-18T15:48:25Z</time>
      </trkpt>
      <trkpt lat="43.32588" lon="-1.38386">
        <ele>54.1</ele>
        <time>2021-07-18T15:48:27Z</time>
      </trkpt>
      <trkpt lat="43.32584" lon="-1.3838">
        <ele>54.2</ele>
        <time>2021-07-18T15:48:29Z</time>
      </trkpt>
      <trkpt lat="43.32581" lon="-1.38374">
        <ele>54.3</ele>
        <time>2021-07-18T15:48:30Z</time>
      </trkpt>
      <trkpt lat="43.32576" lon="-1.38365">
        <ele>54.5</ele>
        <time>2021-07-18T15:48:32Z</time>
      </trkpt>
      <trkpt lat="43.32574" lon="-1.38361">
        <ele>54.6</ele>
        <time>2021-07-18T15:48:33Z</time>
      </trkpt>
      <trkpt lat="43.3257" lon="-1.38353">
        <ele>54.7</ele>
        <time>2021-07-18T15:48:35Z</time>
      </trkpt>
      <trkpt lat="43.32566" lon="-1.38345">
        <ele>54.9</ele>
        <time>2021-07-18T15:48:37Z</time>
      </trkpt>
      <trkpt lat="43.32564" lon="-1.38341">
        <ele>55</ele>
        <time>2021-07-18T15:48:38Z</time>
      </trkpt>
      <trkpt lat="43.3256" lon="-1.38333">
        <ele>55.2</ele>
        <time>2021-07-18T15:48:40Z</time>
      </trkpt>
      <trkpt lat="43.32558" lon="-1.3833">
        <ele>55.3</ele>
        <time>2021-07-18T15:48:41Z</time>
      </trkpt>
      <trkpt lat="43.32556" lon="-1.38326">
        <ele>55.4</ele>
        <time>2021-07-18T15:48:42Z</time>
      </trkpt>
      <trkpt lat="43.32552" lon="-1.38318">
        <ele>55.6</ele>
        <time>2021-07-18T15:48:44Z</time>
      </trkpt>
      <trkpt lat="43.3255" lon="-1.38315">
        <ele>55.7</ele>
        <time>2021-07-18T15:48:45Z</time>
      </trkpt>
      <trkpt lat="43.32547" lon="-1.38311">
        <ele>55.8</ele>
        <time>2021-07-18T15:48:46Z</time>
      </trkpt>
      <trkpt lat="43.32543" lon="-1.38305">
        <ele>55.9</ele>
        <time>2021-07-18T15:48:48Z</time>
      </trkpt>
      <trkpt lat="43.32542" lon="-1.38301">
        <ele>56</ele>
        <time>2021-07-18T15:48:49Z</time>
      </trkpt>
      <trkpt lat="43.32538" lon="-1.38295">
        <ele>56.2</ele>
        <time>2021-07-18T15:48:51Z</time>
      </trkpt>
      <trkpt lat="43.32535" lon="-1.38289">
        <ele>56.3</ele>
        <time>2021-07-18T15:48:53Z</time>
      </trkpt>
      <trkpt lat="43.32533" lon="-1.38286">
        <ele>56.4</ele>
        <time>2021-07-18T15:48:54Z</time>
      </trkpt>
      <trkpt lat="43.3253" lon="-1.3828">
        <ele>56.6</ele>
        <time>2021-07-18T15:48:56Z</time>
      </trkpt>
      <trkpt lat="43.32528" lon="-1.38277">
        <ele>56.7</ele>
        <time>2021-07-18T15:48:57Z</time>
      </trkpt>
      <trkpt lat="43.32527" lon="-1.38273">
        <ele>56.8</ele>
        <time>2021-07-18T15:48:58Z</time>
      </trkpt>
      <trkpt lat="43.32524" lon="-1.38267">
        <ele>57</ele>
        <time>2021-07-18T15:49:00Z</time>
      </trkpt>
      <trkpt lat="43.32523" lon="-1.38264">
        <ele>57.1</ele>
        <time>2021-07-18T15:49:01Z</time>
      </trkpt>
      <trkpt lat="43.3252" lon="-1.38257">
        <ele>57.3</ele>
        <time>2021-07-18T15:49:03Z</time>
      </trkpt>
      <trkpt lat="43.32519" lon="-1.38254">
        <ele>57.3</ele>
        <time>2021-07-18T15:49:04Z</time>
      </trkpt>
      <trkpt lat="43.32516" lon="-1.38247">
        <ele>57.6</ele>
        <time>2021-07-18T15:49:06Z</time>
      </trkpt>
      <trkpt lat="43.32514" lon="-1.38244">
        <ele>57.7</ele>
        <time>2021-07-18T15:49:07Z</time>
      </trkpt>
      <trkpt lat="43.32511" lon="-1.38236">
        <ele>57.9</ele>
        <time>2021-07-18T15:49:09Z</time>
      </trkpt>
      <trkpt lat="43.3251" lon="-1.38232">
        <ele>58</ele>
        <time>2021-07-18T15:49:10Z</time>
      </trkpt>
      <trkpt lat="43.32507" lon="-1.38224">
        <ele>58.2</ele>
        <time>2021-07-18T15:49:12Z</time>
      </trkpt>
      <trkpt lat="43.32505" lon="-1.38218">
        <ele>58.3</ele>
        <time>2021-07-18T15:49:14Z</time>
      </trkpt>
      <trkpt lat="43.32502" lon="-1.3821">
        <ele>58.5</ele>
        <time>2021-07-18T15:49:16Z</time>
      </trkpt>
      <trkpt lat="43.32501" lon="-1.38207">
        <ele>58.7</ele>
        <time>2021-07-18T15:49:17Z</time>
      </trkpt>
      <trkpt lat="43.32499" lon="-1.38203">
        <ele>58.8</ele>
        <time>2021-07-18T15:49:18Z</time>
      </trkpt>
      <trkpt lat="43.32497" lon="-1.38197">
        <ele>59</ele>
        <time>2021-07-18T15:49:20Z</time>
      </trkpt>
      <trkpt lat="43.32495" lon="-1.38191">
        <ele>59.1</ele>
        <time>2021-07-18T15:49:21Z</time>
      </trkpt>
      <trkpt lat="43.32494" lon="-1.38189">
        <ele>59.2</ele>
        <time>2021-07-18T15:49:22Z</time>
      </trkpt>
      <trkpt lat="43.32493" lon="-1.38185">
        <ele>59.3</ele>
        <time>2021-07-18T15:49:24Z</time>
      </trkpt>
      <trkpt lat="43.32491" lon="-1.3818">
        <ele>59.5</ele>
        <time>2021-07-18T15:49:25Z</time>
      </trkpt>
      <trkpt lat="43.32489" lon="-1.38175">
        <ele>59.6</ele>
        <time>2021-07-18T15:49:26Z</time>
      </trkpt>
      <trkpt lat="43.32487" lon="-1.3817">
        <ele>59.8</ele>
        <time>2021-07-18T15:49:28Z</time>
      </trkpt>
      <trkpt lat="43.32485" lon="-1.38166">
        <ele>59.9</ele>
        <time>2021-07-18T15:49:29Z</time>
      </trkpt>
      <trkpt lat="43.32484" lon="-1.38162">
        <ele>60.1</ele>
        <time>2021-07-18T15:49:30Z</time>
      </trkpt>
      <trkpt lat="43.32483" lon="-1.38159">
        <ele>60.2</ele>
        <time>2021-07-18T15:49:31Z</time>
      </trkpt>
      <trkpt lat="43.32482" lon="-1.38155">
        <ele>60.3</ele>
        <time>2021-07-18T15:49:32Z</time>
      </trkpt>
      <trkpt lat="43.32479" lon="-1.3815">
        <ele>60.5</ele>
        <time>2021-07-18T15:49:34Z</time>
      </trkpt>
      <trkpt lat="43.32478" lon="-1.38146">
        <ele>60.6</ele>
        <time>2021-07-18T15:49:35Z</time>
      </trkpt>
      <trkpt lat="43.32477" lon="-1.38142">
        <ele>60.7</ele>
        <time>2021-07-18T15:49:36Z</time>
      </trkpt>
      <trkpt lat="43.32476" lon="-1.38139">
        <ele>60.8</ele>
        <time>2021-07-18T15:49:37Z</time>
      </trkpt>
      <trkpt lat="43.32474" lon="-1.38135">
        <ele>61</ele>
        <time>2021-07-18T15:49:38Z</time>
      </trkpt>
      <trkpt lat="43.32471" lon="-1.38128">
        <ele>61.2</ele>
        <time>2021-07-18T15:49:40Z</time>
      </trkpt>
      <trkpt lat="43.3247" lon="-1.38125">
        <ele>61.3</ele>
        <time>2021-07-18T15:49:41Z</time>
      </trkpt>
      <trkpt lat="43.32468" lon="-1.38122">
        <ele>61.5</ele>
        <time>2021-07-18T15:49:42Z</time>
      </trkpt>
      <trkpt lat="43.32465" lon="-1.38115">
        <ele>61.7</ele>
        <time>2021-07-18T15:49:44Z</time>
      </trkpt>
      <trkpt lat="43.32463" lon="-1.38112">
        <ele>61.9</ele>
        <time>2021-07-18T15:49:45Z</time>
      </trkpt>
      <trkpt lat="43.32462" lon="-1.38108">
        <ele>62</ele>
        <time>2021-07-18T15:49:46Z</time>
      </trkpt>
      <trkpt lat="43.3246" lon="-1.38103">
        <ele>62.3</ele>
        <time>2021-07-18T15:49:48Z</time>
      </trkpt>
      <trkpt lat="43.32459" lon="-1.38099">
        <ele>62.5</ele>
        <time>2021-07-18T15:49:49Z</time>
      </trkpt>
      <trkpt lat="43.32458" lon="-1.38097">
        <ele>62.5</ele>
        <time>2021-07-18T15:49:50Z</time>
      </trkpt>
      <trkpt lat="43.32457" lon="-1.38092">
        <ele>62.7</ele>
        <time>2021-07-18T15:49:52Z</time>
      </trkpt>
      <trkpt lat="43.32456" lon="-1.3809">
        <ele>62.8</ele>
        <time>2021-07-18T15:49:53Z</time>
      </trkpt>
      <trkpt lat="43.32455" lon="-1.38087">
        <ele>63</ele>
        <time>2021-07-18T15:49:54Z</time>
      </trkpt>
      <trkpt lat="43.32454" lon="-1.38086">
        <ele>63</ele>
        <time>2021-07-18T15:49:55Z</time>
      </trkpt>
      <trkpt lat="43.32453" lon="-1.38082">
        <ele>63.2</ele>
        <time>2021-07-18T15:49:56Z</time>
      </trkpt>
      <trkpt lat="43.32452" lon="-1.38081">
        <ele>63.2</ele>
        <time>2021-07-18T15:49:57Z</time>
      </trkpt>
      <trkpt lat="43.32451" lon="-1.38077">
        <ele>63.4</ele>
        <time>2021-07-18T15:49:58Z</time>
      </trkpt>
      <trkpt lat="43.32449" lon="-1.38073">
        <ele>63.6</ele>
        <time>2021-07-18T15:49:59Z</time>
      </trkpt>
      <trkpt lat="43.32449" lon="-1.38072">
        <ele>63.6</ele>
        <time>2021-07-18T15:50:00Z</time>
      </trkpt>
      <trkpt lat="43.32448" lon="-1.38066">
        <ele>63.8</ele>
        <time>2021-07-18T15:50:02Z</time>
      </trkpt>
      <trkpt lat="43.32447" lon="-1.38065">
        <ele>63.9</ele>
        <time>2021-07-18T15:50:03Z</time>
      </trkpt>
      <trkpt lat="43.32447" lon="-1.38063">
        <ele>64</ele>
        <time>2021-07-18T15:50:04Z</time>
      </trkpt>
      <trkpt lat="43.32446" lon="-1.38058">
        <ele>64.2</ele>
        <time>2021-07-18T15:50:05Z</time>
      </trkpt>
      <trkpt lat="43.32445" lon="-1.38056">
        <ele>64.3</ele>
        <time>2021-07-18T15:50:06Z</time>
      </trkpt>
      <trkpt lat="43.32444" lon="-1.38053">
        <ele>64.4</ele>
        <time>2021-07-18T15:50:08Z</time>
      </trkpt>
      <trkpt lat="43.32443" lon="-1.38048">
        <ele>64.6</ele>
        <time>2021-07-18T15:50:09Z</time>
      </trkpt>
      <trkpt lat="43.32442" lon="-1.38047">
        <ele>64.7</ele>
        <time>2021-07-18T15:50:10Z</time>
      </trkpt>
      <trkpt lat="43.32441" lon="-1.38042">
        <ele>64.9</ele>
        <time>2021-07-18T15:50:11Z</time>
      </trkpt>
      <trkpt lat="43.32441" lon="-1.3804">
        <ele>64.9</ele>
        <time>2021-07-18T15:50:12Z</time>
      </trkpt>
      <trkpt lat="43.3244" lon="-1.38036">
        <ele>65.1</ele>
        <time>2021-07-18T15:50:14Z</time>
      </trkpt>
      <trkpt lat="43.32439" lon="-1.38031">
        <ele>65.3</ele>
        <time>2021-07-18T15:50:15Z</time>
      </trkpt>
      <trkpt lat="43.32438" lon="-1.38028">
        <ele>65.4</ele>
        <time>2021-07-18T15:50:16Z</time>
      </trkpt>
      <trkpt lat="43.32437" lon="-1.38024">
        <ele>65.6</ele>
        <time>2021-07-18T15:50:18Z</time>
      </trkpt>
      <trkpt lat="43.32436" lon="-1.38019">
        <ele>65.8</ele>
        <time>2021-07-18T15:50:19Z</time>
      </trkpt>
      <trkpt lat="43.32434" lon="-1.38014">
        <ele>66</ele>
        <time>2021-07-18T15:50:20Z</time>
      </trkpt>
      <trkpt lat="43.32434" lon="-1.38012">
        <ele>66.1</ele>
        <time>2021-07-18T15:50:21Z</time>
      </trkpt>
      <trkpt lat="43.32433" lon="-1.38009">
        <ele>66.2</ele>
        <time>2021-07-18T15:50:22Z</time>
      </trkpt>
      <trkpt lat="43.32432" lon="-1.38004">
        <ele>66.4</ele>
        <time>2021-07-18T15:50:24Z</time>
      </trkpt>
      <trkpt lat="43.32431" lon="-1.38001">
        <ele>66.6</ele>
        <time>2021-07-18T15:50:25Z</time>
      </trkpt>
      <trkpt lat="43.3243" lon="-1.37996">
        <ele>66.8</ele>
        <time>2021-07-18T15:50:27Z</time>
      </trkpt>
      <trkpt lat="43.32428" lon="-1.37991">
        <ele>67</ele>
        <time>2021-07-18T15:50:28Z</time>
      </trkpt>
      <trkpt lat="43.32428" lon="-1.37989">
        <ele>67.1</ele>
        <time>2021-07-18T15:50:29Z</time>
      </trkpt>
      <trkpt lat="43.32427" lon="-1.37984">
        <ele>67.3</ele>
        <time>2021-07-18T15:50:31Z</time>
      </trkpt>
      <trkpt lat="43.32425" lon="-1.37979">
        <ele>67.6</ele>
        <time>2021-07-18T15:50:32Z</time>
      </trkpt>
      <trkpt lat="43.32424" lon="-1.37977">
        <ele>67.7</ele>
        <time>2021-07-18T15:50:33Z</time>
      </trkpt>
      <trkpt lat="43.32423" lon="-1.37974">
        <ele>67.8</ele>
        <time>2021-07-18T15:50:34Z</time>
      </trkpt>
      <trkpt lat="43.32422" lon="-1.37969">
        <ele>68.1</ele>
        <time>2021-07-18T15:50:36Z</time>
      </trkpt>
      <trkpt lat="43.3242" lon="-1.37966">
        <ele>68.2</ele>
        <time>2021-07-18T15:50:37Z</time>
      </trkpt>
      <trkpt lat="43.32419" lon="-1.37962">
        <ele>68.5</ele>
        <time>2021-07-18T15:50:39Z</time>
      </trkpt>
      <trkpt lat="43.32418" lon="-1.37959">
        <ele>68.6</ele>
        <time>2021-07-18T15:50:40Z</time>
      </trkpt>
      <trkpt lat="43.32416" lon="-1.37955">
        <ele>68.8</ele>
        <time>2021-07-18T15:50:41Z</time>
      </trkpt>
      <trkpt lat="43.32415" lon="-1.37951">
        <ele>69</ele>
        <time>2021-07-18T15:50:43Z</time>
      </trkpt>
      <trkpt lat="43.32415" lon="-1.37949">
        <ele>69.1</ele>
        <time>2021-07-18T15:50:44Z</time>
      </trkpt>
      <trkpt lat="43.32413" lon="-1.37945">
        <ele>69.3</ele>
        <time>2021-07-18T15:50:45Z</time>
      </trkpt>
      <trkpt lat="43.32413" lon="-1.37944">
        <ele>69.3</ele>
        <time>2021-07-18T15:50:46Z</time>
      </trkpt>
      <trkpt lat="43.32411" lon="-1.3794">
        <ele>69.5</ele>
        <time>2021-07-18T15:50:47Z</time>
      </trkpt>
      <trkpt lat="43.32411" lon="-1.37938">
        <ele>69.6</ele>
        <time>2021-07-18T15:50:48Z</time>
      </trkpt>
      <trkpt lat="43.3241" lon="-1.37934">
        <ele>69.7</ele>
        <time>2021-07-18T15:50:50Z</time>
      </trkpt>
      <trkpt lat="43.32408" lon="-1.3793">
        <ele>69.9</ele>
        <time>2021-07-18T15:50:51Z</time>
      </trkpt>
      <trkpt lat="43.32407" lon="-1.37925">
        <ele>70.1</ele>
        <time>2021-07-18T15:50:52Z</time>
      </trkpt>
      <trkpt lat="43.32406" lon="-1.37923">
        <ele>70.2</ele>
        <time>2021-07-18T15:50:53Z</time>
      </trkpt>
      <trkpt lat="43.32405" lon="-1.37918">
        <ele>70.4</ele>
        <time>2021-07-18T15:50:55Z</time>
      </trkpt>
      <trkpt lat="43.32404" lon="-1.37916">
        <ele>70.5</ele>
        <time>2021-07-18T15:50:56Z</time>
      </trkpt>
      <trkpt lat="43.32403" lon="-1.37914">
        <ele>70.6</ele>
        <time>2021-07-18T15:50:57Z</time>
      </trkpt>
      <trkpt lat="43.32402" lon="-1.3791">
        <ele>70.7</ele>
        <time>2021-07-18T15:50:59Z</time>
      </trkpt>
      <trkpt lat="43.32401" lon="-1.37906">
        <ele>70.9</ele>
        <time>2021-07-18T15:51:00Z</time>
      </trkpt>
      <trkpt lat="43.324" lon="-1.37903">
        <ele>71</ele>
        <time>2021-07-18T15:51:01Z</time>
      </trkpt>
      <trkpt lat="43.32399" lon="-1.37897">
        <ele>71.3</ele>
        <time>2021-07-18T15:51:03Z</time>
      </trkpt>
      <trkpt lat="43.32398" lon="-1.37893">
        <ele>71.4</ele>
        <time>2021-07-18T15:51:04Z</time>
      </trkpt>
      <trkpt lat="43.32397" lon="-1.37888">
        <ele>71.7</ele>
        <time>2021-07-18T15:51:06Z</time>
      </trkpt>
      <trkpt lat="43.32396" lon="-1.37884">
        <ele>71.9</ele>
        <time>2021-07-18T15:51:07Z</time>
      </trkpt>
      <trkpt lat="43.32394" lon="-1.37879">
        <ele>72.1</ele>
        <time>2021-07-18T15:51:09Z</time>
      </trkpt>
      <trkpt lat="43.32393" lon="-1.37876">
        <ele>72.3</ele>
        <time>2021-07-18T15:51:10Z</time>
      </trkpt>
      <trkpt lat="43.32392" lon="-1.37872">
        <ele>72.5</ele>
        <time>2021-07-18T15:51:12Z</time>
      </trkpt>
      <trkpt lat="43.32391" lon="-1.37867">
        <ele>72.7</ele>
        <time>2021-07-18T15:51:13Z</time>
      </trkpt>
      <trkpt lat="43.32391" lon="-1.37865">
        <ele>72.8</ele>
        <time>2021-07-18T15:51:14Z</time>
      </trkpt>
      <trkpt lat="43.32389" lon="-1.3786">
        <ele>73.1</ele>
        <time>2021-07-18T15:51:16Z</time>
      </trkpt>
      <trkpt lat="43.32389" lon="-1.37858">
        <ele>73.2</ele>
        <time>2021-07-18T15:51:17Z</time>
      </trkpt>
      <trkpt lat="43.32389" lon="-1.37856">
        <ele>73.3</ele>
        <time>2021-07-18T15:51:18Z</time>
      </trkpt>
      <trkpt lat="43.32388" lon="-1.37852">
        <ele>73.4</ele>
        <time>2021-07-18T15:51:20Z</time>
      </trkpt>
      <trkpt lat="43.32387" lon="-1.37848">
        <ele>73.6</ele>
        <time>2021-07-18T15:51:21Z</time>
      </trkpt>
      <trkpt lat="43.32386" lon="-1.37842">
        <ele>74</ele>
        <time>2021-07-18T15:51:23Z</time>
      </trkpt>
      <trkpt lat="43.32386" lon="-1.3784">
        <ele>74</ele>
        <time>2021-07-18T15:51:24Z</time>
      </trkpt>
      <trkpt lat="43.32385" lon="-1.37838">
        <ele>74.1</ele>
        <time>2021-07-18T15:51:25Z</time>
      </trkpt>
      <trkpt lat="43.32384" lon="-1.37832">
        <ele>74.4</ele>
        <time>2021-07-18T15:51:27Z</time>
      </trkpt>
      <trkpt lat="43.32384" lon="-1.37831">
        <ele>74.5</ele>
        <time>2021-07-18T15:51:28Z</time>
      </trkpt>
      <trkpt lat="43.32383" lon="-1.37829">
        <ele>74.6</ele>
        <time>2021-07-18T15:51:29Z</time>
      </trkpt>
      <trkpt lat="43.32382" lon="-1.37826">
        <ele>74.8</ele>
        <time>2021-07-18T15:51:30Z</time>
      </trkpt>
      <trkpt lat="43.32381" lon="-1.37822">
        <ele>74.9</ele>
        <time>2021-07-18T15:51:32Z</time>
      </trkpt>
      <trkpt lat="43.3238" lon="-1.37818">
        <ele>75.2</ele>
        <time>2021-07-18T15:51:33Z</time>
      </trkpt>
      <trkpt lat="43.3238" lon="-1.37817">
        <ele>75.2</ele>
        <time>2021-07-18T15:51:34Z</time>
      </trkpt>
      <trkpt lat="43.32378" lon="-1.37811">
        <ele>75.6</ele>
        <time>2021-07-18T15:51:36Z</time>
      </trkpt>
      <trkpt lat="43.32378" lon="-1.37809">
        <ele>75.6</ele>
        <time>2021-07-18T15:51:37Z</time>
      </trkpt>
      <trkpt lat="43.32377" lon="-1.37807">
        <ele>75.7</ele>
        <time>2021-07-18T15:51:38Z</time>
      </trkpt>
      <trkpt lat="43.32376" lon="-1.37803">
        <ele>76</ele>
        <time>2021-07-18T15:51:39Z</time>
      </trkpt>
      <trkpt lat="43.32375" lon="-1.37801">
        <ele>76.1</ele>
        <time>2021-07-18T15:51:40Z</time>
      </trkpt>
      <trkpt lat="43.32374" lon="-1.37797">
        <ele>76.3</ele>
        <time>2021-07-18T15:51:42Z</time>
      </trkpt>
      <trkpt lat="43.32373" lon="-1.37794">
        <ele>76.5</ele>
        <time>2021-07-18T15:51:43Z</time>
      </trkpt>
      <trkpt lat="43.32372" lon="-1.37788">
        <ele>76.8</ele>
        <time>2021-07-18T15:51:45Z</time>
      </trkpt>
      <trkpt lat="43.32371" lon="-1.37785">
        <ele>76.9</ele>
        <time>2021-07-18T15:51:46Z</time>
      </trkpt>
      <trkpt lat="43.3237" lon="-1.37781">
        <ele>77.2</ele>
        <time>2021-07-18T15:51:48Z</time>
      </trkpt>
      <trkpt lat="43.32368" lon="-1.37776">
        <ele>77.4</ele>
        <time>2021-07-18T15:51:49Z</time>
      </trkpt>
      <trkpt lat="43.32368" lon="-1.37775">
        <ele>77.5</ele>
        <time>2021-07-18T15:51:50Z</time>
      </trkpt>
      <trkpt lat="43.32367" lon="-1.37771">
        <ele>77.7</ele>
        <time>2021-07-18T15:51:52Z</time>
      </trkpt>
      <trkpt lat="43.32366" lon="-1.37767">
        <ele>77.9</ele>
        <time>2021-07-18T15:51:53Z</time>
      </trkpt>
      <trkpt lat="43.32365" lon="-1.37763">
        <ele>78.1</ele>
        <time>2021-07-18T15:51:55Z</time>
      </trkpt>
      <trkpt lat="43.32363" lon="-1.3776">
        <ele>78.3</ele>
        <time>2021-07-18T15:51:56Z</time>
      </trkpt>
      <trkpt lat="43.32361" lon="-1.37755">
        <ele>78.6</ele>
        <time>2021-07-18T15:51:58Z</time>
      </trkpt>
      <trkpt lat="43.3236" lon="-1.3775">
        <ele>78.9</ele>
        <time>2021-07-18T15:52:00Z</time>
      </trkpt>
      <trkpt lat="43.32359" lon="-1.37748">
        <ele>79.1</ele>
        <time>2021-07-18T15:52:01Z</time>
      </trkpt>
      <trkpt lat="43.32357" lon="-1.37743">
        <ele>79.3</ele>
        <time>2021-07-18T15:52:03Z</time>
      </trkpt>
      <trkpt lat="43.32356" lon="-1.3774">
        <ele>79.5</ele>
        <time>2021-07-18T15:52:04Z</time>
      </trkpt>
      <trkpt lat="43.32356" lon="-1.37738">
        <ele>79.6</ele>
        <time>2021-07-18T15:52:05Z</time>
      </trkpt>
      <trkpt lat="43.32354" lon="-1.37733">
        <ele>79.9</ele>
        <time>2021-07-18T15:52:07Z</time>
      </trkpt>
      <trkpt lat="43.32354" lon="-1.37731">
        <ele>80</ele>
        <time>2021-07-18T15:52:08Z</time>
      </trkpt>
      <trkpt lat="43.32354" lon="-1.37729">
        <ele>80.1</ele>
        <time>2021-07-18T15:52:09Z</time>
      </trkpt>
      <trkpt lat="43.32353" lon="-1.37727">
        <ele>80.2</ele>
        <time>2021-07-18T15:52:10Z</time>
      </trkpt>
      <trkpt lat="43.32352" lon="-1.37722">
        <ele>80.5</ele>
        <time>2021-07-18T15:52:12Z</time>
      </trkpt>
      <trkpt lat="43.3235" lon="-1.37718">
        <ele>80.7</ele>
        <time>2021-07-18T15:52:14Z</time>
      </trkpt>
      <trkpt lat="43.3235" lon="-1.37715">
        <ele>80.9</ele>
        <time>2021-07-18T15:52:15Z</time>
      </trkpt>
      <trkpt lat="43.32349" lon="-1.37712">
        <ele>81.1</ele>
        <time>2021-07-18T15:52:17Z</time>
      </trkpt>
      <trkpt lat="43.32347" lon="-1.37708">
        <ele>81.3</ele>
        <time>2021-07-18T15:52:18Z</time>
      </trkpt>
      <trkpt lat="43.32347" lon="-1.37706">
        <ele>81.4</ele>
        <time>2021-07-18T15:52:19Z</time>
      </trkpt>
      <trkpt lat="43.32345" lon="-1.37702">
        <ele>81.6</ele>
        <time>2021-07-18T15:52:21Z</time>
      </trkpt>
      <trkpt lat="43.32344" lon="-1.37698">
        <ele>81.8</ele>
        <time>2021-07-18T15:52:22Z</time>
      </trkpt>
      <trkpt lat="43.32343" lon="-1.37696">
        <ele>82</ele>
        <time>2021-07-18T15:52:23Z</time>
      </trkpt>
      <trkpt lat="43.32342" lon="-1.37694">
        <ele>82.1</ele>
        <time>2021-07-18T15:52:24Z</time>
      </trkpt>
      <trkpt lat="43.3234" lon="-1.3769">
        <ele>82.3</ele>
        <time>2021-07-18T15:52:26Z</time>
      </trkpt>
      <trkpt lat="43.32339" lon="-1.37688">
        <ele>82.5</ele>
        <time>2021-07-18T15:52:27Z</time>
      </trkpt>
      <trkpt lat="43.32338" lon="-1.37686">
        <ele>82.6</ele>
        <time>2021-07-18T15:52:28Z</time>
      </trkpt>
      <trkpt lat="43.32336" lon="-1.37682">
        <ele>82.8</ele>
        <time>2021-07-18T15:52:30Z</time>
      </trkpt>
      <trkpt lat="43.32335" lon="-1.37681">
        <ele>82.9</ele>
        <time>2021-07-18T15:52:31Z</time>
      </trkpt>
      <trkpt lat="43.32334" lon="-1.37678">
        <ele>83.1</ele>
        <time>2021-07-18T15:52:32Z</time>
      </trkpt>
      <trkpt lat="43.32332" lon="-1.37675">
        <ele>83.3</ele>
        <time>2021-07-18T15:52:34Z</time>
      </trkpt>
      <trkpt lat="43.32331" lon="-1.37673">
        <ele>83.5</ele>
        <time>2021-07-18T15:52:35Z</time>
      </trkpt>
      <trkpt lat="43.32329" lon="-1.3767">
        <ele>83.7</ele>
        <time>2021-07-18T15:52:37Z</time>
      </trkpt>
      <trkpt lat="43.32328" lon="-1.37667">
        <ele>83.8</ele>
        <time>2021-07-18T15:52:38Z</time>
      </trkpt>
      <trkpt lat="43.32327" lon="-1.37666">
        <ele>84</ele>
        <time>2021-07-18T15:52:39Z</time>
      </trkpt>
      <trkpt lat="43.32326" lon="-1.37664">
        <ele>84.1</ele>
        <time>2021-07-18T15:52:40Z</time>
      </trkpt>
      <trkpt lat="43.32325" lon="-1.37662">
        <ele>84.2</ele>
        <time>2021-07-18T15:52:41Z</time>
      </trkpt>
      <trkpt lat="43.32323" lon="-1.37659">
        <ele>84.5</ele>
        <time>2021-07-18T15:52:43Z</time>
      </trkpt>
      <trkpt lat="43.32322" lon="-1.37657">
        <ele>84.6</ele>
        <time>2021-07-18T15:52:44Z</time>
      </trkpt>
      <trkpt lat="43.32321" lon="-1.37655">
        <ele>84.7</ele>
        <time>2021-07-18T15:52:45Z</time>
      </trkpt>
      <trkpt lat="43.32318" lon="-1.3765">
        <ele>85.1</ele>
        <time>2021-07-18T15:52:47Z</time>
      </trkpt>
      <trkpt lat="43.32317" lon="-1.37648">
        <ele>85.2</ele>
        <time>2021-07-18T15:52:49Z</time>
      </trkpt>
      <trkpt lat="43.32316" lon="-1.37647">
        <ele>85.3</ele>
        <time>2021-07-18T15:52:50Z</time>
      </trkpt>
      <trkpt lat="43.32313" lon="-1.37643">
        <ele>85.6</ele>
        <time>2021-07-18T15:52:51Z</time>
      </trkpt>
      <trkpt lat="43.32313" lon="-1.37642">
        <ele>85.7</ele>
        <time>2021-07-18T15:52:52Z</time>
      </trkpt>
      <trkpt lat="43.32311" lon="-1.37639">
        <ele>85.9</ele>
        <time>2021-07-18T15:52:54Z</time>
      </trkpt>
      <trkpt lat="43.32309" lon="-1.37637">
        <ele>86.1</ele>
        <time>2021-07-18T15:52:55Z</time>
      </trkpt>
      <trkpt lat="43.32308" lon="-1.37634">
        <ele>86.3</ele>
        <time>2021-07-18T15:52:57Z</time>
      </trkpt>
      <trkpt lat="43.32305" lon="-1.37631">
        <ele>86.6</ele>
        <time>2021-07-18T15:52:58Z</time>
      </trkpt>
      <trkpt lat="43.32304" lon="-1.3763">
        <ele>86.7</ele>
        <time>2021-07-18T15:52:59Z</time>
      </trkpt>
      <trkpt lat="43.32302" lon="-1.37626">
        <ele>86.9</ele>
        <time>2021-07-18T15:53:01Z</time>
      </trkpt>
      <trkpt lat="43.323" lon="-1.37624">
        <ele>87.1</ele>
        <time>2021-07-18T15:53:02Z</time>
      </trkpt>
      <trkpt lat="43.32298" lon="-1.3762">
        <ele>87.4</ele>
        <time>2021-07-18T15:53:04Z</time>
      </trkpt>
      <trkpt lat="43.32295" lon="-1.37618">
        <ele>87.6</ele>
        <time>2021-07-18T15:53:05Z</time>
      </trkpt>
      <trkpt lat="43.32295" lon="-1.37617">
        <ele>87.6</ele>
        <time>2021-07-18T15:53:06Z</time>
      </trkpt>
      <trkpt lat="43.32293" lon="-1.37613">
        <ele>87.9</ele>
        <time>2021-07-18T15:53:07Z</time>
      </trkpt>
      <trkpt lat="43.32292" lon="-1.37612">
        <ele>88</ele>
        <time>2021-07-18T15:53:08Z</time>
      </trkpt>
      <trkpt lat="43.3229" lon="-1.37608">
        <ele>88.2</ele>
        <time>2021-07-18T15:53:10Z</time>
      </trkpt>
      <trkpt lat="43.3229" lon="-1.37607">
        <ele>88.3</ele>
        <time>2021-07-18T15:53:11Z</time>
      </trkpt>
      <trkpt lat="43.32289" lon="-1.37605">
        <ele>88.4</ele>
        <time>2021-07-18T15:53:12Z</time>
      </trkpt>
      <trkpt lat="43.32288" lon="-1.37603">
        <ele>88.5</ele>
        <time>2021-07-18T15:53:13Z</time>
      </trkpt>
      <trkpt lat="43.32286" lon="-1.37602">
        <ele>88.7</ele>
        <time>2021-07-18T15:53:14Z</time>
      </trkpt>
      <trkpt lat="43.32285" lon="-1.376">
        <ele>88.8</ele>
        <time>2021-07-18T15:53:15Z</time>
      </trkpt>
      <trkpt lat="43.32282" lon="-1.37595">
        <ele>89.1</ele>
        <time>2021-07-18T15:53:17Z</time>
      </trkpt>
      <trkpt lat="43.32281" lon="-1.37593">
        <ele>89.2</ele>
        <time>2021-07-18T15:53:19Z</time>
      </trkpt>
      <trkpt lat="43.3228" lon="-1.37592">
        <ele>89.3</ele>
        <time>2021-07-18T15:53:20Z</time>
      </trkpt>
      <trkpt lat="43.32278" lon="-1.37589">
        <ele>89.4</ele>
        <time>2021-07-18T15:53:21Z</time>
      </trkpt>
      <trkpt lat="43.32276" lon="-1.37586">
        <ele>89.7</ele>
        <time>2021-07-18T15:53:23Z</time>
      </trkpt>
      <trkpt lat="43.32273" lon="-1.37581">
        <ele>89.9</ele>
        <time>2021-07-18T15:53:24Z</time>
      </trkpt>
      <trkpt lat="43.32272" lon="-1.37579">
        <ele>90</ele>
        <time>2021-07-18T15:53:25Z</time>
      </trkpt>
      <trkpt lat="43.32271" lon="-1.37577">
        <ele>90.1</ele>
        <time>2021-07-18T15:53:26Z</time>
      </trkpt>
      <trkpt lat="43.32268" lon="-1.37572">
        <ele>90.3</ele>
        <time>2021-07-18T15:53:28Z</time>
      </trkpt>
      <trkpt lat="43.32266" lon="-1.37569">
        <ele>90.4</ele>
        <time>2021-07-18T15:53:29Z</time>
      </trkpt>
      <trkpt lat="43.32264" lon="-1.37563">
        <ele>90.6</ele>
        <time>2021-07-18T15:53:31Z</time>
      </trkpt>
      <trkpt lat="43.32262" lon="-1.37558">
        <ele>90.8</ele>
        <time>2021-07-18T15:53:33Z</time>
      </trkpt>
      <trkpt lat="43.3226" lon="-1.37554">
        <ele>90.9</ele>
        <time>2021-07-18T15:53:34Z</time>
      </trkpt>
      <trkpt lat="43.32258" lon="-1.37549">
        <ele>91</ele>
        <time>2021-07-18T15:53:36Z</time>
      </trkpt>
      <trkpt lat="43.32256" lon="-1.37544">
        <ele>91.1</ele>
        <time>2021-07-18T15:53:37Z</time>
      </trkpt>
      <trkpt lat="43.32255" lon="-1.37541">
        <ele>91.2</ele>
        <time>2021-07-18T15:53:38Z</time>
      </trkpt>
      <trkpt lat="43.32253" lon="-1.37537">
        <ele>91.3</ele>
        <time>2021-07-18T15:53:39Z</time>
      </trkpt>
      <trkpt lat="43.32251" lon="-1.37531">
        <ele>91.4</ele>
        <time>2021-07-18T15:53:41Z</time>
      </trkpt>
      <trkpt lat="43.3225" lon="-1.37527">
        <ele>91.4</ele>
        <time>2021-07-18T15:53:42Z</time>
      </trkpt>
      <trkpt lat="43.32247" lon="-1.37521">
        <ele>91.5</ele>
        <time>2021-07-18T15:53:44Z</time>
      </trkpt>
      <trkpt lat="43.32245" lon="-1.37517">
        <ele>91.6</ele>
        <time>2021-07-18T15:53:45Z</time>
      </trkpt>
      <trkpt lat="43.32244" lon="-1.37514">
        <ele>91.6</ele>
        <time>2021-07-18T15:53:46Z</time>
      </trkpt>
      <trkpt lat="43.32242" lon="-1.3751">
        <ele>91.6</ele>
        <time>2021-07-18T15:53:47Z</time>
      </trkpt>
      <trkpt lat="43.32241" lon="-1.37506">
        <ele>91.7</ele>
        <time>2021-07-18T15:53:48Z</time>
      </trkpt>
      <trkpt lat="43.32239" lon="-1.37502">
        <ele>91.7</ele>
        <time>2021-07-18T15:53:49Z</time>
      </trkpt>
      <trkpt lat="43.32238" lon="-1.37498">
        <ele>91.7</ele>
        <time>2021-07-18T15:53:50Z</time>
      </trkpt>
      <trkpt lat="43.32236" lon="-1.37494">
        <ele>91.8</ele>
        <time>2021-07-18T15:53:52Z</time>
      </trkpt>
      <trkpt lat="43.32234" lon="-1.37489">
        <ele>91.8</ele>
        <time>2021-07-18T15:53:53Z</time>
      </trkpt>
      <trkpt lat="43.32232" lon="-1.37485">
        <ele>91.8</ele>
        <time>2021-07-18T15:53:54Z</time>
      </trkpt>
      <trkpt lat="43.32231" lon="-1.3748">
        <ele>91.8</ele>
        <time>2021-07-18T15:53:55Z</time>
      </trkpt>
      <trkpt lat="43.32228" lon="-1.37473">
        <ele>91.9</ele>
        <time>2021-07-18T15:53:57Z</time>
      </trkpt>
      <trkpt lat="43.32226" lon="-1.37468">
        <ele>91.9</ele>
        <time>2021-07-18T15:53:58Z</time>
      </trkpt>
      <trkpt lat="43.32224" lon="-1.37463">
        <ele>91.9</ele>
        <time>2021-07-18T15:53:59Z</time>
      </trkpt>
      <trkpt lat="43.32223" lon="-1.37458">
        <ele>91.9</ele>
        <time>2021-07-18T15:54:00Z</time>
      </trkpt>
      <trkpt lat="43.3222" lon="-1.37451">
        <ele>91.9</ele>
        <time>2021-07-18T15:54:02Z</time>
      </trkpt>
      <trkpt lat="43.32218" lon="-1.37445">
        <ele>91.9</ele>
        <time>2021-07-18T15:54:03Z</time>
      </trkpt>
      <trkpt lat="43.32216" lon="-1.37441">
        <ele>91.9</ele>
        <time>2021-07-18T15:54:04Z</time>
      </trkpt>
      <trkpt lat="43.32214" lon="-1.37436">
        <ele>91.9</ele>
        <time>2021-07-18T15:54:05Z</time>
      </trkpt>
      <trkpt lat="43.32212" lon="-1.37429">
        <ele>91.9</ele>
        <time>2021-07-18T15:54:07Z</time>
      </trkpt>
      <trkpt lat="43.3221" lon="-1.37423">
        <ele>91.9</ele>
        <time>2021-07-18T15:54:08Z</time>
      </trkpt>
      <trkpt lat="43.32208" lon="-1.37418">
        <ele>91.9</ele>
        <time>2021-07-18T15:54:09Z</time>
      </trkpt>
      <trkpt lat="43.32206" lon="-1.37411">
        <ele>92</ele>
        <time>2021-07-18T15:54:11Z</time>
      </trkpt>
      <trkpt lat="43.32203" lon="-1.37404">
        <ele>92.1</ele>
        <time>2021-07-18T15:54:12Z</time>
      </trkpt>
      <trkpt lat="43.322" lon="-1.37395">
        <ele>92.2</ele>
        <time>2021-07-18T15:54:14Z</time>
      </trkpt>
      <trkpt lat="43.32198" lon="-1.37389">
        <ele>92.3</ele>
        <time>2021-07-18T15:54:15Z</time>
      </trkpt>
      <trkpt lat="43.32196" lon="-1.37383">
        <ele>92.3</ele>
        <time>2021-07-18T15:54:17Z</time>
      </trkpt>
      <trkpt lat="43.32193" lon="-1.37376">
        <ele>92.5</ele>
        <time>2021-07-18T15:54:19Z</time>
      </trkpt>
      <trkpt lat="43.3219" lon="-1.37368">
        <ele>92.6</ele>
        <time>2021-07-18T15:54:21Z</time>
      </trkpt>
      <trkpt lat="43.32188" lon="-1.37364">
        <ele>92.7</ele>
        <time>2021-07-18T15:54:22Z</time>
      </trkpt>
      <trkpt lat="43.32187" lon="-1.3736">
        <ele>92.8</ele>
        <time>2021-07-18T15:54:23Z</time>
      </trkpt>
      <trkpt lat="43.32186" lon="-1.37356">
        <ele>92.9</ele>
        <time>2021-07-18T15:54:24Z</time>
      </trkpt>
      <trkpt lat="43.32184" lon="-1.37353">
        <ele>93</ele>
        <time>2021-07-18T15:54:25Z</time>
      </trkpt>
      <trkpt lat="43.32181" lon="-1.37348">
        <ele>93.1</ele>
        <time>2021-07-18T15:54:27Z</time>
      </trkpt>
      <trkpt lat="43.3218" lon="-1.37345">
        <ele>93.2</ele>
        <time>2021-07-18T15:54:28Z</time>
      </trkpt>
      <trkpt lat="43.32178" lon="-1.3734">
        <ele>93.4</ele>
        <time>2021-07-18T15:54:30Z</time>
      </trkpt>
      <trkpt lat="43.32176" lon="-1.37336">
        <ele>93.5</ele>
        <time>2021-07-18T15:54:31Z</time>
      </trkpt>
      <trkpt lat="43.32175" lon="-1.37333">
        <ele>93.6</ele>
        <time>2021-07-18T15:54:32Z</time>
      </trkpt>
      <trkpt lat="43.32173" lon="-1.37328">
        <ele>93.7</ele>
        <time>2021-07-18T15:54:34Z</time>
      </trkpt>
      <trkpt lat="43.3217" lon="-1.37324">
        <ele>93.9</ele>
        <time>2021-07-18T15:54:36Z</time>
      </trkpt>
      <trkpt lat="43.32169" lon="-1.37321">
        <ele>94</ele>
        <time>2021-07-18T15:54:37Z</time>
      </trkpt>
      <trkpt lat="43.32167" lon="-1.37316">
        <ele>94.2</ele>
        <time>2021-07-18T15:54:39Z</time>
      </trkpt>
      <trkpt lat="43.32165" lon="-1.37312">
        <ele>94.3</ele>
        <time>2021-07-18T15:54:40Z</time>
      </trkpt>
      <trkpt lat="43.32164" lon="-1.3731">
        <ele>94.4</ele>
        <time>2021-07-18T15:54:41Z</time>
      </trkpt>
      <trkpt lat="43.32162" lon="-1.37305">
        <ele>94.7</ele>
        <time>2021-07-18T15:54:43Z</time>
      </trkpt>
      <trkpt lat="43.32161" lon="-1.37303">
        <ele>94.8</ele>
        <time>2021-07-18T15:54:44Z</time>
      </trkpt>
      <trkpt lat="43.32158" lon="-1.37298">
        <ele>95</ele>
        <time>2021-07-18T15:54:46Z</time>
      </trkpt>
      <trkpt lat="43.32157" lon="-1.37296">
        <ele>95.2</ele>
        <time>2021-07-18T15:54:47Z</time>
      </trkpt>
      <trkpt lat="43.32155" lon="-1.3729">
        <ele>95.5</ele>
        <time>2021-07-18T15:54:49Z</time>
      </trkpt>
      <trkpt lat="43.32152" lon="-1.37285">
        <ele>95.8</ele>
        <time>2021-07-18T15:54:51Z</time>
      </trkpt>
      <trkpt lat="43.32151" lon="-1.37281">
        <ele>96</ele>
        <time>2021-07-18T15:54:52Z</time>
      </trkpt>
      <trkpt lat="43.3215" lon="-1.3728">
        <ele>96</ele>
        <time>2021-07-18T15:54:53Z</time>
      </trkpt>
      <trkpt lat="43.32149" lon="-1.37278">
        <ele>96.2</ele>
        <time>2021-07-18T15:54:54Z</time>
      </trkpt>
      <trkpt lat="43.32147" lon="-1.37274">
        <ele>96.4</ele>
        <time>2021-07-18T15:54:56Z</time>
      </trkpt>
      <trkpt lat="43.32145" lon="-1.37272">
        <ele>96.6</ele>
        <time>2021-07-18T15:54:57Z</time>
      </trkpt>
      <trkpt lat="43.32143" lon="-1.37267">
        <ele>96.8</ele>
        <time>2021-07-18T15:54:59Z</time>
      </trkpt>
      <trkpt lat="43.32142" lon="-1.37265">
        <ele>97</ele>
        <time>2021-07-18T15:55:00Z</time>
      </trkpt>
      <trkpt lat="43.32141" lon="-1.3726">
        <ele>97.2</ele>
        <time>2021-07-18T15:55:02Z</time>
      </trkpt>
      <trkpt lat="43.3214" lon="-1.37259">
        <ele>97.3</ele>
        <time>2021-07-18T15:55:03Z</time>
      </trkpt>
      <trkpt lat="43.32138" lon="-1.37254">
        <ele>97.6</ele>
        <time>2021-07-18T15:55:05Z</time>
      </trkpt>
      <trkpt lat="43.32136" lon="-1.37252">
        <ele>97.8</ele>
        <time>2021-07-18T15:55:06Z</time>
      </trkpt>
      <trkpt lat="43.32134" lon="-1.37248">
        <ele>98</ele>
        <time>2021-07-18T15:55:08Z</time>
      </trkpt>
      <trkpt lat="43.32132" lon="-1.37244">
        <ele>98.3</ele>
        <time>2021-07-18T15:55:10Z</time>
      </trkpt>
      <trkpt lat="43.3213" lon="-1.37242">
        <ele>98.5</ele>
        <time>2021-07-18T15:55:11Z</time>
      </trkpt>
      <trkpt lat="43.32128" lon="-1.37239">
        <ele>98.7</ele>
        <time>2021-07-18T15:55:13Z</time>
      </trkpt>
      <trkpt lat="43.32128" lon="-1.37237">
        <ele>98.8</ele>
        <time>2021-07-18T15:55:14Z</time>
      </trkpt>
      <trkpt lat="43.32127" lon="-1.37235">
        <ele>98.9</ele>
        <time>2021-07-18T15:55:15Z</time>
      </trkpt>
      <trkpt lat="43.32126" lon="-1.37234">
        <ele>99</ele>
        <time>2021-07-18T15:55:16Z</time>
      </trkpt>
      <trkpt lat="43.32123" lon="-1.3723">
        <ele>99.3</ele>
        <time>2021-07-18T15:55:18Z</time>
      </trkpt>
      <trkpt lat="43.32121" lon="-1.37227">
        <ele>99.6</ele>
        <time>2021-07-18T15:55:20Z</time>
      </trkpt>
      <trkpt lat="43.3212" lon="-1.37225">
        <ele>99.7</ele>
        <time>2021-07-18T15:55:21Z</time>
      </trkpt>
      <trkpt lat="43.32119" lon="-1.37223">
        <ele>99.8</ele>
        <time>2021-07-18T15:55:22Z</time>
      </trkpt>
      <trkpt lat="43.32117" lon="-1.37219">
        <ele>100.1</ele>
        <time>2021-07-18T15:55:24Z</time>
      </trkpt>
      <trkpt lat="43.32116" lon="-1.37217">
        <ele>100.3</ele>
        <time>2021-07-18T15:55:25Z</time>
      </trkpt>
      <trkpt lat="43.32114" lon="-1.37214">
        <ele>100.5</ele>
        <time>2021-07-18T15:55:27Z</time>
      </trkpt>
      <trkpt lat="43.32113" lon="-1.37213">
        <ele>100.6</ele>
        <time>2021-07-18T15:55:28Z</time>
      </trkpt>
      <trkpt lat="43.32112" lon="-1.37211">
        <ele>100.8</ele>
        <time>2021-07-18T15:55:29Z</time>
      </trkpt>
      <trkpt lat="43.3211" lon="-1.37208">
        <ele>101</ele>
        <time>2021-07-18T15:55:31Z</time>
      </trkpt>
      <trkpt lat="43.32108" lon="-1.37205">
        <ele>101.2</ele>
        <time>2021-07-18T15:55:33Z</time>
      </trkpt>
      <trkpt lat="43.32107" lon="-1.37203">
        <ele>101.3</ele>
        <time>2021-07-18T15:55:34Z</time>
      </trkpt>
      <trkpt lat="43.32106" lon="-1.37202">
        <ele>101.4</ele>
        <time>2021-07-18T15:55:35Z</time>
      </trkpt>
      <trkpt lat="43.32104" lon="-1.37199">
        <ele>101.7</ele>
        <time>2021-07-18T15:55:37Z</time>
      </trkpt>
      <trkpt lat="43.32103" lon="-1.37197">
        <ele>101.9</ele>
        <time>2021-07-18T15:55:38Z</time>
      </trkpt>
      <trkpt lat="43.32101" lon="-1.37193">
        <ele>102.1</ele>
        <time>2021-07-18T15:55:40Z</time>
      </trkpt>
      <trkpt lat="43.32099" lon="-1.3719">
        <ele>102.4</ele>
        <time>2021-07-18T15:55:42Z</time>
      </trkpt>
      <trkpt lat="43.32098" lon="-1.37185">
        <ele>102.6</ele>
        <time>2021-07-18T15:55:44Z</time>
      </trkpt>
      <trkpt lat="43.32095" lon="-1.37181">
        <ele>102.9</ele>
        <time>2021-07-18T15:55:46Z</time>
      </trkpt>
      <trkpt lat="43.32093" lon="-1.37177">
        <ele>103.2</ele>
        <time>2021-07-18T15:55:48Z</time>
      </trkpt>
      <trkpt lat="43.3209" lon="-1.37173">
        <ele>103.5</ele>
        <time>2021-07-18T15:55:50Z</time>
      </trkpt>
      <trkpt lat="43.32089" lon="-1.37171">
        <ele>103.7</ele>
        <time>2021-07-18T15:55:51Z</time>
      </trkpt>
      <trkpt lat="43.32088" lon="-1.37169">
        <ele>103.8</ele>
        <time>2021-07-18T15:55:52Z</time>
      </trkpt>
      <trkpt lat="43.32087" lon="-1.37165">
        <ele>104</ele>
        <time>2021-07-18T15:55:54Z</time>
      </trkpt>
      <trkpt lat="43.32086" lon="-1.37163">
        <ele>104.2</ele>
        <time>2021-07-18T15:55:55Z</time>
      </trkpt>
      <trkpt lat="43.32085" lon="-1.37161">
        <ele>104.3</ele>
        <time>2021-07-18T15:55:56Z</time>
      </trkpt>
      <trkpt lat="43.32083" lon="-1.37157">
        <ele>104.5</ele>
        <time>2021-07-18T15:55:58Z</time>
      </trkpt>
      <trkpt lat="43.32082" lon="-1.37155">
        <ele>104.7</ele>
        <time>2021-07-18T15:55:59Z</time>
      </trkpt>
      <trkpt lat="43.32081" lon="-1.37151">
        <ele>104.9</ele>
        <time>2021-07-18T15:56:01Z</time>
      </trkpt>
      <trkpt lat="43.32079" lon="-1.37147">
        <ele>105.1</ele>
        <time>2021-07-18T15:56:03Z</time>
      </trkpt>
      <trkpt lat="43.32078" lon="-1.37142">
        <ele>105.4</ele>
        <time>2021-07-18T15:56:05Z</time>
      </trkpt>
      <trkpt lat="43.32076" lon="-1.37138">
        <ele>105.6</ele>
        <time>2021-07-18T15:56:07Z</time>
      </trkpt>
      <trkpt lat="43.32075" lon="-1.37132">
        <ele>105.9</ele>
        <time>2021-07-18T15:56:09Z</time>
      </trkpt>
      <trkpt lat="43.32074" lon="-1.3713">
        <ele>106</ele>
        <time>2021-07-18T15:56:10Z</time>
      </trkpt>
      <trkpt lat="43.32074" lon="-1.37128">
        <ele>106.1</ele>
        <time>2021-07-18T15:56:11Z</time>
      </trkpt>
      <trkpt lat="43.32072" lon="-1.37123">
        <ele>106.4</ele>
        <time>2021-07-18T15:56:13Z</time>
      </trkpt>
      <trkpt lat="43.32072" lon="-1.37119">
        <ele>106.6</ele>
        <time>2021-07-18T15:56:15Z</time>
      </trkpt>
      <trkpt lat="43.3207" lon="-1.37114">
        <ele>106.9</ele>
        <time>2021-07-18T15:56:17Z</time>
      </trkpt>
      <trkpt lat="43.32069" lon="-1.37109">
        <ele>107.1</ele>
        <time>2021-07-18T15:56:19Z</time>
      </trkpt>
      <trkpt lat="43.32068" lon="-1.37107">
        <ele>107.3</ele>
        <time>2021-07-18T15:56:20Z</time>
      </trkpt>
      <trkpt lat="43.32067" lon="-1.37102">
        <ele>107.5</ele>
        <time>2021-07-18T15:56:22Z</time>
      </trkpt>
      <trkpt lat="43.32065" lon="-1.37098">
        <ele>107.7</ele>
        <time>2021-07-18T15:56:24Z</time>
      </trkpt>
      <trkpt lat="43.32064" lon="-1.37096">
        <ele>107.9</ele>
        <time>2021-07-18T15:56:25Z</time>
      </trkpt>
      <trkpt lat="43.32063" lon="-1.37091">
        <ele>108.1</ele>
        <time>2021-07-18T15:56:27Z</time>
      </trkpt>
      <trkpt lat="43.32061" lon="-1.37087">
        <ele>108.4</ele>
        <time>2021-07-18T15:56:29Z</time>
      </trkpt>
      <trkpt lat="43.32061" lon="-1.37085">
        <ele>108.5</ele>
        <time>2021-07-18T15:56:30Z</time>
      </trkpt>
      <trkpt lat="43.32059" lon="-1.3708">
        <ele>108.8</ele>
        <time>2021-07-18T15:56:32Z</time>
      </trkpt>
      <trkpt lat="43.32058" lon="-1.37076">
        <ele>109</ele>
        <time>2021-07-18T15:56:34Z</time>
      </trkpt>
      <trkpt lat="43.32058" lon="-1.37074">
        <ele>109.1</ele>
        <time>2021-07-18T15:56:35Z</time>
      </trkpt>
      <trkpt lat="43.32056" lon="-1.3707">
        <ele>109.3</ele>
        <time>2021-07-18T15:56:37Z</time>
      </trkpt>
      <trkpt lat="43.32055" lon="-1.37066">
        <ele>109.6</ele>
        <time>2021-07-18T15:56:39Z</time>
      </trkpt>
      <trkpt lat="43.32054" lon="-1.37062">
        <ele>109.8</ele>
        <time>2021-07-18T15:56:41Z</time>
      </trkpt>
      <trkpt lat="43.32053" lon="-1.3706">
        <ele>110</ele>
        <time>2021-07-18T15:56:42Z</time>
      </trkpt>
      <trkpt lat="43.32051" lon="-1.37057">
        <ele>110.2</ele>
        <time>2021-07-18T15:56:44Z</time>
      </trkpt>
      <trkpt lat="43.3205" lon="-1.37053">
        <ele>110.5</ele>
        <time>2021-07-18T15:56:46Z</time>
      </trkpt>
      <trkpt lat="43.32049" lon="-1.37051">
        <ele>110.6</ele>
        <time>2021-07-18T15:56:47Z</time>
      </trkpt>
      <trkpt lat="43.32047" lon="-1.37047">
        <ele>110.9</ele>
        <time>2021-07-18T15:56:49Z</time>
      </trkpt>
      <trkpt lat="43.32046" lon="-1.37045">
        <ele>111</ele>
        <time>2021-07-18T15:56:50Z</time>
      </trkpt>
      <trkpt lat="43.32046" lon="-1.37043">
        <ele>111.1</ele>
        <time>2021-07-18T15:56:51Z</time>
      </trkpt>
      <trkpt lat="43.32045" lon="-1.37041">
        <ele>111.3</ele>
        <time>2021-07-18T15:56:52Z</time>
      </trkpt>
      <trkpt lat="43.32044" lon="-1.37039">
        <ele>111.4</ele>
        <time>2021-07-18T15:56:53Z</time>
      </trkpt>
      <trkpt lat="43.32043" lon="-1.37037">
        <ele>111.5</ele>
        <time>2021-07-18T15:56:54Z</time>
      </trkpt>
      <trkpt lat="43.32041" lon="-1.37033">
        <ele>111.8</ele>
        <time>2021-07-18T15:56:56Z</time>
      </trkpt>
      <trkpt lat="43.3204" lon="-1.37028">
        <ele>112.1</ele>
        <time>2021-07-18T15:56:58Z</time>
      </trkpt>
      <trkpt lat="43.32039" lon="-1.37025">
        <ele>112.3</ele>
        <time>2021-07-18T15:57:00Z</time>
      </trkpt>
      <trkpt lat="43.32038" lon="-1.37022">
        <ele>112.5</ele>
        <time>2021-07-18T15:57:01Z</time>
      </trkpt>
      <trkpt lat="43.32037" lon="-1.37018">
        <ele>112.8</ele>
        <time>2021-07-18T15:57:03Z</time>
      </trkpt>
      <trkpt lat="43.32035" lon="-1.37014">
        <ele>113.1</ele>
        <time>2021-07-18T15:57:04Z</time>
      </trkpt>
      <trkpt lat="43.32035" lon="-1.37013">
        <ele>113.1</ele>
        <time>2021-07-18T15:57:05Z</time>
      </trkpt>
      <trkpt lat="43.32034" lon="-1.3701">
        <ele>113.4</ele>
        <time>2021-07-18T15:57:07Z</time>
      </trkpt>
      <trkpt lat="43.32032" lon="-1.37005">
        <ele>113.7</ele>
        <time>2021-07-18T15:57:09Z</time>
      </trkpt>
      <trkpt lat="43.32031" lon="-1.37003">
        <ele>113.8</ele>
        <time>2021-07-18T15:57:10Z</time>
      </trkpt>
      <trkpt lat="43.3203" lon="-1.36999">
        <ele>114.1</ele>
        <time>2021-07-18T15:57:12Z</time>
      </trkpt>
      <trkpt lat="43.32029" lon="-1.36997">
        <ele>114.3</ele>
        <time>2021-07-18T15:57:13Z</time>
      </trkpt>
      <trkpt lat="43.32028" lon="-1.36994">
        <ele>114.5</ele>
        <time>2021-07-18T15:57:15Z</time>
      </trkpt>
      <trkpt lat="43.32027" lon="-1.36991">
        <ele>114.8</ele>
        <time>2021-07-18T15:57:17Z</time>
      </trkpt>
      <trkpt lat="43.32026" lon="-1.36987">
        <ele>115</ele>
        <time>2021-07-18T15:57:19Z</time>
      </trkpt>
      <trkpt lat="43.32024" lon="-1.36984">
        <ele>115.2</ele>
        <time>2021-07-18T15:57:21Z</time>
      </trkpt>
      <trkpt lat="43.32023" lon="-1.3698">
        <ele>115.5</ele>
        <time>2021-07-18T15:57:23Z</time>
      </trkpt>
      <trkpt lat="43.32023" lon="-1.36977">
        <ele>115.7</ele>
        <time>2021-07-18T15:57:24Z</time>
      </trkpt>
      <trkpt lat="43.32022" lon="-1.36975">
        <ele>115.8</ele>
        <time>2021-07-18T15:57:25Z</time>
      </trkpt>
      <trkpt lat="43.32021" lon="-1.36971">
        <ele>116.1</ele>
        <time>2021-07-18T15:57:27Z</time>
      </trkpt>
      <trkpt lat="43.3202" lon="-1.36966">
        <ele>116.3</ele>
        <time>2021-07-18T15:57:29Z</time>
      </trkpt>
      <trkpt lat="43.3202" lon="-1.36965">
        <ele>116.4</ele>
        <time>2021-07-18T15:57:30Z</time>
      </trkpt>
      <trkpt lat="43.32019" lon="-1.36963">
        <ele>116.6</ele>
        <time>2021-07-18T15:57:31Z</time>
      </trkpt>
      <trkpt lat="43.32018" lon="-1.36959">
        <ele>116.8</ele>
        <time>2021-07-18T15:57:33Z</time>
      </trkpt>
      <trkpt lat="43.32016" lon="-1.36956">
        <ele>117</ele>
        <time>2021-07-18T15:57:35Z</time>
      </trkpt>
      <trkpt lat="43.32015" lon="-1.36954">
        <ele>117.2</ele>
        <time>2021-07-18T15:57:36Z</time>
      </trkpt>
      <trkpt lat="43.32014" lon="-1.36949">
        <ele>117.4</ele>
        <time>2021-07-18T15:57:38Z</time>
      </trkpt>
      <trkpt lat="43.32013" lon="-1.36947">
        <ele>117.6</ele>
        <time>2021-07-18T15:57:39Z</time>
      </trkpt>
      <trkpt lat="43.32012" lon="-1.36943">
        <ele>117.8</ele>
        <time>2021-07-18T15:57:41Z</time>
      </trkpt>
      <trkpt lat="43.32012" lon="-1.36941">
        <ele>117.9</ele>
        <time>2021-07-18T15:57:42Z</time>
      </trkpt>
      <trkpt lat="43.32012" lon="-1.36939">
        <ele>118</ele>
        <time>2021-07-18T15:57:43Z</time>
      </trkpt>
      <trkpt lat="43.3201" lon="-1.36934">
        <ele>118.3</ele>
        <time>2021-07-18T15:57:45Z</time>
      </trkpt>
      <trkpt lat="43.32009" lon="-1.36929">
        <ele>118.6</ele>
        <time>2021-07-18T15:57:47Z</time>
      </trkpt>
      <trkpt lat="43.32008" lon="-1.36925">
        <ele>118.8</ele>
        <time>2021-07-18T15:57:48Z</time>
      </trkpt>
      <trkpt lat="43.32007" lon="-1.36921">
        <ele>119.1</ele>
        <time>2021-07-18T15:57:50Z</time>
      </trkpt>
      <trkpt lat="43.32007" lon="-1.36919">
        <ele>119.2</ele>
        <time>2021-07-18T15:57:51Z</time>
      </trkpt>
      <trkpt lat="43.32006" lon="-1.36915">
        <ele>119.4</ele>
        <time>2021-07-18T15:57:53Z</time>
      </trkpt>
      <trkpt lat="43.32005" lon="-1.36912">
        <ele>119.6</ele>
        <time>2021-07-18T15:57:54Z</time>
      </trkpt>
      <trkpt lat="43.32004" lon="-1.36908">
        <ele>119.8</ele>
        <time>2021-07-18T15:57:56Z</time>
      </trkpt>
      <trkpt lat="43.32003" lon="-1.36906">
        <ele>120</ele>
        <time>2021-07-18T15:57:57Z</time>
      </trkpt>
      <trkpt lat="43.32003" lon="-1.36904">
        <ele>120.1</ele>
        <time>2021-07-18T15:57:58Z</time>
      </trkpt>
      <trkpt lat="43.32003" lon="-1.36901">
        <ele>120.2</ele>
        <time>2021-07-18T15:57:59Z</time>
      </trkpt>
      <trkpt lat="43.32001" lon="-1.36896">
        <ele>120.5</ele>
        <time>2021-07-18T15:58:01Z</time>
      </trkpt>
      <trkpt lat="43.32" lon="-1.3689">
        <ele>120.8</ele>
        <time>2021-07-18T15:58:03Z</time>
      </trkpt>
      <trkpt lat="43.32" lon="-1.36889">
        <ele>120.9</ele>
        <time>2021-07-18T15:58:04Z</time>
      </trkpt>
      <trkpt lat="43.31999" lon="-1.36887">
        <ele>121</ele>
        <time>2021-07-18T15:58:05Z</time>
      </trkpt>
      <trkpt lat="43.31999" lon="-1.36885">
        <ele>121.2</ele>
        <time>2021-07-18T15:58:06Z</time>
      </trkpt>
      <trkpt lat="43.31998" lon="-1.3688">
        <ele>121.4</ele>
        <time>2021-07-18T15:58:08Z</time>
      </trkpt>
      <trkpt lat="43.31998" lon="-1.36874">
        <ele>121.7</ele>
        <time>2021-07-18T15:58:10Z</time>
      </trkpt>
      <trkpt lat="43.31997" lon="-1.36873">
        <ele>121.8</ele>
        <time>2021-07-18T15:58:11Z</time>
      </trkpt>
      <trkpt lat="43.31997" lon="-1.36871">
        <ele>121.9</ele>
        <time>2021-07-18T15:58:12Z</time>
      </trkpt>
      <trkpt lat="43.31997" lon="-1.36869">
        <ele>122.1</ele>
        <time>2021-07-18T15:58:13Z</time>
      </trkpt>
      <trkpt lat="43.31996" lon="-1.36864">
        <ele>122.3</ele>
        <time>2021-07-18T15:58:15Z</time>
      </trkpt>
      <trkpt lat="43.31996" lon="-1.36862">
        <ele>122.4</ele>
        <time>2021-07-18T15:58:16Z</time>
      </trkpt>
      <trkpt lat="43.31996" lon="-1.3686">
        <ele>122.6</ele>
        <time>2021-07-18T15:58:17Z</time>
      </trkpt>
      <trkpt lat="43.31995" lon="-1.36857">
        <ele>122.7</ele>
        <time>2021-07-18T15:58:18Z</time>
      </trkpt>
      <trkpt lat="43.31995" lon="-1.36855">
        <ele>122.8</ele>
        <time>2021-07-18T15:58:19Z</time>
      </trkpt>
      <trkpt lat="43.31994" lon="-1.36851">
        <ele>123</ele>
        <time>2021-07-18T15:58:21Z</time>
      </trkpt>
      <trkpt lat="43.31994" lon="-1.36849">
        <ele>123.2</ele>
        <time>2021-07-18T15:58:22Z</time>
      </trkpt>
      <trkpt lat="43.31993" lon="-1.36846">
        <ele>123.3</ele>
        <time>2021-07-18T15:58:24Z</time>
      </trkpt>
      <trkpt lat="43.31993" lon="-1.36844">
        <ele>123.5</ele>
        <time>2021-07-18T15:58:25Z</time>
      </trkpt>
      <trkpt lat="43.31992" lon="-1.3684">
        <ele>123.7</ele>
        <time>2021-07-18T15:58:27Z</time>
      </trkpt>
      <trkpt lat="43.31991" lon="-1.36836">
        <ele>124</ele>
        <time>2021-07-18T15:58:29Z</time>
      </trkpt>
      <trkpt lat="43.31991" lon="-1.36833">
        <ele>124.1</ele>
        <time>2021-07-18T15:58:30Z</time>
      </trkpt>
      <trkpt lat="43.31991" lon="-1.3683">
        <ele>124.3</ele>
        <time>2021-07-18T15:58:32Z</time>
      </trkpt>
      <trkpt lat="43.31991" lon="-1.36828">
        <ele>124.4</ele>
        <time>2021-07-18T15:58:33Z</time>
      </trkpt>
      <trkpt lat="43.31991" lon="-1.36826">
        <ele>124.5</ele>
        <time>2021-07-18T15:58:34Z</time>
      </trkpt>
      <trkpt lat="43.31989" lon="-1.36823">
        <ele>124.7</ele>
        <time>2021-07-18T15:58:36Z</time>
      </trkpt>
      <trkpt lat="43.31988" lon="-1.36819">
        <ele>125</ele>
        <time>2021-07-18T15:58:38Z</time>
      </trkpt>
      <trkpt lat="43.31987" lon="-1.36817">
        <ele>125.1</ele>
        <time>2021-07-18T15:58:39Z</time>
      </trkpt>
      <trkpt lat="43.31987" lon="-1.36814">
        <ele>125.2</ele>
        <time>2021-07-18T15:58:40Z</time>
      </trkpt>
      <trkpt lat="43.31986" lon="-1.36812">
        <ele>125.3</ele>
        <time>2021-07-18T15:58:41Z</time>
      </trkpt>
      <trkpt lat="43.31985" lon="-1.36808">
        <ele>125.5</ele>
        <time>2021-07-18T15:58:43Z</time>
      </trkpt>
      <trkpt lat="43.31985" lon="-1.36804">
        <ele>125.8</ele>
        <time>2021-07-18T15:58:45Z</time>
      </trkpt>
      <trkpt lat="43.31985" lon="-1.36801">
        <ele>125.9</ele>
        <time>2021-07-18T15:58:46Z</time>
      </trkpt>
      <trkpt lat="43.31984" lon="-1.36795">
        <ele>126.2</ele>
        <time>2021-07-18T15:58:48Z</time>
      </trkpt>
      <trkpt lat="43.31984" lon="-1.36791">
        <ele>126.4</ele>
        <time>2021-07-18T15:58:50Z</time>
      </trkpt>
      <trkpt lat="43.31984" lon="-1.36789">
        <ele>126.6</ele>
        <time>2021-07-18T15:58:51Z</time>
      </trkpt>
      <trkpt lat="43.31983" lon="-1.36785">
        <ele>126.9</ele>
        <time>2021-07-18T15:58:53Z</time>
      </trkpt>
      <trkpt lat="43.31983" lon="-1.36782">
        <ele>127</ele>
        <time>2021-07-18T15:58:54Z</time>
      </trkpt>
      <trkpt lat="43.31982" lon="-1.36778">
        <ele>127.3</ele>
        <time>2021-07-18T15:58:56Z</time>
      </trkpt>
      <trkpt lat="43.31982" lon="-1.36773">
        <ele>127.6</ele>
        <time>2021-07-18T15:58:58Z</time>
      </trkpt>
      <trkpt lat="43.31983" lon="-1.3677">
        <ele>127.7</ele>
        <time>2021-07-18T15:58:59Z</time>
      </trkpt>
      <trkpt lat="43.31983" lon="-1.36768">
        <ele>127.9</ele>
        <time>2021-07-18T15:59:00Z</time>
      </trkpt>
      <trkpt lat="43.31982" lon="-1.36763">
        <ele>128.2</ele>
        <time>2021-07-18T15:59:02Z</time>
      </trkpt>
      <trkpt lat="43.31982" lon="-1.36761">
        <ele>128.3</ele>
        <time>2021-07-18T15:59:03Z</time>
      </trkpt>
      <trkpt lat="43.31982" lon="-1.36756">
        <ele>128.5</ele>
        <time>2021-07-18T15:59:05Z</time>
      </trkpt>
      <trkpt lat="43.31982" lon="-1.36751">
        <ele>128.8</ele>
        <time>2021-07-18T15:59:07Z</time>
      </trkpt>
      <trkpt lat="43.31982" lon="-1.36747">
        <ele>129</ele>
        <time>2021-07-18T15:59:09Z</time>
      </trkpt>
      <trkpt lat="43.31982" lon="-1.36744">
        <ele>129.1</ele>
        <time>2021-07-18T15:59:10Z</time>
      </trkpt>
      <trkpt lat="43.31982" lon="-1.36742">
        <ele>129.2</ele>
        <time>2021-07-18T15:59:11Z</time>
      </trkpt>
      <trkpt lat="43.31982" lon="-1.36737">
        <ele>129.5</ele>
        <time>2021-07-18T15:59:13Z</time>
      </trkpt>
      <trkpt lat="43.31983" lon="-1.36733">
        <ele>129.7</ele>
        <time>2021-07-18T15:59:15Z</time>
      </trkpt>
      <trkpt lat="43.31983" lon="-1.3673">
        <ele>129.8</ele>
        <time>2021-07-18T15:59:16Z</time>
      </trkpt>
      <trkpt lat="43.31983" lon="-1.36726">
        <ele>130</ele>
        <time>2021-07-18T15:59:18Z</time>
      </trkpt>
      <trkpt lat="43.31982" lon="-1.36723">
        <ele>130.2</ele>
        <time>2021-07-18T15:59:19Z</time>
      </trkpt>
      <trkpt lat="43.31983" lon="-1.36718">
        <ele>130.4</ele>
        <time>2021-07-18T15:59:21Z</time>
      </trkpt>
      <trkpt lat="43.31983" lon="-1.36713">
        <ele>130.6</ele>
        <time>2021-07-18T15:59:23Z</time>
      </trkpt>
      <trkpt lat="43.31984" lon="-1.36708">
        <ele>130.9</ele>
        <time>2021-07-18T15:59:25Z</time>
      </trkpt>
      <trkpt lat="43.31984" lon="-1.36704">
        <ele>131.1</ele>
        <time>2021-07-18T15:59:27Z</time>
      </trkpt>
      <trkpt lat="43.31985" lon="-1.36701">
        <ele>131.2</ele>
        <time>2021-07-18T15:59:28Z</time>
      </trkpt>
      <trkpt lat="43.31985" lon="-1.36699">
        <ele>131.4</ele>
        <time>2021-07-18T15:59:29Z</time>
      </trkpt>
      <trkpt lat="43.31985" lon="-1.36697">
        <ele>131.5</ele>
        <time>2021-07-18T15:59:30Z</time>
      </trkpt>
      <trkpt lat="43.31986" lon="-1.36692">
        <ele>131.7</ele>
        <time>2021-07-18T15:59:32Z</time>
      </trkpt>
      <trkpt lat="43.31987" lon="-1.36688">
        <ele>131.9</ele>
        <time>2021-07-18T15:59:34Z</time>
      </trkpt>
      <trkpt lat="43.31987" lon="-1.36686">
        <ele>132</ele>
        <time>2021-07-18T15:59:35Z</time>
      </trkpt>
      <trkpt lat="43.31987" lon="-1.36681">
        <ele>132.3</ele>
        <time>2021-07-18T15:59:37Z</time>
      </trkpt>
      <trkpt lat="43.31987" lon="-1.36679">
        <ele>132.4</ele>
        <time>2021-07-18T15:59:38Z</time>
      </trkpt>
      <trkpt lat="43.31988" lon="-1.36674">
        <ele>132.6</ele>
        <time>2021-07-18T15:59:40Z</time>
      </trkpt>
      <trkpt lat="43.31988" lon="-1.36669">
        <ele>132.8</ele>
        <time>2021-07-18T15:59:42Z</time>
      </trkpt>
      <trkpt lat="43.31988" lon="-1.36665">
        <ele>133.1</ele>
        <time>2021-07-18T15:59:44Z</time>
      </trkpt>
      <trkpt lat="43.31988" lon="-1.36663">
        <ele>133.2</ele>
        <time>2021-07-18T15:59:45Z</time>
      </trkpt>
      <trkpt lat="43.31989" lon="-1.36658">
        <ele>133.4</ele>
        <time>2021-07-18T15:59:47Z</time>
      </trkpt>
      <trkpt lat="43.31989" lon="-1.36655">
        <ele>133.6</ele>
        <time>2021-07-18T15:59:48Z</time>
      </trkpt>
      <trkpt lat="43.31989" lon="-1.36651">
        <ele>133.8</ele>
        <time>2021-07-18T15:59:50Z</time>
      </trkpt>
      <trkpt lat="43.31989" lon="-1.36648">
        <ele>134</ele>
        <time>2021-07-18T15:59:51Z</time>
      </trkpt>
      <trkpt lat="43.31989" lon="-1.36644">
        <ele>134.2</ele>
        <time>2021-07-18T15:59:53Z</time>
      </trkpt>
      <trkpt lat="43.31989" lon="-1.36642">
        <ele>134.3</ele>
        <time>2021-07-18T15:59:54Z</time>
      </trkpt>
      <trkpt lat="43.3199" lon="-1.36638">
        <ele>134.5</ele>
        <time>2021-07-18T15:59:56Z</time>
      </trkpt>
      <trkpt lat="43.3199" lon="-1.36633">
        <ele>134.8</ele>
        <time>2021-07-18T15:59:57Z</time>
      </trkpt>
      <trkpt lat="43.3199" lon="-1.36632">
        <ele>134.9</ele>
        <time>2021-07-18T15:59:58Z</time>
      </trkpt>
      <trkpt lat="43.31991" lon="-1.36627">
        <ele>135.1</ele>
        <time>2021-07-18T16:00:00Z</time>
      </trkpt>
      <trkpt lat="43.31991" lon="-1.36622">
        <ele>135.4</ele>
        <time>2021-07-18T16:00:02Z</time>
      </trkpt>
      <trkpt lat="43.31991" lon="-1.3662">
        <ele>135.6</ele>
        <time>2021-07-18T16:00:03Z</time>
      </trkpt>
      <trkpt lat="43.3199" lon="-1.36615">
        <ele>135.8</ele>
        <time>2021-07-18T16:00:05Z</time>
      </trkpt>
      <trkpt lat="43.31991" lon="-1.3661">
        <ele>136.1</ele>
        <time>2021-07-18T16:00:07Z</time>
      </trkpt>
      <trkpt lat="43.31991" lon="-1.36608">
        <ele>136.2</ele>
        <time>2021-07-18T16:00:08Z</time>
      </trkpt>
      <trkpt lat="43.3199" lon="-1.36605">
        <ele>136.3</ele>
        <time>2021-07-18T16:00:09Z</time>
      </trkpt>
      <trkpt lat="43.3199" lon="-1.36601">
        <ele>136.6</ele>
        <time>2021-07-18T16:00:11Z</time>
      </trkpt>
      <trkpt lat="43.3199" lon="-1.36596">
        <ele>136.9</ele>
        <time>2021-07-18T16:00:13Z</time>
      </trkpt>
      <trkpt lat="43.3199" lon="-1.36594">
        <ele>137</ele>
        <time>2021-07-18T16:00:14Z</time>
      </trkpt>
      <trkpt lat="43.3199" lon="-1.36589">
        <ele>137.3</ele>
        <time>2021-07-18T16:00:16Z</time>
      </trkpt>
      <trkpt lat="43.3199" lon="-1.36587">
        <ele>137.4</ele>
        <time>2021-07-18T16:00:17Z</time>
      </trkpt>
      <trkpt lat="43.31989" lon="-1.36583">
        <ele>137.6</ele>
        <time>2021-07-18T16:00:19Z</time>
      </trkpt>
      <trkpt lat="43.31989" lon="-1.36579">
        <ele>137.8</ele>
        <time>2021-07-18T16:00:20Z</time>
      </trkpt>
      <trkpt lat="43.31989" lon="-1.36578">
        <ele>137.9</ele>
        <time>2021-07-18T16:00:21Z</time>
      </trkpt>
      <trkpt lat="43.31989" lon="-1.36573">
        <ele>138.2</ele>
        <time>2021-07-18T16:00:23Z</time>
      </trkpt>
      <trkpt lat="43.31989" lon="-1.36571">
        <ele>138.3</ele>
        <time>2021-07-18T16:00:24Z</time>
      </trkpt>
      <trkpt lat="43.31989" lon="-1.36566">
        <ele>138.6</ele>
        <time>2021-07-18T16:00:26Z</time>
      </trkpt>
      <trkpt lat="43.31988" lon="-1.36564">
        <ele>138.7</ele>
        <time>2021-07-18T16:00:27Z</time>
      </trkpt>
      <trkpt lat="43.31988" lon="-1.36562">
        <ele>138.9</ele>
        <time>2021-07-18T16:00:28Z</time>
      </trkpt>
      <trkpt lat="43.31987" lon="-1.36557">
        <ele>139.2</ele>
        <time>2021-07-18T16:00:30Z</time>
      </trkpt>
      <trkpt lat="43.31987" lon="-1.36553">
        <ele>139.5</ele>
        <time>2021-07-18T16:00:32Z</time>
      </trkpt>
      <trkpt lat="43.31986" lon="-1.3655">
        <ele>139.6</ele>
        <time>2021-07-18T16:00:33Z</time>
      </trkpt>
      <trkpt lat="43.31986" lon="-1.36548">
        <ele>139.8</ele>
        <time>2021-07-18T16:00:34Z</time>
      </trkpt>
      <trkpt lat="43.31986" lon="-1.36543">
        <ele>140.1</ele>
        <time>2021-07-18T16:00:36Z</time>
      </trkpt>
      <trkpt lat="43.31985" lon="-1.3654">
        <ele>140.3</ele>
        <time>2021-07-18T16:00:38Z</time>
      </trkpt>
      <trkpt lat="43.31984" lon="-1.36537">
        <ele>140.5</ele>
        <time>2021-07-18T16:00:39Z</time>
      </trkpt>
      <trkpt lat="43.31984" lon="-1.36532">
        <ele>140.8</ele>
        <time>2021-07-18T16:00:41Z</time>
      </trkpt>
      <trkpt lat="43.31984" lon="-1.3653">
        <ele>140.9</ele>
        <time>2021-07-18T16:00:42Z</time>
      </trkpt>
      <trkpt lat="43.31983" lon="-1.36526">
        <ele>141.2</ele>
        <time>2021-07-18T16:00:44Z</time>
      </trkpt>
      <trkpt lat="43.31983" lon="-1.36524">
        <ele>141.3</ele>
        <time>2021-07-18T16:00:45Z</time>
      </trkpt>
      <trkpt lat="43.31983" lon="-1.36521">
        <ele>141.5</ele>
        <time>2021-07-18T16:00:46Z</time>
      </trkpt>
      <trkpt lat="43.31982" lon="-1.36519">
        <ele>141.6</ele>
        <time>2021-07-18T16:00:47Z</time>
      </trkpt>
      <trkpt lat="43.31982" lon="-1.36515">
        <ele>141.9</ele>
        <time>2021-07-18T16:00:49Z</time>
      </trkpt>
      <trkpt lat="43.31981" lon="-1.3651">
        <ele>142.1</ele>
        <time>2021-07-18T16:00:51Z</time>
      </trkpt>
      <trkpt lat="43.31981" lon="-1.36508">
        <ele>142.3</ele>
        <time>2021-07-18T16:00:52Z</time>
      </trkpt>
      <trkpt lat="43.31981" lon="-1.36505">
        <ele>142.4</ele>
        <time>2021-07-18T16:00:53Z</time>
      </trkpt>
      <trkpt lat="43.3198" lon="-1.36501">
        <ele>142.7</ele>
        <time>2021-07-18T16:00:55Z</time>
      </trkpt>
      <trkpt lat="43.3198" lon="-1.36496">
        <ele>142.9</ele>
        <time>2021-07-18T16:00:57Z</time>
      </trkpt>
      <trkpt lat="43.31979" lon="-1.36492">
        <ele>143.2</ele>
        <time>2021-07-18T16:00:59Z</time>
      </trkpt>
      <trkpt lat="43.31978" lon="-1.36489">
        <ele>143.3</ele>
        <time>2021-07-18T16:01:00Z</time>
      </trkpt>
      <trkpt lat="43.31978" lon="-1.36485">
        <ele>143.5</ele>
        <time>2021-07-18T16:01:02Z</time>
      </trkpt>
      <trkpt lat="43.31977" lon="-1.36481">
        <ele>143.8</ele>
        <time>2021-07-18T16:01:03Z</time>
      </trkpt>
      <trkpt lat="43.31977" lon="-1.3648">
        <ele>143.8</ele>
        <time>2021-07-18T16:01:04Z</time>
      </trkpt>
      <trkpt lat="43.31977" lon="-1.36478">
        <ele>144</ele>
        <time>2021-07-18T16:01:05Z</time>
      </trkpt>
      <trkpt lat="43.31976" lon="-1.36473">
        <ele>144.2</ele>
        <time>2021-07-18T16:01:07Z</time>
      </trkpt>
      <trkpt lat="43.31976" lon="-1.36471">
        <ele>144.3</ele>
        <time>2021-07-18T16:01:08Z</time>
      </trkpt>
      <trkpt lat="43.31976" lon="-1.36468">
        <ele>144.5</ele>
        <time>2021-07-18T16:01:09Z</time>
      </trkpt>
      <trkpt lat="43.31975" lon="-1.36466">
        <ele>144.6</ele>
        <time>2021-07-18T16:01:10Z</time>
      </trkpt>
      <trkpt lat="43.31974" lon="-1.36461">
        <ele>144.8</ele>
        <time>2021-07-18T16:01:12Z</time>
      </trkpt>
      <trkpt lat="43.31974" lon="-1.36457">
        <ele>145</ele>
        <time>2021-07-18T16:01:13Z</time>
      </trkpt>
      <trkpt lat="43.31974" lon="-1.36455">
        <ele>145.1</ele>
        <time>2021-07-18T16:01:14Z</time>
      </trkpt>
      <trkpt lat="43.31974" lon="-1.36453">
        <ele>145.2</ele>
        <time>2021-07-18T16:01:15Z</time>
      </trkpt>
      <trkpt lat="43.31972" lon="-1.36447">
        <ele>145.5</ele>
        <time>2021-07-18T16:01:17Z</time>
      </trkpt>
      <trkpt lat="43.31971" lon="-1.36442">
        <ele>145.6</ele>
        <time>2021-07-18T16:01:18Z</time>
      </trkpt>
      <trkpt lat="43.31971" lon="-1.36441">
        <ele>145.7</ele>
        <time>2021-07-18T16:01:19Z</time>
      </trkpt>
      <trkpt lat="43.3197" lon="-1.36435">
        <ele>145.9</ele>
        <time>2021-07-18T16:01:21Z</time>
      </trkpt>
      <trkpt lat="43.3197" lon="-1.36432">
        <ele>146</ele>
        <time>2021-07-18T16:01:22Z</time>
      </trkpt>
      <trkpt lat="43.31968" lon="-1.36426">
        <ele>146.2</ele>
        <time>2021-07-18T16:01:24Z</time>
      </trkpt>
      <trkpt lat="43.31968" lon="-1.36419">
        <ele>146.4</ele>
        <time>2021-07-18T16:01:26Z</time>
      </trkpt>
      <trkpt lat="43.31967" lon="-1.36415">
        <ele>146.6</ele>
        <time>2021-07-18T16:01:27Z</time>
      </trkpt>
      <trkpt lat="43.31967" lon="-1.36413">
        <ele>146.6</ele>
        <time>2021-07-18T16:01:28Z</time>
      </trkpt>
      <trkpt lat="43.31966" lon="-1.36409">
        <ele>146.7</ele>
        <time>2021-07-18T16:01:30Z</time>
      </trkpt>
      <trkpt lat="43.31964" lon="-1.36404">
        <ele>146.8</ele>
        <time>2021-07-18T16:01:31Z</time>
      </trkpt>
      <trkpt lat="43.31964" lon="-1.36401">
        <ele>146.9</ele>
        <time>2021-07-18T16:01:32Z</time>
      </trkpt>
      <trkpt lat="43.31962" lon="-1.36394">
        <ele>147</ele>
        <time>2021-07-18T16:01:34Z</time>
      </trkpt>
      <trkpt lat="43.31961" lon="-1.36389">
        <ele>147.1</ele>
        <time>2021-07-18T16:01:35Z</time>
      </trkpt>
      <trkpt lat="43.3196" lon="-1.36387">
        <ele>147.1</ele>
        <time>2021-07-18T16:01:36Z</time>
      </trkpt>
      <trkpt lat="43.31959" lon="-1.36381">
        <ele>147.2</ele>
        <time>2021-07-18T16:01:38Z</time>
      </trkpt>
      <trkpt lat="43.31958" lon="-1.36377">
        <ele>147.3</ele>
        <time>2021-07-18T16:01:39Z</time>
      </trkpt>
      <trkpt lat="43.31957" lon="-1.3637">
        <ele>147.3</ele>
        <time>2021-07-18T16:01:41Z</time>
      </trkpt>
      <trkpt lat="43.31956" lon="-1.36366">
        <ele>147.4</ele>
        <time>2021-07-18T16:01:42Z</time>
      </trkpt>
      <trkpt lat="43.31954" lon="-1.36357">
        <ele>147.4</ele>
        <time>2021-07-18T16:01:44Z</time>
      </trkpt>
      <trkpt lat="43.31953" lon="-1.36353">
        <ele>147.4</ele>
        <time>2021-07-18T16:01:45Z</time>
      </trkpt>
      <trkpt lat="43.31951" lon="-1.36346">
        <ele>147.4</ele>
        <time>2021-07-18T16:01:47Z</time>
      </trkpt>
      <trkpt lat="43.31949" lon="-1.3634">
        <ele>147.4</ele>
        <time>2021-07-18T16:01:48Z</time>
      </trkpt>
      <trkpt lat="43.31948" lon="-1.36334">
        <ele>147.4</ele>
        <time>2021-07-18T16:01:49Z</time>
      </trkpt>
      <trkpt lat="43.31945" lon="-1.36325">
        <ele>147.3</ele>
        <time>2021-07-18T16:01:51Z</time>
      </trkpt>
      <trkpt lat="43.31942" lon="-1.36318">
        <ele>147.1</ele>
        <time>2021-07-18T16:01:52Z</time>
      </trkpt>
      <trkpt lat="43.31939" lon="-1.36311">
        <ele>147</ele>
        <time>2021-07-18T16:01:54Z</time>
      </trkpt>
      <trkpt lat="43.31937" lon="-1.36304">
        <ele>146.8</ele>
        <time>2021-07-18T16:01:55Z</time>
      </trkpt>
      <trkpt lat="43.31933" lon="-1.36296">
        <ele>146.5</ele>
        <time>2021-07-18T16:01:56Z</time>
      </trkpt>
      <trkpt lat="43.31929" lon="-1.36283">
        <ele>146.1</ele>
        <time>2021-07-18T16:01:58Z</time>
      </trkpt>
      <trkpt lat="43.31924" lon="-1.36269">
        <ele>145.5</ele>
        <time>2021-07-18T16:02:00Z</time>
      </trkpt>
      <trkpt lat="43.31921" lon="-1.36262">
        <ele>145.2</ele>
        <time>2021-07-18T16:02:01Z</time>
      </trkpt>
      <trkpt lat="43.31915" lon="-1.36246">
        <ele>144.4</ele>
        <time>2021-07-18T16:02:03Z</time>
      </trkpt>
      <trkpt lat="43.31912" lon="-1.36237">
        <ele>144</ele>
        <time>2021-07-18T16:02:04Z</time>
      </trkpt>
      <trkpt lat="43.31909" lon="-1.36228">
        <ele>143.6</ele>
        <time>2021-07-18T16:02:05Z</time>
      </trkpt>
      <trkpt lat="43.31903" lon="-1.36209">
        <ele>142.6</ele>
        <time>2021-07-18T16:02:07Z</time>
      </trkpt>
      <trkpt lat="43.31896" lon="-1.3619">
        <ele>141.6</ele>
        <time>2021-07-18T16:02:09Z</time>
      </trkpt>
      <trkpt lat="43.31892" lon="-1.3618">
        <ele>141.1</ele>
        <time>2021-07-18T16:02:10Z</time>
      </trkpt>
      <trkpt lat="43.31884" lon="-1.36159">
        <ele>140.2</ele>
        <time>2021-07-18T16:02:12Z</time>
      </trkpt>
      <trkpt lat="43.31875" lon="-1.36138">
        <ele>139.7</ele>
        <time>2021-07-18T16:02:14Z</time>
      </trkpt>
      <trkpt lat="43.31865" lon="-1.36116">
        <ele>138.6</ele>
        <time>2021-07-18T16:02:16Z</time>
      </trkpt>
      <trkpt lat="43.3186" lon="-1.36105">
        <ele>138</ele>
        <time>2021-07-18T16:02:17Z</time>
      </trkpt>
      <trkpt lat="43.31855" lon="-1.36093">
        <ele>137.4</ele>
        <time>2021-07-18T16:02:18Z</time>
      </trkpt>
      <trkpt lat="43.31844" lon="-1.3607">
        <ele>136.1</ele>
        <time>2021-07-18T16:02:20Z</time>
      </trkpt>
      <trkpt lat="43.31832" lon="-1.36047">
        <ele>134.8</ele>
        <time>2021-07-18T16:02:22Z</time>
      </trkpt>
      <trkpt lat="43.31825" lon="-1.36035">
        <ele>134.2</ele>
        <time>2021-07-18T16:02:23Z</time>
      </trkpt>
      <trkpt lat="43.31819" lon="-1.36023">
        <ele>133.5</ele>
        <time>2021-07-18T16:02:24Z</time>
      </trkpt>
      <trkpt lat="43.31806" lon="-1.36">
        <ele>132.1</ele>
        <time>2021-07-18T16:02:26Z</time>
      </trkpt>
      <trkpt lat="43.318" lon="-1.35989">
        <ele>131.3</ele>
        <time>2021-07-18T16:02:27Z</time>
      </trkpt>
      <trkpt lat="43.31793" lon="-1.35977">
        <ele>130.4</ele>
        <time>2021-07-18T16:02:28Z</time>
      </trkpt>
      <trkpt lat="43.31782" lon="-1.35952">
        <ele>128.4</ele>
        <time>2021-07-18T16:02:30Z</time>
      </trkpt>
      <trkpt lat="43.31772" lon="-1.35925">
        <ele>126.4</ele>
        <time>2021-07-18T16:02:32Z</time>
      </trkpt>
      <trkpt lat="43.31767" lon="-1.3591">
        <ele>125.3</ele>
        <time>2021-07-18T16:02:33Z</time>
      </trkpt>
      <trkpt lat="43.31758" lon="-1.3588">
        <ele>123.4</ele>
        <time>2021-07-18T16:02:35Z</time>
      </trkpt>
      <trkpt lat="43.31753" lon="-1.35865">
        <ele>122.5</ele>
        <time>2021-07-18T16:02:36Z</time>
      </trkpt>
      <trkpt lat="43.31747" lon="-1.3585">
        <ele>121.8</ele>
        <time>2021-07-18T16:02:37Z</time>
      </trkpt>
      <trkpt lat="43.31735" lon="-1.35822">
        <ele>120.5</ele>
        <time>2021-07-18T16:02:39Z</time>
      </trkpt>
      <trkpt lat="43.31722" lon="-1.35794">
        <ele>119.4</ele>
        <time>2021-07-18T16:02:41Z</time>
      </trkpt>
      <trkpt lat="43.31716" lon="-1.35782">
        <ele>118.9</ele>
        <time>2021-07-18T16:02:42Z</time>
      </trkpt>
      <trkpt lat="43.31702" lon="-1.35756">
        <ele>118.2</ele>
        <time>2021-07-18T16:02:44Z</time>
      </trkpt>
      <trkpt lat="43.31695" lon="-1.35744">
        <ele>117.9</ele>
        <time>2021-07-18T16:02:45Z</time>
      </trkpt>
      <trkpt lat="43.31682" lon="-1.35721">
        <ele>117.6</ele>
        <time>2021-07-18T16:02:47Z</time>
      </trkpt>
      <trkpt lat="43.31675" lon="-1.35709">
        <ele>117.5</ele>
        <time>2021-07-18T16:02:48Z</time>
      </trkpt>
      <trkpt lat="43.31669" lon="-1.35698">
        <ele>117.5</ele>
        <time>2021-07-18T16:02:49Z</time>
      </trkpt>
      <trkpt lat="43.31656" lon="-1.35677">
        <ele>117.4</ele>
        <time>2021-07-18T16:02:51Z</time>
      </trkpt>
      <trkpt lat="43.3165" lon="-1.35666">
        <ele>117.3</ele>
        <time>2021-07-18T16:02:52Z</time>
      </trkpt>
      <trkpt lat="43.31639" lon="-1.35646">
        <ele>117.1</ele>
        <time>2021-07-18T16:02:54Z</time>
      </trkpt>
      <trkpt lat="43.3163" lon="-1.35626">
        <ele>117</ele>
        <time>2021-07-18T16:02:56Z</time>
      </trkpt>
      <trkpt lat="43.31626" lon="-1.35617">
        <ele>117.1</ele>
        <time>2021-07-18T16:02:57Z</time>
      </trkpt>
      <trkpt lat="43.31617" lon="-1.35599">
        <ele>117.1</ele>
        <time>2021-07-18T16:02:59Z</time>
      </trkpt>
      <trkpt lat="43.31613" lon="-1.3559">
        <ele>117.2</ele>
        <time>2021-07-18T16:03:00Z</time>
      </trkpt>
      <trkpt lat="43.31608" lon="-1.35572">
        <ele>117.2</ele>
        <time>2021-07-18T16:03:02Z</time>
      </trkpt>
      <trkpt lat="43.31606" lon="-1.35564">
        <ele>117.2</ele>
        <time>2021-07-18T16:03:03Z</time>
      </trkpt>
      <trkpt lat="43.31604" lon="-1.35556">
        <ele>117.2</ele>
        <time>2021-07-18T16:03:04Z</time>
      </trkpt>
      <trkpt lat="43.31602" lon="-1.35548">
        <ele>117.2</ele>
        <time>2021-07-18T16:03:05Z</time>
      </trkpt>
      <trkpt lat="43.31601" lon="-1.35539">
        <ele>117.2</ele>
        <time>2021-07-18T16:03:06Z</time>
      </trkpt>
      <trkpt lat="43.31598" lon="-1.35524">
        <ele>117.2</ele>
        <time>2021-07-18T16:03:08Z</time>
      </trkpt>
      <trkpt lat="43.31596" lon="-1.35509">
        <ele>117.2</ele>
        <time>2021-07-18T16:03:10Z</time>
      </trkpt>
      <trkpt lat="43.31596" lon="-1.35502">
        <ele>117.2</ele>
        <time>2021-07-18T16:03:11Z</time>
      </trkpt>
      <trkpt lat="43.31595" lon="-1.35488">
        <ele>117.1</ele>
        <time>2021-07-18T16:03:13Z</time>
      </trkpt>
      <trkpt lat="43.31594" lon="-1.35481">
        <ele>117.1</ele>
        <time>2021-07-18T16:03:14Z</time>
      </trkpt>
      <trkpt lat="43.31594" lon="-1.35474">
        <ele>117</ele>
        <time>2021-07-18T16:03:15Z</time>
      </trkpt>
      <trkpt lat="43.31593" lon="-1.3546">
        <ele>116.9</ele>
        <time>2021-07-18T16:03:17Z</time>
      </trkpt>
      <trkpt lat="43.31594" lon="-1.35453">
        <ele>116.8</ele>
        <time>2021-07-18T16:03:18Z</time>
      </trkpt>
      <trkpt lat="43.31594" lon="-1.35439">
        <ele>116.6</ele>
        <time>2021-07-18T16:03:20Z</time>
      </trkpt>
      <trkpt lat="43.31593" lon="-1.35424">
        <ele>116.3</ele>
        <time>2021-07-18T16:03:22Z</time>
      </trkpt>
      <trkpt lat="43.31593" lon="-1.35416">
        <ele>116.1</ele>
        <time>2021-07-18T16:03:23Z</time>
      </trkpt>
      <trkpt lat="43.31592" lon="-1.35409">
        <ele>115.9</ele>
        <time>2021-07-18T16:03:24Z</time>
      </trkpt>
      <trkpt lat="43.3159" lon="-1.35393">
        <ele>115.5</ele>
        <time>2021-07-18T16:03:26Z</time>
      </trkpt>
      <trkpt lat="43.31586" lon="-1.35376">
        <ele>115</ele>
        <time>2021-07-18T16:03:28Z</time>
      </trkpt>
      <trkpt lat="43.31584" lon="-1.35369">
        <ele>114.8</ele>
        <time>2021-07-18T16:03:29Z</time>
      </trkpt>
      <trkpt lat="43.31582" lon="-1.3536">
        <ele>114.6</ele>
        <time>2021-07-18T16:03:30Z</time>
      </trkpt>
      <trkpt lat="43.3158" lon="-1.35352">
        <ele>114.4</ele>
        <time>2021-07-18T16:03:31Z</time>
      </trkpt>
      <trkpt lat="43.31576" lon="-1.35335">
        <ele>113.9</ele>
        <time>2021-07-18T16:03:33Z</time>
      </trkpt>
      <trkpt lat="43.31571" lon="-1.35318">
        <ele>113.4</ele>
        <time>2021-07-18T16:03:35Z</time>
      </trkpt>
      <trkpt lat="43.31568" lon="-1.35299">
        <ele>112.9</ele>
        <time>2021-07-18T16:03:37Z</time>
      </trkpt>
      <trkpt lat="43.31567" lon="-1.3529">
        <ele>112.6</ele>
        <time>2021-07-18T16:03:38Z</time>
      </trkpt>
      <trkpt lat="43.31565" lon="-1.35281">
        <ele>112.4</ele>
        <time>2021-07-18T16:03:39Z</time>
      </trkpt>
      <trkpt lat="43.31563" lon="-1.35261">
        <ele>111.8</ele>
        <time>2021-07-18T16:03:41Z</time>
      </trkpt>
      <trkpt lat="43.31563" lon="-1.35251">
        <ele>111.5</ele>
        <time>2021-07-18T16:03:42Z</time>
      </trkpt>
      <trkpt lat="43.31562" lon="-1.35231">
        <ele>110.8</ele>
        <time>2021-07-18T16:03:44Z</time>
      </trkpt>
      <trkpt lat="43.31562" lon="-1.3522">
        <ele>110.4</ele>
        <time>2021-07-18T16:03:45Z</time>
      </trkpt>
      <trkpt lat="43.31562" lon="-1.35198">
        <ele>109.4</ele>
        <time>2021-07-18T16:03:47Z</time>
      </trkpt>
      <trkpt lat="43.31561" lon="-1.35186">
        <ele>108.9</ele>
        <time>2021-07-18T16:03:48Z</time>
      </trkpt>
      <trkpt lat="43.31559" lon="-1.35174">
        <ele>108.4</ele>
        <time>2021-07-18T16:03:49Z</time>
      </trkpt>
      <trkpt lat="43.31556" lon="-1.35161">
        <ele>107.8</ele>
        <time>2021-07-18T16:03:50Z</time>
      </trkpt>
      <trkpt lat="43.31552" lon="-1.35149">
        <ele>107.2</ele>
        <time>2021-07-18T16:03:51Z</time>
      </trkpt>
      <trkpt lat="43.31542" lon="-1.35127">
        <ele>105.9</ele>
        <time>2021-07-18T16:03:53Z</time>
      </trkpt>
      <trkpt lat="43.31535" lon="-1.35116">
        <ele>105.3</ele>
        <time>2021-07-18T16:03:54Z</time>
      </trkpt>
      <trkpt lat="43.31528" lon="-1.35105">
        <ele>104.7</ele>
        <time>2021-07-18T16:03:55Z</time>
      </trkpt>
      <trkpt lat="43.31512" lon="-1.35087">
        <ele>103.7</ele>
        <time>2021-07-18T16:03:57Z</time>
      </trkpt>
      <trkpt lat="43.31493" lon="-1.35075">
        <ele>103.1</ele>
        <time>2021-07-18T16:03:59Z</time>
      </trkpt>
      <trkpt lat="43.31479" lon="-1.3507">
        <ele>103</ele>
        <time>2021-07-18T16:04:01Z</time>
      </trkpt>
      <trkpt lat="43.31472" lon="-1.3507">
        <ele>103.2</ele>
        <time>2021-07-18T16:04:02Z</time>
      </trkpt>
      <trkpt lat="43.31467" lon="-1.35068">
        <ele>103</ele>
        <time>2021-07-18T16:04:03Z</time>
      </trkpt>
      <trkpt lat="43.31462" lon="-1.35054">
        <ele>102.7</ele>
        <time>2021-07-18T16:04:05Z</time>
      </trkpt>
      <trkpt lat="43.31464" lon="-1.35045">
        <ele>102.8</ele>
        <time>2021-07-18T16:04:06Z</time>
      </trkpt>
      <trkpt lat="43.31473" lon="-1.35032">
        <ele>102.6</ele>
        <time>2021-07-18T16:04:08Z</time>
      </trkpt>
      <trkpt lat="43.31478" lon="-1.35026">
        <ele>102.3</ele>
        <time>2021-07-18T16:04:09Z</time>
      </trkpt>
      <trkpt lat="43.31489" lon="-1.35014">
        <ele>101.9</ele>
        <time>2021-07-18T16:04:11Z</time>
      </trkpt>
      <trkpt lat="43.31494" lon="-1.3501">
        <ele>101.8</ele>
        <time>2021-07-18T16:04:12Z</time>
      </trkpt>
      <trkpt lat="43.315" lon="-1.35006">
        <ele>101.7</ele>
        <time>2021-07-18T16:04:13Z</time>
      </trkpt>
      <trkpt lat="43.31506" lon="-1.35004">
        <ele>101.7</ele>
        <time>2021-07-18T16:04:14Z</time>
      </trkpt>
      <trkpt lat="43.31517" lon="-1.35001">
        <ele>101.7</ele>
        <time>2021-07-18T16:04:16Z</time>
      </trkpt>
      <trkpt lat="43.31527" lon="-1.35002">
        <ele>101.6</ele>
        <time>2021-07-18T16:04:18Z</time>
      </trkpt>
      <trkpt lat="43.31532" lon="-1.35004">
        <ele>101.7</ele>
        <time>2021-07-18T16:04:19Z</time>
      </trkpt>
      <trkpt lat="43.31536" lon="-1.35006">
        <ele>101.7</ele>
        <time>2021-07-18T16:04:20Z</time>
      </trkpt>
      <trkpt lat="43.31545" lon="-1.35009">
        <ele>102</ele>
        <time>2021-07-18T16:04:22Z</time>
      </trkpt>
      <trkpt lat="43.31552" lon="-1.35013">
        <ele>102.3</ele>
        <time>2021-07-18T16:04:24Z</time>
      </trkpt>
      <trkpt lat="43.31554" lon="-1.35014">
        <ele>102.4</ele>
        <time>2021-07-18T16:04:25Z</time>
      </trkpt>
      <trkpt lat="43.31559" lon="-1.35017">
        <ele>102.7</ele>
        <time>2021-07-18T16:04:27Z</time>
      </trkpt>
      <trkpt lat="43.31563" lon="-1.3502">
        <ele>102.8</ele>
        <time>2021-07-18T16:04:28Z</time>
      </trkpt>
      <trkpt lat="43.31564" lon="-1.35021">
        <ele>102.9</ele>
        <time>2021-07-18T16:04:29Z</time>
      </trkpt>
      <trkpt lat="43.31568" lon="-1.35023">
        <ele>103.1</ele>
        <time>2021-07-18T16:04:31Z</time>
      </trkpt>
      <trkpt lat="43.31572" lon="-1.35025">
        <ele>103.3</ele>
        <time>2021-07-18T16:04:33Z</time>
      </trkpt>
      <trkpt lat="43.31575" lon="-1.35025">
        <ele>103.5</ele>
        <time>2021-07-18T16:04:34Z</time>
      </trkpt>
      <trkpt lat="43.31578" lon="-1.35026">
        <ele>103.6</ele>
        <time>2021-07-18T16:04:35Z</time>
      </trkpt>
      <trkpt lat="43.31583" lon="-1.35027">
        <ele>103.9</ele>
        <time>2021-07-18T16:04:37Z</time>
      </trkpt>
      <trkpt lat="43.31585" lon="-1.35028">
        <ele>104.1</ele>
        <time>2021-07-18T16:04:38Z</time>
      </trkpt>
      <trkpt lat="43.31591" lon="-1.35028">
        <ele>104.4</ele>
        <time>2021-07-18T16:04:40Z</time>
      </trkpt>
      <trkpt lat="43.31594" lon="-1.35029">
        <ele>104.6</ele>
        <time>2021-07-18T16:04:41Z</time>
      </trkpt>
      <trkpt lat="43.31598" lon="-1.3503">
        <ele>104.9</ele>
        <time>2021-07-18T16:04:43Z</time>
      </trkpt>
      <trkpt lat="43.31599" lon="-1.35031">
        <ele>105</ele>
        <time>2021-07-18T16:04:44Z</time>
      </trkpt>
      <trkpt lat="43.31602" lon="-1.35031">
        <ele>105.2</ele>
        <time>2021-07-18T16:04:46Z</time>
      </trkpt>
      <trkpt lat="43.31605" lon="-1.35032">
        <ele>105.4</ele>
        <time>2021-07-18T16:04:48Z</time>
      </trkpt>
      <trkpt lat="43.31607" lon="-1.35032">
        <ele>105.6</ele>
        <time>2021-07-18T16:04:49Z</time>
      </trkpt>
      <trkpt lat="43.31611" lon="-1.35031">
        <ele>105.8</ele>
        <time>2021-07-18T16:04:51Z</time>
      </trkpt>
      <trkpt lat="43.31612" lon="-1.35031">
        <ele>105.9</ele>
        <time>2021-07-18T16:04:52Z</time>
      </trkpt>
      <trkpt lat="43.31614" lon="-1.35028">
        <ele>106.1</ele>
        <time>2021-07-18T16:04:54Z</time>
      </trkpt>
      <trkpt lat="43.31613" lon="-1.35027">
        <ele>106.2</ele>
        <time>2021-07-18T16:04:56Z</time>
      </trkpt>
      <trkpt lat="43.31612" lon="-1.35028">
        <ele>106.3</ele>
        <time>2021-07-18T16:04:58Z</time>
      </trkpt>
      <trkpt lat="43.31612" lon="-1.35028">
        <ele>106.3</ele>
        <time>2021-07-18T16:05:00Z</time>
      </trkpt>
      <trkpt lat="43.31612" lon="-1.35028">
        <ele>106.3</ele>
        <time>2021-07-18T16:05:01Z</time>
      </trkpt>
      <trkpt lat="43.31611" lon="-1.35027">
        <ele>106.3</ele>
        <time>2021-07-18T16:05:03Z</time>
      </trkpt>
      <trkpt lat="43.31611" lon="-1.35027">
        <ele>106.4</ele>
        <time>2021-07-18T16:05:05Z</time>
      </trkpt>
      <trkpt lat="43.31615" lon="-1.35028">
        <ele>106.6</ele>
        <time>2021-07-18T16:05:25Z</time>
      </trkpt>
      <trkpt lat="43.31617" lon="-1.35029">
        <ele>106.6</ele>
        <time>2021-07-18T16:05:26Z</time>
      </trkpt>
      <trkpt lat="43.31618" lon="-1.3503">
        <ele>106.7</ele>
        <time>2021-07-18T16:05:27Z</time>
      </trkpt>
      <trkpt lat="43.31621" lon="-1.35031">
        <ele>106.8</ele>
        <time>2021-07-18T16:05:29Z</time>
      </trkpt>
      <trkpt lat="43.31623" lon="-1.35034">
        <ele>106.9</ele>
        <time>2021-07-18T16:05:31Z</time>
      </trkpt>
      <trkpt lat="43.31625" lon="-1.35035">
        <ele>106.9</ele>
        <time>2021-07-18T16:05:32Z</time>
      </trkpt>
      <trkpt lat="43.31628" lon="-1.35034">
        <ele>107</ele>
        <time>2021-07-18T16:05:34Z</time>
      </trkpt>
      <trkpt lat="43.31629" lon="-1.35034">
        <ele>107</ele>
        <time>2021-07-18T16:05:35Z</time>
      </trkpt>
      <trkpt lat="43.3163" lon="-1.35038">
        <ele>107.1</ele>
        <time>2021-07-18T16:05:37Z</time>
      </trkpt>
      <trkpt lat="43.3163" lon="-1.3504">
        <ele>107.1</ele>
        <time>2021-07-18T16:05:38Z</time>
      </trkpt>
      <trkpt lat="43.31631" lon="-1.35042">
        <ele>107.1</ele>
        <time>2021-07-18T16:05:39Z</time>
      </trkpt>
      <trkpt lat="43.31631" lon="-1.35046">
        <ele>107.1</ele>
        <time>2021-07-18T16:05:41Z</time>
      </trkpt>
      <trkpt lat="43.31633" lon="-1.35047">
        <ele>107.1</ele>
        <time>2021-07-18T16:05:42Z</time>
      </trkpt>
      <trkpt lat="43.31633" lon="-1.35049">
        <ele>107.1</ele>
        <time>2021-07-18T16:05:43Z</time>
      </trkpt>
      <trkpt lat="43.31633" lon="-1.35052">
        <ele>107.1</ele>
        <time>2021-07-18T16:05:44Z</time>
      </trkpt>
      <trkpt lat="43.31634" lon="-1.35056">
        <ele>107.2</ele>
        <time>2021-07-18T16:05:46Z</time>
      </trkpt>
      <trkpt lat="43.31635" lon="-1.35059">
        <ele>107.2</ele>
        <time>2021-07-18T16:05:47Z</time>
      </trkpt>
      <trkpt lat="43.31636" lon="-1.35064">
        <ele>107.2</ele>
        <time>2021-07-18T16:05:49Z</time>
      </trkpt>
      <trkpt lat="43.31637" lon="-1.35066">
        <ele>107.2</ele>
        <time>2021-07-18T16:05:50Z</time>
      </trkpt>
      <trkpt lat="43.31638" lon="-1.35071">
        <ele>107.1</ele>
        <time>2021-07-18T16:05:52Z</time>
      </trkpt>
      <trkpt lat="43.31637" lon="-1.35074">
        <ele>107.1</ele>
        <time>2021-07-18T16:05:53Z</time>
      </trkpt>
      <trkpt lat="43.31635" lon="-1.35077">
        <ele>107.1</ele>
        <time>2021-07-18T16:05:55Z</time>
      </trkpt>
      <trkpt lat="43.31633" lon="-1.35076">
        <ele>107.1</ele>
        <time>2021-07-18T16:05:56Z</time>
      </trkpt>
      <trkpt lat="43.31632" lon="-1.35077">
        <ele>107.1</ele>
        <time>2021-07-18T16:05:57Z</time>
      </trkpt>
      <trkpt lat="43.31629" lon="-1.35075">
        <ele>107.1</ele>
        <time>2021-07-18T16:05:59Z</time>
      </trkpt>
      <trkpt lat="43.31628" lon="-1.35073">
        <ele>107.1</ele>
        <time>2021-07-18T16:06:00Z</time>
      </trkpt>
      <trkpt lat="43.31627" lon="-1.3507">
        <ele>107.1</ele>
        <time>2021-07-18T16:06:02Z</time>
      </trkpt>
      <trkpt lat="43.31627" lon="-1.3507">
        <ele>107.1</ele>
        <time>2021-07-18T16:06:04Z</time>
      </trkpt>
      <trkpt lat="43.31627" lon="-1.3507">
        <ele>107.1</ele>
        <time>2021-07-18T16:06:05Z</time>
      </trkpt>
      <trkpt lat="43.31627" lon="-1.3507">
        <ele>107.1</ele>
        <time>2021-07-18T16:06:06Z</time>
      </trkpt>
      <trkpt lat="43.31628" lon="-1.35071">
        <ele>107.1</ele>
        <time>2021-07-18T16:06:08Z</time>
      </trkpt>
      <trkpt lat="43.31628" lon="-1.35071">
        <ele>107.1</ele>
        <time>2021-07-18T16:06:10Z</time>
      </trkpt>
      <trkpt lat="43.31628" lon="-1.35071">
        <ele>107.1</ele>
        <time>2021-07-18T16:06:12Z</time>
      </trkpt>
      <trkpt lat="43.31628" lon="-1.35074">
        <ele>107.1</ele>
        <time>2021-07-18T16:06:57Z</time>
      </trkpt>
      <trkpt lat="43.31629" lon="-1.35074">
        <ele>107.1</ele>
        <time>2021-07-18T16:06:59Z</time>
      </trkpt>
      <trkpt lat="43.3163" lon="-1.35074">
        <ele>107.1</ele>
        <time>2021-07-18T16:07:01Z</time>
      </trkpt>
      <trkpt lat="43.31631" lon="-1.35074">
        <ele>107.1</ele>
        <time>2021-07-18T16:07:02Z</time>
      </trkpt>
      <trkpt lat="43.31632" lon="-1.35075">
        <ele>107.1</ele>
        <time>2021-07-18T16:07:03Z</time>
      </trkpt>
      <trkpt lat="43.31633" lon="-1.35073">
        <ele>107.1</ele>
        <time>2021-07-18T16:07:05Z</time>
      </trkpt>
      <trkpt lat="43.31635" lon="-1.35071">
        <ele>107.1</ele>
        <time>2021-07-18T16:07:07Z</time>
      </trkpt>
      <trkpt lat="43.31634" lon="-1.35068">
        <ele>107.1</ele>
        <time>2021-07-18T16:07:09Z</time>
      </trkpt>
      <trkpt lat="43.31634" lon="-1.35067">
        <ele>107.1</ele>
        <time>2021-07-18T16:07:10Z</time>
      </trkpt>
      <trkpt lat="43.31634" lon="-1.35066">
        <ele>107.1</ele>
        <time>2021-07-18T16:07:11Z</time>
      </trkpt>
      <trkpt lat="43.31634" lon="-1.35063">
        <ele>107.1</ele>
        <time>2021-07-18T16:07:13Z</time>
      </trkpt>
      <trkpt lat="43.31633" lon="-1.35059">
        <ele>107.1</ele>
        <time>2021-07-18T16:07:15Z</time>
      </trkpt>
      <trkpt lat="43.31632" lon="-1.35057">
        <ele>107.1</ele>
        <time>2021-07-18T16:07:16Z</time>
      </trkpt>
      <trkpt lat="43.31631" lon="-1.35055">
        <ele>107.1</ele>
        <time>2021-07-18T16:07:17Z</time>
      </trkpt>
      <trkpt lat="43.3163" lon="-1.35054">
        <ele>107.1</ele>
        <time>2021-07-18T16:07:18Z</time>
      </trkpt>
      <trkpt lat="43.31629" lon="-1.35053">
        <ele>107.1</ele>
        <time>2021-07-18T16:07:19Z</time>
      </trkpt>
      <trkpt lat="43.31628" lon="-1.35051">
        <ele>107.1</ele>
        <time>2021-07-18T16:07:20Z</time>
      </trkpt>
      <trkpt lat="43.31626" lon="-1.3505">
        <ele>107</ele>
        <time>2021-07-18T16:07:22Z</time>
      </trkpt>
      <trkpt lat="43.31625" lon="-1.35049">
        <ele>107</ele>
        <time>2021-07-18T16:07:23Z</time>
      </trkpt>
      <trkpt lat="43.31625" lon="-1.35048">
        <ele>107</ele>
        <time>2021-07-18T16:07:30Z</time>
      </trkpt>
      <trkpt lat="43.31625" lon="-1.35048">
        <ele>107</ele>
        <time>2021-07-18T16:07:31Z</time>
      </trkpt>
      <trkpt lat="43.31625" lon="-1.35047">
        <ele>107</ele>
        <time>2021-07-18T16:07:33Z</time>
      </trkpt>
      <trkpt lat="43.31625" lon="-1.35046">
        <ele>107</ele>
        <time>2021-07-18T16:07:34Z</time>
      </trkpt>
      <trkpt lat="43.31625" lon="-1.35046">
        <ele>107</ele>
        <time>2021-07-18T16:07:35Z</time>
      </trkpt>
      <trkpt lat="43.31625" lon="-1.35045">
        <ele>107</ele>
        <time>2021-07-18T16:07:37Z</time>
      </trkpt>
      <trkpt lat="43.31625" lon="-1.35044">
        <ele>107</ele>
        <time>2021-07-18T16:07:39Z</time>
      </trkpt>
      <trkpt lat="43.31625" lon="-1.35044">
        <ele>107</ele>
        <time>2021-07-18T16:07:41Z</time>
      </trkpt>
      <trkpt lat="43.31625" lon="-1.35043">
        <ele>107</ele>
        <time>2021-07-18T16:07:42Z</time>
      </trkpt>
      <trkpt lat="43.31625" lon="-1.35042">
        <ele>107</ele>
        <time>2021-07-18T16:07:43Z</time>
      </trkpt>
      <trkpt lat="43.31624" lon="-1.35042">
        <ele>107</ele>
        <time>2021-07-18T16:07:45Z</time>
      </trkpt>
      <trkpt lat="43.31624" lon="-1.35041">
        <ele>107</ele>
        <time>2021-07-18T16:07:47Z</time>
      </trkpt>
      <trkpt lat="43.31624" lon="-1.3504">
        <ele>107</ele>
        <time>2021-07-18T16:08:49Z</time>
      </trkpt>
      <trkpt lat="43.31624" lon="-1.3504">
        <ele>107</ele>
        <time>2021-07-18T16:08:50Z</time>
      </trkpt>
      <trkpt lat="43.31624" lon="-1.35039">
        <ele>107</ele>
        <time>2021-07-18T16:08:52Z</time>
      </trkpt>
      <trkpt lat="43.31624" lon="-1.35039">
        <ele>107</ele>
        <time>2021-07-18T16:08:53Z</time>
      </trkpt>
      <trkpt lat="43.31624" lon="-1.35038">
        <ele>107</ele>
        <time>2021-07-18T16:08:54Z</time>
      </trkpt>
      <trkpt lat="43.31624" lon="-1.35037">
        <ele>107</ele>
        <time>2021-07-18T16:08:56Z</time>
      </trkpt>
      <trkpt lat="43.31624" lon="-1.35037">
        <ele>107</ele>
        <time>2021-07-18T16:08:57Z</time>
      </trkpt>
      <trkpt lat="43.31624" lon="-1.35036">
        <ele>107</ele>
        <time>2021-07-18T16:08:58Z</time>
      </trkpt>
      <trkpt lat="43.31624" lon="-1.35035">
        <ele>107</ele>
        <time>2021-07-18T16:09:00Z</time>
      </trkpt>
      <trkpt lat="43.31624" lon="-1.35035">
        <ele>107</ele>
        <time>2021-07-18T16:09:01Z</time>
      </trkpt>
      <trkpt lat="43.31624" lon="-1.35034">
        <ele>107</ele>
        <time>2021-07-18T16:09:02Z</time>
      </trkpt>
      <trkpt lat="43.31624" lon="-1.35033">
        <ele>107</ele>
        <time>2021-07-18T16:09:04Z</time>
      </trkpt>
      <trkpt lat="43.31623" lon="-1.35033">
        <ele>107</ele>
        <time>2021-07-18T16:19:51Z</time>
      </trkpt>
      <trkpt lat="43.31623" lon="-1.35032">
        <ele>107</ele>
        <time>2021-07-18T16:19:52Z</time>
      </trkpt>
      <trkpt lat="43.31623" lon="-1.35031">
        <ele>107</ele>
        <time>2021-07-18T16:19:53Z</time>
      </trkpt>
      <trkpt lat="43.3162" lon="-1.3503">
        <ele>106.7</ele>
        <time>2021-07-18T16:19:55Z</time>
      </trkpt>
      <trkpt lat="43.31619" lon="-1.35031">
        <ele>106.7</ele>
        <time>2021-07-18T16:19:56Z</time>
      </trkpt>
      <trkpt lat="43.31618" lon="-1.35032">
        <ele>106.6</ele>
        <time>2021-07-18T16:19:57Z</time>
      </trkpt>
      <trkpt lat="43.31614" lon="-1.35032">
        <ele>106.5</ele>
        <time>2021-07-18T16:19:59Z</time>
      </trkpt>
      <trkpt lat="43.31613" lon="-1.35031">
        <ele>106.4</ele>
        <time>2021-07-18T16:20:00Z</time>
      </trkpt>
      <trkpt lat="43.3161" lon="-1.35027">
        <ele>106.2</ele>
        <time>2021-07-18T16:20:01Z</time>
      </trkpt>
      <trkpt lat="43.31608" lon="-1.35021">
        <ele>106</ele>
        <time>2021-07-18T16:20:03Z</time>
      </trkpt>
      <trkpt lat="43.31608" lon="-1.35018">
        <ele>105.9</ele>
        <time>2021-07-18T16:20:04Z</time>
      </trkpt>
      <trkpt lat="43.31608" lon="-1.35017">
        <ele>105.9</ele>
        <time>2021-07-18T16:20:05Z</time>
      </trkpt>
      <trkpt lat="43.31608" lon="-1.35016">
        <ele>105.8</ele>
        <time>2021-07-18T16:20:07Z</time>
      </trkpt>
      <trkpt lat="43.31608" lon="-1.35014">
        <ele>105.8</ele>
        <time>2021-07-18T16:20:09Z</time>
      </trkpt>
      <trkpt lat="43.31608" lon="-1.35013">
        <ele>105.7</ele>
        <time>2021-07-18T16:20:10Z</time>
      </trkpt>
      <trkpt lat="43.31608" lon="-1.35012">
        <ele>105.7</ele>
        <time>2021-07-18T16:20:12Z</time>
      </trkpt>
      <trkpt lat="43.31608" lon="-1.3501">
        <ele>105.7</ele>
        <time>2021-07-18T16:20:14Z</time>
      </trkpt>
      <trkpt lat="43.31609" lon="-1.35009">
        <ele>105.6</ele>
        <time>2021-07-18T16:20:22Z</time>
      </trkpt>
      <trkpt lat="43.31609" lon="-1.35008">
        <ele>105.6</ele>
        <time>2021-07-18T16:20:23Z</time>
      </trkpt>
      <trkpt lat="43.31607" lon="-1.35001">
        <ele>105.4</ele>
        <time>2021-07-18T16:20:25Z</time>
      </trkpt>
      <trkpt lat="43.31605" lon="-1.34995">
        <ele>105.2</ele>
        <time>2021-07-18T16:20:26Z</time>
      </trkpt>
      <trkpt lat="43.31603" lon="-1.34988">
        <ele>105</ele>
        <time>2021-07-18T16:20:27Z</time>
      </trkpt>
      <trkpt lat="43.31601" lon="-1.34981">
        <ele>104.8</ele>
        <time>2021-07-18T16:20:28Z</time>
      </trkpt>
      <trkpt lat="43.31599" lon="-1.34972">
        <ele>104.6</ele>
        <time>2021-07-18T16:20:30Z</time>
      </trkpt>
      <trkpt lat="43.31596" lon="-1.34959">
        <ele>104.2</ele>
        <time>2021-07-18T16:20:31Z</time>
      </trkpt>
      <trkpt lat="43.31595" lon="-1.34952">
        <ele>104.1</ele>
        <time>2021-07-18T16:20:32Z</time>
      </trkpt>
      <trkpt lat="43.31593" lon="-1.34946">
        <ele>104</ele>
        <time>2021-07-18T16:20:33Z</time>
      </trkpt>
      <trkpt lat="43.3159" lon="-1.34932">
        <ele>103.6</ele>
        <time>2021-07-18T16:20:35Z</time>
      </trkpt>
      <trkpt lat="43.31587" lon="-1.34917">
        <ele>103.3</ele>
        <time>2021-07-18T16:20:37Z</time>
      </trkpt>
      <trkpt lat="43.31584" lon="-1.3491">
        <ele>103.1</ele>
        <time>2021-07-18T16:20:38Z</time>
      </trkpt>
      <trkpt lat="43.31583" lon="-1.34902">
        <ele>102.9</ele>
        <time>2021-07-18T16:20:39Z</time>
      </trkpt>
      <trkpt lat="43.31581" lon="-1.34895">
        <ele>102.8</ele>
        <time>2021-07-18T16:20:40Z</time>
      </trkpt>
      <trkpt lat="43.31578" lon="-1.34879">
        <ele>102.5</ele>
        <time>2021-07-18T16:20:42Z</time>
      </trkpt>
      <trkpt lat="43.31574" lon="-1.34864">
        <ele>102.2</ele>
        <time>2021-07-18T16:20:44Z</time>
      </trkpt>
      <trkpt lat="43.3157" lon="-1.34848">
        <ele>102</ele>
        <time>2021-07-18T16:20:46Z</time>
      </trkpt>
      <trkpt lat="43.31567" lon="-1.34831">
        <ele>101.8</ele>
        <time>2021-07-18T16:20:48Z</time>
      </trkpt>
      <trkpt lat="43.31562" lon="-1.34814">
        <ele>101.7</ele>
        <time>2021-07-18T16:20:50Z</time>
      </trkpt>
      <trkpt lat="43.31559" lon="-1.34797">
        <ele>101.7</ele>
        <time>2021-07-18T16:20:52Z</time>
      </trkpt>
      <trkpt lat="43.31555" lon="-1.34782">
        <ele>101.7</ele>
        <time>2021-07-18T16:20:54Z</time>
      </trkpt>
      <trkpt lat="43.31551" lon="-1.34767">
        <ele>101.8</ele>
        <time>2021-07-18T16:20:56Z</time>
      </trkpt>
      <trkpt lat="43.31547" lon="-1.34753">
        <ele>102</ele>
        <time>2021-07-18T16:20:58Z</time>
      </trkpt>
      <trkpt lat="43.31545" lon="-1.34747">
        <ele>102.1</ele>
        <time>2021-07-18T16:20:59Z</time>
      </trkpt>
      <trkpt lat="43.31541" lon="-1.34735">
        <ele>102.5</ele>
        <time>2021-07-18T16:21:01Z</time>
      </trkpt>
      <trkpt lat="43.31539" lon="-1.34726">
        <ele>102.8</ele>
        <time>2021-07-18T16:21:03Z</time>
      </trkpt>
      <trkpt lat="43.31538" lon="-1.34722">
        <ele>102.9</ele>
        <time>2021-07-18T16:21:04Z</time>
      </trkpt>
      <trkpt lat="43.31538" lon="-1.34718">
        <ele>103.1</ele>
        <time>2021-07-18T16:21:05Z</time>
      </trkpt>
      <trkpt lat="43.31537" lon="-1.34713">
        <ele>103.2</ele>
        <time>2021-07-18T16:21:06Z</time>
      </trkpt>
      <trkpt lat="43.31536" lon="-1.34709">
        <ele>103.4</ele>
        <time>2021-07-18T16:21:07Z</time>
      </trkpt>
      <trkpt lat="43.31534" lon="-1.34705">
        <ele>103.6</ele>
        <time>2021-07-18T16:21:09Z</time>
      </trkpt>
      <trkpt lat="43.31533" lon="-1.34701">
        <ele>103.7</ele>
        <time>2021-07-18T16:21:10Z</time>
      </trkpt>
      <trkpt lat="43.31532" lon="-1.34696">
        <ele>104</ele>
        <time>2021-07-18T16:21:11Z</time>
      </trkpt>
      <trkpt lat="43.31532" lon="-1.34694">
        <ele>104</ele>
        <time>2021-07-18T16:21:12Z</time>
      </trkpt>
      <trkpt lat="43.31531" lon="-1.3469">
        <ele>104.2</ele>
        <time>2021-07-18T16:21:13Z</time>
      </trkpt>
      <trkpt lat="43.3153" lon="-1.34686">
        <ele>104.4</ele>
        <time>2021-07-18T16:21:15Z</time>
      </trkpt>
      <trkpt lat="43.31529" lon="-1.34683">
        <ele>104.5</ele>
        <time>2021-07-18T16:21:16Z</time>
      </trkpt>
      <trkpt lat="43.31528" lon="-1.34677">
        <ele>104.8</ele>
        <time>2021-07-18T16:21:18Z</time>
      </trkpt>
      <trkpt lat="43.31527" lon="-1.34675">
        <ele>104.9</ele>
        <time>2021-07-18T16:21:19Z</time>
      </trkpt>
      <trkpt lat="43.31527" lon="-1.34673">
        <ele>105</ele>
        <time>2021-07-18T16:21:20Z</time>
      </trkpt>
      <trkpt lat="43.31526" lon="-1.34669">
        <ele>105.2</ele>
        <time>2021-07-18T16:21:21Z</time>
      </trkpt>
      <trkpt lat="43.31525" lon="-1.34667">
        <ele>105.2</ele>
        <time>2021-07-18T16:21:22Z</time>
      </trkpt>
      <trkpt lat="43.31524" lon="-1.34663">
        <ele>105.4</ele>
        <time>2021-07-18T16:21:24Z</time>
      </trkpt>
      <trkpt lat="43.31523" lon="-1.34659">
        <ele>105.6</ele>
        <time>2021-07-18T16:21:25Z</time>
      </trkpt>
      <trkpt lat="43.31523" lon="-1.34658">
        <ele>105.6</ele>
        <time>2021-07-18T16:21:26Z</time>
      </trkpt>
      <trkpt lat="43.31522" lon="-1.34653">
        <ele>105.8</ele>
        <time>2021-07-18T16:21:28Z</time>
      </trkpt>
      <trkpt lat="43.31522" lon="-1.3465">
        <ele>105.9</ele>
        <time>2021-07-18T16:21:29Z</time>
      </trkpt>
      <trkpt lat="43.31521" lon="-1.34645">
        <ele>106.1</ele>
        <time>2021-07-18T16:21:31Z</time>
      </trkpt>
      <trkpt lat="43.3152" lon="-1.3464">
        <ele>106.3</ele>
        <time>2021-07-18T16:21:33Z</time>
      </trkpt>
      <trkpt lat="43.3152" lon="-1.34637">
        <ele>106.4</ele>
        <time>2021-07-18T16:21:34Z</time>
      </trkpt>
      <trkpt lat="43.31518" lon="-1.34631">
        <ele>106.6</ele>
        <time>2021-07-18T16:21:36Z</time>
      </trkpt>
      <trkpt lat="43.31516" lon="-1.34626">
        <ele>106.8</ele>
        <time>2021-07-18T16:21:38Z</time>
      </trkpt>
      <trkpt lat="43.31516" lon="-1.3462">
        <ele>106.9</ele>
        <time>2021-07-18T16:21:40Z</time>
      </trkpt>
      <trkpt lat="43.31515" lon="-1.34615">
        <ele>107</ele>
        <time>2021-07-18T16:21:42Z</time>
      </trkpt>
      <trkpt lat="43.31515" lon="-1.34613">
        <ele>107.1</ele>
        <time>2021-07-18T16:21:43Z</time>
      </trkpt>
      <trkpt lat="43.31515" lon="-1.34611">
        <ele>107.1</ele>
        <time>2021-07-18T16:21:44Z</time>
      </trkpt>
      <trkpt lat="43.31515" lon="-1.34606">
        <ele>107.2</ele>
        <time>2021-07-18T16:21:45Z</time>
      </trkpt>
      <trkpt lat="43.31515" lon="-1.34604">
        <ele>107.2</ele>
        <time>2021-07-18T16:21:46Z</time>
      </trkpt>
      <trkpt lat="43.31515" lon="-1.34599">
        <ele>107.3</ele>
        <time>2021-07-18T16:21:47Z</time>
      </trkpt>
      <trkpt lat="43.31514" lon="-1.34594">
        <ele>107.4</ele>
        <time>2021-07-18T16:21:49Z</time>
      </trkpt>
      <trkpt lat="43.31513" lon="-1.34588">
        <ele>107.4</ele>
        <time>2021-07-18T16:21:51Z</time>
      </trkpt>
      <trkpt lat="43.31512" lon="-1.34584">
        <ele>107.5</ele>
        <time>2021-07-18T16:21:52Z</time>
      </trkpt>
      <trkpt lat="43.31512" lon="-1.3458">
        <ele>107.5</ele>
        <time>2021-07-18T16:21:53Z</time>
      </trkpt>
      <trkpt lat="43.3151" lon="-1.34574">
        <ele>107.6</ele>
        <time>2021-07-18T16:21:55Z</time>
      </trkpt>
      <trkpt lat="43.3151" lon="-1.3457">
        <ele>107.6</ele>
        <time>2021-07-18T16:21:56Z</time>
      </trkpt>
      <trkpt lat="43.31509" lon="-1.34566">
        <ele>107.6</ele>
        <time>2021-07-18T16:21:57Z</time>
      </trkpt>
      <trkpt lat="43.31508" lon="-1.34561">
        <ele>107.6</ele>
        <time>2021-07-18T16:21:58Z</time>
      </trkpt>
      <trkpt lat="43.31507" lon="-1.34557">
        <ele>107.7</ele>
        <time>2021-07-18T16:21:59Z</time>
      </trkpt>
      <trkpt lat="43.31505" lon="-1.34552">
        <ele>107.7</ele>
        <time>2021-07-18T16:22:00Z</time>
      </trkpt>
      <trkpt lat="43.31504" lon="-1.34546">
        <ele>107.7</ele>
        <time>2021-07-18T16:22:02Z</time>
      </trkpt>
      <trkpt lat="43.31503" lon="-1.34541">
        <ele>107.8</ele>
        <time>2021-07-18T16:22:03Z</time>
      </trkpt>
      <trkpt lat="43.31502" lon="-1.34536">
        <ele>107.8</ele>
        <time>2021-07-18T16:22:04Z</time>
      </trkpt>
      <trkpt lat="43.31501" lon="-1.34532">
        <ele>107.9</ele>
        <time>2021-07-18T16:22:05Z</time>
      </trkpt>
      <trkpt lat="43.315" lon="-1.34523">
        <ele>108</ele>
        <time>2021-07-18T16:22:07Z</time>
      </trkpt>
      <trkpt lat="43.31499" lon="-1.34515">
        <ele>108.1</ele>
        <time>2021-07-18T16:22:09Z</time>
      </trkpt>
      <trkpt lat="43.31498" lon="-1.3451">
        <ele>108.1</ele>
        <time>2021-07-18T16:22:10Z</time>
      </trkpt>
      <trkpt lat="43.31497" lon="-1.34503">
        <ele>108.2</ele>
        <time>2021-07-18T16:22:12Z</time>
      </trkpt>
      <trkpt lat="43.31497" lon="-1.34498">
        <ele>108.2</ele>
        <time>2021-07-18T16:22:13Z</time>
      </trkpt>
      <trkpt lat="43.31496" lon="-1.34493">
        <ele>108.2</ele>
        <time>2021-07-18T16:22:14Z</time>
      </trkpt>
      <trkpt lat="43.31496" lon="-1.34487">
        <ele>108.3</ele>
        <time>2021-07-18T16:22:16Z</time>
      </trkpt>
      <trkpt lat="43.31495" lon="-1.34482">
        <ele>108.3</ele>
        <time>2021-07-18T16:22:17Z</time>
      </trkpt>
      <trkpt lat="43.31495" lon="-1.34476">
        <ele>108.4</ele>
        <time>2021-07-18T16:22:18Z</time>
      </trkpt>
      <trkpt lat="43.31494" lon="-1.34471">
        <ele>108.4</ele>
        <time>2021-07-18T16:22:19Z</time>
      </trkpt>
      <trkpt lat="43.31493" lon="-1.34466">
        <ele>108.5</ele>
        <time>2021-07-18T16:22:20Z</time>
      </trkpt>
      <trkpt lat="43.31492" lon="-1.3446">
        <ele>108.5</ele>
        <time>2021-07-18T16:22:22Z</time>
      </trkpt>
      <trkpt lat="43.31492" lon="-1.34454">
        <ele>108.6</ele>
        <time>2021-07-18T16:22:23Z</time>
      </trkpt>
      <trkpt lat="43.31492" lon="-1.34447">
        <ele>108.7</ele>
        <time>2021-07-18T16:22:24Z</time>
      </trkpt>
      <trkpt lat="43.31491" lon="-1.3444">
        <ele>108.8</ele>
        <time>2021-07-18T16:22:26Z</time>
      </trkpt>
      <trkpt lat="43.3149" lon="-1.34435">
        <ele>108.9</ele>
        <time>2021-07-18T16:22:27Z</time>
      </trkpt>
      <trkpt lat="43.3149" lon="-1.3443">
        <ele>108.9</ele>
        <time>2021-07-18T16:22:28Z</time>
      </trkpt>
      <trkpt lat="43.3149" lon="-1.34424">
        <ele>109</ele>
        <time>2021-07-18T16:22:29Z</time>
      </trkpt>
      <trkpt lat="43.3149" lon="-1.34417">
        <ele>109.1</ele>
        <time>2021-07-18T16:22:31Z</time>
      </trkpt>
      <trkpt lat="43.31489" lon="-1.34412">
        <ele>109.2</ele>
        <time>2021-07-18T16:22:32Z</time>
      </trkpt>
      <trkpt lat="43.31489" lon="-1.34406">
        <ele>109.3</ele>
        <time>2021-07-18T16:22:33Z</time>
      </trkpt>
      <trkpt lat="43.31488" lon="-1.34399">
        <ele>109.4</ele>
        <time>2021-07-18T16:22:35Z</time>
      </trkpt>
      <trkpt lat="43.31487" lon="-1.34395">
        <ele>109.4</ele>
        <time>2021-07-18T16:22:36Z</time>
      </trkpt>
      <trkpt lat="43.31487" lon="-1.34391">
        <ele>109.5</ele>
        <time>2021-07-18T16:22:37Z</time>
      </trkpt>
      <trkpt lat="43.31486" lon="-1.34386">
        <ele>109.6</ele>
        <time>2021-07-18T16:22:38Z</time>
      </trkpt>
      <trkpt lat="43.31485" lon="-1.34381">
        <ele>109.7</ele>
        <time>2021-07-18T16:22:39Z</time>
      </trkpt>
      <trkpt lat="43.31484" lon="-1.34374">
        <ele>109.8</ele>
        <time>2021-07-18T16:22:41Z</time>
      </trkpt>
      <trkpt lat="43.31484" lon="-1.34368">
        <ele>109.9</ele>
        <time>2021-07-18T16:22:42Z</time>
      </trkpt>
      <trkpt lat="43.31483" lon="-1.34363">
        <ele>110</ele>
        <time>2021-07-18T16:22:44Z</time>
      </trkpt>
      <trkpt lat="43.31482" lon="-1.34358">
        <ele>110.1</ele>
        <time>2021-07-18T16:22:45Z</time>
      </trkpt>
      <trkpt lat="43.31481" lon="-1.34353">
        <ele>110.2</ele>
        <time>2021-07-18T16:22:46Z</time>
      </trkpt>
      <trkpt lat="43.3148" lon="-1.3435">
        <ele>110.3</ele>
        <time>2021-07-18T16:22:47Z</time>
      </trkpt>
      <trkpt lat="43.31478" lon="-1.34343">
        <ele>110.4</ele>
        <time>2021-07-18T16:22:49Z</time>
      </trkpt>
      <trkpt lat="43.31477" lon="-1.34338">
        <ele>110.5</ele>
        <time>2021-07-18T16:22:50Z</time>
      </trkpt>
      <trkpt lat="43.31475" lon="-1.34333">
        <ele>110.6</ele>
        <time>2021-07-18T16:22:51Z</time>
      </trkpt>
      <trkpt lat="43.31474" lon="-1.34331">
        <ele>110.7</ele>
        <time>2021-07-18T16:22:52Z</time>
      </trkpt>
      <trkpt lat="43.31473" lon="-1.34327">
        <ele>110.8</ele>
        <time>2021-07-18T16:22:53Z</time>
      </trkpt>
      <trkpt lat="43.31471" lon="-1.34322">
        <ele>111</ele>
        <time>2021-07-18T16:22:55Z</time>
      </trkpt>
      <trkpt lat="43.3147" lon="-1.34318">
        <ele>111.1</ele>
        <time>2021-07-18T16:22:56Z</time>
      </trkpt>
      <trkpt lat="43.31469" lon="-1.34314">
        <ele>111.2</ele>
        <time>2021-07-18T16:22:57Z</time>
      </trkpt>
      <trkpt lat="43.31467" lon="-1.34308">
        <ele>111.3</ele>
        <time>2021-07-18T16:22:59Z</time>
      </trkpt>
      <trkpt lat="43.31465" lon="-1.34304">
        <ele>111.5</ele>
        <time>2021-07-18T16:23:00Z</time>
      </trkpt>
      <trkpt lat="43.31464" lon="-1.34302">
        <ele>111.5</ele>
        <time>2021-07-18T16:23:01Z</time>
      </trkpt>
      <trkpt lat="43.31462" lon="-1.34297">
        <ele>111.7</ele>
        <time>2021-07-18T16:23:03Z</time>
      </trkpt>
      <trkpt lat="43.3146" lon="-1.34293">
        <ele>111.8</ele>
        <time>2021-07-18T16:23:04Z</time>
      </trkpt>
      <trkpt lat="43.31458" lon="-1.34288">
        <ele>112</ele>
        <time>2021-07-18T16:23:06Z</time>
      </trkpt>
      <trkpt lat="43.31456" lon="-1.34284">
        <ele>112.1</ele>
        <time>2021-07-18T16:23:07Z</time>
      </trkpt>
      <trkpt lat="43.31453" lon="-1.3428">
        <ele>112.2</ele>
        <time>2021-07-18T16:23:08Z</time>
      </trkpt>
      <trkpt lat="43.31451" lon="-1.34277">
        <ele>112.3</ele>
        <time>2021-07-18T16:23:10Z</time>
      </trkpt>
      <trkpt lat="43.31449" lon="-1.34273">
        <ele>112.5</ele>
        <time>2021-07-18T16:23:11Z</time>
      </trkpt>
      <trkpt lat="43.31447" lon="-1.34269">
        <ele>112.6</ele>
        <time>2021-07-18T16:23:12Z</time>
      </trkpt>
      <trkpt lat="43.31445" lon="-1.34265">
        <ele>112.8</ele>
        <time>2021-07-18T16:23:14Z</time>
      </trkpt>
      <trkpt lat="43.31442" lon="-1.34262">
        <ele>112.9</ele>
        <time>2021-07-18T16:23:16Z</time>
      </trkpt>
      <trkpt lat="43.31441" lon="-1.3426">
        <ele>113</ele>
        <time>2021-07-18T16:23:17Z</time>
      </trkpt>
      <trkpt lat="43.31441" lon="-1.3426">
        <ele>113</ele>
        <time>2021-07-18T16:23:18Z</time>
      </trkpt>
      <trkpt lat="43.31442" lon="-1.34261">
        <ele>113.1</ele>
        <time>2021-07-18T16:23:20Z</time>
      </trkpt>
      <trkpt lat="43.31442" lon="-1.34261">
        <ele>113.1</ele>
        <time>2021-07-18T16:23:22Z</time>
      </trkpt>
      <trkpt lat="43.31442" lon="-1.34261">
        <ele>113.1</ele>
        <time>2021-07-18T16:23:23Z</time>
      </trkpt>
      <trkpt lat="43.31443" lon="-1.3426">
        <ele>113.1</ele>
        <time>2021-07-18T16:23:24Z</time>
      </trkpt>
      <trkpt lat="43.31443" lon="-1.3426">
        <ele>113.2</ele>
        <time>2021-07-18T16:23:26Z</time>
      </trkpt>
      <trkpt lat="43.31445" lon="-1.34257">
        <ele>113.2</ele>
        <time>2021-07-18T16:23:28Z</time>
      </trkpt>
      <trkpt lat="43.31445" lon="-1.34252">
        <ele>113.4</ele>
        <time>2021-07-18T16:23:29Z</time>
      </trkpt>
      <trkpt lat="43.31446" lon="-1.34251">
        <ele>113.6</ele>
        <time>2021-07-18T16:23:30Z</time>
      </trkpt>
      <trkpt lat="43.31445" lon="-1.34248">
        <ele>113.6</ele>
        <time>2021-07-18T16:23:31Z</time>
      </trkpt>
      <trkpt lat="43.31446" lon="-1.3424">
        <ele>113.7</ele>
        <time>2021-07-18T16:23:33Z</time>
      </trkpt>
      <trkpt lat="43.31446" lon="-1.34232">
        <ele>113.9</ele>
        <time>2021-07-18T16:23:34Z</time>
      </trkpt>
      <trkpt lat="43.31445" lon="-1.34223">
        <ele>114</ele>
        <time>2021-07-18T16:23:36Z</time>
      </trkpt>
      <trkpt lat="43.31445" lon="-1.34215">
        <ele>114.1</ele>
        <time>2021-07-18T16:23:37Z</time>
      </trkpt>
      <trkpt lat="43.31446" lon="-1.34202">
        <ele>114.3</ele>
        <time>2021-07-18T16:23:38Z</time>
      </trkpt>
      <trkpt lat="43.31446" lon="-1.34188">
        <ele>114.5</ele>
        <time>2021-07-18T16:23:40Z</time>
      </trkpt>
      <trkpt lat="43.31446" lon="-1.34174">
        <ele>114.7</ele>
        <time>2021-07-18T16:23:42Z</time>
      </trkpt>
      <trkpt lat="43.31447" lon="-1.34159">
        <ele>114.9</ele>
        <time>2021-07-18T16:23:44Z</time>
      </trkpt>
      <trkpt lat="43.31448" lon="-1.34145">
        <ele>115.1</ele>
        <time>2021-07-18T16:23:46Z</time>
      </trkpt>
      <trkpt lat="43.31448" lon="-1.34131">
        <ele>115.3</ele>
        <time>2021-07-18T16:23:48Z</time>
      </trkpt>
      <trkpt lat="43.31449" lon="-1.34118">
        <ele>115.5</ele>
        <time>2021-07-18T16:23:50Z</time>
      </trkpt>
      <trkpt lat="43.3145" lon="-1.34112">
        <ele>115.6</ele>
        <time>2021-07-18T16:23:51Z</time>
      </trkpt>
      <trkpt lat="43.31453" lon="-1.34099">
        <ele>115.8</ele>
        <time>2021-07-18T16:23:53Z</time>
      </trkpt>
      <trkpt lat="43.31457" lon="-1.34088">
        <ele>116</ele>
        <time>2021-07-18T16:23:55Z</time>
      </trkpt>
      <trkpt lat="43.3146" lon="-1.34082">
        <ele>116.1</ele>
        <time>2021-07-18T16:23:56Z</time>
      </trkpt>
      <trkpt lat="43.31467" lon="-1.34069">
        <ele>116.3</ele>
        <time>2021-07-18T16:23:58Z</time>
      </trkpt>
      <trkpt lat="43.31472" lon="-1.34059">
        <ele>116.5</ele>
        <time>2021-07-18T16:24:00Z</time>
      </trkpt>
      <trkpt lat="43.31476" lon="-1.34048">
        <ele>116.7</ele>
        <time>2021-07-18T16:24:02Z</time>
      </trkpt>
      <trkpt lat="43.3148" lon="-1.3404">
        <ele>116.8</ele>
        <time>2021-07-18T16:24:04Z</time>
      </trkpt>
      <trkpt lat="43.31482" lon="-1.34031">
        <ele>117</ele>
        <time>2021-07-18T16:24:06Z</time>
      </trkpt>
      <trkpt lat="43.31486" lon="-1.34027">
        <ele>117.1</ele>
        <time>2021-07-18T16:24:07Z</time>
      </trkpt>
      <trkpt lat="43.31493" lon="-1.34023">
        <ele>117.2</ele>
        <time>2021-07-18T16:24:09Z</time>
      </trkpt>
      <trkpt lat="43.31498" lon="-1.34022">
        <ele>117.3</ele>
        <time>2021-07-18T16:24:10Z</time>
      </trkpt>
      <trkpt lat="43.31506" lon="-1.34022">
        <ele>117.5</ele>
        <time>2021-07-18T16:24:12Z</time>
      </trkpt>
      <trkpt lat="43.31513" lon="-1.3402">
        <ele>117.6</ele>
        <time>2021-07-18T16:24:13Z</time>
      </trkpt>
      <trkpt lat="43.31521" lon="-1.34012">
        <ele>117.8</ele>
        <time>2021-07-18T16:24:15Z</time>
      </trkpt>
      <trkpt lat="43.31525" lon="-1.34007">
        <ele>117.9</ele>
        <time>2021-07-18T16:24:16Z</time>
      </trkpt>
      <trkpt lat="43.31531" lon="-1.33996">
        <ele>118.1</ele>
        <time>2021-07-18T16:24:18Z</time>
      </trkpt>
      <trkpt lat="43.31534" lon="-1.3399">
        <ele>118.2</ele>
        <time>2021-07-18T16:24:19Z</time>
      </trkpt>
      <trkpt lat="43.31538" lon="-1.33984">
        <ele>118.3</ele>
        <time>2021-07-18T16:24:20Z</time>
      </trkpt>
      <trkpt lat="43.31542" lon="-1.33978">
        <ele>118.5</ele>
        <time>2021-07-18T16:24:21Z</time>
      </trkpt>
      <trkpt lat="43.31551" lon="-1.33966">
        <ele>118.7</ele>
        <time>2021-07-18T16:24:23Z</time>
      </trkpt>
      <trkpt lat="43.3156" lon="-1.33957">
        <ele>118.9</ele>
        <time>2021-07-18T16:24:25Z</time>
      </trkpt>
      <trkpt lat="43.31566" lon="-1.3395">
        <ele>119.1</ele>
        <time>2021-07-18T16:24:27Z</time>
      </trkpt>
      <trkpt lat="43.3157" lon="-1.33945">
        <ele>119.2</ele>
        <time>2021-07-18T16:24:28Z</time>
      </trkpt>
      <trkpt lat="43.31578" lon="-1.33932">
        <ele>119.4</ele>
        <time>2021-07-18T16:24:30Z</time>
      </trkpt>
      <trkpt lat="43.31581" lon="-1.33926">
        <ele>119.5</ele>
        <time>2021-07-18T16:24:31Z</time>
      </trkpt>
      <trkpt lat="43.31588" lon="-1.33915">
        <ele>119.8</ele>
        <time>2021-07-18T16:24:33Z</time>
      </trkpt>
      <trkpt lat="43.31592" lon="-1.33911">
        <ele>119.9</ele>
        <time>2021-07-18T16:24:34Z</time>
      </trkpt>
      <trkpt lat="43.31597" lon="-1.33908">
        <ele>120</ele>
        <time>2021-07-18T16:24:35Z</time>
      </trkpt>
      <trkpt lat="43.31604" lon="-1.33904">
        <ele>120.1</ele>
        <time>2021-07-18T16:24:37Z</time>
      </trkpt>
      <trkpt lat="43.31608" lon="-1.33902">
        <ele>120.2</ele>
        <time>2021-07-18T16:24:38Z</time>
      </trkpt>
      <trkpt lat="43.31612" lon="-1.33897">
        <ele>120.3</ele>
        <time>2021-07-18T16:24:39Z</time>
      </trkpt>
      <trkpt lat="43.31616" lon="-1.33893">
        <ele>120.4</ele>
        <time>2021-07-18T16:24:41Z</time>
      </trkpt>
      <trkpt lat="43.3162" lon="-1.33889">
        <ele>120.5</ele>
        <time>2021-07-18T16:24:42Z</time>
      </trkpt>
      <trkpt lat="43.31624" lon="-1.33886">
        <ele>120.6</ele>
        <time>2021-07-18T16:24:43Z</time>
      </trkpt>
      <trkpt lat="43.31628" lon="-1.33883">
        <ele>120.7</ele>
        <time>2021-07-18T16:24:44Z</time>
      </trkpt>
      <trkpt lat="43.31633" lon="-1.3388">
        <ele>120.8</ele>
        <time>2021-07-18T16:24:46Z</time>
      </trkpt>
      <trkpt lat="43.31637" lon="-1.33878">
        <ele>120.9</ele>
        <time>2021-07-18T16:24:47Z</time>
      </trkpt>
      <trkpt lat="43.31642" lon="-1.33877">
        <ele>121</ele>
        <time>2021-07-18T16:24:48Z</time>
      </trkpt>
      <trkpt lat="43.31646" lon="-1.33877">
        <ele>121.1</ele>
        <time>2021-07-18T16:24:49Z</time>
      </trkpt>
      <trkpt lat="43.3165" lon="-1.33878">
        <ele>121.1</ele>
        <time>2021-07-18T16:24:51Z</time>
      </trkpt>
      <trkpt lat="43.31654" lon="-1.33879">
        <ele>121.2</ele>
        <time>2021-07-18T16:24:52Z</time>
      </trkpt>
      <trkpt lat="43.31657" lon="-1.3388">
        <ele>121.3</ele>
        <time>2021-07-18T16:24:53Z</time>
      </trkpt>
      <trkpt lat="43.3166" lon="-1.33881">
        <ele>121.3</ele>
        <time>2021-07-18T16:24:54Z</time>
      </trkpt>
      <trkpt lat="43.31663" lon="-1.33883">
        <ele>121.4</ele>
        <time>2021-07-18T16:24:56Z</time>
      </trkpt>
      <trkpt lat="43.31666" lon="-1.33884">
        <ele>121.5</ele>
        <time>2021-07-18T16:24:57Z</time>
      </trkpt>
      <trkpt lat="43.31668" lon="-1.33885">
        <ele>121.5</ele>
        <time>2021-07-18T16:24:58Z</time>
      </trkpt>
      <trkpt lat="43.31671" lon="-1.33885">
        <ele>121.6</ele>
        <time>2021-07-18T16:24:59Z</time>
      </trkpt>
      <trkpt lat="43.31676" lon="-1.33886">
        <ele>121.7</ele>
        <time>2021-07-18T16:25:01Z</time>
      </trkpt>
      <trkpt lat="43.31679" lon="-1.33886">
        <ele>121.7</ele>
        <time>2021-07-18T16:25:02Z</time>
      </trkpt>
      <trkpt lat="43.31682" lon="-1.33888">
        <ele>121.8</ele>
        <time>2021-07-18T16:25:03Z</time>
      </trkpt>
      <trkpt lat="43.31685" lon="-1.33888">
        <ele>121.9</ele>
        <time>2021-07-18T16:25:04Z</time>
      </trkpt>
      <trkpt lat="43.31688" lon="-1.33888">
        <ele>121.9</ele>
        <time>2021-07-18T16:25:05Z</time>
      </trkpt>
      <trkpt lat="43.31692" lon="-1.33888">
        <ele>122</ele>
        <time>2021-07-18T16:25:07Z</time>
      </trkpt>
      <trkpt lat="43.31695" lon="-1.33886">
        <ele>122.1</ele>
        <time>2021-07-18T16:25:09Z</time>
      </trkpt>
      <trkpt lat="43.31698" lon="-1.33885">
        <ele>122.1</ele>
        <time>2021-07-18T16:25:10Z</time>
      </trkpt>
      <trkpt lat="43.31702" lon="-1.33883">
        <ele>122.2</ele>
        <time>2021-07-18T16:25:12Z</time>
      </trkpt>
      <trkpt lat="43.31705" lon="-1.3388">
        <ele>122.3</ele>
        <time>2021-07-18T16:25:13Z</time>
      </trkpt>
      <trkpt lat="43.31706" lon="-1.33879">
        <ele>122.3</ele>
        <time>2021-07-18T16:25:14Z</time>
      </trkpt>
      <trkpt lat="43.31708" lon="-1.33875">
        <ele>122.4</ele>
        <time>2021-07-18T16:25:16Z</time>
      </trkpt>
      <trkpt lat="43.31708" lon="-1.33868">
        <ele>122.5</ele>
        <time>2021-07-18T16:25:18Z</time>
      </trkpt>
      <trkpt lat="43.31707" lon="-1.33863">
        <ele>122.5</ele>
        <time>2021-07-18T16:25:20Z</time>
      </trkpt>
      <trkpt lat="43.31705" lon="-1.33859">
        <ele>122.6</ele>
        <time>2021-07-18T16:25:21Z</time>
      </trkpt>
      <trkpt lat="43.31704" lon="-1.33856">
        <ele>122.7</ele>
        <time>2021-07-18T16:25:22Z</time>
      </trkpt>
      <trkpt lat="43.31701" lon="-1.33849">
        <ele>122.8</ele>
        <time>2021-07-18T16:25:24Z</time>
      </trkpt>
      <trkpt lat="43.31699" lon="-1.33843">
        <ele>122.9</ele>
        <time>2021-07-18T16:25:25Z</time>
      </trkpt>
      <trkpt lat="43.31696" lon="-1.33838">
        <ele>123</ele>
        <time>2021-07-18T16:25:27Z</time>
      </trkpt>
      <trkpt lat="43.31695" lon="-1.33834">
        <ele>123</ele>
        <time>2021-07-18T16:25:28Z</time>
      </trkpt>
      <trkpt lat="43.31694" lon="-1.3383">
        <ele>123.1</ele>
        <time>2021-07-18T16:25:29Z</time>
      </trkpt>
      <trkpt lat="43.31692" lon="-1.33824">
        <ele>123.2</ele>
        <time>2021-07-18T16:25:31Z</time>
      </trkpt>
      <trkpt lat="43.3169" lon="-1.3382">
        <ele>123.3</ele>
        <time>2021-07-18T16:25:32Z</time>
      </trkpt>
      <trkpt lat="43.31688" lon="-1.33816">
        <ele>123.3</ele>
        <time>2021-07-18T16:25:33Z</time>
      </trkpt>
      <trkpt lat="43.31685" lon="-1.33809">
        <ele>123.5</ele>
        <time>2021-07-18T16:25:35Z</time>
      </trkpt>
      <trkpt lat="43.31683" lon="-1.33805">
        <ele>123.5</ele>
        <time>2021-07-18T16:25:36Z</time>
      </trkpt>
      <trkpt lat="43.31681" lon="-1.33797">
        <ele>123.6</ele>
        <time>2021-07-18T16:25:38Z</time>
      </trkpt>
      <trkpt lat="43.31679" lon="-1.33793">
        <ele>123.7</ele>
        <time>2021-07-18T16:25:39Z</time>
      </trkpt>
      <trkpt lat="43.31678" lon="-1.33789">
        <ele>123.8</ele>
        <time>2021-07-18T16:25:40Z</time>
      </trkpt>
      <trkpt lat="43.31676" lon="-1.33785">
        <ele>123.8</ele>
        <time>2021-07-18T16:25:41Z</time>
      </trkpt>
      <trkpt lat="43.31673" lon="-1.33778">
        <ele>123.9</ele>
        <time>2021-07-18T16:25:43Z</time>
      </trkpt>
      <trkpt lat="43.31671" lon="-1.33774">
        <ele>124</ele>
        <time>2021-07-18T16:25:44Z</time>
      </trkpt>
      <trkpt lat="43.31669" lon="-1.33769">
        <ele>124.1</ele>
        <time>2021-07-18T16:25:45Z</time>
      </trkpt>
      <trkpt lat="43.31667" lon="-1.33764">
        <ele>124.2</ele>
        <time>2021-07-18T16:25:46Z</time>
      </trkpt>
      <trkpt lat="43.31664" lon="-1.33759">
        <ele>124.3</ele>
        <time>2021-07-18T16:25:48Z</time>
      </trkpt>
      <trkpt lat="43.31662" lon="-1.33755">
        <ele>124.3</ele>
        <time>2021-07-18T16:25:49Z</time>
      </trkpt>
      <trkpt lat="43.3166" lon="-1.33749">
        <ele>124.4</ele>
        <time>2021-07-18T16:25:51Z</time>
      </trkpt>
      <trkpt lat="43.31657" lon="-1.33746">
        <ele>124.5</ele>
        <time>2021-07-18T16:25:52Z</time>
      </trkpt>
      <trkpt lat="43.31655" lon="-1.33744">
        <ele>124.6</ele>
        <time>2021-07-18T16:25:54Z</time>
      </trkpt>
      <trkpt lat="43.31652" lon="-1.33741">
        <ele>124.9</ele>
        <time>2021-07-18T16:25:55Z</time>
      </trkpt>
      <trkpt lat="43.31651" lon="-1.33739">
        <ele>125.2</ele>
        <time>2021-07-18T16:25:56Z</time>
      </trkpt>
      <trkpt lat="43.31648" lon="-1.33735">
        <ele>125.5</ele>
        <time>2021-07-18T16:25:58Z</time>
      </trkpt>
      <trkpt lat="43.31645" lon="-1.33733">
        <ele>125.9</ele>
        <time>2021-07-18T16:25:59Z</time>
      </trkpt>
      <trkpt lat="43.31644" lon="-1.33732">
        <ele>126</ele>
        <time>2021-07-18T16:26:00Z</time>
      </trkpt>
      <trkpt lat="43.31641" lon="-1.33729">
        <ele>126.3</ele>
        <time>2021-07-18T16:26:02Z</time>
      </trkpt>
      <trkpt lat="43.31639" lon="-1.33728">
        <ele>126.5</ele>
        <time>2021-07-18T16:26:03Z</time>
      </trkpt>
      <trkpt lat="43.31636" lon="-1.33726">
        <ele>126.9</ele>
        <time>2021-07-18T16:26:05Z</time>
      </trkpt>
      <trkpt lat="43.31634" lon="-1.33722">
        <ele>127.2</ele>
        <time>2021-07-18T16:26:07Z</time>
      </trkpt>
      <trkpt lat="43.31633" lon="-1.33718">
        <ele>127.5</ele>
        <time>2021-07-18T16:26:09Z</time>
      </trkpt>
      <trkpt lat="43.31632" lon="-1.33716">
        <ele>127.7</ele>
        <time>2021-07-18T16:26:10Z</time>
      </trkpt>
      <trkpt lat="43.3163" lon="-1.33713">
        <ele>127.9</ele>
        <time>2021-07-18T16:26:12Z</time>
      </trkpt>
      <trkpt lat="43.31629" lon="-1.33712">
        <ele>128.1</ele>
        <time>2021-07-18T16:26:13Z</time>
      </trkpt>
      <trkpt lat="43.31629" lon="-1.3371">
        <ele>128.2</ele>
        <time>2021-07-18T16:26:14Z</time>
      </trkpt>
      <trkpt lat="43.31628" lon="-1.33707">
        <ele>128.4</ele>
        <time>2021-07-18T16:26:16Z</time>
      </trkpt>
      <trkpt lat="43.31627" lon="-1.33704">
        <ele>128.6</ele>
        <time>2021-07-18T16:26:18Z</time>
      </trkpt>
      <trkpt lat="43.31627" lon="-1.33703">
        <ele>128.8</ele>
        <time>2021-07-18T16:26:19Z</time>
      </trkpt>
      <trkpt lat="43.31626" lon="-1.337">
        <ele>129</ele>
        <time>2021-07-18T16:26:20Z</time>
      </trkpt>
      <trkpt lat="43.31626" lon="-1.33698">
        <ele>129.2</ele>
        <time>2021-07-18T16:26:22Z</time>
      </trkpt>
      <trkpt lat="43.31626" lon="-1.33696">
        <ele>129.3</ele>
        <time>2021-07-18T16:26:24Z</time>
      </trkpt>
      <trkpt lat="43.31626" lon="-1.33695">
        <ele>129.4</ele>
        <time>2021-07-18T16:26:25Z</time>
      </trkpt>
      <trkpt lat="43.31626" lon="-1.33694">
        <ele>129.4</ele>
        <time>2021-07-18T16:26:26Z</time>
      </trkpt>
      <trkpt lat="43.31625" lon="-1.33692">
        <ele>129.5</ele>
        <time>2021-07-18T16:26:27Z</time>
      </trkpt>
      <trkpt lat="43.31625" lon="-1.3369">
        <ele>129.7</ele>
        <time>2021-07-18T16:26:29Z</time>
      </trkpt>
      <trkpt lat="43.31626" lon="-1.33688">
        <ele>129.9</ele>
        <time>2021-07-18T16:26:31Z</time>
      </trkpt>
      <trkpt lat="43.31626" lon="-1.33686">
        <ele>130</ele>
        <time>2021-07-18T16:26:32Z</time>
      </trkpt>
      <trkpt lat="43.31627" lon="-1.33684">
        <ele>130.2</ele>
        <time>2021-07-18T16:26:33Z</time>
      </trkpt>
      <trkpt lat="43.31627" lon="-1.33682">
        <ele>130.3</ele>
        <time>2021-07-18T16:26:35Z</time>
      </trkpt>
      <trkpt lat="43.31627" lon="-1.3368">
        <ele>130.5</ele>
        <time>2021-07-18T16:26:36Z</time>
      </trkpt>
      <trkpt lat="43.31628" lon="-1.33678">
        <ele>130.6</ele>
        <time>2021-07-18T16:26:38Z</time>
      </trkpt>
      <trkpt lat="43.31628" lon="-1.33677">
        <ele>130.7</ele>
        <time>2021-07-18T16:26:39Z</time>
      </trkpt>
      <trkpt lat="43.31629" lon="-1.33675">
        <ele>130.9</ele>
        <time>2021-07-18T16:26:41Z</time>
      </trkpt>
      <trkpt lat="43.31629" lon="-1.33673">
        <ele>131</ele>
        <time>2021-07-18T16:26:42Z</time>
      </trkpt>
      <trkpt lat="43.31629" lon="-1.33671">
        <ele>131.1</ele>
        <time>2021-07-18T16:26:43Z</time>
      </trkpt>
      <trkpt lat="43.3163" lon="-1.33669">
        <ele>131.3</ele>
        <time>2021-07-18T16:26:45Z</time>
      </trkpt>
      <trkpt lat="43.3163" lon="-1.33666">
        <ele>131.5</ele>
        <time>2021-07-18T16:26:46Z</time>
      </trkpt>
      <trkpt lat="43.3163" lon="-1.33665">
        <ele>131.6</ele>
        <time>2021-07-18T16:26:47Z</time>
      </trkpt>
      <trkpt lat="43.31632" lon="-1.33661">
        <ele>131.9</ele>
        <time>2021-07-18T16:26:49Z</time>
      </trkpt>
      <trkpt lat="43.31633" lon="-1.33658">
        <ele>132.1</ele>
        <time>2021-07-18T16:26:51Z</time>
      </trkpt>
      <trkpt lat="43.31634" lon="-1.33656">
        <ele>132.3</ele>
        <time>2021-07-18T16:26:53Z</time>
      </trkpt>
      <trkpt lat="43.31635" lon="-1.33652">
        <ele>132.6</ele>
        <time>2021-07-18T16:26:55Z</time>
      </trkpt>
      <trkpt lat="43.31636" lon="-1.33651">
        <ele>132.7</ele>
        <time>2021-07-18T16:26:56Z</time>
      </trkpt>
      <trkpt lat="43.31636" lon="-1.33649">
        <ele>132.8</ele>
        <time>2021-07-18T16:26:57Z</time>
      </trkpt>
      <trkpt lat="43.31637" lon="-1.33646">
        <ele>133.1</ele>
        <time>2021-07-18T16:26:59Z</time>
      </trkpt>
      <trkpt lat="43.31638" lon="-1.33644">
        <ele>133.2</ele>
        <time>2021-07-18T16:27:00Z</time>
      </trkpt>
      <trkpt lat="43.31638" lon="-1.33643">
        <ele>133.4</ele>
        <time>2021-07-18T16:27:01Z</time>
      </trkpt>
      <trkpt lat="43.31639" lon="-1.3364">
        <ele>133.6</ele>
        <time>2021-07-18T16:27:03Z</time>
      </trkpt>
      <trkpt lat="43.3164" lon="-1.33639">
        <ele>133.7</ele>
        <time>2021-07-18T16:27:04Z</time>
      </trkpt>
      <trkpt lat="43.3164" lon="-1.33636">
        <ele>133.9</ele>
        <time>2021-07-18T16:27:06Z</time>
      </trkpt>
      <trkpt lat="43.31641" lon="-1.33635">
        <ele>134</ele>
        <time>2021-07-18T16:27:07Z</time>
      </trkpt>
      <trkpt lat="43.31641" lon="-1.33635">
        <ele>134</ele>
        <time>2021-07-18T16:27:08Z</time>
      </trkpt>
      <trkpt lat="43.31641" lon="-1.33636">
        <ele>134</ele>
        <time>2021-07-18T16:27:10Z</time>
      </trkpt>
      <trkpt lat="43.31641" lon="-1.33636">
        <ele>134</ele>
        <time>2021-07-18T16:27:11Z</time>
      </trkpt>
      <trkpt lat="43.31641" lon="-1.33636">
        <ele>134</ele>
        <time>2021-07-18T16:27:13Z</time>
      </trkpt>
      <trkpt lat="43.31641" lon="-1.33636">
        <ele>134.1</ele>
        <time>2021-07-18T16:27:14Z</time>
      </trkpt>
      <trkpt lat="43.31641" lon="-1.33636">
        <ele>134.1</ele>
        <time>2021-07-18T16:27:15Z</time>
      </trkpt>
      <trkpt lat="43.31641" lon="-1.33636">
        <ele>134.1</ele>
        <time>2021-07-18T16:27:17Z</time>
      </trkpt>
      <trkpt lat="43.31639" lon="-1.3363">
        <ele>134.5</ele>
        <time>2021-07-18T16:28:11Z</time>
      </trkpt>
      <trkpt lat="43.31639" lon="-1.33629">
        <ele>134.6</ele>
        <time>2021-07-18T16:28:12Z</time>
      </trkpt>
      <trkpt lat="43.31638" lon="-1.33628">
        <ele>134.7</ele>
        <time>2021-07-18T16:28:13Z</time>
      </trkpt>
      <trkpt lat="43.31638" lon="-1.33628">
        <ele>134.7</ele>
        <time>2021-07-18T16:28:15Z</time>
      </trkpt>
      <trkpt lat="43.31637" lon="-1.33628">
        <ele>134.8</ele>
        <time>2021-07-18T16:28:17Z</time>
      </trkpt>
      <trkpt lat="43.31638" lon="-1.33628">
        <ele>134.8</ele>
        <time>2021-07-18T16:28:18Z</time>
      </trkpt>
      <trkpt lat="43.31637" lon="-1.33626">
        <ele>134.9</ele>
        <time>2021-07-18T16:28:20Z</time>
      </trkpt>
      <trkpt lat="43.31637" lon="-1.33625">
        <ele>135.1</ele>
        <time>2021-07-18T16:28:21Z</time>
      </trkpt>
      <trkpt lat="43.31636" lon="-1.33624">
        <ele>135.1</ele>
        <time>2021-07-18T16:28:22Z</time>
      </trkpt>
      <trkpt lat="43.31635" lon="-1.33622">
        <ele>135.3</ele>
        <time>2021-07-18T16:28:24Z</time>
      </trkpt>
      <trkpt lat="43.31635" lon="-1.33621">
        <ele>135.3</ele>
        <time>2021-07-18T16:28:25Z</time>
      </trkpt>
      <trkpt lat="43.31635" lon="-1.33621">
        <ele>135.4</ele>
        <time>2021-07-18T16:28:27Z</time>
      </trkpt>
      <trkpt lat="43.31634" lon="-1.33621">
        <ele>135.4</ele>
        <time>2021-07-18T16:28:29Z</time>
      </trkpt>
      <trkpt lat="43.31634" lon="-1.3362">
        <ele>135.5</ele>
        <time>2021-07-18T16:28:31Z</time>
      </trkpt>
      <trkpt lat="43.31634" lon="-1.3362">
        <ele>135.5</ele>
        <time>2021-07-18T16:28:33Z</time>
      </trkpt>
    </trkseg>
  </trk>
</gpx>